<?xml version="1.0"?>
<gpx
 version="1.1"
 creator="Satmap Active 20"
 xmlns:xsi="http://www.w3.org/2001/XMLSchema-instance"
 xmlns="http://www.topografix.com/GPX/1/1"
 xmlns:satmap="http://www.satmap.com/updates/xmlschemas/GpxExtensions/v2/GpxExtensions_v2.xsd"
 xsi:schemaLocation="http://www.topografix.com/GPX/1/1 http://www.topografix.com/GPX/1/1/gpx.xsd">
<metadata>
<time>2020-01-31T10:03:21Z</time>
<extensions>
<satmap:platform>43</satmap:platform>
<satmap:software version="3.12.831">SM15.exe</satmap:software>
<satmap:username>Jim Grant</satmap:username>
<satmap:network_ids>
<satmap:network_id type="wifi">00-23-A7-EC-D5-78</satmap:network_id>
<satmap:network_id type="bluetooth">80-BB-EB-D7-5B-7C</satmap:network_id>
</satmap:network_ids>
<satmap:snap_type>simple</satmap:snap_type>
</extensions>
</metadata>
<trk>
<name>2020-01-31_1004</name>
<desc>Track 1</desc>
<number>1</number>
<trkseg>
<trkpt lat="53.194692" lon="-1.697698"><ele>233</ele><time>2020-01-31T10:03:21Z</time><name>PT1</name></trkpt>
<trkpt lat="53.194697" lon="-1.697700"><ele>232</ele><time>2020-01-31T10:04:02Z</time><name>PT2</name></trkpt>
<trkpt lat="53.194696" lon="-1.697692"><ele>231</ele><time>2020-01-31T10:04:03Z</time><name>PT3</name></trkpt>
<trkpt lat="53.194697" lon="-1.697681"><ele>230</ele><time>2020-01-31T10:04:03Z</time><name>PT4</name></trkpt>
<trkpt lat="53.194694" lon="-1.697684"><ele>230</ele><time>2020-01-31T10:04:05Z</time><name>PT5</name></trkpt>
<trkpt lat="53.194694" lon="-1.697688"><ele>230</ele><time>2020-01-31T10:04:12Z</time><name>PT6</name></trkpt>
<trkpt lat="53.194694" lon="-1.697683"><ele>230</ele><time>2020-01-31T10:04:12Z</time><name>PT7</name></trkpt>
<trkpt lat="53.194693" lon="-1.697680"><ele>229</ele><time>2020-01-31T10:04:14Z</time><name>PT8</name></trkpt>
<trkpt lat="53.194693" lon="-1.697678"><ele>229</ele><time>2020-01-31T10:04:15Z</time><name>PT9</name></trkpt>
<trkpt lat="53.194691" lon="-1.697669"><ele>229</ele><time>2020-01-31T10:04:30Z</time><name>PT10</name></trkpt>
<trkpt lat="53.194682" lon="-1.697675"><ele>229</ele><time>2020-01-31T10:04:30Z</time><name>PT11</name></trkpt>
<trkpt lat="53.194680" lon="-1.697673"><ele>229</ele><time>2020-01-31T10:04:32Z</time><name>PT12</name></trkpt>
<trkpt lat="53.194678" lon="-1.697670"><ele>229</ele><time>2020-01-31T10:04:33Z</time><name>PT13</name></trkpt>
<trkpt lat="53.194676" lon="-1.697669"><ele>229</ele><time>2020-01-31T10:04:33Z</time><name>PT14</name></trkpt>
<trkpt lat="53.194677" lon="-1.697670"><ele>230</ele><time>2020-01-31T10:04:35Z</time><name>PT15</name></trkpt>
<trkpt lat="53.194671" lon="-1.697662"><ele>230</ele><time>2020-01-31T10:04:45Z</time><name>PT16</name></trkpt>
<trkpt lat="53.194669" lon="-1.697656"><ele>230</ele><time>2020-01-31T10:04:45Z</time><name>PT17</name></trkpt>
<trkpt lat="53.194669" lon="-1.697652"><ele>230</ele><time>2020-01-31T10:04:47Z</time><name>PT18</name></trkpt>
<trkpt lat="53.194667" lon="-1.697648"><ele>230</ele><time>2020-01-31T10:04:48Z</time><name>PT19</name></trkpt>
<trkpt lat="53.194664" lon="-1.697647"><ele>230</ele><time>2020-01-31T10:04:48Z</time><name>PT20</name></trkpt>
<trkpt lat="53.194661" lon="-1.697652"><ele>229</ele><time>2020-01-31T10:04:50Z</time><name>PT21</name></trkpt>
<trkpt lat="53.194657" lon="-1.697653"><ele>229</ele><time>2020-01-31T10:04:51Z</time><name>PT22</name></trkpt>
<trkpt lat="53.194651" lon="-1.697649"><ele>229</ele><time>2020-01-31T10:04:51Z</time><name>PT23</name></trkpt>
<trkpt lat="53.194643" lon="-1.697645"><ele>228</ele><time>2020-01-31T10:04:53Z</time><name>PT24</name></trkpt>
<trkpt lat="53.194641" lon="-1.697643"><ele>228</ele><time>2020-01-31T10:04:54Z</time><name>PT25</name></trkpt>
<trkpt lat="53.194639" lon="-1.697643"><ele>228</ele><time>2020-01-31T10:04:54Z</time><name>PT26</name></trkpt>
<trkpt lat="53.194634" lon="-1.697641"><ele>228</ele><time>2020-01-31T10:04:56Z</time><name>PT27</name></trkpt>
<trkpt lat="53.194632" lon="-1.697643"><ele>228</ele><time>2020-01-31T10:05:15Z</time><name>PT28</name></trkpt>
<trkpt lat="53.194633" lon="-1.697647"><ele>228</ele><time>2020-01-31T10:05:17Z</time><name>PT29</name></trkpt>
<trkpt lat="53.194627" lon="-1.697650"><ele>228</ele><time>2020-01-31T10:05:18Z</time><name>PT30</name></trkpt>
<trkpt lat="53.194628" lon="-1.697654"><ele>228</ele><time>2020-01-31T10:05:18Z</time><name>PT31</name></trkpt>
<trkpt lat="53.194624" lon="-1.697655"><ele>229</ele><time>2020-01-31T10:05:20Z</time><name>PT32</name></trkpt>
<trkpt lat="53.194623" lon="-1.697651"><ele>228</ele><time>2020-01-31T10:05:21Z</time><name>PT33</name></trkpt>
<trkpt lat="53.194623" lon="-1.697652"><ele>228</ele><time>2020-01-31T10:05:21Z</time><name>PT34</name></trkpt>
<trkpt lat="53.194623" lon="-1.697650"><ele>228</ele><time>2020-01-31T10:05:23Z</time><name>PT35</name></trkpt>
<trkpt lat="53.194621" lon="-1.697651"><ele>228</ele><time>2020-01-31T10:05:24Z</time><name>PT36</name></trkpt>
<trkpt lat="53.194618" lon="-1.697650"><ele>228</ele><time>2020-01-31T10:05:24Z</time><name>PT37</name></trkpt>
<trkpt lat="53.194619" lon="-1.697650"><ele>228</ele><time>2020-01-31T10:05:26Z</time><name>PT38</name></trkpt>
<trkpt lat="53.194616" lon="-1.697652"><ele>227</ele><time>2020-01-31T10:05:27Z</time><name>PT39</name></trkpt>
<trkpt lat="53.194612" lon="-1.697639"><ele>226</ele><time>2020-01-31T10:05:33Z</time><name>PT40</name></trkpt>
<trkpt lat="53.194610" lon="-1.697638"><ele>226</ele><time>2020-01-31T10:05:35Z</time><name>PT41</name></trkpt>
<trkpt lat="53.194610" lon="-1.697633"><ele>226</ele><time>2020-01-31T10:05:36Z</time><name>PT42</name></trkpt>
<trkpt lat="53.194607" lon="-1.697633"><ele>226</ele><time>2020-01-31T10:05:36Z</time><name>PT43</name></trkpt>
<trkpt lat="53.194604" lon="-1.697624"><ele>226</ele><time>2020-01-31T10:05:38Z</time><name>PT44</name></trkpt>
<trkpt lat="53.194599" lon="-1.697623"><ele>226</ele><time>2020-01-31T10:05:39Z</time><name>PT45</name></trkpt>
<trkpt lat="53.194599" lon="-1.697621"><ele>225</ele><time>2020-01-31T10:05:39Z</time><name>PT46</name></trkpt>
<trkpt lat="53.194598" lon="-1.697625"><ele>225</ele><time>2020-01-31T10:05:41Z</time><name>PT47</name></trkpt>
<trkpt lat="53.194595" lon="-1.697630"><ele>225</ele><time>2020-01-31T10:05:42Z</time><name>PT48</name></trkpt>
<trkpt lat="53.194594" lon="-1.697636"><ele>225</ele><time>2020-01-31T10:05:42Z</time><name>PT49</name></trkpt>
<trkpt lat="53.194594" lon="-1.697637"><ele>225</ele><time>2020-01-31T10:05:44Z</time><name>PT50</name></trkpt>
<trkpt lat="53.194596" lon="-1.697638"><ele>225</ele><time>2020-01-31T10:05:45Z</time><name>PT51</name></trkpt>
<trkpt lat="53.194595" lon="-1.697639"><ele>225</ele><time>2020-01-31T10:05:45Z</time><name>PT52</name></trkpt>
<trkpt lat="53.194595" lon="-1.697639"><ele>225</ele><time>2020-01-31T10:05:47Z</time><name>PT53</name></trkpt>
<trkpt lat="53.194599" lon="-1.697634"><ele>225</ele><time>2020-01-31T10:05:48Z</time><name>PT54</name></trkpt>
<trkpt lat="53.194598" lon="-1.697630"><ele>226</ele><time>2020-01-31T10:05:48Z</time><name>PT55</name></trkpt>
<trkpt lat="53.194596" lon="-1.697631"><ele>226</ele><time>2020-01-31T10:05:50Z</time><name>PT56</name></trkpt>
<trkpt lat="53.194594" lon="-1.697628"><ele>226</ele><time>2020-01-31T10:05:51Z</time><name>PT57</name></trkpt>
<trkpt lat="53.194594" lon="-1.697629"><ele>226</ele><time>2020-01-31T10:05:51Z</time><name>PT58</name></trkpt>
<trkpt lat="53.194594" lon="-1.697626"><ele>226</ele><time>2020-01-31T10:05:53Z</time><name>PT59</name></trkpt>
<trkpt lat="53.194594" lon="-1.697622"><ele>226</ele><time>2020-01-31T10:05:54Z</time><name>PT60</name></trkpt>
<trkpt lat="53.194593" lon="-1.697628"><ele>226</ele><time>2020-01-31T10:06:05Z</time><name>PT61</name></trkpt>
<trkpt lat="53.194594" lon="-1.697618"><ele>226</ele><time>2020-01-31T10:06:06Z</time><name>PT62</name></trkpt>
<trkpt lat="53.194596" lon="-1.697604"><ele>225</ele><time>2020-01-31T10:06:06Z</time><name>PT63</name></trkpt>
<trkpt lat="53.194599" lon="-1.697589"><ele>225</ele><time>2020-01-31T10:06:08Z</time><name>PT64</name></trkpt>
<trkpt lat="53.194600" lon="-1.697573"><ele>225</ele><time>2020-01-31T10:06:09Z</time><name>PT65</name></trkpt>
<trkpt lat="53.194599" lon="-1.697557"><ele>226</ele><time>2020-01-31T10:06:09Z</time><name>PT66</name></trkpt>
<trkpt lat="53.194604" lon="-1.697538"><ele>225</ele><time>2020-01-31T10:06:11Z</time><name>PT67</name></trkpt>
<trkpt lat="53.194608" lon="-1.697518"><ele>225</ele><time>2020-01-31T10:06:12Z</time><name>PT68</name></trkpt>
<trkpt lat="53.194614" lon="-1.697499"><ele>225</ele><time>2020-01-31T10:06:12Z</time><name>PT69</name></trkpt>
<trkpt lat="53.194615" lon="-1.697479"><ele>225</ele><time>2020-01-31T10:06:14Z</time><name>PT70</name></trkpt>
<trkpt lat="53.194620" lon="-1.697456"><ele>225</ele><time>2020-01-31T10:06:15Z</time><name>PT71</name></trkpt>
<trkpt lat="53.194624" lon="-1.697436"><ele>226</ele><time>2020-01-31T10:06:15Z</time><name>PT72</name></trkpt>
<trkpt lat="53.194628" lon="-1.697418"><ele>225</ele><time>2020-01-31T10:06:17Z</time><name>PT73</name></trkpt>
<trkpt lat="53.194635" lon="-1.697400"><ele>225</ele><time>2020-01-31T10:06:18Z</time><name>PT74</name></trkpt>
<trkpt lat="53.194642" lon="-1.697383"><ele>226</ele><time>2020-01-31T10:06:18Z</time><name>PT75</name></trkpt>
<trkpt lat="53.194646" lon="-1.697367"><ele>225</ele><time>2020-01-31T10:06:20Z</time><name>PT76</name></trkpt>
<trkpt lat="53.194653" lon="-1.697355"><ele>224</ele><time>2020-01-31T10:06:21Z</time><name>PT77</name></trkpt>
<trkpt lat="53.194658" lon="-1.697341"><ele>224</ele><time>2020-01-31T10:06:21Z</time><name>PT78</name></trkpt>
<trkpt lat="53.194663" lon="-1.697323"><ele>223</ele><time>2020-01-31T10:06:23Z</time><name>PT79</name></trkpt>
<trkpt lat="53.194662" lon="-1.697307"><ele>223</ele><time>2020-01-31T10:06:24Z</time><name>PT80</name></trkpt>
<trkpt lat="53.194658" lon="-1.697293"><ele>222</ele><time>2020-01-31T10:06:24Z</time><name>PT81</name></trkpt>
<trkpt lat="53.194658" lon="-1.697277"><ele>221</ele><time>2020-01-31T10:06:26Z</time><name>PT82</name></trkpt>
<trkpt lat="53.194657" lon="-1.697258"><ele>220</ele><time>2020-01-31T10:06:27Z</time><name>PT83</name></trkpt>
<trkpt lat="53.194652" lon="-1.697241"><ele>219</ele><time>2020-01-31T10:06:27Z</time><name>PT84</name></trkpt>
<trkpt lat="53.194646" lon="-1.697224"><ele>218</ele><time>2020-01-31T10:06:29Z</time><name>PT85</name></trkpt>
<trkpt lat="53.194645" lon="-1.697217"><ele>217</ele><time>2020-01-31T10:06:30Z</time><name>PT86</name></trkpt>
<trkpt lat="53.194644" lon="-1.697218"><ele>217</ele><time>2020-01-31T10:06:30Z</time><name>PT87</name></trkpt>
<trkpt lat="53.194645" lon="-1.697210"><ele>216</ele><time>2020-01-31T10:06:32Z</time><name>PT88</name></trkpt>
<trkpt lat="53.194641" lon="-1.697202"><ele>216</ele><time>2020-01-31T10:06:33Z</time><name>PT89</name></trkpt>
<trkpt lat="53.194643" lon="-1.697192"><ele>215</ele><time>2020-01-31T10:06:33Z</time><name>PT90</name></trkpt>
<trkpt lat="53.194643" lon="-1.697189"><ele>214</ele><time>2020-01-31T10:06:35Z</time><name>PT91</name></trkpt>
<trkpt lat="53.194637" lon="-1.697177"><ele>212</ele><time>2020-01-31T10:06:36Z</time><name>PT92</name></trkpt>
<trkpt lat="53.194642" lon="-1.697181"><ele>211</ele><time>2020-01-31T10:06:36Z</time><name>PT93</name></trkpt>
<trkpt lat="53.194639" lon="-1.697185"><ele>211</ele><time>2020-01-31T10:06:38Z</time><name>PT94</name></trkpt>
<trkpt lat="53.194635" lon="-1.697187"><ele>209</ele><time>2020-01-31T10:06:39Z</time><name>PT95</name></trkpt>
<trkpt lat="53.194629" lon="-1.697190"><ele>208</ele><time>2020-01-31T10:06:39Z</time><name>PT96</name></trkpt>
<trkpt lat="53.194629" lon="-1.697189"><ele>208</ele><time>2020-01-31T10:06:41Z</time><name>PT97</name></trkpt>
<trkpt lat="53.194636" lon="-1.697179"><ele>208</ele><time>2020-01-31T10:06:42Z</time><name>PT98</name></trkpt>
<trkpt lat="53.194644" lon="-1.697168"><ele>208</ele><time>2020-01-31T10:06:42Z</time><name>PT99</name></trkpt>
<trkpt lat="53.194650" lon="-1.697160"><ele>209</ele><time>2020-01-31T10:06:44Z</time><name>PT100</name></trkpt>
<trkpt lat="53.194648" lon="-1.697157"><ele>208</ele><time>2020-01-31T10:06:45Z</time><name>PT101</name></trkpt>
<trkpt lat="53.194650" lon="-1.697156"><ele>209</ele><time>2020-01-31T10:06:45Z</time><name>PT102</name></trkpt>
<trkpt lat="53.194650" lon="-1.697152"><ele>208</ele><time>2020-01-31T10:06:47Z</time><name>PT103</name></trkpt>
<trkpt lat="53.194646" lon="-1.697137"><ele>205</ele><time>2020-01-31T10:06:48Z</time><name>PT104</name></trkpt>
<trkpt lat="53.194645" lon="-1.697134"><ele>206</ele><time>2020-01-31T10:06:48Z</time><name>PT105</name></trkpt>
<trkpt lat="53.194639" lon="-1.697127"><ele>205</ele><time>2020-01-31T10:06:50Z</time><name>PT106</name></trkpt>
<trkpt lat="53.194650" lon="-1.697128"><ele>206</ele><time>2020-01-31T10:06:51Z</time><name>PT107</name></trkpt>
<trkpt lat="53.194645" lon="-1.697125"><ele>205</ele><time>2020-01-31T10:06:51Z</time><name>PT108</name></trkpt>
<trkpt lat="53.194639" lon="-1.697124"><ele>206</ele><time>2020-01-31T10:06:53Z</time><name>PT109</name></trkpt>
<trkpt lat="53.194633" lon="-1.697131"><ele>208</ele><time>2020-01-31T10:06:54Z</time><name>PT110</name></trkpt>
<trkpt lat="53.194639" lon="-1.697139"><ele>209</ele><time>2020-01-31T10:06:54Z</time><name>PT111</name></trkpt>
<trkpt lat="53.194638" lon="-1.697143"><ele>210</ele><time>2020-01-31T10:06:56Z</time><name>PT112</name></trkpt>
<trkpt lat="53.194634" lon="-1.697143"><ele>210</ele><time>2020-01-31T10:06:57Z</time><name>PT113</name></trkpt>
<trkpt lat="53.194637" lon="-1.697148"><ele>211</ele><time>2020-01-31T10:06:57Z</time><name>PT114</name></trkpt>
<trkpt lat="53.194637" lon="-1.697151"><ele>211</ele><time>2020-01-31T10:07:03Z</time><name>PT115</name></trkpt>
<trkpt lat="53.194634" lon="-1.697154"><ele>212</ele><time>2020-01-31T10:07:05Z</time><name>PT116</name></trkpt>
<trkpt lat="53.194639" lon="-1.697160"><ele>213</ele><time>2020-01-31T10:07:06Z</time><name>PT117</name></trkpt>
<trkpt lat="53.194640" lon="-1.697163"><ele>213</ele><time>2020-01-31T10:07:06Z</time><name>PT118</name></trkpt>
<trkpt lat="53.194633" lon="-1.697169"><ele>213</ele><time>2020-01-31T10:07:07Z</time><name>PT119</name></trkpt>
<trkpt lat="53.194631" lon="-1.697174"><ele>214</ele><time>2020-01-31T10:07:09Z</time><name>PT120</name></trkpt>
<trkpt lat="53.194636" lon="-1.697175"><ele>214</ele><time>2020-01-31T10:07:09Z</time><name>PT121</name></trkpt>
<trkpt lat="53.194634" lon="-1.697177"><ele>214</ele><time>2020-01-31T10:07:11Z</time><name>PT122</name></trkpt>
<trkpt lat="53.194637" lon="-1.697177"><ele>215</ele><time>2020-01-31T10:07:12Z</time><name>PT123</name></trkpt>
<trkpt lat="53.194637" lon="-1.697173"><ele>215</ele><time>2020-01-31T10:07:35Z</time><name>PT124</name></trkpt>
<trkpt lat="53.194633" lon="-1.697163"><ele>215</ele><time>2020-01-31T10:07:36Z</time><name>PT125</name></trkpt>
<trkpt lat="53.194644" lon="-1.697175"><ele>216</ele><time>2020-01-31T10:08:11Z</time><name>PT126</name></trkpt>
<trkpt lat="53.194657" lon="-1.697192"><ele>217</ele><time>2020-01-31T10:08:12Z</time><name>PT127</name></trkpt>
<trkpt lat="53.194660" lon="-1.697193"><ele>218</ele><time>2020-01-31T10:08:12Z</time><name>PT128</name></trkpt>
<trkpt lat="53.194660" lon="-1.697192"><ele>218</ele><time>2020-01-31T10:08:14Z</time><name>PT129</name></trkpt>
<trkpt lat="53.194650" lon="-1.697192"><ele>218</ele><time>2020-01-31T10:08:15Z</time><name>PT130</name></trkpt>
<trkpt lat="53.194646" lon="-1.697204"><ele>219</ele><time>2020-01-31T10:08:15Z</time><name>PT131</name></trkpt>
<trkpt lat="53.194641" lon="-1.697207"><ele>219</ele><time>2020-01-31T10:08:17Z</time><name>PT132</name></trkpt>
<trkpt lat="53.194636" lon="-1.697207"><ele>220</ele><time>2020-01-31T10:08:18Z</time><name>PT133</name></trkpt>
<trkpt lat="53.194635" lon="-1.697200"><ele>220</ele><time>2020-01-31T10:08:18Z</time><name>PT134</name></trkpt>
<trkpt lat="53.194636" lon="-1.697188"><ele>220</ele><time>2020-01-31T10:08:20Z</time><name>PT135</name></trkpt>
<trkpt lat="53.194623" lon="-1.697189"><ele>220</ele><time>2020-01-31T10:08:21Z</time><name>PT136</name></trkpt>
<trkpt lat="53.194624" lon="-1.697186"><ele>220</ele><time>2020-01-31T10:08:21Z</time><name>PT137</name></trkpt>
<trkpt lat="53.194624" lon="-1.697187"><ele>219</ele><time>2020-01-31T10:08:23Z</time><name>PT138</name></trkpt>
<trkpt lat="53.194625" lon="-1.697188"><ele>219</ele><time>2020-01-31T10:08:24Z</time><name>PT139</name></trkpt>
<trkpt lat="53.194635" lon="-1.697196"><ele>219</ele><time>2020-01-31T10:08:24Z</time><name>PT140</name></trkpt>
<trkpt lat="53.194630" lon="-1.697211"><ele>220</ele><time>2020-01-31T10:08:26Z</time><name>PT141</name></trkpt>
<trkpt lat="53.194624" lon="-1.697231"><ele>220</ele><time>2020-01-31T10:08:27Z</time><name>PT142</name></trkpt>
<trkpt lat="53.194625" lon="-1.697245"><ele>220</ele><time>2020-01-31T10:08:27Z</time><name>PT143</name></trkpt>
<trkpt lat="53.194623" lon="-1.697256"><ele>219</ele><time>2020-01-31T10:08:29Z</time><name>PT144</name></trkpt>
<trkpt lat="53.194618" lon="-1.697274"><ele>219</ele><time>2020-01-31T10:08:30Z</time><name>PT145</name></trkpt>
<trkpt lat="53.194617" lon="-1.697288"><ele>219</ele><time>2020-01-31T10:08:30Z</time><name>PT146</name></trkpt>
<trkpt lat="53.194619" lon="-1.697304"><ele>219</ele><time>2020-01-31T10:08:32Z</time><name>PT147</name></trkpt>
<trkpt lat="53.194616" lon="-1.697319"><ele>219</ele><time>2020-01-31T10:08:33Z</time><name>PT148</name></trkpt>
<trkpt lat="53.194614" lon="-1.697335"><ele>219</ele><time>2020-01-31T10:08:33Z</time><name>PT149</name></trkpt>
<trkpt lat="53.194611" lon="-1.697350"><ele>219</ele><time>2020-01-31T10:08:35Z</time><name>PT150</name></trkpt>
<trkpt lat="53.194611" lon="-1.697368"><ele>219</ele><time>2020-01-31T10:08:36Z</time><name>PT151</name></trkpt>
<trkpt lat="53.194610" lon="-1.697385"><ele>219</ele><time>2020-01-31T10:08:36Z</time><name>PT152</name></trkpt>
<trkpt lat="53.194607" lon="-1.697399"><ele>219</ele><time>2020-01-31T10:08:38Z</time><name>PT153</name></trkpt>
<trkpt lat="53.194609" lon="-1.697409"><ele>219</ele><time>2020-01-31T10:08:39Z</time><name>PT154</name></trkpt>
<trkpt lat="53.194613" lon="-1.697421"><ele>220</ele><time>2020-01-31T10:08:39Z</time><name>PT155</name></trkpt>
<trkpt lat="53.194614" lon="-1.697432"><ele>220</ele><time>2020-01-31T10:08:41Z</time><name>PT156</name></trkpt>
<trkpt lat="53.194615" lon="-1.697443"><ele>220</ele><time>2020-01-31T10:08:42Z</time><name>PT157</name></trkpt>
<trkpt lat="53.194614" lon="-1.697453"><ele>220</ele><time>2020-01-31T10:08:42Z</time><name>PT158</name></trkpt>
<trkpt lat="53.194612" lon="-1.697463"><ele>220</ele><time>2020-01-31T10:08:44Z</time><name>PT159</name></trkpt>
<trkpt lat="53.194608" lon="-1.697474"><ele>220</ele><time>2020-01-31T10:08:45Z</time><name>PT160</name></trkpt>
<trkpt lat="53.194601" lon="-1.697485"><ele>220</ele><time>2020-01-31T10:08:45Z</time><name>PT161</name></trkpt>
<trkpt lat="53.194595" lon="-1.697493"><ele>220</ele><time>2020-01-31T10:08:47Z</time><name>PT162</name></trkpt>
<trkpt lat="53.194591" lon="-1.697502"><ele>220</ele><time>2020-01-31T10:08:48Z</time><name>PT163</name></trkpt>
<trkpt lat="53.194589" lon="-1.697511"><ele>220</ele><time>2020-01-31T10:08:48Z</time><name>PT164</name></trkpt>
<trkpt lat="53.194587" lon="-1.697523"><ele>220</ele><time>2020-01-31T10:08:50Z</time><name>PT165</name></trkpt>
<trkpt lat="53.194587" lon="-1.697536"><ele>219</ele><time>2020-01-31T10:08:51Z</time><name>PT166</name></trkpt>
<trkpt lat="53.194585" lon="-1.697547"><ele>219</ele><time>2020-01-31T10:08:51Z</time><name>PT167</name></trkpt>
<trkpt lat="53.194586" lon="-1.697558"><ele>219</ele><time>2020-01-31T10:08:53Z</time><name>PT168</name></trkpt>
<trkpt lat="53.194584" lon="-1.697569"><ele>219</ele><time>2020-01-31T10:08:54Z</time><name>PT169</name></trkpt>
<trkpt lat="53.194584" lon="-1.697576"><ele>219</ele><time>2020-01-31T10:08:54Z</time><name>PT170</name></trkpt>
<trkpt lat="53.194586" lon="-1.697583"><ele>219</ele><time>2020-01-31T10:08:56Z</time><name>PT171</name></trkpt>
<trkpt lat="53.194588" lon="-1.697590"><ele>218</ele><time>2020-01-31T10:08:57Z</time><name>PT172</name></trkpt>
<trkpt lat="53.194589" lon="-1.697593"><ele>218</ele><time>2020-01-31T10:08:57Z</time><name>PT173</name></trkpt>
<trkpt lat="53.194589" lon="-1.697597"><ele>219</ele><time>2020-01-31T10:08:58Z</time><name>PT174</name></trkpt>
<trkpt lat="53.194590" lon="-1.697596"><ele>219</ele><time>2020-01-31T10:09:00Z</time><name>PT175</name></trkpt>
<trkpt lat="53.194590" lon="-1.697597"><ele>219</ele><time>2020-01-31T10:09:26Z</time><name>PT176</name></trkpt>
<trkpt lat="53.194589" lon="-1.697595"><ele>219</ele><time>2020-01-31T10:09:27Z</time><name>PT177</name></trkpt>
<trkpt lat="53.194572" lon="-1.697616"><ele>221</ele><time>2020-01-31T10:09:27Z</time><name>PT178</name></trkpt>
<trkpt lat="53.194579" lon="-1.697614"><ele>222</ele><time>2020-01-31T10:10:03Z</time><name>PT179</name></trkpt>
<trkpt lat="53.194585" lon="-1.697613"><ele>222</ele><time>2020-01-31T10:10:03Z</time><name>PT180</name></trkpt>
<trkpt lat="53.194587" lon="-1.697617"><ele>222</ele><time>2020-01-31T10:10:05Z</time><name>PT181</name></trkpt>
<trkpt lat="53.194589" lon="-1.697622"><ele>222</ele><time>2020-01-31T10:10:06Z</time><name>PT182</name></trkpt>
<trkpt lat="53.194583" lon="-1.697621"><ele>222</ele><time>2020-01-31T10:10:06Z</time><name>PT183</name></trkpt>
<trkpt lat="53.194569" lon="-1.697623"><ele>222</ele><time>2020-01-31T10:10:08Z</time><name>PT184</name></trkpt>
<trkpt lat="53.194563" lon="-1.697621"><ele>222</ele><time>2020-01-31T10:10:09Z</time><name>PT185</name></trkpt>
<trkpt lat="53.194561" lon="-1.697616"><ele>222</ele><time>2020-01-31T10:10:09Z</time><name>PT186</name></trkpt>
<trkpt lat="53.194559" lon="-1.697619"><ele>223</ele><time>2020-01-31T10:10:11Z</time><name>PT187</name></trkpt>
<trkpt lat="53.194558" lon="-1.697622"><ele>223</ele><time>2020-01-31T10:10:12Z</time><name>PT188</name></trkpt>
<trkpt lat="53.194559" lon="-1.697626"><ele>223</ele><time>2020-01-31T10:10:12Z</time><name>PT189</name></trkpt>
<trkpt lat="53.194561" lon="-1.697626"><ele>223</ele><time>2020-01-31T10:10:21Z</time><name>PT190</name></trkpt>
<trkpt lat="53.194561" lon="-1.697620"><ele>223</ele><time>2020-01-31T10:10:21Z</time><name>PT191</name></trkpt>
<trkpt lat="53.194562" lon="-1.697621"><ele>223</ele><time>2020-01-31T10:10:36Z</time><name>PT192</name></trkpt>
<trkpt lat="53.194564" lon="-1.697623"><ele>223</ele><time>2020-01-31T10:10:36Z</time><name>PT193</name></trkpt>
<trkpt lat="53.194570" lon="-1.697624"><ele>223</ele><time>2020-01-31T10:10:39Z</time><name>PT194</name></trkpt>
<trkpt lat="53.194571" lon="-1.697619"><ele>223</ele><time>2020-01-31T10:10:39Z</time><name>PT195</name></trkpt>
<trkpt lat="53.194572" lon="-1.697616"><ele>223</ele><time>2020-01-31T10:10:41Z</time><name>PT196</name></trkpt>
<trkpt lat="53.194577" lon="-1.697611"><ele>223</ele><time>2020-01-31T10:10:45Z</time><name>PT197</name></trkpt>
<trkpt lat="53.194579" lon="-1.697601"><ele>223</ele><time>2020-01-31T10:10:45Z</time><name>PT198</name></trkpt>
<trkpt lat="53.194581" lon="-1.697599"><ele>223</ele><time>2020-01-31T10:10:47Z</time><name>PT199</name></trkpt>
<trkpt lat="53.194584" lon="-1.697597"><ele>223</ele><time>2020-01-31T10:10:48Z</time><name>PT200</name></trkpt>
<trkpt lat="53.194591" lon="-1.697595"><ele>223</ele><time>2020-01-31T10:10:48Z</time><name>PT201</name></trkpt>
<trkpt lat="53.194589" lon="-1.697603"><ele>223</ele><time>2020-01-31T10:10:50Z</time><name>PT202</name></trkpt>
<trkpt lat="53.194589" lon="-1.697600"><ele>223</ele><time>2020-01-31T10:10:51Z</time><name>PT203</name></trkpt>
<trkpt lat="53.194590" lon="-1.697598"><ele>223</ele><time>2020-01-31T10:10:51Z</time><name>PT204</name></trkpt>
<trkpt lat="53.194591" lon="-1.697596"><ele>223</ele><time>2020-01-31T10:11:00Z</time><name>PT205</name></trkpt>
<trkpt lat="53.194591" lon="-1.697598"><ele>224</ele><time>2020-01-31T10:11:00Z</time><name>PT206</name></trkpt>
<trkpt lat="53.194593" lon="-1.697598"><ele>224</ele><time>2020-01-31T10:11:02Z</time><name>PT207</name></trkpt>
<trkpt lat="53.194595" lon="-1.697594"><ele>224</ele><time>2020-01-31T10:11:03Z</time><name>PT208</name></trkpt>
<trkpt lat="53.194599" lon="-1.697593"><ele>224</ele><time>2020-01-31T10:11:03Z</time><name>PT209</name></trkpt>
<trkpt lat="53.194604" lon="-1.697592"><ele>224</ele><time>2020-01-31T10:11:09Z</time><name>PT210</name></trkpt>
<trkpt lat="53.194607" lon="-1.697584"><ele>225</ele><time>2020-01-31T10:11:09Z</time><name>PT211</name></trkpt>
<trkpt lat="53.194609" lon="-1.697583"><ele>224</ele><time>2020-01-31T10:11:11Z</time><name>PT212</name></trkpt>
<trkpt lat="53.194611" lon="-1.697582"><ele>224</ele><time>2020-01-31T10:11:12Z</time><name>PT213</name></trkpt>
<trkpt lat="53.194611" lon="-1.697583"><ele>224</ele><time>2020-01-31T10:11:12Z</time><name>PT214</name></trkpt>
<trkpt lat="53.194611" lon="-1.697583"><ele>225</ele><time>2020-01-31T10:11:14Z</time><name>PT215</name></trkpt>
<trkpt lat="53.194612" lon="-1.697585"><ele>224</ele><time>2020-01-31T10:11:15Z</time><name>PT216</name></trkpt>
<trkpt lat="53.194613" lon="-1.697584"><ele>225</ele><time>2020-01-31T10:11:15Z</time><name>PT217</name></trkpt>
<trkpt lat="53.194614" lon="-1.697586"><ele>224</ele><time>2020-01-31T10:11:17Z</time><name>PT218</name></trkpt>
<trkpt lat="53.194615" lon="-1.697586"><ele>224</ele><time>2020-01-31T10:11:18Z</time><name>PT219</name></trkpt>
<trkpt lat="53.194616" lon="-1.697589"><ele>224</ele><time>2020-01-31T10:11:30Z</time><name>PT220</name></trkpt>
<trkpt lat="53.194618" lon="-1.697589"><ele>224</ele><time>2020-01-31T10:11:31Z</time><name>PT221</name></trkpt>
<trkpt lat="53.194619" lon="-1.697591"><ele>225</ele><time>2020-01-31T10:11:33Z</time><name>PT222</name></trkpt>
<trkpt lat="53.194617" lon="-1.697593"><ele>224</ele><time>2020-01-31T10:11:33Z</time><name>PT223</name></trkpt>
<trkpt lat="53.194615" lon="-1.697594"><ele>224</ele><time>2020-01-31T10:11:35Z</time><name>PT224</name></trkpt>
<trkpt lat="53.194614" lon="-1.697597"><ele>224</ele><time>2020-01-31T10:11:36Z</time><name>PT225</name></trkpt>
<trkpt lat="53.194616" lon="-1.697598"><ele>225</ele><time>2020-01-31T10:11:38Z</time><name>PT226</name></trkpt>
<trkpt lat="53.194617" lon="-1.697604"><ele>225</ele><time>2020-01-31T10:11:39Z</time><name>PT227</name></trkpt>
<trkpt lat="53.194620" lon="-1.697616"><ele>225</ele><time>2020-01-31T10:11:39Z</time><name>PT228</name></trkpt>
<trkpt lat="53.194622" lon="-1.697622"><ele>225</ele><time>2020-01-31T10:11:44Z</time><name>PT229</name></trkpt>
<trkpt lat="53.194621" lon="-1.697627"><ele>225</ele><time>2020-01-31T10:11:45Z</time><name>PT230</name></trkpt>
<trkpt lat="53.194621" lon="-1.697631"><ele>225</ele><time>2020-01-31T10:11:45Z</time><name>PT231</name></trkpt>
<trkpt lat="53.194622" lon="-1.697631"><ele>225</ele><time>2020-01-31T10:11:47Z</time><name>PT232</name></trkpt>
<trkpt lat="53.194622" lon="-1.697631"><ele>225</ele><time>2020-01-31T10:11:48Z</time><name>PT233</name></trkpt>
<trkpt lat="53.194624" lon="-1.697631"><ele>226</ele><time>2020-01-31T10:11:48Z</time><name>PT234</name></trkpt>
<trkpt lat="53.194626" lon="-1.697630"><ele>226</ele><time>2020-01-31T10:11:51Z</time><name>PT235</name></trkpt>
<trkpt lat="53.194632" lon="-1.697627"><ele>225</ele><time>2020-01-31T10:11:53Z</time><name>PT236</name></trkpt>
<trkpt lat="53.194634" lon="-1.697628"><ele>226</ele><time>2020-01-31T10:11:54Z</time><name>PT237</name></trkpt>
<trkpt lat="53.194636" lon="-1.697624"><ele>226</ele><time>2020-01-31T10:11:54Z</time><name>PT238</name></trkpt>
<trkpt lat="53.194636" lon="-1.697621"><ele>226</ele><time>2020-01-31T10:11:56Z</time><name>PT239</name></trkpt>
<trkpt lat="53.194637" lon="-1.697617"><ele>226</ele><time>2020-01-31T10:11:57Z</time><name>PT240</name></trkpt>
<trkpt lat="53.194638" lon="-1.697615"><ele>226</ele><time>2020-01-31T10:11:57Z</time><name>PT241</name></trkpt>
<trkpt lat="53.194633" lon="-1.697612"><ele>227</ele><time>2020-01-31T10:12:03Z</time><name>PT242</name></trkpt>
<trkpt lat="53.194634" lon="-1.697606"><ele>227</ele><time>2020-01-31T10:12:03Z</time><name>PT243</name></trkpt>
<trkpt lat="53.194635" lon="-1.697603"><ele>227</ele><time>2020-01-31T10:12:05Z</time><name>PT244</name></trkpt>
<trkpt lat="53.194634" lon="-1.697589"><ele>228</ele><time>2020-01-31T10:12:12Z</time><name>PT245</name></trkpt>
<trkpt lat="53.194633" lon="-1.697584"><ele>227</ele><time>2020-01-31T10:12:14Z</time><name>PT246</name></trkpt>
<trkpt lat="53.194632" lon="-1.697573"><ele>227</ele><time>2020-01-31T10:12:15Z</time><name>PT247</name></trkpt>
<trkpt lat="53.194631" lon="-1.697560"><ele>228</ele><time>2020-01-31T10:12:15Z</time><name>PT248</name></trkpt>
<trkpt lat="53.194634" lon="-1.697549"><ele>228</ele><time>2020-01-31T10:12:17Z</time><name>PT249</name></trkpt>
<trkpt lat="53.194637" lon="-1.697534"><ele>228</ele><time>2020-01-31T10:12:18Z</time><name>PT250</name></trkpt>
<trkpt lat="53.194637" lon="-1.697516"><ele>228</ele><time>2020-01-31T10:12:18Z</time><name>PT251</name></trkpt>
<trkpt lat="53.194637" lon="-1.697501"><ele>228</ele><time>2020-01-31T10:12:20Z</time><name>PT252</name></trkpt>
<trkpt lat="53.194637" lon="-1.697488"><ele>228</ele><time>2020-01-31T10:12:21Z</time><name>PT253</name></trkpt>
<trkpt lat="53.194636" lon="-1.697473"><ele>228</ele><time>2020-01-31T10:12:21Z</time><name>PT254</name></trkpt>
<trkpt lat="53.194632" lon="-1.697457"><ele>227</ele><time>2020-01-31T10:12:23Z</time><name>PT255</name></trkpt>
<trkpt lat="53.194630" lon="-1.697433"><ele>227</ele><time>2020-01-31T10:12:24Z</time><name>PT256</name></trkpt>
<trkpt lat="53.194627" lon="-1.697411"><ele>226</ele><time>2020-01-31T10:12:24Z</time><name>PT257</name></trkpt>
<trkpt lat="53.194618" lon="-1.697386"><ele>225</ele><time>2020-01-31T10:12:26Z</time><name>PT258</name></trkpt>
<trkpt lat="53.194612" lon="-1.697368"><ele>225</ele><time>2020-01-31T10:12:27Z</time><name>PT259</name></trkpt>
<trkpt lat="53.194610" lon="-1.697352"><ele>225</ele><time>2020-01-31T10:12:27Z</time><name>PT260</name></trkpt>
<trkpt lat="53.194608" lon="-1.697339"><ele>225</ele><time>2020-01-31T10:12:29Z</time><name>PT261</name></trkpt>
<trkpt lat="53.194605" lon="-1.697324"><ele>226</ele><time>2020-01-31T10:12:30Z</time><name>PT262</name></trkpt>
<trkpt lat="53.194601" lon="-1.697304"><ele>226</ele><time>2020-01-31T10:12:30Z</time><name>PT263</name></trkpt>
<trkpt lat="53.194596" lon="-1.697289"><ele>227</ele><time>2020-01-31T10:12:32Z</time><name>PT264</name></trkpt>
<trkpt lat="53.194592" lon="-1.697274"><ele>227</ele><time>2020-01-31T10:12:33Z</time><name>PT265</name></trkpt>
<trkpt lat="53.194589" lon="-1.697260"><ele>227</ele><time>2020-01-31T10:12:33Z</time><name>PT266</name></trkpt>
<trkpt lat="53.194586" lon="-1.697247"><ele>227</ele><time>2020-01-31T10:12:35Z</time><name>PT267</name></trkpt>
<trkpt lat="53.194579" lon="-1.697232"><ele>226</ele><time>2020-01-31T10:12:36Z</time><name>PT268</name></trkpt>
<trkpt lat="53.194569" lon="-1.697223"><ele>226</ele><time>2020-01-31T10:12:36Z</time><name>PT269</name></trkpt>
<trkpt lat="53.194558" lon="-1.697211"><ele>226</ele><time>2020-01-31T10:12:38Z</time><name>PT270</name></trkpt>
<trkpt lat="53.194554" lon="-1.697201"><ele>226</ele><time>2020-01-31T10:12:39Z</time><name>PT271</name></trkpt>
<trkpt lat="53.194552" lon="-1.697195"><ele>226</ele><time>2020-01-31T10:12:39Z</time><name>PT272</name></trkpt>
<trkpt lat="53.194549" lon="-1.697190"><ele>226</ele><time>2020-01-31T10:12:40Z</time><name>PT273</name></trkpt>
<trkpt lat="53.194544" lon="-1.697195"><ele>225</ele><time>2020-01-31T10:12:42Z</time><name>PT274</name></trkpt>
<trkpt lat="53.194534" lon="-1.697206"><ele>225</ele><time>2020-01-31T10:12:42Z</time><name>PT275</name></trkpt>
<trkpt lat="53.194528" lon="-1.697209"><ele>226</ele><time>2020-01-31T10:12:43Z</time><name>PT276</name></trkpt>
<trkpt lat="53.194522" lon="-1.697208"><ele>226</ele><time>2020-01-31T10:12:45Z</time><name>PT277</name></trkpt>
<trkpt lat="53.194520" lon="-1.697199"><ele>226</ele><time>2020-01-31T10:12:45Z</time><name>PT278</name></trkpt>
<trkpt lat="53.194505" lon="-1.697198"><ele>225</ele><time>2020-01-31T10:12:47Z</time><name>PT279</name></trkpt>
<trkpt lat="53.194495" lon="-1.697198"><ele>225</ele><time>2020-01-31T10:12:48Z</time><name>PT280</name></trkpt>
<trkpt lat="53.194482" lon="-1.697205"><ele>225</ele><time>2020-01-31T10:12:48Z</time><name>PT281</name></trkpt>
<trkpt lat="53.194473" lon="-1.697206"><ele>224</ele><time>2020-01-31T10:12:49Z</time><name>PT282</name></trkpt>
<trkpt lat="53.194457" lon="-1.697209"><ele>225</ele><time>2020-01-31T10:12:51Z</time><name>PT283</name></trkpt>
<trkpt lat="53.194444" lon="-1.697216"><ele>225</ele><time>2020-01-31T10:12:51Z</time><name>PT284</name></trkpt>
<trkpt lat="53.194429" lon="-1.697220"><ele>225</ele><time>2020-01-31T10:12:52Z</time><name>PT285</name></trkpt>
<trkpt lat="53.194415" lon="-1.697222"><ele>225</ele><time>2020-01-31T10:12:54Z</time><name>PT286</name></trkpt>
<trkpt lat="53.194406" lon="-1.697229"><ele>224</ele><time>2020-01-31T10:12:54Z</time><name>PT287</name></trkpt>
<trkpt lat="53.194393" lon="-1.697232"><ele>224</ele><time>2020-01-31T10:12:55Z</time><name>PT288</name></trkpt>
<trkpt lat="53.194379" lon="-1.697240"><ele>224</ele><time>2020-01-31T10:12:57Z</time><name>PT289</name></trkpt>
<trkpt lat="53.194365" lon="-1.697242"><ele>223</ele><time>2020-01-31T10:12:57Z</time><name>PT290</name></trkpt>
<trkpt lat="53.194352" lon="-1.697245"><ele>224</ele><time>2020-01-31T10:12:58Z</time><name>PT291</name></trkpt>
<trkpt lat="53.194343" lon="-1.697249"><ele>223</ele><time>2020-01-31T10:13:00Z</time><name>PT292</name></trkpt>
<trkpt lat="53.194331" lon="-1.697257"><ele>223</ele><time>2020-01-31T10:13:00Z</time><name>PT293</name></trkpt>
<trkpt lat="53.194322" lon="-1.697266"><ele>223</ele><time>2020-01-31T10:13:02Z</time><name>PT294</name></trkpt>
<trkpt lat="53.194309" lon="-1.697270"><ele>223</ele><time>2020-01-31T10:13:03Z</time><name>PT295</name></trkpt>
<trkpt lat="53.194297" lon="-1.697279"><ele>223</ele><time>2020-01-31T10:13:03Z</time><name>PT296</name></trkpt>
<trkpt lat="53.194282" lon="-1.697281"><ele>223</ele><time>2020-01-31T10:13:05Z</time><name>PT297</name></trkpt>
<trkpt lat="53.194269" lon="-1.697279"><ele>223</ele><time>2020-01-31T10:13:06Z</time><name>PT298</name></trkpt>
<trkpt lat="53.194256" lon="-1.697281"><ele>222</ele><time>2020-01-31T10:13:06Z</time><name>PT299</name></trkpt>
<trkpt lat="53.194241" lon="-1.697281"><ele>223</ele><time>2020-01-31T10:13:08Z</time><name>PT300</name></trkpt>
<trkpt lat="53.194227" lon="-1.697283"><ele>223</ele><time>2020-01-31T10:13:09Z</time><name>PT301</name></trkpt>
<trkpt lat="53.194214" lon="-1.697286"><ele>223</ele><time>2020-01-31T10:13:09Z</time><name>PT302</name></trkpt>
<trkpt lat="53.194200" lon="-1.697287"><ele>222</ele><time>2020-01-31T10:13:11Z</time><name>PT303</name></trkpt>
<trkpt lat="53.194181" lon="-1.697281"><ele>222</ele><time>2020-01-31T10:13:12Z</time><name>PT304</name></trkpt>
<trkpt lat="53.194169" lon="-1.697288"><ele>222</ele><time>2020-01-31T10:13:12Z</time><name>PT305</name></trkpt>
<trkpt lat="53.194157" lon="-1.697291"><ele>221</ele><time>2020-01-31T10:13:14Z</time><name>PT306</name></trkpt>
<trkpt lat="53.194144" lon="-1.697298"><ele>221</ele><time>2020-01-31T10:13:15Z</time><name>PT307</name></trkpt>
<trkpt lat="53.194133" lon="-1.697303"><ele>220</ele><time>2020-01-31T10:13:15Z</time><name>PT308</name></trkpt>
<trkpt lat="53.194121" lon="-1.697309"><ele>219</ele><time>2020-01-31T10:13:17Z</time><name>PT309</name></trkpt>
<trkpt lat="53.194110" lon="-1.697310"><ele>219</ele><time>2020-01-31T10:13:18Z</time><name>PT310</name></trkpt>
<trkpt lat="53.194100" lon="-1.697313"><ele>219</ele><time>2020-01-31T10:13:18Z</time><name>PT311</name></trkpt>
<trkpt lat="53.194091" lon="-1.697324"><ele>219</ele><time>2020-01-31T10:13:20Z</time><name>PT312</name></trkpt>
<trkpt lat="53.194082" lon="-1.697329"><ele>219</ele><time>2020-01-31T10:13:21Z</time><name>PT313</name></trkpt>
<trkpt lat="53.194073" lon="-1.697324"><ele>218</ele><time>2020-01-31T10:13:21Z</time><name>PT314</name></trkpt>
<trkpt lat="53.194058" lon="-1.697335"><ele>218</ele><time>2020-01-31T10:13:23Z</time><name>PT315</name></trkpt>
<trkpt lat="53.194048" lon="-1.697341"><ele>218</ele><time>2020-01-31T10:13:24Z</time><name>PT316</name></trkpt>
<trkpt lat="53.194037" lon="-1.697342"><ele>217</ele><time>2020-01-31T10:13:24Z</time><name>PT317</name></trkpt>
<trkpt lat="53.194025" lon="-1.697344"><ele>217</ele><time>2020-01-31T10:13:25Z</time><name>PT318</name></trkpt>
<trkpt lat="53.194011" lon="-1.697347"><ele>216</ele><time>2020-01-31T10:13:27Z</time><name>PT319</name></trkpt>
<trkpt lat="53.194000" lon="-1.697352"><ele>216</ele><time>2020-01-31T10:13:27Z</time><name>PT320</name></trkpt>
<trkpt lat="53.193988" lon="-1.697358"><ele>215</ele><time>2020-01-31T10:13:29Z</time><name>PT321</name></trkpt>
<trkpt lat="53.193977" lon="-1.697366"><ele>215</ele><time>2020-01-31T10:13:30Z</time><name>PT322</name></trkpt>
<trkpt lat="53.193967" lon="-1.697374"><ele>214</ele><time>2020-01-31T10:13:30Z</time><name>PT323</name></trkpt>
<trkpt lat="53.193954" lon="-1.697379"><ele>214</ele><time>2020-01-31T10:13:32Z</time><name>PT324</name></trkpt>
<trkpt lat="53.193943" lon="-1.697391"><ele>214</ele><time>2020-01-31T10:13:33Z</time><name>PT325</name></trkpt>
<trkpt lat="53.193933" lon="-1.697400"><ele>213</ele><time>2020-01-31T10:13:33Z</time><name>PT326</name></trkpt>
<trkpt lat="53.193920" lon="-1.697408"><ele>213</ele><time>2020-01-31T10:13:35Z</time><name>PT327</name></trkpt>
<trkpt lat="53.193907" lon="-1.697412"><ele>213</ele><time>2020-01-31T10:13:36Z</time><name>PT328</name></trkpt>
<trkpt lat="53.193894" lon="-1.697412"><ele>213</ele><time>2020-01-31T10:13:36Z</time><name>PT329</name></trkpt>
<trkpt lat="53.193877" lon="-1.697418"><ele>213</ele><time>2020-01-31T10:13:37Z</time><name>PT330</name></trkpt>
<trkpt lat="53.193863" lon="-1.697421"><ele>213</ele><time>2020-01-31T10:13:39Z</time><name>PT331</name></trkpt>
<trkpt lat="53.193847" lon="-1.697419"><ele>213</ele><time>2020-01-31T10:13:39Z</time><name>PT332</name></trkpt>
<trkpt lat="53.193835" lon="-1.697422"><ele>213</ele><time>2020-01-31T10:13:41Z</time><name>PT333</name></trkpt>
<trkpt lat="53.193823" lon="-1.697416"><ele>213</ele><time>2020-01-31T10:13:42Z</time><name>PT334</name></trkpt>
<trkpt lat="53.193816" lon="-1.697414"><ele>211</ele><time>2020-01-31T10:13:42Z</time><name>PT335</name></trkpt>
<trkpt lat="53.193804" lon="-1.697408"><ele>210</ele><time>2020-01-31T10:13:44Z</time><name>PT336</name></trkpt>
<trkpt lat="53.193796" lon="-1.697406"><ele>210</ele><time>2020-01-31T10:13:45Z</time><name>PT337</name></trkpt>
<trkpt lat="53.193783" lon="-1.697406"><ele>210</ele><time>2020-01-31T10:13:45Z</time><name>PT338</name></trkpt>
<trkpt lat="53.193769" lon="-1.697404"><ele>210</ele><time>2020-01-31T10:13:47Z</time><name>PT339</name></trkpt>
<trkpt lat="53.193758" lon="-1.697403"><ele>209</ele><time>2020-01-31T10:13:48Z</time><name>PT340</name></trkpt>
<trkpt lat="53.193748" lon="-1.697403"><ele>209</ele><time>2020-01-31T10:13:48Z</time><name>PT341</name></trkpt>
<trkpt lat="53.193736" lon="-1.697408"><ele>209</ele><time>2020-01-31T10:13:50Z</time><name>PT342</name></trkpt>
<trkpt lat="53.193722" lon="-1.697403"><ele>209</ele><time>2020-01-31T10:13:51Z</time><name>PT343</name></trkpt>
<trkpt lat="53.193709" lon="-1.697402"><ele>209</ele><time>2020-01-31T10:13:51Z</time><name>PT344</name></trkpt>
<trkpt lat="53.193695" lon="-1.697402"><ele>209</ele><time>2020-01-31T10:13:53Z</time><name>PT345</name></trkpt>
<trkpt lat="53.193682" lon="-1.697399"><ele>209</ele><time>2020-01-31T10:13:54Z</time><name>PT346</name></trkpt>
<trkpt lat="53.193671" lon="-1.697398"><ele>208</ele><time>2020-01-31T10:13:54Z</time><name>PT347</name></trkpt>
<trkpt lat="53.193658" lon="-1.697393"><ele>208</ele><time>2020-01-31T10:13:55Z</time><name>PT348</name></trkpt>
<trkpt lat="53.193642" lon="-1.697389"><ele>208</ele><time>2020-01-31T10:13:57Z</time><name>PT349</name></trkpt>
<trkpt lat="53.193629" lon="-1.697392"><ele>208</ele><time>2020-01-31T10:13:57Z</time><name>PT350</name></trkpt>
<trkpt lat="53.193615" lon="-1.697389"><ele>208</ele><time>2020-01-31T10:13:59Z</time><name>PT351</name></trkpt>
<trkpt lat="53.193603" lon="-1.697394"><ele>209</ele><time>2020-01-31T10:14:00Z</time><name>PT352</name></trkpt>
<trkpt lat="53.193591" lon="-1.697396"><ele>208</ele><time>2020-01-31T10:14:00Z</time><name>PT353</name></trkpt>
<trkpt lat="53.193581" lon="-1.697396"><ele>207</ele><time>2020-01-31T10:14:01Z</time><name>PT354</name></trkpt>
<trkpt lat="53.193570" lon="-1.697400"><ele>207</ele><time>2020-01-31T10:14:03Z</time><name>PT355</name></trkpt>
<trkpt lat="53.193562" lon="-1.697400"><ele>206</ele><time>2020-01-31T10:14:03Z</time><name>PT356</name></trkpt>
<trkpt lat="53.193554" lon="-1.697411"><ele>207</ele><time>2020-01-31T10:14:05Z</time><name>PT357</name></trkpt>
<trkpt lat="53.193543" lon="-1.697416"><ele>206</ele><time>2020-01-31T10:14:06Z</time><name>PT358</name></trkpt>
<trkpt lat="53.193530" lon="-1.697415"><ele>206</ele><time>2020-01-31T10:14:06Z</time><name>PT359</name></trkpt>
<trkpt lat="53.193517" lon="-1.697410"><ele>205</ele><time>2020-01-31T10:14:07Z</time><name>PT360</name></trkpt>
<trkpt lat="53.193508" lon="-1.697413"><ele>204</ele><time>2020-01-31T10:14:09Z</time><name>PT361</name></trkpt>
<trkpt lat="53.193496" lon="-1.697413"><ele>203</ele><time>2020-01-31T10:14:09Z</time><name>PT362</name></trkpt>
<trkpt lat="53.193481" lon="-1.697417"><ele>203</ele><time>2020-01-31T10:14:10Z</time><name>PT363</name></trkpt>
<trkpt lat="53.193471" lon="-1.697427"><ele>202</ele><time>2020-01-31T10:14:12Z</time><name>PT364</name></trkpt>
<trkpt lat="53.193460" lon="-1.697433"><ele>202</ele><time>2020-01-31T10:14:12Z</time><name>PT365</name></trkpt>
<trkpt lat="53.193450" lon="-1.697437"><ele>202</ele><time>2020-01-31T10:14:13Z</time><name>PT366</name></trkpt>
<trkpt lat="53.193440" lon="-1.697446"><ele>202</ele><time>2020-01-31T10:14:15Z</time><name>PT367</name></trkpt>
<trkpt lat="53.193429" lon="-1.697454"><ele>202</ele><time>2020-01-31T10:14:15Z</time><name>PT368</name></trkpt>
<trkpt lat="53.193420" lon="-1.697460"><ele>202</ele><time>2020-01-31T10:14:16Z</time><name>PT369</name></trkpt>
<trkpt lat="53.193409" lon="-1.697459"><ele>201</ele><time>2020-01-31T10:14:18Z</time><name>PT370</name></trkpt>
<trkpt lat="53.193401" lon="-1.697464"><ele>201</ele><time>2020-01-31T10:14:18Z</time><name>PT371</name></trkpt>
<trkpt lat="53.193389" lon="-1.697476"><ele>201</ele><time>2020-01-31T10:14:19Z</time><name>PT372</name></trkpt>
<trkpt lat="53.193376" lon="-1.697476"><ele>201</ele><time>2020-01-31T10:14:21Z</time><name>PT373</name></trkpt>
<trkpt lat="53.193363" lon="-1.697478"><ele>200</ele><time>2020-01-31T10:14:21Z</time><name>PT374</name></trkpt>
<trkpt lat="53.193353" lon="-1.697486"><ele>199</ele><time>2020-01-31T10:14:22Z</time><name>PT375</name></trkpt>
<trkpt lat="53.193344" lon="-1.697494"><ele>199</ele><time>2020-01-31T10:14:24Z</time><name>PT376</name></trkpt>
<trkpt lat="53.193334" lon="-1.697506"><ele>199</ele><time>2020-01-31T10:14:24Z</time><name>PT377</name></trkpt>
<trkpt lat="53.193331" lon="-1.697517"><ele>198</ele><time>2020-01-31T10:14:26Z</time><name>PT378</name></trkpt>
<trkpt lat="53.193325" lon="-1.697530"><ele>197</ele><time>2020-01-31T10:14:27Z</time><name>PT379</name></trkpt>
<trkpt lat="53.193324" lon="-1.697544"><ele>196</ele><time>2020-01-31T10:14:27Z</time><name>PT380</name></trkpt>
<trkpt lat="53.193322" lon="-1.697554"><ele>195</ele><time>2020-01-31T10:14:29Z</time><name>PT381</name></trkpt>
<trkpt lat="53.193317" lon="-1.697562"><ele>195</ele><time>2020-01-31T10:14:30Z</time><name>PT382</name></trkpt>
<trkpt lat="53.193316" lon="-1.697563"><ele>195</ele><time>2020-01-31T10:14:30Z</time><name>PT383</name></trkpt>
<trkpt lat="53.193315" lon="-1.697571"><ele>195</ele><time>2020-01-31T10:14:32Z</time><name>PT384</name></trkpt>
<trkpt lat="53.193315" lon="-1.697588"><ele>196</ele><time>2020-01-31T10:14:33Z</time><name>PT385</name></trkpt>
<trkpt lat="53.193320" lon="-1.697604"><ele>195</ele><time>2020-01-31T10:14:33Z</time><name>PT386</name></trkpt>
<trkpt lat="53.193325" lon="-1.697620"><ele>195</ele><time>2020-01-31T10:14:34Z</time><name>PT387</name></trkpt>
<trkpt lat="53.193328" lon="-1.697636"><ele>194</ele><time>2020-01-31T10:14:36Z</time><name>PT388</name></trkpt>
<trkpt lat="53.193330" lon="-1.697651"><ele>194</ele><time>2020-01-31T10:14:36Z</time><name>PT389</name></trkpt>
<trkpt lat="53.193336" lon="-1.697667"><ele>194</ele><time>2020-01-31T10:14:38Z</time><name>PT390</name></trkpt>
<trkpt lat="53.193343" lon="-1.697680"><ele>194</ele><time>2020-01-31T10:14:39Z</time><name>PT391</name></trkpt>
<trkpt lat="53.193344" lon="-1.697697"><ele>194</ele><time>2020-01-31T10:14:39Z</time><name>PT392</name></trkpt>
<trkpt lat="53.193347" lon="-1.697716"><ele>193</ele><time>2020-01-31T10:14:40Z</time><name>PT393</name></trkpt>
<trkpt lat="53.193349" lon="-1.697736"><ele>193</ele><time>2020-01-31T10:14:42Z</time><name>PT394</name></trkpt>
<trkpt lat="53.193352" lon="-1.697760"><ele>194</ele><time>2020-01-31T10:14:42Z</time><name>PT395</name></trkpt>
<trkpt lat="53.193356" lon="-1.697783"><ele>194</ele><time>2020-01-31T10:14:44Z</time><name>PT396</name></trkpt>
<trkpt lat="53.193358" lon="-1.697804"><ele>194</ele><time>2020-01-31T10:14:45Z</time><name>PT397</name></trkpt>
<trkpt lat="53.193359" lon="-1.697824"><ele>194</ele><time>2020-01-31T10:14:45Z</time><name>PT398</name></trkpt>
<trkpt lat="53.193361" lon="-1.697843"><ele>194</ele><time>2020-01-31T10:14:47Z</time><name>PT399</name></trkpt>
<trkpt lat="53.193367" lon="-1.697863"><ele>194</ele><time>2020-01-31T10:14:48Z</time><name>PT400</name></trkpt>
<trkpt lat="53.193370" lon="-1.697882"><ele>194</ele><time>2020-01-31T10:14:48Z</time><name>PT401</name></trkpt>
<trkpt lat="53.193377" lon="-1.697898"><ele>194</ele><time>2020-01-31T10:14:50Z</time><name>PT402</name></trkpt>
<trkpt lat="53.193386" lon="-1.697912"><ele>194</ele><time>2020-01-31T10:14:51Z</time><name>PT403</name></trkpt>
<trkpt lat="53.193393" lon="-1.697931"><ele>194</ele><time>2020-01-31T10:14:51Z</time><name>PT404</name></trkpt>
<trkpt lat="53.193400" lon="-1.697945"><ele>195</ele><time>2020-01-31T10:14:53Z</time><name>PT405</name></trkpt>
<trkpt lat="53.193400" lon="-1.697964"><ele>194</ele><time>2020-01-31T10:14:54Z</time><name>PT406</name></trkpt>
<trkpt lat="53.193400" lon="-1.697991"><ele>194</ele><time>2020-01-31T10:14:54Z</time><name>PT407</name></trkpt>
<trkpt lat="53.193399" lon="-1.698008"><ele>193</ele><time>2020-01-31T10:14:56Z</time><name>PT408</name></trkpt>
<trkpt lat="53.193395" lon="-1.698032"><ele>193</ele><time>2020-01-31T10:14:57Z</time><name>PT409</name></trkpt>
<trkpt lat="53.193394" lon="-1.698055"><ele>193</ele><time>2020-01-31T10:14:57Z</time><name>PT410</name></trkpt>
<trkpt lat="53.193389" lon="-1.698075"><ele>192</ele><time>2020-01-31T10:14:59Z</time><name>PT411</name></trkpt>
<trkpt lat="53.193384" lon="-1.698086"><ele>191</ele><time>2020-01-31T10:15:00Z</time><name>PT412</name></trkpt>
<trkpt lat="53.193379" lon="-1.698104"><ele>191</ele><time>2020-01-31T10:15:00Z</time><name>PT413</name></trkpt>
<trkpt lat="53.193372" lon="-1.698124"><ele>191</ele><time>2020-01-31T10:15:02Z</time><name>PT414</name></trkpt>
<trkpt lat="53.193364" lon="-1.698147"><ele>191</ele><time>2020-01-31T10:15:03Z</time><name>PT415</name></trkpt>
<trkpt lat="53.193353" lon="-1.698165"><ele>191</ele><time>2020-01-31T10:15:03Z</time><name>PT416</name></trkpt>
<trkpt lat="53.193341" lon="-1.698183"><ele>191</ele><time>2020-01-31T10:15:05Z</time><name>PT417</name></trkpt>
<trkpt lat="53.193331" lon="-1.698205"><ele>191</ele><time>2020-01-31T10:15:06Z</time><name>PT418</name></trkpt>
<trkpt lat="53.193318" lon="-1.698211"><ele>191</ele><time>2020-01-31T10:15:06Z</time><name>PT419</name></trkpt>
<trkpt lat="53.193305" lon="-1.698224"><ele>193</ele><time>2020-01-31T10:15:08Z</time><name>PT420</name></trkpt>
<trkpt lat="53.193291" lon="-1.698230"><ele>193</ele><time>2020-01-31T10:15:09Z</time><name>PT421</name></trkpt>
<trkpt lat="53.193277" lon="-1.698233"><ele>194</ele><time>2020-01-31T10:15:09Z</time><name>PT422</name></trkpt>
<trkpt lat="53.193267" lon="-1.698241"><ele>194</ele><time>2020-01-31T10:15:11Z</time><name>PT423</name></trkpt>
<trkpt lat="53.193256" lon="-1.698242"><ele>194</ele><time>2020-01-31T10:15:12Z</time><name>PT424</name></trkpt>
<trkpt lat="53.193244" lon="-1.698240"><ele>193</ele><time>2020-01-31T10:15:12Z</time><name>PT425</name></trkpt>
<trkpt lat="53.193233" lon="-1.698238"><ele>193</ele><time>2020-01-31T10:15:14Z</time><name>PT426</name></trkpt>
<trkpt lat="53.193222" lon="-1.698234"><ele>193</ele><time>2020-01-31T10:15:15Z</time><name>PT427</name></trkpt>
<trkpt lat="53.193214" lon="-1.698228"><ele>193</ele><time>2020-01-31T10:15:15Z</time><name>PT428</name></trkpt>
<trkpt lat="53.193208" lon="-1.698223"><ele>193</ele><time>2020-01-31T10:15:16Z</time><name>PT429</name></trkpt>
<trkpt lat="53.193200" lon="-1.698222"><ele>192</ele><time>2020-01-31T10:15:18Z</time><name>PT430</name></trkpt>
<trkpt lat="53.193187" lon="-1.698215"><ele>192</ele><time>2020-01-31T10:15:18Z</time><name>PT431</name></trkpt>
<trkpt lat="53.193179" lon="-1.698216"><ele>192</ele><time>2020-01-31T10:15:20Z</time><name>PT432</name></trkpt>
<trkpt lat="53.193164" lon="-1.698208"><ele>192</ele><time>2020-01-31T10:15:21Z</time><name>PT433</name></trkpt>
<trkpt lat="53.193158" lon="-1.698202"><ele>191</ele><time>2020-01-31T10:15:21Z</time><name>PT434</name></trkpt>
<trkpt lat="53.193151" lon="-1.698191"><ele>191</ele><time>2020-01-31T10:15:23Z</time><name>PT435</name></trkpt>
<trkpt lat="53.193141" lon="-1.698178"><ele>191</ele><time>2020-01-31T10:15:24Z</time><name>PT436</name></trkpt>
<trkpt lat="53.193133" lon="-1.698172"><ele>191</ele><time>2020-01-31T10:15:24Z</time><name>PT437</name></trkpt>
<trkpt lat="53.193121" lon="-1.698161"><ele>191</ele><time>2020-01-31T10:15:25Z</time><name>PT438</name></trkpt>
<trkpt lat="53.193113" lon="-1.698142"><ele>190</ele><time>2020-01-31T10:15:27Z</time><name>PT439</name></trkpt>
<trkpt lat="53.193108" lon="-1.698131"><ele>189</ele><time>2020-01-31T10:15:27Z</time><name>PT440</name></trkpt>
<trkpt lat="53.193098" lon="-1.698116"><ele>189</ele><time>2020-01-31T10:15:28Z</time><name>PT441</name></trkpt>
<trkpt lat="53.193088" lon="-1.698107"><ele>188</ele><time>2020-01-31T10:15:30Z</time><name>PT442</name></trkpt>
<trkpt lat="53.193080" lon="-1.698100"><ele>188</ele><time>2020-01-31T10:15:30Z</time><name>PT443</name></trkpt>
<trkpt lat="53.193069" lon="-1.698089"><ele>188</ele><time>2020-01-31T10:15:31Z</time><name>PT444</name></trkpt>
<trkpt lat="53.193060" lon="-1.698080"><ele>187</ele><time>2020-01-31T10:15:33Z</time><name>PT445</name></trkpt>
<trkpt lat="53.193042" lon="-1.698071"><ele>187</ele><time>2020-01-31T10:15:33Z</time><name>PT446</name></trkpt>
<trkpt lat="53.193030" lon="-1.698065"><ele>187</ele><time>2020-01-31T10:15:34Z</time><name>PT447</name></trkpt>
<trkpt lat="53.193028" lon="-1.698051"><ele>186</ele><time>2020-01-31T10:15:36Z</time><name>PT448</name></trkpt>
<trkpt lat="53.193026" lon="-1.698035"><ele>185</ele><time>2020-01-31T10:15:36Z</time><name>PT449</name></trkpt>
<trkpt lat="53.193017" lon="-1.698025"><ele>184</ele><time>2020-01-31T10:15:37Z</time><name>PT450</name></trkpt>
<trkpt lat="53.193007" lon="-1.698012"><ele>184</ele><time>2020-01-31T10:15:39Z</time><name>PT451</name></trkpt>
<trkpt lat="53.192999" lon="-1.697994"><ele>184</ele><time>2020-01-31T10:15:39Z</time><name>PT452</name></trkpt>
<trkpt lat="53.192986" lon="-1.697978"><ele>182</ele><time>2020-01-31T10:15:40Z</time><name>PT453</name></trkpt>
<trkpt lat="53.192973" lon="-1.697961"><ele>181</ele><time>2020-01-31T10:15:42Z</time><name>PT454</name></trkpt>
<trkpt lat="53.192965" lon="-1.697944"><ele>180</ele><time>2020-01-31T10:15:42Z</time><name>PT455</name></trkpt>
<trkpt lat="53.192953" lon="-1.697932"><ele>180</ele><time>2020-01-31T10:15:43Z</time><name>PT456</name></trkpt>
<trkpt lat="53.192946" lon="-1.697916"><ele>180</ele><time>2020-01-31T10:15:45Z</time><name>PT457</name></trkpt>
<trkpt lat="53.192936" lon="-1.697897"><ele>180</ele><time>2020-01-31T10:15:45Z</time><name>PT458</name></trkpt>
<trkpt lat="53.192923" lon="-1.697873"><ele>180</ele><time>2020-01-31T10:15:47Z</time><name>PT459</name></trkpt>
<trkpt lat="53.192908" lon="-1.697852"><ele>180</ele><time>2020-01-31T10:15:48Z</time><name>PT460</name></trkpt>
<trkpt lat="53.192891" lon="-1.697831"><ele>179</ele><time>2020-01-31T10:15:48Z</time><name>PT461</name></trkpt>
<trkpt lat="53.192879" lon="-1.697820"><ele>180</ele><time>2020-01-31T10:15:50Z</time><name>PT462</name></trkpt>
<trkpt lat="53.192870" lon="-1.697803"><ele>179</ele><time>2020-01-31T10:15:51Z</time><name>PT463</name></trkpt>
<trkpt lat="53.192860" lon="-1.697791"><ele>179</ele><time>2020-01-31T10:15:51Z</time><name>PT464</name></trkpt>
<trkpt lat="53.192859" lon="-1.697774"><ele>180</ele><time>2020-01-31T10:15:53Z</time><name>PT465</name></trkpt>
<trkpt lat="53.192855" lon="-1.697754"><ele>180</ele><time>2020-01-31T10:15:54Z</time><name>PT466</name></trkpt>
<trkpt lat="53.192862" lon="-1.697728"><ele>182</ele><time>2020-01-31T10:15:54Z</time><name>PT467</name></trkpt>
<trkpt lat="53.192856" lon="-1.697705"><ele>181</ele><time>2020-01-31T10:15:56Z</time><name>PT468</name></trkpt>
<trkpt lat="53.192858" lon="-1.697684"><ele>180</ele><time>2020-01-31T10:15:57Z</time><name>PT469</name></trkpt>
<trkpt lat="53.192858" lon="-1.697667"><ele>180</ele><time>2020-01-31T10:15:57Z</time><name>PT470</name></trkpt>
<trkpt lat="53.192853" lon="-1.697663"><ele>180</ele><time>2020-01-31T10:15:59Z</time><name>PT471</name></trkpt>
<trkpt lat="53.192849" lon="-1.697653"><ele>181</ele><time>2020-01-31T10:16:00Z</time><name>PT472</name></trkpt>
<trkpt lat="53.192846" lon="-1.697635"><ele>181</ele><time>2020-01-31T10:16:00Z</time><name>PT473</name></trkpt>
<trkpt lat="53.192840" lon="-1.697619"><ele>181</ele><time>2020-01-31T10:16:02Z</time><name>PT474</name></trkpt>
<trkpt lat="53.192834" lon="-1.697606"><ele>180</ele><time>2020-01-31T10:16:03Z</time><name>PT475</name></trkpt>
<trkpt lat="53.192833" lon="-1.697596"><ele>180</ele><time>2020-01-31T10:16:03Z</time><name>PT476</name></trkpt>
<trkpt lat="53.192828" lon="-1.697580"><ele>181</ele><time>2020-01-31T10:16:05Z</time><name>PT477</name></trkpt>
<trkpt lat="53.192826" lon="-1.697560"><ele>180</ele><time>2020-01-31T10:16:06Z</time><name>PT478</name></trkpt>
<trkpt lat="53.192823" lon="-1.697540"><ele>181</ele><time>2020-01-31T10:16:06Z</time><name>PT479</name></trkpt>
<trkpt lat="53.192817" lon="-1.697527"><ele>180</ele><time>2020-01-31T10:16:08Z</time><name>PT480</name></trkpt>
<trkpt lat="53.192809" lon="-1.697508"><ele>179</ele><time>2020-01-31T10:16:09Z</time><name>PT481</name></trkpt>
<trkpt lat="53.192805" lon="-1.697489"><ele>178</ele><time>2020-01-31T10:16:09Z</time><name>PT482</name></trkpt>
<trkpt lat="53.192802" lon="-1.697466"><ele>178</ele><time>2020-01-31T10:16:11Z</time><name>PT483</name></trkpt>
<trkpt lat="53.192794" lon="-1.697444"><ele>178</ele><time>2020-01-31T10:16:12Z</time><name>PT484</name></trkpt>
<trkpt lat="53.192788" lon="-1.697425"><ele>177</ele><time>2020-01-31T10:16:12Z</time><name>PT485</name></trkpt>
<trkpt lat="53.192782" lon="-1.697409"><ele>176</ele><time>2020-01-31T10:16:14Z</time><name>PT486</name></trkpt>
<trkpt lat="53.192780" lon="-1.697399"><ele>175</ele><time>2020-01-31T10:16:15Z</time><name>PT487</name></trkpt>
<trkpt lat="53.192777" lon="-1.697390"><ele>175</ele><time>2020-01-31T10:16:15Z</time><name>PT488</name></trkpt>
<trkpt lat="53.192777" lon="-1.697386"><ele>174</ele><time>2020-01-31T10:16:17Z</time><name>PT489</name></trkpt>
<trkpt lat="53.192771" lon="-1.697376"><ele>174</ele><time>2020-01-31T10:16:18Z</time><name>PT490</name></trkpt>
<trkpt lat="53.192768" lon="-1.697360"><ele>173</ele><time>2020-01-31T10:16:18Z</time><name>PT491</name></trkpt>
<trkpt lat="53.192758" lon="-1.697343"><ele>173</ele><time>2020-01-31T10:16:20Z</time><name>PT492</name></trkpt>
<trkpt lat="53.192752" lon="-1.697323"><ele>172</ele><time>2020-01-31T10:16:21Z</time><name>PT493</name></trkpt>
<trkpt lat="53.192744" lon="-1.697302"><ele>173</ele><time>2020-01-31T10:16:21Z</time><name>PT494</name></trkpt>
<trkpt lat="53.192738" lon="-1.697282"><ele>173</ele><time>2020-01-31T10:16:23Z</time><name>PT495</name></trkpt>
<trkpt lat="53.192735" lon="-1.697260"><ele>173</ele><time>2020-01-31T10:16:24Z</time><name>PT496</name></trkpt>
<trkpt lat="53.192732" lon="-1.697247"><ele>172</ele><time>2020-01-31T10:16:24Z</time><name>PT497</name></trkpt>
<trkpt lat="53.192725" lon="-1.697233"><ele>172</ele><time>2020-01-31T10:16:26Z</time><name>PT498</name></trkpt>
<trkpt lat="53.192721" lon="-1.697222"><ele>170</ele><time>2020-01-31T10:16:27Z</time><name>PT499</name></trkpt>
<trkpt lat="53.192711" lon="-1.697202"><ele>170</ele><time>2020-01-31T10:16:27Z</time><name>PT500</name></trkpt>
<trkpt lat="53.192711" lon="-1.697187"><ele>169</ele><time>2020-01-31T10:16:28Z</time><name>PT501</name></trkpt>
<trkpt lat="53.192709" lon="-1.697172"><ele>168</ele><time>2020-01-31T10:16:30Z</time><name>PT502</name></trkpt>
<trkpt lat="53.192706" lon="-1.697158"><ele>167</ele><time>2020-01-31T10:16:30Z</time><name>PT503</name></trkpt>
<trkpt lat="53.192695" lon="-1.697145"><ele>167</ele><time>2020-01-31T10:16:32Z</time><name>PT504</name></trkpt>
<trkpt lat="53.192689" lon="-1.697122"><ele>167</ele><time>2020-01-31T10:16:33Z</time><name>PT505</name></trkpt>
<trkpt lat="53.192687" lon="-1.697110"><ele>166</ele><time>2020-01-31T10:16:33Z</time><name>PT506</name></trkpt>
<trkpt lat="53.192679" lon="-1.697088"><ele>166</ele><time>2020-01-31T10:16:34Z</time><name>PT507</name></trkpt>
<trkpt lat="53.192673" lon="-1.697075"><ele>166</ele><time>2020-01-31T10:16:36Z</time><name>PT508</name></trkpt>
<trkpt lat="53.192671" lon="-1.697049"><ele>165</ele><time>2020-01-31T10:16:36Z</time><name>PT509</name></trkpt>
<trkpt lat="53.192663" lon="-1.697030"><ele>166</ele><time>2020-01-31T10:16:37Z</time><name>PT510</name></trkpt>
<trkpt lat="53.192661" lon="-1.697018"><ele>165</ele><time>2020-01-31T10:16:39Z</time><name>PT511</name></trkpt>
<trkpt lat="53.192662" lon="-1.696994"><ele>165</ele><time>2020-01-31T10:16:39Z</time><name>PT512</name></trkpt>
<trkpt lat="53.192661" lon="-1.696972"><ele>165</ele><time>2020-01-31T10:16:41Z</time><name>PT513</name></trkpt>
<trkpt lat="53.192655" lon="-1.696956"><ele>165</ele><time>2020-01-31T10:16:42Z</time><name>PT514</name></trkpt>
<trkpt lat="53.192648" lon="-1.696938"><ele>165</ele><time>2020-01-31T10:16:42Z</time><name>PT515</name></trkpt>
<trkpt lat="53.192640" lon="-1.696918"><ele>165</ele><time>2020-01-31T10:16:43Z</time><name>PT516</name></trkpt>
<trkpt lat="53.192632" lon="-1.696898"><ele>164</ele><time>2020-01-31T10:16:45Z</time><name>PT517</name></trkpt>
<trkpt lat="53.192623" lon="-1.696879"><ele>165</ele><time>2020-01-31T10:16:45Z</time><name>PT518</name></trkpt>
<trkpt lat="53.192615" lon="-1.696868"><ele>165</ele><time>2020-01-31T10:16:46Z</time><name>PT519</name></trkpt>
<trkpt lat="53.192606" lon="-1.696849"><ele>166</ele><time>2020-01-31T10:16:48Z</time><name>PT520</name></trkpt>
<trkpt lat="53.192598" lon="-1.696841"><ele>166</ele><time>2020-01-31T10:16:48Z</time><name>PT521</name></trkpt>
<trkpt lat="53.192593" lon="-1.696833"><ele>165</ele><time>2020-01-31T10:16:50Z</time><name>PT522</name></trkpt>
<trkpt lat="53.192589" lon="-1.696835"><ele>164</ele><time>2020-01-31T10:16:51Z</time><name>PT523</name></trkpt>
<trkpt lat="53.192585" lon="-1.696828"><ele>163</ele><time>2020-01-31T10:16:51Z</time><name>PT524</name></trkpt>
<trkpt lat="53.192578" lon="-1.696827"><ele>163</ele><time>2020-01-31T10:16:52Z</time><name>PT525</name></trkpt>
<trkpt lat="53.192568" lon="-1.696823"><ele>163</ele><time>2020-01-31T10:16:54Z</time><name>PT526</name></trkpt>
<trkpt lat="53.192564" lon="-1.696826"><ele>164</ele><time>2020-01-31T10:16:54Z</time><name>PT527</name></trkpt>
<trkpt lat="53.192554" lon="-1.696818"><ele>164</ele><time>2020-01-31T10:16:55Z</time><name>PT528</name></trkpt>
<trkpt lat="53.192544" lon="-1.696824"><ele>164</ele><time>2020-01-31T10:16:57Z</time><name>PT529</name></trkpt>
<trkpt lat="53.192545" lon="-1.696832"><ele>163</ele><time>2020-01-31T10:16:57Z</time><name>PT530</name></trkpt>
<trkpt lat="53.192538" lon="-1.696832"><ele>165</ele><time>2020-01-31T10:16:58Z</time><name>PT531</name></trkpt>
<trkpt lat="53.192532" lon="-1.696831"><ele>165</ele><time>2020-01-31T10:17:00Z</time><name>PT532</name></trkpt>
<trkpt lat="53.192523" lon="-1.696839"><ele>164</ele><time>2020-01-31T10:17:00Z</time><name>PT533</name></trkpt>
<trkpt lat="53.192518" lon="-1.696837"><ele>165</ele><time>2020-01-31T10:17:01Z</time><name>PT534</name></trkpt>
<trkpt lat="53.192517" lon="-1.696843"><ele>164</ele><time>2020-01-31T10:17:03Z</time><name>PT535</name></trkpt>
<trkpt lat="53.192512" lon="-1.696851"><ele>164</ele><time>2020-01-31T10:17:03Z</time><name>PT536</name></trkpt>
<trkpt lat="53.192502" lon="-1.696869"><ele>164</ele><time>2020-01-31T10:17:04Z</time><name>PT537</name></trkpt>
<trkpt lat="53.192502" lon="-1.696861"><ele>163</ele><time>2020-01-31T10:17:06Z</time><name>PT538</name></trkpt>
<trkpt lat="53.192498" lon="-1.696861"><ele>164</ele><time>2020-01-31T10:17:06Z</time><name>PT539</name></trkpt>
<trkpt lat="53.192502" lon="-1.696867"><ele>165</ele><time>2020-01-31T10:17:07Z</time><name>PT540</name></trkpt>
<trkpt lat="53.192493" lon="-1.696878"><ele>164</ele><time>2020-01-31T10:17:09Z</time><name>PT541</name></trkpt>
<trkpt lat="53.192489" lon="-1.696879"><ele>164</ele><time>2020-01-31T10:17:09Z</time><name>PT542</name></trkpt>
<trkpt lat="53.192486" lon="-1.696887"><ele>165</ele><time>2020-01-31T10:17:10Z</time><name>PT543</name></trkpt>
<trkpt lat="53.192480" lon="-1.696890"><ele>165</ele><time>2020-01-31T10:17:12Z</time><name>PT544</name></trkpt>
<trkpt lat="53.192475" lon="-1.696898"><ele>166</ele><time>2020-01-31T10:17:12Z</time><name>PT545</name></trkpt>
<trkpt lat="53.192468" lon="-1.696908"><ele>166</ele><time>2020-01-31T10:17:14Z</time><name>PT546</name></trkpt>
<trkpt lat="53.192459" lon="-1.696911"><ele>166</ele><time>2020-01-31T10:17:15Z</time><name>PT547</name></trkpt>
<trkpt lat="53.192455" lon="-1.696916"><ele>166</ele><time>2020-01-31T10:17:15Z</time><name>PT548</name></trkpt>
<trkpt lat="53.192451" lon="-1.696930"><ele>166</ele><time>2020-01-31T10:17:17Z</time><name>PT549</name></trkpt>
<trkpt lat="53.192451" lon="-1.696927"><ele>166</ele><time>2020-01-31T10:17:18Z</time><name>PT550</name></trkpt>
<trkpt lat="53.192449" lon="-1.696934"><ele>165</ele><time>2020-01-31T10:17:18Z</time><name>PT551</name></trkpt>
<trkpt lat="53.192442" lon="-1.696936"><ele>165</ele><time>2020-01-31T10:17:20Z</time><name>PT552</name></trkpt>
<trkpt lat="53.192437" lon="-1.696946"><ele>165</ele><time>2020-01-31T10:17:21Z</time><name>PT553</name></trkpt>
<trkpt lat="53.192431" lon="-1.696957"><ele>165</ele><time>2020-01-31T10:17:21Z</time><name>PT554</name></trkpt>
<trkpt lat="53.192429" lon="-1.696966"><ele>164</ele><time>2020-01-31T10:17:22Z</time><name>PT555</name></trkpt>
<trkpt lat="53.192423" lon="-1.696976"><ele>164</ele><time>2020-01-31T10:17:24Z</time><name>PT556</name></trkpt>
<trkpt lat="53.192424" lon="-1.696986"><ele>163</ele><time>2020-01-31T10:17:24Z</time><name>PT557</name></trkpt>
<trkpt lat="53.192422" lon="-1.697000"><ele>164</ele><time>2020-01-31T10:17:26Z</time><name>PT558</name></trkpt>
<trkpt lat="53.192422" lon="-1.697012"><ele>163</ele><time>2020-01-31T10:17:27Z</time><name>PT559</name></trkpt>
<trkpt lat="53.192416" lon="-1.697031"><ele>163</ele><time>2020-01-31T10:17:27Z</time><name>PT560</name></trkpt>
<trkpt lat="53.192405" lon="-1.697041"><ele>162</ele><time>2020-01-31T10:17:28Z</time><name>PT561</name></trkpt>
<trkpt lat="53.192400" lon="-1.697055"><ele>160</ele><time>2020-01-31T10:17:30Z</time><name>PT562</name></trkpt>
<trkpt lat="53.192395" lon="-1.697069"><ele>160</ele><time>2020-01-31T10:17:30Z</time><name>PT563</name></trkpt>
<trkpt lat="53.192390" lon="-1.697082"><ele>160</ele><time>2020-01-31T10:17:32Z</time><name>PT564</name></trkpt>
<trkpt lat="53.192385" lon="-1.697081"><ele>158</ele><time>2020-01-31T10:17:33Z</time><name>PT565</name></trkpt>
<trkpt lat="53.192383" lon="-1.697093"><ele>158</ele><time>2020-01-31T10:17:33Z</time><name>PT566</name></trkpt>
<trkpt lat="53.192375" lon="-1.697106"><ele>158</ele><time>2020-01-31T10:17:35Z</time><name>PT567</name></trkpt>
<trkpt lat="53.192375" lon="-1.697116"><ele>157</ele><time>2020-01-31T10:17:36Z</time><name>PT568</name></trkpt>
<trkpt lat="53.192375" lon="-1.697128"><ele>157</ele><time>2020-01-31T10:17:36Z</time><name>PT569</name></trkpt>
<trkpt lat="53.192375" lon="-1.697135"><ele>157</ele><time>2020-01-31T10:17:37Z</time><name>PT570</name></trkpt>
<trkpt lat="53.192379" lon="-1.697145"><ele>157</ele><time>2020-01-31T10:17:39Z</time><name>PT571</name></trkpt>
<trkpt lat="53.192376" lon="-1.697155"><ele>156</ele><time>2020-01-31T10:17:39Z</time><name>PT572</name></trkpt>
<trkpt lat="53.192375" lon="-1.697170"><ele>156</ele><time>2020-01-31T10:17:41Z</time><name>PT573</name></trkpt>
<trkpt lat="53.192370" lon="-1.697191"><ele>156</ele><time>2020-01-31T10:17:42Z</time><name>PT574</name></trkpt>
<trkpt lat="53.192372" lon="-1.697205"><ele>157</ele><time>2020-01-31T10:17:42Z</time><name>PT575</name></trkpt>
<trkpt lat="53.192368" lon="-1.697222"><ele>156</ele><time>2020-01-31T10:17:44Z</time><name>PT576</name></trkpt>
<trkpt lat="53.192370" lon="-1.697243"><ele>157</ele><time>2020-01-31T10:17:45Z</time><name>PT577</name></trkpt>
<trkpt lat="53.192367" lon="-1.697255"><ele>158</ele><time>2020-01-31T10:17:45Z</time><name>PT578</name></trkpt>
<trkpt lat="53.192358" lon="-1.697264"><ele>158</ele><time>2020-01-31T10:17:46Z</time><name>PT579</name></trkpt>
<trkpt lat="53.192353" lon="-1.697283"><ele>158</ele><time>2020-01-31T10:17:48Z</time><name>PT580</name></trkpt>
<trkpt lat="53.192338" lon="-1.697324"><ele>160</ele><time>2020-01-31T10:17:48Z</time><name>PT581</name></trkpt>
<trkpt lat="53.192341" lon="-1.697348"><ele>159</ele><time>2020-01-31T10:17:50Z</time><name>PT582</name></trkpt>
<trkpt lat="53.192337" lon="-1.697366"><ele>158</ele><time>2020-01-31T10:17:51Z</time><name>PT583</name></trkpt>
<trkpt lat="53.192335" lon="-1.697377"><ele>159</ele><time>2020-01-31T10:17:51Z</time><name>PT584</name></trkpt>
<trkpt lat="53.192330" lon="-1.697395"><ele>159</ele><time>2020-01-31T10:17:53Z</time><name>PT585</name></trkpt>
<trkpt lat="53.192323" lon="-1.697420"><ele>159</ele><time>2020-01-31T10:17:54Z</time><name>PT586</name></trkpt>
<trkpt lat="53.192315" lon="-1.697445"><ele>158</ele><time>2020-01-31T10:17:54Z</time><name>PT587</name></trkpt>
<trkpt lat="53.192311" lon="-1.697466"><ele>158</ele><time>2020-01-31T10:17:55Z</time><name>PT588</name></trkpt>
<trkpt lat="53.192305" lon="-1.697488"><ele>159</ele><time>2020-01-31T10:17:57Z</time><name>PT589</name></trkpt>
<trkpt lat="53.192308" lon="-1.697506"><ele>159</ele><time>2020-01-31T10:17:57Z</time><name>PT590</name></trkpt>
<trkpt lat="53.192308" lon="-1.697531"><ele>160</ele><time>2020-01-31T10:17:59Z</time><name>PT591</name></trkpt>
<trkpt lat="53.192308" lon="-1.697551"><ele>159</ele><time>2020-01-31T10:18:00Z</time><name>PT592</name></trkpt>
<trkpt lat="53.192305" lon="-1.697574"><ele>159</ele><time>2020-01-31T10:18:00Z</time><name>PT593</name></trkpt>
<trkpt lat="53.192299" lon="-1.697602"><ele>160</ele><time>2020-01-31T10:18:01Z</time><name>PT594</name></trkpt>
<trkpt lat="53.192291" lon="-1.697623"><ele>161</ele><time>2020-01-31T10:18:03Z</time><name>PT595</name></trkpt>
<trkpt lat="53.192286" lon="-1.697649"><ele>162</ele><time>2020-01-31T10:18:03Z</time><name>PT596</name></trkpt>
<trkpt lat="53.192284" lon="-1.697684"><ele>163</ele><time>2020-01-31T10:18:05Z</time><name>PT597</name></trkpt>
<trkpt lat="53.192277" lon="-1.697706"><ele>164</ele><time>2020-01-31T10:18:06Z</time><name>PT598</name></trkpt>
<trkpt lat="53.192274" lon="-1.697720"><ele>164</ele><time>2020-01-31T10:18:06Z</time><name>PT599</name></trkpt>
<trkpt lat="53.192269" lon="-1.697737"><ele>166</ele><time>2020-01-31T10:18:07Z</time><name>PT600</name></trkpt>
<trkpt lat="53.192260" lon="-1.697761"><ele>168</ele><time>2020-01-31T10:18:09Z</time><name>PT601</name></trkpt>
<trkpt lat="53.192259" lon="-1.697775"><ele>169</ele><time>2020-01-31T10:18:09Z</time><name>PT602</name></trkpt>
<trkpt lat="53.192254" lon="-1.697786"><ele>170</ele><time>2020-01-31T10:18:11Z</time><name>PT603</name></trkpt>
<trkpt lat="53.192251" lon="-1.697793"><ele>171</ele><time>2020-01-31T10:18:12Z</time><name>PT604</name></trkpt>
<trkpt lat="53.192249" lon="-1.697799"><ele>172</ele><time>2020-01-31T10:18:12Z</time><name>PT605</name></trkpt>
<trkpt lat="53.192253" lon="-1.697806"><ele>171</ele><time>2020-01-31T10:18:15Z</time><name>PT606</name></trkpt>
<trkpt lat="53.192251" lon="-1.697795"><ele>172</ele><time>2020-01-31T10:18:16Z</time><name>PT607</name></trkpt>
<trkpt lat="53.192242" lon="-1.697803"><ele>172</ele><time>2020-01-31T10:18:18Z</time><name>PT608</name></trkpt>
<trkpt lat="53.192230" lon="-1.697838"><ele>172</ele><time>2020-01-31T10:18:18Z</time><name>PT609</name></trkpt>
<trkpt lat="53.192221" lon="-1.697864"><ele>172</ele><time>2020-01-31T10:18:20Z</time><name>PT610</name></trkpt>
<trkpt lat="53.192218" lon="-1.697871"><ele>173</ele><time>2020-01-31T10:18:21Z</time><name>PT611</name></trkpt>
<trkpt lat="53.192213" lon="-1.697886"><ele>172</ele><time>2020-01-31T10:18:21Z</time><name>PT612</name></trkpt>
<trkpt lat="53.192209" lon="-1.697896"><ele>173</ele><time>2020-01-31T10:18:22Z</time><name>PT613</name></trkpt>
<trkpt lat="53.192213" lon="-1.697905"><ele>173</ele><time>2020-01-31T10:18:24Z</time><name>PT614</name></trkpt>
<trkpt lat="53.192214" lon="-1.697911"><ele>173</ele><time>2020-01-31T10:18:24Z</time><name>PT615</name></trkpt>
<trkpt lat="53.192226" lon="-1.697919"><ele>173</ele><time>2020-01-31T10:18:26Z</time><name>PT616</name></trkpt>
<trkpt lat="53.192231" lon="-1.697924"><ele>174</ele><time>2020-01-31T10:18:27Z</time><name>PT617</name></trkpt>
<trkpt lat="53.192236" lon="-1.697932"><ele>174</ele><time>2020-01-31T10:18:27Z</time><name>PT618</name></trkpt>
<trkpt lat="53.192238" lon="-1.697951"><ele>174</ele><time>2020-01-31T10:18:28Z</time><name>PT619</name></trkpt>
<trkpt lat="53.192237" lon="-1.697964"><ele>173</ele><time>2020-01-31T10:18:30Z</time><name>PT620</name></trkpt>
<trkpt lat="53.192233" lon="-1.697992"><ele>172</ele><time>2020-01-31T10:18:30Z</time><name>PT621</name></trkpt>
<trkpt lat="53.192224" lon="-1.698017"><ele>172</ele><time>2020-01-31T10:18:32Z</time><name>PT622</name></trkpt>
<trkpt lat="53.192223" lon="-1.698043"><ele>172</ele><time>2020-01-31T10:18:33Z</time><name>PT623</name></trkpt>
<trkpt lat="53.192216" lon="-1.698063"><ele>171</ele><time>2020-01-31T10:18:33Z</time><name>PT624</name></trkpt>
<trkpt lat="53.192214" lon="-1.698086"><ele>171</ele><time>2020-01-31T10:18:35Z</time><name>PT625</name></trkpt>
<trkpt lat="53.192221" lon="-1.698099"><ele>171</ele><time>2020-01-31T10:18:36Z</time><name>PT626</name></trkpt>
<trkpt lat="53.192214" lon="-1.698113"><ele>171</ele><time>2020-01-31T10:18:36Z</time><name>PT627</name></trkpt>
<trkpt lat="53.192209" lon="-1.698138"><ele>172</ele><time>2020-01-31T10:18:38Z</time><name>PT628</name></trkpt>
<trkpt lat="53.192203" lon="-1.698157"><ele>171</ele><time>2020-01-31T10:18:39Z</time><name>PT629</name></trkpt>
<trkpt lat="53.192200" lon="-1.698168"><ele>171</ele><time>2020-01-31T10:18:39Z</time><name>PT630</name></trkpt>
<trkpt lat="53.192193" lon="-1.698178"><ele>172</ele><time>2020-01-31T10:18:41Z</time><name>PT631</name></trkpt>
<trkpt lat="53.192199" lon="-1.698186"><ele>171</ele><time>2020-01-31T10:18:42Z</time><name>PT632</name></trkpt>
<trkpt lat="53.192202" lon="-1.698198"><ele>170</ele><time>2020-01-31T10:18:42Z</time><name>PT633</name></trkpt>
<trkpt lat="53.192202" lon="-1.698207"><ele>170</ele><time>2020-01-31T10:18:43Z</time><name>PT634</name></trkpt>
<trkpt lat="53.192202" lon="-1.698225"><ele>169</ele><time>2020-01-31T10:18:45Z</time><name>PT635</name></trkpt>
<trkpt lat="53.192202" lon="-1.698239"><ele>168</ele><time>2020-01-31T10:18:45Z</time><name>PT636</name></trkpt>
<trkpt lat="53.192208" lon="-1.698262"><ele>168</ele><time>2020-01-31T10:18:46Z</time><name>PT637</name></trkpt>
<trkpt lat="53.192212" lon="-1.698305"><ele>167</ele><time>2020-01-31T10:18:48Z</time><name>PT638</name></trkpt>
<trkpt lat="53.192192" lon="-1.698343"><ele>165</ele><time>2020-01-31T10:18:48Z</time><name>PT639</name></trkpt>
<trkpt lat="53.192189" lon="-1.698380"><ele>171</ele><time>2020-01-31T10:18:50Z</time><name>PT640</name></trkpt>
<trkpt lat="53.192189" lon="-1.698389"><ele>172</ele><time>2020-01-31T10:18:51Z</time><name>PT641</name></trkpt>
<trkpt lat="53.192199" lon="-1.698397"><ele>174</ele><time>2020-01-31T10:18:51Z</time><name>PT642</name></trkpt>
<trkpt lat="53.192198" lon="-1.698410"><ele>175</ele><time>2020-01-31T10:18:53Z</time><name>PT643</name></trkpt>
<trkpt lat="53.192200" lon="-1.698419"><ele>174</ele><time>2020-01-31T10:18:54Z</time><name>PT644</name></trkpt>
<trkpt lat="53.192205" lon="-1.698427"><ele>174</ele><time>2020-01-31T10:18:54Z</time><name>PT645</name></trkpt>
<trkpt lat="53.192205" lon="-1.698438"><ele>174</ele><time>2020-01-31T10:18:56Z</time><name>PT646</name></trkpt>
<trkpt lat="53.192211" lon="-1.698453"><ele>174</ele><time>2020-01-31T10:18:57Z</time><name>PT647</name></trkpt>
<trkpt lat="53.192214" lon="-1.698469"><ele>173</ele><time>2020-01-31T10:18:57Z</time><name>PT648</name></trkpt>
<trkpt lat="53.192214" lon="-1.698484"><ele>172</ele><time>2020-01-31T10:18:58Z</time><name>PT649</name></trkpt>
<trkpt lat="53.192211" lon="-1.698497"><ele>172</ele><time>2020-01-31T10:19:00Z</time><name>PT650</name></trkpt>
<trkpt lat="53.192210" lon="-1.698506"><ele>171</ele><time>2020-01-31T10:19:00Z</time><name>PT651</name></trkpt>
<trkpt lat="53.192208" lon="-1.698509"><ele>171</ele><time>2020-01-31T10:19:01Z</time><name>PT652</name></trkpt>
<trkpt lat="53.192206" lon="-1.698511"><ele>171</ele><time>2020-01-31T10:19:03Z</time><name>PT653</name></trkpt>
<trkpt lat="53.192206" lon="-1.698511"><ele>171</ele><time>2020-01-31T10:19:03Z</time><name>PT654</name></trkpt>
<trkpt lat="53.192206" lon="-1.698510"><ele>171</ele><time>2020-01-31T10:19:05Z</time><name>PT655</name></trkpt>
<trkpt lat="53.192198" lon="-1.698517"><ele>171</ele><time>2020-01-31T10:19:06Z</time><name>PT656</name></trkpt>
<trkpt lat="53.192198" lon="-1.698525"><ele>172</ele><time>2020-01-31T10:19:06Z</time><name>PT657</name></trkpt>
<trkpt lat="53.192197" lon="-1.698536"><ele>172</ele><time>2020-01-31T10:19:08Z</time><name>PT658</name></trkpt>
<trkpt lat="53.192199" lon="-1.698547"><ele>172</ele><time>2020-01-31T10:19:09Z</time><name>PT659</name></trkpt>
<trkpt lat="53.192199" lon="-1.698567"><ele>172</ele><time>2020-01-31T10:19:09Z</time><name>PT660</name></trkpt>
<trkpt lat="53.192196" lon="-1.698589"><ele>171</ele><time>2020-01-31T10:19:10Z</time><name>PT661</name></trkpt>
<trkpt lat="53.192194" lon="-1.698609"><ele>170</ele><time>2020-01-31T10:19:12Z</time><name>PT662</name></trkpt>
<trkpt lat="53.192198" lon="-1.698625"><ele>170</ele><time>2020-01-31T10:19:12Z</time><name>PT663</name></trkpt>
<trkpt lat="53.192199" lon="-1.698637"><ele>169</ele><time>2020-01-31T10:19:13Z</time><name>PT664</name></trkpt>
<trkpt lat="53.192204" lon="-1.698654"><ele>169</ele><time>2020-01-31T10:19:15Z</time><name>PT665</name></trkpt>
<trkpt lat="53.192211" lon="-1.698662"><ele>168</ele><time>2020-01-31T10:19:15Z</time><name>PT666</name></trkpt>
<trkpt lat="53.192207" lon="-1.698673"><ele>167</ele><time>2020-01-31T10:19:16Z</time><name>PT667</name></trkpt>
<trkpt lat="53.192200" lon="-1.698686"><ele>167</ele><time>2020-01-31T10:19:18Z</time><name>PT668</name></trkpt>
<trkpt lat="53.192196" lon="-1.698698"><ele>166</ele><time>2020-01-31T10:19:18Z</time><name>PT669</name></trkpt>
<trkpt lat="53.192186" lon="-1.698720"><ele>166</ele><time>2020-01-31T10:19:19Z</time><name>PT670</name></trkpt>
<trkpt lat="53.192180" lon="-1.698733"><ele>166</ele><time>2020-01-31T10:19:21Z</time><name>PT671</name></trkpt>
<trkpt lat="53.192176" lon="-1.698745"><ele>165</ele><time>2020-01-31T10:19:21Z</time><name>PT672</name></trkpt>
<trkpt lat="53.192178" lon="-1.698757"><ele>164</ele><time>2020-01-31T10:19:22Z</time><name>PT673</name></trkpt>
<trkpt lat="53.192167" lon="-1.698776"><ele>162</ele><time>2020-01-31T10:19:24Z</time><name>PT674</name></trkpt>
<trkpt lat="53.192165" lon="-1.698792"><ele>160</ele><time>2020-01-31T10:19:24Z</time><name>PT675</name></trkpt>
<trkpt lat="53.192161" lon="-1.698797"><ele>161</ele><time>2020-01-31T10:19:25Z</time><name>PT676</name></trkpt>
<trkpt lat="53.192159" lon="-1.698813"><ele>160</ele><time>2020-01-31T10:19:27Z</time><name>PT677</name></trkpt>
<trkpt lat="53.192151" lon="-1.698833"><ele>160</ele><time>2020-01-31T10:19:27Z</time><name>PT678</name></trkpt>
<trkpt lat="53.192155" lon="-1.698845"><ele>160</ele><time>2020-01-31T10:19:28Z</time><name>PT679</name></trkpt>
<trkpt lat="53.192152" lon="-1.698871"><ele>160</ele><time>2020-01-31T10:19:30Z</time><name>PT680</name></trkpt>
<trkpt lat="53.192157" lon="-1.698901"><ele>159</ele><time>2020-01-31T10:19:30Z</time><name>PT681</name></trkpt>
<trkpt lat="53.192152" lon="-1.698929"><ele>160</ele><time>2020-01-31T10:19:31Z</time><name>PT682</name></trkpt>
<trkpt lat="53.192148" lon="-1.698951"><ele>161</ele><time>2020-01-31T10:19:33Z</time><name>PT683</name></trkpt>
<trkpt lat="53.192144" lon="-1.698975"><ele>161</ele><time>2020-01-31T10:19:33Z</time><name>PT684</name></trkpt>
<trkpt lat="53.192135" lon="-1.698998"><ele>160</ele><time>2020-01-31T10:19:34Z</time><name>PT685</name></trkpt>
<trkpt lat="53.192140" lon="-1.699005"><ele>158</ele><time>2020-01-31T10:19:36Z</time><name>PT686</name></trkpt>
<trkpt lat="53.192138" lon="-1.699031"><ele>160</ele><time>2020-01-31T10:19:36Z</time><name>PT687</name></trkpt>
<trkpt lat="53.192133" lon="-1.699061"><ele>160</ele><time>2020-01-31T10:19:37Z</time><name>PT688</name></trkpt>
<trkpt lat="53.192141" lon="-1.699088"><ele>160</ele><time>2020-01-31T10:19:39Z</time><name>PT689</name></trkpt>
<trkpt lat="53.192148" lon="-1.699112"><ele>161</ele><time>2020-01-31T10:19:39Z</time><name>PT690</name></trkpt>
<trkpt lat="53.192153" lon="-1.699145"><ele>162</ele><time>2020-01-31T10:19:40Z</time><name>PT691</name></trkpt>
<trkpt lat="53.192162" lon="-1.699160"><ele>163</ele><time>2020-01-31T10:19:42Z</time><name>PT692</name></trkpt>
<trkpt lat="53.192167" lon="-1.699179"><ele>163</ele><time>2020-01-31T10:19:42Z</time><name>PT693</name></trkpt>
<trkpt lat="53.192172" lon="-1.699195"><ele>163</ele><time>2020-01-31T10:19:43Z</time><name>PT694</name></trkpt>
<trkpt lat="53.192174" lon="-1.699216"><ele>163</ele><time>2020-01-31T10:19:45Z</time><name>PT695</name></trkpt>
<trkpt lat="53.192176" lon="-1.699233"><ele>164</ele><time>2020-01-31T10:19:45Z</time><name>PT696</name></trkpt>
<trkpt lat="53.192185" lon="-1.699246"><ele>164</ele><time>2020-01-31T10:19:46Z</time><name>PT697</name></trkpt>
<trkpt lat="53.192191" lon="-1.699256"><ele>163</ele><time>2020-01-31T10:19:48Z</time><name>PT698</name></trkpt>
<trkpt lat="53.192186" lon="-1.699277"><ele>162</ele><time>2020-01-31T10:19:48Z</time><name>PT699</name></trkpt>
<trkpt lat="53.192185" lon="-1.699302"><ele>163</ele><time>2020-01-31T10:19:50Z</time><name>PT700</name></trkpt>
<trkpt lat="53.192189" lon="-1.699317"><ele>164</ele><time>2020-01-31T10:19:51Z</time><name>PT701</name></trkpt>
<trkpt lat="53.192190" lon="-1.699340"><ele>163</ele><time>2020-01-31T10:19:51Z</time><name>PT702</name></trkpt>
<trkpt lat="53.192185" lon="-1.699364"><ele>164</ele><time>2020-01-31T10:19:53Z</time><name>PT703</name></trkpt>
<trkpt lat="53.192182" lon="-1.699387"><ele>165</ele><time>2020-01-31T10:19:54Z</time><name>PT704</name></trkpt>
<trkpt lat="53.192180" lon="-1.699413"><ele>166</ele><time>2020-01-31T10:19:54Z</time><name>PT705</name></trkpt>
<trkpt lat="53.192183" lon="-1.699431"><ele>166</ele><time>2020-01-31T10:19:56Z</time><name>PT706</name></trkpt>
<trkpt lat="53.192185" lon="-1.699455"><ele>168</ele><time>2020-01-31T10:19:57Z</time><name>PT707</name></trkpt>
<trkpt lat="53.192191" lon="-1.699467"><ele>168</ele><time>2020-01-31T10:19:57Z</time><name>PT708</name></trkpt>
<trkpt lat="53.192192" lon="-1.699481"><ele>167</ele><time>2020-01-31T10:19:59Z</time><name>PT709</name></trkpt>
<trkpt lat="53.192185" lon="-1.699506"><ele>167</ele><time>2020-01-31T10:20:00Z</time><name>PT710</name></trkpt>
<trkpt lat="53.192182" lon="-1.699528"><ele>166</ele><time>2020-01-31T10:20:00Z</time><name>PT711</name></trkpt>
<trkpt lat="53.192187" lon="-1.699545"><ele>166</ele><time>2020-01-31T10:20:02Z</time><name>PT712</name></trkpt>
<trkpt lat="53.192190" lon="-1.699563"><ele>166</ele><time>2020-01-31T10:20:03Z</time><name>PT713</name></trkpt>
<trkpt lat="53.192197" lon="-1.699575"><ele>166</ele><time>2020-01-31T10:20:03Z</time><name>PT714</name></trkpt>
<trkpt lat="53.192199" lon="-1.699597"><ele>164</ele><time>2020-01-31T10:20:05Z</time><name>PT715</name></trkpt>
<trkpt lat="53.192200" lon="-1.699619"><ele>164</ele><time>2020-01-31T10:20:06Z</time><name>PT716</name></trkpt>
<trkpt lat="53.192198" lon="-1.699632"><ele>163</ele><time>2020-01-31T10:20:06Z</time><name>PT717</name></trkpt>
<trkpt lat="53.192199" lon="-1.699643"><ele>163</ele><time>2020-01-31T10:20:08Z</time><name>PT718</name></trkpt>
<trkpt lat="53.192196" lon="-1.699669"><ele>162</ele><time>2020-01-31T10:20:09Z</time><name>PT719</name></trkpt>
<trkpt lat="53.192200" lon="-1.699700"><ele>163</ele><time>2020-01-31T10:20:09Z</time><name>PT720</name></trkpt>
<trkpt lat="53.192201" lon="-1.699717"><ele>162</ele><time>2020-01-31T10:20:11Z</time><name>PT721</name></trkpt>
<trkpt lat="53.192199" lon="-1.699745"><ele>162</ele><time>2020-01-31T10:20:12Z</time><name>PT722</name></trkpt>
<trkpt lat="53.192202" lon="-1.699765"><ele>163</ele><time>2020-01-31T10:20:12Z</time><name>PT723</name></trkpt>
<trkpt lat="53.192201" lon="-1.699784"><ele>162</ele><time>2020-01-31T10:20:14Z</time><name>PT724</name></trkpt>
<trkpt lat="53.192198" lon="-1.699807"><ele>161</ele><time>2020-01-31T10:20:15Z</time><name>PT725</name></trkpt>
<trkpt lat="53.192197" lon="-1.699833"><ele>162</ele><time>2020-01-31T10:20:15Z</time><name>PT726</name></trkpt>
<trkpt lat="53.192190" lon="-1.699855"><ele>163</ele><time>2020-01-31T10:20:16Z</time><name>PT727</name></trkpt>
<trkpt lat="53.192184" lon="-1.699879"><ele>162</ele><time>2020-01-31T10:20:18Z</time><name>PT728</name></trkpt>
<trkpt lat="53.192184" lon="-1.699906"><ele>162</ele><time>2020-01-31T10:20:18Z</time><name>PT729</name></trkpt>
<trkpt lat="53.192187" lon="-1.699946"><ele>163</ele><time>2020-01-31T10:20:20Z</time><name>PT730</name></trkpt>
<trkpt lat="53.192188" lon="-1.699973"><ele>163</ele><time>2020-01-31T10:20:21Z</time><name>PT731</name></trkpt>
<trkpt lat="53.192187" lon="-1.699987"><ele>162</ele><time>2020-01-31T10:20:21Z</time><name>PT732</name></trkpt>
<trkpt lat="53.192189" lon="-1.700002"><ele>163</ele><time>2020-01-31T10:20:22Z</time><name>PT733</name></trkpt>
<trkpt lat="53.192187" lon="-1.700022"><ele>163</ele><time>2020-01-31T10:20:24Z</time><name>PT734</name></trkpt>
<trkpt lat="53.192186" lon="-1.700039"><ele>164</ele><time>2020-01-31T10:20:24Z</time><name>PT735</name></trkpt>
<trkpt lat="53.192179" lon="-1.700054"><ele>164</ele><time>2020-01-31T10:20:25Z</time><name>PT736</name></trkpt>
<trkpt lat="53.192182" lon="-1.700074"><ele>164</ele><time>2020-01-31T10:20:27Z</time><name>PT737</name></trkpt>
<trkpt lat="53.192184" lon="-1.700099"><ele>165</ele><time>2020-01-31T10:20:27Z</time><name>PT738</name></trkpt>
<trkpt lat="53.192186" lon="-1.700114"><ele>163</ele><time>2020-01-31T10:20:29Z</time><name>PT739</name></trkpt>
<trkpt lat="53.192178" lon="-1.700141"><ele>164</ele><time>2020-01-31T10:20:30Z</time><name>PT740</name></trkpt>
<trkpt lat="53.192177" lon="-1.700166"><ele>164</ele><time>2020-01-31T10:20:30Z</time><name>PT741</name></trkpt>
<trkpt lat="53.192181" lon="-1.700182"><ele>165</ele><time>2020-01-31T10:20:32Z</time><name>PT742</name></trkpt>
<trkpt lat="53.192190" lon="-1.700191"><ele>166</ele><time>2020-01-31T10:20:33Z</time><name>PT743</name></trkpt>
<trkpt lat="53.192191" lon="-1.700213"><ele>166</ele><time>2020-01-31T10:20:33Z</time><name>PT744</name></trkpt>
<trkpt lat="53.192197" lon="-1.700225"><ele>167</ele><time>2020-01-31T10:20:34Z</time><name>PT745</name></trkpt>
<trkpt lat="53.192200" lon="-1.700243"><ele>166</ele><time>2020-01-31T10:20:36Z</time><name>PT746</name></trkpt>
<trkpt lat="53.192193" lon="-1.700262"><ele>165</ele><time>2020-01-31T10:20:36Z</time><name>PT747</name></trkpt>
<trkpt lat="53.192191" lon="-1.700284"><ele>164</ele><time>2020-01-31T10:20:38Z</time><name>PT748</name></trkpt>
<trkpt lat="53.192189" lon="-1.700293"><ele>164</ele><time>2020-01-31T10:20:39Z</time><name>PT749</name></trkpt>
<trkpt lat="53.192192" lon="-1.700309"><ele>164</ele><time>2020-01-31T10:20:39Z</time><name>PT750</name></trkpt>
<trkpt lat="53.192195" lon="-1.700333"><ele>163</ele><time>2020-01-31T10:20:41Z</time><name>PT751</name></trkpt>
<trkpt lat="53.192195" lon="-1.700346"><ele>162</ele><time>2020-01-31T10:20:42Z</time><name>PT752</name></trkpt>
<trkpt lat="53.192188" lon="-1.700361"><ele>162</ele><time>2020-01-31T10:20:42Z</time><name>PT753</name></trkpt>
<trkpt lat="53.192183" lon="-1.700375"><ele>161</ele><time>2020-01-31T10:20:44Z</time><name>PT754</name></trkpt>
<trkpt lat="53.192188" lon="-1.700389"><ele>161</ele><time>2020-01-31T10:20:45Z</time><name>PT755</name></trkpt>
<trkpt lat="53.192188" lon="-1.700406"><ele>161</ele><time>2020-01-31T10:20:45Z</time><name>PT756</name></trkpt>
<trkpt lat="53.192190" lon="-1.700426"><ele>161</ele><time>2020-01-31T10:20:47Z</time><name>PT757</name></trkpt>
<trkpt lat="53.192188" lon="-1.700441"><ele>161</ele><time>2020-01-31T10:20:48Z</time><name>PT758</name></trkpt>
<trkpt lat="53.192182" lon="-1.700459"><ele>160</ele><time>2020-01-31T10:20:48Z</time><name>PT759</name></trkpt>
<trkpt lat="53.192178" lon="-1.700475"><ele>162</ele><time>2020-01-31T10:20:49Z</time><name>PT760</name></trkpt>
<trkpt lat="53.192194" lon="-1.700469"><ele>161</ele><time>2020-01-31T10:20:51Z</time><name>PT761</name></trkpt>
<trkpt lat="53.192196" lon="-1.700483"><ele>162</ele><time>2020-01-31T10:20:51Z</time><name>PT762</name></trkpt>
<trkpt lat="53.192203" lon="-1.700494"><ele>162</ele><time>2020-01-31T10:20:52Z</time><name>PT763</name></trkpt>
<trkpt lat="53.192195" lon="-1.700528"><ele>162</ele><time>2020-01-31T10:20:54Z</time><name>PT764</name></trkpt>
<trkpt lat="53.192188" lon="-1.700555"><ele>161</ele><time>2020-01-31T10:20:54Z</time><name>PT765</name></trkpt>
<trkpt lat="53.192188" lon="-1.700574"><ele>162</ele><time>2020-01-31T10:20:55Z</time><name>PT766</name></trkpt>
<trkpt lat="53.192185" lon="-1.700587"><ele>162</ele><time>2020-01-31T10:20:57Z</time><name>PT767</name></trkpt>
<trkpt lat="53.192189" lon="-1.700597"><ele>162</ele><time>2020-01-31T10:20:57Z</time><name>PT768</name></trkpt>
<trkpt lat="53.192174" lon="-1.700636"><ele>162</ele><time>2020-01-31T10:20:59Z</time><name>PT769</name></trkpt>
<trkpt lat="53.192171" lon="-1.700663"><ele>162</ele><time>2020-01-31T10:21:00Z</time><name>PT770</name></trkpt>
<trkpt lat="53.192165" lon="-1.700688"><ele>163</ele><time>2020-01-31T10:21:00Z</time><name>PT771</name></trkpt>
<trkpt lat="53.192163" lon="-1.700704"><ele>163</ele><time>2020-01-31T10:21:02Z</time><name>PT772</name></trkpt>
<trkpt lat="53.192164" lon="-1.700720"><ele>164</ele><time>2020-01-31T10:21:03Z</time><name>PT773</name></trkpt>
<trkpt lat="53.192166" lon="-1.700738"><ele>163</ele><time>2020-01-31T10:21:03Z</time><name>PT774</name></trkpt>
<trkpt lat="53.192165" lon="-1.700756"><ele>163</ele><time>2020-01-31T10:21:05Z</time><name>PT775</name></trkpt>
<trkpt lat="53.192163" lon="-1.700772"><ele>162</ele><time>2020-01-31T10:21:06Z</time><name>PT776</name></trkpt>
<trkpt lat="53.192156" lon="-1.700802"><ele>162</ele><time>2020-01-31T10:21:06Z</time><name>PT777</name></trkpt>
<trkpt lat="53.192158" lon="-1.700812"><ele>162</ele><time>2020-01-31T10:21:08Z</time><name>PT778</name></trkpt>
<trkpt lat="53.192163" lon="-1.700830"><ele>164</ele><time>2020-01-31T10:21:09Z</time><name>PT779</name></trkpt>
<trkpt lat="53.192162" lon="-1.700845"><ele>165</ele><time>2020-01-31T10:21:09Z</time><name>PT780</name></trkpt>
<trkpt lat="53.192160" lon="-1.700862"><ele>167</ele><time>2020-01-31T10:21:11Z</time><name>PT781</name></trkpt>
<trkpt lat="53.192162" lon="-1.700882"><ele>166</ele><time>2020-01-31T10:21:13Z</time><name>PT782</name></trkpt>
<trkpt lat="53.192171" lon="-1.700922"><ele>166</ele><time>2020-01-31T10:21:15Z</time><name>PT783</name></trkpt>
<trkpt lat="53.192176" lon="-1.700956"><ele>165</ele><time>2020-01-31T10:21:15Z</time><name>PT784</name></trkpt>
<trkpt lat="53.192172" lon="-1.701004"><ele>166</ele><time>2020-01-31T10:21:17Z</time><name>PT785</name></trkpt>
<trkpt lat="53.192169" lon="-1.701049"><ele>165</ele><time>2020-01-31T10:21:18Z</time><name>PT786</name></trkpt>
<trkpt lat="53.192165" lon="-1.701088"><ele>165</ele><time>2020-01-31T10:21:18Z</time><name>PT787</name></trkpt>
<trkpt lat="53.192167" lon="-1.701122"><ele>165</ele><time>2020-01-31T10:21:20Z</time><name>PT788</name></trkpt>
<trkpt lat="53.192166" lon="-1.701150"><ele>165</ele><time>2020-01-31T10:21:21Z</time><name>PT789</name></trkpt>
<trkpt lat="53.192162" lon="-1.701177"><ele>167</ele><time>2020-01-31T10:21:21Z</time><name>PT790</name></trkpt>
<trkpt lat="53.192160" lon="-1.701200"><ele>167</ele><time>2020-01-31T10:21:22Z</time><name>PT791</name></trkpt>
<trkpt lat="53.192151" lon="-1.701233"><ele>167</ele><time>2020-01-31T10:21:24Z</time><name>PT792</name></trkpt>
<trkpt lat="53.192139" lon="-1.701267"><ele>166</ele><time>2020-01-31T10:21:24Z</time><name>PT793</name></trkpt>
<trkpt lat="53.192141" lon="-1.701289"><ele>166</ele><time>2020-01-31T10:21:25Z</time><name>PT794</name></trkpt>
<trkpt lat="53.192143" lon="-1.701300"><ele>166</ele><time>2020-01-31T10:21:27Z</time><name>PT795</name></trkpt>
<trkpt lat="53.192144" lon="-1.701324"><ele>165</ele><time>2020-01-31T10:21:27Z</time><name>PT796</name></trkpt>
<trkpt lat="53.192148" lon="-1.701339"><ele>165</ele><time>2020-01-31T10:21:28Z</time><name>PT797</name></trkpt>
<trkpt lat="53.192142" lon="-1.701368"><ele>166</ele><time>2020-01-31T10:21:30Z</time><name>PT798</name></trkpt>
<trkpt lat="53.192131" lon="-1.701381"><ele>166</ele><time>2020-01-31T10:21:30Z</time><name>PT799</name></trkpt>
<trkpt lat="53.192130" lon="-1.701397"><ele>167</ele><time>2020-01-31T10:21:31Z</time><name>PT800</name></trkpt>
<trkpt lat="53.192130" lon="-1.701423"><ele>167</ele><time>2020-01-31T10:21:33Z</time><name>PT801</name></trkpt>
<trkpt lat="53.192130" lon="-1.701433"><ele>169</ele><time>2020-01-31T10:21:33Z</time><name>PT802</name></trkpt>
<trkpt lat="53.192129" lon="-1.701449"><ele>169</ele><time>2020-01-31T10:21:34Z</time><name>PT803</name></trkpt>
<trkpt lat="53.192136" lon="-1.701473"><ele>169</ele><time>2020-01-31T10:21:36Z</time><name>PT804</name></trkpt>
<trkpt lat="53.192141" lon="-1.701490"><ele>170</ele><time>2020-01-31T10:21:36Z</time><name>PT805</name></trkpt>
<trkpt lat="53.192138" lon="-1.701507"><ele>170</ele><time>2020-01-31T10:21:38Z</time><name>PT806</name></trkpt>
<trkpt lat="53.192137" lon="-1.701523"><ele>171</ele><time>2020-01-31T10:21:39Z</time><name>PT807</name></trkpt>
<trkpt lat="53.192138" lon="-1.701548"><ele>171</ele><time>2020-01-31T10:21:39Z</time><name>PT808</name></trkpt>
<trkpt lat="53.192134" lon="-1.701564"><ele>171</ele><time>2020-01-31T10:21:40Z</time><name>PT809</name></trkpt>
<trkpt lat="53.192132" lon="-1.701577"><ele>172</ele><time>2020-01-31T10:21:42Z</time><name>PT810</name></trkpt>
<trkpt lat="53.192115" lon="-1.701618"><ele>171</ele><time>2020-01-31T10:21:42Z</time><name>PT811</name></trkpt>
<trkpt lat="53.192114" lon="-1.701636"><ele>171</ele><time>2020-01-31T10:21:43Z</time><name>PT812</name></trkpt>
<trkpt lat="53.192114" lon="-1.701657"><ele>171</ele><time>2020-01-31T10:21:45Z</time><name>PT813</name></trkpt>
<trkpt lat="53.192110" lon="-1.701678"><ele>172</ele><time>2020-01-31T10:21:45Z</time><name>PT814</name></trkpt>
<trkpt lat="53.192106" lon="-1.701701"><ele>171</ele><time>2020-01-31T10:21:47Z</time><name>PT815</name></trkpt>
<trkpt lat="53.192111" lon="-1.701720"><ele>171</ele><time>2020-01-31T10:21:48Z</time><name>PT816</name></trkpt>
<trkpt lat="53.192117" lon="-1.701735"><ele>171</ele><time>2020-01-31T10:21:48Z</time><name>PT817</name></trkpt>
<trkpt lat="53.192114" lon="-1.701751"><ele>172</ele><time>2020-01-31T10:21:49Z</time><name>PT818</name></trkpt>
<trkpt lat="53.192116" lon="-1.701770"><ele>172</ele><time>2020-01-31T10:21:51Z</time><name>PT819</name></trkpt>
<trkpt lat="53.192119" lon="-1.701787"><ele>170</ele><time>2020-01-31T10:21:51Z</time><name>PT820</name></trkpt>
<trkpt lat="53.192117" lon="-1.701809"><ele>170</ele><time>2020-01-31T10:21:53Z</time><name>PT821</name></trkpt>
<trkpt lat="53.192117" lon="-1.701831"><ele>170</ele><time>2020-01-31T10:21:54Z</time><name>PT822</name></trkpt>
<trkpt lat="53.192119" lon="-1.701858"><ele>170</ele><time>2020-01-31T10:21:54Z</time><name>PT823</name></trkpt>
<trkpt lat="53.192121" lon="-1.701881"><ele>170</ele><time>2020-01-31T10:21:56Z</time><name>PT824</name></trkpt>
<trkpt lat="53.192120" lon="-1.701907"><ele>170</ele><time>2020-01-31T10:21:57Z</time><name>PT825</name></trkpt>
<trkpt lat="53.192115" lon="-1.701930"><ele>171</ele><time>2020-01-31T10:21:57Z</time><name>PT826</name></trkpt>
<trkpt lat="53.192112" lon="-1.701954"><ele>171</ele><time>2020-01-31T10:21:59Z</time><name>PT827</name></trkpt>
<trkpt lat="53.192113" lon="-1.701978"><ele>171</ele><time>2020-01-31T10:22:00Z</time><name>PT828</name></trkpt>
<trkpt lat="53.192114" lon="-1.701998"><ele>171</ele><time>2020-01-31T10:22:00Z</time><name>PT829</name></trkpt>
<trkpt lat="53.192114" lon="-1.702019"><ele>172</ele><time>2020-01-31T10:22:01Z</time><name>PT830</name></trkpt>
<trkpt lat="53.192114" lon="-1.702040"><ele>172</ele><time>2020-01-31T10:22:03Z</time><name>PT831</name></trkpt>
<trkpt lat="53.192110" lon="-1.702058"><ele>173</ele><time>2020-01-31T10:22:03Z</time><name>PT832</name></trkpt>
<trkpt lat="53.192111" lon="-1.702074"><ele>173</ele><time>2020-01-31T10:22:05Z</time><name>PT833</name></trkpt>
<trkpt lat="53.192108" lon="-1.702091"><ele>173</ele><time>2020-01-31T10:22:06Z</time><name>PT834</name></trkpt>
<trkpt lat="53.192115" lon="-1.702104"><ele>174</ele><time>2020-01-31T10:22:06Z</time><name>PT835</name></trkpt>
<trkpt lat="53.192121" lon="-1.702118"><ele>174</ele><time>2020-01-31T10:22:07Z</time><name>PT836</name></trkpt>
<trkpt lat="53.192124" lon="-1.702132"><ele>174</ele><time>2020-01-31T10:22:09Z</time><name>PT837</name></trkpt>
<trkpt lat="53.192127" lon="-1.702152"><ele>175</ele><time>2020-01-31T10:22:09Z</time><name>PT838</name></trkpt>
<trkpt lat="53.192128" lon="-1.702169"><ele>175</ele><time>2020-01-31T10:22:11Z</time><name>PT839</name></trkpt>
<trkpt lat="53.192124" lon="-1.702180"><ele>175</ele><time>2020-01-31T10:22:12Z</time><name>PT840</name></trkpt>
<trkpt lat="53.192126" lon="-1.702187"><ele>175</ele><time>2020-01-31T10:22:12Z</time><name>PT841</name></trkpt>
<trkpt lat="53.192131" lon="-1.702198"><ele>176</ele><time>2020-01-31T10:22:13Z</time><name>PT842</name></trkpt>
<trkpt lat="53.192135" lon="-1.702215"><ele>176</ele><time>2020-01-31T10:22:15Z</time><name>PT843</name></trkpt>
<trkpt lat="53.192133" lon="-1.702230"><ele>176</ele><time>2020-01-31T10:22:15Z</time><name>PT844</name></trkpt>
<trkpt lat="53.192131" lon="-1.702242"><ele>176</ele><time>2020-01-31T10:22:16Z</time><name>PT845</name></trkpt>
<trkpt lat="53.192133" lon="-1.702268"><ele>177</ele><time>2020-01-31T10:22:18Z</time><name>PT846</name></trkpt>
<trkpt lat="53.192130" lon="-1.702284"><ele>177</ele><time>2020-01-31T10:22:18Z</time><name>PT847</name></trkpt>
<trkpt lat="53.192139" lon="-1.702309"><ele>176</ele><time>2020-01-31T10:22:19Z</time><name>PT848</name></trkpt>
<trkpt lat="53.192138" lon="-1.702335"><ele>177</ele><time>2020-01-31T10:22:21Z</time><name>PT849</name></trkpt>
<trkpt lat="53.192135" lon="-1.702360"><ele>177</ele><time>2020-01-31T10:22:21Z</time><name>PT850</name></trkpt>
<trkpt lat="53.192137" lon="-1.702380"><ele>177</ele><time>2020-01-31T10:22:22Z</time><name>PT851</name></trkpt>
<trkpt lat="53.192137" lon="-1.702403"><ele>177</ele><time>2020-01-31T10:22:24Z</time><name>PT852</name></trkpt>
<trkpt lat="53.192140" lon="-1.702421"><ele>177</ele><time>2020-01-31T10:22:24Z</time><name>PT853</name></trkpt>
<trkpt lat="53.192141" lon="-1.702430"><ele>178</ele><time>2020-01-31T10:22:26Z</time><name>PT854</name></trkpt>
<trkpt lat="53.192141" lon="-1.702444"><ele>178</ele><time>2020-01-31T10:22:27Z</time><name>PT855</name></trkpt>
<trkpt lat="53.192137" lon="-1.702464"><ele>179</ele><time>2020-01-31T10:22:27Z</time><name>PT856</name></trkpt>
<trkpt lat="53.192150" lon="-1.702475"><ele>179</ele><time>2020-01-31T10:22:28Z</time><name>PT857</name></trkpt>
<trkpt lat="53.192152" lon="-1.702493"><ele>179</ele><time>2020-01-31T10:22:30Z</time><name>PT858</name></trkpt>
<trkpt lat="53.192148" lon="-1.702519"><ele>178</ele><time>2020-01-31T10:22:30Z</time><name>PT859</name></trkpt>
<trkpt lat="53.192145" lon="-1.702544"><ele>178</ele><time>2020-01-31T10:22:32Z</time><name>PT860</name></trkpt>
<trkpt lat="53.192140" lon="-1.702571"><ele>177</ele><time>2020-01-31T10:22:33Z</time><name>PT861</name></trkpt>
<trkpt lat="53.192138" lon="-1.702589"><ele>177</ele><time>2020-01-31T10:22:33Z</time><name>PT862</name></trkpt>
<trkpt lat="53.192133" lon="-1.702613"><ele>177</ele><time>2020-01-31T10:22:35Z</time><name>PT863</name></trkpt>
<trkpt lat="53.192128" lon="-1.702635"><ele>177</ele><time>2020-01-31T10:22:36Z</time><name>PT864</name></trkpt>
<trkpt lat="53.192122" lon="-1.702650"><ele>176</ele><time>2020-01-31T10:22:36Z</time><name>PT865</name></trkpt>
<trkpt lat="53.192120" lon="-1.702672"><ele>176</ele><time>2020-01-31T10:22:37Z</time><name>PT866</name></trkpt>
<trkpt lat="53.192117" lon="-1.702693"><ele>176</ele><time>2020-01-31T10:22:39Z</time><name>PT867</name></trkpt>
<trkpt lat="53.192114" lon="-1.702720"><ele>175</ele><time>2020-01-31T10:22:39Z</time><name>PT868</name></trkpt>
<trkpt lat="53.192115" lon="-1.702740"><ele>175</ele><time>2020-01-31T10:22:40Z</time><name>PT869</name></trkpt>
<trkpt lat="53.192115" lon="-1.702758"><ele>175</ele><time>2020-01-31T10:22:42Z</time><name>PT870</name></trkpt>
<trkpt lat="53.192110" lon="-1.702779"><ele>175</ele><time>2020-01-31T10:22:42Z</time><name>PT871</name></trkpt>
<trkpt lat="53.192108" lon="-1.702799"><ele>175</ele><time>2020-01-31T10:22:43Z</time><name>PT872</name></trkpt>
<trkpt lat="53.192102" lon="-1.702820"><ele>175</ele><time>2020-01-31T10:22:45Z</time><name>PT873</name></trkpt>
<trkpt lat="53.192104" lon="-1.702838"><ele>174</ele><time>2020-01-31T10:22:45Z</time><name>PT874</name></trkpt>
<trkpt lat="53.192098" lon="-1.702854"><ele>174</ele><time>2020-01-31T10:22:46Z</time><name>PT875</name></trkpt>
<trkpt lat="53.192095" lon="-1.702878"><ele>172</ele><time>2020-01-31T10:22:48Z</time><name>PT876</name></trkpt>
<trkpt lat="53.192099" lon="-1.702898"><ele>172</ele><time>2020-01-31T10:22:48Z</time><name>PT877</name></trkpt>
<trkpt lat="53.192095" lon="-1.702926"><ele>171</ele><time>2020-01-31T10:22:49Z</time><name>PT878</name></trkpt>
<trkpt lat="53.192093" lon="-1.702949"><ele>170</ele><time>2020-01-31T10:22:51Z</time><name>PT879</name></trkpt>
<trkpt lat="53.192092" lon="-1.702978"><ele>171</ele><time>2020-01-31T10:22:51Z</time><name>PT880</name></trkpt>
<trkpt lat="53.192095" lon="-1.702995"><ele>170</ele><time>2020-01-31T10:22:52Z</time><name>PT881</name></trkpt>
<trkpt lat="53.192097" lon="-1.703017"><ele>169</ele><time>2020-01-31T10:22:54Z</time><name>PT882</name></trkpt>
<trkpt lat="53.192092" lon="-1.703043"><ele>169</ele><time>2020-01-31T10:22:54Z</time><name>PT883</name></trkpt>
<trkpt lat="53.192095" lon="-1.703057"><ele>169</ele><time>2020-01-31T10:22:56Z</time><name>PT884</name></trkpt>
<trkpt lat="53.192092" lon="-1.703080"><ele>169</ele><time>2020-01-31T10:22:57Z</time><name>PT885</name></trkpt>
<trkpt lat="53.192091" lon="-1.703105"><ele>169</ele><time>2020-01-31T10:22:57Z</time><name>PT886</name></trkpt>
<trkpt lat="53.192094" lon="-1.703137"><ele>169</ele><time>2020-01-31T10:22:58Z</time><name>PT887</name></trkpt>
<trkpt lat="53.192099" lon="-1.703160"><ele>169</ele><time>2020-01-31T10:23:00Z</time><name>PT888</name></trkpt>
<trkpt lat="53.192110" lon="-1.703178"><ele>169</ele><time>2020-01-31T10:23:00Z</time><name>PT889</name></trkpt>
<trkpt lat="53.192111" lon="-1.703201"><ele>169</ele><time>2020-01-31T10:23:01Z</time><name>PT890</name></trkpt>
<trkpt lat="53.192108" lon="-1.703222"><ele>169</ele><time>2020-01-31T10:23:03Z</time><name>PT891</name></trkpt>
<trkpt lat="53.192109" lon="-1.703239"><ele>169</ele><time>2020-01-31T10:23:03Z</time><name>PT892</name></trkpt>
<trkpt lat="53.192106" lon="-1.703254"><ele>169</ele><time>2020-01-31T10:23:05Z</time><name>PT893</name></trkpt>
<trkpt lat="53.192106" lon="-1.703279"><ele>168</ele><time>2020-01-31T10:23:06Z</time><name>PT894</name></trkpt>
<trkpt lat="53.192105" lon="-1.703304"><ele>168</ele><time>2020-01-31T10:23:06Z</time><name>PT895</name></trkpt>
<trkpt lat="53.192104" lon="-1.703330"><ele>167</ele><time>2020-01-31T10:23:08Z</time><name>PT896</name></trkpt>
<trkpt lat="53.192098" lon="-1.703357"><ele>167</ele><time>2020-01-31T10:23:09Z</time><name>PT897</name></trkpt>
<trkpt lat="53.192097" lon="-1.703383"><ele>168</ele><time>2020-01-31T10:23:09Z</time><name>PT898</name></trkpt>
<trkpt lat="53.192092" lon="-1.703409"><ele>168</ele><time>2020-01-31T10:23:11Z</time><name>PT899</name></trkpt>
<trkpt lat="53.192093" lon="-1.703435"><ele>169</ele><time>2020-01-31T10:23:12Z</time><name>PT900</name></trkpt>
<trkpt lat="53.192090" lon="-1.703465"><ele>169</ele><time>2020-01-31T10:23:12Z</time><name>PT901</name></trkpt>
<trkpt lat="53.192091" lon="-1.703493"><ele>169</ele><time>2020-01-31T10:23:13Z</time><name>PT902</name></trkpt>
<trkpt lat="53.192099" lon="-1.703520"><ele>167</ele><time>2020-01-31T10:23:15Z</time><name>PT903</name></trkpt>
<trkpt lat="53.192097" lon="-1.703540"><ele>167</ele><time>2020-01-31T10:23:15Z</time><name>PT904</name></trkpt>
<trkpt lat="53.192095" lon="-1.703559"><ele>168</ele><time>2020-01-31T10:23:17Z</time><name>PT905</name></trkpt>
<trkpt lat="53.192103" lon="-1.703585"><ele>166</ele><time>2020-01-31T10:23:18Z</time><name>PT906</name></trkpt>
<trkpt lat="53.192103" lon="-1.703600"><ele>166</ele><time>2020-01-31T10:23:18Z</time><name>PT907</name></trkpt>
<trkpt lat="53.192100" lon="-1.703617"><ele>166</ele><time>2020-01-31T10:23:19Z</time><name>PT908</name></trkpt>
<trkpt lat="53.192095" lon="-1.703638"><ele>166</ele><time>2020-01-31T10:23:21Z</time><name>PT909</name></trkpt>
<trkpt lat="53.192099" lon="-1.703652"><ele>165</ele><time>2020-01-31T10:23:21Z</time><name>PT910</name></trkpt>
<trkpt lat="53.192097" lon="-1.703666"><ele>165</ele><time>2020-01-31T10:23:22Z</time><name>PT911</name></trkpt>
<trkpt lat="53.192093" lon="-1.703689"><ele>165</ele><time>2020-01-31T10:23:24Z</time><name>PT912</name></trkpt>
<trkpt lat="53.192090" lon="-1.703713"><ele>164</ele><time>2020-01-31T10:23:24Z</time><name>PT913</name></trkpt>
<trkpt lat="53.192084" lon="-1.703735"><ele>164</ele><time>2020-01-31T10:23:25Z</time><name>PT914</name></trkpt>
<trkpt lat="53.192087" lon="-1.703753"><ele>163</ele><time>2020-01-31T10:23:27Z</time><name>PT915</name></trkpt>
<trkpt lat="53.192085" lon="-1.703773"><ele>163</ele><time>2020-01-31T10:23:27Z</time><name>PT916</name></trkpt>
<trkpt lat="53.192081" lon="-1.703796"><ele>164</ele><time>2020-01-31T10:23:28Z</time><name>PT917</name></trkpt>
<trkpt lat="53.192076" lon="-1.703822"><ele>164</ele><time>2020-01-31T10:23:30Z</time><name>PT918</name></trkpt>
<trkpt lat="53.192074" lon="-1.703837"><ele>163</ele><time>2020-01-31T10:23:30Z</time><name>PT919</name></trkpt>
<trkpt lat="53.192073" lon="-1.703852"><ele>164</ele><time>2020-01-31T10:23:31Z</time><name>PT920</name></trkpt>
<trkpt lat="53.192072" lon="-1.703871"><ele>164</ele><time>2020-01-31T10:23:33Z</time><name>PT921</name></trkpt>
<trkpt lat="53.192068" lon="-1.703890"><ele>163</ele><time>2020-01-31T10:23:33Z</time><name>PT922</name></trkpt>
<trkpt lat="53.192063" lon="-1.703915"><ele>163</ele><time>2020-01-31T10:23:34Z</time><name>PT923</name></trkpt>
<trkpt lat="53.192063" lon="-1.703937"><ele>163</ele><time>2020-01-31T10:23:36Z</time><name>PT924</name></trkpt>
<trkpt lat="53.192057" lon="-1.703961"><ele>163</ele><time>2020-01-31T10:23:36Z</time><name>PT925</name></trkpt>
<trkpt lat="53.192056" lon="-1.703974"><ele>163</ele><time>2020-01-31T10:23:37Z</time><name>PT926</name></trkpt>
<trkpt lat="53.192056" lon="-1.703980"><ele>164</ele><time>2020-01-31T10:23:39Z</time><name>PT927</name></trkpt>
<trkpt lat="53.192056" lon="-1.704003"><ele>165</ele><time>2020-01-31T10:23:39Z</time><name>PT928</name></trkpt>
<trkpt lat="53.192049" lon="-1.704030"><ele>164</ele><time>2020-01-31T10:23:40Z</time><name>PT929</name></trkpt>
<trkpt lat="53.192045" lon="-1.704051"><ele>165</ele><time>2020-01-31T10:23:42Z</time><name>PT930</name></trkpt>
<trkpt lat="53.192048" lon="-1.704067"><ele>166</ele><time>2020-01-31T10:23:42Z</time><name>PT931</name></trkpt>
<trkpt lat="53.192047" lon="-1.704087"><ele>166</ele><time>2020-01-31T10:23:43Z</time><name>PT932</name></trkpt>
<trkpt lat="53.192045" lon="-1.704104"><ele>166</ele><time>2020-01-31T10:23:45Z</time><name>PT933</name></trkpt>
<trkpt lat="53.192040" lon="-1.704127"><ele>166</ele><time>2020-01-31T10:23:45Z</time><name>PT934</name></trkpt>
<trkpt lat="53.192035" lon="-1.704150"><ele>167</ele><time>2020-01-31T10:23:46Z</time><name>PT935</name></trkpt>
<trkpt lat="53.192035" lon="-1.704175"><ele>168</ele><time>2020-01-31T10:23:48Z</time><name>PT936</name></trkpt>
<trkpt lat="53.192030" lon="-1.704196"><ele>168</ele><time>2020-01-31T10:23:48Z</time><name>PT937</name></trkpt>
<trkpt lat="53.192026" lon="-1.704212"><ele>169</ele><time>2020-01-31T10:23:49Z</time><name>PT938</name></trkpt>
<trkpt lat="53.192018" lon="-1.704227"><ele>169</ele><time>2020-01-31T10:23:51Z</time><name>PT939</name></trkpt>
<trkpt lat="53.192018" lon="-1.704250"><ele>170</ele><time>2020-01-31T10:23:51Z</time><name>PT940</name></trkpt>
<trkpt lat="53.192013" lon="-1.704276"><ele>168</ele><time>2020-01-31T10:23:53Z</time><name>PT941</name></trkpt>
<trkpt lat="53.192006" lon="-1.704297"><ele>168</ele><time>2020-01-31T10:23:54Z</time><name>PT942</name></trkpt>
<trkpt lat="53.192003" lon="-1.704311"><ele>168</ele><time>2020-01-31T10:23:54Z</time><name>PT943</name></trkpt>
<trkpt lat="53.192001" lon="-1.704332"><ele>168</ele><time>2020-01-31T10:23:55Z</time><name>PT944</name></trkpt>
<trkpt lat="53.192000" lon="-1.704348"><ele>168</ele><time>2020-01-31T10:23:57Z</time><name>PT945</name></trkpt>
<trkpt lat="53.191997" lon="-1.704358"><ele>168</ele><time>2020-01-31T10:23:57Z</time><name>PT946</name></trkpt>
<trkpt lat="53.191993" lon="-1.704376"><ele>168</ele><time>2020-01-31T10:23:59Z</time><name>PT947</name></trkpt>
<trkpt lat="53.191984" lon="-1.704397"><ele>167</ele><time>2020-01-31T10:24:00Z</time><name>PT948</name></trkpt>
<trkpt lat="53.191983" lon="-1.704419"><ele>168</ele><time>2020-01-31T10:24:00Z</time><name>PT949</name></trkpt>
<trkpt lat="53.191985" lon="-1.704436"><ele>167</ele><time>2020-01-31T10:24:01Z</time><name>PT950</name></trkpt>
<trkpt lat="53.191981" lon="-1.704452"><ele>167</ele><time>2020-01-31T10:24:03Z</time><name>PT951</name></trkpt>
<trkpt lat="53.191976" lon="-1.704470"><ele>166</ele><time>2020-01-31T10:24:03Z</time><name>PT952</name></trkpt>
<trkpt lat="53.191972" lon="-1.704489"><ele>167</ele><time>2020-01-31T10:24:04Z</time><name>PT953</name></trkpt>
<trkpt lat="53.191962" lon="-1.704510"><ele>166</ele><time>2020-01-31T10:24:06Z</time><name>PT954</name></trkpt>
<trkpt lat="53.191954" lon="-1.704532"><ele>166</ele><time>2020-01-31T10:24:06Z</time><name>PT955</name></trkpt>
<trkpt lat="53.191949" lon="-1.704548"><ele>167</ele><time>2020-01-31T10:24:07Z</time><name>PT956</name></trkpt>
<trkpt lat="53.191940" lon="-1.704566"><ele>165</ele><time>2020-01-31T10:24:09Z</time><name>PT957</name></trkpt>
<trkpt lat="53.191930" lon="-1.704576"><ele>165</ele><time>2020-01-31T10:24:09Z</time><name>PT958</name></trkpt>
<trkpt lat="53.191920" lon="-1.704598"><ele>164</ele><time>2020-01-31T10:24:11Z</time><name>PT959</name></trkpt>
<trkpt lat="53.191918" lon="-1.704611"><ele>163</ele><time>2020-01-31T10:24:12Z</time><name>PT960</name></trkpt>
<trkpt lat="53.191909" lon="-1.704632"><ele>161</ele><time>2020-01-31T10:24:12Z</time><name>PT961</name></trkpt>
<trkpt lat="53.191904" lon="-1.704649"><ele>161</ele><time>2020-01-31T10:24:13Z</time><name>PT962</name></trkpt>
<trkpt lat="53.191895" lon="-1.704666"><ele>160</ele><time>2020-01-31T10:24:15Z</time><name>PT963</name></trkpt>
<trkpt lat="53.191889" lon="-1.704686"><ele>161</ele><time>2020-01-31T10:24:15Z</time><name>PT964</name></trkpt>
<trkpt lat="53.191883" lon="-1.704712"><ele>162</ele><time>2020-01-31T10:24:16Z</time><name>PT965</name></trkpt>
<trkpt lat="53.191883" lon="-1.704730"><ele>161</ele><time>2020-01-31T10:24:18Z</time><name>PT966</name></trkpt>
<trkpt lat="53.191880" lon="-1.704753"><ele>162</ele><time>2020-01-31T10:24:18Z</time><name>PT967</name></trkpt>
<trkpt lat="53.191875" lon="-1.704771"><ele>160</ele><time>2020-01-31T10:24:19Z</time><name>PT968</name></trkpt>
<trkpt lat="53.191871" lon="-1.704792"><ele>160</ele><time>2020-01-31T10:24:21Z</time><name>PT969</name></trkpt>
<trkpt lat="53.191881" lon="-1.704803"><ele>160</ele><time>2020-01-31T10:24:21Z</time><name>PT970</name></trkpt>
<trkpt lat="53.191887" lon="-1.704812"><ele>160</ele><time>2020-01-31T10:24:22Z</time><name>PT971</name></trkpt>
<trkpt lat="53.191886" lon="-1.704829"><ele>160</ele><time>2020-01-31T10:24:24Z</time><name>PT972</name></trkpt>
<trkpt lat="53.191888" lon="-1.704848"><ele>160</ele><time>2020-01-31T10:24:24Z</time><name>PT973</name></trkpt>
<trkpt lat="53.191884" lon="-1.704870"><ele>160</ele><time>2020-01-31T10:24:25Z</time><name>PT974</name></trkpt>
<trkpt lat="53.191882" lon="-1.704894"><ele>160</ele><time>2020-01-31T10:24:27Z</time><name>PT975</name></trkpt>
<trkpt lat="53.191871" lon="-1.704913"><ele>160</ele><time>2020-01-31T10:24:27Z</time><name>PT976</name></trkpt>
<trkpt lat="53.191862" lon="-1.704933"><ele>159</ele><time>2020-01-31T10:24:29Z</time><name>PT977</name></trkpt>
<trkpt lat="53.191858" lon="-1.704951"><ele>159</ele><time>2020-01-31T10:24:30Z</time><name>PT978</name></trkpt>
<trkpt lat="53.191865" lon="-1.704968"><ele>158</ele><time>2020-01-31T10:24:30Z</time><name>PT979</name></trkpt>
<trkpt lat="53.191870" lon="-1.704986"><ele>158</ele><time>2020-01-31T10:24:32Z</time><name>PT980</name></trkpt>
<trkpt lat="53.191872" lon="-1.705008"><ele>157</ele><time>2020-01-31T10:24:33Z</time><name>PT981</name></trkpt>
<trkpt lat="53.191870" lon="-1.705029"><ele>157</ele><time>2020-01-31T10:24:33Z</time><name>PT982</name></trkpt>
<trkpt lat="53.191869" lon="-1.705051"><ele>157</ele><time>2020-01-31T10:24:35Z</time><name>PT983</name></trkpt>
<trkpt lat="53.191868" lon="-1.705071"><ele>157</ele><time>2020-01-31T10:24:36Z</time><name>PT984</name></trkpt>
<trkpt lat="53.191862" lon="-1.705099"><ele>156</ele><time>2020-01-31T10:24:36Z</time><name>PT985</name></trkpt>
<trkpt lat="53.191851" lon="-1.705136"><ele>156</ele><time>2020-01-31T10:24:37Z</time><name>PT986</name></trkpt>
<trkpt lat="53.191849" lon="-1.705164"><ele>155</ele><time>2020-01-31T10:24:39Z</time><name>PT987</name></trkpt>
<trkpt lat="53.191857" lon="-1.705190"><ele>155</ele><time>2020-01-31T10:24:39Z</time><name>PT988</name></trkpt>
<trkpt lat="53.191853" lon="-1.705215"><ele>155</ele><time>2020-01-31T10:24:40Z</time><name>PT989</name></trkpt>
<trkpt lat="53.191853" lon="-1.705235"><ele>154</ele><time>2020-01-31T10:24:42Z</time><name>PT990</name></trkpt>
<trkpt lat="53.191850" lon="-1.705258"><ele>155</ele><time>2020-01-31T10:24:42Z</time><name>PT991</name></trkpt>
<trkpt lat="53.191857" lon="-1.705283"><ele>155</ele><time>2020-01-31T10:24:43Z</time><name>PT992</name></trkpt>
<trkpt lat="53.191864" lon="-1.705314"><ele>156</ele><time>2020-01-31T10:24:45Z</time><name>PT993</name></trkpt>
<trkpt lat="53.191856" lon="-1.705344"><ele>155</ele><time>2020-01-31T10:24:45Z</time><name>PT994</name></trkpt>
<trkpt lat="53.191859" lon="-1.705372"><ele>158</ele><time>2020-01-31T10:24:46Z</time><name>PT995</name></trkpt>
<trkpt lat="53.191856" lon="-1.705381"><ele>158</ele><time>2020-01-31T10:24:48Z</time><name>PT996</name></trkpt>
<trkpt lat="53.191855" lon="-1.705395"><ele>158</ele><time>2020-01-31T10:24:48Z</time><name>PT997</name></trkpt>
<trkpt lat="53.191855" lon="-1.705415"><ele>158</ele><time>2020-01-31T10:24:49Z</time><name>PT998</name></trkpt>
<trkpt lat="53.191847" lon="-1.705439"><ele>157</ele><time>2020-01-31T10:24:51Z</time><name>PT999</name></trkpt>
<trkpt lat="53.191848" lon="-1.705459"><ele>158</ele><time>2020-01-31T10:24:51Z</time><name>PT1000</name></trkpt>
<trkpt lat="53.191849" lon="-1.705477"><ele>158</ele><time>2020-01-31T10:24:52Z</time><name>PT1001</name></trkpt>
<trkpt lat="53.191849" lon="-1.705503"><ele>159</ele><time>2020-01-31T10:24:54Z</time><name>PT1002</name></trkpt>
<trkpt lat="53.191849" lon="-1.705527"><ele>160</ele><time>2020-01-31T10:24:54Z</time><name>PT1003</name></trkpt>
<trkpt lat="53.191851" lon="-1.705547"><ele>160</ele><time>2020-01-31T10:24:55Z</time><name>PT1004</name></trkpt>
<trkpt lat="53.191848" lon="-1.705574"><ele>161</ele><time>2020-01-31T10:24:57Z</time><name>PT1005</name></trkpt>
<trkpt lat="53.191846" lon="-1.705592"><ele>161</ele><time>2020-01-31T10:24:57Z</time><name>PT1006</name></trkpt>
<trkpt lat="53.191848" lon="-1.705609"><ele>162</ele><time>2020-01-31T10:24:58Z</time><name>PT1007</name></trkpt>
<trkpt lat="53.191832" lon="-1.705641"><ele>160</ele><time>2020-01-31T10:25:00Z</time><name>PT1008</name></trkpt>
<trkpt lat="53.191830" lon="-1.705663"><ele>161</ele><time>2020-01-31T10:25:00Z</time><name>PT1009</name></trkpt>
<trkpt lat="53.191831" lon="-1.705683"><ele>161</ele><time>2020-01-31T10:25:02Z</time><name>PT1010</name></trkpt>
<trkpt lat="53.191825" lon="-1.705710"><ele>161</ele><time>2020-01-31T10:25:03Z</time><name>PT1011</name></trkpt>
<trkpt lat="53.191827" lon="-1.705733"><ele>161</ele><time>2020-01-31T10:25:03Z</time><name>PT1012</name></trkpt>
<trkpt lat="53.191825" lon="-1.705758"><ele>160</ele><time>2020-01-31T10:25:04Z</time><name>PT1013</name></trkpt>
<trkpt lat="53.191826" lon="-1.705778"><ele>159</ele><time>2020-01-31T10:25:06Z</time><name>PT1014</name></trkpt>
<trkpt lat="53.191830" lon="-1.705801"><ele>161</ele><time>2020-01-31T10:25:06Z</time><name>PT1015</name></trkpt>
<trkpt lat="53.191829" lon="-1.705840"><ele>162</ele><time>2020-01-31T10:25:07Z</time><name>PT1016</name></trkpt>
<trkpt lat="53.191831" lon="-1.705859"><ele>163</ele><time>2020-01-31T10:25:09Z</time><name>PT1017</name></trkpt>
<trkpt lat="53.191828" lon="-1.705881"><ele>162</ele><time>2020-01-31T10:25:09Z</time><name>PT1018</name></trkpt>
<trkpt lat="53.191830" lon="-1.705903"><ele>161</ele><time>2020-01-31T10:25:10Z</time><name>PT1019</name></trkpt>
<trkpt lat="53.191831" lon="-1.705923"><ele>160</ele><time>2020-01-31T10:25:12Z</time><name>PT1020</name></trkpt>
<trkpt lat="53.191829" lon="-1.705942"><ele>159</ele><time>2020-01-31T10:25:12Z</time><name>PT1021</name></trkpt>
<trkpt lat="53.191826" lon="-1.705963"><ele>161</ele><time>2020-01-31T10:25:13Z</time><name>PT1022</name></trkpt>
<trkpt lat="53.191824" lon="-1.705981"><ele>161</ele><time>2020-01-31T10:25:15Z</time><name>PT1023</name></trkpt>
<trkpt lat="53.191828" lon="-1.706003"><ele>162</ele><time>2020-01-31T10:25:15Z</time><name>PT1024</name></trkpt>
<trkpt lat="53.191828" lon="-1.706033"><ele>162</ele><time>2020-01-31T10:25:16Z</time><name>PT1025</name></trkpt>
<trkpt lat="53.191830" lon="-1.706059"><ele>161</ele><time>2020-01-31T10:25:18Z</time><name>PT1026</name></trkpt>
<trkpt lat="53.191827" lon="-1.706077"><ele>162</ele><time>2020-01-31T10:25:18Z</time><name>PT1027</name></trkpt>
<trkpt lat="53.191832" lon="-1.706097"><ele>161</ele><time>2020-01-31T10:25:19Z</time><name>PT1028</name></trkpt>
<trkpt lat="53.191837" lon="-1.706114"><ele>161</ele><time>2020-01-31T10:25:21Z</time><name>PT1029</name></trkpt>
<trkpt lat="53.191838" lon="-1.706136"><ele>161</ele><time>2020-01-31T10:25:21Z</time><name>PT1030</name></trkpt>
<trkpt lat="53.191840" lon="-1.706147"><ele>160</ele><time>2020-01-31T10:25:22Z</time><name>PT1031</name></trkpt>
<trkpt lat="53.191838" lon="-1.706165"><ele>159</ele><time>2020-01-31T10:25:24Z</time><name>PT1032</name></trkpt>
<trkpt lat="53.191837" lon="-1.706184"><ele>159</ele><time>2020-01-31T10:25:24Z</time><name>PT1033</name></trkpt>
<trkpt lat="53.191835" lon="-1.706206"><ele>161</ele><time>2020-01-31T10:25:25Z</time><name>PT1034</name></trkpt>
<trkpt lat="53.191833" lon="-1.706228"><ele>160</ele><time>2020-01-31T10:25:27Z</time><name>PT1035</name></trkpt>
<trkpt lat="53.191833" lon="-1.706251"><ele>161</ele><time>2020-01-31T10:25:27Z</time><name>PT1036</name></trkpt>
<trkpt lat="53.191831" lon="-1.706269"><ele>161</ele><time>2020-01-31T10:25:29Z</time><name>PT1037</name></trkpt>
<trkpt lat="53.191832" lon="-1.706285"><ele>161</ele><time>2020-01-31T10:25:30Z</time><name>PT1038</name></trkpt>
<trkpt lat="53.191826" lon="-1.706301"><ele>161</ele><time>2020-01-31T10:25:30Z</time><name>PT1039</name></trkpt>
<trkpt lat="53.191829" lon="-1.706318"><ele>161</ele><time>2020-01-31T10:25:32Z</time><name>PT1040</name></trkpt>
<trkpt lat="53.191832" lon="-1.706337"><ele>160</ele><time>2020-01-31T10:25:33Z</time><name>PT1041</name></trkpt>
<trkpt lat="53.191823" lon="-1.706359"><ele>161</ele><time>2020-01-31T10:25:33Z</time><name>PT1042</name></trkpt>
<trkpt lat="53.191821" lon="-1.706382"><ele>160</ele><time>2020-01-31T10:25:34Z</time><name>PT1043</name></trkpt>
<trkpt lat="53.191817" lon="-1.706402"><ele>160</ele><time>2020-01-31T10:25:36Z</time><name>PT1044</name></trkpt>
<trkpt lat="53.191817" lon="-1.706418"><ele>160</ele><time>2020-01-31T10:25:36Z</time><name>PT1045</name></trkpt>
<trkpt lat="53.191836" lon="-1.706432"><ele>160</ele><time>2020-01-31T10:25:37Z</time><name>PT1046</name></trkpt>
<trkpt lat="53.191842" lon="-1.706460"><ele>159</ele><time>2020-01-31T10:25:39Z</time><name>PT1047</name></trkpt>
<trkpt lat="53.191844" lon="-1.706489"><ele>159</ele><time>2020-01-31T10:25:39Z</time><name>PT1048</name></trkpt>
<trkpt lat="53.191844" lon="-1.706507"><ele>157</ele><time>2020-01-31T10:25:40Z</time><name>PT1049</name></trkpt>
<trkpt lat="53.191841" lon="-1.706524"><ele>156</ele><time>2020-01-31T10:25:42Z</time><name>PT1050</name></trkpt>
<trkpt lat="53.191841" lon="-1.706541"><ele>155</ele><time>2020-01-31T10:25:42Z</time><name>PT1051</name></trkpt>
<trkpt lat="53.191830" lon="-1.706567"><ele>154</ele><time>2020-01-31T10:25:43Z</time><name>PT1052</name></trkpt>
<trkpt lat="53.191839" lon="-1.706583"><ele>155</ele><time>2020-01-31T10:25:45Z</time><name>PT1053</name></trkpt>
<trkpt lat="53.191843" lon="-1.706599"><ele>155</ele><time>2020-01-31T10:25:45Z</time><name>PT1054</name></trkpt>
<trkpt lat="53.191846" lon="-1.706614"><ele>155</ele><time>2020-01-31T10:25:46Z</time><name>PT1055</name></trkpt>
<trkpt lat="53.191846" lon="-1.706626"><ele>154</ele><time>2020-01-31T10:25:48Z</time><name>PT1056</name></trkpt>
<trkpt lat="53.191843" lon="-1.706648"><ele>154</ele><time>2020-01-31T10:25:48Z</time><name>PT1057</name></trkpt>
<trkpt lat="53.191842" lon="-1.706677"><ele>154</ele><time>2020-01-31T10:25:49Z</time><name>PT1058</name></trkpt>
<trkpt lat="53.191841" lon="-1.706697"><ele>154</ele><time>2020-01-31T10:25:51Z</time><name>PT1059</name></trkpt>
<trkpt lat="53.191838" lon="-1.706721"><ele>156</ele><time>2020-01-31T10:25:51Z</time><name>PT1060</name></trkpt>
<trkpt lat="53.191833" lon="-1.706736"><ele>158</ele><time>2020-01-31T10:25:52Z</time><name>PT1061</name></trkpt>
<trkpt lat="53.191828" lon="-1.706756"><ele>158</ele><time>2020-01-31T10:25:54Z</time><name>PT1062</name></trkpt>
<trkpt lat="53.191824" lon="-1.706775"><ele>158</ele><time>2020-01-31T10:25:54Z</time><name>PT1063</name></trkpt>
<trkpt lat="53.191823" lon="-1.706802"><ele>159</ele><time>2020-01-31T10:25:55Z</time><name>PT1064</name></trkpt>
<trkpt lat="53.191820" lon="-1.706816"><ele>159</ele><time>2020-01-31T10:25:57Z</time><name>PT1065</name></trkpt>
<trkpt lat="53.191817" lon="-1.706836"><ele>159</ele><time>2020-01-31T10:25:57Z</time><name>PT1066</name></trkpt>
<trkpt lat="53.191817" lon="-1.706855"><ele>160</ele><time>2020-01-31T10:25:58Z</time><name>PT1067</name></trkpt>
<trkpt lat="53.191814" lon="-1.706871"><ele>160</ele><time>2020-01-31T10:26:00Z</time><name>PT1068</name></trkpt>
<trkpt lat="53.191808" lon="-1.706891"><ele>161</ele><time>2020-01-31T10:26:00Z</time><name>PT1069</name></trkpt>
<trkpt lat="53.191804" lon="-1.706905"><ele>161</ele><time>2020-01-31T10:26:01Z</time><name>PT1070</name></trkpt>
<trkpt lat="53.191800" lon="-1.706918"><ele>162</ele><time>2020-01-31T10:26:03Z</time><name>PT1071</name></trkpt>
<trkpt lat="53.191800" lon="-1.706933"><ele>163</ele><time>2020-01-31T10:26:03Z</time><name>PT1072</name></trkpt>
<trkpt lat="53.191798" lon="-1.706951"><ele>164</ele><time>2020-01-31T10:26:04Z</time><name>PT1073</name></trkpt>
<trkpt lat="53.191795" lon="-1.706969"><ele>165</ele><time>2020-01-31T10:26:06Z</time><name>PT1074</name></trkpt>
<trkpt lat="53.191790" lon="-1.706976"><ele>166</ele><time>2020-01-31T10:26:06Z</time><name>PT1075</name></trkpt>
<trkpt lat="53.191788" lon="-1.706993"><ele>165</ele><time>2020-01-31T10:26:07Z</time><name>PT1076</name></trkpt>
<trkpt lat="53.191789" lon="-1.707017"><ele>165</ele><time>2020-01-31T10:26:09Z</time><name>PT1077</name></trkpt>
<trkpt lat="53.191786" lon="-1.707036"><ele>165</ele><time>2020-01-31T10:26:09Z</time><name>PT1078</name></trkpt>
<trkpt lat="53.191784" lon="-1.707060"><ele>165</ele><time>2020-01-31T10:26:10Z</time><name>PT1079</name></trkpt>
<trkpt lat="53.191786" lon="-1.707089"><ele>166</ele><time>2020-01-31T10:26:12Z</time><name>PT1080</name></trkpt>
<trkpt lat="53.191790" lon="-1.707109"><ele>166</ele><time>2020-01-31T10:26:12Z</time><name>PT1081</name></trkpt>
<trkpt lat="53.191795" lon="-1.707125"><ele>167</ele><time>2020-01-31T10:26:14Z</time><name>PT1082</name></trkpt>
<trkpt lat="53.191786" lon="-1.707150"><ele>168</ele><time>2020-01-31T10:26:15Z</time><name>PT1083</name></trkpt>
<trkpt lat="53.191778" lon="-1.707161"><ele>170</ele><time>2020-01-31T10:26:15Z</time><name>PT1084</name></trkpt>
<trkpt lat="53.191772" lon="-1.707181"><ele>172</ele><time>2020-01-31T10:26:17Z</time><name>PT1085</name></trkpt>
<trkpt lat="53.191767" lon="-1.707211"><ele>171</ele><time>2020-01-31T10:26:18Z</time><name>PT1086</name></trkpt>
<trkpt lat="53.191765" lon="-1.707234"><ele>172</ele><time>2020-01-31T10:26:18Z</time><name>PT1087</name></trkpt>
<trkpt lat="53.191762" lon="-1.707252"><ele>173</ele><time>2020-01-31T10:26:20Z</time><name>PT1088</name></trkpt>
<trkpt lat="53.191762" lon="-1.707268"><ele>174</ele><time>2020-01-31T10:26:21Z</time><name>PT1089</name></trkpt>
<trkpt lat="53.191763" lon="-1.707290"><ele>175</ele><time>2020-01-31T10:26:21Z</time><name>PT1090</name></trkpt>
<trkpt lat="53.191755" lon="-1.707312"><ele>176</ele><time>2020-01-31T10:26:22Z</time><name>PT1091</name></trkpt>
<trkpt lat="53.191753" lon="-1.707332"><ele>176</ele><time>2020-01-31T10:26:24Z</time><name>PT1092</name></trkpt>
<trkpt lat="53.191746" lon="-1.707356"><ele>176</ele><time>2020-01-31T10:26:24Z</time><name>PT1093</name></trkpt>
<trkpt lat="53.191747" lon="-1.707375"><ele>176</ele><time>2020-01-31T10:26:25Z</time><name>PT1094</name></trkpt>
<trkpt lat="53.191747" lon="-1.707398"><ele>177</ele><time>2020-01-31T10:26:27Z</time><name>PT1095</name></trkpt>
<trkpt lat="53.191741" lon="-1.707423"><ele>177</ele><time>2020-01-31T10:26:27Z</time><name>PT1096</name></trkpt>
<trkpt lat="53.191736" lon="-1.707445"><ele>177</ele><time>2020-01-31T10:26:29Z</time><name>PT1097</name></trkpt>
<trkpt lat="53.191739" lon="-1.707468"><ele>178</ele><time>2020-01-31T10:26:30Z</time><name>PT1098</name></trkpt>
<trkpt lat="53.191738" lon="-1.707486"><ele>178</ele><time>2020-01-31T10:26:30Z</time><name>PT1099</name></trkpt>
<trkpt lat="53.191732" lon="-1.707507"><ele>178</ele><time>2020-01-31T10:26:31Z</time><name>PT1100</name></trkpt>
<trkpt lat="53.191719" lon="-1.707527"><ele>178</ele><time>2020-01-31T10:26:33Z</time><name>PT1101</name></trkpt>
<trkpt lat="53.191718" lon="-1.707546"><ele>177</ele><time>2020-01-31T10:26:33Z</time><name>PT1102</name></trkpt>
<trkpt lat="53.191708" lon="-1.707573"><ele>177</ele><time>2020-01-31T10:26:34Z</time><name>PT1103</name></trkpt>
<trkpt lat="53.191704" lon="-1.707596"><ele>176</ele><time>2020-01-31T10:26:36Z</time><name>PT1104</name></trkpt>
<trkpt lat="53.191702" lon="-1.707616"><ele>176</ele><time>2020-01-31T10:26:36Z</time><name>PT1105</name></trkpt>
<trkpt lat="53.191700" lon="-1.707640"><ele>176</ele><time>2020-01-31T10:26:37Z</time><name>PT1106</name></trkpt>
<trkpt lat="53.191698" lon="-1.707663"><ele>176</ele><time>2020-01-31T10:26:39Z</time><name>PT1107</name></trkpt>
<trkpt lat="53.191702" lon="-1.707692"><ele>177</ele><time>2020-01-31T10:26:39Z</time><name>PT1108</name></trkpt>
<trkpt lat="53.191699" lon="-1.707712"><ele>177</ele><time>2020-01-31T10:26:40Z</time><name>PT1109</name></trkpt>
<trkpt lat="53.191714" lon="-1.707745"><ele>179</ele><time>2020-01-31T10:26:42Z</time><name>PT1110</name></trkpt>
<trkpt lat="53.191713" lon="-1.707762"><ele>179</ele><time>2020-01-31T10:26:42Z</time><name>PT1111</name></trkpt>
<trkpt lat="53.191715" lon="-1.707781"><ele>179</ele><time>2020-01-31T10:26:43Z</time><name>PT1112</name></trkpt>
<trkpt lat="53.191715" lon="-1.707802"><ele>179</ele><time>2020-01-31T10:26:45Z</time><name>PT1113</name></trkpt>
<trkpt lat="53.191707" lon="-1.707828"><ele>179</ele><time>2020-01-31T10:26:45Z</time><name>PT1114</name></trkpt>
<trkpt lat="53.191704" lon="-1.707846"><ele>180</ele><time>2020-01-31T10:26:46Z</time><name>PT1115</name></trkpt>
<trkpt lat="53.191702" lon="-1.707857"><ele>180</ele><time>2020-01-31T10:26:48Z</time><name>PT1116</name></trkpt>
<trkpt lat="53.191705" lon="-1.707872"><ele>178</ele><time>2020-01-31T10:26:48Z</time><name>PT1117</name></trkpt>
<trkpt lat="53.191704" lon="-1.707894"><ele>177</ele><time>2020-01-31T10:26:49Z</time><name>PT1118</name></trkpt>
<trkpt lat="53.191708" lon="-1.707915"><ele>176</ele><time>2020-01-31T10:26:51Z</time><name>PT1119</name></trkpt>
<trkpt lat="53.191701" lon="-1.707940"><ele>175</ele><time>2020-01-31T10:26:51Z</time><name>PT1120</name></trkpt>
<trkpt lat="53.191703" lon="-1.707976"><ele>173</ele><time>2020-01-31T10:26:53Z</time><name>PT1121</name></trkpt>
<trkpt lat="53.191702" lon="-1.707999"><ele>173</ele><time>2020-01-31T10:26:54Z</time><name>PT1122</name></trkpt>
<trkpt lat="53.191697" lon="-1.708020"><ele>173</ele><time>2020-01-31T10:26:54Z</time><name>PT1123</name></trkpt>
<trkpt lat="53.191696" lon="-1.708037"><ele>172</ele><time>2020-01-31T10:26:56Z</time><name>PT1124</name></trkpt>
<trkpt lat="53.191698" lon="-1.708058"><ele>171</ele><time>2020-01-31T10:26:57Z</time><name>PT1125</name></trkpt>
<trkpt lat="53.191696" lon="-1.708086"><ele>170</ele><time>2020-01-31T10:26:57Z</time><name>PT1126</name></trkpt>
<trkpt lat="53.191694" lon="-1.708113"><ele>170</ele><time>2020-01-31T10:26:59Z</time><name>PT1127</name></trkpt>
<trkpt lat="53.191694" lon="-1.708128"><ele>171</ele><time>2020-01-31T10:27:00Z</time><name>PT1128</name></trkpt>
<trkpt lat="53.191691" lon="-1.708141"><ele>170</ele><time>2020-01-31T10:27:00Z</time><name>PT1129</name></trkpt>
<trkpt lat="53.191687" lon="-1.708159"><ele>170</ele><time>2020-01-31T10:27:01Z</time><name>PT1130</name></trkpt>
<trkpt lat="53.191688" lon="-1.708181"><ele>169</ele><time>2020-01-31T10:27:03Z</time><name>PT1131</name></trkpt>
<trkpt lat="53.191691" lon="-1.708194"><ele>168</ele><time>2020-01-31T10:27:03Z</time><name>PT1132</name></trkpt>
<trkpt lat="53.191690" lon="-1.708212"><ele>168</ele><time>2020-01-31T10:27:05Z</time><name>PT1133</name></trkpt>
<trkpt lat="53.191677" lon="-1.708235"><ele>169</ele><time>2020-01-31T10:27:06Z</time><name>PT1134</name></trkpt>
<trkpt lat="53.191675" lon="-1.708254"><ele>169</ele><time>2020-01-31T10:27:06Z</time><name>PT1135</name></trkpt>
<trkpt lat="53.191676" lon="-1.708269"><ele>168</ele><time>2020-01-31T10:27:07Z</time><name>PT1136</name></trkpt>
<trkpt lat="53.191676" lon="-1.708284"><ele>167</ele><time>2020-01-31T10:27:09Z</time><name>PT1137</name></trkpt>
<trkpt lat="53.191676" lon="-1.708298"><ele>166</ele><time>2020-01-31T10:27:09Z</time><name>PT1138</name></trkpt>
<trkpt lat="53.191670" lon="-1.708325"><ele>166</ele><time>2020-01-31T10:27:10Z</time><name>PT1139</name></trkpt>
<trkpt lat="53.191667" lon="-1.708348"><ele>167</ele><time>2020-01-31T10:27:12Z</time><name>PT1140</name></trkpt>
<trkpt lat="53.191668" lon="-1.708364"><ele>168</ele><time>2020-01-31T10:27:12Z</time><name>PT1141</name></trkpt>
<trkpt lat="53.191663" lon="-1.708383"><ele>166</ele><time>2020-01-31T10:27:13Z</time><name>PT1142</name></trkpt>
<trkpt lat="53.191670" lon="-1.708402"><ele>166</ele><time>2020-01-31T10:27:15Z</time><name>PT1143</name></trkpt>
<trkpt lat="53.191680" lon="-1.708415"><ele>165</ele><time>2020-01-31T10:27:15Z</time><name>PT1144</name></trkpt>
<trkpt lat="53.191676" lon="-1.708427"><ele>165</ele><time>2020-01-31T10:27:16Z</time><name>PT1145</name></trkpt>
<trkpt lat="53.191662" lon="-1.708444"><ele>163</ele><time>2020-01-31T10:27:18Z</time><name>PT1146</name></trkpt>
<trkpt lat="53.191656" lon="-1.708462"><ele>164</ele><time>2020-01-31T10:27:18Z</time><name>PT1147</name></trkpt>
<trkpt lat="53.191653" lon="-1.708475"><ele>164</ele><time>2020-01-31T10:27:20Z</time><name>PT1148</name></trkpt>
<trkpt lat="53.191653" lon="-1.708481"><ele>163</ele><time>2020-01-31T10:27:21Z</time><name>PT1149</name></trkpt>
<trkpt lat="53.191646" lon="-1.708504"><ele>163</ele><time>2020-01-31T10:27:21Z</time><name>PT1150</name></trkpt>
<trkpt lat="53.191641" lon="-1.708526"><ele>163</ele><time>2020-01-31T10:27:22Z</time><name>PT1151</name></trkpt>
<trkpt lat="53.191639" lon="-1.708546"><ele>162</ele><time>2020-01-31T10:27:24Z</time><name>PT1152</name></trkpt>
<trkpt lat="53.191635" lon="-1.708565"><ele>160</ele><time>2020-01-31T10:27:24Z</time><name>PT1153</name></trkpt>
<trkpt lat="53.191639" lon="-1.708580"><ele>161</ele><time>2020-01-31T10:27:26Z</time><name>PT1154</name></trkpt>
<trkpt lat="53.191644" lon="-1.708601"><ele>161</ele><time>2020-01-31T10:27:27Z</time><name>PT1155</name></trkpt>
<trkpt lat="53.191645" lon="-1.708624"><ele>160</ele><time>2020-01-31T10:27:27Z</time><name>PT1156</name></trkpt>
<trkpt lat="53.191641" lon="-1.708644"><ele>159</ele><time>2020-01-31T10:27:28Z</time><name>PT1157</name></trkpt>
<trkpt lat="53.191633" lon="-1.708669"><ele>158</ele><time>2020-01-31T10:27:30Z</time><name>PT1158</name></trkpt>
<trkpt lat="53.191627" lon="-1.708687"><ele>156</ele><time>2020-01-31T10:27:30Z</time><name>PT1159</name></trkpt>
<trkpt lat="53.191624" lon="-1.708704"><ele>157</ele><time>2020-01-31T10:27:31Z</time><name>PT1160</name></trkpt>
<trkpt lat="53.191617" lon="-1.708727"><ele>158</ele><time>2020-01-31T10:27:33Z</time><name>PT1161</name></trkpt>
<trkpt lat="53.191615" lon="-1.708758"><ele>159</ele><time>2020-01-31T10:27:33Z</time><name>PT1162</name></trkpt>
<trkpt lat="53.191611" lon="-1.708780"><ele>159</ele><time>2020-01-31T10:27:34Z</time><name>PT1163</name></trkpt>
<trkpt lat="53.191609" lon="-1.708822"><ele>161</ele><time>2020-01-31T10:27:36Z</time><name>PT1164</name></trkpt>
<trkpt lat="53.191609" lon="-1.708854"><ele>162</ele><time>2020-01-31T10:27:36Z</time><name>PT1165</name></trkpt>
<trkpt lat="53.191609" lon="-1.708883"><ele>160</ele><time>2020-01-31T10:27:37Z</time><name>PT1166</name></trkpt>
<trkpt lat="53.191600" lon="-1.708913"><ele>160</ele><time>2020-01-31T10:27:39Z</time><name>PT1167</name></trkpt>
<trkpt lat="53.191595" lon="-1.708940"><ele>159</ele><time>2020-01-31T10:27:39Z</time><name>PT1168</name></trkpt>
<trkpt lat="53.191599" lon="-1.708962"><ele>159</ele><time>2020-01-31T10:27:40Z</time><name>PT1169</name></trkpt>
<trkpt lat="53.191600" lon="-1.708979"><ele>159</ele><time>2020-01-31T10:27:42Z</time><name>PT1170</name></trkpt>
<trkpt lat="53.191595" lon="-1.709007"><ele>160</ele><time>2020-01-31T10:27:42Z</time><name>PT1171</name></trkpt>
<trkpt lat="53.191594" lon="-1.709030"><ele>159</ele><time>2020-01-31T10:27:43Z</time><name>PT1172</name></trkpt>
<trkpt lat="53.191595" lon="-1.709048"><ele>159</ele><time>2020-01-31T10:27:45Z</time><name>PT1173</name></trkpt>
<trkpt lat="53.191592" lon="-1.709075"><ele>158</ele><time>2020-01-31T10:27:45Z</time><name>PT1174</name></trkpt>
<trkpt lat="53.191587" lon="-1.709100"><ele>160</ele><time>2020-01-31T10:27:46Z</time><name>PT1175</name></trkpt>
<trkpt lat="53.191588" lon="-1.709120"><ele>160</ele><time>2020-01-31T10:27:48Z</time><name>PT1176</name></trkpt>
<trkpt lat="53.191588" lon="-1.709137"><ele>161</ele><time>2020-01-31T10:27:48Z</time><name>PT1177</name></trkpt>
<trkpt lat="53.191586" lon="-1.709148"><ele>163</ele><time>2020-01-31T10:27:49Z</time><name>PT1178</name></trkpt>
<trkpt lat="53.191581" lon="-1.709157"><ele>163</ele><time>2020-01-31T10:27:51Z</time><name>PT1179</name></trkpt>
<trkpt lat="53.191576" lon="-1.709163"><ele>164</ele><time>2020-01-31T10:27:51Z</time><name>PT1180</name></trkpt>
<trkpt lat="53.191571" lon="-1.709178"><ele>163</ele><time>2020-01-31T10:27:52Z</time><name>PT1181</name></trkpt>
<trkpt lat="53.191572" lon="-1.709196"><ele>164</ele><time>2020-01-31T10:27:54Z</time><name>PT1182</name></trkpt>
<trkpt lat="53.191554" lon="-1.709223"><ele>165</ele><time>2020-01-31T10:27:54Z</time><name>PT1183</name></trkpt>
<trkpt lat="53.191532" lon="-1.709272"><ele>169</ele><time>2020-01-31T10:27:55Z</time><name>PT1184</name></trkpt>
<trkpt lat="53.191520" lon="-1.709287"><ele>171</ele><time>2020-01-31T10:27:57Z</time><name>PT1185</name></trkpt>
<trkpt lat="53.191521" lon="-1.709306"><ele>171</ele><time>2020-01-31T10:27:57Z</time><name>PT1186</name></trkpt>
<trkpt lat="53.191514" lon="-1.709328"><ele>170</ele><time>2020-01-31T10:27:58Z</time><name>PT1187</name></trkpt>
<trkpt lat="53.191503" lon="-1.709339"><ele>170</ele><time>2020-01-31T10:28:00Z</time><name>PT1188</name></trkpt>
<trkpt lat="53.191489" lon="-1.709347"><ele>170</ele><time>2020-01-31T10:28:00Z</time><name>PT1189</name></trkpt>
<trkpt lat="53.191479" lon="-1.709361"><ele>170</ele><time>2020-01-31T10:28:01Z</time><name>PT1190</name></trkpt>
<trkpt lat="53.191470" lon="-1.709381"><ele>170</ele><time>2020-01-31T10:28:03Z</time><name>PT1191</name></trkpt>
<trkpt lat="53.191465" lon="-1.709390"><ele>169</ele><time>2020-01-31T10:28:03Z</time><name>PT1192</name></trkpt>
<trkpt lat="53.191462" lon="-1.709407"><ele>170</ele><time>2020-01-31T10:28:04Z</time><name>PT1193</name></trkpt>
<trkpt lat="53.191452" lon="-1.709419"><ele>170</ele><time>2020-01-31T10:28:06Z</time><name>PT1194</name></trkpt>
<trkpt lat="53.191444" lon="-1.709434"><ele>170</ele><time>2020-01-31T10:28:06Z</time><name>PT1195</name></trkpt>
<trkpt lat="53.191431" lon="-1.709455"><ele>170</ele><time>2020-01-31T10:28:07Z</time><name>PT1196</name></trkpt>
<trkpt lat="53.191423" lon="-1.709479"><ele>170</ele><time>2020-01-31T10:28:09Z</time><name>PT1197</name></trkpt>
<trkpt lat="53.191416" lon="-1.709495"><ele>171</ele><time>2020-01-31T10:28:09Z</time><name>PT1198</name></trkpt>
<trkpt lat="53.191409" lon="-1.709509"><ele>170</ele><time>2020-01-31T10:28:10Z</time><name>PT1199</name></trkpt>
<trkpt lat="53.191400" lon="-1.709522"><ele>171</ele><time>2020-01-31T10:28:12Z</time><name>PT1200</name></trkpt>
<trkpt lat="53.191394" lon="-1.709548"><ele>171</ele><time>2020-01-31T10:28:12Z</time><name>PT1201</name></trkpt>
<trkpt lat="53.191385" lon="-1.709567"><ele>171</ele><time>2020-01-31T10:28:13Z</time><name>PT1202</name></trkpt>
<trkpt lat="53.191378" lon="-1.709590"><ele>171</ele><time>2020-01-31T10:28:15Z</time><name>PT1203</name></trkpt>
<trkpt lat="53.191362" lon="-1.709588"><ele>171</ele><time>2020-01-31T10:28:15Z</time><name>PT1204</name></trkpt>
<trkpt lat="53.191352" lon="-1.709607"><ele>171</ele><time>2020-01-31T10:28:16Z</time><name>PT1205</name></trkpt>
<trkpt lat="53.191345" lon="-1.709628"><ele>170</ele><time>2020-01-31T10:28:18Z</time><name>PT1206</name></trkpt>
<trkpt lat="53.191333" lon="-1.709642"><ele>172</ele><time>2020-01-31T10:28:18Z</time><name>PT1207</name></trkpt>
<trkpt lat="53.191329" lon="-1.709661"><ele>172</ele><time>2020-01-31T10:28:20Z</time><name>PT1208</name></trkpt>
<trkpt lat="53.191327" lon="-1.709676"><ele>172</ele><time>2020-01-31T10:28:21Z</time><name>PT1209</name></trkpt>
<trkpt lat="53.191318" lon="-1.709689"><ele>171</ele><time>2020-01-31T10:28:21Z</time><name>PT1210</name></trkpt>
<trkpt lat="53.191316" lon="-1.709695"><ele>170</ele><time>2020-01-31T10:28:23Z</time><name>PT1211</name></trkpt>
<trkpt lat="53.191308" lon="-1.709718"><ele>170</ele><time>2020-01-31T10:28:24Z</time><name>PT1212</name></trkpt>
<trkpt lat="53.191299" lon="-1.709739"><ele>171</ele><time>2020-01-31T10:28:24Z</time><name>PT1213</name></trkpt>
<trkpt lat="53.191289" lon="-1.709752"><ele>171</ele><time>2020-01-31T10:28:25Z</time><name>PT1214</name></trkpt>
<trkpt lat="53.191278" lon="-1.709763"><ele>172</ele><time>2020-01-31T10:28:27Z</time><name>PT1215</name></trkpt>
<trkpt lat="53.191265" lon="-1.709779"><ele>172</ele><time>2020-01-31T10:28:27Z</time><name>PT1216</name></trkpt>
<trkpt lat="53.191255" lon="-1.709792"><ele>173</ele><time>2020-01-31T10:28:28Z</time><name>PT1217</name></trkpt>
<trkpt lat="53.191244" lon="-1.709804"><ele>173</ele><time>2020-01-31T10:28:30Z</time><name>PT1218</name></trkpt>
<trkpt lat="53.191234" lon="-1.709822"><ele>172</ele><time>2020-01-31T10:28:30Z</time><name>PT1219</name></trkpt>
<trkpt lat="53.191224" lon="-1.709830"><ele>171</ele><time>2020-01-31T10:28:31Z</time><name>PT1220</name></trkpt>
<trkpt lat="53.191215" lon="-1.709835"><ele>172</ele><time>2020-01-31T10:28:33Z</time><name>PT1221</name></trkpt>
<trkpt lat="53.191201" lon="-1.709847"><ele>172</ele><time>2020-01-31T10:28:33Z</time><name>PT1222</name></trkpt>
<trkpt lat="53.191188" lon="-1.709864"><ele>171</ele><time>2020-01-31T10:28:34Z</time><name>PT1223</name></trkpt>
<trkpt lat="53.191178" lon="-1.709874"><ele>171</ele><time>2020-01-31T10:28:36Z</time><name>PT1224</name></trkpt>
<trkpt lat="53.191167" lon="-1.709874"><ele>171</ele><time>2020-01-31T10:28:37Z</time><name>PT1225</name></trkpt>
<trkpt lat="53.191155" lon="-1.709885"><ele>172</ele><time>2020-01-31T10:28:37Z</time><name>PT1226</name></trkpt>
<trkpt lat="53.191145" lon="-1.709888"><ele>172</ele><time>2020-01-31T10:28:39Z</time><name>PT1227</name></trkpt>
<trkpt lat="53.191136" lon="-1.709894"><ele>171</ele><time>2020-01-31T10:28:39Z</time><name>PT1228</name></trkpt>
<trkpt lat="53.191123" lon="-1.709902"><ele>171</ele><time>2020-01-31T10:28:40Z</time><name>PT1229</name></trkpt>
<trkpt lat="53.191102" lon="-1.709904"><ele>172</ele><time>2020-01-31T10:28:42Z</time><name>PT1230</name></trkpt>
<trkpt lat="53.191092" lon="-1.709911"><ele>171</ele><time>2020-01-31T10:28:42Z</time><name>PT1231</name></trkpt>
<trkpt lat="53.191085" lon="-1.709910"><ele>171</ele><time>2020-01-31T10:28:43Z</time><name>PT1232</name></trkpt>
<trkpt lat="53.191078" lon="-1.709915"><ele>171</ele><time>2020-01-31T10:28:45Z</time><name>PT1233</name></trkpt>
<trkpt lat="53.191068" lon="-1.709925"><ele>170</ele><time>2020-01-31T10:28:45Z</time><name>PT1234</name></trkpt>
<trkpt lat="53.191057" lon="-1.709932"><ele>171</ele><time>2020-01-31T10:28:46Z</time><name>PT1235</name></trkpt>
<trkpt lat="53.191047" lon="-1.709940"><ele>169</ele><time>2020-01-31T10:28:48Z</time><name>PT1236</name></trkpt>
<trkpt lat="53.191041" lon="-1.709945"><ele>169</ele><time>2020-01-31T10:28:48Z</time><name>PT1237</name></trkpt>
<trkpt lat="53.191026" lon="-1.709953"><ele>167</ele><time>2020-01-31T10:28:49Z</time><name>PT1238</name></trkpt>
<trkpt lat="53.191017" lon="-1.709970"><ele>165</ele><time>2020-01-31T10:28:51Z</time><name>PT1239</name></trkpt>
<trkpt lat="53.191008" lon="-1.709983"><ele>165</ele><time>2020-01-31T10:28:51Z</time><name>PT1240</name></trkpt>
<trkpt lat="53.190997" lon="-1.709992"><ele>165</ele><time>2020-01-31T10:28:52Z</time><name>PT1241</name></trkpt>
<trkpt lat="53.190979" lon="-1.710016"><ele>164</ele><time>2020-01-31T10:28:54Z</time><name>PT1242</name></trkpt>
<trkpt lat="53.190969" lon="-1.710026"><ele>166</ele><time>2020-01-31T10:28:54Z</time><name>PT1243</name></trkpt>
<trkpt lat="53.190959" lon="-1.710039"><ele>165</ele><time>2020-01-31T10:28:55Z</time><name>PT1244</name></trkpt>
<trkpt lat="53.190953" lon="-1.710051"><ele>164</ele><time>2020-01-31T10:28:57Z</time><name>PT1245</name></trkpt>
<trkpt lat="53.190945" lon="-1.710062"><ele>164</ele><time>2020-01-31T10:28:57Z</time><name>PT1246</name></trkpt>
<trkpt lat="53.190936" lon="-1.710074"><ele>164</ele><time>2020-01-31T10:28:58Z</time><name>PT1247</name></trkpt>
<trkpt lat="53.190923" lon="-1.710085"><ele>164</ele><time>2020-01-31T10:29:00Z</time><name>PT1248</name></trkpt>
<trkpt lat="53.190912" lon="-1.710092"><ele>165</ele><time>2020-01-31T10:29:00Z</time><name>PT1249</name></trkpt>
<trkpt lat="53.190903" lon="-1.710099"><ele>166</ele><time>2020-01-31T10:29:01Z</time><name>PT1250</name></trkpt>
<trkpt lat="53.190892" lon="-1.710111"><ele>165</ele><time>2020-01-31T10:29:03Z</time><name>PT1251</name></trkpt>
<trkpt lat="53.190881" lon="-1.710118"><ele>166</ele><time>2020-01-31T10:29:03Z</time><name>PT1252</name></trkpt>
<trkpt lat="53.190873" lon="-1.710126"><ele>166</ele><time>2020-01-31T10:29:04Z</time><name>PT1253</name></trkpt>
<trkpt lat="53.190863" lon="-1.710141"><ele>167</ele><time>2020-01-31T10:29:06Z</time><name>PT1254</name></trkpt>
<trkpt lat="53.190853" lon="-1.710143"><ele>168</ele><time>2020-01-31T10:29:06Z</time><name>PT1255</name></trkpt>
<trkpt lat="53.190838" lon="-1.710151"><ele>167</ele><time>2020-01-31T10:29:07Z</time><name>PT1256</name></trkpt>
<trkpt lat="53.190826" lon="-1.710156"><ele>167</ele><time>2020-01-31T10:29:09Z</time><name>PT1257</name></trkpt>
<trkpt lat="53.190817" lon="-1.710160"><ele>168</ele><time>2020-01-31T10:29:09Z</time><name>PT1258</name></trkpt>
<trkpt lat="53.190807" lon="-1.710161"><ele>168</ele><time>2020-01-31T10:29:11Z</time><name>PT1259</name></trkpt>
<trkpt lat="53.190801" lon="-1.710166"><ele>169</ele><time>2020-01-31T10:29:12Z</time><name>PT1260</name></trkpt>
<trkpt lat="53.190799" lon="-1.710167"><ele>170</ele><time>2020-01-31T10:29:12Z</time><name>PT1261</name></trkpt>
<trkpt lat="53.190798" lon="-1.710174"><ele>170</ele><time>2020-01-31T10:29:14Z</time><name>PT1262</name></trkpt>
<trkpt lat="53.190796" lon="-1.710173"><ele>171</ele><time>2020-01-31T10:29:15Z</time><name>PT1263</name></trkpt>
<trkpt lat="53.190794" lon="-1.710178"><ele>171</ele><time>2020-01-31T10:29:15Z</time><name>PT1264</name></trkpt>
<trkpt lat="53.190788" lon="-1.710183"><ele>171</ele><time>2020-01-31T10:29:17Z</time><name>PT1265</name></trkpt>
<trkpt lat="53.190784" lon="-1.710185"><ele>172</ele><time>2020-01-31T10:29:18Z</time><name>PT1266</name></trkpt>
<trkpt lat="53.190778" lon="-1.710184"><ele>173</ele><time>2020-01-31T10:29:18Z</time><name>PT1267</name></trkpt>
<trkpt lat="53.190774" lon="-1.710192"><ele>173</ele><time>2020-01-31T10:29:19Z</time><name>PT1268</name></trkpt>
<trkpt lat="53.190773" lon="-1.710196"><ele>174</ele><time>2020-01-31T10:29:21Z</time><name>PT1269</name></trkpt>
<trkpt lat="53.190770" lon="-1.710200"><ele>174</ele><time>2020-01-31T10:29:21Z</time><name>PT1270</name></trkpt>
<trkpt lat="53.190770" lon="-1.710202"><ele>175</ele><time>2020-01-31T10:29:22Z</time><name>PT1271</name></trkpt>
<trkpt lat="53.190767" lon="-1.710207"><ele>176</ele><time>2020-01-31T10:29:24Z</time><name>PT1272</name></trkpt>
<trkpt lat="53.190766" lon="-1.710216"><ele>176</ele><time>2020-01-31T10:29:24Z</time><name>PT1273</name></trkpt>
<trkpt lat="53.190762" lon="-1.710218"><ele>177</ele><time>2020-01-31T10:29:26Z</time><name>PT1274</name></trkpt>
<trkpt lat="53.190760" lon="-1.710220"><ele>177</ele><time>2020-01-31T10:29:27Z</time><name>PT1275</name></trkpt>
<trkpt lat="53.190756" lon="-1.710225"><ele>178</ele><time>2020-01-31T10:29:27Z</time><name>PT1276</name></trkpt>
<trkpt lat="53.190756" lon="-1.710225"><ele>179</ele><time>2020-01-31T10:29:29Z</time><name>PT1277</name></trkpt>
<trkpt lat="53.190757" lon="-1.710237"><ele>178</ele><time>2020-01-31T10:29:30Z</time><name>PT1278</name></trkpt>
<trkpt lat="53.190759" lon="-1.710250"><ele>178</ele><time>2020-01-31T10:29:30Z</time><name>PT1279</name></trkpt>
<trkpt lat="53.190762" lon="-1.710261"><ele>179</ele><time>2020-01-31T10:29:31Z</time><name>PT1280</name></trkpt>
<trkpt lat="53.190765" lon="-1.710270"><ele>179</ele><time>2020-01-31T10:29:33Z</time><name>PT1281</name></trkpt>
<trkpt lat="53.190771" lon="-1.710277"><ele>180</ele><time>2020-01-31T10:29:33Z</time><name>PT1282</name></trkpt>
<trkpt lat="53.190776" lon="-1.710289"><ele>180</ele><time>2020-01-31T10:29:34Z</time><name>PT1283</name></trkpt>
<trkpt lat="53.190778" lon="-1.710296"><ele>180</ele><time>2020-01-31T10:29:36Z</time><name>PT1284</name></trkpt>
<trkpt lat="53.190781" lon="-1.710309"><ele>180</ele><time>2020-01-31T10:29:36Z</time><name>PT1285</name></trkpt>
<trkpt lat="53.190784" lon="-1.710321"><ele>180</ele><time>2020-01-31T10:29:38Z</time><name>PT1286</name></trkpt>
<trkpt lat="53.190786" lon="-1.710337"><ele>180</ele><time>2020-01-31T10:29:39Z</time><name>PT1287</name></trkpt>
<trkpt lat="53.190788" lon="-1.710346"><ele>179</ele><time>2020-01-31T10:29:39Z</time><name>PT1288</name></trkpt>
<trkpt lat="53.190790" lon="-1.710354"><ele>179</ele><time>2020-01-31T10:29:40Z</time><name>PT1289</name></trkpt>
<trkpt lat="53.190792" lon="-1.710355"><ele>180</ele><time>2020-01-31T10:29:42Z</time><name>PT1290</name></trkpt>
<trkpt lat="53.190793" lon="-1.710366"><ele>180</ele><time>2020-01-31T10:29:42Z</time><name>PT1291</name></trkpt>
<trkpt lat="53.190790" lon="-1.710381"><ele>179</ele><time>2020-01-31T10:29:43Z</time><name>PT1292</name></trkpt>
<trkpt lat="53.190787" lon="-1.710391"><ele>179</ele><time>2020-01-31T10:29:45Z</time><name>PT1293</name></trkpt>
<trkpt lat="53.190783" lon="-1.710404"><ele>179</ele><time>2020-01-31T10:29:45Z</time><name>PT1294</name></trkpt>
<trkpt lat="53.190773" lon="-1.710422"><ele>178</ele><time>2020-01-31T10:29:46Z</time><name>PT1295</name></trkpt>
<trkpt lat="53.190767" lon="-1.710437"><ele>177</ele><time>2020-01-31T10:29:48Z</time><name>PT1296</name></trkpt>
<trkpt lat="53.190766" lon="-1.710444"><ele>176</ele><time>2020-01-31T10:29:48Z</time><name>PT1297</name></trkpt>
<trkpt lat="53.190767" lon="-1.710454"><ele>176</ele><time>2020-01-31T10:29:49Z</time><name>PT1298</name></trkpt>
<trkpt lat="53.190776" lon="-1.710461"><ele>175</ele><time>2020-01-31T10:29:51Z</time><name>PT1299</name></trkpt>
<trkpt lat="53.190778" lon="-1.710468"><ele>175</ele><time>2020-01-31T10:29:51Z</time><name>PT1300</name></trkpt>
<trkpt lat="53.190778" lon="-1.710481"><ele>175</ele><time>2020-01-31T10:29:52Z</time><name>PT1301</name></trkpt>
<trkpt lat="53.190773" lon="-1.710497"><ele>175</ele><time>2020-01-31T10:29:54Z</time><name>PT1302</name></trkpt>
<trkpt lat="53.190765" lon="-1.710509"><ele>175</ele><time>2020-01-31T10:29:54Z</time><name>PT1303</name></trkpt>
<trkpt lat="53.190754" lon="-1.710517"><ele>174</ele><time>2020-01-31T10:29:55Z</time><name>PT1304</name></trkpt>
<trkpt lat="53.190741" lon="-1.710530"><ele>174</ele><time>2020-01-31T10:29:57Z</time><name>PT1305</name></trkpt>
<trkpt lat="53.190724" lon="-1.710544"><ele>173</ele><time>2020-01-31T10:29:57Z</time><name>PT1306</name></trkpt>
<trkpt lat="53.190717" lon="-1.710550"><ele>172</ele><time>2020-01-31T10:29:58Z</time><name>PT1307</name></trkpt>
<trkpt lat="53.190708" lon="-1.710555"><ele>171</ele><time>2020-01-31T10:30:00Z</time><name>PT1308</name></trkpt>
<trkpt lat="53.190699" lon="-1.710563"><ele>171</ele><time>2020-01-31T10:30:00Z</time><name>PT1309</name></trkpt>
<trkpt lat="53.190692" lon="-1.710572"><ele>172</ele><time>2020-01-31T10:30:01Z</time><name>PT1310</name></trkpt>
<trkpt lat="53.190681" lon="-1.710574"><ele>172</ele><time>2020-01-31T10:30:03Z</time><name>PT1311</name></trkpt>
<trkpt lat="53.190673" lon="-1.710580"><ele>172</ele><time>2020-01-31T10:30:03Z</time><name>PT1312</name></trkpt>
<trkpt lat="53.190662" lon="-1.710587"><ele>170</ele><time>2020-01-31T10:30:04Z</time><name>PT1313</name></trkpt>
<trkpt lat="53.190650" lon="-1.710585"><ele>170</ele><time>2020-01-31T10:30:06Z</time><name>PT1314</name></trkpt>
<trkpt lat="53.190645" lon="-1.710600"><ele>169</ele><time>2020-01-31T10:30:06Z</time><name>PT1315</name></trkpt>
<trkpt lat="53.190632" lon="-1.710603"><ele>169</ele><time>2020-01-31T10:30:07Z</time><name>PT1316</name></trkpt>
<trkpt lat="53.190618" lon="-1.710598"><ele>168</ele><time>2020-01-31T10:30:09Z</time><name>PT1317</name></trkpt>
<trkpt lat="53.190606" lon="-1.710603"><ele>168</ele><time>2020-01-31T10:30:09Z</time><name>PT1318</name></trkpt>
<trkpt lat="53.190596" lon="-1.710602"><ele>167</ele><time>2020-01-31T10:30:10Z</time><name>PT1319</name></trkpt>
<trkpt lat="53.190592" lon="-1.710620"><ele>166</ele><time>2020-01-31T10:30:12Z</time><name>PT1320</name></trkpt>
<trkpt lat="53.190587" lon="-1.710633"><ele>166</ele><time>2020-01-31T10:30:12Z</time><name>PT1321</name></trkpt>
<trkpt lat="53.190579" lon="-1.710636"><ele>166</ele><time>2020-01-31T10:30:13Z</time><name>PT1322</name></trkpt>
<trkpt lat="53.190577" lon="-1.710644"><ele>165</ele><time>2020-01-31T10:30:15Z</time><name>PT1323</name></trkpt>
<trkpt lat="53.190575" lon="-1.710650"><ele>165</ele><time>2020-01-31T10:30:15Z</time><name>PT1324</name></trkpt>
<trkpt lat="53.190571" lon="-1.710671"><ele>164</ele><time>2020-01-31T10:30:16Z</time><name>PT1325</name></trkpt>
<trkpt lat="53.190567" lon="-1.710682"><ele>165</ele><time>2020-01-31T10:30:18Z</time><name>PT1326</name></trkpt>
<trkpt lat="53.190564" lon="-1.710691"><ele>164</ele><time>2020-01-31T10:30:18Z</time><name>PT1327</name></trkpt>
<trkpt lat="53.190566" lon="-1.710699"><ele>165</ele><time>2020-01-31T10:30:19Z</time><name>PT1328</name></trkpt>
<trkpt lat="53.190563" lon="-1.710713"><ele>165</ele><time>2020-01-31T10:30:21Z</time><name>PT1329</name></trkpt>
<trkpt lat="53.190560" lon="-1.710720"><ele>164</ele><time>2020-01-31T10:30:21Z</time><name>PT1330</name></trkpt>
<trkpt lat="53.190553" lon="-1.710723"><ele>164</ele><time>2020-01-31T10:30:22Z</time><name>PT1331</name></trkpt>
<trkpt lat="53.190549" lon="-1.710734"><ele>164</ele><time>2020-01-31T10:30:24Z</time><name>PT1332</name></trkpt>
<trkpt lat="53.190541" lon="-1.710741"><ele>166</ele><time>2020-01-31T10:30:24Z</time><name>PT1333</name></trkpt>
<trkpt lat="53.190537" lon="-1.710746"><ele>167</ele><time>2020-01-31T10:30:25Z</time><name>PT1334</name></trkpt>
<trkpt lat="53.190531" lon="-1.710755"><ele>168</ele><time>2020-01-31T10:30:27Z</time><name>PT1335</name></trkpt>
<trkpt lat="53.190524" lon="-1.710766"><ele>168</ele><time>2020-01-31T10:30:27Z</time><name>PT1336</name></trkpt>
<trkpt lat="53.190512" lon="-1.710770"><ele>168</ele><time>2020-01-31T10:30:29Z</time><name>PT1337</name></trkpt>
<trkpt lat="53.190502" lon="-1.710769"><ele>169</ele><time>2020-01-31T10:30:30Z</time><name>PT1338</name></trkpt>
<trkpt lat="53.190494" lon="-1.710776"><ele>170</ele><time>2020-01-31T10:30:30Z</time><name>PT1339</name></trkpt>
<trkpt lat="53.190482" lon="-1.710784"><ele>170</ele><time>2020-01-31T10:30:31Z</time><name>PT1340</name></trkpt>
<trkpt lat="53.190471" lon="-1.710781"><ele>171</ele><time>2020-01-31T10:30:33Z</time><name>PT1341</name></trkpt>
<trkpt lat="53.190464" lon="-1.710788"><ele>171</ele><time>2020-01-31T10:30:33Z</time><name>PT1342</name></trkpt>
<trkpt lat="53.190461" lon="-1.710788"><ele>171</ele><time>2020-01-31T10:30:34Z</time><name>PT1343</name></trkpt>
<trkpt lat="53.190455" lon="-1.710788"><ele>171</ele><time>2020-01-31T10:30:36Z</time><name>PT1344</name></trkpt>
<trkpt lat="53.190451" lon="-1.710794"><ele>171</ele><time>2020-01-31T10:30:36Z</time><name>PT1345</name></trkpt>
<trkpt lat="53.190446" lon="-1.710797"><ele>171</ele><time>2020-01-31T10:30:37Z</time><name>PT1346</name></trkpt>
<trkpt lat="53.190431" lon="-1.710795"><ele>171</ele><time>2020-01-31T10:30:39Z</time><name>PT1347</name></trkpt>
<trkpt lat="53.190425" lon="-1.710813"><ele>171</ele><time>2020-01-31T10:30:39Z</time><name>PT1348</name></trkpt>
<trkpt lat="53.190416" lon="-1.710814"><ele>171</ele><time>2020-01-31T10:30:40Z</time><name>PT1349</name></trkpt>
<trkpt lat="53.190408" lon="-1.710818"><ele>171</ele><time>2020-01-31T10:30:42Z</time><name>PT1350</name></trkpt>
<trkpt lat="53.190401" lon="-1.710827"><ele>172</ele><time>2020-01-31T10:30:42Z</time><name>PT1351</name></trkpt>
<trkpt lat="53.190406" lon="-1.710855"><ele>173</ele><time>2020-01-31T10:30:43Z</time><name>PT1352</name></trkpt>
<trkpt lat="53.190396" lon="-1.710853"><ele>174</ele><time>2020-01-31T10:30:45Z</time><name>PT1353</name></trkpt>
<trkpt lat="53.190387" lon="-1.710854"><ele>174</ele><time>2020-01-31T10:30:45Z</time><name>PT1354</name></trkpt>
<trkpt lat="53.190379" lon="-1.710850"><ele>174</ele><time>2020-01-31T10:30:46Z</time><name>PT1355</name></trkpt>
<trkpt lat="53.190369" lon="-1.710845"><ele>175</ele><time>2020-01-31T10:30:48Z</time><name>PT1356</name></trkpt>
<trkpt lat="53.190359" lon="-1.710839"><ele>175</ele><time>2020-01-31T10:30:48Z</time><name>PT1357</name></trkpt>
<trkpt lat="53.190348" lon="-1.710840"><ele>175</ele><time>2020-01-31T10:30:49Z</time><name>PT1358</name></trkpt>
<trkpt lat="53.190340" lon="-1.710843"><ele>175</ele><time>2020-01-31T10:30:51Z</time><name>PT1359</name></trkpt>
<trkpt lat="53.190336" lon="-1.710846"><ele>174</ele><time>2020-01-31T10:30:51Z</time><name>PT1360</name></trkpt>
<trkpt lat="53.190324" lon="-1.710844"><ele>174</ele><time>2020-01-31T10:30:52Z</time><name>PT1361</name></trkpt>
<trkpt lat="53.190317" lon="-1.710837"><ele>174</ele><time>2020-01-31T10:30:54Z</time><name>PT1362</name></trkpt>
<trkpt lat="53.190311" lon="-1.710835"><ele>175</ele><time>2020-01-31T10:30:54Z</time><name>PT1363</name></trkpt>
<trkpt lat="53.190302" lon="-1.710834"><ele>176</ele><time>2020-01-31T10:30:55Z</time><name>PT1364</name></trkpt>
<trkpt lat="53.190301" lon="-1.710832"><ele>177</ele><time>2020-01-31T10:30:57Z</time><name>PT1365</name></trkpt>
<trkpt lat="53.190294" lon="-1.710828"><ele>178</ele><time>2020-01-31T10:30:57Z</time><name>PT1366</name></trkpt>
<trkpt lat="53.190291" lon="-1.710831"><ele>178</ele><time>2020-01-31T10:30:58Z</time><name>PT1367</name></trkpt>
<trkpt lat="53.190281" lon="-1.710831"><ele>177</ele><time>2020-01-31T10:31:00Z</time><name>PT1368</name></trkpt>
<trkpt lat="53.190264" lon="-1.710813"><ele>177</ele><time>2020-01-31T10:31:00Z</time><name>PT1369</name></trkpt>
<trkpt lat="53.190254" lon="-1.710803"><ele>177</ele><time>2020-01-31T10:31:01Z</time><name>PT1370</name></trkpt>
<trkpt lat="53.190246" lon="-1.710805"><ele>177</ele><time>2020-01-31T10:31:03Z</time><name>PT1371</name></trkpt>
<trkpt lat="53.190242" lon="-1.710814"><ele>177</ele><time>2020-01-31T10:31:03Z</time><name>PT1372</name></trkpt>
<trkpt lat="53.190233" lon="-1.710817"><ele>177</ele><time>2020-01-31T10:31:04Z</time><name>PT1373</name></trkpt>
<trkpt lat="53.190230" lon="-1.710829"><ele>178</ele><time>2020-01-31T10:31:06Z</time><name>PT1374</name></trkpt>
<trkpt lat="53.190226" lon="-1.710829"><ele>177</ele><time>2020-01-31T10:31:06Z</time><name>PT1375</name></trkpt>
<trkpt lat="53.190223" lon="-1.710833"><ele>175</ele><time>2020-01-31T10:31:07Z</time><name>PT1376</name></trkpt>
<trkpt lat="53.190215" lon="-1.710823"><ele>176</ele><time>2020-01-31T10:31:09Z</time><name>PT1377</name></trkpt>
<trkpt lat="53.190204" lon="-1.710814"><ele>177</ele><time>2020-01-31T10:31:12Z</time><name>PT1378</name></trkpt>
<trkpt lat="53.190186" lon="-1.710809"><ele>177</ele><time>2020-01-31T10:31:13Z</time><name>PT1379</name></trkpt>
<trkpt lat="53.190183" lon="-1.710803"><ele>176</ele><time>2020-01-31T10:31:15Z</time><name>PT1380</name></trkpt>
<trkpt lat="53.190184" lon="-1.710796"><ele>176</ele><time>2020-01-31T10:31:15Z</time><name>PT1381</name></trkpt>
<trkpt lat="53.190168" lon="-1.710802"><ele>176</ele><time>2020-01-31T10:31:16Z</time><name>PT1382</name></trkpt>
<trkpt lat="53.190154" lon="-1.710816"><ele>175</ele><time>2020-01-31T10:31:18Z</time><name>PT1383</name></trkpt>
<trkpt lat="53.190142" lon="-1.710814"><ele>175</ele><time>2020-01-31T10:31:18Z</time><name>PT1384</name></trkpt>
<trkpt lat="53.190133" lon="-1.710814"><ele>175</ele><time>2020-01-31T10:31:19Z</time><name>PT1385</name></trkpt>
<trkpt lat="53.190119" lon="-1.710819"><ele>175</ele><time>2020-01-31T10:31:21Z</time><name>PT1386</name></trkpt>
<trkpt lat="53.190111" lon="-1.710825"><ele>174</ele><time>2020-01-31T10:31:21Z</time><name>PT1387</name></trkpt>
<trkpt lat="53.190107" lon="-1.710834"><ele>174</ele><time>2020-01-31T10:31:22Z</time><name>PT1388</name></trkpt>
<trkpt lat="53.190104" lon="-1.710842"><ele>175</ele><time>2020-01-31T10:31:24Z</time><name>PT1389</name></trkpt>
<trkpt lat="53.190101" lon="-1.710849"><ele>175</ele><time>2020-01-31T10:31:24Z</time><name>PT1390</name></trkpt>
<trkpt lat="53.190093" lon="-1.710844"><ele>175</ele><time>2020-01-31T10:31:25Z</time><name>PT1391</name></trkpt>
<trkpt lat="53.190089" lon="-1.710845"><ele>174</ele><time>2020-01-31T10:31:27Z</time><name>PT1392</name></trkpt>
<trkpt lat="53.190083" lon="-1.710836"><ele>175</ele><time>2020-01-31T10:31:27Z</time><name>PT1393</name></trkpt>
<trkpt lat="53.190073" lon="-1.710828"><ele>174</ele><time>2020-01-31T10:31:28Z</time><name>PT1394</name></trkpt>
<trkpt lat="53.190070" lon="-1.710843"><ele>173</ele><time>2020-01-31T10:31:30Z</time><name>PT1395</name></trkpt>
<trkpt lat="53.190063" lon="-1.710853"><ele>173</ele><time>2020-01-31T10:31:30Z</time><name>PT1396</name></trkpt>
<trkpt lat="53.190055" lon="-1.710853"><ele>174</ele><time>2020-01-31T10:31:32Z</time><name>PT1397</name></trkpt>
<trkpt lat="53.190049" lon="-1.710863"><ele>173</ele><time>2020-01-31T10:31:33Z</time><name>PT1398</name></trkpt>
<trkpt lat="53.190037" lon="-1.710866"><ele>173</ele><time>2020-01-31T10:31:33Z</time><name>PT1399</name></trkpt>
<trkpt lat="53.190030" lon="-1.710864"><ele>173</ele><time>2020-01-31T10:31:34Z</time><name>PT1400</name></trkpt>
<trkpt lat="53.190023" lon="-1.710872"><ele>173</ele><time>2020-01-31T10:31:36Z</time><name>PT1401</name></trkpt>
<trkpt lat="53.190011" lon="-1.710866"><ele>174</ele><time>2020-01-31T10:31:36Z</time><name>PT1402</name></trkpt>
<trkpt lat="53.190000" lon="-1.710870"><ele>173</ele><time>2020-01-31T10:31:38Z</time><name>PT1403</name></trkpt>
<trkpt lat="53.189994" lon="-1.710882"><ele>172</ele><time>2020-01-31T10:31:39Z</time><name>PT1404</name></trkpt>
<trkpt lat="53.189991" lon="-1.710893"><ele>172</ele><time>2020-01-31T10:31:39Z</time><name>PT1405</name></trkpt>
<trkpt lat="53.189990" lon="-1.710912"><ele>171</ele><time>2020-01-31T10:31:40Z</time><name>PT1406</name></trkpt>
<trkpt lat="53.189990" lon="-1.710927"><ele>169</ele><time>2020-01-31T10:31:42Z</time><name>PT1407</name></trkpt>
<trkpt lat="53.189985" lon="-1.710939"><ele>169</ele><time>2020-01-31T10:31:42Z</time><name>PT1408</name></trkpt>
<trkpt lat="53.189976" lon="-1.710941"><ele>169</ele><time>2020-01-31T10:31:43Z</time><name>PT1409</name></trkpt>
<trkpt lat="53.189964" lon="-1.710931"><ele>169</ele><time>2020-01-31T10:31:45Z</time><name>PT1410</name></trkpt>
<trkpt lat="53.189953" lon="-1.710929"><ele>168</ele><time>2020-01-31T10:31:45Z</time><name>PT1411</name></trkpt>
<trkpt lat="53.189946" lon="-1.710930"><ele>167</ele><time>2020-01-31T10:31:46Z</time><name>PT1412</name></trkpt>
<trkpt lat="53.189938" lon="-1.710924"><ele>167</ele><time>2020-01-31T10:31:48Z</time><name>PT1413</name></trkpt>
<trkpt lat="53.189933" lon="-1.710931"><ele>167</ele><time>2020-01-31T10:31:48Z</time><name>PT1414</name></trkpt>
<trkpt lat="53.189922" lon="-1.710931"><ele>166</ele><time>2020-01-31T10:31:49Z</time><name>PT1415</name></trkpt>
<trkpt lat="53.189908" lon="-1.710930"><ele>166</ele><time>2020-01-31T10:31:51Z</time><name>PT1416</name></trkpt>
<trkpt lat="53.189898" lon="-1.710933"><ele>166</ele><time>2020-01-31T10:31:51Z</time><name>PT1417</name></trkpt>
<trkpt lat="53.189885" lon="-1.710932"><ele>166</ele><time>2020-01-31T10:31:52Z</time><name>PT1418</name></trkpt>
<trkpt lat="53.189879" lon="-1.710939"><ele>165</ele><time>2020-01-31T10:31:54Z</time><name>PT1419</name></trkpt>
<trkpt lat="53.189873" lon="-1.710955"><ele>165</ele><time>2020-01-31T10:31:54Z</time><name>PT1420</name></trkpt>
<trkpt lat="53.189870" lon="-1.710969"><ele>165</ele><time>2020-01-31T10:31:55Z</time><name>PT1421</name></trkpt>
<trkpt lat="53.189864" lon="-1.710977"><ele>166</ele><time>2020-01-31T10:31:57Z</time><name>PT1422</name></trkpt>
<trkpt lat="53.189857" lon="-1.710988"><ele>166</ele><time>2020-01-31T10:31:57Z</time><name>PT1423</name></trkpt>
<trkpt lat="53.189859" lon="-1.711000"><ele>166</ele><time>2020-01-31T10:31:58Z</time><name>PT1424</name></trkpt>
<trkpt lat="53.189858" lon="-1.711014"><ele>166</ele><time>2020-01-31T10:32:00Z</time><name>PT1425</name></trkpt>
<trkpt lat="53.189855" lon="-1.711035"><ele>167</ele><time>2020-01-31T10:32:00Z</time><name>PT1426</name></trkpt>
<trkpt lat="53.189845" lon="-1.711036"><ele>167</ele><time>2020-01-31T10:32:02Z</time><name>PT1427</name></trkpt>
<trkpt lat="53.189834" lon="-1.711034"><ele>168</ele><time>2020-01-31T10:32:03Z</time><name>PT1428</name></trkpt>
<trkpt lat="53.189825" lon="-1.711033"><ele>167</ele><time>2020-01-31T10:32:03Z</time><name>PT1429</name></trkpt>
<trkpt lat="53.189815" lon="-1.711032"><ele>168</ele><time>2020-01-31T10:32:04Z</time><name>PT1430</name></trkpt>
<trkpt lat="53.189804" lon="-1.711033"><ele>169</ele><time>2020-01-31T10:32:06Z</time><name>PT1431</name></trkpt>
<trkpt lat="53.189797" lon="-1.711032"><ele>171</ele><time>2020-01-31T10:32:06Z</time><name>PT1432</name></trkpt>
<trkpt lat="53.189785" lon="-1.711035"><ele>171</ele><time>2020-01-31T10:32:07Z</time><name>PT1433</name></trkpt>
<trkpt lat="53.189771" lon="-1.711031"><ele>171</ele><time>2020-01-31T10:32:09Z</time><name>PT1434</name></trkpt>
<trkpt lat="53.189765" lon="-1.711029"><ele>171</ele><time>2020-01-31T10:32:09Z</time><name>PT1435</name></trkpt>
<trkpt lat="53.189758" lon="-1.711028"><ele>171</ele><time>2020-01-31T10:32:10Z</time><name>PT1436</name></trkpt>
<trkpt lat="53.189757" lon="-1.711038"><ele>171</ele><time>2020-01-31T10:32:12Z</time><name>PT1437</name></trkpt>
<trkpt lat="53.189753" lon="-1.711055"><ele>170</ele><time>2020-01-31T10:32:12Z</time><name>PT1438</name></trkpt>
<trkpt lat="53.189747" lon="-1.711061"><ele>170</ele><time>2020-01-31T10:32:13Z</time><name>PT1439</name></trkpt>
<trkpt lat="53.189738" lon="-1.711061"><ele>170</ele><time>2020-01-31T10:32:15Z</time><name>PT1440</name></trkpt>
<trkpt lat="53.189728" lon="-1.711067"><ele>168</ele><time>2020-01-31T10:32:15Z</time><name>PT1441</name></trkpt>
<trkpt lat="53.189719" lon="-1.711063"><ele>168</ele><time>2020-01-31T10:32:16Z</time><name>PT1442</name></trkpt>
<trkpt lat="53.189713" lon="-1.711066"><ele>168</ele><time>2020-01-31T10:32:18Z</time><name>PT1443</name></trkpt>
<trkpt lat="53.189701" lon="-1.711060"><ele>168</ele><time>2020-01-31T10:32:18Z</time><name>PT1444</name></trkpt>
<trkpt lat="53.189688" lon="-1.711050"><ele>168</ele><time>2020-01-31T10:32:19Z</time><name>PT1445</name></trkpt>
<trkpt lat="53.189684" lon="-1.711068"><ele>169</ele><time>2020-01-31T10:32:21Z</time><name>PT1446</name></trkpt>
<trkpt lat="53.189674" lon="-1.711064"><ele>169</ele><time>2020-01-31T10:32:21Z</time><name>PT1447</name></trkpt>
<trkpt lat="53.189669" lon="-1.711070"><ele>169</ele><time>2020-01-31T10:32:22Z</time><name>PT1448</name></trkpt>
<trkpt lat="53.189651" lon="-1.711057"><ele>170</ele><time>2020-01-31T10:32:24Z</time><name>PT1449</name></trkpt>
<trkpt lat="53.189641" lon="-1.711051"><ele>170</ele><time>2020-01-31T10:32:24Z</time><name>PT1450</name></trkpt>
<trkpt lat="53.189635" lon="-1.711050"><ele>170</ele><time>2020-01-31T10:32:25Z</time><name>PT1451</name></trkpt>
<trkpt lat="53.189628" lon="-1.711049"><ele>171</ele><time>2020-01-31T10:32:27Z</time><name>PT1452</name></trkpt>
<trkpt lat="53.189619" lon="-1.711050"><ele>171</ele><time>2020-01-31T10:32:27Z</time><name>PT1453</name></trkpt>
<trkpt lat="53.189612" lon="-1.711058"><ele>171</ele><time>2020-01-31T10:32:28Z</time><name>PT1454</name></trkpt>
<trkpt lat="53.189603" lon="-1.711059"><ele>171</ele><time>2020-01-31T10:32:30Z</time><name>PT1455</name></trkpt>
<trkpt lat="53.189590" lon="-1.711067"><ele>171</ele><time>2020-01-31T10:32:30Z</time><name>PT1456</name></trkpt>
<trkpt lat="53.189583" lon="-1.711073"><ele>171</ele><time>2020-01-31T10:32:31Z</time><name>PT1457</name></trkpt>
<trkpt lat="53.189573" lon="-1.711071"><ele>171</ele><time>2020-01-31T10:32:33Z</time><name>PT1458</name></trkpt>
<trkpt lat="53.189564" lon="-1.711078"><ele>170</ele><time>2020-01-31T10:32:33Z</time><name>PT1459</name></trkpt>
<trkpt lat="53.189555" lon="-1.711095"><ele>169</ele><time>2020-01-31T10:32:34Z</time><name>PT1460</name></trkpt>
<trkpt lat="53.189548" lon="-1.711115"><ele>169</ele><time>2020-01-31T10:32:36Z</time><name>PT1461</name></trkpt>
<trkpt lat="53.189544" lon="-1.711115"><ele>168</ele><time>2020-01-31T10:32:36Z</time><name>PT1462</name></trkpt>
<trkpt lat="53.189542" lon="-1.711126"><ele>167</ele><time>2020-01-31T10:32:37Z</time><name>PT1463</name></trkpt>
<trkpt lat="53.189541" lon="-1.711136"><ele>168</ele><time>2020-01-31T10:32:39Z</time><name>PT1464</name></trkpt>
<trkpt lat="53.189532" lon="-1.711145"><ele>168</ele><time>2020-01-31T10:32:39Z</time><name>PT1465</name></trkpt>
<trkpt lat="53.189528" lon="-1.711149"><ele>167</ele><time>2020-01-31T10:32:40Z</time><name>PT1466</name></trkpt>
<trkpt lat="53.189521" lon="-1.711150"><ele>167</ele><time>2020-01-31T10:32:42Z</time><name>PT1467</name></trkpt>
<trkpt lat="53.189515" lon="-1.711150"><ele>166</ele><time>2020-01-31T10:32:42Z</time><name>PT1468</name></trkpt>
<trkpt lat="53.189503" lon="-1.711149"><ele>166</ele><time>2020-01-31T10:32:43Z</time><name>PT1469</name></trkpt>
<trkpt lat="53.189494" lon="-1.711152"><ele>165</ele><time>2020-01-31T10:32:45Z</time><name>PT1470</name></trkpt>
<trkpt lat="53.189495" lon="-1.711162"><ele>166</ele><time>2020-01-31T10:32:45Z</time><name>PT1471</name></trkpt>
<trkpt lat="53.189490" lon="-1.711158"><ele>166</ele><time>2020-01-31T10:32:46Z</time><name>PT1472</name></trkpt>
<trkpt lat="53.189480" lon="-1.711144"><ele>166</ele><time>2020-01-31T10:32:48Z</time><name>PT1473</name></trkpt>
<trkpt lat="53.189469" lon="-1.711137"><ele>166</ele><time>2020-01-31T10:32:48Z</time><name>PT1474</name></trkpt>
<trkpt lat="53.189461" lon="-1.711126"><ele>167</ele><time>2020-01-31T10:32:49Z</time><name>PT1475</name></trkpt>
<trkpt lat="53.189447" lon="-1.711111"><ele>168</ele><time>2020-01-31T10:32:51Z</time><name>PT1476</name></trkpt>
<trkpt lat="53.189436" lon="-1.711117"><ele>167</ele><time>2020-01-31T10:32:51Z</time><name>PT1477</name></trkpt>
<trkpt lat="53.189421" lon="-1.711119"><ele>168</ele><time>2020-01-31T10:32:52Z</time><name>PT1478</name></trkpt>
<trkpt lat="53.189403" lon="-1.711116"><ele>170</ele><time>2020-01-31T10:32:54Z</time><name>PT1479</name></trkpt>
<trkpt lat="53.189396" lon="-1.711107"><ele>171</ele><time>2020-01-31T10:32:54Z</time><name>PT1480</name></trkpt>
<trkpt lat="53.189390" lon="-1.711102"><ele>171</ele><time>2020-01-31T10:32:55Z</time><name>PT1481</name></trkpt>
<trkpt lat="53.189388" lon="-1.711098"><ele>172</ele><time>2020-01-31T10:32:57Z</time><name>PT1482</name></trkpt>
<trkpt lat="53.189384" lon="-1.711097"><ele>172</ele><time>2020-01-31T10:32:57Z</time><name>PT1483</name></trkpt>
<trkpt lat="53.189385" lon="-1.711094"><ele>171</ele><time>2020-01-31T10:32:58Z</time><name>PT1484</name></trkpt>
<trkpt lat="53.189385" lon="-1.711094"><ele>171</ele><time>2020-01-31T10:33:00Z</time><name>PT1485</name></trkpt>
<trkpt lat="53.189381" lon="-1.711089"><ele>171</ele><time>2020-01-31T10:33:00Z</time><name>PT1486</name></trkpt>
<trkpt lat="53.189382" lon="-1.711078"><ele>173</ele><time>2020-01-31T10:33:01Z</time><name>PT1487</name></trkpt>
<trkpt lat="53.189388" lon="-1.711077"><ele>173</ele><time>2020-01-31T10:33:03Z</time><name>PT1488</name></trkpt>
<trkpt lat="53.189388" lon="-1.711077"><ele>173</ele><time>2020-01-31T10:33:03Z</time><name>PT1489</name></trkpt>
<trkpt lat="53.189388" lon="-1.711061"><ele>173</ele><time>2020-01-31T10:33:09Z</time><name>PT1490</name></trkpt>
<trkpt lat="53.189389" lon="-1.711045"><ele>173</ele><time>2020-01-31T10:33:09Z</time><name>PT1491</name></trkpt>
<trkpt lat="53.189393" lon="-1.711031"><ele>173</ele><time>2020-01-31T10:33:10Z</time><name>PT1492</name></trkpt>
<trkpt lat="53.189388" lon="-1.711025"><ele>172</ele><time>2020-01-31T10:33:12Z</time><name>PT1493</name></trkpt>
<trkpt lat="53.189396" lon="-1.711016"><ele>173</ele><time>2020-01-31T10:33:12Z</time><name>PT1494</name></trkpt>
<trkpt lat="53.189403" lon="-1.711013"><ele>172</ele><time>2020-01-31T10:33:13Z</time><name>PT1495</name></trkpt>
<trkpt lat="53.189408" lon="-1.711011"><ele>173</ele><time>2020-01-31T10:33:15Z</time><name>PT1496</name></trkpt>
<trkpt lat="53.189413" lon="-1.711010"><ele>173</ele><time>2020-01-31T10:33:15Z</time><name>PT1497</name></trkpt>
<trkpt lat="53.189414" lon="-1.711004"><ele>174</ele><time>2020-01-31T10:33:16Z</time><name>PT1498</name></trkpt>
<trkpt lat="53.189415" lon="-1.710989"><ele>175</ele><time>2020-01-31T10:33:18Z</time><name>PT1499</name></trkpt>
<trkpt lat="53.189413" lon="-1.710980"><ele>175</ele><time>2020-01-31T10:33:19Z</time><name>PT1500</name></trkpt>
<trkpt lat="53.189415" lon="-1.710973"><ele>175</ele><time>2020-01-31T10:33:21Z</time><name>PT1501</name></trkpt>
<trkpt lat="53.189418" lon="-1.710971"><ele>175</ele><time>2020-01-31T10:33:21Z</time><name>PT1502</name></trkpt>
<trkpt lat="53.189411" lon="-1.710980"><ele>175</ele><time>2020-01-31T10:33:22Z</time><name>PT1503</name></trkpt>
<trkpt lat="53.189412" lon="-1.710979"><ele>174</ele><time>2020-01-31T10:33:24Z</time><name>PT1504</name></trkpt>
<trkpt lat="53.189411" lon="-1.710973"><ele>174</ele><time>2020-01-31T10:33:24Z</time><name>PT1505</name></trkpt>
<trkpt lat="53.189417" lon="-1.710970"><ele>174</ele><time>2020-01-31T10:33:25Z</time><name>PT1506</name></trkpt>
<trkpt lat="53.189417" lon="-1.710975"><ele>175</ele><time>2020-01-31T10:33:27Z</time><name>PT1507</name></trkpt>
<trkpt lat="53.189413" lon="-1.710966"><ele>176</ele><time>2020-01-31T10:33:27Z</time><name>PT1508</name></trkpt>
<trkpt lat="53.189409" lon="-1.710954"><ele>176</ele><time>2020-01-31T10:33:28Z</time><name>PT1509</name></trkpt>
<trkpt lat="53.189411" lon="-1.710955"><ele>176</ele><time>2020-01-31T10:33:30Z</time><name>PT1510</name></trkpt>
<trkpt lat="53.189411" lon="-1.710952"><ele>176</ele><time>2020-01-31T10:33:30Z</time><name>PT1511</name></trkpt>
<trkpt lat="53.189413" lon="-1.710952"><ele>176</ele><time>2020-01-31T10:33:31Z</time><name>PT1512</name></trkpt>
<trkpt lat="53.189404" lon="-1.710959"><ele>175</ele><time>2020-01-31T10:33:33Z</time><name>PT1513</name></trkpt>
<trkpt lat="53.189400" lon="-1.710962"><ele>176</ele><time>2020-01-31T10:33:33Z</time><name>PT1514</name></trkpt>
<trkpt lat="53.189392" lon="-1.710962"><ele>176</ele><time>2020-01-31T10:33:34Z</time><name>PT1515</name></trkpt>
<trkpt lat="53.189389" lon="-1.710950"><ele>176</ele><time>2020-01-31T10:33:36Z</time><name>PT1516</name></trkpt>
<trkpt lat="53.189391" lon="-1.710948"><ele>176</ele><time>2020-01-31T10:33:36Z</time><name>PT1517</name></trkpt>
<trkpt lat="53.189396" lon="-1.710941"><ele>177</ele><time>2020-01-31T10:33:38Z</time><name>PT1518</name></trkpt>
<trkpt lat="53.189397" lon="-1.710935"><ele>177</ele><time>2020-01-31T10:33:39Z</time><name>PT1519</name></trkpt>
<trkpt lat="53.189395" lon="-1.710919"><ele>178</ele><time>2020-01-31T10:33:39Z</time><name>PT1520</name></trkpt>
<trkpt lat="53.189388" lon="-1.710905"><ele>177</ele><time>2020-01-31T10:33:40Z</time><name>PT1521</name></trkpt>
<trkpt lat="53.189382" lon="-1.710887"><ele>179</ele><time>2020-01-31T10:33:42Z</time><name>PT1522</name></trkpt>
<trkpt lat="53.189377" lon="-1.710871"><ele>179</ele><time>2020-01-31T10:33:42Z</time><name>PT1523</name></trkpt>
<trkpt lat="53.189373" lon="-1.710853"><ele>178</ele><time>2020-01-31T10:33:43Z</time><name>PT1524</name></trkpt>
<trkpt lat="53.189363" lon="-1.710838"><ele>179</ele><time>2020-01-31T10:33:45Z</time><name>PT1525</name></trkpt>
<trkpt lat="53.189357" lon="-1.710827"><ele>179</ele><time>2020-01-31T10:33:45Z</time><name>PT1526</name></trkpt>
<trkpt lat="53.189354" lon="-1.710816"><ele>179</ele><time>2020-01-31T10:33:46Z</time><name>PT1527</name></trkpt>
<trkpt lat="53.189360" lon="-1.710808"><ele>178</ele><time>2020-01-31T10:33:48Z</time><name>PT1528</name></trkpt>
<trkpt lat="53.189362" lon="-1.710785"><ele>178</ele><time>2020-01-31T10:33:48Z</time><name>PT1529</name></trkpt>
<trkpt lat="53.189360" lon="-1.710760"><ele>178</ele><time>2020-01-31T10:33:49Z</time><name>PT1530</name></trkpt>
<trkpt lat="53.189366" lon="-1.710745"><ele>180</ele><time>2020-01-31T10:33:51Z</time><name>PT1531</name></trkpt>
<trkpt lat="53.189363" lon="-1.710730"><ele>179</ele><time>2020-01-31T10:33:51Z</time><name>PT1532</name></trkpt>
<trkpt lat="53.189364" lon="-1.710716"><ele>179</ele><time>2020-01-31T10:33:52Z</time><name>PT1533</name></trkpt>
<trkpt lat="53.189366" lon="-1.710701"><ele>179</ele><time>2020-01-31T10:33:54Z</time><name>PT1534</name></trkpt>
<trkpt lat="53.189366" lon="-1.710690"><ele>180</ele><time>2020-01-31T10:33:54Z</time><name>PT1535</name></trkpt>
<trkpt lat="53.189365" lon="-1.710682"><ele>179</ele><time>2020-01-31T10:33:55Z</time><name>PT1536</name></trkpt>
<trkpt lat="53.189365" lon="-1.710674"><ele>180</ele><time>2020-01-31T10:33:57Z</time><name>PT1537</name></trkpt>
<trkpt lat="53.189366" lon="-1.710672"><ele>181</ele><time>2020-01-31T10:33:57Z</time><name>PT1538</name></trkpt>
<trkpt lat="53.189364" lon="-1.710683"><ele>179</ele><time>2020-01-31T10:34:09Z</time><name>PT1539</name></trkpt>
<trkpt lat="53.189350" lon="-1.710678"><ele>179</ele><time>2020-01-31T10:34:09Z</time><name>PT1540</name></trkpt>
<trkpt lat="53.189341" lon="-1.710665"><ele>180</ele><time>2020-01-31T10:34:11Z</time><name>PT1541</name></trkpt>
<trkpt lat="53.189341" lon="-1.710644"><ele>180</ele><time>2020-01-31T10:34:12Z</time><name>PT1542</name></trkpt>
<trkpt lat="53.189341" lon="-1.710648"><ele>180</ele><time>2020-01-31T10:34:12Z</time><name>PT1543</name></trkpt>
<trkpt lat="53.189347" lon="-1.710643"><ele>181</ele><time>2020-01-31T10:34:13Z</time><name>PT1544</name></trkpt>
<trkpt lat="53.189347" lon="-1.710640"><ele>182</ele><time>2020-01-31T10:34:15Z</time><name>PT1545</name></trkpt>
<trkpt lat="53.189355" lon="-1.710628"><ele>182</ele><time>2020-01-31T10:34:15Z</time><name>PT1546</name></trkpt>
<trkpt lat="53.189356" lon="-1.710622"><ele>182</ele><time>2020-01-31T10:34:16Z</time><name>PT1547</name></trkpt>
<trkpt lat="53.189360" lon="-1.710623"><ele>182</ele><time>2020-01-31T10:34:18Z</time><name>PT1548</name></trkpt>
<trkpt lat="53.189355" lon="-1.710625"><ele>181</ele><time>2020-01-31T10:34:18Z</time><name>PT1549</name></trkpt>
<trkpt lat="53.189356" lon="-1.710626"><ele>181</ele><time>2020-01-31T10:34:19Z</time><name>PT1550</name></trkpt>
<trkpt lat="53.189355" lon="-1.710625"><ele>181</ele><time>2020-01-31T10:34:21Z</time><name>PT1551</name></trkpt>
<trkpt lat="53.189350" lon="-1.710629"><ele>180</ele><time>2020-01-31T10:34:21Z</time><name>PT1552</name></trkpt>
<trkpt lat="53.189344" lon="-1.710623"><ele>181</ele><time>2020-01-31T10:34:22Z</time><name>PT1553</name></trkpt>
<trkpt lat="53.189346" lon="-1.710613"><ele>180</ele><time>2020-01-31T10:34:24Z</time><name>PT1554</name></trkpt>
<trkpt lat="53.189349" lon="-1.710611"><ele>181</ele><time>2020-01-31T10:34:24Z</time><name>PT1555</name></trkpt>
<trkpt lat="53.189356" lon="-1.710607"><ele>181</ele><time>2020-01-31T10:34:25Z</time><name>PT1556</name></trkpt>
<trkpt lat="53.189355" lon="-1.710607"><ele>182</ele><time>2020-01-31T10:34:27Z</time><name>PT1557</name></trkpt>
<trkpt lat="53.189354" lon="-1.710597"><ele>181</ele><time>2020-01-31T10:34:27Z</time><name>PT1558</name></trkpt>
<trkpt lat="53.189349" lon="-1.710588"><ele>181</ele><time>2020-01-31T10:34:28Z</time><name>PT1559</name></trkpt>
<trkpt lat="53.189346" lon="-1.710583"><ele>180</ele><time>2020-01-31T10:34:30Z</time><name>PT1560</name></trkpt>
<trkpt lat="53.189343" lon="-1.710577"><ele>179</ele><time>2020-01-31T10:34:30Z</time><name>PT1561</name></trkpt>
<trkpt lat="53.189344" lon="-1.710574"><ele>179</ele><time>2020-01-31T10:34:31Z</time><name>PT1562</name></trkpt>
<trkpt lat="53.189343" lon="-1.710565"><ele>179</ele><time>2020-01-31T10:34:36Z</time><name>PT1563</name></trkpt>
<trkpt lat="53.189346" lon="-1.710563"><ele>179</ele><time>2020-01-31T10:34:37Z</time><name>PT1564</name></trkpt>
<trkpt lat="53.189349" lon="-1.710563"><ele>178</ele><time>2020-01-31T10:34:39Z</time><name>PT1565</name></trkpt>
<trkpt lat="53.189344" lon="-1.710550"><ele>178</ele><time>2020-01-31T10:34:39Z</time><name>PT1566</name></trkpt>
<trkpt lat="53.189340" lon="-1.710562"><ele>179</ele><time>2020-01-31T10:34:41Z</time><name>PT1567</name></trkpt>
<trkpt lat="53.189343" lon="-1.710563"><ele>179</ele><time>2020-01-31T10:34:42Z</time><name>PT1568</name></trkpt>
<trkpt lat="53.189340" lon="-1.710562"><ele>180</ele><time>2020-01-31T10:34:42Z</time><name>PT1569</name></trkpt>
<trkpt lat="53.189348" lon="-1.710588"><ele>182</ele><time>2020-01-31T10:34:46Z</time><name>PT1570</name></trkpt>
<trkpt lat="53.189341" lon="-1.710597"><ele>181</ele><time>2020-01-31T10:34:48Z</time><name>PT1571</name></trkpt>
<trkpt lat="53.189338" lon="-1.710592"><ele>181</ele><time>2020-01-31T10:34:48Z</time><name>PT1572</name></trkpt>
<trkpt lat="53.189333" lon="-1.710586"><ele>181</ele><time>2020-01-31T10:34:49Z</time><name>PT1573</name></trkpt>
<trkpt lat="53.189332" lon="-1.710594"><ele>182</ele><time>2020-01-31T10:34:51Z</time><name>PT1574</name></trkpt>
<trkpt lat="53.189332" lon="-1.710590"><ele>182</ele><time>2020-01-31T10:34:51Z</time><name>PT1575</name></trkpt>
<trkpt lat="53.189336" lon="-1.710587"><ele>182</ele><time>2020-01-31T10:34:52Z</time><name>PT1576</name></trkpt>
<trkpt lat="53.189340" lon="-1.710587"><ele>182</ele><time>2020-01-31T10:34:54Z</time><name>PT1577</name></trkpt>
<trkpt lat="53.189339" lon="-1.710577"><ele>182</ele><time>2020-01-31T10:34:54Z</time><name>PT1578</name></trkpt>
<trkpt lat="53.189338" lon="-1.710568"><ele>182</ele><time>2020-01-31T10:35:00Z</time><name>PT1579</name></trkpt>
<trkpt lat="53.189337" lon="-1.710563"><ele>181</ele><time>2020-01-31T10:35:01Z</time><name>PT1580</name></trkpt>
<trkpt lat="53.189333" lon="-1.710564"><ele>181</ele><time>2020-01-31T10:35:03Z</time><name>PT1581</name></trkpt>
<trkpt lat="53.189333" lon="-1.710551"><ele>181</ele><time>2020-01-31T10:35:03Z</time><name>PT1582</name></trkpt>
<trkpt lat="53.189334" lon="-1.710546"><ele>181</ele><time>2020-01-31T10:35:04Z</time><name>PT1583</name></trkpt>
<trkpt lat="53.189338" lon="-1.710544"><ele>181</ele><time>2020-01-31T10:35:06Z</time><name>PT1584</name></trkpt>
<trkpt lat="53.189346" lon="-1.710549"><ele>181</ele><time>2020-01-31T10:35:06Z</time><name>PT1585</name></trkpt>
<trkpt lat="53.189351" lon="-1.710554"><ele>181</ele><time>2020-01-31T10:35:07Z</time><name>PT1586</name></trkpt>
<trkpt lat="53.189352" lon="-1.710568"><ele>181</ele><time>2020-01-31T10:35:09Z</time><name>PT1587</name></trkpt>
<trkpt lat="53.189357" lon="-1.710588"><ele>182</ele><time>2020-01-31T10:35:09Z</time><name>PT1588</name></trkpt>
<trkpt lat="53.189354" lon="-1.710597"><ele>183</ele><time>2020-01-31T10:35:10Z</time><name>PT1589</name></trkpt>
<trkpt lat="53.189349" lon="-1.710608"><ele>183</ele><time>2020-01-31T10:35:12Z</time><name>PT1590</name></trkpt>
<trkpt lat="53.189349" lon="-1.710608"><ele>183</ele><time>2020-01-31T10:35:12Z</time><name>PT1591</name></trkpt>
<trkpt lat="53.189343" lon="-1.710605"><ele>183</ele><time>2020-01-31T10:35:13Z</time><name>PT1592</name></trkpt>
<trkpt lat="53.189336" lon="-1.710611"><ele>184</ele><time>2020-01-31T10:35:15Z</time><name>PT1593</name></trkpt>
<trkpt lat="53.189331" lon="-1.710608"><ele>185</ele><time>2020-01-31T10:35:15Z</time><name>PT1594</name></trkpt>
<trkpt lat="53.189316" lon="-1.710605"><ele>184</ele><time>2020-01-31T10:35:16Z</time><name>PT1595</name></trkpt>
<trkpt lat="53.189306" lon="-1.710595"><ele>185</ele><time>2020-01-31T10:35:18Z</time><name>PT1596</name></trkpt>
<trkpt lat="53.189312" lon="-1.710568"><ele>182</ele><time>2020-01-31T10:35:18Z</time><name>PT1597</name></trkpt>
<trkpt lat="53.189308" lon="-1.710562"><ele>183</ele><time>2020-01-31T10:35:19Z</time><name>PT1598</name></trkpt>
<trkpt lat="53.189308" lon="-1.710553"><ele>183</ele><time>2020-01-31T10:35:21Z</time><name>PT1599</name></trkpt>
<trkpt lat="53.189308" lon="-1.710544"><ele>183</ele><time>2020-01-31T10:35:21Z</time><name>PT1600</name></trkpt>
<trkpt lat="53.189306" lon="-1.710543"><ele>182</ele><time>2020-01-31T10:35:22Z</time><name>PT1601</name></trkpt>
<trkpt lat="53.189305" lon="-1.710545"><ele>183</ele><time>2020-01-31T10:35:24Z</time><name>PT1602</name></trkpt>
<trkpt lat="53.189306" lon="-1.710545"><ele>184</ele><time>2020-01-31T10:35:24Z</time><name>PT1603</name></trkpt>
<trkpt lat="53.189306" lon="-1.710543"><ele>183</ele><time>2020-01-31T10:35:25Z</time><name>PT1604</name></trkpt>
<trkpt lat="53.189306" lon="-1.710538"><ele>183</ele><time>2020-01-31T10:35:27Z</time><name>PT1605</name></trkpt>
<trkpt lat="53.189302" lon="-1.710537"><ele>183</ele><time>2020-01-31T10:35:27Z</time><name>PT1606</name></trkpt>
<trkpt lat="53.189301" lon="-1.710532"><ele>184</ele><time>2020-01-31T10:35:28Z</time><name>PT1607</name></trkpt>
<trkpt lat="53.189304" lon="-1.710532"><ele>184</ele><time>2020-01-31T10:35:30Z</time><name>PT1608</name></trkpt>
<trkpt lat="53.189307" lon="-1.710531"><ele>184</ele><time>2020-01-31T10:35:30Z</time><name>PT1609</name></trkpt>
<trkpt lat="53.189312" lon="-1.710529"><ele>183</ele><time>2020-01-31T10:35:31Z</time><name>PT1610</name></trkpt>
<trkpt lat="53.189312" lon="-1.710526"><ele>183</ele><time>2020-01-31T10:35:33Z</time><name>PT1611</name></trkpt>
<trkpt lat="53.189310" lon="-1.710509"><ele>182</ele><time>2020-01-31T10:35:36Z</time><name>PT1612</name></trkpt>
<trkpt lat="53.189307" lon="-1.710498"><ele>182</ele><time>2020-01-31T10:35:36Z</time><name>PT1613</name></trkpt>
<trkpt lat="53.189307" lon="-1.710498"><ele>182</ele><time>2020-01-31T10:35:37Z</time><name>PT1614</name></trkpt>
<trkpt lat="53.189308" lon="-1.710494"><ele>182</ele><time>2020-01-31T10:35:39Z</time><name>PT1615</name></trkpt>
<trkpt lat="53.189315" lon="-1.710501"><ele>183</ele><time>2020-01-31T10:35:39Z</time><name>PT1616</name></trkpt>
<trkpt lat="53.189319" lon="-1.710502"><ele>183</ele><time>2020-01-31T10:35:40Z</time><name>PT1617</name></trkpt>
<trkpt lat="53.189318" lon="-1.710500"><ele>182</ele><time>2020-01-31T10:35:42Z</time><name>PT1618</name></trkpt>
<trkpt lat="53.189316" lon="-1.710498"><ele>182</ele><time>2020-01-31T10:35:42Z</time><name>PT1619</name></trkpt>
<trkpt lat="53.189314" lon="-1.710494"><ele>182</ele><time>2020-01-31T10:35:43Z</time><name>PT1620</name></trkpt>
<trkpt lat="53.189319" lon="-1.710506"><ele>182</ele><time>2020-01-31T10:35:48Z</time><name>PT1621</name></trkpt>
<trkpt lat="53.189317" lon="-1.710500"><ele>182</ele><time>2020-01-31T10:35:48Z</time><name>PT1622</name></trkpt>
<trkpt lat="53.189308" lon="-1.710497"><ele>183</ele><time>2020-01-31T10:35:49Z</time><name>PT1623</name></trkpt>
<trkpt lat="53.189303" lon="-1.710492"><ele>183</ele><time>2020-01-31T10:35:51Z</time><name>PT1624</name></trkpt>
<trkpt lat="53.189302" lon="-1.710499"><ele>183</ele><time>2020-01-31T10:35:51Z</time><name>PT1625</name></trkpt>
<trkpt lat="53.189302" lon="-1.710498"><ele>183</ele><time>2020-01-31T10:35:53Z</time><name>PT1626</name></trkpt>
<trkpt lat="53.189306" lon="-1.710496"><ele>182</ele><time>2020-01-31T10:35:54Z</time><name>PT1627</name></trkpt>
<trkpt lat="53.189304" lon="-1.710500"><ele>182</ele><time>2020-01-31T10:35:54Z</time><name>PT1628</name></trkpt>
<trkpt lat="53.189302" lon="-1.710501"><ele>182</ele><time>2020-01-31T10:35:55Z</time><name>PT1629</name></trkpt>
<trkpt lat="53.189293" lon="-1.710507"><ele>182</ele><time>2020-01-31T10:35:57Z</time><name>PT1630</name></trkpt>
<trkpt lat="53.189289" lon="-1.710507"><ele>182</ele><time>2020-01-31T10:35:57Z</time><name>PT1631</name></trkpt>
<trkpt lat="53.189293" lon="-1.710514"><ele>181</ele><time>2020-01-31T10:35:58Z</time><name>PT1632</name></trkpt>
<trkpt lat="53.189298" lon="-1.710519"><ele>181</ele><time>2020-01-31T10:36:00Z</time><name>PT1633</name></trkpt>
<trkpt lat="53.189298" lon="-1.710524"><ele>182</ele><time>2020-01-31T10:36:00Z</time><name>PT1634</name></trkpt>
<trkpt lat="53.189302" lon="-1.710530"><ele>182</ele><time>2020-01-31T10:36:01Z</time><name>PT1635</name></trkpt>
<trkpt lat="53.189304" lon="-1.710534"><ele>182</ele><time>2020-01-31T10:36:03Z</time><name>PT1636</name></trkpt>
<trkpt lat="53.189302" lon="-1.710539"><ele>183</ele><time>2020-01-31T10:36:03Z</time><name>PT1637</name></trkpt>
<trkpt lat="53.189292" lon="-1.710546"><ele>183</ele><time>2020-01-31T10:36:04Z</time><name>PT1638</name></trkpt>
<trkpt lat="53.189289" lon="-1.710543"><ele>184</ele><time>2020-01-31T10:36:06Z</time><name>PT1639</name></trkpt>
<trkpt lat="53.189282" lon="-1.710526"><ele>184</ele><time>2020-01-31T10:36:06Z</time><name>PT1640</name></trkpt>
<trkpt lat="53.189280" lon="-1.710520"><ele>184</ele><time>2020-01-31T10:36:08Z</time><name>PT1641</name></trkpt>
<trkpt lat="53.189271" lon="-1.710511"><ele>185</ele><time>2020-01-31T10:36:09Z</time><name>PT1642</name></trkpt>
<trkpt lat="53.189244" lon="-1.710518"><ele>185</ele><time>2020-01-31T10:36:09Z</time><name>PT1643</name></trkpt>
<trkpt lat="53.189222" lon="-1.710513"><ele>186</ele><time>2020-01-31T10:36:10Z</time><name>PT1644</name></trkpt>
<trkpt lat="53.189201" lon="-1.710519"><ele>186</ele><time>2020-01-31T10:36:12Z</time><name>PT1645</name></trkpt>
<trkpt lat="53.189175" lon="-1.710564"><ele>188</ele><time>2020-01-31T10:36:12Z</time><name>PT1646</name></trkpt>
<trkpt lat="53.189158" lon="-1.710585"><ele>188</ele><time>2020-01-31T10:36:13Z</time><name>PT1647</name></trkpt>
<trkpt lat="53.189158" lon="-1.710557"><ele>188</ele><time>2020-01-31T10:36:15Z</time><name>PT1648</name></trkpt>
<trkpt lat="53.189148" lon="-1.710539"><ele>187</ele><time>2020-01-31T10:36:15Z</time><name>PT1649</name></trkpt>
<trkpt lat="53.189153" lon="-1.710536"><ele>188</ele><time>2020-01-31T10:36:16Z</time><name>PT1650</name></trkpt>
<trkpt lat="53.189167" lon="-1.710540"><ele>188</ele><time>2020-01-31T10:36:18Z</time><name>PT1651</name></trkpt>
<trkpt lat="53.189184" lon="-1.710531"><ele>187</ele><time>2020-01-31T10:36:18Z</time><name>PT1652</name></trkpt>
<trkpt lat="53.189200" lon="-1.710531"><ele>186</ele><time>2020-01-31T10:36:19Z</time><name>PT1653</name></trkpt>
<trkpt lat="53.189213" lon="-1.710527"><ele>186</ele><time>2020-01-31T10:36:21Z</time><name>PT1654</name></trkpt>
<trkpt lat="53.189254" lon="-1.710507"><ele>185</ele><time>2020-01-31T10:36:21Z</time><name>PT1655</name></trkpt>
<trkpt lat="53.189274" lon="-1.710509"><ele>184</ele><time>2020-01-31T10:36:22Z</time><name>PT1656</name></trkpt>
<trkpt lat="53.189297" lon="-1.710507"><ele>184</ele><time>2020-01-31T10:36:24Z</time><name>PT1657</name></trkpt>
<trkpt lat="53.189325" lon="-1.710480"><ele>182</ele><time>2020-01-31T10:36:24Z</time><name>PT1658</name></trkpt>
<trkpt lat="53.189351" lon="-1.710472"><ele>182</ele><time>2020-01-31T10:36:25Z</time><name>PT1659</name></trkpt>
<trkpt lat="53.189378" lon="-1.710465"><ele>182</ele><time>2020-01-31T10:36:27Z</time><name>PT1660</name></trkpt>
<trkpt lat="53.189430" lon="-1.710397"><ele>179</ele><time>2020-01-31T10:36:27Z</time><name>PT1661</name></trkpt>
<trkpt lat="53.189463" lon="-1.710375"><ele>179</ele><time>2020-01-31T10:36:28Z</time><name>PT1662</name></trkpt>
<trkpt lat="53.189496" lon="-1.710353"><ele>179</ele><time>2020-01-31T10:36:30Z</time><name>PT1663</name></trkpt>
<trkpt lat="53.189534" lon="-1.710269"><ele>175</ele><time>2020-01-31T10:36:30Z</time><name>PT1664</name></trkpt>
<trkpt lat="53.189570" lon="-1.710235"><ele>175</ele><time>2020-01-31T10:36:31Z</time><name>PT1665</name></trkpt>
<trkpt lat="53.189605" lon="-1.710201"><ele>174</ele><time>2020-01-31T10:36:33Z</time><name>PT1666</name></trkpt>
<trkpt lat="53.189601" lon="-1.710174"><ele>172</ele><time>2020-01-31T10:36:33Z</time><name>PT1667</name></trkpt>
<trkpt lat="53.189635" lon="-1.710144"><ele>171</ele><time>2020-01-31T10:36:34Z</time><name>PT1668</name></trkpt>
<trkpt lat="53.189669" lon="-1.710114"><ele>171</ele><time>2020-01-31T10:36:36Z</time><name>PT1669</name></trkpt>
<trkpt lat="53.189681" lon="-1.710074"><ele>166</ele><time>2020-01-31T10:36:36Z</time><name>PT1670</name></trkpt>
<trkpt lat="53.189712" lon="-1.710047"><ele>165</ele><time>2020-01-31T10:36:37Z</time><name>PT1671</name></trkpt>
<trkpt lat="53.189744" lon="-1.710019"><ele>165</ele><time>2020-01-31T10:36:39Z</time><name>PT1672</name></trkpt>
<trkpt lat="53.189715" lon="-1.709982"><ele>160</ele><time>2020-01-31T10:36:39Z</time><name>PT1673</name></trkpt>
<trkpt lat="53.189745" lon="-1.709953"><ele>159</ele><time>2020-01-31T10:36:40Z</time><name>PT1674</name></trkpt>
<trkpt lat="53.189775" lon="-1.709925"><ele>159</ele><time>2020-01-31T10:36:42Z</time><name>PT1675</name></trkpt>
<trkpt lat="53.189792" lon="-1.709887"><ele>159</ele><time>2020-01-31T10:36:42Z</time><name>PT1676</name></trkpt>
<trkpt lat="53.189821" lon="-1.709855"><ele>159</ele><time>2020-01-31T10:36:43Z</time><name>PT1677</name></trkpt>
<trkpt lat="53.189850" lon="-1.709823"><ele>158</ele><time>2020-01-31T10:36:45Z</time><name>PT1678</name></trkpt>
<trkpt lat="53.189888" lon="-1.709753"><ele>158</ele><time>2020-01-31T10:36:45Z</time><name>PT1679</name></trkpt>
<trkpt lat="53.189916" lon="-1.709718"><ele>157</ele><time>2020-01-31T10:36:47Z</time><name>PT1680</name></trkpt>
<trkpt lat="53.189945" lon="-1.709683"><ele>157</ele><time>2020-01-31T10:36:48Z</time><name>PT1681</name></trkpt>
<trkpt lat="53.189982" lon="-1.709616"><ele>155</ele><time>2020-01-31T10:36:48Z</time><name>PT1682</name></trkpt>
<trkpt lat="53.190012" lon="-1.709577"><ele>155</ele><time>2020-01-31T10:36:49Z</time><name>PT1683</name></trkpt>
<trkpt lat="53.190042" lon="-1.709539"><ele>154</ele><time>2020-01-31T10:36:51Z</time><name>PT1684</name></trkpt>
<trkpt lat="53.190104" lon="-1.709594"><ele>161</ele><time>2020-01-31T10:36:51Z</time><name>PT1685</name></trkpt>
<trkpt lat="53.190134" lon="-1.709559"><ele>160</ele><time>2020-01-31T10:36:52Z</time><name>PT1686</name></trkpt>
<trkpt lat="53.190165" lon="-1.709525"><ele>160</ele><time>2020-01-31T10:36:54Z</time><name>PT1687</name></trkpt>
<trkpt lat="53.190267" lon="-1.709520"><ele>160</ele><time>2020-01-31T10:36:54Z</time><name>PT1688</name></trkpt>
<trkpt lat="53.190297" lon="-1.709491"><ele>160</ele><time>2020-01-31T10:36:55Z</time><name>PT1689</name></trkpt>
<trkpt lat="53.190336" lon="-1.709469"><ele>158</ele><time>2020-01-31T10:36:57Z</time><name>PT1690</name></trkpt>
<trkpt lat="53.190236" lon="-1.709474"><ele>152</ele><time>2020-01-31T10:36:57Z</time><name>PT1691</name></trkpt>
<trkpt lat="53.190242" lon="-1.709430"><ele>154</ele><time>2020-01-31T10:36:58Z</time><name>PT1692</name></trkpt>
<trkpt lat="53.190229" lon="-1.709401"><ele>151</ele><time>2020-01-31T10:37:00Z</time><name>PT1693</name></trkpt>
<trkpt lat="53.190261" lon="-1.709411"><ele>155</ele><time>2020-01-31T10:37:00Z</time><name>PT1694</name></trkpt>
<trkpt lat="53.190249" lon="-1.709421"><ele>152</ele><time>2020-01-31T10:37:01Z</time><name>PT1695</name></trkpt>
<trkpt lat="53.190236" lon="-1.709420"><ele>152</ele><time>2020-01-31T10:37:03Z</time><name>PT1696</name></trkpt>
<trkpt lat="53.190214" lon="-1.709413"><ele>144</ele><time>2020-01-31T10:37:03Z</time><name>PT1697</name></trkpt>
<trkpt lat="53.190212" lon="-1.709394"><ele>143</ele><time>2020-01-31T10:37:04Z</time><name>PT1698</name></trkpt>
<trkpt lat="53.190200" lon="-1.709372"><ele>145</ele><time>2020-01-31T10:37:06Z</time><name>PT1699</name></trkpt>
<trkpt lat="53.190121" lon="-1.709459"><ele>146</ele><time>2020-01-31T10:37:06Z</time><name>PT1700</name></trkpt>
<trkpt lat="53.190102" lon="-1.709517"><ele>145</ele><time>2020-01-31T10:37:07Z</time><name>PT1701</name></trkpt>
<trkpt lat="53.190087" lon="-1.709550"><ele>144</ele><time>2020-01-31T10:37:09Z</time><name>PT1702</name></trkpt>
<trkpt lat="53.190078" lon="-1.709584"><ele>143</ele><time>2020-01-31T10:37:09Z</time><name>PT1703</name></trkpt>
<trkpt lat="53.190063" lon="-1.709628"><ele>143</ele><time>2020-01-31T10:37:10Z</time><name>PT1704</name></trkpt>
<trkpt lat="53.190050" lon="-1.709659"><ele>145</ele><time>2020-01-31T10:37:12Z</time><name>PT1705</name></trkpt>
<trkpt lat="53.189993" lon="-1.709724"><ele>149</ele><time>2020-01-31T10:37:12Z</time><name>PT1706</name></trkpt>
<trkpt lat="53.189966" lon="-1.709759"><ele>148</ele><time>2020-01-31T10:37:13Z</time><name>PT1707</name></trkpt>
<trkpt lat="53.189944" lon="-1.709788"><ele>148</ele><time>2020-01-31T10:37:15Z</time><name>PT1708</name></trkpt>
<trkpt lat="53.189871" lon="-1.709860"><ele>149</ele><time>2020-01-31T10:37:15Z</time><name>PT1709</name></trkpt>
<trkpt lat="53.189835" lon="-1.709895"><ele>148</ele><time>2020-01-31T10:37:16Z</time><name>PT1710</name></trkpt>
<trkpt lat="53.189816" lon="-1.709952"><ele>151</ele><time>2020-01-31T10:37:18Z</time><name>PT1711</name></trkpt>
<trkpt lat="53.189789" lon="-1.709974"><ele>151</ele><time>2020-01-31T10:37:18Z</time><name>PT1712</name></trkpt>
<trkpt lat="53.189728" lon="-1.710023"><ele>147</ele><time>2020-01-31T10:37:19Z</time><name>PT1713</name></trkpt>
<trkpt lat="53.189682" lon="-1.710085"><ele>151</ele><time>2020-01-31T10:37:21Z</time><name>PT1714</name></trkpt>
<trkpt lat="53.189653" lon="-1.710115"><ele>149</ele><time>2020-01-31T10:37:21Z</time><name>PT1715</name></trkpt>
<trkpt lat="53.189610" lon="-1.710144"><ele>147</ele><time>2020-01-31T10:37:22Z</time><name>PT1716</name></trkpt>
<trkpt lat="53.189568" lon="-1.710175"><ele>145</ele><time>2020-01-31T10:37:24Z</time><name>PT1717</name></trkpt>
<trkpt lat="53.189542" lon="-1.710253"><ele>149</ele><time>2020-01-31T10:37:36Z</time><name>PT1718</name></trkpt>
<trkpt lat="53.189505" lon="-1.710292"><ele>150</ele><time>2020-01-31T10:37:36Z</time><name>PT1719</name></trkpt>
<trkpt lat="53.189488" lon="-1.710319"><ele>151</ele><time>2020-01-31T10:37:37Z</time><name>PT1720</name></trkpt>
<trkpt lat="53.189489" lon="-1.710345"><ele>152</ele><time>2020-01-31T10:37:42Z</time><name>PT1721</name></trkpt>
<trkpt lat="53.189470" lon="-1.710352"><ele>152</ele><time>2020-01-31T10:37:42Z</time><name>PT1722</name></trkpt>
<trkpt lat="53.189466" lon="-1.710359"><ele>152</ele><time>2020-01-31T10:37:43Z</time><name>PT1723</name></trkpt>
<trkpt lat="53.189456" lon="-1.710370"><ele>152</ele><time>2020-01-31T10:37:45Z</time><name>PT1724</name></trkpt>
<trkpt lat="53.189457" lon="-1.710377"><ele>152</ele><time>2020-01-31T10:37:45Z</time><name>PT1725</name></trkpt>
<trkpt lat="53.189452" lon="-1.710387"><ele>152</ele><time>2020-01-31T10:37:46Z</time><name>PT1726</name></trkpt>
<trkpt lat="53.189452" lon="-1.710384"><ele>152</ele><time>2020-01-31T10:37:48Z</time><name>PT1727</name></trkpt>
<trkpt lat="53.189454" lon="-1.710390"><ele>152</ele><time>2020-01-31T10:37:48Z</time><name>PT1728</name></trkpt>
<trkpt lat="53.189452" lon="-1.710399"><ele>152</ele><time>2020-01-31T10:37:50Z</time><name>PT1729</name></trkpt>
<trkpt lat="53.189454" lon="-1.710408"><ele>152</ele><time>2020-01-31T10:37:51Z</time><name>PT1730</name></trkpt>
<trkpt lat="53.189451" lon="-1.710423"><ele>152</ele><time>2020-01-31T10:37:51Z</time><name>PT1731</name></trkpt>
<trkpt lat="53.189451" lon="-1.710435"><ele>152</ele><time>2020-01-31T10:37:52Z</time><name>PT1732</name></trkpt>
<trkpt lat="53.189452" lon="-1.710447"><ele>152</ele><time>2020-01-31T10:37:54Z</time><name>PT1733</name></trkpt>
<trkpt lat="53.189452" lon="-1.710468"><ele>155</ele><time>2020-01-31T10:38:06Z</time><name>PT1734</name></trkpt>
<trkpt lat="53.189455" lon="-1.710485"><ele>156</ele><time>2020-01-31T10:38:07Z</time><name>PT1735</name></trkpt>
<trkpt lat="53.189455" lon="-1.710503"><ele>156</ele><time>2020-01-31T10:38:09Z</time><name>PT1736</name></trkpt>
<trkpt lat="53.189457" lon="-1.710519"><ele>156</ele><time>2020-01-31T10:38:09Z</time><name>PT1737</name></trkpt>
<trkpt lat="53.189460" lon="-1.710536"><ele>156</ele><time>2020-01-31T10:38:21Z</time><name>PT1738</name></trkpt>
<trkpt lat="53.189455" lon="-1.710571"><ele>156</ele><time>2020-01-31T10:38:22Z</time><name>PT1739</name></trkpt>
<trkpt lat="53.189456" lon="-1.710607"><ele>157</ele><time>2020-01-31T10:38:24Z</time><name>PT1740</name></trkpt>
<trkpt lat="53.189461" lon="-1.710632"><ele>157</ele><time>2020-01-31T10:38:24Z</time><name>PT1741</name></trkpt>
<trkpt lat="53.189461" lon="-1.710665"><ele>157</ele><time>2020-01-31T10:38:25Z</time><name>PT1742</name></trkpt>
<trkpt lat="53.189455" lon="-1.710703"><ele>157</ele><time>2020-01-31T10:38:27Z</time><name>PT1743</name></trkpt>
<trkpt lat="53.189452" lon="-1.710727"><ele>157</ele><time>2020-01-31T10:38:27Z</time><name>PT1744</name></trkpt>
<trkpt lat="53.189453" lon="-1.710747"><ele>157</ele><time>2020-01-31T10:38:28Z</time><name>PT1745</name></trkpt>
<trkpt lat="53.189452" lon="-1.710763"><ele>157</ele><time>2020-01-31T10:38:30Z</time><name>PT1746</name></trkpt>
<trkpt lat="53.189449" lon="-1.710785"><ele>157</ele><time>2020-01-31T10:38:30Z</time><name>PT1747</name></trkpt>
<trkpt lat="53.189452" lon="-1.710793"><ele>157</ele><time>2020-01-31T10:38:31Z</time><name>PT1748</name></trkpt>
<trkpt lat="53.189451" lon="-1.710817"><ele>157</ele><time>2020-01-31T10:38:37Z</time><name>PT1749</name></trkpt>
<trkpt lat="53.189452" lon="-1.710849"><ele>157</ele><time>2020-01-31T10:38:39Z</time><name>PT1750</name></trkpt>
<trkpt lat="53.189453" lon="-1.710873"><ele>156</ele><time>2020-01-31T10:38:39Z</time><name>PT1751</name></trkpt>
<trkpt lat="53.189446" lon="-1.710900"><ele>156</ele><time>2020-01-31T10:38:40Z</time><name>PT1752</name></trkpt>
<trkpt lat="53.189438" lon="-1.710922"><ele>156</ele><time>2020-01-31T10:38:42Z</time><name>PT1753</name></trkpt>
<trkpt lat="53.189433" lon="-1.710948"><ele>157</ele><time>2020-01-31T10:38:42Z</time><name>PT1754</name></trkpt>
<trkpt lat="53.189424" lon="-1.710969"><ele>157</ele><time>2020-01-31T10:38:43Z</time><name>PT1755</name></trkpt>
<trkpt lat="53.189412" lon="-1.710984"><ele>157</ele><time>2020-01-31T10:38:45Z</time><name>PT1756</name></trkpt>
<trkpt lat="53.189402" lon="-1.711004"><ele>157</ele><time>2020-01-31T10:38:45Z</time><name>PT1757</name></trkpt>
<trkpt lat="53.189390" lon="-1.711031"><ele>158</ele><time>2020-01-31T10:38:46Z</time><name>PT1758</name></trkpt>
<trkpt lat="53.189380" lon="-1.711052"><ele>158</ele><time>2020-01-31T10:38:48Z</time><name>PT1759</name></trkpt>
<trkpt lat="53.189374" lon="-1.711072"><ele>158</ele><time>2020-01-31T10:38:48Z</time><name>PT1760</name></trkpt>
<trkpt lat="53.189372" lon="-1.711092"><ele>158</ele><time>2020-01-31T10:38:49Z</time><name>PT1761</name></trkpt>
<trkpt lat="53.189372" lon="-1.711110"><ele>158</ele><time>2020-01-31T10:38:51Z</time><name>PT1762</name></trkpt>
<trkpt lat="53.189368" lon="-1.711133"><ele>158</ele><time>2020-01-31T10:38:51Z</time><name>PT1763</name></trkpt>
<trkpt lat="53.189364" lon="-1.711150"><ele>158</ele><time>2020-01-31T10:38:53Z</time><name>PT1764</name></trkpt>
<trkpt lat="53.189358" lon="-1.711168"><ele>158</ele><time>2020-01-31T10:38:54Z</time><name>PT1765</name></trkpt>
<trkpt lat="53.189355" lon="-1.711186"><ele>158</ele><time>2020-01-31T10:38:54Z</time><name>PT1766</name></trkpt>
<trkpt lat="53.189349" lon="-1.711204"><ele>159</ele><time>2020-01-31T10:38:55Z</time><name>PT1767</name></trkpt>
<trkpt lat="53.189345" lon="-1.711223"><ele>158</ele><time>2020-01-31T10:38:57Z</time><name>PT1768</name></trkpt>
<trkpt lat="53.189343" lon="-1.711239"><ele>159</ele><time>2020-01-31T10:38:57Z</time><name>PT1769</name></trkpt>
<trkpt lat="53.189339" lon="-1.711259"><ele>159</ele><time>2020-01-31T10:38:58Z</time><name>PT1770</name></trkpt>
<trkpt lat="53.189339" lon="-1.711271"><ele>160</ele><time>2020-01-31T10:39:00Z</time><name>PT1771</name></trkpt>
<trkpt lat="53.189342" lon="-1.711287"><ele>160</ele><time>2020-01-31T10:39:00Z</time><name>PT1772</name></trkpt>
<trkpt lat="53.189340" lon="-1.711301"><ele>160</ele><time>2020-01-31T10:39:01Z</time><name>PT1773</name></trkpt>
<trkpt lat="53.189338" lon="-1.711313"><ele>160</ele><time>2020-01-31T10:39:03Z</time><name>PT1774</name></trkpt>
<trkpt lat="53.189326" lon="-1.711335"><ele>161</ele><time>2020-01-31T10:39:03Z</time><name>PT1775</name></trkpt>
<trkpt lat="53.189319" lon="-1.711349"><ele>162</ele><time>2020-01-31T10:39:04Z</time><name>PT1776</name></trkpt>
<trkpt lat="53.189321" lon="-1.711356"><ele>162</ele><time>2020-01-31T10:39:06Z</time><name>PT1777</name></trkpt>
<trkpt lat="53.189313" lon="-1.711366"><ele>163</ele><time>2020-01-31T10:39:06Z</time><name>PT1778</name></trkpt>
<trkpt lat="53.189301" lon="-1.711383"><ele>163</ele><time>2020-01-31T10:39:07Z</time><name>PT1779</name></trkpt>
<trkpt lat="53.189289" lon="-1.711404"><ele>164</ele><time>2020-01-31T10:39:09Z</time><name>PT1780</name></trkpt>
<trkpt lat="53.189280" lon="-1.711424"><ele>165</ele><time>2020-01-31T10:39:09Z</time><name>PT1781</name></trkpt>
<trkpt lat="53.189271" lon="-1.711436"><ele>165</ele><time>2020-01-31T10:39:10Z</time><name>PT1782</name></trkpt>
<trkpt lat="53.189266" lon="-1.711453"><ele>166</ele><time>2020-01-31T10:39:12Z</time><name>PT1783</name></trkpt>
<trkpt lat="53.189259" lon="-1.711465"><ele>166</ele><time>2020-01-31T10:39:12Z</time><name>PT1784</name></trkpt>
<trkpt lat="53.189251" lon="-1.711487"><ele>167</ele><time>2020-01-31T10:39:13Z</time><name>PT1785</name></trkpt>
<trkpt lat="53.189241" lon="-1.711505"><ele>167</ele><time>2020-01-31T10:39:15Z</time><name>PT1786</name></trkpt>
<trkpt lat="53.189231" lon="-1.711527"><ele>168</ele><time>2020-01-31T10:39:15Z</time><name>PT1787</name></trkpt>
<trkpt lat="53.189223" lon="-1.711546"><ele>167</ele><time>2020-01-31T10:39:16Z</time><name>PT1788</name></trkpt>
<trkpt lat="53.189214" lon="-1.711567"><ele>168</ele><time>2020-01-31T10:39:18Z</time><name>PT1789</name></trkpt>
<trkpt lat="53.189207" lon="-1.711586"><ele>169</ele><time>2020-01-31T10:39:18Z</time><name>PT1790</name></trkpt>
<trkpt lat="53.189202" lon="-1.711604"><ele>170</ele><time>2020-01-31T10:39:19Z</time><name>PT1791</name></trkpt>
<trkpt lat="53.189195" lon="-1.711617"><ele>169</ele><time>2020-01-31T10:39:21Z</time><name>PT1792</name></trkpt>
<trkpt lat="53.189187" lon="-1.711631"><ele>172</ele><time>2020-01-31T10:39:21Z</time><name>PT1793</name></trkpt>
<trkpt lat="53.189178" lon="-1.711647"><ele>173</ele><time>2020-01-31T10:39:22Z</time><name>PT1794</name></trkpt>
<trkpt lat="53.189175" lon="-1.711670"><ele>173</ele><time>2020-01-31T10:39:24Z</time><name>PT1795</name></trkpt>
<trkpt lat="53.189171" lon="-1.711695"><ele>172</ele><time>2020-01-31T10:39:24Z</time><name>PT1796</name></trkpt>
<trkpt lat="53.189162" lon="-1.711720"><ele>171</ele><time>2020-01-31T10:39:25Z</time><name>PT1797</name></trkpt>
<trkpt lat="53.189156" lon="-1.711737"><ele>172</ele><time>2020-01-31T10:39:27Z</time><name>PT1798</name></trkpt>
<trkpt lat="53.189149" lon="-1.711747"><ele>173</ele><time>2020-01-31T10:39:27Z</time><name>PT1799</name></trkpt>
<trkpt lat="53.189156" lon="-1.711765"><ele>172</ele><time>2020-01-31T10:39:28Z</time><name>PT1800</name></trkpt>
<trkpt lat="53.189153" lon="-1.711777"><ele>174</ele><time>2020-01-31T10:39:30Z</time><name>PT1801</name></trkpt>
<trkpt lat="53.189151" lon="-1.711789"><ele>173</ele><time>2020-01-31T10:39:30Z</time><name>PT1802</name></trkpt>
<trkpt lat="53.189149" lon="-1.711803"><ele>174</ele><time>2020-01-31T10:39:31Z</time><name>PT1803</name></trkpt>
<trkpt lat="53.189144" lon="-1.711822"><ele>174</ele><time>2020-01-31T10:39:33Z</time><name>PT1804</name></trkpt>
<trkpt lat="53.189135" lon="-1.711842"><ele>174</ele><time>2020-01-31T10:39:33Z</time><name>PT1805</name></trkpt>
<trkpt lat="53.189131" lon="-1.711858"><ele>175</ele><time>2020-01-31T10:39:34Z</time><name>PT1806</name></trkpt>
<trkpt lat="53.189124" lon="-1.711874"><ele>174</ele><time>2020-01-31T10:39:36Z</time><name>PT1807</name></trkpt>
<trkpt lat="53.189118" lon="-1.711896"><ele>174</ele><time>2020-01-31T10:39:36Z</time><name>PT1808</name></trkpt>
<trkpt lat="53.189116" lon="-1.711902"><ele>174</ele><time>2020-01-31T10:39:37Z</time><name>PT1809</name></trkpt>
<trkpt lat="53.189116" lon="-1.711913"><ele>173</ele><time>2020-01-31T10:39:39Z</time><name>PT1810</name></trkpt>
<trkpt lat="53.189110" lon="-1.711924"><ele>173</ele><time>2020-01-31T10:39:39Z</time><name>PT1811</name></trkpt>
<trkpt lat="53.189102" lon="-1.711936"><ele>173</ele><time>2020-01-31T10:39:40Z</time><name>PT1812</name></trkpt>
<trkpt lat="53.189091" lon="-1.711954"><ele>169</ele><time>2020-01-31T10:39:42Z</time><name>PT1813</name></trkpt>
<trkpt lat="53.189086" lon="-1.711970"><ele>168</ele><time>2020-01-31T10:39:42Z</time><name>PT1814</name></trkpt>
<trkpt lat="53.189076" lon="-1.711984"><ele>168</ele><time>2020-01-31T10:39:43Z</time><name>PT1815</name></trkpt>
<trkpt lat="53.189072" lon="-1.711995"><ele>167</ele><time>2020-01-31T10:39:45Z</time><name>PT1816</name></trkpt>
<trkpt lat="53.189062" lon="-1.712004"><ele>169</ele><time>2020-01-31T10:39:45Z</time><name>PT1817</name></trkpt>
<trkpt lat="53.189061" lon="-1.712020"><ele>168</ele><time>2020-01-31T10:39:46Z</time><name>PT1818</name></trkpt>
<trkpt lat="53.189060" lon="-1.712034"><ele>168</ele><time>2020-01-31T10:39:48Z</time><name>PT1819</name></trkpt>
<trkpt lat="53.189048" lon="-1.712044"><ele>168</ele><time>2020-01-31T10:39:48Z</time><name>PT1820</name></trkpt>
<trkpt lat="53.189036" lon="-1.712057"><ele>167</ele><time>2020-01-31T10:39:50Z</time><name>PT1821</name></trkpt>
<trkpt lat="53.189030" lon="-1.712071"><ele>170</ele><time>2020-01-31T10:39:51Z</time><name>PT1822</name></trkpt>
<trkpt lat="53.189029" lon="-1.712084"><ele>169</ele><time>2020-01-31T10:39:51Z</time><name>PT1823</name></trkpt>
<trkpt lat="53.189024" lon="-1.712097"><ele>170</ele><time>2020-01-31T10:39:52Z</time><name>PT1824</name></trkpt>
<trkpt lat="53.189017" lon="-1.712109"><ele>170</ele><time>2020-01-31T10:39:54Z</time><name>PT1825</name></trkpt>
<trkpt lat="53.189011" lon="-1.712121"><ele>170</ele><time>2020-01-31T10:39:54Z</time><name>PT1826</name></trkpt>
<trkpt lat="53.189003" lon="-1.712143"><ele>171</ele><time>2020-01-31T10:39:56Z</time><name>PT1827</name></trkpt>
<trkpt lat="53.188998" lon="-1.712162"><ele>173</ele><time>2020-01-31T10:39:57Z</time><name>PT1828</name></trkpt>
<trkpt lat="53.188992" lon="-1.712177"><ele>171</ele><time>2020-01-31T10:39:57Z</time><name>PT1829</name></trkpt>
<trkpt lat="53.188992" lon="-1.712192"><ele>171</ele><time>2020-01-31T10:39:58Z</time><name>PT1830</name></trkpt>
<trkpt lat="53.188983" lon="-1.712201"><ele>170</ele><time>2020-01-31T10:40:00Z</time><name>PT1831</name></trkpt>
<trkpt lat="53.188978" lon="-1.712218"><ele>171</ele><time>2020-01-31T10:40:00Z</time><name>PT1832</name></trkpt>
<trkpt lat="53.188971" lon="-1.712236"><ele>171</ele><time>2020-01-31T10:40:01Z</time><name>PT1833</name></trkpt>
<trkpt lat="53.188966" lon="-1.712253"><ele>170</ele><time>2020-01-31T10:40:03Z</time><name>PT1834</name></trkpt>
<trkpt lat="53.188966" lon="-1.712260"><ele>170</ele><time>2020-01-31T10:40:03Z</time><name>PT1835</name></trkpt>
<trkpt lat="53.188964" lon="-1.712263"><ele>170</ele><time>2020-01-31T10:40:05Z</time><name>PT1836</name></trkpt>
<trkpt lat="53.188969" lon="-1.712275"><ele>170</ele><time>2020-01-31T10:40:06Z</time><name>PT1837</name></trkpt>
<trkpt lat="53.188961" lon="-1.712292"><ele>170</ele><time>2020-01-31T10:40:06Z</time><name>PT1838</name></trkpt>
<trkpt lat="53.188958" lon="-1.712316"><ele>169</ele><time>2020-01-31T10:40:07Z</time><name>PT1839</name></trkpt>
<trkpt lat="53.188954" lon="-1.712335"><ele>168</ele><time>2020-01-31T10:40:09Z</time><name>PT1840</name></trkpt>
<trkpt lat="53.188950" lon="-1.712349"><ele>168</ele><time>2020-01-31T10:40:09Z</time><name>PT1841</name></trkpt>
<trkpt lat="53.188953" lon="-1.712365"><ele>168</ele><time>2020-01-31T10:40:10Z</time><name>PT1842</name></trkpt>
<trkpt lat="53.188953" lon="-1.712386"><ele>169</ele><time>2020-01-31T10:40:12Z</time><name>PT1843</name></trkpt>
<trkpt lat="53.188952" lon="-1.712405"><ele>168</ele><time>2020-01-31T10:40:12Z</time><name>PT1844</name></trkpt>
<trkpt lat="53.188950" lon="-1.712424"><ele>168</ele><time>2020-01-31T10:40:13Z</time><name>PT1845</name></trkpt>
<trkpt lat="53.188948" lon="-1.712440"><ele>166</ele><time>2020-01-31T10:40:15Z</time><name>PT1846</name></trkpt>
<trkpt lat="53.188948" lon="-1.712456"><ele>166</ele><time>2020-01-31T10:40:15Z</time><name>PT1847</name></trkpt>
<trkpt lat="53.188947" lon="-1.712479"><ele>167</ele><time>2020-01-31T10:40:16Z</time><name>PT1848</name></trkpt>
<trkpt lat="53.188945" lon="-1.712497"><ele>166</ele><time>2020-01-31T10:40:18Z</time><name>PT1849</name></trkpt>
<trkpt lat="53.188945" lon="-1.712505"><ele>166</ele><time>2020-01-31T10:40:18Z</time><name>PT1850</name></trkpt>
<trkpt lat="53.188943" lon="-1.712511"><ele>165</ele><time>2020-01-31T10:40:19Z</time><name>PT1851</name></trkpt>
<trkpt lat="53.188942" lon="-1.712526"><ele>165</ele><time>2020-01-31T10:40:21Z</time><name>PT1852</name></trkpt>
<trkpt lat="53.188944" lon="-1.712550"><ele>166</ele><time>2020-01-31T10:40:21Z</time><name>PT1853</name></trkpt>
<trkpt lat="53.188945" lon="-1.712570"><ele>166</ele><time>2020-01-31T10:40:22Z</time><name>PT1854</name></trkpt>
<trkpt lat="53.188943" lon="-1.712588"><ele>165</ele><time>2020-01-31T10:40:24Z</time><name>PT1855</name></trkpt>
<trkpt lat="53.188949" lon="-1.712613"><ele>164</ele><time>2020-01-31T10:40:24Z</time><name>PT1856</name></trkpt>
<trkpt lat="53.188954" lon="-1.712637"><ele>164</ele><time>2020-01-31T10:40:25Z</time><name>PT1857</name></trkpt>
<trkpt lat="53.188958" lon="-1.712655"><ele>165</ele><time>2020-01-31T10:40:27Z</time><name>PT1858</name></trkpt>
<trkpt lat="53.188952" lon="-1.712676"><ele>165</ele><time>2020-01-31T10:40:27Z</time><name>PT1859</name></trkpt>
<trkpt lat="53.188949" lon="-1.712696"><ele>165</ele><time>2020-01-31T10:40:28Z</time><name>PT1860</name></trkpt>
<trkpt lat="53.188948" lon="-1.712715"><ele>165</ele><time>2020-01-31T10:40:30Z</time><name>PT1861</name></trkpt>
<trkpt lat="53.188943" lon="-1.712738"><ele>165</ele><time>2020-01-31T10:40:30Z</time><name>PT1862</name></trkpt>
<trkpt lat="53.188940" lon="-1.712761"><ele>165</ele><time>2020-01-31T10:40:31Z</time><name>PT1863</name></trkpt>
<trkpt lat="53.188948" lon="-1.712769"><ele>164</ele><time>2020-01-31T10:40:33Z</time><name>PT1864</name></trkpt>
<trkpt lat="53.188945" lon="-1.712789"><ele>164</ele><time>2020-01-31T10:40:33Z</time><name>PT1865</name></trkpt>
<trkpt lat="53.188943" lon="-1.712810"><ele>164</ele><time>2020-01-31T10:40:34Z</time><name>PT1866</name></trkpt>
<trkpt lat="53.188945" lon="-1.712833"><ele>166</ele><time>2020-01-31T10:40:36Z</time><name>PT1867</name></trkpt>
<trkpt lat="53.188949" lon="-1.712849"><ele>166</ele><time>2020-01-31T10:40:36Z</time><name>PT1868</name></trkpt>
<trkpt lat="53.188948" lon="-1.712863"><ele>163</ele><time>2020-01-31T10:40:37Z</time><name>PT1869</name></trkpt>
<trkpt lat="53.188951" lon="-1.712879"><ele>160</ele><time>2020-01-31T10:40:39Z</time><name>PT1870</name></trkpt>
<trkpt lat="53.188952" lon="-1.712892"><ele>161</ele><time>2020-01-31T10:40:39Z</time><name>PT1871</name></trkpt>
<trkpt lat="53.188947" lon="-1.712915"><ele>161</ele><time>2020-01-31T10:40:40Z</time><name>PT1872</name></trkpt>
<trkpt lat="53.188945" lon="-1.712937"><ele>162</ele><time>2020-01-31T10:40:42Z</time><name>PT1873</name></trkpt>
<trkpt lat="53.188956" lon="-1.712959"><ele>163</ele><time>2020-01-31T10:40:42Z</time><name>PT1874</name></trkpt>
<trkpt lat="53.188954" lon="-1.712985"><ele>166</ele><time>2020-01-31T10:40:43Z</time><name>PT1875</name></trkpt>
<trkpt lat="53.188957" lon="-1.713005"><ele>166</ele><time>2020-01-31T10:40:45Z</time><name>PT1876</name></trkpt>
<trkpt lat="53.188962" lon="-1.713026"><ele>167</ele><time>2020-01-31T10:40:45Z</time><name>PT1877</name></trkpt>
<trkpt lat="53.188963" lon="-1.713046"><ele>167</ele><time>2020-01-31T10:40:46Z</time><name>PT1878</name></trkpt>
<trkpt lat="53.188960" lon="-1.713070"><ele>166</ele><time>2020-01-31T10:40:48Z</time><name>PT1879</name></trkpt>
<trkpt lat="53.188956" lon="-1.713097"><ele>166</ele><time>2020-01-31T10:40:48Z</time><name>PT1880</name></trkpt>
<trkpt lat="53.188958" lon="-1.713115"><ele>166</ele><time>2020-01-31T10:40:49Z</time><name>PT1881</name></trkpt>
<trkpt lat="53.188958" lon="-1.713141"><ele>167</ele><time>2020-01-31T10:40:51Z</time><name>PT1882</name></trkpt>
<trkpt lat="53.188957" lon="-1.713164"><ele>167</ele><time>2020-01-31T10:40:51Z</time><name>PT1883</name></trkpt>
<trkpt lat="53.188956" lon="-1.713184"><ele>167</ele><time>2020-01-31T10:40:52Z</time><name>PT1884</name></trkpt>
<trkpt lat="53.188954" lon="-1.713208"><ele>168</ele><time>2020-01-31T10:40:54Z</time><name>PT1885</name></trkpt>
<trkpt lat="53.188952" lon="-1.713231"><ele>168</ele><time>2020-01-31T10:40:54Z</time><name>PT1886</name></trkpt>
<trkpt lat="53.188954" lon="-1.713248"><ele>169</ele><time>2020-01-31T10:40:55Z</time><name>PT1887</name></trkpt>
<trkpt lat="53.188957" lon="-1.713269"><ele>169</ele><time>2020-01-31T10:40:57Z</time><name>PT1888</name></trkpt>
<trkpt lat="53.188957" lon="-1.713290"><ele>169</ele><time>2020-01-31T10:40:57Z</time><name>PT1889</name></trkpt>
<trkpt lat="53.188956" lon="-1.713310"><ele>170</ele><time>2020-01-31T10:40:58Z</time><name>PT1890</name></trkpt>
<trkpt lat="53.188951" lon="-1.713329"><ele>169</ele><time>2020-01-31T10:41:00Z</time><name>PT1891</name></trkpt>
<trkpt lat="53.188952" lon="-1.713355"><ele>169</ele><time>2020-01-31T10:41:00Z</time><name>PT1892</name></trkpt>
<trkpt lat="53.188951" lon="-1.713370"><ele>170</ele><time>2020-01-31T10:41:01Z</time><name>PT1893</name></trkpt>
<trkpt lat="53.188945" lon="-1.713393"><ele>169</ele><time>2020-01-31T10:41:03Z</time><name>PT1894</name></trkpt>
<trkpt lat="53.188936" lon="-1.713418"><ele>170</ele><time>2020-01-31T10:41:03Z</time><name>PT1895</name></trkpt>
<trkpt lat="53.188947" lon="-1.713459"><ele>174</ele><time>2020-01-31T10:41:04Z</time><name>PT1896</name></trkpt>
<trkpt lat="53.188952" lon="-1.713485"><ele>174</ele><time>2020-01-31T10:41:06Z</time><name>PT1897</name></trkpt>
<trkpt lat="53.188948" lon="-1.713515"><ele>177</ele><time>2020-01-31T10:41:06Z</time><name>PT1898</name></trkpt>
<trkpt lat="53.188955" lon="-1.713538"><ele>176</ele><time>2020-01-31T10:41:07Z</time><name>PT1899</name></trkpt>
<trkpt lat="53.188955" lon="-1.713566"><ele>177</ele><time>2020-01-31T10:41:09Z</time><name>PT1900</name></trkpt>
<trkpt lat="53.188954" lon="-1.713591"><ele>178</ele><time>2020-01-31T10:41:09Z</time><name>PT1901</name></trkpt>
<trkpt lat="53.188943" lon="-1.713617"><ele>178</ele><time>2020-01-31T10:41:10Z</time><name>PT1902</name></trkpt>
<trkpt lat="53.188943" lon="-1.713639"><ele>177</ele><time>2020-01-31T10:41:12Z</time><name>PT1903</name></trkpt>
<trkpt lat="53.188947" lon="-1.713660"><ele>178</ele><time>2020-01-31T10:41:12Z</time><name>PT1904</name></trkpt>
<trkpt lat="53.188948" lon="-1.713676"><ele>177</ele><time>2020-01-31T10:41:13Z</time><name>PT1905</name></trkpt>
<trkpt lat="53.188943" lon="-1.713696"><ele>176</ele><time>2020-01-31T10:41:15Z</time><name>PT1906</name></trkpt>
<trkpt lat="53.188945" lon="-1.713707"><ele>176</ele><time>2020-01-31T10:41:15Z</time><name>PT1907</name></trkpt>
<trkpt lat="53.188948" lon="-1.713722"><ele>176</ele><time>2020-01-31T10:41:16Z</time><name>PT1908</name></trkpt>
<trkpt lat="53.188947" lon="-1.713737"><ele>176</ele><time>2020-01-31T10:41:18Z</time><name>PT1909</name></trkpt>
<trkpt lat="53.188948" lon="-1.713756"><ele>175</ele><time>2020-01-31T10:41:18Z</time><name>PT1910</name></trkpt>
<trkpt lat="53.188953" lon="-1.713774"><ele>175</ele><time>2020-01-31T10:41:19Z</time><name>PT1911</name></trkpt>
<trkpt lat="53.188954" lon="-1.713792"><ele>174</ele><time>2020-01-31T10:41:21Z</time><name>PT1912</name></trkpt>
<trkpt lat="53.188955" lon="-1.713806"><ele>174</ele><time>2020-01-31T10:41:21Z</time><name>PT1913</name></trkpt>
<trkpt lat="53.188953" lon="-1.713827"><ele>173</ele><time>2020-01-31T10:41:22Z</time><name>PT1914</name></trkpt>
<trkpt lat="53.188952" lon="-1.713842"><ele>172</ele><time>2020-01-31T10:41:24Z</time><name>PT1915</name></trkpt>
<trkpt lat="53.188953" lon="-1.713857"><ele>172</ele><time>2020-01-31T10:41:24Z</time><name>PT1916</name></trkpt>
<trkpt lat="53.188958" lon="-1.713866"><ele>172</ele><time>2020-01-31T10:41:25Z</time><name>PT1917</name></trkpt>
<trkpt lat="53.188959" lon="-1.713880"><ele>171</ele><time>2020-01-31T10:41:27Z</time><name>PT1918</name></trkpt>
<trkpt lat="53.188958" lon="-1.713896"><ele>170</ele><time>2020-01-31T10:41:27Z</time><name>PT1919</name></trkpt>
<trkpt lat="53.188959" lon="-1.713916"><ele>169</ele><time>2020-01-31T10:41:28Z</time><name>PT1920</name></trkpt>
<trkpt lat="53.188962" lon="-1.713938"><ele>168</ele><time>2020-01-31T10:41:30Z</time><name>PT1921</name></trkpt>
<trkpt lat="53.188958" lon="-1.713965"><ele>169</ele><time>2020-01-31T10:41:30Z</time><name>PT1922</name></trkpt>
<trkpt lat="53.188963" lon="-1.713981"><ele>168</ele><time>2020-01-31T10:41:31Z</time><name>PT1923</name></trkpt>
<trkpt lat="53.188972" lon="-1.713992"><ele>167</ele><time>2020-01-31T10:41:33Z</time><name>PT1924</name></trkpt>
<trkpt lat="53.188979" lon="-1.714003"><ele>166</ele><time>2020-01-31T10:41:33Z</time><name>PT1925</name></trkpt>
<trkpt lat="53.188981" lon="-1.714022"><ele>165</ele><time>2020-01-31T10:41:34Z</time><name>PT1926</name></trkpt>
<trkpt lat="53.188988" lon="-1.714037"><ele>163</ele><time>2020-01-31T10:41:36Z</time><name>PT1927</name></trkpt>
<trkpt lat="53.188997" lon="-1.714053"><ele>164</ele><time>2020-01-31T10:41:36Z</time><name>PT1928</name></trkpt>
<trkpt lat="53.189003" lon="-1.714071"><ele>163</ele><time>2020-01-31T10:41:37Z</time><name>PT1929</name></trkpt>
<trkpt lat="53.189014" lon="-1.714086"><ele>163</ele><time>2020-01-31T10:41:39Z</time><name>PT1930</name></trkpt>
<trkpt lat="53.189021" lon="-1.714110"><ele>163</ele><time>2020-01-31T10:41:39Z</time><name>PT1931</name></trkpt>
<trkpt lat="53.189020" lon="-1.714133"><ele>164</ele><time>2020-01-31T10:41:40Z</time><name>PT1932</name></trkpt>
<trkpt lat="53.189022" lon="-1.714149"><ele>164</ele><time>2020-01-31T10:41:42Z</time><name>PT1933</name></trkpt>
<trkpt lat="53.189023" lon="-1.714164"><ele>165</ele><time>2020-01-31T10:41:42Z</time><name>PT1934</name></trkpt>
<trkpt lat="53.189024" lon="-1.714190"><ele>166</ele><time>2020-01-31T10:41:43Z</time><name>PT1935</name></trkpt>
<trkpt lat="53.189032" lon="-1.714202"><ele>165</ele><time>2020-01-31T10:41:45Z</time><name>PT1936</name></trkpt>
<trkpt lat="53.189028" lon="-1.714211"><ele>165</ele><time>2020-01-31T10:41:45Z</time><name>PT1937</name></trkpt>
<trkpt lat="53.189030" lon="-1.714224"><ele>166</ele><time>2020-01-31T10:41:46Z</time><name>PT1938</name></trkpt>
<trkpt lat="53.189026" lon="-1.714245"><ele>167</ele><time>2020-01-31T10:41:48Z</time><name>PT1939</name></trkpt>
<trkpt lat="53.189029" lon="-1.714252"><ele>165</ele><time>2020-01-31T10:41:48Z</time><name>PT1940</name></trkpt>
<trkpt lat="53.189029" lon="-1.714267"><ele>165</ele><time>2020-01-31T10:41:49Z</time><name>PT1941</name></trkpt>
<trkpt lat="53.189029" lon="-1.714289"><ele>166</ele><time>2020-01-31T10:41:51Z</time><name>PT1942</name></trkpt>
<trkpt lat="53.189032" lon="-1.714312"><ele>165</ele><time>2020-01-31T10:41:51Z</time><name>PT1943</name></trkpt>
<trkpt lat="53.189035" lon="-1.714329"><ele>165</ele><time>2020-01-31T10:41:52Z</time><name>PT1944</name></trkpt>
<trkpt lat="53.189037" lon="-1.714345"><ele>164</ele><time>2020-01-31T10:41:54Z</time><name>PT1945</name></trkpt>
<trkpt lat="53.189038" lon="-1.714372"><ele>162</ele><time>2020-01-31T10:41:54Z</time><name>PT1946</name></trkpt>
<trkpt lat="53.189043" lon="-1.714394"><ele>161</ele><time>2020-01-31T10:41:55Z</time><name>PT1947</name></trkpt>
<trkpt lat="53.189038" lon="-1.714427"><ele>164</ele><time>2020-01-31T10:41:57Z</time><name>PT1948</name></trkpt>
<trkpt lat="53.189042" lon="-1.714451"><ele>165</ele><time>2020-01-31T10:41:57Z</time><name>PT1949</name></trkpt>
<trkpt lat="53.189038" lon="-1.714489"><ele>167</ele><time>2020-01-31T10:41:58Z</time><name>PT1950</name></trkpt>
<trkpt lat="53.189034" lon="-1.714512"><ele>168</ele><time>2020-01-31T10:42:00Z</time><name>PT1951</name></trkpt>
<trkpt lat="53.189039" lon="-1.714531"><ele>169</ele><time>2020-01-31T10:42:00Z</time><name>PT1952</name></trkpt>
<trkpt lat="53.189042" lon="-1.714551"><ele>169</ele><time>2020-01-31T10:42:02Z</time><name>PT1953</name></trkpt>
<trkpt lat="53.189045" lon="-1.714564"><ele>170</ele><time>2020-01-31T10:42:03Z</time><name>PT1954</name></trkpt>
<trkpt lat="53.189053" lon="-1.714571"><ele>170</ele><time>2020-01-31T10:42:03Z</time><name>PT1955</name></trkpt>
<trkpt lat="53.189057" lon="-1.714587"><ele>171</ele><time>2020-01-31T10:42:04Z</time><name>PT1956</name></trkpt>
<trkpt lat="53.189058" lon="-1.714605"><ele>171</ele><time>2020-01-31T10:42:06Z</time><name>PT1957</name></trkpt>
<trkpt lat="53.189058" lon="-1.714625"><ele>171</ele><time>2020-01-31T10:42:06Z</time><name>PT1958</name></trkpt>
<trkpt lat="53.189055" lon="-1.714646"><ele>172</ele><time>2020-01-31T10:42:07Z</time><name>PT1959</name></trkpt>
<trkpt lat="53.189054" lon="-1.714656"><ele>170</ele><time>2020-01-31T10:42:09Z</time><name>PT1960</name></trkpt>
<trkpt lat="53.189053" lon="-1.714674"><ele>170</ele><time>2020-01-31T10:42:09Z</time><name>PT1961</name></trkpt>
<trkpt lat="53.189053" lon="-1.714694"><ele>171</ele><time>2020-01-31T10:42:10Z</time><name>PT1962</name></trkpt>
<trkpt lat="53.189056" lon="-1.714720"><ele>172</ele><time>2020-01-31T10:42:12Z</time><name>PT1963</name></trkpt>
<trkpt lat="53.189058" lon="-1.714733"><ele>172</ele><time>2020-01-31T10:42:12Z</time><name>PT1964</name></trkpt>
<trkpt lat="53.189058" lon="-1.714759"><ele>172</ele><time>2020-01-31T10:42:13Z</time><name>PT1965</name></trkpt>
<trkpt lat="53.189056" lon="-1.714772"><ele>173</ele><time>2020-01-31T10:42:15Z</time><name>PT1966</name></trkpt>
<trkpt lat="53.189064" lon="-1.714784"><ele>173</ele><time>2020-01-31T10:42:15Z</time><name>PT1967</name></trkpt>
<trkpt lat="53.189061" lon="-1.714796"><ele>176</ele><time>2020-01-31T10:42:16Z</time><name>PT1968</name></trkpt>
<trkpt lat="53.189065" lon="-1.714817"><ele>176</ele><time>2020-01-31T10:42:18Z</time><name>PT1969</name></trkpt>
<trkpt lat="53.189066" lon="-1.714837"><ele>178</ele><time>2020-01-31T10:42:18Z</time><name>PT1970</name></trkpt>
<trkpt lat="53.189059" lon="-1.714870"><ele>179</ele><time>2020-01-31T10:42:19Z</time><name>PT1971</name></trkpt>
<trkpt lat="53.189055" lon="-1.714902"><ele>180</ele><time>2020-01-31T10:42:21Z</time><name>PT1972</name></trkpt>
<trkpt lat="53.189054" lon="-1.714930"><ele>181</ele><time>2020-01-31T10:42:21Z</time><name>PT1973</name></trkpt>
<trkpt lat="53.189051" lon="-1.714953"><ele>181</ele><time>2020-01-31T10:42:22Z</time><name>PT1974</name></trkpt>
<trkpt lat="53.189046" lon="-1.714976"><ele>182</ele><time>2020-01-31T10:42:24Z</time><name>PT1975</name></trkpt>
<trkpt lat="53.189048" lon="-1.714994"><ele>182</ele><time>2020-01-31T10:42:24Z</time><name>PT1976</name></trkpt>
<trkpt lat="53.189045" lon="-1.715019"><ele>182</ele><time>2020-01-31T10:42:25Z</time><name>PT1977</name></trkpt>
<trkpt lat="53.189045" lon="-1.715053"><ele>181</ele><time>2020-01-31T10:42:27Z</time><name>PT1978</name></trkpt>
<trkpt lat="53.189044" lon="-1.715077"><ele>180</ele><time>2020-01-31T10:42:27Z</time><name>PT1979</name></trkpt>
<trkpt lat="53.189042" lon="-1.715118"><ele>178</ele><time>2020-01-31T10:42:29Z</time><name>PT1980</name></trkpt>
<trkpt lat="53.189041" lon="-1.715136"><ele>178</ele><time>2020-01-31T10:42:30Z</time><name>PT1981</name></trkpt>
<trkpt lat="53.189039" lon="-1.715145"><ele>178</ele><time>2020-01-31T10:42:30Z</time><name>PT1982</name></trkpt>
<trkpt lat="53.189035" lon="-1.715158"><ele>177</ele><time>2020-01-31T10:42:31Z</time><name>PT1983</name></trkpt>
<trkpt lat="53.189033" lon="-1.715164"><ele>177</ele><time>2020-01-31T10:42:33Z</time><name>PT1984</name></trkpt>
<trkpt lat="53.189038" lon="-1.715185"><ele>177</ele><time>2020-01-31T10:42:36Z</time><name>PT1985</name></trkpt>
<trkpt lat="53.189042" lon="-1.715215"><ele>176</ele><time>2020-01-31T10:42:37Z</time><name>PT1986</name></trkpt>
<trkpt lat="53.189039" lon="-1.715250"><ele>175</ele><time>2020-01-31T10:42:39Z</time><name>PT1987</name></trkpt>
<trkpt lat="53.189038" lon="-1.715270"><ele>176</ele><time>2020-01-31T10:42:39Z</time><name>PT1988</name></trkpt>
<trkpt lat="53.189043" lon="-1.715303"><ele>176</ele><time>2020-01-31T10:42:40Z</time><name>PT1989</name></trkpt>
<trkpt lat="53.189055" lon="-1.715331"><ele>177</ele><time>2020-01-31T10:42:42Z</time><name>PT1990</name></trkpt>
<trkpt lat="53.189056" lon="-1.715351"><ele>177</ele><time>2020-01-31T10:42:42Z</time><name>PT1991</name></trkpt>
<trkpt lat="53.189056" lon="-1.715377"><ele>177</ele><time>2020-01-31T10:42:43Z</time><name>PT1992</name></trkpt>
<trkpt lat="53.189056" lon="-1.715400"><ele>177</ele><time>2020-01-31T10:42:45Z</time><name>PT1993</name></trkpt>
<trkpt lat="53.189052" lon="-1.715422"><ele>178</ele><time>2020-01-31T10:42:45Z</time><name>PT1994</name></trkpt>
<trkpt lat="53.189052" lon="-1.715446"><ele>178</ele><time>2020-01-31T10:42:46Z</time><name>PT1995</name></trkpt>
<trkpt lat="53.189058" lon="-1.715462"><ele>177</ele><time>2020-01-31T10:42:48Z</time><name>PT1996</name></trkpt>
<trkpt lat="53.189063" lon="-1.715484"><ele>176</ele><time>2020-01-31T10:42:48Z</time><name>PT1997</name></trkpt>
<trkpt lat="53.189063" lon="-1.715507"><ele>176</ele><time>2020-01-31T10:42:49Z</time><name>PT1998</name></trkpt>
<trkpt lat="53.189063" lon="-1.715528"><ele>174</ele><time>2020-01-31T10:42:51Z</time><name>PT1999</name></trkpt>
<trkpt lat="53.189065" lon="-1.715552"><ele>173</ele><time>2020-01-31T10:42:51Z</time><name>PT2000</name></trkpt>
<trkpt lat="53.189066" lon="-1.715568"><ele>171</ele><time>2020-01-31T10:42:52Z</time><name>PT2001</name></trkpt>
<trkpt lat="53.189079" lon="-1.715581"><ele>170</ele><time>2020-01-31T10:42:54Z</time><name>PT2002</name></trkpt>
<trkpt lat="53.189086" lon="-1.715601"><ele>169</ele><time>2020-01-31T10:42:54Z</time><name>PT2003</name></trkpt>
<trkpt lat="53.189093" lon="-1.715621"><ele>168</ele><time>2020-01-31T10:42:55Z</time><name>PT2004</name></trkpt>
<trkpt lat="53.189096" lon="-1.715639"><ele>168</ele><time>2020-01-31T10:42:57Z</time><name>PT2005</name></trkpt>
<trkpt lat="53.189096" lon="-1.715661"><ele>167</ele><time>2020-01-31T10:42:57Z</time><name>PT2006</name></trkpt>
<trkpt lat="53.189094" lon="-1.715684"><ele>166</ele><time>2020-01-31T10:42:58Z</time><name>PT2007</name></trkpt>
<trkpt lat="53.189088" lon="-1.715713"><ele>166</ele><time>2020-01-31T10:43:00Z</time><name>PT2008</name></trkpt>
<trkpt lat="53.189086" lon="-1.715735"><ele>165</ele><time>2020-01-31T10:43:00Z</time><name>PT2009</name></trkpt>
<trkpt lat="53.189081" lon="-1.715753"><ele>165</ele><time>2020-01-31T10:43:01Z</time><name>PT2010</name></trkpt>
<trkpt lat="53.189077" lon="-1.715775"><ele>168</ele><time>2020-01-31T10:43:03Z</time><name>PT2011</name></trkpt>
<trkpt lat="53.189080" lon="-1.715797"><ele>168</ele><time>2020-01-31T10:43:03Z</time><name>PT2012</name></trkpt>
<trkpt lat="53.189077" lon="-1.715818"><ele>168</ele><time>2020-01-31T10:43:04Z</time><name>PT2013</name></trkpt>
<trkpt lat="53.189081" lon="-1.715852"><ele>165</ele><time>2020-01-31T10:43:06Z</time><name>PT2014</name></trkpt>
<trkpt lat="53.189086" lon="-1.715867"><ele>165</ele><time>2020-01-31T10:43:06Z</time><name>PT2015</name></trkpt>
<trkpt lat="53.189094" lon="-1.715882"><ele>164</ele><time>2020-01-31T10:43:07Z</time><name>PT2016</name></trkpt>
<trkpt lat="53.189091" lon="-1.715911"><ele>162</ele><time>2020-01-31T10:43:09Z</time><name>PT2017</name></trkpt>
<trkpt lat="53.189093" lon="-1.715943"><ele>161</ele><time>2020-01-31T10:43:09Z</time><name>PT2018</name></trkpt>
<trkpt lat="53.189095" lon="-1.715962"><ele>162</ele><time>2020-01-31T10:43:10Z</time><name>PT2019</name></trkpt>
<trkpt lat="53.189096" lon="-1.715981"><ele>160</ele><time>2020-01-31T10:43:12Z</time><name>PT2020</name></trkpt>
<trkpt lat="53.189098" lon="-1.715998"><ele>160</ele><time>2020-01-31T10:43:12Z</time><name>PT2021</name></trkpt>
<trkpt lat="53.189094" lon="-1.716019"><ele>161</ele><time>2020-01-31T10:43:13Z</time><name>PT2022</name></trkpt>
<trkpt lat="53.189088" lon="-1.716041"><ele>162</ele><time>2020-01-31T10:43:15Z</time><name>PT2023</name></trkpt>
<trkpt lat="53.189084" lon="-1.716068"><ele>162</ele><time>2020-01-31T10:43:15Z</time><name>PT2024</name></trkpt>
<trkpt lat="53.189080" lon="-1.716095"><ele>161</ele><time>2020-01-31T10:43:16Z</time><name>PT2025</name></trkpt>
<trkpt lat="53.189083" lon="-1.716119"><ele>161</ele><time>2020-01-31T10:43:18Z</time><name>PT2026</name></trkpt>
<trkpt lat="53.189083" lon="-1.716130"><ele>161</ele><time>2020-01-31T10:43:18Z</time><name>PT2027</name></trkpt>
<trkpt lat="53.189082" lon="-1.716150"><ele>162</ele><time>2020-01-31T10:43:19Z</time><name>PT2028</name></trkpt>
<trkpt lat="53.189083" lon="-1.716173"><ele>163</ele><time>2020-01-31T10:43:21Z</time><name>PT2029</name></trkpt>
<trkpt lat="53.189079" lon="-1.716199"><ele>166</ele><time>2020-01-31T10:43:21Z</time><name>PT2030</name></trkpt>
<trkpt lat="53.189078" lon="-1.716220"><ele>165</ele><time>2020-01-31T10:43:22Z</time><name>PT2031</name></trkpt>
<trkpt lat="53.189078" lon="-1.716237"><ele>164</ele><time>2020-01-31T10:43:24Z</time><name>PT2032</name></trkpt>
<trkpt lat="53.189078" lon="-1.716261"><ele>163</ele><time>2020-01-31T10:43:24Z</time><name>PT2033</name></trkpt>
<trkpt lat="53.189074" lon="-1.716283"><ele>164</ele><time>2020-01-31T10:43:25Z</time><name>PT2034</name></trkpt>
<trkpt lat="53.189074" lon="-1.716303"><ele>162</ele><time>2020-01-31T10:43:27Z</time><name>PT2035</name></trkpt>
<trkpt lat="53.189075" lon="-1.716318"><ele>164</ele><time>2020-01-31T10:43:27Z</time><name>PT2036</name></trkpt>
<trkpt lat="53.189075" lon="-1.716336"><ele>164</ele><time>2020-01-31T10:43:28Z</time><name>PT2037</name></trkpt>
<trkpt lat="53.189074" lon="-1.716357"><ele>164</ele><time>2020-01-31T10:43:30Z</time><name>PT2038</name></trkpt>
<trkpt lat="53.189077" lon="-1.716376"><ele>164</ele><time>2020-01-31T10:43:30Z</time><name>PT2039</name></trkpt>
<trkpt lat="53.189075" lon="-1.716398"><ele>164</ele><time>2020-01-31T10:43:31Z</time><name>PT2040</name></trkpt>
<trkpt lat="53.189078" lon="-1.716426"><ele>161</ele><time>2020-01-31T10:43:33Z</time><name>PT2041</name></trkpt>
<trkpt lat="53.189072" lon="-1.716454"><ele>162</ele><time>2020-01-31T10:43:33Z</time><name>PT2042</name></trkpt>
<trkpt lat="53.189068" lon="-1.716478"><ele>162</ele><time>2020-01-31T10:43:34Z</time><name>PT2043</name></trkpt>
<trkpt lat="53.189062" lon="-1.716506"><ele>163</ele><time>2020-01-31T10:43:36Z</time><name>PT2044</name></trkpt>
<trkpt lat="53.189065" lon="-1.716532"><ele>165</ele><time>2020-01-31T10:43:36Z</time><name>PT2045</name></trkpt>
<trkpt lat="53.189071" lon="-1.716554"><ele>166</ele><time>2020-01-31T10:43:37Z</time><name>PT2046</name></trkpt>
<trkpt lat="53.189072" lon="-1.716578"><ele>167</ele><time>2020-01-31T10:43:39Z</time><name>PT2047</name></trkpt>
<trkpt lat="53.189070" lon="-1.716604"><ele>167</ele><time>2020-01-31T10:43:39Z</time><name>PT2048</name></trkpt>
<trkpt lat="53.189064" lon="-1.716631"><ele>167</ele><time>2020-01-31T10:43:40Z</time><name>PT2049</name></trkpt>
<trkpt lat="53.189064" lon="-1.716647"><ele>168</ele><time>2020-01-31T10:43:42Z</time><name>PT2050</name></trkpt>
<trkpt lat="53.189060" lon="-1.716670"><ele>168</ele><time>2020-01-31T10:43:42Z</time><name>PT2051</name></trkpt>
<trkpt lat="53.189068" lon="-1.716692"><ele>167</ele><time>2020-01-31T10:43:43Z</time><name>PT2052</name></trkpt>
<trkpt lat="53.189075" lon="-1.716714"><ele>166</ele><time>2020-01-31T10:43:45Z</time><name>PT2053</name></trkpt>
<trkpt lat="53.189080" lon="-1.716734"><ele>167</ele><time>2020-01-31T10:43:45Z</time><name>PT2054</name></trkpt>
<trkpt lat="53.189081" lon="-1.716751"><ele>167</ele><time>2020-01-31T10:43:46Z</time><name>PT2055</name></trkpt>
<trkpt lat="53.189083" lon="-1.716782"><ele>165</ele><time>2020-01-31T10:43:48Z</time><name>PT2056</name></trkpt>
<trkpt lat="53.189084" lon="-1.716806"><ele>166</ele><time>2020-01-31T10:43:48Z</time><name>PT2057</name></trkpt>
<trkpt lat="53.189082" lon="-1.716830"><ele>166</ele><time>2020-01-31T10:43:49Z</time><name>PT2058</name></trkpt>
<trkpt lat="53.189082" lon="-1.716852"><ele>167</ele><time>2020-01-31T10:43:51Z</time><name>PT2059</name></trkpt>
<trkpt lat="53.189082" lon="-1.716874"><ele>166</ele><time>2020-01-31T10:43:51Z</time><name>PT2060</name></trkpt>
<trkpt lat="53.189086" lon="-1.716894"><ele>166</ele><time>2020-01-31T10:43:52Z</time><name>PT2061</name></trkpt>
<trkpt lat="53.189092" lon="-1.716913"><ele>165</ele><time>2020-01-31T10:43:54Z</time><name>PT2062</name></trkpt>
<trkpt lat="53.189093" lon="-1.716931"><ele>166</ele><time>2020-01-31T10:43:54Z</time><name>PT2063</name></trkpt>
<trkpt lat="53.189095" lon="-1.716949"><ele>166</ele><time>2020-01-31T10:43:55Z</time><name>PT2064</name></trkpt>
<trkpt lat="53.189094" lon="-1.716977"><ele>168</ele><time>2020-01-31T10:43:57Z</time><name>PT2065</name></trkpt>
<trkpt lat="53.189093" lon="-1.717000"><ele>169</ele><time>2020-01-31T10:43:57Z</time><name>PT2066</name></trkpt>
<trkpt lat="53.189085" lon="-1.717025"><ele>170</ele><time>2020-01-31T10:43:58Z</time><name>PT2067</name></trkpt>
<trkpt lat="53.189086" lon="-1.717049"><ele>170</ele><time>2020-01-31T10:44:00Z</time><name>PT2068</name></trkpt>
<trkpt lat="53.189085" lon="-1.717083"><ele>172</ele><time>2020-01-31T10:44:00Z</time><name>PT2069</name></trkpt>
<trkpt lat="53.189082" lon="-1.717106"><ele>172</ele><time>2020-01-31T10:44:01Z</time><name>PT2070</name></trkpt>
<trkpt lat="53.189081" lon="-1.717124"><ele>172</ele><time>2020-01-31T10:44:03Z</time><name>PT2071</name></trkpt>
<trkpt lat="53.189083" lon="-1.717150"><ele>172</ele><time>2020-01-31T10:44:03Z</time><name>PT2072</name></trkpt>
<trkpt lat="53.189084" lon="-1.717178"><ele>172</ele><time>2020-01-31T10:44:04Z</time><name>PT2073</name></trkpt>
<trkpt lat="53.189079" lon="-1.717205"><ele>173</ele><time>2020-01-31T10:44:06Z</time><name>PT2074</name></trkpt>
<trkpt lat="53.189070" lon="-1.717236"><ele>171</ele><time>2020-01-31T10:44:06Z</time><name>PT2075</name></trkpt>
<trkpt lat="53.189062" lon="-1.717263"><ele>171</ele><time>2020-01-31T10:44:07Z</time><name>PT2076</name></trkpt>
<trkpt lat="53.189058" lon="-1.717286"><ele>171</ele><time>2020-01-31T10:44:09Z</time><name>PT2077</name></trkpt>
<trkpt lat="53.189057" lon="-1.717305"><ele>172</ele><time>2020-01-31T10:44:09Z</time><name>PT2078</name></trkpt>
<trkpt lat="53.189058" lon="-1.717323"><ele>172</ele><time>2020-01-31T10:44:10Z</time><name>PT2079</name></trkpt>
<trkpt lat="53.189059" lon="-1.717345"><ele>172</ele><time>2020-01-31T10:44:12Z</time><name>PT2080</name></trkpt>
<trkpt lat="53.189064" lon="-1.717364"><ele>171</ele><time>2020-01-31T10:44:12Z</time><name>PT2081</name></trkpt>
<trkpt lat="53.189064" lon="-1.717385"><ele>170</ele><time>2020-01-31T10:44:13Z</time><name>PT2082</name></trkpt>
<trkpt lat="53.189061" lon="-1.717403"><ele>169</ele><time>2020-01-31T10:44:15Z</time><name>PT2083</name></trkpt>
<trkpt lat="53.189062" lon="-1.717416"><ele>169</ele><time>2020-01-31T10:44:15Z</time><name>PT2084</name></trkpt>
<trkpt lat="53.189063" lon="-1.717435"><ele>168</ele><time>2020-01-31T10:44:16Z</time><name>PT2085</name></trkpt>
<trkpt lat="53.189063" lon="-1.717454"><ele>169</ele><time>2020-01-31T10:44:18Z</time><name>PT2086</name></trkpt>
<trkpt lat="53.189058" lon="-1.717472"><ele>169</ele><time>2020-01-31T10:44:18Z</time><name>PT2087</name></trkpt>
<trkpt lat="53.189056" lon="-1.717497"><ele>169</ele><time>2020-01-31T10:44:19Z</time><name>PT2088</name></trkpt>
<trkpt lat="53.189056" lon="-1.717515"><ele>169</ele><time>2020-01-31T10:44:21Z</time><name>PT2089</name></trkpt>
<trkpt lat="53.189054" lon="-1.717530"><ele>169</ele><time>2020-01-31T10:44:21Z</time><name>PT2090</name></trkpt>
<trkpt lat="53.189054" lon="-1.717547"><ele>169</ele><time>2020-01-31T10:44:22Z</time><name>PT2091</name></trkpt>
<trkpt lat="53.189052" lon="-1.717561"><ele>168</ele><time>2020-01-31T10:44:24Z</time><name>PT2092</name></trkpt>
<trkpt lat="53.189051" lon="-1.717580"><ele>168</ele><time>2020-01-31T10:44:24Z</time><name>PT2093</name></trkpt>
<trkpt lat="53.189045" lon="-1.717599"><ele>169</ele><time>2020-01-31T10:44:25Z</time><name>PT2094</name></trkpt>
<trkpt lat="53.189037" lon="-1.717619"><ele>169</ele><time>2020-01-31T10:44:27Z</time><name>PT2095</name></trkpt>
<trkpt lat="53.189034" lon="-1.717634"><ele>169</ele><time>2020-01-31T10:44:27Z</time><name>PT2096</name></trkpt>
<trkpt lat="53.189036" lon="-1.717646"><ele>170</ele><time>2020-01-31T10:44:28Z</time><name>PT2097</name></trkpt>
<trkpt lat="53.189028" lon="-1.717667"><ele>172</ele><time>2020-01-31T10:44:30Z</time><name>PT2098</name></trkpt>
<trkpt lat="53.189032" lon="-1.717684"><ele>172</ele><time>2020-01-31T10:44:30Z</time><name>PT2099</name></trkpt>
<trkpt lat="53.189034" lon="-1.717694"><ele>172</ele><time>2020-01-31T10:44:31Z</time><name>PT2100</name></trkpt>
<trkpt lat="53.189034" lon="-1.717703"><ele>173</ele><time>2020-01-31T10:44:33Z</time><name>PT2101</name></trkpt>
<trkpt lat="53.189033" lon="-1.717722"><ele>172</ele><time>2020-01-31T10:44:33Z</time><name>PT2102</name></trkpt>
<trkpt lat="53.189032" lon="-1.717739"><ele>171</ele><time>2020-01-31T10:44:35Z</time><name>PT2103</name></trkpt>
<trkpt lat="53.189028" lon="-1.717758"><ele>172</ele><time>2020-01-31T10:44:36Z</time><name>PT2104</name></trkpt>
<trkpt lat="53.189025" lon="-1.717787"><ele>173</ele><time>2020-01-31T10:44:36Z</time><name>PT2105</name></trkpt>
<trkpt lat="53.189020" lon="-1.717810"><ele>173</ele><time>2020-01-31T10:44:37Z</time><name>PT2106</name></trkpt>
<trkpt lat="53.189018" lon="-1.717836"><ele>171</ele><time>2020-01-31T10:44:39Z</time><name>PT2107</name></trkpt>
<trkpt lat="53.189018" lon="-1.717854"><ele>171</ele><time>2020-01-31T10:44:39Z</time><name>PT2108</name></trkpt>
<trkpt lat="53.189018" lon="-1.717872"><ele>171</ele><time>2020-01-31T10:44:40Z</time><name>PT2109</name></trkpt>
<trkpt lat="53.189017" lon="-1.717892"><ele>172</ele><time>2020-01-31T10:44:42Z</time><name>PT2110</name></trkpt>
<trkpt lat="53.189022" lon="-1.717909"><ele>170</ele><time>2020-01-31T10:44:42Z</time><name>PT2111</name></trkpt>
<trkpt lat="53.189022" lon="-1.717927"><ele>171</ele><time>2020-01-31T10:44:43Z</time><name>PT2112</name></trkpt>
<trkpt lat="53.189025" lon="-1.717949"><ele>170</ele><time>2020-01-31T10:44:45Z</time><name>PT2113</name></trkpt>
<trkpt lat="53.189028" lon="-1.717969"><ele>169</ele><time>2020-01-31T10:44:45Z</time><name>PT2114</name></trkpt>
<trkpt lat="53.189027" lon="-1.717989"><ele>170</ele><time>2020-01-31T10:44:46Z</time><name>PT2115</name></trkpt>
<trkpt lat="53.189037" lon="-1.717996"><ele>169</ele><time>2020-01-31T10:44:48Z</time><name>PT2116</name></trkpt>
<trkpt lat="53.189039" lon="-1.718015"><ele>169</ele><time>2020-01-31T10:44:48Z</time><name>PT2117</name></trkpt>
<trkpt lat="53.189040" lon="-1.718038"><ele>170</ele><time>2020-01-31T10:44:49Z</time><name>PT2118</name></trkpt>
<trkpt lat="53.189040" lon="-1.718045"><ele>171</ele><time>2020-01-31T10:44:51Z</time><name>PT2119</name></trkpt>
<trkpt lat="53.189044" lon="-1.718057"><ele>170</ele><time>2020-01-31T10:44:51Z</time><name>PT2120</name></trkpt>
<trkpt lat="53.189047" lon="-1.718072"><ele>170</ele><time>2020-01-31T10:44:52Z</time><name>PT2121</name></trkpt>
<trkpt lat="53.189052" lon="-1.718094"><ele>169</ele><time>2020-01-31T10:44:54Z</time><name>PT2122</name></trkpt>
<trkpt lat="53.189042" lon="-1.718118"><ele>169</ele><time>2020-01-31T10:44:54Z</time><name>PT2123</name></trkpt>
<trkpt lat="53.189043" lon="-1.718134"><ele>169</ele><time>2020-01-31T10:44:55Z</time><name>PT2124</name></trkpt>
<trkpt lat="53.189049" lon="-1.718157"><ele>168</ele><time>2020-01-31T10:44:57Z</time><name>PT2125</name></trkpt>
<trkpt lat="53.189049" lon="-1.718181"><ele>169</ele><time>2020-01-31T10:44:57Z</time><name>PT2126</name></trkpt>
<trkpt lat="53.189056" lon="-1.718199"><ele>167</ele><time>2020-01-31T10:44:58Z</time><name>PT2127</name></trkpt>
<trkpt lat="53.189059" lon="-1.718217"><ele>168</ele><time>2020-01-31T10:45:00Z</time><name>PT2128</name></trkpt>
<trkpt lat="53.189059" lon="-1.718227"><ele>168</ele><time>2020-01-31T10:45:00Z</time><name>PT2129</name></trkpt>
<trkpt lat="53.189062" lon="-1.718246"><ele>168</ele><time>2020-01-31T10:45:01Z</time><name>PT2130</name></trkpt>
<trkpt lat="53.189065" lon="-1.718270"><ele>169</ele><time>2020-01-31T10:45:03Z</time><name>PT2131</name></trkpt>
<trkpt lat="53.189067" lon="-1.718288"><ele>168</ele><time>2020-01-31T10:45:03Z</time><name>PT2132</name></trkpt>
<trkpt lat="53.189071" lon="-1.718320"><ele>167</ele><time>2020-01-31T10:45:04Z</time><name>PT2133</name></trkpt>
<trkpt lat="53.189071" lon="-1.718344"><ele>167</ele><time>2020-01-31T10:45:06Z</time><name>PT2134</name></trkpt>
<trkpt lat="53.189062" lon="-1.718377"><ele>168</ele><time>2020-01-31T10:45:06Z</time><name>PT2135</name></trkpt>
<trkpt lat="53.189061" lon="-1.718402"><ele>168</ele><time>2020-01-31T10:45:07Z</time><name>PT2136</name></trkpt>
<trkpt lat="53.189061" lon="-1.718420"><ele>168</ele><time>2020-01-31T10:45:09Z</time><name>PT2137</name></trkpt>
<trkpt lat="53.189060" lon="-1.718441"><ele>167</ele><time>2020-01-31T10:45:09Z</time><name>PT2138</name></trkpt>
<trkpt lat="53.189059" lon="-1.718468"><ele>168</ele><time>2020-01-31T10:45:10Z</time><name>PT2139</name></trkpt>
<trkpt lat="53.189059" lon="-1.718488"><ele>168</ele><time>2020-01-31T10:45:12Z</time><name>PT2140</name></trkpt>
<trkpt lat="53.189061" lon="-1.718510"><ele>167</ele><time>2020-01-31T10:45:12Z</time><name>PT2141</name></trkpt>
<trkpt lat="53.189059" lon="-1.718525"><ele>168</ele><time>2020-01-31T10:45:13Z</time><name>PT2142</name></trkpt>
<trkpt lat="53.189060" lon="-1.718540"><ele>168</ele><time>2020-01-31T10:45:15Z</time><name>PT2143</name></trkpt>
<trkpt lat="53.189059" lon="-1.718556"><ele>168</ele><time>2020-01-31T10:45:15Z</time><name>PT2144</name></trkpt>
<trkpt lat="53.189060" lon="-1.718573"><ele>169</ele><time>2020-01-31T10:45:16Z</time><name>PT2145</name></trkpt>
<trkpt lat="53.189062" lon="-1.718593"><ele>170</ele><time>2020-01-31T10:45:18Z</time><name>PT2146</name></trkpt>
<trkpt lat="53.189061" lon="-1.718610"><ele>170</ele><time>2020-01-31T10:45:18Z</time><name>PT2147</name></trkpt>
<trkpt lat="53.189058" lon="-1.718622"><ele>170</ele><time>2020-01-31T10:45:19Z</time><name>PT2148</name></trkpt>
<trkpt lat="53.189053" lon="-1.718657"><ele>171</ele><time>2020-01-31T10:45:21Z</time><name>PT2149</name></trkpt>
<trkpt lat="53.189045" lon="-1.718687"><ele>172</ele><time>2020-01-31T10:45:21Z</time><name>PT2150</name></trkpt>
<trkpt lat="53.189047" lon="-1.718707"><ele>171</ele><time>2020-01-31T10:45:22Z</time><name>PT2151</name></trkpt>
<trkpt lat="53.189051" lon="-1.718721"><ele>171</ele><time>2020-01-31T10:45:24Z</time><name>PT2152</name></trkpt>
<trkpt lat="53.189056" lon="-1.718740"><ele>171</ele><time>2020-01-31T10:45:24Z</time><name>PT2153</name></trkpt>
<trkpt lat="53.189058" lon="-1.718760"><ele>172</ele><time>2020-01-31T10:45:25Z</time><name>PT2154</name></trkpt>
<trkpt lat="53.189063" lon="-1.718788"><ele>174</ele><time>2020-01-31T10:45:27Z</time><name>PT2155</name></trkpt>
<trkpt lat="53.189063" lon="-1.718811"><ele>173</ele><time>2020-01-31T10:45:27Z</time><name>PT2156</name></trkpt>
<trkpt lat="53.189053" lon="-1.718832"><ele>173</ele><time>2020-01-31T10:45:28Z</time><name>PT2157</name></trkpt>
<trkpt lat="53.189056" lon="-1.718849"><ele>174</ele><time>2020-01-31T10:45:30Z</time><name>PT2158</name></trkpt>
<trkpt lat="53.189055" lon="-1.718872"><ele>175</ele><time>2020-01-31T10:45:30Z</time><name>PT2159</name></trkpt>
<trkpt lat="53.189057" lon="-1.718895"><ele>177</ele><time>2020-01-31T10:45:31Z</time><name>PT2160</name></trkpt>
<trkpt lat="53.189050" lon="-1.718930"><ele>178</ele><time>2020-01-31T10:45:33Z</time><name>PT2161</name></trkpt>
<trkpt lat="53.189047" lon="-1.718949"><ele>177</ele><time>2020-01-31T10:45:33Z</time><name>PT2162</name></trkpt>
<trkpt lat="53.189050" lon="-1.718965"><ele>175</ele><time>2020-01-31T10:45:34Z</time><name>PT2163</name></trkpt>
<trkpt lat="53.189051" lon="-1.718988"><ele>177</ele><time>2020-01-31T10:45:36Z</time><name>PT2164</name></trkpt>
<trkpt lat="53.189051" lon="-1.719011"><ele>179</ele><time>2020-01-31T10:45:36Z</time><name>PT2165</name></trkpt>
<trkpt lat="53.189047" lon="-1.719010"><ele>179</ele><time>2020-01-31T10:45:37Z</time><name>PT2166</name></trkpt>
<trkpt lat="53.189048" lon="-1.719021"><ele>180</ele><time>2020-01-31T10:45:39Z</time><name>PT2167</name></trkpt>
<trkpt lat="53.189047" lon="-1.719040"><ele>180</ele><time>2020-01-31T10:45:39Z</time><name>PT2168</name></trkpt>
<trkpt lat="53.189045" lon="-1.719053"><ele>180</ele><time>2020-01-31T10:45:40Z</time><name>PT2169</name></trkpt>
<trkpt lat="53.189044" lon="-1.719064"><ele>181</ele><time>2020-01-31T10:45:42Z</time><name>PT2170</name></trkpt>
<trkpt lat="53.189042" lon="-1.719077"><ele>181</ele><time>2020-01-31T10:45:42Z</time><name>PT2171</name></trkpt>
<trkpt lat="53.189050" lon="-1.719094"><ele>182</ele><time>2020-01-31T10:45:43Z</time><name>PT2172</name></trkpt>
<trkpt lat="53.189048" lon="-1.719110"><ele>180</ele><time>2020-01-31T10:45:45Z</time><name>PT2173</name></trkpt>
<trkpt lat="53.189041" lon="-1.719140"><ele>179</ele><time>2020-01-31T10:45:45Z</time><name>PT2174</name></trkpt>
<trkpt lat="53.189038" lon="-1.719168"><ele>179</ele><time>2020-01-31T10:45:46Z</time><name>PT2175</name></trkpt>
<trkpt lat="53.189033" lon="-1.719185"><ele>178</ele><time>2020-01-31T10:45:48Z</time><name>PT2176</name></trkpt>
<trkpt lat="53.189029" lon="-1.719201"><ele>177</ele><time>2020-01-31T10:45:48Z</time><name>PT2177</name></trkpt>
<trkpt lat="53.189030" lon="-1.719223"><ele>178</ele><time>2020-01-31T10:45:49Z</time><name>PT2178</name></trkpt>
<trkpt lat="53.189029" lon="-1.719250"><ele>177</ele><time>2020-01-31T10:45:51Z</time><name>PT2179</name></trkpt>
<trkpt lat="53.189025" lon="-1.719272"><ele>176</ele><time>2020-01-31T10:45:51Z</time><name>PT2180</name></trkpt>
<trkpt lat="53.189022" lon="-1.719296"><ele>177</ele><time>2020-01-31T10:45:52Z</time><name>PT2181</name></trkpt>
<trkpt lat="53.189023" lon="-1.719312"><ele>176</ele><time>2020-01-31T10:45:54Z</time><name>PT2182</name></trkpt>
<trkpt lat="53.189019" lon="-1.719334"><ele>176</ele><time>2020-01-31T10:45:54Z</time><name>PT2183</name></trkpt>
<trkpt lat="53.189014" lon="-1.719367"><ele>178</ele><time>2020-01-31T10:45:55Z</time><name>PT2184</name></trkpt>
<trkpt lat="53.189013" lon="-1.719389"><ele>177</ele><time>2020-01-31T10:45:57Z</time><name>PT2185</name></trkpt>
<trkpt lat="53.188997" lon="-1.719404"><ele>180</ele><time>2020-01-31T10:45:57Z</time><name>PT2186</name></trkpt>
<trkpt lat="53.188988" lon="-1.719421"><ele>179</ele><time>2020-01-31T10:45:58Z</time><name>PT2187</name></trkpt>
<trkpt lat="53.188987" lon="-1.719441"><ele>178</ele><time>2020-01-31T10:46:00Z</time><name>PT2188</name></trkpt>
<trkpt lat="53.188990" lon="-1.719464"><ele>178</ele><time>2020-01-31T10:46:00Z</time><name>PT2189</name></trkpt>
<trkpt lat="53.188992" lon="-1.719493"><ele>177</ele><time>2020-01-31T10:46:01Z</time><name>PT2190</name></trkpt>
<trkpt lat="53.188992" lon="-1.719527"><ele>178</ele><time>2020-01-31T10:46:03Z</time><name>PT2191</name></trkpt>
<trkpt lat="53.188992" lon="-1.719543"><ele>176</ele><time>2020-01-31T10:46:03Z</time><name>PT2192</name></trkpt>
<trkpt lat="53.188987" lon="-1.719563"><ele>177</ele><time>2020-01-31T10:46:04Z</time><name>PT2193</name></trkpt>
<trkpt lat="53.188984" lon="-1.719590"><ele>175</ele><time>2020-01-31T10:46:06Z</time><name>PT2194</name></trkpt>
<trkpt lat="53.188983" lon="-1.719609"><ele>176</ele><time>2020-01-31T10:46:06Z</time><name>PT2195</name></trkpt>
<trkpt lat="53.188981" lon="-1.719631"><ele>177</ele><time>2020-01-31T10:46:07Z</time><name>PT2196</name></trkpt>
<trkpt lat="53.188976" lon="-1.719658"><ele>178</ele><time>2020-01-31T10:46:09Z</time><name>PT2197</name></trkpt>
<trkpt lat="53.188974" lon="-1.719681"><ele>178</ele><time>2020-01-31T10:46:09Z</time><name>PT2198</name></trkpt>
<trkpt lat="53.188966" lon="-1.719719"><ele>181</ele><time>2020-01-31T10:46:10Z</time><name>PT2199</name></trkpt>
<trkpt lat="53.188967" lon="-1.719745"><ele>180</ele><time>2020-01-31T10:46:12Z</time><name>PT2200</name></trkpt>
<trkpt lat="53.188973" lon="-1.719764"><ele>180</ele><time>2020-01-31T10:46:12Z</time><name>PT2201</name></trkpt>
<trkpt lat="53.188980" lon="-1.719776"><ele>179</ele><time>2020-01-31T10:46:13Z</time><name>PT2202</name></trkpt>
<trkpt lat="53.188984" lon="-1.719796"><ele>178</ele><time>2020-01-31T10:46:15Z</time><name>PT2203</name></trkpt>
<trkpt lat="53.188985" lon="-1.719814"><ele>178</ele><time>2020-01-31T10:46:15Z</time><name>PT2204</name></trkpt>
<trkpt lat="53.188985" lon="-1.719823"><ele>178</ele><time>2020-01-31T10:46:16Z</time><name>PT2205</name></trkpt>
<trkpt lat="53.188988" lon="-1.719845"><ele>176</ele><time>2020-01-31T10:46:18Z</time><name>PT2206</name></trkpt>
<trkpt lat="53.188991" lon="-1.719861"><ele>174</ele><time>2020-01-31T10:46:18Z</time><name>PT2207</name></trkpt>
<trkpt lat="53.188991" lon="-1.719876"><ele>175</ele><time>2020-01-31T10:46:19Z</time><name>PT2208</name></trkpt>
<trkpt lat="53.188980" lon="-1.719895"><ele>176</ele><time>2020-01-31T10:46:21Z</time><name>PT2209</name></trkpt>
<trkpt lat="53.188973" lon="-1.719926"><ele>179</ele><time>2020-01-31T10:46:21Z</time><name>PT2210</name></trkpt>
<trkpt lat="53.188968" lon="-1.719957"><ele>181</ele><time>2020-01-31T10:46:22Z</time><name>PT2211</name></trkpt>
<trkpt lat="53.188959" lon="-1.719984"><ele>181</ele><time>2020-01-31T10:46:24Z</time><name>PT2212</name></trkpt>
<trkpt lat="53.188952" lon="-1.720001"><ele>182</ele><time>2020-01-31T10:46:24Z</time><name>PT2213</name></trkpt>
<trkpt lat="53.188957" lon="-1.720019"><ele>181</ele><time>2020-01-31T10:46:25Z</time><name>PT2214</name></trkpt>
<trkpt lat="53.188965" lon="-1.720038"><ele>181</ele><time>2020-01-31T10:46:27Z</time><name>PT2215</name></trkpt>
<trkpt lat="53.188964" lon="-1.720061"><ele>179</ele><time>2020-01-31T10:46:27Z</time><name>PT2216</name></trkpt>
<trkpt lat="53.188965" lon="-1.720086"><ele>179</ele><time>2020-01-31T10:46:28Z</time><name>PT2217</name></trkpt>
<trkpt lat="53.188969" lon="-1.720110"><ele>178</ele><time>2020-01-31T10:46:30Z</time><name>PT2218</name></trkpt>
<trkpt lat="53.188972" lon="-1.720125"><ele>179</ele><time>2020-01-31T10:46:30Z</time><name>PT2219</name></trkpt>
<trkpt lat="53.188981" lon="-1.720141"><ele>178</ele><time>2020-01-31T10:46:31Z</time><name>PT2220</name></trkpt>
<trkpt lat="53.188986" lon="-1.720153"><ele>180</ele><time>2020-01-31T10:46:33Z</time><name>PT2221</name></trkpt>
<trkpt lat="53.188992" lon="-1.720174"><ele>180</ele><time>2020-01-31T10:46:33Z</time><name>PT2222</name></trkpt>
<trkpt lat="53.189000" lon="-1.720190"><ele>178</ele><time>2020-01-31T10:46:34Z</time><name>PT2223</name></trkpt>
<trkpt lat="53.189006" lon="-1.720201"><ele>177</ele><time>2020-01-31T10:46:36Z</time><name>PT2224</name></trkpt>
<trkpt lat="53.189014" lon="-1.720214"><ele>177</ele><time>2020-01-31T10:46:36Z</time><name>PT2225</name></trkpt>
<trkpt lat="53.189019" lon="-1.720229"><ele>177</ele><time>2020-01-31T10:46:37Z</time><name>PT2226</name></trkpt>
<trkpt lat="53.189018" lon="-1.720251"><ele>177</ele><time>2020-01-31T10:46:39Z</time><name>PT2227</name></trkpt>
<trkpt lat="53.189023" lon="-1.720274"><ele>178</ele><time>2020-01-31T10:46:39Z</time><name>PT2228</name></trkpt>
<trkpt lat="53.189028" lon="-1.720298"><ele>178</ele><time>2020-01-31T10:46:40Z</time><name>PT2229</name></trkpt>
<trkpt lat="53.189031" lon="-1.720314"><ele>176</ele><time>2020-01-31T10:46:42Z</time><name>PT2230</name></trkpt>
<trkpt lat="53.189033" lon="-1.720324"><ele>175</ele><time>2020-01-31T10:46:42Z</time><name>PT2231</name></trkpt>
<trkpt lat="53.189042" lon="-1.720336"><ele>174</ele><time>2020-01-31T10:46:43Z</time><name>PT2232</name></trkpt>
<trkpt lat="53.189048" lon="-1.720357"><ele>175</ele><time>2020-01-31T10:46:45Z</time><name>PT2233</name></trkpt>
<trkpt lat="53.189053" lon="-1.720377"><ele>175</ele><time>2020-01-31T10:46:45Z</time><name>PT2234</name></trkpt>
<trkpt lat="53.189059" lon="-1.720388"><ele>175</ele><time>2020-01-31T10:46:46Z</time><name>PT2235</name></trkpt>
<trkpt lat="53.189059" lon="-1.720420"><ele>176</ele><time>2020-01-31T10:46:48Z</time><name>PT2236</name></trkpt>
<trkpt lat="53.189065" lon="-1.720437"><ele>176</ele><time>2020-01-31T10:46:48Z</time><name>PT2237</name></trkpt>
<trkpt lat="53.189067" lon="-1.720459"><ele>177</ele><time>2020-01-31T10:46:49Z</time><name>PT2238</name></trkpt>
<trkpt lat="53.189064" lon="-1.720495"><ele>177</ele><time>2020-01-31T10:46:51Z</time><name>PT2239</name></trkpt>
<trkpt lat="53.189067" lon="-1.720517"><ele>177</ele><time>2020-01-31T10:46:51Z</time><name>PT2240</name></trkpt>
<trkpt lat="53.189069" lon="-1.720545"><ele>177</ele><time>2020-01-31T10:46:53Z</time><name>PT2241</name></trkpt>
<trkpt lat="53.189077" lon="-1.720570"><ele>178</ele><time>2020-01-31T10:46:54Z</time><name>PT2242</name></trkpt>
<trkpt lat="53.189080" lon="-1.720596"><ele>179</ele><time>2020-01-31T10:46:54Z</time><name>PT2243</name></trkpt>
<trkpt lat="53.189080" lon="-1.720615"><ele>180</ele><time>2020-01-31T10:46:55Z</time><name>PT2244</name></trkpt>
<trkpt lat="53.189082" lon="-1.720638"><ele>180</ele><time>2020-01-31T10:46:57Z</time><name>PT2245</name></trkpt>
<trkpt lat="53.189091" lon="-1.720659"><ele>179</ele><time>2020-01-31T10:46:57Z</time><name>PT2246</name></trkpt>
<trkpt lat="53.189093" lon="-1.720690"><ele>180</ele><time>2020-01-31T10:46:58Z</time><name>PT2247</name></trkpt>
<trkpt lat="53.189092" lon="-1.720711"><ele>179</ele><time>2020-01-31T10:47:00Z</time><name>PT2248</name></trkpt>
<trkpt lat="53.189093" lon="-1.720734"><ele>179</ele><time>2020-01-31T10:47:00Z</time><name>PT2249</name></trkpt>
<trkpt lat="53.189099" lon="-1.720753"><ele>179</ele><time>2020-01-31T10:47:01Z</time><name>PT2250</name></trkpt>
<trkpt lat="53.189095" lon="-1.720773"><ele>179</ele><time>2020-01-31T10:47:03Z</time><name>PT2251</name></trkpt>
<trkpt lat="53.189095" lon="-1.720789"><ele>179</ele><time>2020-01-31T10:47:03Z</time><name>PT2252</name></trkpt>
<trkpt lat="53.189094" lon="-1.720805"><ele>180</ele><time>2020-01-31T10:47:04Z</time><name>PT2253</name></trkpt>
<trkpt lat="53.189098" lon="-1.720832"><ele>181</ele><time>2020-01-31T10:47:06Z</time><name>PT2254</name></trkpt>
<trkpt lat="53.189099" lon="-1.720865"><ele>180</ele><time>2020-01-31T10:47:06Z</time><name>PT2255</name></trkpt>
<trkpt lat="53.189094" lon="-1.720898"><ele>181</ele><time>2020-01-31T10:47:07Z</time><name>PT2256</name></trkpt>
<trkpt lat="53.189092" lon="-1.720918"><ele>182</ele><time>2020-01-31T10:47:09Z</time><name>PT2257</name></trkpt>
<trkpt lat="53.189092" lon="-1.720932"><ele>184</ele><time>2020-01-31T10:47:09Z</time><name>PT2258</name></trkpt>
<trkpt lat="53.189097" lon="-1.720946"><ele>184</ele><time>2020-01-31T10:47:10Z</time><name>PT2259</name></trkpt>
<trkpt lat="53.189100" lon="-1.720960"><ele>184</ele><time>2020-01-31T10:47:12Z</time><name>PT2260</name></trkpt>
<trkpt lat="53.189103" lon="-1.720981"><ele>184</ele><time>2020-01-31T10:47:12Z</time><name>PT2261</name></trkpt>
<trkpt lat="53.189100" lon="-1.721006"><ele>187</ele><time>2020-01-31T10:47:13Z</time><name>PT2262</name></trkpt>
<trkpt lat="53.189101" lon="-1.721024"><ele>187</ele><time>2020-01-31T10:47:15Z</time><name>PT2263</name></trkpt>
<trkpt lat="53.189100" lon="-1.721042"><ele>186</ele><time>2020-01-31T10:47:15Z</time><name>PT2264</name></trkpt>
<trkpt lat="53.189104" lon="-1.721045"><ele>185</ele><time>2020-01-31T10:47:16Z</time><name>PT2265</name></trkpt>
<trkpt lat="53.189111" lon="-1.721058"><ele>184</ele><time>2020-01-31T10:47:18Z</time><name>PT2266</name></trkpt>
<trkpt lat="53.189117" lon="-1.721083"><ele>184</ele><time>2020-01-31T10:47:18Z</time><name>PT2267</name></trkpt>
<trkpt lat="53.189117" lon="-1.721101"><ele>185</ele><time>2020-01-31T10:47:19Z</time><name>PT2268</name></trkpt>
<trkpt lat="53.189119" lon="-1.721113"><ele>185</ele><time>2020-01-31T10:47:21Z</time><name>PT2269</name></trkpt>
<trkpt lat="53.189120" lon="-1.721130"><ele>186</ele><time>2020-01-31T10:47:21Z</time><name>PT2270</name></trkpt>
<trkpt lat="53.189126" lon="-1.721144"><ele>186</ele><time>2020-01-31T10:47:22Z</time><name>PT2271</name></trkpt>
<trkpt lat="53.189128" lon="-1.721161"><ele>186</ele><time>2020-01-31T10:47:24Z</time><name>PT2272</name></trkpt>
<trkpt lat="53.189127" lon="-1.721182"><ele>186</ele><time>2020-01-31T10:47:24Z</time><name>PT2273</name></trkpt>
<trkpt lat="53.189140" lon="-1.721203"><ele>184</ele><time>2020-01-31T10:47:25Z</time><name>PT2274</name></trkpt>
<trkpt lat="53.189140" lon="-1.721219"><ele>184</ele><time>2020-01-31T10:47:27Z</time><name>PT2275</name></trkpt>
<trkpt lat="53.189142" lon="-1.721233"><ele>185</ele><time>2020-01-31T10:47:27Z</time><name>PT2276</name></trkpt>
<trkpt lat="53.189146" lon="-1.721239"><ele>185</ele><time>2020-01-31T10:47:28Z</time><name>PT2277</name></trkpt>
<trkpt lat="53.189145" lon="-1.721255"><ele>184</ele><time>2020-01-31T10:47:30Z</time><name>PT2278</name></trkpt>
<trkpt lat="53.189145" lon="-1.721279"><ele>182</ele><time>2020-01-31T10:47:30Z</time><name>PT2279</name></trkpt>
<trkpt lat="53.189146" lon="-1.721303"><ele>182</ele><time>2020-01-31T10:47:31Z</time><name>PT2280</name></trkpt>
<trkpt lat="53.189145" lon="-1.721323"><ele>182</ele><time>2020-01-31T10:47:33Z</time><name>PT2281</name></trkpt>
<trkpt lat="53.189149" lon="-1.721345"><ele>182</ele><time>2020-01-31T10:47:33Z</time><name>PT2282</name></trkpt>
<trkpt lat="53.189145" lon="-1.721370"><ele>182</ele><time>2020-01-31T10:47:34Z</time><name>PT2283</name></trkpt>
<trkpt lat="53.189146" lon="-1.721390"><ele>181</ele><time>2020-01-31T10:47:36Z</time><name>PT2284</name></trkpt>
<trkpt lat="53.189149" lon="-1.721404"><ele>181</ele><time>2020-01-31T10:47:36Z</time><name>PT2285</name></trkpt>
<trkpt lat="53.189156" lon="-1.721421"><ele>179</ele><time>2020-01-31T10:47:37Z</time><name>PT2286</name></trkpt>
<trkpt lat="53.189147" lon="-1.721445"><ele>179</ele><time>2020-01-31T10:47:39Z</time><name>PT2287</name></trkpt>
<trkpt lat="53.189145" lon="-1.721465"><ele>178</ele><time>2020-01-31T10:47:39Z</time><name>PT2288</name></trkpt>
<trkpt lat="53.189146" lon="-1.721479"><ele>179</ele><time>2020-01-31T10:47:40Z</time><name>PT2289</name></trkpt>
<trkpt lat="53.189143" lon="-1.721500"><ele>179</ele><time>2020-01-31T10:47:42Z</time><name>PT2290</name></trkpt>
<trkpt lat="53.189142" lon="-1.721529"><ele>179</ele><time>2020-01-31T10:47:42Z</time><name>PT2291</name></trkpt>
<trkpt lat="53.189141" lon="-1.721559"><ele>180</ele><time>2020-01-31T10:47:43Z</time><name>PT2292</name></trkpt>
<trkpt lat="53.189139" lon="-1.721574"><ele>181</ele><time>2020-01-31T10:47:45Z</time><name>PT2293</name></trkpt>
<trkpt lat="53.189135" lon="-1.721606"><ele>182</ele><time>2020-01-31T10:47:45Z</time><name>PT2294</name></trkpt>
<trkpt lat="53.189133" lon="-1.721629"><ele>182</ele><time>2020-01-31T10:47:46Z</time><name>PT2295</name></trkpt>
<trkpt lat="53.189132" lon="-1.721649"><ele>182</ele><time>2020-01-31T10:47:48Z</time><name>PT2296</name></trkpt>
<trkpt lat="53.189134" lon="-1.721656"><ele>182</ele><time>2020-01-31T10:47:48Z</time><name>PT2297</name></trkpt>
<trkpt lat="53.189133" lon="-1.721678"><ele>182</ele><time>2020-01-31T10:47:49Z</time><name>PT2298</name></trkpt>
<trkpt lat="53.189130" lon="-1.721701"><ele>183</ele><time>2020-01-31T10:47:51Z</time><name>PT2299</name></trkpt>
<trkpt lat="53.189127" lon="-1.721723"><ele>182</ele><time>2020-01-31T10:47:51Z</time><name>PT2300</name></trkpt>
<trkpt lat="53.189116" lon="-1.721755"><ele>185</ele><time>2020-01-31T10:47:52Z</time><name>PT2301</name></trkpt>
<trkpt lat="53.189108" lon="-1.721775"><ele>187</ele><time>2020-01-31T10:47:54Z</time><name>PT2302</name></trkpt>
<trkpt lat="53.189104" lon="-1.721803"><ele>188</ele><time>2020-01-31T10:47:54Z</time><name>PT2303</name></trkpt>
<trkpt lat="53.189107" lon="-1.721827"><ele>187</ele><time>2020-01-31T10:47:55Z</time><name>PT2304</name></trkpt>
<trkpt lat="53.189105" lon="-1.721849"><ele>188</ele><time>2020-01-31T10:47:57Z</time><name>PT2305</name></trkpt>
<trkpt lat="53.189109" lon="-1.721870"><ele>188</ele><time>2020-01-31T10:47:57Z</time><name>PT2306</name></trkpt>
<trkpt lat="53.189115" lon="-1.721896"><ele>187</ele><time>2020-01-31T10:47:58Z</time><name>PT2307</name></trkpt>
<trkpt lat="53.189113" lon="-1.721917"><ele>188</ele><time>2020-01-31T10:48:00Z</time><name>PT2308</name></trkpt>
<trkpt lat="53.189112" lon="-1.721946"><ele>188</ele><time>2020-01-31T10:48:00Z</time><name>PT2309</name></trkpt>
<trkpt lat="53.189112" lon="-1.721964"><ele>189</ele><time>2020-01-31T10:48:01Z</time><name>PT2310</name></trkpt>
<trkpt lat="53.189103" lon="-1.721986"><ele>191</ele><time>2020-01-31T10:48:03Z</time><name>PT2311</name></trkpt>
<trkpt lat="53.189097" lon="-1.722003"><ele>192</ele><time>2020-01-31T10:48:03Z</time><name>PT2312</name></trkpt>
<trkpt lat="53.189097" lon="-1.722024"><ele>192</ele><time>2020-01-31T10:48:05Z</time><name>PT2313</name></trkpt>
<trkpt lat="53.189093" lon="-1.722054"><ele>192</ele><time>2020-01-31T10:48:06Z</time><name>PT2314</name></trkpt>
<trkpt lat="53.189089" lon="-1.722079"><ele>193</ele><time>2020-01-31T10:48:06Z</time><name>PT2315</name></trkpt>
<trkpt lat="53.189084" lon="-1.722099"><ele>194</ele><time>2020-01-31T10:48:07Z</time><name>PT2316</name></trkpt>
<trkpt lat="53.189089" lon="-1.722119"><ele>192</ele><time>2020-01-31T10:48:09Z</time><name>PT2317</name></trkpt>
<trkpt lat="53.189089" lon="-1.722137"><ele>192</ele><time>2020-01-31T10:48:09Z</time><name>PT2318</name></trkpt>
<trkpt lat="53.189085" lon="-1.722156"><ele>193</ele><time>2020-01-31T10:48:10Z</time><name>PT2319</name></trkpt>
<trkpt lat="53.189081" lon="-1.722185"><ele>194</ele><time>2020-01-31T10:48:12Z</time><name>PT2320</name></trkpt>
<trkpt lat="53.189084" lon="-1.722206"><ele>194</ele><time>2020-01-31T10:48:12Z</time><name>PT2321</name></trkpt>
<trkpt lat="53.189085" lon="-1.722225"><ele>194</ele><time>2020-01-31T10:48:13Z</time><name>PT2322</name></trkpt>
<trkpt lat="53.189081" lon="-1.722252"><ele>194</ele><time>2020-01-31T10:48:15Z</time><name>PT2323</name></trkpt>
<trkpt lat="53.189072" lon="-1.722279"><ele>196</ele><time>2020-01-31T10:48:15Z</time><name>PT2324</name></trkpt>
<trkpt lat="53.189071" lon="-1.722297"><ele>197</ele><time>2020-01-31T10:48:16Z</time><name>PT2325</name></trkpt>
<trkpt lat="53.189071" lon="-1.722314"><ele>197</ele><time>2020-01-31T10:48:18Z</time><name>PT2326</name></trkpt>
<trkpt lat="53.189069" lon="-1.722334"><ele>197</ele><time>2020-01-31T10:48:18Z</time><name>PT2327</name></trkpt>
<trkpt lat="53.189065" lon="-1.722357"><ele>198</ele><time>2020-01-31T10:48:19Z</time><name>PT2328</name></trkpt>
<trkpt lat="53.189054" lon="-1.722378"><ele>199</ele><time>2020-01-31T10:48:21Z</time><name>PT2329</name></trkpt>
<trkpt lat="53.189046" lon="-1.722397"><ele>199</ele><time>2020-01-31T10:48:21Z</time><name>PT2330</name></trkpt>
<trkpt lat="53.189044" lon="-1.722413"><ele>198</ele><time>2020-01-31T10:48:22Z</time><name>PT2331</name></trkpt>
<trkpt lat="53.189042" lon="-1.722429"><ele>198</ele><time>2020-01-31T10:48:24Z</time><name>PT2332</name></trkpt>
<trkpt lat="53.189042" lon="-1.722453"><ele>198</ele><time>2020-01-31T10:48:24Z</time><name>PT2333</name></trkpt>
<trkpt lat="53.189044" lon="-1.722471"><ele>198</ele><time>2020-01-31T10:48:25Z</time><name>PT2334</name></trkpt>
<trkpt lat="53.189039" lon="-1.722494"><ele>198</ele><time>2020-01-31T10:48:27Z</time><name>PT2335</name></trkpt>
<trkpt lat="53.189044" lon="-1.722512"><ele>199</ele><time>2020-01-31T10:48:27Z</time><name>PT2336</name></trkpt>
<trkpt lat="53.189039" lon="-1.722538"><ele>199</ele><time>2020-01-31T10:48:28Z</time><name>PT2337</name></trkpt>
<trkpt lat="53.189039" lon="-1.722560"><ele>199</ele><time>2020-01-31T10:48:30Z</time><name>PT2338</name></trkpt>
<trkpt lat="53.189035" lon="-1.722580"><ele>200</ele><time>2020-01-31T10:48:30Z</time><name>PT2339</name></trkpt>
<trkpt lat="53.189031" lon="-1.722601"><ele>201</ele><time>2020-01-31T10:48:31Z</time><name>PT2340</name></trkpt>
<trkpt lat="53.189027" lon="-1.722620"><ele>201</ele><time>2020-01-31T10:48:33Z</time><name>PT2341</name></trkpt>
<trkpt lat="53.189027" lon="-1.722641"><ele>201</ele><time>2020-01-31T10:48:33Z</time><name>PT2342</name></trkpt>
<trkpt lat="53.189022" lon="-1.722673"><ele>201</ele><time>2020-01-31T10:48:34Z</time><name>PT2343</name></trkpt>
<trkpt lat="53.189020" lon="-1.722698"><ele>201</ele><time>2020-01-31T10:48:36Z</time><name>PT2344</name></trkpt>
<trkpt lat="53.189012" lon="-1.722720"><ele>202</ele><time>2020-01-31T10:48:36Z</time><name>PT2345</name></trkpt>
<trkpt lat="53.189009" lon="-1.722734"><ele>202</ele><time>2020-01-31T10:48:37Z</time><name>PT2346</name></trkpt>
<trkpt lat="53.189009" lon="-1.722752"><ele>202</ele><time>2020-01-31T10:48:39Z</time><name>PT2347</name></trkpt>
<trkpt lat="53.189015" lon="-1.722766"><ele>201</ele><time>2020-01-31T10:48:39Z</time><name>PT2348</name></trkpt>
<trkpt lat="53.189013" lon="-1.722785"><ele>202</ele><time>2020-01-31T10:48:40Z</time><name>PT2349</name></trkpt>
<trkpt lat="53.189007" lon="-1.722800"><ele>202</ele><time>2020-01-31T10:48:42Z</time><name>PT2350</name></trkpt>
<trkpt lat="53.189010" lon="-1.722817"><ele>202</ele><time>2020-01-31T10:48:42Z</time><name>PT2351</name></trkpt>
<trkpt lat="53.189009" lon="-1.722827"><ele>202</ele><time>2020-01-31T10:48:43Z</time><name>PT2352</name></trkpt>
<trkpt lat="53.189008" lon="-1.722847"><ele>202</ele><time>2020-01-31T10:48:45Z</time><name>PT2353</name></trkpt>
<trkpt lat="53.188999" lon="-1.722864"><ele>203</ele><time>2020-01-31T10:48:45Z</time><name>PT2354</name></trkpt>
<trkpt lat="53.188996" lon="-1.722886"><ele>202</ele><time>2020-01-31T10:48:46Z</time><name>PT2355</name></trkpt>
<trkpt lat="53.188998" lon="-1.722914"><ele>202</ele><time>2020-01-31T10:48:48Z</time><name>PT2356</name></trkpt>
<trkpt lat="53.189002" lon="-1.722936"><ele>201</ele><time>2020-01-31T10:48:48Z</time><name>PT2357</name></trkpt>
<trkpt lat="53.189001" lon="-1.722955"><ele>201</ele><time>2020-01-31T10:48:49Z</time><name>PT2358</name></trkpt>
<trkpt lat="53.189003" lon="-1.722971"><ele>200</ele><time>2020-01-31T10:48:51Z</time><name>PT2359</name></trkpt>
<trkpt lat="53.188999" lon="-1.723000"><ele>198</ele><time>2020-01-31T10:48:51Z</time><name>PT2360</name></trkpt>
<trkpt lat="53.188998" lon="-1.723018"><ele>198</ele><time>2020-01-31T10:48:52Z</time><name>PT2361</name></trkpt>
<trkpt lat="53.188996" lon="-1.723032"><ele>198</ele><time>2020-01-31T10:48:54Z</time><name>PT2362</name></trkpt>
<trkpt lat="53.188996" lon="-1.723050"><ele>198</ele><time>2020-01-31T10:48:54Z</time><name>PT2363</name></trkpt>
<trkpt lat="53.189002" lon="-1.723060"><ele>197</ele><time>2020-01-31T10:48:55Z</time><name>PT2364</name></trkpt>
<trkpt lat="53.188998" lon="-1.723086"><ele>198</ele><time>2020-01-31T10:48:57Z</time><name>PT2365</name></trkpt>
<trkpt lat="53.188996" lon="-1.723117"><ele>197</ele><time>2020-01-31T10:48:57Z</time><name>PT2366</name></trkpt>
<trkpt lat="53.188986" lon="-1.723143"><ele>197</ele><time>2020-01-31T10:48:58Z</time><name>PT2367</name></trkpt>
<trkpt lat="53.188982" lon="-1.723163"><ele>197</ele><time>2020-01-31T10:49:00Z</time><name>PT2368</name></trkpt>
<trkpt lat="53.188981" lon="-1.723187"><ele>197</ele><time>2020-01-31T10:49:00Z</time><name>PT2369</name></trkpt>
<trkpt lat="53.188979" lon="-1.723205"><ele>197</ele><time>2020-01-31T10:49:01Z</time><name>PT2370</name></trkpt>
<trkpt lat="53.188977" lon="-1.723219"><ele>197</ele><time>2020-01-31T10:49:03Z</time><name>PT2371</name></trkpt>
<trkpt lat="53.188976" lon="-1.723236"><ele>197</ele><time>2020-01-31T10:49:03Z</time><name>PT2372</name></trkpt>
<trkpt lat="53.188975" lon="-1.723253"><ele>197</ele><time>2020-01-31T10:49:04Z</time><name>PT2373</name></trkpt>
<trkpt lat="53.188980" lon="-1.723274"><ele>197</ele><time>2020-01-31T10:49:06Z</time><name>PT2374</name></trkpt>
<trkpt lat="53.188979" lon="-1.723297"><ele>197</ele><time>2020-01-31T10:49:06Z</time><name>PT2375</name></trkpt>
<trkpt lat="53.188984" lon="-1.723304"><ele>196</ele><time>2020-01-31T10:49:07Z</time><name>PT2376</name></trkpt>
<trkpt lat="53.188986" lon="-1.723327"><ele>196</ele><time>2020-01-31T10:49:09Z</time><name>PT2377</name></trkpt>
<trkpt lat="53.188986" lon="-1.723354"><ele>197</ele><time>2020-01-31T10:49:09Z</time><name>PT2378</name></trkpt>
<trkpt lat="53.188980" lon="-1.723365"><ele>197</ele><time>2020-01-31T10:49:10Z</time><name>PT2379</name></trkpt>
<trkpt lat="53.188976" lon="-1.723393"><ele>196</ele><time>2020-01-31T10:49:12Z</time><name>PT2380</name></trkpt>
<trkpt lat="53.188978" lon="-1.723403"><ele>196</ele><time>2020-01-31T10:49:12Z</time><name>PT2381</name></trkpt>
<trkpt lat="53.188977" lon="-1.723416"><ele>196</ele><time>2020-01-31T10:49:13Z</time><name>PT2382</name></trkpt>
<trkpt lat="53.188977" lon="-1.723439"><ele>196</ele><time>2020-01-31T10:49:15Z</time><name>PT2383</name></trkpt>
<trkpt lat="53.188978" lon="-1.723451"><ele>195</ele><time>2020-01-31T10:49:15Z</time><name>PT2384</name></trkpt>
<trkpt lat="53.188977" lon="-1.723472"><ele>195</ele><time>2020-01-31T10:49:16Z</time><name>PT2385</name></trkpt>
<trkpt lat="53.188977" lon="-1.723493"><ele>194</ele><time>2020-01-31T10:49:18Z</time><name>PT2386</name></trkpt>
<trkpt lat="53.188973" lon="-1.723511"><ele>193</ele><time>2020-01-31T10:49:18Z</time><name>PT2387</name></trkpt>
<trkpt lat="53.188970" lon="-1.723533"><ele>193</ele><time>2020-01-31T10:49:19Z</time><name>PT2388</name></trkpt>
<trkpt lat="53.188972" lon="-1.723561"><ele>192</ele><time>2020-01-31T10:49:21Z</time><name>PT2389</name></trkpt>
<trkpt lat="53.188971" lon="-1.723588"><ele>192</ele><time>2020-01-31T10:49:21Z</time><name>PT2390</name></trkpt>
<trkpt lat="53.188965" lon="-1.723615"><ele>193</ele><time>2020-01-31T10:49:22Z</time><name>PT2391</name></trkpt>
<trkpt lat="53.188961" lon="-1.723629"><ele>193</ele><time>2020-01-31T10:49:24Z</time><name>PT2392</name></trkpt>
<trkpt lat="53.188965" lon="-1.723639"><ele>194</ele><time>2020-01-31T10:49:24Z</time><name>PT2393</name></trkpt>
<trkpt lat="53.188966" lon="-1.723651"><ele>194</ele><time>2020-01-31T10:49:25Z</time><name>PT2394</name></trkpt>
<trkpt lat="53.188967" lon="-1.723665"><ele>194</ele><time>2020-01-31T10:49:27Z</time><name>PT2395</name></trkpt>
<trkpt lat="53.188971" lon="-1.723681"><ele>193</ele><time>2020-01-31T10:49:27Z</time><name>PT2396</name></trkpt>
<trkpt lat="53.188972" lon="-1.723696"><ele>193</ele><time>2020-01-31T10:49:28Z</time><name>PT2397</name></trkpt>
<trkpt lat="53.188968" lon="-1.723704"><ele>192</ele><time>2020-01-31T10:49:30Z</time><name>PT2398</name></trkpt>
<trkpt lat="53.188963" lon="-1.723731"><ele>192</ele><time>2020-01-31T10:49:30Z</time><name>PT2399</name></trkpt>
<trkpt lat="53.188955" lon="-1.723758"><ele>192</ele><time>2020-01-31T10:49:31Z</time><name>PT2400</name></trkpt>
<trkpt lat="53.188949" lon="-1.723780"><ele>194</ele><time>2020-01-31T10:49:33Z</time><name>PT2401</name></trkpt>
<trkpt lat="53.188947" lon="-1.723807"><ele>195</ele><time>2020-01-31T10:49:33Z</time><name>PT2402</name></trkpt>
<trkpt lat="53.188945" lon="-1.723832"><ele>195</ele><time>2020-01-31T10:49:34Z</time><name>PT2403</name></trkpt>
<trkpt lat="53.188940" lon="-1.723856"><ele>195</ele><time>2020-01-31T10:49:36Z</time><name>PT2404</name></trkpt>
<trkpt lat="53.188932" lon="-1.723884"><ele>195</ele><time>2020-01-31T10:49:36Z</time><name>PT2405</name></trkpt>
<trkpt lat="53.188931" lon="-1.723911"><ele>195</ele><time>2020-01-31T10:49:37Z</time><name>PT2406</name></trkpt>
<trkpt lat="53.188926" lon="-1.723932"><ele>195</ele><time>2020-01-31T10:49:39Z</time><name>PT2407</name></trkpt>
<trkpt lat="53.188911" lon="-1.723968"><ele>195</ele><time>2020-01-31T10:49:39Z</time><name>PT2408</name></trkpt>
<trkpt lat="53.188915" lon="-1.723982"><ele>196</ele><time>2020-01-31T10:49:40Z</time><name>PT2409</name></trkpt>
<trkpt lat="53.188912" lon="-1.724004"><ele>196</ele><time>2020-01-31T10:49:42Z</time><name>PT2410</name></trkpt>
<trkpt lat="53.188915" lon="-1.724024"><ele>196</ele><time>2020-01-31T10:49:42Z</time><name>PT2411</name></trkpt>
<trkpt lat="53.188917" lon="-1.724038"><ele>197</ele><time>2020-01-31T10:49:43Z</time><name>PT2412</name></trkpt>
<trkpt lat="53.188911" lon="-1.724056"><ele>197</ele><time>2020-01-31T10:49:45Z</time><name>PT2413</name></trkpt>
<trkpt lat="53.188912" lon="-1.724066"><ele>196</ele><time>2020-01-31T10:49:45Z</time><name>PT2414</name></trkpt>
<trkpt lat="53.188910" lon="-1.724081"><ele>195</ele><time>2020-01-31T10:49:46Z</time><name>PT2415</name></trkpt>
<trkpt lat="53.188909" lon="-1.724095"><ele>195</ele><time>2020-01-31T10:49:48Z</time><name>PT2416</name></trkpt>
<trkpt lat="53.188903" lon="-1.724119"><ele>195</ele><time>2020-01-31T10:49:48Z</time><name>PT2417</name></trkpt>
<trkpt lat="53.188893" lon="-1.724134"><ele>195</ele><time>2020-01-31T10:49:49Z</time><name>PT2418</name></trkpt>
<trkpt lat="53.188887" lon="-1.724146"><ele>196</ele><time>2020-01-31T10:49:51Z</time><name>PT2419</name></trkpt>
<trkpt lat="53.188882" lon="-1.724155"><ele>196</ele><time>2020-01-31T10:49:51Z</time><name>PT2420</name></trkpt>
<trkpt lat="53.188879" lon="-1.724157"><ele>196</ele><time>2020-01-31T10:49:52Z</time><name>PT2421</name></trkpt>
<trkpt lat="53.188876" lon="-1.724157"><ele>196</ele><time>2020-01-31T10:49:54Z</time><name>PT2422</name></trkpt>
<trkpt lat="53.188871" lon="-1.724158"><ele>197</ele><time>2020-01-31T10:49:54Z</time><name>PT2423</name></trkpt>
<trkpt lat="53.188870" lon="-1.724184"><ele>196</ele><time>2020-01-31T10:50:07Z</time><name>PT2424</name></trkpt>
<trkpt lat="53.188865" lon="-1.724213"><ele>196</ele><time>2020-01-31T10:50:09Z</time><name>PT2425</name></trkpt>
<trkpt lat="53.188856" lon="-1.724243"><ele>195</ele><time>2020-01-31T10:50:09Z</time><name>PT2426</name></trkpt>
<trkpt lat="53.188855" lon="-1.724253"><ele>195</ele><time>2020-01-31T10:50:10Z</time><name>PT2427</name></trkpt>
<trkpt lat="53.188851" lon="-1.724266"><ele>195</ele><time>2020-01-31T10:50:12Z</time><name>PT2428</name></trkpt>
<trkpt lat="53.188848" lon="-1.724272"><ele>195</ele><time>2020-01-31T10:50:12Z</time><name>PT2429</name></trkpt>
<trkpt lat="53.188848" lon="-1.724286"><ele>194</ele><time>2020-01-31T10:50:13Z</time><name>PT2430</name></trkpt>
<trkpt lat="53.188842" lon="-1.724306"><ele>194</ele><time>2020-01-31T10:50:15Z</time><name>PT2431</name></trkpt>
<trkpt lat="53.188845" lon="-1.724322"><ele>194</ele><time>2020-01-31T10:50:15Z</time><name>PT2432</name></trkpt>
<trkpt lat="53.188844" lon="-1.724340"><ele>194</ele><time>2020-01-31T10:50:16Z</time><name>PT2433</name></trkpt>
<trkpt lat="53.188838" lon="-1.724356"><ele>193</ele><time>2020-01-31T10:50:18Z</time><name>PT2434</name></trkpt>
<trkpt lat="53.188842" lon="-1.724374"><ele>193</ele><time>2020-01-31T10:50:18Z</time><name>PT2435</name></trkpt>
<trkpt lat="53.188844" lon="-1.724392"><ele>193</ele><time>2020-01-31T10:50:19Z</time><name>PT2436</name></trkpt>
<trkpt lat="53.188843" lon="-1.724407"><ele>193</ele><time>2020-01-31T10:50:21Z</time><name>PT2437</name></trkpt>
<trkpt lat="53.188842" lon="-1.724428"><ele>194</ele><time>2020-01-31T10:50:21Z</time><name>PT2438</name></trkpt>
<trkpt lat="53.188859" lon="-1.724430"><ele>194</ele><time>2020-01-31T10:50:22Z</time><name>PT2439</name></trkpt>
<trkpt lat="53.188862" lon="-1.724444"><ele>194</ele><time>2020-01-31T10:50:24Z</time><name>PT2440</name></trkpt>
<trkpt lat="53.188871" lon="-1.724492"><ele>193</ele><time>2020-01-31T10:50:24Z</time><name>PT2441</name></trkpt>
<trkpt lat="53.188864" lon="-1.724523"><ele>192</ele><time>2020-01-31T10:50:25Z</time><name>PT2442</name></trkpt>
<trkpt lat="53.188869" lon="-1.724551"><ele>192</ele><time>2020-01-31T10:50:27Z</time><name>PT2443</name></trkpt>
<trkpt lat="53.188865" lon="-1.724568"><ele>192</ele><time>2020-01-31T10:50:27Z</time><name>PT2444</name></trkpt>
<trkpt lat="53.188866" lon="-1.724585"><ele>191</ele><time>2020-01-31T10:50:28Z</time><name>PT2445</name></trkpt>
<trkpt lat="53.188867" lon="-1.724606"><ele>191</ele><time>2020-01-31T10:50:30Z</time><name>PT2446</name></trkpt>
<trkpt lat="53.188872" lon="-1.724630"><ele>191</ele><time>2020-01-31T10:50:30Z</time><name>PT2447</name></trkpt>
<trkpt lat="53.188870" lon="-1.724661"><ele>191</ele><time>2020-01-31T10:50:31Z</time><name>PT2448</name></trkpt>
<trkpt lat="53.188868" lon="-1.724678"><ele>191</ele><time>2020-01-31T10:50:33Z</time><name>PT2449</name></trkpt>
<trkpt lat="53.188863" lon="-1.724699"><ele>190</ele><time>2020-01-31T10:50:33Z</time><name>PT2450</name></trkpt>
<trkpt lat="53.188858" lon="-1.724731"><ele>190</ele><time>2020-01-31T10:50:34Z</time><name>PT2451</name></trkpt>
<trkpt lat="53.188857" lon="-1.724754"><ele>190</ele><time>2020-01-31T10:50:36Z</time><name>PT2452</name></trkpt>
<trkpt lat="53.188862" lon="-1.724772"><ele>189</ele><time>2020-01-31T10:50:36Z</time><name>PT2453</name></trkpt>
<trkpt lat="53.188862" lon="-1.724793"><ele>190</ele><time>2020-01-31T10:50:37Z</time><name>PT2454</name></trkpt>
<trkpt lat="53.188856" lon="-1.724819"><ele>190</ele><time>2020-01-31T10:50:39Z</time><name>PT2455</name></trkpt>
<trkpt lat="53.188849" lon="-1.724839"><ele>189</ele><time>2020-01-31T10:50:39Z</time><name>PT2456</name></trkpt>
<trkpt lat="53.188841" lon="-1.724854"><ele>190</ele><time>2020-01-31T10:50:40Z</time><name>PT2457</name></trkpt>
<trkpt lat="53.188838" lon="-1.724877"><ele>191</ele><time>2020-01-31T10:50:42Z</time><name>PT2458</name></trkpt>
<trkpt lat="53.188837" lon="-1.724898"><ele>190</ele><time>2020-01-31T10:50:42Z</time><name>PT2459</name></trkpt>
<trkpt lat="53.188838" lon="-1.724913"><ele>190</ele><time>2020-01-31T10:50:43Z</time><name>PT2460</name></trkpt>
<trkpt lat="53.188835" lon="-1.724934"><ele>191</ele><time>2020-01-31T10:50:45Z</time><name>PT2461</name></trkpt>
<trkpt lat="53.188835" lon="-1.724950"><ele>192</ele><time>2020-01-31T10:50:45Z</time><name>PT2462</name></trkpt>
<trkpt lat="53.188831" lon="-1.724972"><ele>192</ele><time>2020-01-31T10:50:46Z</time><name>PT2463</name></trkpt>
<trkpt lat="53.188834" lon="-1.724985"><ele>192</ele><time>2020-01-31T10:50:48Z</time><name>PT2464</name></trkpt>
<trkpt lat="53.188834" lon="-1.724996"><ele>192</ele><time>2020-01-31T10:50:48Z</time><name>PT2465</name></trkpt>
<trkpt lat="53.188830" lon="-1.725015"><ele>192</ele><time>2020-01-31T10:50:49Z</time><name>PT2466</name></trkpt>
<trkpt lat="53.188829" lon="-1.725027"><ele>191</ele><time>2020-01-31T10:50:51Z</time><name>PT2467</name></trkpt>
<trkpt lat="53.188826" lon="-1.725047"><ele>190</ele><time>2020-01-31T10:50:51Z</time><name>PT2468</name></trkpt>
<trkpt lat="53.188822" lon="-1.725069"><ele>191</ele><time>2020-01-31T10:50:52Z</time><name>PT2469</name></trkpt>
<trkpt lat="53.188820" lon="-1.725089"><ele>191</ele><time>2020-01-31T10:50:54Z</time><name>PT2470</name></trkpt>
<trkpt lat="53.188818" lon="-1.725108"><ele>189</ele><time>2020-01-31T10:50:54Z</time><name>PT2471</name></trkpt>
<trkpt lat="53.188817" lon="-1.725124"><ele>188</ele><time>2020-01-31T10:50:55Z</time><name>PT2472</name></trkpt>
<trkpt lat="53.188817" lon="-1.725142"><ele>187</ele><time>2020-01-31T10:50:57Z</time><name>PT2473</name></trkpt>
<trkpt lat="53.188812" lon="-1.725161"><ele>189</ele><time>2020-01-31T10:50:57Z</time><name>PT2474</name></trkpt>
<trkpt lat="53.188801" lon="-1.725178"><ele>190</ele><time>2020-01-31T10:50:58Z</time><name>PT2475</name></trkpt>
<trkpt lat="53.188798" lon="-1.725196"><ele>190</ele><time>2020-01-31T10:51:00Z</time><name>PT2476</name></trkpt>
<trkpt lat="53.188794" lon="-1.725211"><ele>189</ele><time>2020-01-31T10:51:00Z</time><name>PT2477</name></trkpt>
<trkpt lat="53.188798" lon="-1.725229"><ele>188</ele><time>2020-01-31T10:51:01Z</time><name>PT2478</name></trkpt>
<trkpt lat="53.188793" lon="-1.725249"><ele>189</ele><time>2020-01-31T10:51:03Z</time><name>PT2479</name></trkpt>
<trkpt lat="53.188785" lon="-1.725271"><ele>190</ele><time>2020-01-31T10:51:03Z</time><name>PT2480</name></trkpt>
<trkpt lat="53.188778" lon="-1.725285"><ele>189</ele><time>2020-01-31T10:51:04Z</time><name>PT2481</name></trkpt>
<trkpt lat="53.188773" lon="-1.725306"><ele>187</ele><time>2020-01-31T10:51:06Z</time><name>PT2482</name></trkpt>
<trkpt lat="53.188769" lon="-1.725324"><ele>186</ele><time>2020-01-31T10:51:06Z</time><name>PT2483</name></trkpt>
<trkpt lat="53.188765" lon="-1.725345"><ele>186</ele><time>2020-01-31T10:51:07Z</time><name>PT2484</name></trkpt>
<trkpt lat="53.188761" lon="-1.725368"><ele>187</ele><time>2020-01-31T10:51:09Z</time><name>PT2485</name></trkpt>
<trkpt lat="53.188759" lon="-1.725389"><ele>187</ele><time>2020-01-31T10:51:09Z</time><name>PT2486</name></trkpt>
<trkpt lat="53.188764" lon="-1.725406"><ele>187</ele><time>2020-01-31T10:51:10Z</time><name>PT2487</name></trkpt>
<trkpt lat="53.188768" lon="-1.725419"><ele>185</ele><time>2020-01-31T10:51:12Z</time><name>PT2488</name></trkpt>
<trkpt lat="53.188767" lon="-1.725438"><ele>185</ele><time>2020-01-31T10:51:12Z</time><name>PT2489</name></trkpt>
<trkpt lat="53.188762" lon="-1.725458"><ele>184</ele><time>2020-01-31T10:51:13Z</time><name>PT2490</name></trkpt>
<trkpt lat="53.188759" lon="-1.725481"><ele>184</ele><time>2020-01-31T10:51:15Z</time><name>PT2491</name></trkpt>
<trkpt lat="53.188756" lon="-1.725492"><ele>187</ele><time>2020-01-31T10:51:15Z</time><name>PT2492</name></trkpt>
<trkpt lat="53.188756" lon="-1.725511"><ele>185</ele><time>2020-01-31T10:51:16Z</time><name>PT2493</name></trkpt>
<trkpt lat="53.188751" lon="-1.725536"><ele>186</ele><time>2020-01-31T10:51:18Z</time><name>PT2494</name></trkpt>
<trkpt lat="53.188750" lon="-1.725558"><ele>186</ele><time>2020-01-31T10:51:18Z</time><name>PT2495</name></trkpt>
<trkpt lat="53.188748" lon="-1.725583"><ele>187</ele><time>2020-01-31T10:51:19Z</time><name>PT2496</name></trkpt>
<trkpt lat="53.188746" lon="-1.725604"><ele>185</ele><time>2020-01-31T10:51:21Z</time><name>PT2497</name></trkpt>
<trkpt lat="53.188742" lon="-1.725622"><ele>185</ele><time>2020-01-31T10:51:21Z</time><name>PT2498</name></trkpt>
<trkpt lat="53.188738" lon="-1.725647"><ele>184</ele><time>2020-01-31T10:51:22Z</time><name>PT2499</name></trkpt>
<trkpt lat="53.188735" lon="-1.725667"><ele>184</ele><time>2020-01-31T10:51:24Z</time><name>PT2500</name></trkpt>
<trkpt lat="53.188728" lon="-1.725692"><ele>185</ele><time>2020-01-31T10:51:24Z</time><name>PT2501</name></trkpt>
<trkpt lat="53.188729" lon="-1.725708"><ele>185</ele><time>2020-01-31T10:51:25Z</time><name>PT2502</name></trkpt>
<trkpt lat="53.188724" lon="-1.725726"><ele>187</ele><time>2020-01-31T10:51:27Z</time><name>PT2503</name></trkpt>
<trkpt lat="53.188718" lon="-1.725735"><ele>188</ele><time>2020-01-31T10:51:27Z</time><name>PT2504</name></trkpt>
<trkpt lat="53.188707" lon="-1.725757"><ele>188</ele><time>2020-01-31T10:51:28Z</time><name>PT2505</name></trkpt>
<trkpt lat="53.188702" lon="-1.725774"><ele>188</ele><time>2020-01-31T10:51:30Z</time><name>PT2506</name></trkpt>
<trkpt lat="53.188698" lon="-1.725791"><ele>187</ele><time>2020-01-31T10:51:30Z</time><name>PT2507</name></trkpt>
<trkpt lat="53.188690" lon="-1.725803"><ele>186</ele><time>2020-01-31T10:51:31Z</time><name>PT2508</name></trkpt>
<trkpt lat="53.188686" lon="-1.725813"><ele>187</ele><time>2020-01-31T10:51:33Z</time><name>PT2509</name></trkpt>
<trkpt lat="53.188687" lon="-1.725825"><ele>187</ele><time>2020-01-31T10:51:33Z</time><name>PT2510</name></trkpt>
<trkpt lat="53.188685" lon="-1.725833"><ele>186</ele><time>2020-01-31T10:51:34Z</time><name>PT2511</name></trkpt>
<trkpt lat="53.188685" lon="-1.725839"><ele>185</ele><time>2020-01-31T10:51:36Z</time><name>PT2512</name></trkpt>
<trkpt lat="53.188684" lon="-1.725842"><ele>185</ele><time>2020-01-31T10:51:36Z</time><name>PT2513</name></trkpt>
<trkpt lat="53.188683" lon="-1.725844"><ele>184</ele><time>2020-01-31T10:51:37Z</time><name>PT2514</name></trkpt>
<trkpt lat="53.188682" lon="-1.725845"><ele>184</ele><time>2020-01-31T10:51:39Z</time><name>PT2515</name></trkpt>
<trkpt lat="53.188677" lon="-1.725891"><ele>184</ele><time>2020-01-31T10:51:43Z</time><name>PT2516</name></trkpt>
<trkpt lat="53.188675" lon="-1.725909"><ele>183</ele><time>2020-01-31T10:51:45Z</time><name>PT2517</name></trkpt>
<trkpt lat="53.188674" lon="-1.725925"><ele>184</ele><time>2020-01-31T10:51:45Z</time><name>PT2518</name></trkpt>
<trkpt lat="53.188660" lon="-1.725933"><ele>183</ele><time>2020-01-31T10:51:46Z</time><name>PT2519</name></trkpt>
<trkpt lat="53.188668" lon="-1.725960"><ele>183</ele><time>2020-01-31T10:51:48Z</time><name>PT2520</name></trkpt>
<trkpt lat="53.188665" lon="-1.725989"><ele>182</ele><time>2020-01-31T10:51:48Z</time><name>PT2521</name></trkpt>
<trkpt lat="53.188670" lon="-1.726010"><ele>182</ele><time>2020-01-31T10:51:49Z</time><name>PT2522</name></trkpt>
<trkpt lat="53.188671" lon="-1.726022"><ele>182</ele><time>2020-01-31T10:51:51Z</time><name>PT2523</name></trkpt>
<trkpt lat="53.188668" lon="-1.726035"><ele>181</ele><time>2020-01-31T10:51:51Z</time><name>PT2524</name></trkpt>
<trkpt lat="53.188667" lon="-1.726047"><ele>181</ele><time>2020-01-31T10:51:52Z</time><name>PT2525</name></trkpt>
<trkpt lat="53.188667" lon="-1.726058"><ele>182</ele><time>2020-01-31T10:51:54Z</time><name>PT2526</name></trkpt>
<trkpt lat="53.188666" lon="-1.726079"><ele>182</ele><time>2020-01-31T10:51:54Z</time><name>PT2527</name></trkpt>
<trkpt lat="53.188663" lon="-1.726101"><ele>182</ele><time>2020-01-31T10:51:55Z</time><name>PT2528</name></trkpt>
<trkpt lat="53.188661" lon="-1.726115"><ele>181</ele><time>2020-01-31T10:51:57Z</time><name>PT2529</name></trkpt>
<trkpt lat="53.188656" lon="-1.726145"><ele>184</ele><time>2020-01-31T10:51:57Z</time><name>PT2530</name></trkpt>
<trkpt lat="53.188656" lon="-1.726162"><ele>184</ele><time>2020-01-31T10:51:58Z</time><name>PT2531</name></trkpt>
<trkpt lat="53.188649" lon="-1.726180"><ele>184</ele><time>2020-01-31T10:52:00Z</time><name>PT2532</name></trkpt>
<trkpt lat="53.188651" lon="-1.726198"><ele>184</ele><time>2020-01-31T10:52:00Z</time><name>PT2533</name></trkpt>
<trkpt lat="53.188646" lon="-1.726219"><ele>186</ele><time>2020-01-31T10:52:01Z</time><name>PT2534</name></trkpt>
<trkpt lat="53.188641" lon="-1.726237"><ele>186</ele><time>2020-01-31T10:52:03Z</time><name>PT2535</name></trkpt>
<trkpt lat="53.188642" lon="-1.726251"><ele>187</ele><time>2020-01-31T10:52:03Z</time><name>PT2536</name></trkpt>
<trkpt lat="53.188642" lon="-1.726258"><ele>187</ele><time>2020-01-31T10:52:04Z</time><name>PT2537</name></trkpt>
<trkpt lat="53.188647" lon="-1.726265"><ele>186</ele><time>2020-01-31T10:52:06Z</time><name>PT2538</name></trkpt>
<trkpt lat="53.188651" lon="-1.726275"><ele>186</ele><time>2020-01-31T10:52:06Z</time><name>PT2539</name></trkpt>
<trkpt lat="53.188651" lon="-1.726280"><ele>187</ele><time>2020-01-31T10:52:07Z</time><name>PT2540</name></trkpt>
<trkpt lat="53.188651" lon="-1.726281"><ele>187</ele><time>2020-01-31T10:52:09Z</time><name>PT2541</name></trkpt>
<trkpt lat="53.188649" lon="-1.726281"><ele>187</ele><time>2020-01-31T10:52:09Z</time><name>PT2542</name></trkpt>
<trkpt lat="53.188648" lon="-1.726288"><ele>187</ele><time>2020-01-31T10:52:10Z</time><name>PT2543</name></trkpt>
<trkpt lat="53.188647" lon="-1.726288"><ele>187</ele><time>2020-01-31T10:52:12Z</time><name>PT2544</name></trkpt>
<trkpt lat="53.188646" lon="-1.726284"><ele>187</ele><time>2020-01-31T10:52:12Z</time><name>PT2545</name></trkpt>
<trkpt lat="53.188647" lon="-1.726281"><ele>187</ele><time>2020-01-31T10:52:13Z</time><name>PT2546</name></trkpt>
<trkpt lat="53.188648" lon="-1.726272"><ele>187</ele><time>2020-01-31T10:52:24Z</time><name>PT2547</name></trkpt>
<trkpt lat="53.188642" lon="-1.726281"><ele>187</ele><time>2020-01-31T10:52:25Z</time><name>PT2548</name></trkpt>
<trkpt lat="53.188638" lon="-1.726292"><ele>187</ele><time>2020-01-31T10:52:27Z</time><name>PT2549</name></trkpt>
<trkpt lat="53.188632" lon="-1.726306"><ele>187</ele><time>2020-01-31T10:52:27Z</time><name>PT2550</name></trkpt>
<trkpt lat="53.188629" lon="-1.726313"><ele>187</ele><time>2020-01-31T10:52:28Z</time><name>PT2551</name></trkpt>
<trkpt lat="53.188628" lon="-1.726309"><ele>188</ele><time>2020-01-31T10:52:30Z</time><name>PT2552</name></trkpt>
<trkpt lat="53.188627" lon="-1.726306"><ele>188</ele><time>2020-01-31T10:52:30Z</time><name>PT2553</name></trkpt>
<trkpt lat="53.188630" lon="-1.726298"><ele>188</ele><time>2020-01-31T10:52:31Z</time><name>PT2554</name></trkpt>
<trkpt lat="53.188626" lon="-1.726294"><ele>188</ele><time>2020-01-31T10:52:33Z</time><name>PT2555</name></trkpt>
<trkpt lat="53.188622" lon="-1.726294"><ele>188</ele><time>2020-01-31T10:52:33Z</time><name>PT2556</name></trkpt>
<trkpt lat="53.188620" lon="-1.726285"><ele>188</ele><time>2020-01-31T10:52:35Z</time><name>PT2557</name></trkpt>
<trkpt lat="53.188604" lon="-1.726293"><ele>188</ele><time>2020-01-31T10:52:36Z</time><name>PT2558</name></trkpt>
<trkpt lat="53.188595" lon="-1.726297"><ele>189</ele><time>2020-01-31T10:52:40Z</time><name>PT2559</name></trkpt>
<trkpt lat="53.188588" lon="-1.726305"><ele>188</ele><time>2020-01-31T10:52:42Z</time><name>PT2560</name></trkpt>
<trkpt lat="53.188583" lon="-1.726323"><ele>188</ele><time>2020-01-31T10:52:42Z</time><name>PT2561</name></trkpt>
<trkpt lat="53.188578" lon="-1.726337"><ele>188</ele><time>2020-01-31T10:52:43Z</time><name>PT2562</name></trkpt>
<trkpt lat="53.188582" lon="-1.726334"><ele>188</ele><time>2020-01-31T10:52:45Z</time><name>PT2563</name></trkpt>
<trkpt lat="53.188584" lon="-1.726347"><ele>187</ele><time>2020-01-31T10:52:45Z</time><name>PT2564</name></trkpt>
<trkpt lat="53.188590" lon="-1.726365"><ele>187</ele><time>2020-01-31T10:52:47Z</time><name>PT2565</name></trkpt>
<trkpt lat="53.188591" lon="-1.726376"><ele>187</ele><time>2020-01-31T10:52:48Z</time><name>PT2566</name></trkpt>
<trkpt lat="53.188590" lon="-1.726384"><ele>186</ele><time>2020-01-31T10:52:48Z</time><name>PT2567</name></trkpt>
<trkpt lat="53.188598" lon="-1.726391"><ele>185</ele><time>2020-01-31T10:52:49Z</time><name>PT2568</name></trkpt>
<trkpt lat="53.188598" lon="-1.726393"><ele>185</ele><time>2020-01-31T10:52:51Z</time><name>PT2569</name></trkpt>
<trkpt lat="53.188591" lon="-1.726408"><ele>184</ele><time>2020-01-31T10:52:52Z</time><name>PT2570</name></trkpt>
<trkpt lat="53.188591" lon="-1.726421"><ele>182</ele><time>2020-01-31T10:52:54Z</time><name>PT2571</name></trkpt>
<trkpt lat="53.188582" lon="-1.726443"><ele>180</ele><time>2020-01-31T10:52:54Z</time><name>PT2572</name></trkpt>
<trkpt lat="53.188574" lon="-1.726463"><ele>179</ele><time>2020-01-31T10:52:55Z</time><name>PT2573</name></trkpt>
<trkpt lat="53.188568" lon="-1.726476"><ele>178</ele><time>2020-01-31T10:52:57Z</time><name>PT2574</name></trkpt>
<trkpt lat="53.188564" lon="-1.726489"><ele>178</ele><time>2020-01-31T10:52:57Z</time><name>PT2575</name></trkpt>
<trkpt lat="53.188559" lon="-1.726497"><ele>177</ele><time>2020-01-31T10:52:58Z</time><name>PT2576</name></trkpt>
<trkpt lat="53.188556" lon="-1.726491"><ele>176</ele><time>2020-01-31T10:53:00Z</time><name>PT2577</name></trkpt>
<trkpt lat="53.188552" lon="-1.726498"><ele>177</ele><time>2020-01-31T10:53:00Z</time><name>PT2578</name></trkpt>
<trkpt lat="53.188551" lon="-1.726498"><ele>176</ele><time>2020-01-31T10:53:01Z</time><name>PT2579</name></trkpt>
<trkpt lat="53.188547" lon="-1.726503"><ele>176</ele><time>2020-01-31T10:53:03Z</time><name>PT2580</name></trkpt>
<trkpt lat="53.188546" lon="-1.726509"><ele>175</ele><time>2020-01-31T10:53:03Z</time><name>PT2581</name></trkpt>
<trkpt lat="53.188541" lon="-1.726513"><ele>175</ele><time>2020-01-31T10:53:04Z</time><name>PT2582</name></trkpt>
<trkpt lat="53.188533" lon="-1.726503"><ele>177</ele><time>2020-01-31T10:53:06Z</time><name>PT2583</name></trkpt>
<trkpt lat="53.188532" lon="-1.726510"><ele>180</ele><time>2020-01-31T10:53:06Z</time><name>PT2584</name></trkpt>
<trkpt lat="53.188537" lon="-1.726524"><ele>181</ele><time>2020-01-31T10:53:08Z</time><name>PT2585</name></trkpt>
<trkpt lat="53.188537" lon="-1.726526"><ele>181</ele><time>2020-01-31T10:53:09Z</time><name>PT2586</name></trkpt>
<trkpt lat="53.188540" lon="-1.726525"><ele>182</ele><time>2020-01-31T10:53:09Z</time><name>PT2587</name></trkpt>
<trkpt lat="53.188542" lon="-1.726526"><ele>184</ele><time>2020-01-31T10:53:10Z</time><name>PT2588</name></trkpt>
<trkpt lat="53.188544" lon="-1.726532"><ele>184</ele><time>2020-01-31T10:53:25Z</time><name>PT2589</name></trkpt>
<trkpt lat="53.188548" lon="-1.726547"><ele>184</ele><time>2020-01-31T10:53:27Z</time><name>PT2590</name></trkpt>
<trkpt lat="53.188541" lon="-1.726547"><ele>184</ele><time>2020-01-31T10:53:27Z</time><name>PT2591</name></trkpt>
<trkpt lat="53.188536" lon="-1.726559"><ele>185</ele><time>2020-01-31T10:53:28Z</time><name>PT2592</name></trkpt>
<trkpt lat="53.188534" lon="-1.726580"><ele>185</ele><time>2020-01-31T10:53:30Z</time><name>PT2593</name></trkpt>
<trkpt lat="53.188533" lon="-1.726609"><ele>185</ele><time>2020-01-31T10:53:30Z</time><name>PT2594</name></trkpt>
<trkpt lat="53.188550" lon="-1.726682"><ele>186</ele><time>2020-01-31T10:53:31Z</time><name>PT2595</name></trkpt>
<trkpt lat="53.188551" lon="-1.726703"><ele>185</ele><time>2020-01-31T10:53:33Z</time><name>PT2596</name></trkpt>
<trkpt lat="53.188563" lon="-1.726708"><ele>185</ele><time>2020-01-31T10:53:33Z</time><name>PT2597</name></trkpt>
<trkpt lat="53.188575" lon="-1.726729"><ele>185</ele><time>2020-01-31T10:53:34Z</time><name>PT2598</name></trkpt>
<trkpt lat="53.188583" lon="-1.726745"><ele>184</ele><time>2020-01-31T10:53:36Z</time><name>PT2599</name></trkpt>
<trkpt lat="53.188583" lon="-1.726768"><ele>182</ele><time>2020-01-31T10:53:36Z</time><name>PT2600</name></trkpt>
<trkpt lat="53.188589" lon="-1.726787"><ele>181</ele><time>2020-01-31T10:53:37Z</time><name>PT2601</name></trkpt>
<trkpt lat="53.188592" lon="-1.726806"><ele>181</ele><time>2020-01-31T10:53:39Z</time><name>PT2602</name></trkpt>
<trkpt lat="53.188584" lon="-1.726818"><ele>182</ele><time>2020-01-31T10:53:39Z</time><name>PT2603</name></trkpt>
<trkpt lat="53.188582" lon="-1.726842"><ele>182</ele><time>2020-01-31T10:53:40Z</time><name>PT2604</name></trkpt>
<trkpt lat="53.188586" lon="-1.726865"><ele>182</ele><time>2020-01-31T10:53:42Z</time><name>PT2605</name></trkpt>
<trkpt lat="53.188588" lon="-1.726883"><ele>181</ele><time>2020-01-31T10:53:42Z</time><name>PT2606</name></trkpt>
<trkpt lat="53.188591" lon="-1.726905"><ele>181</ele><time>2020-01-31T10:53:43Z</time><name>PT2607</name></trkpt>
<trkpt lat="53.188596" lon="-1.726923"><ele>181</ele><time>2020-01-31T10:53:45Z</time><name>PT2608</name></trkpt>
<trkpt lat="53.188597" lon="-1.726946"><ele>181</ele><time>2020-01-31T10:53:45Z</time><name>PT2609</name></trkpt>
<trkpt lat="53.188596" lon="-1.726965"><ele>182</ele><time>2020-01-31T10:53:46Z</time><name>PT2610</name></trkpt>
<trkpt lat="53.188596" lon="-1.726992"><ele>182</ele><time>2020-01-31T10:53:48Z</time><name>PT2611</name></trkpt>
<trkpt lat="53.188600" lon="-1.727013"><ele>183</ele><time>2020-01-31T10:53:48Z</time><name>PT2612</name></trkpt>
<trkpt lat="53.188599" lon="-1.727035"><ele>182</ele><time>2020-01-31T10:53:49Z</time><name>PT2613</name></trkpt>
<trkpt lat="53.188598" lon="-1.727056"><ele>182</ele><time>2020-01-31T10:53:51Z</time><name>PT2614</name></trkpt>
<trkpt lat="53.188598" lon="-1.727078"><ele>182</ele><time>2020-01-31T10:53:51Z</time><name>PT2615</name></trkpt>
<trkpt lat="53.188598" lon="-1.727101"><ele>182</ele><time>2020-01-31T10:53:52Z</time><name>PT2616</name></trkpt>
<trkpt lat="53.188596" lon="-1.727123"><ele>182</ele><time>2020-01-31T10:53:54Z</time><name>PT2617</name></trkpt>
<trkpt lat="53.188595" lon="-1.727147"><ele>182</ele><time>2020-01-31T10:53:54Z</time><name>PT2618</name></trkpt>
<trkpt lat="53.188595" lon="-1.727164"><ele>181</ele><time>2020-01-31T10:53:55Z</time><name>PT2619</name></trkpt>
<trkpt lat="53.188592" lon="-1.727180"><ele>181</ele><time>2020-01-31T10:53:57Z</time><name>PT2620</name></trkpt>
<trkpt lat="53.188593" lon="-1.727193"><ele>181</ele><time>2020-01-31T10:53:57Z</time><name>PT2621</name></trkpt>
<trkpt lat="53.188593" lon="-1.727215"><ele>181</ele><time>2020-01-31T10:53:58Z</time><name>PT2622</name></trkpt>
<trkpt lat="53.188593" lon="-1.727239"><ele>181</ele><time>2020-01-31T10:54:00Z</time><name>PT2623</name></trkpt>
<trkpt lat="53.188587" lon="-1.727248"><ele>182</ele><time>2020-01-31T10:54:00Z</time><name>PT2624</name></trkpt>
<trkpt lat="53.188583" lon="-1.727265"><ele>182</ele><time>2020-01-31T10:54:01Z</time><name>PT2625</name></trkpt>
<trkpt lat="53.188584" lon="-1.727289"><ele>183</ele><time>2020-01-31T10:54:03Z</time><name>PT2626</name></trkpt>
<trkpt lat="53.188581" lon="-1.727315"><ele>183</ele><time>2020-01-31T10:54:03Z</time><name>PT2627</name></trkpt>
<trkpt lat="53.188576" lon="-1.727335"><ele>182</ele><time>2020-01-31T10:54:05Z</time><name>PT2628</name></trkpt>
<trkpt lat="53.188571" lon="-1.727354"><ele>182</ele><time>2020-01-31T10:54:06Z</time><name>PT2629</name></trkpt>
<trkpt lat="53.188565" lon="-1.727374"><ele>181</ele><time>2020-01-31T10:54:06Z</time><name>PT2630</name></trkpt>
<trkpt lat="53.188560" lon="-1.727390"><ele>182</ele><time>2020-01-31T10:54:07Z</time><name>PT2631</name></trkpt>
<trkpt lat="53.188556" lon="-1.727403"><ele>181</ele><time>2020-01-31T10:54:09Z</time><name>PT2632</name></trkpt>
<trkpt lat="53.188547" lon="-1.727424"><ele>182</ele><time>2020-01-31T10:54:09Z</time><name>PT2633</name></trkpt>
<trkpt lat="53.188548" lon="-1.727439"><ele>181</ele><time>2020-01-31T10:54:10Z</time><name>PT2634</name></trkpt>
<trkpt lat="53.188544" lon="-1.727461"><ele>182</ele><time>2020-01-31T10:54:12Z</time><name>PT2635</name></trkpt>
<trkpt lat="53.188547" lon="-1.727481"><ele>183</ele><time>2020-01-31T10:54:12Z</time><name>PT2636</name></trkpt>
<trkpt lat="53.188542" lon="-1.727499"><ele>183</ele><time>2020-01-31T10:54:13Z</time><name>PT2637</name></trkpt>
<trkpt lat="53.188540" lon="-1.727523"><ele>183</ele><time>2020-01-31T10:54:15Z</time><name>PT2638</name></trkpt>
<trkpt lat="53.188542" lon="-1.727542"><ele>182</ele><time>2020-01-31T10:54:15Z</time><name>PT2639</name></trkpt>
<trkpt lat="53.188541" lon="-1.727560"><ele>181</ele><time>2020-01-31T10:54:16Z</time><name>PT2640</name></trkpt>
<trkpt lat="53.188540" lon="-1.727580"><ele>182</ele><time>2020-01-31T10:54:18Z</time><name>PT2641</name></trkpt>
<trkpt lat="53.188538" lon="-1.727606"><ele>182</ele><time>2020-01-31T10:54:18Z</time><name>PT2642</name></trkpt>
<trkpt lat="53.188540" lon="-1.727622"><ele>182</ele><time>2020-01-31T10:54:19Z</time><name>PT2643</name></trkpt>
<trkpt lat="53.188536" lon="-1.727642"><ele>183</ele><time>2020-01-31T10:54:21Z</time><name>PT2644</name></trkpt>
<trkpt lat="53.188535" lon="-1.727666"><ele>183</ele><time>2020-01-31T10:54:21Z</time><name>PT2645</name></trkpt>
<trkpt lat="53.188532" lon="-1.727691"><ele>183</ele><time>2020-01-31T10:54:22Z</time><name>PT2646</name></trkpt>
<trkpt lat="53.188529" lon="-1.727714"><ele>183</ele><time>2020-01-31T10:54:24Z</time><name>PT2647</name></trkpt>
<trkpt lat="53.188528" lon="-1.727734"><ele>183</ele><time>2020-01-31T10:54:24Z</time><name>PT2648</name></trkpt>
<trkpt lat="53.188524" lon="-1.727757"><ele>183</ele><time>2020-01-31T10:54:25Z</time><name>PT2649</name></trkpt>
<trkpt lat="53.188519" lon="-1.727778"><ele>182</ele><time>2020-01-31T10:54:27Z</time><name>PT2650</name></trkpt>
<trkpt lat="53.188518" lon="-1.727799"><ele>183</ele><time>2020-01-31T10:54:27Z</time><name>PT2651</name></trkpt>
<trkpt lat="53.188519" lon="-1.727817"><ele>182</ele><time>2020-01-31T10:54:28Z</time><name>PT2652</name></trkpt>
<trkpt lat="53.188519" lon="-1.727838"><ele>182</ele><time>2020-01-31T10:54:30Z</time><name>PT2653</name></trkpt>
<trkpt lat="53.188515" lon="-1.727854"><ele>182</ele><time>2020-01-31T10:54:30Z</time><name>PT2654</name></trkpt>
<trkpt lat="53.188511" lon="-1.727866"><ele>182</ele><time>2020-01-31T10:54:31Z</time><name>PT2655</name></trkpt>
<trkpt lat="53.188511" lon="-1.727880"><ele>182</ele><time>2020-01-31T10:54:33Z</time><name>PT2656</name></trkpt>
<trkpt lat="53.188510" lon="-1.727892"><ele>183</ele><time>2020-01-31T10:54:33Z</time><name>PT2657</name></trkpt>
<trkpt lat="53.188507" lon="-1.727917"><ele>183</ele><time>2020-01-31T10:54:34Z</time><name>PT2658</name></trkpt>
<trkpt lat="53.188507" lon="-1.727941"><ele>182</ele><time>2020-01-31T10:54:36Z</time><name>PT2659</name></trkpt>
<trkpt lat="53.188506" lon="-1.727954"><ele>184</ele><time>2020-01-31T10:54:36Z</time><name>PT2660</name></trkpt>
<trkpt lat="53.188504" lon="-1.727967"><ele>184</ele><time>2020-01-31T10:54:37Z</time><name>PT2661</name></trkpt>
<trkpt lat="53.188501" lon="-1.727981"><ele>182</ele><time>2020-01-31T10:54:39Z</time><name>PT2662</name></trkpt>
<trkpt lat="53.188496" lon="-1.727989"><ele>181</ele><time>2020-01-31T10:54:39Z</time><name>PT2663</name></trkpt>
<trkpt lat="53.188491" lon="-1.728015"><ele>183</ele><time>2020-01-31T10:54:40Z</time><name>PT2664</name></trkpt>
<trkpt lat="53.188498" lon="-1.728027"><ele>184</ele><time>2020-01-31T10:54:42Z</time><name>PT2665</name></trkpt>
<trkpt lat="53.188496" lon="-1.728042"><ele>185</ele><time>2020-01-31T10:54:42Z</time><name>PT2666</name></trkpt>
<trkpt lat="53.188493" lon="-1.728058"><ele>185</ele><time>2020-01-31T10:54:43Z</time><name>PT2667</name></trkpt>
<trkpt lat="53.188498" lon="-1.728083"><ele>184</ele><time>2020-01-31T10:54:45Z</time><name>PT2668</name></trkpt>
<trkpt lat="53.188497" lon="-1.728109"><ele>184</ele><time>2020-01-31T10:54:45Z</time><name>PT2669</name></trkpt>
<trkpt lat="53.188501" lon="-1.728129"><ele>183</ele><time>2020-01-31T10:54:46Z</time><name>PT2670</name></trkpt>
<trkpt lat="53.188509" lon="-1.728154"><ele>181</ele><time>2020-01-31T10:54:48Z</time><name>PT2671</name></trkpt>
<trkpt lat="53.188509" lon="-1.728172"><ele>182</ele><time>2020-01-31T10:54:48Z</time><name>PT2672</name></trkpt>
<trkpt lat="53.188507" lon="-1.728194"><ele>181</ele><time>2020-01-31T10:54:49Z</time><name>PT2673</name></trkpt>
<trkpt lat="53.188501" lon="-1.728214"><ele>180</ele><time>2020-01-31T10:54:51Z</time><name>PT2674</name></trkpt>
<trkpt lat="53.188496" lon="-1.728231"><ele>180</ele><time>2020-01-31T10:54:51Z</time><name>PT2675</name></trkpt>
<trkpt lat="53.188488" lon="-1.728246"><ele>180</ele><time>2020-01-31T10:54:52Z</time><name>PT2676</name></trkpt>
<trkpt lat="53.188484" lon="-1.728264"><ele>181</ele><time>2020-01-31T10:54:54Z</time><name>PT2677</name></trkpt>
<trkpt lat="53.188477" lon="-1.728279"><ele>181</ele><time>2020-01-31T10:54:54Z</time><name>PT2678</name></trkpt>
<trkpt lat="53.188476" lon="-1.728301"><ele>179</ele><time>2020-01-31T10:54:55Z</time><name>PT2679</name></trkpt>
<trkpt lat="53.188468" lon="-1.728325"><ele>179</ele><time>2020-01-31T10:54:57Z</time><name>PT2680</name></trkpt>
<trkpt lat="53.188461" lon="-1.728355"><ele>179</ele><time>2020-01-31T10:54:57Z</time><name>PT2681</name></trkpt>
<trkpt lat="53.188454" lon="-1.728370"><ele>178</ele><time>2020-01-31T10:54:58Z</time><name>PT2682</name></trkpt>
<trkpt lat="53.188448" lon="-1.728390"><ele>178</ele><time>2020-01-31T10:55:00Z</time><name>PT2683</name></trkpt>
<trkpt lat="53.188448" lon="-1.728406"><ele>180</ele><time>2020-01-31T10:55:00Z</time><name>PT2684</name></trkpt>
<trkpt lat="53.188446" lon="-1.728425"><ele>177</ele><time>2020-01-31T10:55:01Z</time><name>PT2685</name></trkpt>
<trkpt lat="53.188441" lon="-1.728445"><ele>177</ele><time>2020-01-31T10:55:03Z</time><name>PT2686</name></trkpt>
<trkpt lat="53.188435" lon="-1.728454"><ele>176</ele><time>2020-01-31T10:55:03Z</time><name>PT2687</name></trkpt>
<trkpt lat="53.188428" lon="-1.728462"><ele>175</ele><time>2020-01-31T10:55:04Z</time><name>PT2688</name></trkpt>
<trkpt lat="53.188421" lon="-1.728476"><ele>174</ele><time>2020-01-31T10:55:06Z</time><name>PT2689</name></trkpt>
<trkpt lat="53.188422" lon="-1.728491"><ele>174</ele><time>2020-01-31T10:55:06Z</time><name>PT2690</name></trkpt>
<trkpt lat="53.188422" lon="-1.728518"><ele>174</ele><time>2020-01-31T10:55:07Z</time><name>PT2691</name></trkpt>
<trkpt lat="53.188413" lon="-1.728537"><ele>176</ele><time>2020-01-31T10:55:09Z</time><name>PT2692</name></trkpt>
<trkpt lat="53.188410" lon="-1.728552"><ele>177</ele><time>2020-01-31T10:55:09Z</time><name>PT2693</name></trkpt>
<trkpt lat="53.188403" lon="-1.728586"><ele>174</ele><time>2020-01-31T10:55:10Z</time><name>PT2694</name></trkpt>
<trkpt lat="53.188406" lon="-1.728616"><ele>173</ele><time>2020-01-31T10:55:12Z</time><name>PT2695</name></trkpt>
<trkpt lat="53.188401" lon="-1.728626"><ele>172</ele><time>2020-01-31T10:55:12Z</time><name>PT2696</name></trkpt>
<trkpt lat="53.188397" lon="-1.728638"><ele>172</ele><time>2020-01-31T10:55:13Z</time><name>PT2697</name></trkpt>
<trkpt lat="53.188391" lon="-1.728652"><ele>173</ele><time>2020-01-31T10:55:15Z</time><name>PT2698</name></trkpt>
<trkpt lat="53.188399" lon="-1.728657"><ele>175</ele><time>2020-01-31T10:55:15Z</time><name>PT2699</name></trkpt>
<trkpt lat="53.188402" lon="-1.728674"><ele>175</ele><time>2020-01-31T10:55:16Z</time><name>PT2700</name></trkpt>
<trkpt lat="53.188398" lon="-1.728697"><ele>175</ele><time>2020-01-31T10:55:18Z</time><name>PT2701</name></trkpt>
<trkpt lat="53.188398" lon="-1.728716"><ele>174</ele><time>2020-01-31T10:55:18Z</time><name>PT2702</name></trkpt>
<trkpt lat="53.188397" lon="-1.728728"><ele>175</ele><time>2020-01-31T10:55:19Z</time><name>PT2703</name></trkpt>
<trkpt lat="53.188396" lon="-1.728744"><ele>174</ele><time>2020-01-31T10:55:21Z</time><name>PT2704</name></trkpt>
<trkpt lat="53.188391" lon="-1.728758"><ele>174</ele><time>2020-01-31T10:55:21Z</time><name>PT2705</name></trkpt>
<trkpt lat="53.188380" lon="-1.728784"><ele>176</ele><time>2020-01-31T10:55:22Z</time><name>PT2706</name></trkpt>
<trkpt lat="53.188372" lon="-1.728805"><ele>176</ele><time>2020-01-31T10:55:24Z</time><name>PT2707</name></trkpt>
<trkpt lat="53.188372" lon="-1.728829"><ele>174</ele><time>2020-01-31T10:55:24Z</time><name>PT2708</name></trkpt>
<trkpt lat="53.188355" lon="-1.728852"><ele>175</ele><time>2020-01-31T10:55:25Z</time><name>PT2709</name></trkpt>
<trkpt lat="53.188348" lon="-1.728869"><ele>176</ele><time>2020-01-31T10:55:27Z</time><name>PT2710</name></trkpt>
<trkpt lat="53.188338" lon="-1.728885"><ele>177</ele><time>2020-01-31T10:55:27Z</time><name>PT2711</name></trkpt>
<trkpt lat="53.188325" lon="-1.728903"><ele>177</ele><time>2020-01-31T10:55:28Z</time><name>PT2712</name></trkpt>
<trkpt lat="53.188319" lon="-1.728916"><ele>177</ele><time>2020-01-31T10:55:30Z</time><name>PT2713</name></trkpt>
<trkpt lat="53.188315" lon="-1.728930"><ele>177</ele><time>2020-01-31T10:55:30Z</time><name>PT2714</name></trkpt>
<trkpt lat="53.188313" lon="-1.728943"><ele>177</ele><time>2020-01-31T10:55:31Z</time><name>PT2715</name></trkpt>
<trkpt lat="53.188312" lon="-1.728959"><ele>177</ele><time>2020-01-31T10:55:33Z</time><name>PT2716</name></trkpt>
<trkpt lat="53.188306" lon="-1.728984"><ele>177</ele><time>2020-01-31T10:55:33Z</time><name>PT2717</name></trkpt>
<trkpt lat="53.188300" lon="-1.729006"><ele>179</ele><time>2020-01-31T10:55:34Z</time><name>PT2718</name></trkpt>
<trkpt lat="53.188293" lon="-1.729024"><ele>180</ele><time>2020-01-31T10:55:36Z</time><name>PT2719</name></trkpt>
<trkpt lat="53.188292" lon="-1.729046"><ele>178</ele><time>2020-01-31T10:55:36Z</time><name>PT2720</name></trkpt>
<trkpt lat="53.188286" lon="-1.729068"><ele>179</ele><time>2020-01-31T10:55:37Z</time><name>PT2721</name></trkpt>
<trkpt lat="53.188284" lon="-1.729094"><ele>179</ele><time>2020-01-31T10:55:39Z</time><name>PT2722</name></trkpt>
<trkpt lat="53.188285" lon="-1.729105"><ele>177</ele><time>2020-01-31T10:55:39Z</time><name>PT2723</name></trkpt>
<trkpt lat="53.188285" lon="-1.729125"><ele>176</ele><time>2020-01-31T10:55:40Z</time><name>PT2724</name></trkpt>
<trkpt lat="53.188281" lon="-1.729146"><ele>176</ele><time>2020-01-31T10:55:42Z</time><name>PT2725</name></trkpt>
<trkpt lat="53.188282" lon="-1.729158"><ele>176</ele><time>2020-01-31T10:55:42Z</time><name>PT2726</name></trkpt>
<trkpt lat="53.188281" lon="-1.729174"><ele>176</ele><time>2020-01-31T10:55:43Z</time><name>PT2727</name></trkpt>
<trkpt lat="53.188278" lon="-1.729200"><ele>175</ele><time>2020-01-31T10:55:45Z</time><name>PT2728</name></trkpt>
<trkpt lat="53.188277" lon="-1.729218"><ele>176</ele><time>2020-01-31T10:55:45Z</time><name>PT2729</name></trkpt>
<trkpt lat="53.188274" lon="-1.729240"><ele>176</ele><time>2020-01-31T10:55:46Z</time><name>PT2730</name></trkpt>
<trkpt lat="53.188267" lon="-1.729269"><ele>175</ele><time>2020-01-31T10:55:48Z</time><name>PT2731</name></trkpt>
<trkpt lat="53.188260" lon="-1.729281"><ele>178</ele><time>2020-01-31T10:55:48Z</time><name>PT2732</name></trkpt>
<trkpt lat="53.188254" lon="-1.729291"><ele>179</ele><time>2020-01-31T10:55:49Z</time><name>PT2733</name></trkpt>
<trkpt lat="53.188254" lon="-1.729305"><ele>180</ele><time>2020-01-31T10:55:51Z</time><name>PT2734</name></trkpt>
<trkpt lat="53.188246" lon="-1.729314"><ele>181</ele><time>2020-01-31T10:55:51Z</time><name>PT2735</name></trkpt>
<trkpt lat="53.188241" lon="-1.729338"><ele>182</ele><time>2020-01-31T10:55:52Z</time><name>PT2736</name></trkpt>
<trkpt lat="53.188235" lon="-1.729362"><ele>183</ele><time>2020-01-31T10:55:54Z</time><name>PT2737</name></trkpt>
<trkpt lat="53.188230" lon="-1.729379"><ele>182</ele><time>2020-01-31T10:55:54Z</time><name>PT2738</name></trkpt>
<trkpt lat="53.188226" lon="-1.729392"><ele>181</ele><time>2020-01-31T10:55:55Z</time><name>PT2739</name></trkpt>
<trkpt lat="53.188226" lon="-1.729413"><ele>181</ele><time>2020-01-31T10:55:57Z</time><name>PT2740</name></trkpt>
<trkpt lat="53.188223" lon="-1.729421"><ele>181</ele><time>2020-01-31T10:55:57Z</time><name>PT2741</name></trkpt>
<trkpt lat="53.188218" lon="-1.729442"><ele>181</ele><time>2020-01-31T10:55:58Z</time><name>PT2742</name></trkpt>
<trkpt lat="53.188215" lon="-1.729459"><ele>181</ele><time>2020-01-31T10:56:00Z</time><name>PT2743</name></trkpt>
<trkpt lat="53.188210" lon="-1.729475"><ele>182</ele><time>2020-01-31T10:56:00Z</time><name>PT2744</name></trkpt>
<trkpt lat="53.188208" lon="-1.729488"><ele>181</ele><time>2020-01-31T10:56:01Z</time><name>PT2745</name></trkpt>
<trkpt lat="53.188207" lon="-1.729505"><ele>180</ele><time>2020-01-31T10:56:03Z</time><name>PT2746</name></trkpt>
<trkpt lat="53.188202" lon="-1.729522"><ele>180</ele><time>2020-01-31T10:56:03Z</time><name>PT2747</name></trkpt>
<trkpt lat="53.188202" lon="-1.729541"><ele>180</ele><time>2020-01-31T10:56:04Z</time><name>PT2748</name></trkpt>
<trkpt lat="53.188199" lon="-1.729560"><ele>180</ele><time>2020-01-31T10:56:06Z</time><name>PT2749</name></trkpt>
<trkpt lat="53.188195" lon="-1.729582"><ele>180</ele><time>2020-01-31T10:56:06Z</time><name>PT2750</name></trkpt>
<trkpt lat="53.188194" lon="-1.729604"><ele>179</ele><time>2020-01-31T10:56:07Z</time><name>PT2751</name></trkpt>
<trkpt lat="53.188189" lon="-1.729632"><ele>179</ele><time>2020-01-31T10:56:09Z</time><name>PT2752</name></trkpt>
<trkpt lat="53.188187" lon="-1.729646"><ele>174</ele><time>2020-01-31T10:56:09Z</time><name>PT2753</name></trkpt>
<trkpt lat="53.188186" lon="-1.729673"><ele>176</ele><time>2020-01-31T10:56:10Z</time><name>PT2754</name></trkpt>
<trkpt lat="53.188185" lon="-1.729698"><ele>177</ele><time>2020-01-31T10:56:12Z</time><name>PT2755</name></trkpt>
<trkpt lat="53.188182" lon="-1.729724"><ele>177</ele><time>2020-01-31T10:56:12Z</time><name>PT2756</name></trkpt>
<trkpt lat="53.188182" lon="-1.729746"><ele>176</ele><time>2020-01-31T10:56:13Z</time><name>PT2757</name></trkpt>
<trkpt lat="53.188181" lon="-1.729767"><ele>175</ele><time>2020-01-31T10:56:15Z</time><name>PT2758</name></trkpt>
<trkpt lat="53.188176" lon="-1.729790"><ele>175</ele><time>2020-01-31T10:56:15Z</time><name>PT2759</name></trkpt>
<trkpt lat="53.188175" lon="-1.729812"><ele>175</ele><time>2020-01-31T10:56:16Z</time><name>PT2760</name></trkpt>
<trkpt lat="53.188171" lon="-1.729829"><ele>176</ele><time>2020-01-31T10:56:18Z</time><name>PT2761</name></trkpt>
<trkpt lat="53.188171" lon="-1.729848"><ele>176</ele><time>2020-01-31T10:56:18Z</time><name>PT2762</name></trkpt>
<trkpt lat="53.188165" lon="-1.729857"><ele>178</ele><time>2020-01-31T10:56:19Z</time><name>PT2763</name></trkpt>
<trkpt lat="53.188160" lon="-1.729865"><ele>178</ele><time>2020-01-31T10:56:21Z</time><name>PT2764</name></trkpt>
<trkpt lat="53.188149" lon="-1.729881"><ele>182</ele><time>2020-01-31T10:56:21Z</time><name>PT2765</name></trkpt>
<trkpt lat="53.188153" lon="-1.729931"><ele>182</ele><time>2020-01-31T10:56:30Z</time><name>PT2766</name></trkpt>
<trkpt lat="53.188152" lon="-1.729969"><ele>181</ele><time>2020-01-31T10:56:30Z</time><name>PT2767</name></trkpt>
<trkpt lat="53.188150" lon="-1.730003"><ele>181</ele><time>2020-01-31T10:56:31Z</time><name>PT2768</name></trkpt>
<trkpt lat="53.188147" lon="-1.730051"><ele>182</ele><time>2020-01-31T10:56:33Z</time><name>PT2769</name></trkpt>
<trkpt lat="53.188146" lon="-1.730081"><ele>182</ele><time>2020-01-31T10:56:33Z</time><name>PT2770</name></trkpt>
<trkpt lat="53.188148" lon="-1.730113"><ele>182</ele><time>2020-01-31T10:56:34Z</time><name>PT2771</name></trkpt>
<trkpt lat="53.188150" lon="-1.730138"><ele>181</ele><time>2020-01-31T10:56:36Z</time><name>PT2772</name></trkpt>
<trkpt lat="53.188146" lon="-1.730161"><ele>181</ele><time>2020-01-31T10:56:36Z</time><name>PT2773</name></trkpt>
<trkpt lat="53.188151" lon="-1.730183"><ele>181</ele><time>2020-01-31T10:56:37Z</time><name>PT2774</name></trkpt>
<trkpt lat="53.188159" lon="-1.730201"><ele>180</ele><time>2020-01-31T10:56:39Z</time><name>PT2775</name></trkpt>
<trkpt lat="53.188163" lon="-1.730223"><ele>179</ele><time>2020-01-31T10:56:39Z</time><name>PT2776</name></trkpt>
<trkpt lat="53.188170" lon="-1.730234"><ele>178</ele><time>2020-01-31T10:56:40Z</time><name>PT2777</name></trkpt>
<trkpt lat="53.188173" lon="-1.730249"><ele>179</ele><time>2020-01-31T10:56:42Z</time><name>PT2778</name></trkpt>
<trkpt lat="53.188176" lon="-1.730268"><ele>178</ele><time>2020-01-31T10:56:42Z</time><name>PT2779</name></trkpt>
<trkpt lat="53.188180" lon="-1.730289"><ele>178</ele><time>2020-01-31T10:56:43Z</time><name>PT2780</name></trkpt>
<trkpt lat="53.188185" lon="-1.730308"><ele>178</ele><time>2020-01-31T10:56:45Z</time><name>PT2781</name></trkpt>
<trkpt lat="53.188188" lon="-1.730320"><ele>178</ele><time>2020-01-31T10:56:45Z</time><name>PT2782</name></trkpt>
<trkpt lat="53.188193" lon="-1.730342"><ele>177</ele><time>2020-01-31T10:56:46Z</time><name>PT2783</name></trkpt>
<trkpt lat="53.188199" lon="-1.730359"><ele>177</ele><time>2020-01-31T10:56:48Z</time><name>PT2784</name></trkpt>
<trkpt lat="53.188205" lon="-1.730378"><ele>177</ele><time>2020-01-31T10:56:48Z</time><name>PT2785</name></trkpt>
<trkpt lat="53.188210" lon="-1.730398"><ele>177</ele><time>2020-01-31T10:56:49Z</time><name>PT2786</name></trkpt>
<trkpt lat="53.188216" lon="-1.730409"><ele>177</ele><time>2020-01-31T10:56:51Z</time><name>PT2787</name></trkpt>
<trkpt lat="53.188218" lon="-1.730421"><ele>177</ele><time>2020-01-31T10:56:51Z</time><name>PT2788</name></trkpt>
<trkpt lat="53.188222" lon="-1.730445"><ele>178</ele><time>2020-01-31T10:56:52Z</time><name>PT2789</name></trkpt>
<trkpt lat="53.188224" lon="-1.730463"><ele>178</ele><time>2020-01-31T10:56:54Z</time><name>PT2790</name></trkpt>
<trkpt lat="53.188229" lon="-1.730479"><ele>178</ele><time>2020-01-31T10:56:54Z</time><name>PT2791</name></trkpt>
<trkpt lat="53.188232" lon="-1.730499"><ele>177</ele><time>2020-01-31T10:56:55Z</time><name>PT2792</name></trkpt>
<trkpt lat="53.188236" lon="-1.730518"><ele>178</ele><time>2020-01-31T10:56:57Z</time><name>PT2793</name></trkpt>
<trkpt lat="53.188237" lon="-1.730543"><ele>178</ele><time>2020-01-31T10:56:57Z</time><name>PT2794</name></trkpt>
<trkpt lat="53.188242" lon="-1.730556"><ele>178</ele><time>2020-01-31T10:56:58Z</time><name>PT2795</name></trkpt>
<trkpt lat="53.188249" lon="-1.730568"><ele>178</ele><time>2020-01-31T10:57:00Z</time><name>PT2796</name></trkpt>
<trkpt lat="53.188254" lon="-1.730579"><ele>177</ele><time>2020-01-31T10:57:00Z</time><name>PT2797</name></trkpt>
<trkpt lat="53.188260" lon="-1.730596"><ele>178</ele><time>2020-01-31T10:57:01Z</time><name>PT2798</name></trkpt>
<trkpt lat="53.188263" lon="-1.730617"><ele>178</ele><time>2020-01-31T10:57:03Z</time><name>PT2799</name></trkpt>
<trkpt lat="53.188258" lon="-1.730643"><ele>179</ele><time>2020-01-31T10:57:03Z</time><name>PT2800</name></trkpt>
<trkpt lat="53.188264" lon="-1.730659"><ele>178</ele><time>2020-01-31T10:57:04Z</time><name>PT2801</name></trkpt>
<trkpt lat="53.188274" lon="-1.730671"><ele>179</ele><time>2020-01-31T10:57:06Z</time><name>PT2802</name></trkpt>
<trkpt lat="53.188284" lon="-1.730675"><ele>178</ele><time>2020-01-31T10:57:06Z</time><name>PT2803</name></trkpt>
<trkpt lat="53.188289" lon="-1.730686"><ele>178</ele><time>2020-01-31T10:57:07Z</time><name>PT2804</name></trkpt>
<trkpt lat="53.188285" lon="-1.730709"><ele>180</ele><time>2020-01-31T10:57:09Z</time><name>PT2805</name></trkpt>
<trkpt lat="53.188287" lon="-1.730737"><ele>182</ele><time>2020-01-31T10:57:09Z</time><name>PT2806</name></trkpt>
<trkpt lat="53.188297" lon="-1.730754"><ele>182</ele><time>2020-01-31T10:57:10Z</time><name>PT2807</name></trkpt>
<trkpt lat="53.188306" lon="-1.730764"><ele>182</ele><time>2020-01-31T10:57:12Z</time><name>PT2808</name></trkpt>
<trkpt lat="53.188314" lon="-1.730777"><ele>182</ele><time>2020-01-31T10:57:12Z</time><name>PT2809</name></trkpt>
<trkpt lat="53.188322" lon="-1.730792"><ele>181</ele><time>2020-01-31T10:57:13Z</time><name>PT2810</name></trkpt>
<trkpt lat="53.188332" lon="-1.730808"><ele>180</ele><time>2020-01-31T10:57:15Z</time><name>PT2811</name></trkpt>
<trkpt lat="53.188344" lon="-1.730825"><ele>180</ele><time>2020-01-31T10:57:15Z</time><name>PT2812</name></trkpt>
<trkpt lat="53.188354" lon="-1.730832"><ele>180</ele><time>2020-01-31T10:57:16Z</time><name>PT2813</name></trkpt>
<trkpt lat="53.188360" lon="-1.730849"><ele>180</ele><time>2020-01-31T10:57:18Z</time><name>PT2814</name></trkpt>
<trkpt lat="53.188365" lon="-1.730872"><ele>182</ele><time>2020-01-31T10:57:18Z</time><name>PT2815</name></trkpt>
<trkpt lat="53.188375" lon="-1.730885"><ele>182</ele><time>2020-01-31T10:57:19Z</time><name>PT2816</name></trkpt>
<trkpt lat="53.188384" lon="-1.730896"><ele>181</ele><time>2020-01-31T10:57:21Z</time><name>PT2817</name></trkpt>
<trkpt lat="53.188392" lon="-1.730909"><ele>181</ele><time>2020-01-31T10:57:21Z</time><name>PT2818</name></trkpt>
<trkpt lat="53.188399" lon="-1.730924"><ele>182</ele><time>2020-01-31T10:57:22Z</time><name>PT2819</name></trkpt>
<trkpt lat="53.188405" lon="-1.730944"><ele>184</ele><time>2020-01-31T10:57:24Z</time><name>PT2820</name></trkpt>
<trkpt lat="53.188407" lon="-1.730963"><ele>185</ele><time>2020-01-31T10:57:24Z</time><name>PT2821</name></trkpt>
<trkpt lat="53.188409" lon="-1.730983"><ele>186</ele><time>2020-01-31T10:57:25Z</time><name>PT2822</name></trkpt>
<trkpt lat="53.188403" lon="-1.731010"><ele>188</ele><time>2020-01-31T10:57:27Z</time><name>PT2823</name></trkpt>
<trkpt lat="53.188403" lon="-1.731026"><ele>189</ele><time>2020-01-31T10:57:27Z</time><name>PT2824</name></trkpt>
<trkpt lat="53.188404" lon="-1.731041"><ele>189</ele><time>2020-01-31T10:57:28Z</time><name>PT2825</name></trkpt>
<trkpt lat="53.188402" lon="-1.731057"><ele>190</ele><time>2020-01-31T10:57:30Z</time><name>PT2826</name></trkpt>
<trkpt lat="53.188403" lon="-1.731069"><ele>190</ele><time>2020-01-31T10:57:30Z</time><name>PT2827</name></trkpt>
<trkpt lat="53.188416" lon="-1.731080"><ele>190</ele><time>2020-01-31T10:57:31Z</time><name>PT2828</name></trkpt>
<trkpt lat="53.188423" lon="-1.731091"><ele>190</ele><time>2020-01-31T10:57:33Z</time><name>PT2829</name></trkpt>
<trkpt lat="53.188428" lon="-1.731104"><ele>190</ele><time>2020-01-31T10:57:33Z</time><name>PT2830</name></trkpt>
<trkpt lat="53.188431" lon="-1.731126"><ele>190</ele><time>2020-01-31T10:57:34Z</time><name>PT2831</name></trkpt>
<trkpt lat="53.188437" lon="-1.731140"><ele>190</ele><time>2020-01-31T10:57:36Z</time><name>PT2832</name></trkpt>
<trkpt lat="53.188438" lon="-1.731152"><ele>191</ele><time>2020-01-31T10:57:36Z</time><name>PT2833</name></trkpt>
<trkpt lat="53.188448" lon="-1.731159"><ele>191</ele><time>2020-01-31T10:57:37Z</time><name>PT2834</name></trkpt>
<trkpt lat="53.188457" lon="-1.731163"><ele>191</ele><time>2020-01-31T10:57:39Z</time><name>PT2835</name></trkpt>
<trkpt lat="53.188459" lon="-1.731180"><ele>194</ele><time>2020-01-31T10:57:39Z</time><name>PT2836</name></trkpt>
<trkpt lat="53.188465" lon="-1.731199"><ele>196</ele><time>2020-01-31T10:57:40Z</time><name>PT2837</name></trkpt>
<trkpt lat="53.188471" lon="-1.731204"><ele>196</ele><time>2020-01-31T10:57:42Z</time><name>PT2838</name></trkpt>
<trkpt lat="53.188474" lon="-1.731217"><ele>195</ele><time>2020-01-31T10:57:42Z</time><name>PT2839</name></trkpt>
<trkpt lat="53.188482" lon="-1.731234"><ele>195</ele><time>2020-01-31T10:57:43Z</time><name>PT2840</name></trkpt>
<trkpt lat="53.188478" lon="-1.731255"><ele>197</ele><time>2020-01-31T10:57:45Z</time><name>PT2841</name></trkpt>
<trkpt lat="53.188469" lon="-1.731288"><ele>198</ele><time>2020-01-31T10:57:45Z</time><name>PT2842</name></trkpt>
<trkpt lat="53.188474" lon="-1.731308"><ele>200</ele><time>2020-01-31T10:57:46Z</time><name>PT2843</name></trkpt>
<trkpt lat="53.188473" lon="-1.731331"><ele>201</ele><time>2020-01-31T10:57:48Z</time><name>PT2844</name></trkpt>
<trkpt lat="53.188477" lon="-1.731358"><ele>203</ele><time>2020-01-31T10:57:48Z</time><name>PT2845</name></trkpt>
<trkpt lat="53.188476" lon="-1.731380"><ele>205</ele><time>2020-01-31T10:57:49Z</time><name>PT2846</name></trkpt>
<trkpt lat="53.188478" lon="-1.731404"><ele>206</ele><time>2020-01-31T10:57:51Z</time><name>PT2847</name></trkpt>
<trkpt lat="53.188480" lon="-1.731424"><ele>208</ele><time>2020-01-31T10:57:51Z</time><name>PT2848</name></trkpt>
<trkpt lat="53.188491" lon="-1.731438"><ele>208</ele><time>2020-01-31T10:57:52Z</time><name>PT2849</name></trkpt>
<trkpt lat="53.188504" lon="-1.731446"><ele>209</ele><time>2020-01-31T10:57:54Z</time><name>PT2850</name></trkpt>
<trkpt lat="53.188515" lon="-1.731458"><ele>210</ele><time>2020-01-31T10:57:54Z</time><name>PT2851</name></trkpt>
<trkpt lat="53.188523" lon="-1.731472"><ele>209</ele><time>2020-01-31T10:57:55Z</time><name>PT2852</name></trkpt>
<trkpt lat="53.188534" lon="-1.731477"><ele>209</ele><time>2020-01-31T10:57:57Z</time><name>PT2853</name></trkpt>
<trkpt lat="53.188537" lon="-1.731498"><ele>210</ele><time>2020-01-31T10:57:57Z</time><name>PT2854</name></trkpt>
<trkpt lat="53.188552" lon="-1.731533"><ele>208</ele><time>2020-01-31T10:57:58Z</time><name>PT2855</name></trkpt>
<trkpt lat="53.188568" lon="-1.731558"><ele>206</ele><time>2020-01-31T10:58:00Z</time><name>PT2856</name></trkpt>
<trkpt lat="53.188575" lon="-1.731574"><ele>206</ele><time>2020-01-31T10:58:00Z</time><name>PT2857</name></trkpt>
<trkpt lat="53.188591" lon="-1.731583"><ele>206</ele><time>2020-01-31T10:58:01Z</time><name>PT2858</name></trkpt>
<trkpt lat="53.188598" lon="-1.731601"><ele>206</ele><time>2020-01-31T10:58:03Z</time><name>PT2859</name></trkpt>
<trkpt lat="53.188607" lon="-1.731609"><ele>204</ele><time>2020-01-31T10:58:03Z</time><name>PT2860</name></trkpt>
<trkpt lat="53.188625" lon="-1.731613"><ele>205</ele><time>2020-01-31T10:58:04Z</time><name>PT2861</name></trkpt>
<trkpt lat="53.188635" lon="-1.731617"><ele>206</ele><time>2020-01-31T10:58:06Z</time><name>PT2862</name></trkpt>
<trkpt lat="53.188645" lon="-1.731632"><ele>206</ele><time>2020-01-31T10:58:06Z</time><name>PT2863</name></trkpt>
<trkpt lat="53.188654" lon="-1.731648"><ele>207</ele><time>2020-01-31T10:58:07Z</time><name>PT2864</name></trkpt>
<trkpt lat="53.188663" lon="-1.731662"><ele>207</ele><time>2020-01-31T10:58:09Z</time><name>PT2865</name></trkpt>
<trkpt lat="53.188668" lon="-1.731673"><ele>208</ele><time>2020-01-31T10:58:09Z</time><name>PT2866</name></trkpt>
<trkpt lat="53.188675" lon="-1.731685"><ele>208</ele><time>2020-01-31T10:58:10Z</time><name>PT2867</name></trkpt>
<trkpt lat="53.188679" lon="-1.731697"><ele>208</ele><time>2020-01-31T10:58:12Z</time><name>PT2868</name></trkpt>
<trkpt lat="53.188683" lon="-1.731715"><ele>208</ele><time>2020-01-31T10:58:12Z</time><name>PT2869</name></trkpt>
<trkpt lat="53.188689" lon="-1.731730"><ele>207</ele><time>2020-01-31T10:58:13Z</time><name>PT2870</name></trkpt>
<trkpt lat="53.188695" lon="-1.731747"><ele>208</ele><time>2020-01-31T10:58:15Z</time><name>PT2871</name></trkpt>
<trkpt lat="53.188701" lon="-1.731763"><ele>208</ele><time>2020-01-31T10:58:15Z</time><name>PT2872</name></trkpt>
<trkpt lat="53.188711" lon="-1.731780"><ele>208</ele><time>2020-01-31T10:58:16Z</time><name>PT2873</name></trkpt>
<trkpt lat="53.188719" lon="-1.731800"><ele>208</ele><time>2020-01-31T10:58:18Z</time><name>PT2874</name></trkpt>
<trkpt lat="53.188728" lon="-1.731818"><ele>207</ele><time>2020-01-31T10:58:18Z</time><name>PT2875</name></trkpt>
<trkpt lat="53.188733" lon="-1.731833"><ele>206</ele><time>2020-01-31T10:58:19Z</time><name>PT2876</name></trkpt>
<trkpt lat="53.188740" lon="-1.731841"><ele>205</ele><time>2020-01-31T10:58:21Z</time><name>PT2877</name></trkpt>
<trkpt lat="53.188745" lon="-1.731847"><ele>205</ele><time>2020-01-31T10:58:21Z</time><name>PT2878</name></trkpt>
<trkpt lat="53.188754" lon="-1.731852"><ele>204</ele><time>2020-01-31T10:58:22Z</time><name>PT2879</name></trkpt>
<trkpt lat="53.188759" lon="-1.731858"><ele>204</ele><time>2020-01-31T10:58:24Z</time><name>PT2880</name></trkpt>
<trkpt lat="53.188764" lon="-1.731862"><ele>203</ele><time>2020-01-31T10:58:24Z</time><name>PT2881</name></trkpt>
<trkpt lat="53.188768" lon="-1.731884"><ele>203</ele><time>2020-01-31T10:58:25Z</time><name>PT2882</name></trkpt>
<trkpt lat="53.188770" lon="-1.731888"><ele>202</ele><time>2020-01-31T10:58:27Z</time><name>PT2883</name></trkpt>
<trkpt lat="53.188775" lon="-1.731888"><ele>200</ele><time>2020-01-31T10:58:27Z</time><name>PT2884</name></trkpt>
<trkpt lat="53.188775" lon="-1.731891"><ele>201</ele><time>2020-01-31T10:58:28Z</time><name>PT2885</name></trkpt>
<trkpt lat="53.188776" lon="-1.731899"><ele>201</ele><time>2020-01-31T10:58:30Z</time><name>PT2886</name></trkpt>
<trkpt lat="53.188779" lon="-1.731902"><ele>200</ele><time>2020-01-31T10:58:30Z</time><name>PT2887</name></trkpt>
<trkpt lat="53.188785" lon="-1.731910"><ele>199</ele><time>2020-01-31T10:58:31Z</time><name>PT2888</name></trkpt>
<trkpt lat="53.188784" lon="-1.731919"><ele>199</ele><time>2020-01-31T10:58:33Z</time><name>PT2889</name></trkpt>
<trkpt lat="53.188786" lon="-1.731916"><ele>198</ele><time>2020-01-31T10:58:33Z</time><name>PT2890</name></trkpt>
<trkpt lat="53.188791" lon="-1.731921"><ele>198</ele><time>2020-01-31T10:58:34Z</time><name>PT2891</name></trkpt>
<trkpt lat="53.188806" lon="-1.731919"><ele>195</ele><time>2020-01-31T10:58:36Z</time><name>PT2892</name></trkpt>
<trkpt lat="53.188813" lon="-1.731936"><ele>192</ele><time>2020-01-31T10:58:36Z</time><name>PT2893</name></trkpt>
<trkpt lat="53.188812" lon="-1.731964"><ele>191</ele><time>2020-01-31T10:58:37Z</time><name>PT2894</name></trkpt>
<trkpt lat="53.188821" lon="-1.731977"><ele>190</ele><time>2020-01-31T10:58:39Z</time><name>PT2895</name></trkpt>
<trkpt lat="53.188831" lon="-1.731992"><ele>191</ele><time>2020-01-31T10:58:39Z</time><name>PT2896</name></trkpt>
<trkpt lat="53.188853" lon="-1.731994"><ele>190</ele><time>2020-01-31T10:58:40Z</time><name>PT2897</name></trkpt>
<trkpt lat="53.188866" lon="-1.732006"><ele>189</ele><time>2020-01-31T10:58:42Z</time><name>PT2898</name></trkpt>
<trkpt lat="53.188865" lon="-1.732021"><ele>188</ele><time>2020-01-31T10:58:42Z</time><name>PT2899</name></trkpt>
<trkpt lat="53.188869" lon="-1.732035"><ele>188</ele><time>2020-01-31T10:58:43Z</time><name>PT2900</name></trkpt>
<trkpt lat="53.188881" lon="-1.732048"><ele>188</ele><time>2020-01-31T10:58:45Z</time><name>PT2901</name></trkpt>
<trkpt lat="53.188888" lon="-1.732062"><ele>187</ele><time>2020-01-31T10:58:45Z</time><name>PT2902</name></trkpt>
<trkpt lat="53.188895" lon="-1.732081"><ele>186</ele><time>2020-01-31T10:58:46Z</time><name>PT2903</name></trkpt>
<trkpt lat="53.188902" lon="-1.732095"><ele>184</ele><time>2020-01-31T10:58:48Z</time><name>PT2904</name></trkpt>
<trkpt lat="53.188910" lon="-1.732105"><ele>183</ele><time>2020-01-31T10:58:48Z</time><name>PT2905</name></trkpt>
<trkpt lat="53.188910" lon="-1.732117"><ele>181</ele><time>2020-01-31T10:58:49Z</time><name>PT2906</name></trkpt>
<trkpt lat="53.188908" lon="-1.732132"><ele>184</ele><time>2020-01-31T10:58:51Z</time><name>PT2907</name></trkpt>
<trkpt lat="53.188912" lon="-1.732144"><ele>182</ele><time>2020-01-31T10:58:51Z</time><name>PT2908</name></trkpt>
<trkpt lat="53.188914" lon="-1.732157"><ele>182</ele><time>2020-01-31T10:58:52Z</time><name>PT2909</name></trkpt>
<trkpt lat="53.188914" lon="-1.732175"><ele>183</ele><time>2020-01-31T10:58:54Z</time><name>PT2910</name></trkpt>
<trkpt lat="53.188918" lon="-1.732199"><ele>182</ele><time>2020-01-31T10:58:54Z</time><name>PT2911</name></trkpt>
<trkpt lat="53.188917" lon="-1.732216"><ele>181</ele><time>2020-01-31T10:58:55Z</time><name>PT2912</name></trkpt>
<trkpt lat="53.188912" lon="-1.732244"><ele>182</ele><time>2020-01-31T10:58:57Z</time><name>PT2913</name></trkpt>
<trkpt lat="53.188921" lon="-1.732257"><ele>181</ele><time>2020-01-31T10:58:57Z</time><name>PT2914</name></trkpt>
<trkpt lat="53.188921" lon="-1.732274"><ele>182</ele><time>2020-01-31T10:58:58Z</time><name>PT2915</name></trkpt>
<trkpt lat="53.188917" lon="-1.732297"><ele>181</ele><time>2020-01-31T10:59:00Z</time><name>PT2916</name></trkpt>
<trkpt lat="53.188915" lon="-1.732320"><ele>181</ele><time>2020-01-31T10:59:00Z</time><name>PT2917</name></trkpt>
<trkpt lat="53.188916" lon="-1.732344"><ele>182</ele><time>2020-01-31T10:59:01Z</time><name>PT2918</name></trkpt>
<trkpt lat="53.188917" lon="-1.732359"><ele>183</ele><time>2020-01-31T10:59:03Z</time><name>PT2919</name></trkpt>
<trkpt lat="53.188911" lon="-1.732377"><ele>184</ele><time>2020-01-31T10:59:03Z</time><name>PT2920</name></trkpt>
<trkpt lat="53.188918" lon="-1.732394"><ele>183</ele><time>2020-01-31T10:59:04Z</time><name>PT2921</name></trkpt>
<trkpt lat="53.188918" lon="-1.732410"><ele>183</ele><time>2020-01-31T10:59:06Z</time><name>PT2922</name></trkpt>
<trkpt lat="53.188914" lon="-1.732431"><ele>184</ele><time>2020-01-31T10:59:06Z</time><name>PT2923</name></trkpt>
<trkpt lat="53.188916" lon="-1.732448"><ele>183</ele><time>2020-01-31T10:59:07Z</time><name>PT2924</name></trkpt>
<trkpt lat="53.188920" lon="-1.732470"><ele>183</ele><time>2020-01-31T10:59:09Z</time><name>PT2925</name></trkpt>
<trkpt lat="53.188936" lon="-1.732473"><ele>184</ele><time>2020-01-31T10:59:09Z</time><name>PT2926</name></trkpt>
<trkpt lat="53.188934" lon="-1.732486"><ele>185</ele><time>2020-01-31T10:59:10Z</time><name>PT2927</name></trkpt>
<trkpt lat="53.188930" lon="-1.732504"><ele>185</ele><time>2020-01-31T10:59:12Z</time><name>PT2928</name></trkpt>
<trkpt lat="53.188920" lon="-1.732530"><ele>185</ele><time>2020-01-31T10:59:12Z</time><name>PT2929</name></trkpt>
<trkpt lat="53.188916" lon="-1.732551"><ele>186</ele><time>2020-01-31T10:59:13Z</time><name>PT2930</name></trkpt>
<trkpt lat="53.188913" lon="-1.732570"><ele>185</ele><time>2020-01-31T10:59:15Z</time><name>PT2931</name></trkpt>
<trkpt lat="53.188913" lon="-1.732588"><ele>185</ele><time>2020-01-31T10:59:15Z</time><name>PT2932</name></trkpt>
<trkpt lat="53.188913" lon="-1.732601"><ele>185</ele><time>2020-01-31T10:59:16Z</time><name>PT2933</name></trkpt>
<trkpt lat="53.188916" lon="-1.732607"><ele>184</ele><time>2020-01-31T10:59:18Z</time><name>PT2934</name></trkpt>
<trkpt lat="53.188913" lon="-1.732621"><ele>184</ele><time>2020-01-31T10:59:18Z</time><name>PT2935</name></trkpt>
<trkpt lat="53.188905" lon="-1.732644"><ele>185</ele><time>2020-01-31T10:59:19Z</time><name>PT2936</name></trkpt>
<trkpt lat="53.188901" lon="-1.732663"><ele>185</ele><time>2020-01-31T10:59:21Z</time><name>PT2937</name></trkpt>
<trkpt lat="53.188902" lon="-1.732676"><ele>186</ele><time>2020-01-31T10:59:21Z</time><name>PT2938</name></trkpt>
<trkpt lat="53.188900" lon="-1.732695"><ele>187</ele><time>2020-01-31T10:59:22Z</time><name>PT2939</name></trkpt>
<trkpt lat="53.188892" lon="-1.732713"><ele>187</ele><time>2020-01-31T10:59:24Z</time><name>PT2940</name></trkpt>
<trkpt lat="53.188886" lon="-1.732730"><ele>186</ele><time>2020-01-31T10:59:24Z</time><name>PT2941</name></trkpt>
<trkpt lat="53.188880" lon="-1.732743"><ele>186</ele><time>2020-01-31T10:59:25Z</time><name>PT2942</name></trkpt>
<trkpt lat="53.188879" lon="-1.732764"><ele>185</ele><time>2020-01-31T10:59:27Z</time><name>PT2943</name></trkpt>
<trkpt lat="53.188871" lon="-1.732780"><ele>185</ele><time>2020-01-31T10:59:27Z</time><name>PT2944</name></trkpt>
<trkpt lat="53.188867" lon="-1.732798"><ele>185</ele><time>2020-01-31T10:59:28Z</time><name>PT2945</name></trkpt>
<trkpt lat="53.188862" lon="-1.732817"><ele>184</ele><time>2020-01-31T10:59:30Z</time><name>PT2946</name></trkpt>
<trkpt lat="53.188854" lon="-1.732834"><ele>184</ele><time>2020-01-31T10:59:30Z</time><name>PT2947</name></trkpt>
<trkpt lat="53.188847" lon="-1.732860"><ele>182</ele><time>2020-01-31T10:59:31Z</time><name>PT2948</name></trkpt>
<trkpt lat="53.188843" lon="-1.732877"><ele>181</ele><time>2020-01-31T10:59:33Z</time><name>PT2949</name></trkpt>
<trkpt lat="53.188840" lon="-1.732890"><ele>181</ele><time>2020-01-31T10:59:33Z</time><name>PT2950</name></trkpt>
<trkpt lat="53.188837" lon="-1.732905"><ele>180</ele><time>2020-01-31T10:59:34Z</time><name>PT2951</name></trkpt>
<trkpt lat="53.188828" lon="-1.732924"><ele>180</ele><time>2020-01-31T10:59:36Z</time><name>PT2952</name></trkpt>
<trkpt lat="53.188820" lon="-1.732945"><ele>180</ele><time>2020-01-31T10:59:36Z</time><name>PT2953</name></trkpt>
<trkpt lat="53.188815" lon="-1.732961"><ele>180</ele><time>2020-01-31T10:59:37Z</time><name>PT2954</name></trkpt>
<trkpt lat="53.188813" lon="-1.732976"><ele>179</ele><time>2020-01-31T10:59:39Z</time><name>PT2955</name></trkpt>
<trkpt lat="53.188811" lon="-1.732993"><ele>179</ele><time>2020-01-31T10:59:39Z</time><name>PT2956</name></trkpt>
<trkpt lat="53.188809" lon="-1.733006"><ele>179</ele><time>2020-01-31T10:59:40Z</time><name>PT2957</name></trkpt>
<trkpt lat="53.188808" lon="-1.733021"><ele>179</ele><time>2020-01-31T10:59:42Z</time><name>PT2958</name></trkpt>
<trkpt lat="53.188807" lon="-1.733034"><ele>179</ele><time>2020-01-31T10:59:42Z</time><name>PT2959</name></trkpt>
<trkpt lat="53.188802" lon="-1.733045"><ele>180</ele><time>2020-01-31T10:59:43Z</time><name>PT2960</name></trkpt>
<trkpt lat="53.188796" lon="-1.733054"><ele>181</ele><time>2020-01-31T10:59:45Z</time><name>PT2961</name></trkpt>
<trkpt lat="53.188797" lon="-1.733066"><ele>181</ele><time>2020-01-31T10:59:45Z</time><name>PT2962</name></trkpt>
<trkpt lat="53.188800" lon="-1.733068"><ele>181</ele><time>2020-01-31T10:59:46Z</time><name>PT2963</name></trkpt>
<trkpt lat="53.188796" lon="-1.733075"><ele>181</ele><time>2020-01-31T10:59:48Z</time><name>PT2964</name></trkpt>
<trkpt lat="53.188791" lon="-1.733086"><ele>181</ele><time>2020-01-31T10:59:48Z</time><name>PT2965</name></trkpt>
<trkpt lat="53.188783" lon="-1.733101"><ele>182</ele><time>2020-01-31T10:59:49Z</time><name>PT2966</name></trkpt>
<trkpt lat="53.188776" lon="-1.733116"><ele>183</ele><time>2020-01-31T10:59:51Z</time><name>PT2967</name></trkpt>
<trkpt lat="53.188766" lon="-1.733123"><ele>183</ele><time>2020-01-31T10:59:51Z</time><name>PT2968</name></trkpt>
<trkpt lat="53.188754" lon="-1.733139"><ele>186</ele><time>2020-01-31T10:59:52Z</time><name>PT2969</name></trkpt>
<trkpt lat="53.188743" lon="-1.733155"><ele>189</ele><time>2020-01-31T10:59:54Z</time><name>PT2970</name></trkpt>
<trkpt lat="53.188736" lon="-1.733169"><ele>189</ele><time>2020-01-31T10:59:54Z</time><name>PT2971</name></trkpt>
<trkpt lat="53.188731" lon="-1.733188"><ele>190</ele><time>2020-01-31T10:59:55Z</time><name>PT2972</name></trkpt>
<trkpt lat="53.188723" lon="-1.733199"><ele>189</ele><time>2020-01-31T10:59:57Z</time><name>PT2973</name></trkpt>
<trkpt lat="53.188714" lon="-1.733208"><ele>189</ele><time>2020-01-31T10:59:57Z</time><name>PT2974</name></trkpt>
<trkpt lat="53.188706" lon="-1.733220"><ele>190</ele><time>2020-01-31T10:59:58Z</time><name>PT2975</name></trkpt>
<trkpt lat="53.188704" lon="-1.733228"><ele>189</ele><time>2020-01-31T11:00:00Z</time><name>PT2976</name></trkpt>
<trkpt lat="53.188698" lon="-1.733245"><ele>189</ele><time>2020-01-31T11:00:00Z</time><name>PT2977</name></trkpt>
<trkpt lat="53.188695" lon="-1.733256"><ele>189</ele><time>2020-01-31T11:00:01Z</time><name>PT2978</name></trkpt>
<trkpt lat="53.188685" lon="-1.733274"><ele>188</ele><time>2020-01-31T11:00:03Z</time><name>PT2979</name></trkpt>
<trkpt lat="53.188679" lon="-1.733287"><ele>188</ele><time>2020-01-31T11:00:03Z</time><name>PT2980</name></trkpt>
<trkpt lat="53.188672" lon="-1.733307"><ele>189</ele><time>2020-01-31T11:00:04Z</time><name>PT2981</name></trkpt>
<trkpt lat="53.188666" lon="-1.733322"><ele>190</ele><time>2020-01-31T11:00:06Z</time><name>PT2982</name></trkpt>
<trkpt lat="53.188665" lon="-1.733337"><ele>189</ele><time>2020-01-31T11:00:06Z</time><name>PT2983</name></trkpt>
<trkpt lat="53.188661" lon="-1.733354"><ele>190</ele><time>2020-01-31T11:00:07Z</time><name>PT2984</name></trkpt>
<trkpt lat="53.188658" lon="-1.733368"><ele>190</ele><time>2020-01-31T11:00:09Z</time><name>PT2985</name></trkpt>
<trkpt lat="53.188654" lon="-1.733380"><ele>189</ele><time>2020-01-31T11:00:09Z</time><name>PT2986</name></trkpt>
<trkpt lat="53.188650" lon="-1.733396"><ele>189</ele><time>2020-01-31T11:00:10Z</time><name>PT2987</name></trkpt>
<trkpt lat="53.188644" lon="-1.733408"><ele>189</ele><time>2020-01-31T11:00:12Z</time><name>PT2988</name></trkpt>
<trkpt lat="53.188640" lon="-1.733423"><ele>189</ele><time>2020-01-31T11:00:12Z</time><name>PT2989</name></trkpt>
<trkpt lat="53.188633" lon="-1.733440"><ele>190</ele><time>2020-01-31T11:00:13Z</time><name>PT2990</name></trkpt>
<trkpt lat="53.188626" lon="-1.733456"><ele>189</ele><time>2020-01-31T11:00:15Z</time><name>PT2991</name></trkpt>
<trkpt lat="53.188618" lon="-1.733469"><ele>190</ele><time>2020-01-31T11:00:15Z</time><name>PT2992</name></trkpt>
<trkpt lat="53.188610" lon="-1.733485"><ele>191</ele><time>2020-01-31T11:00:16Z</time><name>PT2993</name></trkpt>
<trkpt lat="53.188605" lon="-1.733500"><ele>190</ele><time>2020-01-31T11:00:18Z</time><name>PT2994</name></trkpt>
<trkpt lat="53.188599" lon="-1.733513"><ele>190</ele><time>2020-01-31T11:00:18Z</time><name>PT2995</name></trkpt>
<trkpt lat="53.188593" lon="-1.733522"><ele>190</ele><time>2020-01-31T11:00:19Z</time><name>PT2996</name></trkpt>
<trkpt lat="53.188583" lon="-1.733544"><ele>193</ele><time>2020-01-31T11:00:21Z</time><name>PT2997</name></trkpt>
<trkpt lat="53.188574" lon="-1.733553"><ele>193</ele><time>2020-01-31T11:00:21Z</time><name>PT2998</name></trkpt>
<trkpt lat="53.188568" lon="-1.733567"><ele>193</ele><time>2020-01-31T11:00:23Z</time><name>PT2999</name></trkpt>
<trkpt lat="53.188564" lon="-1.733575"><ele>192</ele><time>2020-01-31T11:00:24Z</time><name>PT3000</name></trkpt>
<trkpt lat="53.188562" lon="-1.733586"><ele>192</ele><time>2020-01-31T11:00:24Z</time><name>PT3001</name></trkpt>
<trkpt lat="53.188553" lon="-1.733607"><ele>192</ele><time>2020-01-31T11:00:25Z</time><name>PT3002</name></trkpt>
<trkpt lat="53.188546" lon="-1.733628"><ele>192</ele><time>2020-01-31T11:00:27Z</time><name>PT3003</name></trkpt>
<trkpt lat="53.188539" lon="-1.733641"><ele>192</ele><time>2020-01-31T11:00:27Z</time><name>PT3004</name></trkpt>
<trkpt lat="53.188534" lon="-1.733658"><ele>193</ele><time>2020-01-31T11:00:28Z</time><name>PT3005</name></trkpt>
<trkpt lat="53.188529" lon="-1.733674"><ele>192</ele><time>2020-01-31T11:00:30Z</time><name>PT3006</name></trkpt>
<trkpt lat="53.188525" lon="-1.733687"><ele>192</ele><time>2020-01-31T11:00:30Z</time><name>PT3007</name></trkpt>
<trkpt lat="53.188519" lon="-1.733698"><ele>191</ele><time>2020-01-31T11:00:31Z</time><name>PT3008</name></trkpt>
<trkpt lat="53.188512" lon="-1.733704"><ele>190</ele><time>2020-01-31T11:00:33Z</time><name>PT3009</name></trkpt>
<trkpt lat="53.188503" lon="-1.733716"><ele>190</ele><time>2020-01-31T11:00:33Z</time><name>PT3010</name></trkpt>
<trkpt lat="53.188497" lon="-1.733730"><ele>189</ele><time>2020-01-31T11:00:34Z</time><name>PT3011</name></trkpt>
<trkpt lat="53.188492" lon="-1.733743"><ele>189</ele><time>2020-01-31T11:00:36Z</time><name>PT3012</name></trkpt>
<trkpt lat="53.188487" lon="-1.733754"><ele>188</ele><time>2020-01-31T11:00:36Z</time><name>PT3013</name></trkpt>
<trkpt lat="53.188482" lon="-1.733764"><ele>188</ele><time>2020-01-31T11:00:37Z</time><name>PT3014</name></trkpt>
<trkpt lat="53.188476" lon="-1.733770"><ele>189</ele><time>2020-01-31T11:00:39Z</time><name>PT3015</name></trkpt>
<trkpt lat="53.188474" lon="-1.733779"><ele>188</ele><time>2020-01-31T11:00:39Z</time><name>PT3016</name></trkpt>
<trkpt lat="53.188471" lon="-1.733787"><ele>189</ele><time>2020-01-31T11:00:40Z</time><name>PT3017</name></trkpt>
<trkpt lat="53.188466" lon="-1.733789"><ele>188</ele><time>2020-01-31T11:00:42Z</time><name>PT3018</name></trkpt>
<trkpt lat="53.188463" lon="-1.733794"><ele>188</ele><time>2020-01-31T11:00:42Z</time><name>PT3019</name></trkpt>
<trkpt lat="53.188457" lon="-1.733804"><ele>189</ele><time>2020-01-31T11:00:43Z</time><name>PT3020</name></trkpt>
<trkpt lat="53.188455" lon="-1.733804"><ele>188</ele><time>2020-01-31T11:00:45Z</time><name>PT3021</name></trkpt>
<trkpt lat="53.188452" lon="-1.733814"><ele>188</ele><time>2020-01-31T11:00:45Z</time><name>PT3022</name></trkpt>
<trkpt lat="53.188445" lon="-1.733821"><ele>188</ele><time>2020-01-31T11:00:46Z</time><name>PT3023</name></trkpt>
<trkpt lat="53.188441" lon="-1.733835"><ele>187</ele><time>2020-01-31T11:00:48Z</time><name>PT3024</name></trkpt>
<trkpt lat="53.188432" lon="-1.733837"><ele>187</ele><time>2020-01-31T11:00:48Z</time><name>PT3025</name></trkpt>
<trkpt lat="53.188426" lon="-1.733845"><ele>187</ele><time>2020-01-31T11:00:49Z</time><name>PT3026</name></trkpt>
<trkpt lat="53.188417" lon="-1.733858"><ele>187</ele><time>2020-01-31T11:00:51Z</time><name>PT3027</name></trkpt>
<trkpt lat="53.188409" lon="-1.733870"><ele>187</ele><time>2020-01-31T11:00:51Z</time><name>PT3028</name></trkpt>
<trkpt lat="53.188401" lon="-1.733881"><ele>187</ele><time>2020-01-31T11:00:52Z</time><name>PT3029</name></trkpt>
<trkpt lat="53.188393" lon="-1.733891"><ele>187</ele><time>2020-01-31T11:00:54Z</time><name>PT3030</name></trkpt>
<trkpt lat="53.188390" lon="-1.733899"><ele>186</ele><time>2020-01-31T11:00:54Z</time><name>PT3031</name></trkpt>
<trkpt lat="53.188381" lon="-1.733915"><ele>185</ele><time>2020-01-31T11:00:55Z</time><name>PT3032</name></trkpt>
<trkpt lat="53.188374" lon="-1.733929"><ele>185</ele><time>2020-01-31T11:00:57Z</time><name>PT3033</name></trkpt>
<trkpt lat="53.188370" lon="-1.733944"><ele>184</ele><time>2020-01-31T11:00:57Z</time><name>PT3034</name></trkpt>
<trkpt lat="53.188366" lon="-1.733952"><ele>184</ele><time>2020-01-31T11:00:58Z</time><name>PT3035</name></trkpt>
<trkpt lat="53.188369" lon="-1.733975"><ele>183</ele><time>2020-01-31T11:01:00Z</time><name>PT3036</name></trkpt>
<trkpt lat="53.188360" lon="-1.733992"><ele>183</ele><time>2020-01-31T11:01:00Z</time><name>PT3037</name></trkpt>
<trkpt lat="53.188355" lon="-1.733999"><ele>182</ele><time>2020-01-31T11:01:01Z</time><name>PT3038</name></trkpt>
<trkpt lat="53.188348" lon="-1.734009"><ele>181</ele><time>2020-01-31T11:01:03Z</time><name>PT3039</name></trkpt>
<trkpt lat="53.188344" lon="-1.734016"><ele>181</ele><time>2020-01-31T11:01:03Z</time><name>PT3040</name></trkpt>
<trkpt lat="53.188338" lon="-1.734017"><ele>180</ele><time>2020-01-31T11:01:04Z</time><name>PT3041</name></trkpt>
<trkpt lat="53.188332" lon="-1.734030"><ele>180</ele><time>2020-01-31T11:01:06Z</time><name>PT3042</name></trkpt>
<trkpt lat="53.188331" lon="-1.734035"><ele>180</ele><time>2020-01-31T11:01:06Z</time><name>PT3043</name></trkpt>
<trkpt lat="53.188322" lon="-1.734053"><ele>180</ele><time>2020-01-31T11:01:07Z</time><name>PT3044</name></trkpt>
<trkpt lat="53.188317" lon="-1.734069"><ele>180</ele><time>2020-01-31T11:01:09Z</time><name>PT3045</name></trkpt>
<trkpt lat="53.188304" lon="-1.734089"><ele>180</ele><time>2020-01-31T11:01:09Z</time><name>PT3046</name></trkpt>
<trkpt lat="53.188295" lon="-1.734106"><ele>180</ele><time>2020-01-31T11:01:11Z</time><name>PT3047</name></trkpt>
<trkpt lat="53.188289" lon="-1.734118"><ele>179</ele><time>2020-01-31T11:01:12Z</time><name>PT3048</name></trkpt>
<trkpt lat="53.188283" lon="-1.734124"><ele>179</ele><time>2020-01-31T11:01:12Z</time><name>PT3049</name></trkpt>
<trkpt lat="53.188273" lon="-1.734132"><ele>179</ele><time>2020-01-31T11:01:13Z</time><name>PT3050</name></trkpt>
<trkpt lat="53.188265" lon="-1.734145"><ele>178</ele><time>2020-01-31T11:01:15Z</time><name>PT3051</name></trkpt>
<trkpt lat="53.188260" lon="-1.734157"><ele>178</ele><time>2020-01-31T11:01:15Z</time><name>PT3052</name></trkpt>
<trkpt lat="53.188253" lon="-1.734170"><ele>178</ele><time>2020-01-31T11:01:17Z</time><name>PT3053</name></trkpt>
<trkpt lat="53.188248" lon="-1.734169"><ele>177</ele><time>2020-01-31T11:01:18Z</time><name>PT3054</name></trkpt>
<trkpt lat="53.188240" lon="-1.734179"><ele>177</ele><time>2020-01-31T11:01:18Z</time><name>PT3055</name></trkpt>
<trkpt lat="53.188236" lon="-1.734190"><ele>176</ele><time>2020-01-31T11:01:19Z</time><name>PT3056</name></trkpt>
<trkpt lat="53.188229" lon="-1.734206"><ele>177</ele><time>2020-01-31T11:01:21Z</time><name>PT3057</name></trkpt>
<trkpt lat="53.188222" lon="-1.734225"><ele>177</ele><time>2020-01-31T11:01:21Z</time><name>PT3058</name></trkpt>
<trkpt lat="53.188214" lon="-1.734230"><ele>177</ele><time>2020-01-31T11:01:22Z</time><name>PT3059</name></trkpt>
<trkpt lat="53.188206" lon="-1.734233"><ele>177</ele><time>2020-01-31T11:01:24Z</time><name>PT3060</name></trkpt>
<trkpt lat="53.188194" lon="-1.734242"><ele>177</ele><time>2020-01-31T11:01:24Z</time><name>PT3061</name></trkpt>
<trkpt lat="53.188183" lon="-1.734256"><ele>177</ele><time>2020-01-31T11:01:25Z</time><name>PT3062</name></trkpt>
<trkpt lat="53.188169" lon="-1.734270"><ele>178</ele><time>2020-01-31T11:01:27Z</time><name>PT3063</name></trkpt>
<trkpt lat="53.188159" lon="-1.734282"><ele>178</ele><time>2020-01-31T11:01:27Z</time><name>PT3064</name></trkpt>
<trkpt lat="53.188148" lon="-1.734297"><ele>177</ele><time>2020-01-31T11:01:28Z</time><name>PT3065</name></trkpt>
<trkpt lat="53.188136" lon="-1.734308"><ele>177</ele><time>2020-01-31T11:01:30Z</time><name>PT3066</name></trkpt>
<trkpt lat="53.188126" lon="-1.734313"><ele>177</ele><time>2020-01-31T11:01:30Z</time><name>PT3067</name></trkpt>
<trkpt lat="53.188116" lon="-1.734318"><ele>177</ele><time>2020-01-31T11:01:31Z</time><name>PT3068</name></trkpt>
<trkpt lat="53.188111" lon="-1.734332"><ele>177</ele><time>2020-01-31T11:01:33Z</time><name>PT3069</name></trkpt>
<trkpt lat="53.188107" lon="-1.734339"><ele>178</ele><time>2020-01-31T11:01:33Z</time><name>PT3070</name></trkpt>
<trkpt lat="53.188097" lon="-1.734350"><ele>178</ele><time>2020-01-31T11:01:34Z</time><name>PT3071</name></trkpt>
<trkpt lat="53.188087" lon="-1.734371"><ele>181</ele><time>2020-01-31T11:01:36Z</time><name>PT3072</name></trkpt>
<trkpt lat="53.188077" lon="-1.734373"><ele>183</ele><time>2020-01-31T11:01:36Z</time><name>PT3073</name></trkpt>
<trkpt lat="53.188068" lon="-1.734377"><ele>185</ele><time>2020-01-31T11:01:37Z</time><name>PT3074</name></trkpt>
<trkpt lat="53.188063" lon="-1.734379"><ele>187</ele><time>2020-01-31T11:01:39Z</time><name>PT3075</name></trkpt>
<trkpt lat="53.188035" lon="-1.734413"><ele>188</ele><time>2020-01-31T11:01:49Z</time><name>PT3076</name></trkpt>
<trkpt lat="53.188023" lon="-1.734436"><ele>187</ele><time>2020-01-31T11:01:51Z</time><name>PT3077</name></trkpt>
<trkpt lat="53.188011" lon="-1.734465"><ele>187</ele><time>2020-01-31T11:01:51Z</time><name>PT3078</name></trkpt>
<trkpt lat="53.188001" lon="-1.734483"><ele>187</ele><time>2020-01-31T11:01:52Z</time><name>PT3079</name></trkpt>
<trkpt lat="53.187993" lon="-1.734506"><ele>187</ele><time>2020-01-31T11:01:54Z</time><name>PT3080</name></trkpt>
<trkpt lat="53.187977" lon="-1.734531"><ele>187</ele><time>2020-01-31T11:01:54Z</time><name>PT3081</name></trkpt>
<trkpt lat="53.187964" lon="-1.734553"><ele>187</ele><time>2020-01-31T11:01:55Z</time><name>PT3082</name></trkpt>
<trkpt lat="53.187947" lon="-1.734555"><ele>187</ele><time>2020-01-31T11:01:57Z</time><name>PT3083</name></trkpt>
<trkpt lat="53.187937" lon="-1.734570"><ele>187</ele><time>2020-01-31T11:01:57Z</time><name>PT3084</name></trkpt>
<trkpt lat="53.187929" lon="-1.734581"><ele>186</ele><time>2020-01-31T11:01:58Z</time><name>PT3085</name></trkpt>
<trkpt lat="53.187925" lon="-1.734591"><ele>187</ele><time>2020-01-31T11:02:00Z</time><name>PT3086</name></trkpt>
<trkpt lat="53.187916" lon="-1.734601"><ele>187</ele><time>2020-01-31T11:02:00Z</time><name>PT3087</name></trkpt>
<trkpt lat="53.187908" lon="-1.734617"><ele>187</ele><time>2020-01-31T11:02:01Z</time><name>PT3088</name></trkpt>
<trkpt lat="53.187901" lon="-1.734631"><ele>187</ele><time>2020-01-31T11:02:03Z</time><name>PT3089</name></trkpt>
<trkpt lat="53.187896" lon="-1.734644"><ele>187</ele><time>2020-01-31T11:02:03Z</time><name>PT3090</name></trkpt>
<trkpt lat="53.187896" lon="-1.734663"><ele>187</ele><time>2020-01-31T11:02:04Z</time><name>PT3091</name></trkpt>
<trkpt lat="53.187893" lon="-1.734673"><ele>187</ele><time>2020-01-31T11:02:06Z</time><name>PT3092</name></trkpt>
<trkpt lat="53.187891" lon="-1.734679"><ele>187</ele><time>2020-01-31T11:02:06Z</time><name>PT3093</name></trkpt>
<trkpt lat="53.187886" lon="-1.734690"><ele>187</ele><time>2020-01-31T11:02:07Z</time><name>PT3094</name></trkpt>
<trkpt lat="53.187879" lon="-1.734703"><ele>187</ele><time>2020-01-31T11:02:09Z</time><name>PT3095</name></trkpt>
<trkpt lat="53.187873" lon="-1.734716"><ele>187</ele><time>2020-01-31T11:02:09Z</time><name>PT3096</name></trkpt>
<trkpt lat="53.187864" lon="-1.734730"><ele>187</ele><time>2020-01-31T11:02:10Z</time><name>PT3097</name></trkpt>
<trkpt lat="53.187856" lon="-1.734743"><ele>187</ele><time>2020-01-31T11:02:12Z</time><name>PT3098</name></trkpt>
<trkpt lat="53.187847" lon="-1.734751"><ele>187</ele><time>2020-01-31T11:02:12Z</time><name>PT3099</name></trkpt>
<trkpt lat="53.187836" lon="-1.734761"><ele>187</ele><time>2020-01-31T11:02:13Z</time><name>PT3100</name></trkpt>
<trkpt lat="53.187826" lon="-1.734771"><ele>187</ele><time>2020-01-31T11:02:15Z</time><name>PT3101</name></trkpt>
<trkpt lat="53.187822" lon="-1.734774"><ele>187</ele><time>2020-01-31T11:02:15Z</time><name>PT3102</name></trkpt>
<trkpt lat="53.187814" lon="-1.734779"><ele>187</ele><time>2020-01-31T11:02:16Z</time><name>PT3103</name></trkpt>
<trkpt lat="53.187807" lon="-1.734791"><ele>186</ele><time>2020-01-31T11:02:18Z</time><name>PT3104</name></trkpt>
<trkpt lat="53.187802" lon="-1.734805"><ele>186</ele><time>2020-01-31T11:02:18Z</time><name>PT3105</name></trkpt>
<trkpt lat="53.187796" lon="-1.734815"><ele>186</ele><time>2020-01-31T11:02:19Z</time><name>PT3106</name></trkpt>
<trkpt lat="53.187790" lon="-1.734827"><ele>186</ele><time>2020-01-31T11:02:21Z</time><name>PT3107</name></trkpt>
<trkpt lat="53.187777" lon="-1.734831"><ele>186</ele><time>2020-01-31T11:02:21Z</time><name>PT3108</name></trkpt>
<trkpt lat="53.187765" lon="-1.734840"><ele>186</ele><time>2020-01-31T11:02:22Z</time><name>PT3109</name></trkpt>
<trkpt lat="53.187756" lon="-1.734846"><ele>185</ele><time>2020-01-31T11:02:24Z</time><name>PT3110</name></trkpt>
<trkpt lat="53.187749" lon="-1.734855"><ele>185</ele><time>2020-01-31T11:02:24Z</time><name>PT3111</name></trkpt>
<trkpt lat="53.187743" lon="-1.734863"><ele>185</ele><time>2020-01-31T11:02:25Z</time><name>PT3112</name></trkpt>
<trkpt lat="53.187727" lon="-1.734868"><ele>185</ele><time>2020-01-31T11:02:27Z</time><name>PT3113</name></trkpt>
<trkpt lat="53.187713" lon="-1.734877"><ele>184</ele><time>2020-01-31T11:02:27Z</time><name>PT3114</name></trkpt>
<trkpt lat="53.187700" lon="-1.734887"><ele>185</ele><time>2020-01-31T11:02:28Z</time><name>PT3115</name></trkpt>
<trkpt lat="53.187688" lon="-1.734884"><ele>185</ele><time>2020-01-31T11:02:30Z</time><name>PT3116</name></trkpt>
<trkpt lat="53.187675" lon="-1.734888"><ele>185</ele><time>2020-01-31T11:02:30Z</time><name>PT3117</name></trkpt>
<trkpt lat="53.187663" lon="-1.734900"><ele>186</ele><time>2020-01-31T11:02:31Z</time><name>PT3118</name></trkpt>
<trkpt lat="53.187650" lon="-1.734905"><ele>186</ele><time>2020-01-31T11:02:33Z</time><name>PT3119</name></trkpt>
<trkpt lat="53.187641" lon="-1.734915"><ele>186</ele><time>2020-01-31T11:02:33Z</time><name>PT3120</name></trkpt>
<trkpt lat="53.187633" lon="-1.734923"><ele>187</ele><time>2020-01-31T11:02:34Z</time><name>PT3121</name></trkpt>
<trkpt lat="53.187626" lon="-1.734955"><ele>188</ele><time>2020-01-31T11:02:36Z</time><name>PT3122</name></trkpt>
<trkpt lat="53.187618" lon="-1.734962"><ele>188</ele><time>2020-01-31T11:02:36Z</time><name>PT3123</name></trkpt>
<trkpt lat="53.187606" lon="-1.734959"><ele>191</ele><time>2020-01-31T11:02:37Z</time><name>PT3124</name></trkpt>
<trkpt lat="53.187599" lon="-1.734961"><ele>191</ele><time>2020-01-31T11:02:39Z</time><name>PT3125</name></trkpt>
<trkpt lat="53.187595" lon="-1.734974"><ele>192</ele><time>2020-01-31T11:02:39Z</time><name>PT3126</name></trkpt>
<trkpt lat="53.187591" lon="-1.734987"><ele>192</ele><time>2020-01-31T11:02:40Z</time><name>PT3127</name></trkpt>
<trkpt lat="53.187590" lon="-1.734993"><ele>192</ele><time>2020-01-31T11:02:42Z</time><name>PT3128</name></trkpt>
<trkpt lat="53.187588" lon="-1.734994"><ele>192</ele><time>2020-01-31T11:02:42Z</time><name>PT3129</name></trkpt>
<trkpt lat="53.187581" lon="-1.734997"><ele>192</ele><time>2020-01-31T11:02:43Z</time><name>PT3130</name></trkpt>
<trkpt lat="53.187571" lon="-1.735006"><ele>191</ele><time>2020-01-31T11:02:45Z</time><name>PT3131</name></trkpt>
<trkpt lat="53.187567" lon="-1.735013"><ele>191</ele><time>2020-01-31T11:02:45Z</time><name>PT3132</name></trkpt>
<trkpt lat="53.187559" lon="-1.735022"><ele>191</ele><time>2020-01-31T11:02:46Z</time><name>PT3133</name></trkpt>
<trkpt lat="53.187553" lon="-1.735031"><ele>191</ele><time>2020-01-31T11:02:48Z</time><name>PT3134</name></trkpt>
<trkpt lat="53.187548" lon="-1.735047"><ele>190</ele><time>2020-01-31T11:02:48Z</time><name>PT3135</name></trkpt>
<trkpt lat="53.187538" lon="-1.735068"><ele>190</ele><time>2020-01-31T11:02:49Z</time><name>PT3136</name></trkpt>
<trkpt lat="53.187530" lon="-1.735076"><ele>190</ele><time>2020-01-31T11:02:51Z</time><name>PT3137</name></trkpt>
<trkpt lat="53.187522" lon="-1.735091"><ele>190</ele><time>2020-01-31T11:02:51Z</time><name>PT3138</name></trkpt>
<trkpt lat="53.187512" lon="-1.735105"><ele>188</ele><time>2020-01-31T11:02:52Z</time><name>PT3139</name></trkpt>
<trkpt lat="53.187502" lon="-1.735120"><ele>188</ele><time>2020-01-31T11:02:54Z</time><name>PT3140</name></trkpt>
<trkpt lat="53.187496" lon="-1.735133"><ele>188</ele><time>2020-01-31T11:02:54Z</time><name>PT3141</name></trkpt>
<trkpt lat="53.187491" lon="-1.735146"><ele>185</ele><time>2020-01-31T11:02:55Z</time><name>PT3142</name></trkpt>
<trkpt lat="53.187479" lon="-1.735153"><ele>185</ele><time>2020-01-31T11:02:57Z</time><name>PT3143</name></trkpt>
<trkpt lat="53.187471" lon="-1.735159"><ele>186</ele><time>2020-01-31T11:02:57Z</time><name>PT3144</name></trkpt>
<trkpt lat="53.187463" lon="-1.735171"><ele>185</ele><time>2020-01-31T11:02:58Z</time><name>PT3145</name></trkpt>
<trkpt lat="53.187454" lon="-1.735182"><ele>184</ele><time>2020-01-31T11:03:00Z</time><name>PT3146</name></trkpt>
<trkpt lat="53.187444" lon="-1.735189"><ele>184</ele><time>2020-01-31T11:03:00Z</time><name>PT3147</name></trkpt>
<trkpt lat="53.187436" lon="-1.735194"><ele>184</ele><time>2020-01-31T11:03:01Z</time><name>PT3148</name></trkpt>
<trkpt lat="53.187431" lon="-1.735208"><ele>184</ele><time>2020-01-31T11:03:03Z</time><name>PT3149</name></trkpt>
<trkpt lat="53.187424" lon="-1.735225"><ele>183</ele><time>2020-01-31T11:03:03Z</time><name>PT3150</name></trkpt>
<trkpt lat="53.187413" lon="-1.735244"><ele>183</ele><time>2020-01-31T11:03:04Z</time><name>PT3151</name></trkpt>
<trkpt lat="53.187404" lon="-1.735257"><ele>184</ele><time>2020-01-31T11:03:06Z</time><name>PT3152</name></trkpt>
<trkpt lat="53.187396" lon="-1.735268"><ele>183</ele><time>2020-01-31T11:03:06Z</time><name>PT3153</name></trkpt>
<trkpt lat="53.187389" lon="-1.735284"><ele>184</ele><time>2020-01-31T11:03:07Z</time><name>PT3154</name></trkpt>
<trkpt lat="53.187382" lon="-1.735296"><ele>185</ele><time>2020-01-31T11:03:09Z</time><name>PT3155</name></trkpt>
<trkpt lat="53.187373" lon="-1.735310"><ele>184</ele><time>2020-01-31T11:03:09Z</time><name>PT3156</name></trkpt>
<trkpt lat="53.187364" lon="-1.735317"><ele>185</ele><time>2020-01-31T11:03:10Z</time><name>PT3157</name></trkpt>
<trkpt lat="53.187360" lon="-1.735317"><ele>185</ele><time>2020-01-31T11:03:12Z</time><name>PT3158</name></trkpt>
<trkpt lat="53.187352" lon="-1.735322"><ele>185</ele><time>2020-01-31T11:03:12Z</time><name>PT3159</name></trkpt>
<trkpt lat="53.187344" lon="-1.735327"><ele>185</ele><time>2020-01-31T11:03:13Z</time><name>PT3160</name></trkpt>
<trkpt lat="53.187337" lon="-1.735325"><ele>186</ele><time>2020-01-31T11:03:15Z</time><name>PT3161</name></trkpt>
<trkpt lat="53.187332" lon="-1.735330"><ele>187</ele><time>2020-01-31T11:03:15Z</time><name>PT3162</name></trkpt>
<trkpt lat="53.187323" lon="-1.735335"><ele>187</ele><time>2020-01-31T11:03:16Z</time><name>PT3163</name></trkpt>
<trkpt lat="53.187312" lon="-1.735346"><ele>187</ele><time>2020-01-31T11:03:18Z</time><name>PT3164</name></trkpt>
<trkpt lat="53.187309" lon="-1.735363"><ele>187</ele><time>2020-01-31T11:03:18Z</time><name>PT3165</name></trkpt>
<trkpt lat="53.187299" lon="-1.735373"><ele>186</ele><time>2020-01-31T11:03:19Z</time><name>PT3166</name></trkpt>
<trkpt lat="53.187289" lon="-1.735385"><ele>185</ele><time>2020-01-31T11:03:21Z</time><name>PT3167</name></trkpt>
<trkpt lat="53.187279" lon="-1.735405"><ele>183</ele><time>2020-01-31T11:03:21Z</time><name>PT3168</name></trkpt>
<trkpt lat="53.187269" lon="-1.735421"><ele>183</ele><time>2020-01-31T11:03:22Z</time><name>PT3169</name></trkpt>
<trkpt lat="53.187261" lon="-1.735433"><ele>183</ele><time>2020-01-31T11:03:24Z</time><name>PT3170</name></trkpt>
<trkpt lat="53.187253" lon="-1.735441"><ele>182</ele><time>2020-01-31T11:03:24Z</time><name>PT3171</name></trkpt>
<trkpt lat="53.187247" lon="-1.735453"><ele>181</ele><time>2020-01-31T11:03:25Z</time><name>PT3172</name></trkpt>
<trkpt lat="53.187237" lon="-1.735464"><ele>182</ele><time>2020-01-31T11:03:27Z</time><name>PT3173</name></trkpt>
<trkpt lat="53.187225" lon="-1.735479"><ele>183</ele><time>2020-01-31T11:03:27Z</time><name>PT3174</name></trkpt>
<trkpt lat="53.187216" lon="-1.735495"><ele>182</ele><time>2020-01-31T11:03:28Z</time><name>PT3175</name></trkpt>
<trkpt lat="53.187215" lon="-1.735508"><ele>182</ele><time>2020-01-31T11:03:30Z</time><name>PT3176</name></trkpt>
<trkpt lat="53.187208" lon="-1.735519"><ele>181</ele><time>2020-01-31T11:03:30Z</time><name>PT3177</name></trkpt>
<trkpt lat="53.187208" lon="-1.735544"><ele>179</ele><time>2020-01-31T11:03:31Z</time><name>PT3178</name></trkpt>
<trkpt lat="53.187203" lon="-1.735557"><ele>178</ele><time>2020-01-31T11:03:33Z</time><name>PT3179</name></trkpt>
<trkpt lat="53.187198" lon="-1.735574"><ele>178</ele><time>2020-01-31T11:03:33Z</time><name>PT3180</name></trkpt>
<trkpt lat="53.187193" lon="-1.735588"><ele>177</ele><time>2020-01-31T11:03:34Z</time><name>PT3181</name></trkpt>
<trkpt lat="53.187197" lon="-1.735595"><ele>182</ele><time>2020-01-31T11:03:36Z</time><name>PT3182</name></trkpt>
<trkpt lat="53.187190" lon="-1.735607"><ele>182</ele><time>2020-01-31T11:03:36Z</time><name>PT3183</name></trkpt>
<trkpt lat="53.187180" lon="-1.735627"><ele>181</ele><time>2020-01-31T11:03:37Z</time><name>PT3184</name></trkpt>
<trkpt lat="53.187172" lon="-1.735644"><ele>183</ele><time>2020-01-31T11:03:39Z</time><name>PT3185</name></trkpt>
<trkpt lat="53.187161" lon="-1.735667"><ele>183</ele><time>2020-01-31T11:03:39Z</time><name>PT3186</name></trkpt>
<trkpt lat="53.187156" lon="-1.735676"><ele>184</ele><time>2020-01-31T11:03:40Z</time><name>PT3187</name></trkpt>
<trkpt lat="53.187153" lon="-1.735685"><ele>183</ele><time>2020-01-31T11:03:42Z</time><name>PT3188</name></trkpt>
<trkpt lat="53.187147" lon="-1.735700"><ele>183</ele><time>2020-01-31T11:03:42Z</time><name>PT3189</name></trkpt>
<trkpt lat="53.187142" lon="-1.735702"><ele>185</ele><time>2020-01-31T11:03:43Z</time><name>PT3190</name></trkpt>
<trkpt lat="53.187133" lon="-1.735713"><ele>185</ele><time>2020-01-31T11:03:45Z</time><name>PT3191</name></trkpt>
<trkpt lat="53.187122" lon="-1.735722"><ele>185</ele><time>2020-01-31T11:03:45Z</time><name>PT3192</name></trkpt>
<trkpt lat="53.187117" lon="-1.735734"><ele>183</ele><time>2020-01-31T11:03:46Z</time><name>PT3193</name></trkpt>
<trkpt lat="53.187108" lon="-1.735745"><ele>183</ele><time>2020-01-31T11:03:48Z</time><name>PT3194</name></trkpt>
<trkpt lat="53.187098" lon="-1.735748"><ele>184</ele><time>2020-01-31T11:03:48Z</time><name>PT3195</name></trkpt>
<trkpt lat="53.187090" lon="-1.735762"><ele>184</ele><time>2020-01-31T11:03:49Z</time><name>PT3196</name></trkpt>
<trkpt lat="53.187082" lon="-1.735778"><ele>184</ele><time>2020-01-31T11:03:51Z</time><name>PT3197</name></trkpt>
<trkpt lat="53.187075" lon="-1.735807"><ele>184</ele><time>2020-01-31T11:03:51Z</time><name>PT3198</name></trkpt>
<trkpt lat="53.187074" lon="-1.735836"><ele>181</ele><time>2020-01-31T11:03:52Z</time><name>PT3199</name></trkpt>
<trkpt lat="53.187060" lon="-1.735839"><ele>182</ele><time>2020-01-31T11:03:54Z</time><name>PT3200</name></trkpt>
<trkpt lat="53.187052" lon="-1.735850"><ele>183</ele><time>2020-01-31T11:03:54Z</time><name>PT3201</name></trkpt>
<trkpt lat="53.187047" lon="-1.735850"><ele>183</ele><time>2020-01-31T11:03:55Z</time><name>PT3202</name></trkpt>
<trkpt lat="53.187030" lon="-1.735847"><ele>186</ele><time>2020-01-31T11:03:57Z</time><name>PT3203</name></trkpt>
<trkpt lat="53.187023" lon="-1.735853"><ele>187</ele><time>2020-01-31T11:03:57Z</time><name>PT3204</name></trkpt>
<trkpt lat="53.187018" lon="-1.735864"><ele>187</ele><time>2020-01-31T11:03:58Z</time><name>PT3205</name></trkpt>
<trkpt lat="53.187013" lon="-1.735875"><ele>187</ele><time>2020-01-31T11:04:00Z</time><name>PT3206</name></trkpt>
<trkpt lat="53.187002" lon="-1.735884"><ele>187</ele><time>2020-01-31T11:04:00Z</time><name>PT3207</name></trkpt>
<trkpt lat="53.186994" lon="-1.735889"><ele>187</ele><time>2020-01-31T11:04:01Z</time><name>PT3208</name></trkpt>
<trkpt lat="53.186991" lon="-1.735907"><ele>188</ele><time>2020-01-31T11:04:03Z</time><name>PT3209</name></trkpt>
<trkpt lat="53.186987" lon="-1.735915"><ele>187</ele><time>2020-01-31T11:04:03Z</time><name>PT3210</name></trkpt>
<trkpt lat="53.186973" lon="-1.735929"><ele>186</ele><time>2020-01-31T11:04:04Z</time><name>PT3211</name></trkpt>
<trkpt lat="53.186963" lon="-1.735941"><ele>187</ele><time>2020-01-31T11:04:06Z</time><name>PT3212</name></trkpt>
<trkpt lat="53.186956" lon="-1.735947"><ele>187</ele><time>2020-01-31T11:04:06Z</time><name>PT3213</name></trkpt>
<trkpt lat="53.186949" lon="-1.735955"><ele>188</ele><time>2020-01-31T11:04:07Z</time><name>PT3214</name></trkpt>
<trkpt lat="53.186940" lon="-1.735963"><ele>189</ele><time>2020-01-31T11:04:09Z</time><name>PT3215</name></trkpt>
<trkpt lat="53.186933" lon="-1.735979"><ele>189</ele><time>2020-01-31T11:04:09Z</time><name>PT3216</name></trkpt>
<trkpt lat="53.186924" lon="-1.735995"><ele>189</ele><time>2020-01-31T11:04:10Z</time><name>PT3217</name></trkpt>
<trkpt lat="53.186919" lon="-1.736007"><ele>189</ele><time>2020-01-31T11:04:12Z</time><name>PT3218</name></trkpt>
<trkpt lat="53.186912" lon="-1.736020"><ele>190</ele><time>2020-01-31T11:04:12Z</time><name>PT3219</name></trkpt>
<trkpt lat="53.186903" lon="-1.736028"><ele>191</ele><time>2020-01-31T11:04:13Z</time><name>PT3220</name></trkpt>
<trkpt lat="53.186893" lon="-1.736034"><ele>192</ele><time>2020-01-31T11:04:15Z</time><name>PT3221</name></trkpt>
<trkpt lat="53.186892" lon="-1.736043"><ele>192</ele><time>2020-01-31T11:04:15Z</time><name>PT3222</name></trkpt>
<trkpt lat="53.186886" lon="-1.736058"><ele>192</ele><time>2020-01-31T11:04:16Z</time><name>PT3223</name></trkpt>
<trkpt lat="53.186880" lon="-1.736069"><ele>192</ele><time>2020-01-31T11:04:18Z</time><name>PT3224</name></trkpt>
<trkpt lat="53.186871" lon="-1.736073"><ele>193</ele><time>2020-01-31T11:04:18Z</time><name>PT3225</name></trkpt>
<trkpt lat="53.186866" lon="-1.736080"><ele>194</ele><time>2020-01-31T11:04:19Z</time><name>PT3226</name></trkpt>
<trkpt lat="53.186863" lon="-1.736091"><ele>194</ele><time>2020-01-31T11:04:21Z</time><name>PT3227</name></trkpt>
<trkpt lat="53.186860" lon="-1.736107"><ele>194</ele><time>2020-01-31T11:04:21Z</time><name>PT3228</name></trkpt>
<trkpt lat="53.186847" lon="-1.736113"><ele>195</ele><time>2020-01-31T11:04:22Z</time><name>PT3229</name></trkpt>
<trkpt lat="53.186840" lon="-1.736119"><ele>195</ele><time>2020-01-31T11:04:24Z</time><name>PT3230</name></trkpt>
<trkpt lat="53.186838" lon="-1.736129"><ele>195</ele><time>2020-01-31T11:04:24Z</time><name>PT3231</name></trkpt>
<trkpt lat="53.186834" lon="-1.736137"><ele>196</ele><time>2020-01-31T11:04:25Z</time><name>PT3232</name></trkpt>
<trkpt lat="53.186829" lon="-1.736146"><ele>195</ele><time>2020-01-31T11:04:27Z</time><name>PT3233</name></trkpt>
<trkpt lat="53.186826" lon="-1.736158"><ele>195</ele><time>2020-01-31T11:04:27Z</time><name>PT3234</name></trkpt>
<trkpt lat="53.186824" lon="-1.736167"><ele>194</ele><time>2020-01-31T11:04:28Z</time><name>PT3235</name></trkpt>
<trkpt lat="53.186818" lon="-1.736181"><ele>195</ele><time>2020-01-31T11:04:30Z</time><name>PT3236</name></trkpt>
<trkpt lat="53.186807" lon="-1.736184"><ele>196</ele><time>2020-01-31T11:04:30Z</time><name>PT3237</name></trkpt>
<trkpt lat="53.186800" lon="-1.736193"><ele>195</ele><time>2020-01-31T11:04:31Z</time><name>PT3238</name></trkpt>
<trkpt lat="53.186787" lon="-1.736202"><ele>195</ele><time>2020-01-31T11:04:33Z</time><name>PT3239</name></trkpt>
<trkpt lat="53.186779" lon="-1.736213"><ele>195</ele><time>2020-01-31T11:04:33Z</time><name>PT3240</name></trkpt>
<trkpt lat="53.186765" lon="-1.736227"><ele>196</ele><time>2020-01-31T11:04:34Z</time><name>PT3241</name></trkpt>
<trkpt lat="53.186753" lon="-1.736243"><ele>196</ele><time>2020-01-31T11:04:36Z</time><name>PT3242</name></trkpt>
<trkpt lat="53.186759" lon="-1.736278"><ele>192</ele><time>2020-01-31T11:04:36Z</time><name>PT3243</name></trkpt>
<trkpt lat="53.186751" lon="-1.736296"><ele>191</ele><time>2020-01-31T11:04:37Z</time><name>PT3244</name></trkpt>
<trkpt lat="53.186745" lon="-1.736309"><ele>190</ele><time>2020-01-31T11:04:39Z</time><name>PT3245</name></trkpt>
<trkpt lat="53.186741" lon="-1.736315"><ele>192</ele><time>2020-01-31T11:04:39Z</time><name>PT3246</name></trkpt>
<trkpt lat="53.186735" lon="-1.736322"><ele>193</ele><time>2020-01-31T11:04:40Z</time><name>PT3247</name></trkpt>
<trkpt lat="53.186729" lon="-1.736332"><ele>193</ele><time>2020-01-31T11:04:42Z</time><name>PT3248</name></trkpt>
<trkpt lat="53.186724" lon="-1.736338"><ele>194</ele><time>2020-01-31T11:04:42Z</time><name>PT3249</name></trkpt>
<trkpt lat="53.186719" lon="-1.736344"><ele>194</ele><time>2020-01-31T11:04:43Z</time><name>PT3250</name></trkpt>
<trkpt lat="53.186718" lon="-1.736353"><ele>194</ele><time>2020-01-31T11:04:45Z</time><name>PT3251</name></trkpt>
<trkpt lat="53.186713" lon="-1.736364"><ele>194</ele><time>2020-01-31T11:04:45Z</time><name>PT3252</name></trkpt>
<trkpt lat="53.186702" lon="-1.736378"><ele>195</ele><time>2020-01-31T11:04:46Z</time><name>PT3253</name></trkpt>
<trkpt lat="53.186690" lon="-1.736394"><ele>193</ele><time>2020-01-31T11:04:48Z</time><name>PT3254</name></trkpt>
<trkpt lat="53.186683" lon="-1.736409"><ele>194</ele><time>2020-01-31T11:04:48Z</time><name>PT3255</name></trkpt>
<trkpt lat="53.186674" lon="-1.736412"><ele>195</ele><time>2020-01-31T11:04:49Z</time><name>PT3256</name></trkpt>
<trkpt lat="53.186668" lon="-1.736414"><ele>195</ele><time>2020-01-31T11:04:51Z</time><name>PT3257</name></trkpt>
<trkpt lat="53.186664" lon="-1.736422"><ele>195</ele><time>2020-01-31T11:04:51Z</time><name>PT3258</name></trkpt>
<trkpt lat="53.186658" lon="-1.736432"><ele>196</ele><time>2020-01-31T11:04:52Z</time><name>PT3259</name></trkpt>
<trkpt lat="53.186643" lon="-1.736442"><ele>198</ele><time>2020-01-31T11:04:54Z</time><name>PT3260</name></trkpt>
<trkpt lat="53.186633" lon="-1.736454"><ele>198</ele><time>2020-01-31T11:04:54Z</time><name>PT3261</name></trkpt>
<trkpt lat="53.186623" lon="-1.736470"><ele>199</ele><time>2020-01-31T11:04:55Z</time><name>PT3262</name></trkpt>
<trkpt lat="53.186620" lon="-1.736479"><ele>199</ele><time>2020-01-31T11:04:57Z</time><name>PT3263</name></trkpt>
<trkpt lat="53.186619" lon="-1.736493"><ele>198</ele><time>2020-01-31T11:04:57Z</time><name>PT3264</name></trkpt>
<trkpt lat="53.186613" lon="-1.736505"><ele>198</ele><time>2020-01-31T11:04:58Z</time><name>PT3265</name></trkpt>
<trkpt lat="53.186606" lon="-1.736522"><ele>196</ele><time>2020-01-31T11:05:00Z</time><name>PT3266</name></trkpt>
<trkpt lat="53.186598" lon="-1.736538"><ele>195</ele><time>2020-01-31T11:05:00Z</time><name>PT3267</name></trkpt>
<trkpt lat="53.186593" lon="-1.736556"><ele>195</ele><time>2020-01-31T11:05:01Z</time><name>PT3268</name></trkpt>
<trkpt lat="53.186583" lon="-1.736565"><ele>197</ele><time>2020-01-31T11:05:03Z</time><name>PT3269</name></trkpt>
<trkpt lat="53.186572" lon="-1.736579"><ele>197</ele><time>2020-01-31T11:05:03Z</time><name>PT3270</name></trkpt>
<trkpt lat="53.186560" lon="-1.736586"><ele>200</ele><time>2020-01-31T11:05:04Z</time><name>PT3271</name></trkpt>
<trkpt lat="53.186554" lon="-1.736598"><ele>200</ele><time>2020-01-31T11:05:06Z</time><name>PT3272</name></trkpt>
<trkpt lat="53.186549" lon="-1.736602"><ele>200</ele><time>2020-01-31T11:05:06Z</time><name>PT3273</name></trkpt>
<trkpt lat="53.186537" lon="-1.736605"><ele>200</ele><time>2020-01-31T11:05:08Z</time><name>PT3274</name></trkpt>
<trkpt lat="53.186527" lon="-1.736612"><ele>201</ele><time>2020-01-31T11:05:09Z</time><name>PT3275</name></trkpt>
<trkpt lat="53.186531" lon="-1.736625"><ele>201</ele><time>2020-01-31T11:05:09Z</time><name>PT3276</name></trkpt>
<trkpt lat="53.186531" lon="-1.736639"><ele>200</ele><time>2020-01-31T11:05:10Z</time><name>PT3277</name></trkpt>
<trkpt lat="53.186527" lon="-1.736644"><ele>200</ele><time>2020-01-31T11:05:12Z</time><name>PT3278</name></trkpt>
<trkpt lat="53.186521" lon="-1.736652"><ele>200</ele><time>2020-01-31T11:05:12Z</time><name>PT3279</name></trkpt>
<trkpt lat="53.186515" lon="-1.736662"><ele>201</ele><time>2020-01-31T11:05:13Z</time><name>PT3280</name></trkpt>
<trkpt lat="53.186512" lon="-1.736671"><ele>201</ele><time>2020-01-31T11:05:15Z</time><name>PT3281</name></trkpt>
<trkpt lat="53.186506" lon="-1.736675"><ele>200</ele><time>2020-01-31T11:05:15Z</time><name>PT3282</name></trkpt>
<trkpt lat="53.186501" lon="-1.736680"><ele>200</ele><time>2020-01-31T11:05:16Z</time><name>PT3283</name></trkpt>
<trkpt lat="53.186490" lon="-1.736687"><ele>200</ele><time>2020-01-31T11:05:18Z</time><name>PT3284</name></trkpt>
<trkpt lat="53.186485" lon="-1.736692"><ele>200</ele><time>2020-01-31T11:05:18Z</time><name>PT3285</name></trkpt>
<trkpt lat="53.186481" lon="-1.736705"><ele>200</ele><time>2020-01-31T11:05:19Z</time><name>PT3286</name></trkpt>
<trkpt lat="53.186474" lon="-1.736716"><ele>200</ele><time>2020-01-31T11:05:21Z</time><name>PT3287</name></trkpt>
<trkpt lat="53.186470" lon="-1.736732"><ele>199</ele><time>2020-01-31T11:05:21Z</time><name>PT3288</name></trkpt>
<trkpt lat="53.186466" lon="-1.736743"><ele>199</ele><time>2020-01-31T11:05:22Z</time><name>PT3289</name></trkpt>
<trkpt lat="53.186463" lon="-1.736767"><ele>199</ele><time>2020-01-31T11:05:24Z</time><name>PT3290</name></trkpt>
<trkpt lat="53.186451" lon="-1.736784"><ele>202</ele><time>2020-01-31T11:05:24Z</time><name>PT3291</name></trkpt>
<trkpt lat="53.186443" lon="-1.736802"><ele>203</ele><time>2020-01-31T11:05:25Z</time><name>PT3292</name></trkpt>
<trkpt lat="53.186434" lon="-1.736804"><ele>203</ele><time>2020-01-31T11:05:27Z</time><name>PT3293</name></trkpt>
<trkpt lat="53.186429" lon="-1.736824"><ele>203</ele><time>2020-01-31T11:05:27Z</time><name>PT3294</name></trkpt>
<trkpt lat="53.186427" lon="-1.736839"><ele>202</ele><time>2020-01-31T11:05:28Z</time><name>PT3295</name></trkpt>
<trkpt lat="53.186419" lon="-1.736854"><ele>203</ele><time>2020-01-31T11:05:30Z</time><name>PT3296</name></trkpt>
<trkpt lat="53.186416" lon="-1.736875"><ele>202</ele><time>2020-01-31T11:05:30Z</time><name>PT3297</name></trkpt>
<trkpt lat="53.186409" lon="-1.736896"><ele>203</ele><time>2020-01-31T11:05:31Z</time><name>PT3298</name></trkpt>
<trkpt lat="53.186404" lon="-1.736908"><ele>202</ele><time>2020-01-31T11:05:33Z</time><name>PT3299</name></trkpt>
<trkpt lat="53.186405" lon="-1.736924"><ele>201</ele><time>2020-01-31T11:05:33Z</time><name>PT3300</name></trkpt>
<trkpt lat="53.186405" lon="-1.736937"><ele>202</ele><time>2020-01-31T11:05:34Z</time><name>PT3301</name></trkpt>
<trkpt lat="53.186403" lon="-1.736946"><ele>202</ele><time>2020-01-31T11:05:36Z</time><name>PT3302</name></trkpt>
<trkpt lat="53.186396" lon="-1.736960"><ele>202</ele><time>2020-01-31T11:05:36Z</time><name>PT3303</name></trkpt>
<trkpt lat="53.186391" lon="-1.736968"><ele>203</ele><time>2020-01-31T11:05:37Z</time><name>PT3304</name></trkpt>
<trkpt lat="53.186383" lon="-1.736985"><ele>204</ele><time>2020-01-31T11:05:39Z</time><name>PT3305</name></trkpt>
<trkpt lat="53.186377" lon="-1.736989"><ele>204</ele><time>2020-01-31T11:05:39Z</time><name>PT3306</name></trkpt>
<trkpt lat="53.186369" lon="-1.736997"><ele>203</ele><time>2020-01-31T11:05:40Z</time><name>PT3307</name></trkpt>
<trkpt lat="53.186360" lon="-1.737001"><ele>203</ele><time>2020-01-31T11:05:42Z</time><name>PT3308</name></trkpt>
<trkpt lat="53.186354" lon="-1.737016"><ele>202</ele><time>2020-01-31T11:05:42Z</time><name>PT3309</name></trkpt>
<trkpt lat="53.186347" lon="-1.737031"><ele>202</ele><time>2020-01-31T11:05:43Z</time><name>PT3310</name></trkpt>
<trkpt lat="53.186341" lon="-1.737038"><ele>202</ele><time>2020-01-31T11:05:45Z</time><name>PT3311</name></trkpt>
<trkpt lat="53.186335" lon="-1.737037"><ele>202</ele><time>2020-01-31T11:05:45Z</time><name>PT3312</name></trkpt>
<trkpt lat="53.186327" lon="-1.737047"><ele>202</ele><time>2020-01-31T11:05:46Z</time><name>PT3313</name></trkpt>
<trkpt lat="53.186324" lon="-1.737060"><ele>201</ele><time>2020-01-31T11:05:48Z</time><name>PT3314</name></trkpt>
<trkpt lat="53.186325" lon="-1.737078"><ele>200</ele><time>2020-01-31T11:05:48Z</time><name>PT3315</name></trkpt>
<trkpt lat="53.186321" lon="-1.737085"><ele>201</ele><time>2020-01-31T11:05:49Z</time><name>PT3316</name></trkpt>
<trkpt lat="53.186322" lon="-1.737089"><ele>200</ele><time>2020-01-31T11:05:51Z</time><name>PT3317</name></trkpt>
<trkpt lat="53.186319" lon="-1.737103"><ele>200</ele><time>2020-01-31T11:05:51Z</time><name>PT3318</name></trkpt>
<trkpt lat="53.186314" lon="-1.737117"><ele>200</ele><time>2020-01-31T11:05:52Z</time><name>PT3319</name></trkpt>
<trkpt lat="53.186309" lon="-1.737132"><ele>200</ele><time>2020-01-31T11:05:54Z</time><name>PT3320</name></trkpt>
<trkpt lat="53.186302" lon="-1.737146"><ele>200</ele><time>2020-01-31T11:05:54Z</time><name>PT3321</name></trkpt>
<trkpt lat="53.186300" lon="-1.737161"><ele>201</ele><time>2020-01-31T11:05:55Z</time><name>PT3322</name></trkpt>
<trkpt lat="53.186300" lon="-1.737183"><ele>199</ele><time>2020-01-31T11:05:57Z</time><name>PT3323</name></trkpt>
<trkpt lat="53.186294" lon="-1.737196"><ele>199</ele><time>2020-01-31T11:05:57Z</time><name>PT3324</name></trkpt>
<trkpt lat="53.186288" lon="-1.737202"><ele>200</ele><time>2020-01-31T11:05:58Z</time><name>PT3325</name></trkpt>
<trkpt lat="53.186283" lon="-1.737217"><ele>200</ele><time>2020-01-31T11:06:00Z</time><name>PT3326</name></trkpt>
<trkpt lat="53.186278" lon="-1.737232"><ele>199</ele><time>2020-01-31T11:06:00Z</time><name>PT3327</name></trkpt>
<trkpt lat="53.186273" lon="-1.737253"><ele>198</ele><time>2020-01-31T11:06:01Z</time><name>PT3328</name></trkpt>
<trkpt lat="53.186268" lon="-1.737274"><ele>197</ele><time>2020-01-31T11:06:03Z</time><name>PT3329</name></trkpt>
<trkpt lat="53.186267" lon="-1.737294"><ele>197</ele><time>2020-01-31T11:06:03Z</time><name>PT3330</name></trkpt>
<trkpt lat="53.186268" lon="-1.737318"><ele>197</ele><time>2020-01-31T11:06:04Z</time><name>PT3331</name></trkpt>
<trkpt lat="53.186267" lon="-1.737340"><ele>196</ele><time>2020-01-31T11:06:06Z</time><name>PT3332</name></trkpt>
<trkpt lat="53.186265" lon="-1.737367"><ele>196</ele><time>2020-01-31T11:06:06Z</time><name>PT3333</name></trkpt>
<trkpt lat="53.186266" lon="-1.737392"><ele>196</ele><time>2020-01-31T11:06:07Z</time><name>PT3334</name></trkpt>
<trkpt lat="53.186266" lon="-1.737417"><ele>195</ele><time>2020-01-31T11:06:09Z</time><name>PT3335</name></trkpt>
<trkpt lat="53.186264" lon="-1.737436"><ele>194</ele><time>2020-01-31T11:06:09Z</time><name>PT3336</name></trkpt>
<trkpt lat="53.186264" lon="-1.737460"><ele>193</ele><time>2020-01-31T11:06:10Z</time><name>PT3337</name></trkpt>
<trkpt lat="53.186266" lon="-1.737479"><ele>193</ele><time>2020-01-31T11:06:12Z</time><name>PT3338</name></trkpt>
<trkpt lat="53.186266" lon="-1.737497"><ele>191</ele><time>2020-01-31T11:06:12Z</time><name>PT3339</name></trkpt>
<trkpt lat="53.186266" lon="-1.737519"><ele>189</ele><time>2020-01-31T11:06:13Z</time><name>PT3340</name></trkpt>
<trkpt lat="53.186262" lon="-1.737544"><ele>189</ele><time>2020-01-31T11:06:15Z</time><name>PT3341</name></trkpt>
<trkpt lat="53.186256" lon="-1.737572"><ele>187</ele><time>2020-01-31T11:06:15Z</time><name>PT3342</name></trkpt>
<trkpt lat="53.186252" lon="-1.737593"><ele>187</ele><time>2020-01-31T11:06:16Z</time><name>PT3343</name></trkpt>
<trkpt lat="53.186254" lon="-1.737615"><ele>187</ele><time>2020-01-31T11:06:18Z</time><name>PT3344</name></trkpt>
<trkpt lat="53.186256" lon="-1.737638"><ele>186</ele><time>2020-01-31T11:06:18Z</time><name>PT3345</name></trkpt>
<trkpt lat="53.186255" lon="-1.737661"><ele>186</ele><time>2020-01-31T11:06:19Z</time><name>PT3346</name></trkpt>
<trkpt lat="53.186252" lon="-1.737682"><ele>186</ele><time>2020-01-31T11:06:21Z</time><name>PT3347</name></trkpt>
<trkpt lat="53.186244" lon="-1.737697"><ele>187</ele><time>2020-01-31T11:06:21Z</time><name>PT3348</name></trkpt>
<trkpt lat="53.186244" lon="-1.737714"><ele>186</ele><time>2020-01-31T11:06:22Z</time><name>PT3349</name></trkpt>
<trkpt lat="53.186240" lon="-1.737734"><ele>186</ele><time>2020-01-31T11:06:24Z</time><name>PT3350</name></trkpt>
<trkpt lat="53.186240" lon="-1.737749"><ele>186</ele><time>2020-01-31T11:06:24Z</time><name>PT3351</name></trkpt>
<trkpt lat="53.186236" lon="-1.737768"><ele>187</ele><time>2020-01-31T11:06:25Z</time><name>PT3352</name></trkpt>
<trkpt lat="53.186239" lon="-1.737791"><ele>186</ele><time>2020-01-31T11:06:27Z</time><name>PT3353</name></trkpt>
<trkpt lat="53.186241" lon="-1.737810"><ele>186</ele><time>2020-01-31T11:06:27Z</time><name>PT3354</name></trkpt>
<trkpt lat="53.186245" lon="-1.737825"><ele>186</ele><time>2020-01-31T11:06:28Z</time><name>PT3355</name></trkpt>
<trkpt lat="53.186228" lon="-1.737852"><ele>189</ele><time>2020-01-31T11:06:30Z</time><name>PT3356</name></trkpt>
<trkpt lat="53.186222" lon="-1.737864"><ele>191</ele><time>2020-01-31T11:06:30Z</time><name>PT3357</name></trkpt>
<trkpt lat="53.186220" lon="-1.737875"><ele>191</ele><time>2020-01-31T11:06:31Z</time><name>PT3358</name></trkpt>
<trkpt lat="53.186222" lon="-1.737887"><ele>191</ele><time>2020-01-31T11:06:33Z</time><name>PT3359</name></trkpt>
<trkpt lat="53.186223" lon="-1.737899"><ele>192</ele><time>2020-01-31T11:06:33Z</time><name>PT3360</name></trkpt>
<trkpt lat="53.186222" lon="-1.737912"><ele>193</ele><time>2020-01-31T11:06:34Z</time><name>PT3361</name></trkpt>
<trkpt lat="53.186217" lon="-1.737925"><ele>194</ele><time>2020-01-31T11:06:36Z</time><name>PT3362</name></trkpt>
<trkpt lat="53.186224" lon="-1.737948"><ele>193</ele><time>2020-01-31T11:06:36Z</time><name>PT3363</name></trkpt>
<trkpt lat="53.186221" lon="-1.737954"><ele>194</ele><time>2020-01-31T11:06:37Z</time><name>PT3364</name></trkpt>
<trkpt lat="53.186224" lon="-1.737949"><ele>198</ele><time>2020-01-31T11:06:39Z</time><name>PT3365</name></trkpt>
<trkpt lat="53.186224" lon="-1.737965"><ele>199</ele><time>2020-01-31T11:06:39Z</time><name>PT3366</name></trkpt>
<trkpt lat="53.186218" lon="-1.737976"><ele>200</ele><time>2020-01-31T11:06:40Z</time><name>PT3367</name></trkpt>
<trkpt lat="53.186217" lon="-1.737997"><ele>201</ele><time>2020-01-31T11:06:42Z</time><name>PT3368</name></trkpt>
<trkpt lat="53.186217" lon="-1.738012"><ele>201</ele><time>2020-01-31T11:06:42Z</time><name>PT3369</name></trkpt>
<trkpt lat="53.186217" lon="-1.738023"><ele>200</ele><time>2020-01-31T11:06:43Z</time><name>PT3370</name></trkpt>
<trkpt lat="53.186218" lon="-1.738036"><ele>199</ele><time>2020-01-31T11:06:45Z</time><name>PT3371</name></trkpt>
<trkpt lat="53.186217" lon="-1.738049"><ele>198</ele><time>2020-01-31T11:06:45Z</time><name>PT3372</name></trkpt>
<trkpt lat="53.186219" lon="-1.738057"><ele>199</ele><time>2020-01-31T11:06:46Z</time><name>PT3373</name></trkpt>
<trkpt lat="53.186218" lon="-1.738076"><ele>199</ele><time>2020-01-31T11:06:48Z</time><name>PT3374</name></trkpt>
<trkpt lat="53.186217" lon="-1.738098"><ele>199</ele><time>2020-01-31T11:06:48Z</time><name>PT3375</name></trkpt>
<trkpt lat="53.186221" lon="-1.738113"><ele>199</ele><time>2020-01-31T11:06:49Z</time><name>PT3376</name></trkpt>
<trkpt lat="53.186225" lon="-1.738128"><ele>198</ele><time>2020-01-31T11:06:51Z</time><name>PT3377</name></trkpt>
<trkpt lat="53.186223" lon="-1.738144"><ele>197</ele><time>2020-01-31T11:06:51Z</time><name>PT3378</name></trkpt>
<trkpt lat="53.186223" lon="-1.738152"><ele>199</ele><time>2020-01-31T11:06:52Z</time><name>PT3379</name></trkpt>
<trkpt lat="53.186224" lon="-1.738162"><ele>199</ele><time>2020-01-31T11:06:54Z</time><name>PT3380</name></trkpt>
<trkpt lat="53.186227" lon="-1.738172"><ele>198</ele><time>2020-01-31T11:06:54Z</time><name>PT3381</name></trkpt>
<trkpt lat="53.186226" lon="-1.738186"><ele>200</ele><time>2020-01-31T11:06:55Z</time><name>PT3382</name></trkpt>
<trkpt lat="53.186227" lon="-1.738196"><ele>200</ele><time>2020-01-31T11:06:57Z</time><name>PT3383</name></trkpt>
<trkpt lat="53.186232" lon="-1.738207"><ele>200</ele><time>2020-01-31T11:06:57Z</time><name>PT3384</name></trkpt>
<trkpt lat="53.186238" lon="-1.738224"><ele>199</ele><time>2020-01-31T11:06:58Z</time><name>PT3385</name></trkpt>
<trkpt lat="53.186240" lon="-1.738233"><ele>198</ele><time>2020-01-31T11:07:00Z</time><name>PT3386</name></trkpt>
<trkpt lat="53.186250" lon="-1.738232"><ele>200</ele><time>2020-01-31T11:07:00Z</time><name>PT3387</name></trkpt>
<trkpt lat="53.186252" lon="-1.738251"><ele>199</ele><time>2020-01-31T11:07:01Z</time><name>PT3388</name></trkpt>
<trkpt lat="53.186255" lon="-1.738266"><ele>199</ele><time>2020-01-31T11:07:03Z</time><name>PT3389</name></trkpt>
<trkpt lat="53.186256" lon="-1.738283"><ele>200</ele><time>2020-01-31T11:07:03Z</time><name>PT3390</name></trkpt>
<trkpt lat="53.186255" lon="-1.738301"><ele>200</ele><time>2020-01-31T11:07:04Z</time><name>PT3391</name></trkpt>
<trkpt lat="53.186252" lon="-1.738317"><ele>201</ele><time>2020-01-31T11:07:06Z</time><name>PT3392</name></trkpt>
<trkpt lat="53.186250" lon="-1.738333"><ele>202</ele><time>2020-01-31T11:07:06Z</time><name>PT3393</name></trkpt>
<trkpt lat="53.186247" lon="-1.738346"><ele>202</ele><time>2020-01-31T11:07:07Z</time><name>PT3394</name></trkpt>
<trkpt lat="53.186258" lon="-1.738349"><ele>201</ele><time>2020-01-31T11:07:09Z</time><name>PT3395</name></trkpt>
<trkpt lat="53.186254" lon="-1.738358"><ele>201</ele><time>2020-01-31T11:07:09Z</time><name>PT3396</name></trkpt>
<trkpt lat="53.186255" lon="-1.738378"><ele>200</ele><time>2020-01-31T11:07:10Z</time><name>PT3397</name></trkpt>
<trkpt lat="53.186255" lon="-1.738393"><ele>200</ele><time>2020-01-31T11:07:12Z</time><name>PT3398</name></trkpt>
<trkpt lat="53.186254" lon="-1.738410"><ele>201</ele><time>2020-01-31T11:07:12Z</time><name>PT3399</name></trkpt>
<trkpt lat="53.186247" lon="-1.738427"><ele>202</ele><time>2020-01-31T11:07:13Z</time><name>PT3400</name></trkpt>
<trkpt lat="53.186239" lon="-1.738438"><ele>203</ele><time>2020-01-31T11:07:15Z</time><name>PT3401</name></trkpt>
<trkpt lat="53.186224" lon="-1.738460"><ele>206</ele><time>2020-01-31T11:07:15Z</time><name>PT3402</name></trkpt>
<trkpt lat="53.186226" lon="-1.738496"><ele>206</ele><time>2020-01-31T11:07:16Z</time><name>PT3403</name></trkpt>
<trkpt lat="53.186226" lon="-1.738521"><ele>207</ele><time>2020-01-31T11:07:18Z</time><name>PT3404</name></trkpt>
<trkpt lat="53.186220" lon="-1.738548"><ele>209</ele><time>2020-01-31T11:07:18Z</time><name>PT3405</name></trkpt>
<trkpt lat="53.186219" lon="-1.738568"><ele>210</ele><time>2020-01-31T11:07:19Z</time><name>PT3406</name></trkpt>
<trkpt lat="53.186219" lon="-1.738582"><ele>210</ele><time>2020-01-31T11:07:21Z</time><name>PT3407</name></trkpt>
<trkpt lat="53.186225" lon="-1.738599"><ele>210</ele><time>2020-01-31T11:07:21Z</time><name>PT3408</name></trkpt>
<trkpt lat="53.186224" lon="-1.738616"><ele>211</ele><time>2020-01-31T11:07:22Z</time><name>PT3409</name></trkpt>
<trkpt lat="53.186227" lon="-1.738633"><ele>211</ele><time>2020-01-31T11:07:24Z</time><name>PT3410</name></trkpt>
<trkpt lat="53.186223" lon="-1.738647"><ele>211</ele><time>2020-01-31T11:07:24Z</time><name>PT3411</name></trkpt>
<trkpt lat="53.186224" lon="-1.738667"><ele>212</ele><time>2020-01-31T11:07:25Z</time><name>PT3412</name></trkpt>
<trkpt lat="53.186219" lon="-1.738683"><ele>212</ele><time>2020-01-31T11:07:27Z</time><name>PT3413</name></trkpt>
<trkpt lat="53.186224" lon="-1.738696"><ele>212</ele><time>2020-01-31T11:07:27Z</time><name>PT3414</name></trkpt>
<trkpt lat="53.186227" lon="-1.738713"><ele>212</ele><time>2020-01-31T11:07:28Z</time><name>PT3415</name></trkpt>
<trkpt lat="53.186226" lon="-1.738734"><ele>211</ele><time>2020-01-31T11:07:30Z</time><name>PT3416</name></trkpt>
<trkpt lat="53.186229" lon="-1.738744"><ele>210</ele><time>2020-01-31T11:07:30Z</time><name>PT3417</name></trkpt>
<trkpt lat="53.186237" lon="-1.738758"><ele>209</ele><time>2020-01-31T11:07:31Z</time><name>PT3418</name></trkpt>
<trkpt lat="53.186243" lon="-1.738777"><ele>209</ele><time>2020-01-31T11:07:33Z</time><name>PT3419</name></trkpt>
<trkpt lat="53.186245" lon="-1.738797"><ele>208</ele><time>2020-01-31T11:07:33Z</time><name>PT3420</name></trkpt>
<trkpt lat="53.186243" lon="-1.738816"><ele>208</ele><time>2020-01-31T11:07:34Z</time><name>PT3421</name></trkpt>
<trkpt lat="53.186242" lon="-1.738842"><ele>207</ele><time>2020-01-31T11:07:36Z</time><name>PT3422</name></trkpt>
<trkpt lat="53.186244" lon="-1.738859"><ele>207</ele><time>2020-01-31T11:07:36Z</time><name>PT3423</name></trkpt>
<trkpt lat="53.186246" lon="-1.738878"><ele>207</ele><time>2020-01-31T11:07:37Z</time><name>PT3424</name></trkpt>
<trkpt lat="53.186250" lon="-1.738889"><ele>206</ele><time>2020-01-31T11:07:39Z</time><name>PT3425</name></trkpt>
<trkpt lat="53.186249" lon="-1.738904"><ele>208</ele><time>2020-01-31T11:07:39Z</time><name>PT3426</name></trkpt>
<trkpt lat="53.186248" lon="-1.738921"><ele>207</ele><time>2020-01-31T11:07:40Z</time><name>PT3427</name></trkpt>
<trkpt lat="53.186246" lon="-1.738937"><ele>207</ele><time>2020-01-31T11:07:42Z</time><name>PT3428</name></trkpt>
<trkpt lat="53.186246" lon="-1.738955"><ele>207</ele><time>2020-01-31T11:07:42Z</time><name>PT3429</name></trkpt>
<trkpt lat="53.186249" lon="-1.738967"><ele>207</ele><time>2020-01-31T11:07:43Z</time><name>PT3430</name></trkpt>
<trkpt lat="53.186252" lon="-1.738986"><ele>208</ele><time>2020-01-31T11:07:45Z</time><name>PT3431</name></trkpt>
<trkpt lat="53.186251" lon="-1.739003"><ele>208</ele><time>2020-01-31T11:07:45Z</time><name>PT3432</name></trkpt>
<trkpt lat="53.186250" lon="-1.739022"><ele>208</ele><time>2020-01-31T11:07:46Z</time><name>PT3433</name></trkpt>
<trkpt lat="53.186252" lon="-1.739034"><ele>207</ele><time>2020-01-31T11:07:48Z</time><name>PT3434</name></trkpt>
<trkpt lat="53.186260" lon="-1.739035"><ele>206</ele><time>2020-01-31T11:07:48Z</time><name>PT3435</name></trkpt>
<trkpt lat="53.186265" lon="-1.739049"><ele>206</ele><time>2020-01-31T11:07:49Z</time><name>PT3436</name></trkpt>
<trkpt lat="53.186268" lon="-1.739061"><ele>206</ele><time>2020-01-31T11:07:51Z</time><name>PT3437</name></trkpt>
<trkpt lat="53.186270" lon="-1.739079"><ele>206</ele><time>2020-01-31T11:07:51Z</time><name>PT3438</name></trkpt>
<trkpt lat="53.186277" lon="-1.739085"><ele>206</ele><time>2020-01-31T11:07:52Z</time><name>PT3439</name></trkpt>
<trkpt lat="53.186280" lon="-1.739098"><ele>206</ele><time>2020-01-31T11:07:54Z</time><name>PT3440</name></trkpt>
<trkpt lat="53.186285" lon="-1.739111"><ele>206</ele><time>2020-01-31T11:07:54Z</time><name>PT3441</name></trkpt>
<trkpt lat="53.186290" lon="-1.739117"><ele>206</ele><time>2020-01-31T11:07:55Z</time><name>PT3442</name></trkpt>
<trkpt lat="53.186290" lon="-1.739127"><ele>205</ele><time>2020-01-31T11:07:57Z</time><name>PT3443</name></trkpt>
<trkpt lat="53.186291" lon="-1.739140"><ele>206</ele><time>2020-01-31T11:07:57Z</time><name>PT3444</name></trkpt>
<trkpt lat="53.186291" lon="-1.739166"><ele>206</ele><time>2020-01-31T11:07:58Z</time><name>PT3445</name></trkpt>
<trkpt lat="53.186291" lon="-1.739185"><ele>207</ele><time>2020-01-31T11:08:00Z</time><name>PT3446</name></trkpt>
<trkpt lat="53.186290" lon="-1.739200"><ele>207</ele><time>2020-01-31T11:08:00Z</time><name>PT3447</name></trkpt>
<trkpt lat="53.186289" lon="-1.739216"><ele>207</ele><time>2020-01-31T11:08:01Z</time><name>PT3448</name></trkpt>
<trkpt lat="53.186283" lon="-1.739239"><ele>208</ele><time>2020-01-31T11:08:03Z</time><name>PT3449</name></trkpt>
<trkpt lat="53.186276" lon="-1.739260"><ele>209</ele><time>2020-01-31T11:08:03Z</time><name>PT3450</name></trkpt>
<trkpt lat="53.186273" lon="-1.739275"><ele>209</ele><time>2020-01-31T11:08:04Z</time><name>PT3451</name></trkpt>
<trkpt lat="53.186274" lon="-1.739283"><ele>208</ele><time>2020-01-31T11:08:06Z</time><name>PT3452</name></trkpt>
<trkpt lat="53.186274" lon="-1.739296"><ele>208</ele><time>2020-01-31T11:08:06Z</time><name>PT3453</name></trkpt>
<trkpt lat="53.186277" lon="-1.739308"><ele>208</ele><time>2020-01-31T11:08:07Z</time><name>PT3454</name></trkpt>
<trkpt lat="53.186278" lon="-1.739328"><ele>208</ele><time>2020-01-31T11:08:09Z</time><name>PT3455</name></trkpt>
<trkpt lat="53.186285" lon="-1.739340"><ele>208</ele><time>2020-01-31T11:08:09Z</time><name>PT3456</name></trkpt>
<trkpt lat="53.186289" lon="-1.739357"><ele>208</ele><time>2020-01-31T11:08:10Z</time><name>PT3457</name></trkpt>
<trkpt lat="53.186290" lon="-1.739376"><ele>207</ele><time>2020-01-31T11:08:12Z</time><name>PT3458</name></trkpt>
<trkpt lat="53.186292" lon="-1.739396"><ele>208</ele><time>2020-01-31T11:08:12Z</time><name>PT3459</name></trkpt>
<trkpt lat="53.186297" lon="-1.739415"><ele>208</ele><time>2020-01-31T11:08:13Z</time><name>PT3460</name></trkpt>
<trkpt lat="53.186297" lon="-1.739427"><ele>208</ele><time>2020-01-31T11:08:15Z</time><name>PT3461</name></trkpt>
<trkpt lat="53.186300" lon="-1.739443"><ele>209</ele><time>2020-01-31T11:08:15Z</time><name>PT3462</name></trkpt>
<trkpt lat="53.186303" lon="-1.739465"><ele>208</ele><time>2020-01-31T11:08:16Z</time><name>PT3463</name></trkpt>
<trkpt lat="53.186305" lon="-1.739484"><ele>208</ele><time>2020-01-31T11:08:18Z</time><name>PT3464</name></trkpt>
<trkpt lat="53.186311" lon="-1.739505"><ele>207</ele><time>2020-01-31T11:08:18Z</time><name>PT3465</name></trkpt>
<trkpt lat="53.186312" lon="-1.739526"><ele>207</ele><time>2020-01-31T11:08:19Z</time><name>PT3466</name></trkpt>
<trkpt lat="53.186317" lon="-1.739548"><ele>206</ele><time>2020-01-31T11:08:21Z</time><name>PT3467</name></trkpt>
<trkpt lat="53.186321" lon="-1.739569"><ele>206</ele><time>2020-01-31T11:08:21Z</time><name>PT3468</name></trkpt>
<trkpt lat="53.186323" lon="-1.739588"><ele>206</ele><time>2020-01-31T11:08:22Z</time><name>PT3469</name></trkpt>
<trkpt lat="53.186327" lon="-1.739606"><ele>205</ele><time>2020-01-31T11:08:24Z</time><name>PT3470</name></trkpt>
<trkpt lat="53.186332" lon="-1.739622"><ele>205</ele><time>2020-01-31T11:08:24Z</time><name>PT3471</name></trkpt>
<trkpt lat="53.186342" lon="-1.739641"><ele>204</ele><time>2020-01-31T11:08:25Z</time><name>PT3472</name></trkpt>
<trkpt lat="53.186343" lon="-1.739653"><ele>204</ele><time>2020-01-31T11:08:27Z</time><name>PT3473</name></trkpt>
<trkpt lat="53.186351" lon="-1.739663"><ele>204</ele><time>2020-01-31T11:08:27Z</time><name>PT3474</name></trkpt>
<trkpt lat="53.186360" lon="-1.739675"><ele>204</ele><time>2020-01-31T11:08:28Z</time><name>PT3475</name></trkpt>
<trkpt lat="53.186360" lon="-1.739692"><ele>204</ele><time>2020-01-31T11:08:30Z</time><name>PT3476</name></trkpt>
<trkpt lat="53.186361" lon="-1.739710"><ele>204</ele><time>2020-01-31T11:08:30Z</time><name>PT3477</name></trkpt>
<trkpt lat="53.186366" lon="-1.739717"><ele>203</ele><time>2020-01-31T11:08:31Z</time><name>PT3478</name></trkpt>
<trkpt lat="53.186368" lon="-1.739736"><ele>204</ele><time>2020-01-31T11:08:33Z</time><name>PT3479</name></trkpt>
<trkpt lat="53.186370" lon="-1.739756"><ele>204</ele><time>2020-01-31T11:08:33Z</time><name>PT3480</name></trkpt>
<trkpt lat="53.186369" lon="-1.739779"><ele>203</ele><time>2020-01-31T11:08:34Z</time><name>PT3481</name></trkpt>
<trkpt lat="53.186368" lon="-1.739800"><ele>203</ele><time>2020-01-31T11:08:36Z</time><name>PT3482</name></trkpt>
<trkpt lat="53.186369" lon="-1.739821"><ele>204</ele><time>2020-01-31T11:08:36Z</time><name>PT3483</name></trkpt>
<trkpt lat="53.186374" lon="-1.739831"><ele>204</ele><time>2020-01-31T11:08:37Z</time><name>PT3484</name></trkpt>
<trkpt lat="53.186377" lon="-1.739845"><ele>205</ele><time>2020-01-31T11:08:39Z</time><name>PT3485</name></trkpt>
<trkpt lat="53.186380" lon="-1.739858"><ele>205</ele><time>2020-01-31T11:08:39Z</time><name>PT3486</name></trkpt>
<trkpt lat="53.186384" lon="-1.739879"><ele>205</ele><time>2020-01-31T11:08:40Z</time><name>PT3487</name></trkpt>
<trkpt lat="53.186389" lon="-1.739900"><ele>205</ele><time>2020-01-31T11:08:42Z</time><name>PT3488</name></trkpt>
<trkpt lat="53.186391" lon="-1.739919"><ele>205</ele><time>2020-01-31T11:08:42Z</time><name>PT3489</name></trkpt>
<trkpt lat="53.186389" lon="-1.739938"><ele>205</ele><time>2020-01-31T11:08:43Z</time><name>PT3490</name></trkpt>
<trkpt lat="53.186387" lon="-1.739962"><ele>206</ele><time>2020-01-31T11:08:45Z</time><name>PT3491</name></trkpt>
<trkpt lat="53.186386" lon="-1.739985"><ele>206</ele><time>2020-01-31T11:08:45Z</time><name>PT3492</name></trkpt>
<trkpt lat="53.186390" lon="-1.740002"><ele>207</ele><time>2020-01-31T11:08:46Z</time><name>PT3493</name></trkpt>
<trkpt lat="53.186390" lon="-1.740018"><ele>208</ele><time>2020-01-31T11:08:48Z</time><name>PT3494</name></trkpt>
<trkpt lat="53.186390" lon="-1.740036"><ele>207</ele><time>2020-01-31T11:08:48Z</time><name>PT3495</name></trkpt>
<trkpt lat="53.186389" lon="-1.740058"><ele>207</ele><time>2020-01-31T11:08:49Z</time><name>PT3496</name></trkpt>
<trkpt lat="53.186388" lon="-1.740074"><ele>207</ele><time>2020-01-31T11:08:51Z</time><name>PT3497</name></trkpt>
<trkpt lat="53.186383" lon="-1.740087"><ele>207</ele><time>2020-01-31T11:08:51Z</time><name>PT3498</name></trkpt>
<trkpt lat="53.186384" lon="-1.740103"><ele>206</ele><time>2020-01-31T11:08:52Z</time><name>PT3499</name></trkpt>
<trkpt lat="53.186385" lon="-1.740120"><ele>206</ele><time>2020-01-31T11:08:54Z</time><name>PT3500</name></trkpt>
<trkpt lat="53.186389" lon="-1.740136"><ele>207</ele><time>2020-01-31T11:08:54Z</time><name>PT3501</name></trkpt>
<trkpt lat="53.186395" lon="-1.740149"><ele>206</ele><time>2020-01-31T11:08:55Z</time><name>PT3502</name></trkpt>
<trkpt lat="53.186394" lon="-1.740156"><ele>206</ele><time>2020-01-31T11:08:57Z</time><name>PT3503</name></trkpt>
<trkpt lat="53.186400" lon="-1.740157"><ele>206</ele><time>2020-01-31T11:08:57Z</time><name>PT3504</name></trkpt>
<trkpt lat="53.186402" lon="-1.740162"><ele>206</ele><time>2020-01-31T11:08:58Z</time><name>PT3505</name></trkpt>
<trkpt lat="53.186402" lon="-1.740163"><ele>206</ele><time>2020-01-31T11:09:00Z</time><name>PT3506</name></trkpt>
<trkpt lat="53.186403" lon="-1.740168"><ele>206</ele><time>2020-01-31T11:09:00Z</time><name>PT3507</name></trkpt>
<trkpt lat="53.186399" lon="-1.740177"><ele>205</ele><time>2020-01-31T11:09:01Z</time><name>PT3508</name></trkpt>
<trkpt lat="53.186401" lon="-1.740177"><ele>206</ele><time>2020-01-31T11:09:03Z</time><name>PT3509</name></trkpt>
<trkpt lat="53.186400" lon="-1.740176"><ele>206</ele><time>2020-01-31T11:09:03Z</time><name>PT3510</name></trkpt>
<trkpt lat="53.186400" lon="-1.740178"><ele>205</ele><time>2020-01-31T11:09:04Z</time><name>PT3511</name></trkpt>
<trkpt lat="53.186401" lon="-1.740180"><ele>206</ele><time>2020-01-31T11:09:06Z</time><name>PT3512</name></trkpt>
<trkpt lat="53.186406" lon="-1.740196"><ele>206</ele><time>2020-01-31T11:09:42Z</time><name>PT3513</name></trkpt>
<trkpt lat="53.186409" lon="-1.740208"><ele>206</ele><time>2020-01-31T11:09:43Z</time><name>PT3514</name></trkpt>
<trkpt lat="53.186412" lon="-1.740220"><ele>206</ele><time>2020-01-31T11:09:45Z</time><name>PT3515</name></trkpt>
<trkpt lat="53.186428" lon="-1.740262"><ele>206</ele><time>2020-01-31T11:10:33Z</time><name>PT3516</name></trkpt>
<trkpt lat="53.186420" lon="-1.740246"><ele>207</ele><time>2020-01-31T11:10:33Z</time><name>PT3517</name></trkpt>
<trkpt lat="53.186423" lon="-1.740255"><ele>207</ele><time>2020-01-31T11:10:34Z</time><name>PT3518</name></trkpt>
<trkpt lat="53.186420" lon="-1.740264"><ele>207</ele><time>2020-01-31T11:10:36Z</time><name>PT3519</name></trkpt>
<trkpt lat="53.186421" lon="-1.740275"><ele>207</ele><time>2020-01-31T11:10:36Z</time><name>PT3520</name></trkpt>
<trkpt lat="53.186422" lon="-1.740280"><ele>207</ele><time>2020-01-31T11:10:37Z</time><name>PT3521</name></trkpt>
<trkpt lat="53.186425" lon="-1.740271"><ele>207</ele><time>2020-01-31T11:10:39Z</time><name>PT3522</name></trkpt>
<trkpt lat="53.186425" lon="-1.740273"><ele>208</ele><time>2020-01-31T11:10:39Z</time><name>PT3523</name></trkpt>
<trkpt lat="53.186429" lon="-1.740276"><ele>207</ele><time>2020-01-31T11:10:40Z</time><name>PT3524</name></trkpt>
<trkpt lat="53.186429" lon="-1.740283"><ele>207</ele><time>2020-01-31T11:10:42Z</time><name>PT3525</name></trkpt>
<trkpt lat="53.186434" lon="-1.740290"><ele>207</ele><time>2020-01-31T11:10:42Z</time><name>PT3526</name></trkpt>
<trkpt lat="53.186437" lon="-1.740297"><ele>208</ele><time>2020-01-31T11:10:43Z</time><name>PT3527</name></trkpt>
<trkpt lat="53.186442" lon="-1.740311"><ele>208</ele><time>2020-01-31T11:10:45Z</time><name>PT3528</name></trkpt>
<trkpt lat="53.186447" lon="-1.740329"><ele>207</ele><time>2020-01-31T11:10:45Z</time><name>PT3529</name></trkpt>
<trkpt lat="53.186451" lon="-1.740345"><ele>207</ele><time>2020-01-31T11:10:46Z</time><name>PT3530</name></trkpt>
<trkpt lat="53.186454" lon="-1.740361"><ele>207</ele><time>2020-01-31T11:10:48Z</time><name>PT3531</name></trkpt>
<trkpt lat="53.186458" lon="-1.740379"><ele>207</ele><time>2020-01-31T11:10:48Z</time><name>PT3532</name></trkpt>
<trkpt lat="53.186460" lon="-1.740396"><ele>206</ele><time>2020-01-31T11:10:49Z</time><name>PT3533</name></trkpt>
<trkpt lat="53.186461" lon="-1.740414"><ele>206</ele><time>2020-01-31T11:10:51Z</time><name>PT3534</name></trkpt>
<trkpt lat="53.186462" lon="-1.740433"><ele>206</ele><time>2020-01-31T11:10:51Z</time><name>PT3535</name></trkpt>
<trkpt lat="53.186468" lon="-1.740455"><ele>205</ele><time>2020-01-31T11:10:52Z</time><name>PT3536</name></trkpt>
<trkpt lat="53.186474" lon="-1.740468"><ele>205</ele><time>2020-01-31T11:10:54Z</time><name>PT3537</name></trkpt>
<trkpt lat="53.186478" lon="-1.740478"><ele>204</ele><time>2020-01-31T11:10:54Z</time><name>PT3538</name></trkpt>
<trkpt lat="53.186483" lon="-1.740491"><ele>203</ele><time>2020-01-31T11:10:55Z</time><name>PT3539</name></trkpt>
<trkpt lat="53.186489" lon="-1.740502"><ele>203</ele><time>2020-01-31T11:10:57Z</time><name>PT3540</name></trkpt>
<trkpt lat="53.186493" lon="-1.740513"><ele>203</ele><time>2020-01-31T11:10:57Z</time><name>PT3541</name></trkpt>
<trkpt lat="53.186496" lon="-1.740533"><ele>204</ele><time>2020-01-31T11:10:58Z</time><name>PT3542</name></trkpt>
<trkpt lat="53.186503" lon="-1.740549"><ele>203</ele><time>2020-01-31T11:11:00Z</time><name>PT3543</name></trkpt>
<trkpt lat="53.186503" lon="-1.740567"><ele>204</ele><time>2020-01-31T11:11:00Z</time><name>PT3544</name></trkpt>
<trkpt lat="53.186506" lon="-1.740583"><ele>204</ele><time>2020-01-31T11:11:01Z</time><name>PT3545</name></trkpt>
<trkpt lat="53.186510" lon="-1.740598"><ele>204</ele><time>2020-01-31T11:11:03Z</time><name>PT3546</name></trkpt>
<trkpt lat="53.186511" lon="-1.740623"><ele>205</ele><time>2020-01-31T11:11:03Z</time><name>PT3547</name></trkpt>
<trkpt lat="53.186519" lon="-1.740636"><ele>204</ele><time>2020-01-31T11:11:04Z</time><name>PT3548</name></trkpt>
<trkpt lat="53.186528" lon="-1.740649"><ele>201</ele><time>2020-01-31T11:11:06Z</time><name>PT3549</name></trkpt>
<trkpt lat="53.186532" lon="-1.740659"><ele>201</ele><time>2020-01-31T11:11:06Z</time><name>PT3550</name></trkpt>
<trkpt lat="53.186537" lon="-1.740681"><ele>201</ele><time>2020-01-31T11:11:07Z</time><name>PT3551</name></trkpt>
<trkpt lat="53.186544" lon="-1.740697"><ele>200</ele><time>2020-01-31T11:11:09Z</time><name>PT3552</name></trkpt>
<trkpt lat="53.186553" lon="-1.740706"><ele>200</ele><time>2020-01-31T11:11:09Z</time><name>PT3553</name></trkpt>
<trkpt lat="53.186563" lon="-1.740716"><ele>199</ele><time>2020-01-31T11:11:10Z</time><name>PT3554</name></trkpt>
<trkpt lat="53.186571" lon="-1.740725"><ele>200</ele><time>2020-01-31T11:11:12Z</time><name>PT3555</name></trkpt>
<trkpt lat="53.186577" lon="-1.740741"><ele>201</ele><time>2020-01-31T11:11:12Z</time><name>PT3556</name></trkpt>
<trkpt lat="53.186581" lon="-1.740758"><ele>200</ele><time>2020-01-31T11:11:13Z</time><name>PT3557</name></trkpt>
<trkpt lat="53.186584" lon="-1.740773"><ele>201</ele><time>2020-01-31T11:11:15Z</time><name>PT3558</name></trkpt>
<trkpt lat="53.186597" lon="-1.740784"><ele>200</ele><time>2020-01-31T11:11:15Z</time><name>PT3559</name></trkpt>
<trkpt lat="53.186599" lon="-1.740797"><ele>198</ele><time>2020-01-31T11:11:16Z</time><name>PT3560</name></trkpt>
<trkpt lat="53.186596" lon="-1.740817"><ele>198</ele><time>2020-01-31T11:11:18Z</time><name>PT3561</name></trkpt>
<trkpt lat="53.186600" lon="-1.740823"><ele>197</ele><time>2020-01-31T11:11:18Z</time><name>PT3562</name></trkpt>
<trkpt lat="53.186604" lon="-1.740833"><ele>197</ele><time>2020-01-31T11:11:19Z</time><name>PT3563</name></trkpt>
<trkpt lat="53.186607" lon="-1.740837"><ele>197</ele><time>2020-01-31T11:11:21Z</time><name>PT3564</name></trkpt>
<trkpt lat="53.186611" lon="-1.740849"><ele>198</ele><time>2020-01-31T11:11:21Z</time><name>PT3565</name></trkpt>
<trkpt lat="53.186612" lon="-1.740863"><ele>199</ele><time>2020-01-31T11:11:22Z</time><name>PT3566</name></trkpt>
<trkpt lat="53.186615" lon="-1.740863"><ele>201</ele><time>2020-01-31T11:11:24Z</time><name>PT3567</name></trkpt>
<trkpt lat="53.186623" lon="-1.740863"><ele>202</ele><time>2020-01-31T11:11:24Z</time><name>PT3568</name></trkpt>
<trkpt lat="53.186629" lon="-1.740881"><ele>201</ele><time>2020-01-31T11:11:25Z</time><name>PT3569</name></trkpt>
<trkpt lat="53.186633" lon="-1.740892"><ele>203</ele><time>2020-01-31T11:11:27Z</time><name>PT3570</name></trkpt>
<trkpt lat="53.186642" lon="-1.740906"><ele>202</ele><time>2020-01-31T11:11:27Z</time><name>PT3571</name></trkpt>
<trkpt lat="53.186651" lon="-1.740929"><ele>202</ele><time>2020-01-31T11:11:28Z</time><name>PT3572</name></trkpt>
<trkpt lat="53.186658" lon="-1.740949"><ele>201</ele><time>2020-01-31T11:11:30Z</time><name>PT3573</name></trkpt>
<trkpt lat="53.186666" lon="-1.740971"><ele>202</ele><time>2020-01-31T11:11:30Z</time><name>PT3574</name></trkpt>
<trkpt lat="53.186673" lon="-1.740983"><ele>202</ele><time>2020-01-31T11:11:31Z</time><name>PT3575</name></trkpt>
<trkpt lat="53.186678" lon="-1.741001"><ele>200</ele><time>2020-01-31T11:11:33Z</time><name>PT3576</name></trkpt>
<trkpt lat="53.186683" lon="-1.741022"><ele>200</ele><time>2020-01-31T11:11:33Z</time><name>PT3577</name></trkpt>
<trkpt lat="53.186685" lon="-1.741038"><ele>201</ele><time>2020-01-31T11:11:34Z</time><name>PT3578</name></trkpt>
<trkpt lat="53.186693" lon="-1.741048"><ele>202</ele><time>2020-01-31T11:11:36Z</time><name>PT3579</name></trkpt>
<trkpt lat="53.186698" lon="-1.741063"><ele>202</ele><time>2020-01-31T11:11:36Z</time><name>PT3580</name></trkpt>
<trkpt lat="53.186706" lon="-1.741078"><ele>202</ele><time>2020-01-31T11:11:37Z</time><name>PT3581</name></trkpt>
<trkpt lat="53.186714" lon="-1.741099"><ele>202</ele><time>2020-01-31T11:11:39Z</time><name>PT3582</name></trkpt>
<trkpt lat="53.186722" lon="-1.741117"><ele>202</ele><time>2020-01-31T11:11:39Z</time><name>PT3583</name></trkpt>
<trkpt lat="53.186721" lon="-1.741141"><ele>205</ele><time>2020-01-31T11:11:40Z</time><name>PT3584</name></trkpt>
<trkpt lat="53.186728" lon="-1.741157"><ele>207</ele><time>2020-01-31T11:11:42Z</time><name>PT3585</name></trkpt>
<trkpt lat="53.186742" lon="-1.741175"><ele>205</ele><time>2020-01-31T11:11:42Z</time><name>PT3586</name></trkpt>
<trkpt lat="53.186748" lon="-1.741189"><ele>205</ele><time>2020-01-31T11:11:43Z</time><name>PT3587</name></trkpt>
<trkpt lat="53.186755" lon="-1.741200"><ele>206</ele><time>2020-01-31T11:11:45Z</time><name>PT3588</name></trkpt>
<trkpt lat="53.186767" lon="-1.741205"><ele>206</ele><time>2020-01-31T11:11:45Z</time><name>PT3589</name></trkpt>
<trkpt lat="53.186779" lon="-1.741213"><ele>206</ele><time>2020-01-31T11:11:46Z</time><name>PT3590</name></trkpt>
<trkpt lat="53.186793" lon="-1.741227"><ele>205</ele><time>2020-01-31T11:11:48Z</time><name>PT3591</name></trkpt>
<trkpt lat="53.186802" lon="-1.741237"><ele>206</ele><time>2020-01-31T11:11:48Z</time><name>PT3592</name></trkpt>
<trkpt lat="53.186811" lon="-1.741249"><ele>206</ele><time>2020-01-31T11:11:49Z</time><name>PT3593</name></trkpt>
<trkpt lat="53.186825" lon="-1.741256"><ele>207</ele><time>2020-01-31T11:11:51Z</time><name>PT3594</name></trkpt>
<trkpt lat="53.186836" lon="-1.741266"><ele>206</ele><time>2020-01-31T11:11:51Z</time><name>PT3595</name></trkpt>
<trkpt lat="53.186842" lon="-1.741281"><ele>205</ele><time>2020-01-31T11:11:52Z</time><name>PT3596</name></trkpt>
<trkpt lat="53.186847" lon="-1.741289"><ele>206</ele><time>2020-01-31T11:11:54Z</time><name>PT3597</name></trkpt>
<trkpt lat="53.186860" lon="-1.741287"><ele>206</ele><time>2020-01-31T11:11:54Z</time><name>PT3598</name></trkpt>
<trkpt lat="53.186870" lon="-1.741292"><ele>207</ele><time>2020-01-31T11:11:55Z</time><name>PT3599</name></trkpt>
<trkpt lat="53.186882" lon="-1.741307"><ele>205</ele><time>2020-01-31T11:11:57Z</time><name>PT3600</name></trkpt>
<trkpt lat="53.186888" lon="-1.741324"><ele>205</ele><time>2020-01-31T11:11:57Z</time><name>PT3601</name></trkpt>
<trkpt lat="53.186898" lon="-1.741343"><ele>204</ele><time>2020-01-31T11:11:58Z</time><name>PT3602</name></trkpt>
<trkpt lat="53.186900" lon="-1.741363"><ele>205</ele><time>2020-01-31T11:12:00Z</time><name>PT3603</name></trkpt>
<trkpt lat="53.186914" lon="-1.741369"><ele>205</ele><time>2020-01-31T11:12:00Z</time><name>PT3604</name></trkpt>
<trkpt lat="53.186927" lon="-1.741376"><ele>206</ele><time>2020-01-31T11:12:01Z</time><name>PT3605</name></trkpt>
<trkpt lat="53.186941" lon="-1.741386"><ele>204</ele><time>2020-01-31T11:12:03Z</time><name>PT3606</name></trkpt>
<trkpt lat="53.186954" lon="-1.741402"><ele>205</ele><time>2020-01-31T11:12:03Z</time><name>PT3607</name></trkpt>
<trkpt lat="53.186968" lon="-1.741415"><ele>205</ele><time>2020-01-31T11:12:04Z</time><name>PT3608</name></trkpt>
<trkpt lat="53.186979" lon="-1.741421"><ele>204</ele><time>2020-01-31T11:12:06Z</time><name>PT3609</name></trkpt>
<trkpt lat="53.186987" lon="-1.741422"><ele>206</ele><time>2020-01-31T11:12:06Z</time><name>PT3610</name></trkpt>
<trkpt lat="53.187001" lon="-1.741427"><ele>206</ele><time>2020-01-31T11:12:07Z</time><name>PT3611</name></trkpt>
<trkpt lat="53.187016" lon="-1.741432"><ele>206</ele><time>2020-01-31T11:12:09Z</time><name>PT3612</name></trkpt>
<trkpt lat="53.187025" lon="-1.741440"><ele>208</ele><time>2020-01-31T11:12:09Z</time><name>PT3613</name></trkpt>
<trkpt lat="53.187033" lon="-1.741454"><ele>208</ele><time>2020-01-31T11:12:10Z</time><name>PT3614</name></trkpt>
<trkpt lat="53.187043" lon="-1.741463"><ele>207</ele><time>2020-01-31T11:12:12Z</time><name>PT3615</name></trkpt>
<trkpt lat="53.187051" lon="-1.741471"><ele>209</ele><time>2020-01-31T11:12:12Z</time><name>PT3616</name></trkpt>
<trkpt lat="53.187062" lon="-1.741484"><ele>208</ele><time>2020-01-31T11:12:13Z</time><name>PT3617</name></trkpt>
<trkpt lat="53.187069" lon="-1.741503"><ele>209</ele><time>2020-01-31T11:12:15Z</time><name>PT3618</name></trkpt>
<trkpt lat="53.187082" lon="-1.741508"><ele>208</ele><time>2020-01-31T11:12:15Z</time><name>PT3619</name></trkpt>
<trkpt lat="53.187087" lon="-1.741519"><ele>210</ele><time>2020-01-31T11:12:16Z</time><name>PT3620</name></trkpt>
<trkpt lat="53.187100" lon="-1.741536"><ele>209</ele><time>2020-01-31T11:12:18Z</time><name>PT3621</name></trkpt>
<trkpt lat="53.187114" lon="-1.741545"><ele>207</ele><time>2020-01-31T11:12:18Z</time><name>PT3622</name></trkpt>
<trkpt lat="53.187121" lon="-1.741559"><ele>207</ele><time>2020-01-31T11:12:19Z</time><name>PT3623</name></trkpt>
<trkpt lat="53.187133" lon="-1.741571"><ele>205</ele><time>2020-01-31T11:12:21Z</time><name>PT3624</name></trkpt>
<trkpt lat="53.187143" lon="-1.741589"><ele>204</ele><time>2020-01-31T11:12:21Z</time><name>PT3625</name></trkpt>
<trkpt lat="53.187151" lon="-1.741596"><ele>205</ele><time>2020-01-31T11:12:22Z</time><name>PT3626</name></trkpt>
<trkpt lat="53.187160" lon="-1.741610"><ele>204</ele><time>2020-01-31T11:12:24Z</time><name>PT3627</name></trkpt>
<trkpt lat="53.187169" lon="-1.741614"><ele>203</ele><time>2020-01-31T11:12:24Z</time><name>PT3628</name></trkpt>
<trkpt lat="53.187177" lon="-1.741620"><ele>203</ele><time>2020-01-31T11:12:25Z</time><name>PT3629</name></trkpt>
<trkpt lat="53.187183" lon="-1.741625"><ele>207</ele><time>2020-01-31T11:12:27Z</time><name>PT3630</name></trkpt>
<trkpt lat="53.187192" lon="-1.741634"><ele>207</ele><time>2020-01-31T11:12:27Z</time><name>PT3631</name></trkpt>
<trkpt lat="53.187206" lon="-1.741637"><ele>206</ele><time>2020-01-31T11:12:28Z</time><name>PT3632</name></trkpt>
<trkpt lat="53.187212" lon="-1.741641"><ele>207</ele><time>2020-01-31T11:12:30Z</time><name>PT3633</name></trkpt>
<trkpt lat="53.187216" lon="-1.741647"><ele>207</ele><time>2020-01-31T11:12:30Z</time><name>PT3634</name></trkpt>
<trkpt lat="53.187222" lon="-1.741654"><ele>207</ele><time>2020-01-31T11:12:31Z</time><name>PT3635</name></trkpt>
<trkpt lat="53.187225" lon="-1.741662"><ele>207</ele><time>2020-01-31T11:12:33Z</time><name>PT3636</name></trkpt>
<trkpt lat="53.187227" lon="-1.741670"><ele>207</ele><time>2020-01-31T11:12:33Z</time><name>PT3637</name></trkpt>
<trkpt lat="53.187232" lon="-1.741684"><ele>206</ele><time>2020-01-31T11:12:34Z</time><name>PT3638</name></trkpt>
<trkpt lat="53.187242" lon="-1.741694"><ele>205</ele><time>2020-01-31T11:12:36Z</time><name>PT3639</name></trkpt>
<trkpt lat="53.187247" lon="-1.741707"><ele>205</ele><time>2020-01-31T11:12:36Z</time><name>PT3640</name></trkpt>
<trkpt lat="53.187253" lon="-1.741724"><ele>205</ele><time>2020-01-31T11:12:37Z</time><name>PT3641</name></trkpt>
<trkpt lat="53.187268" lon="-1.741739"><ele>203</ele><time>2020-01-31T11:12:39Z</time><name>PT3642</name></trkpt>
<trkpt lat="53.187283" lon="-1.741756"><ele>202</ele><time>2020-01-31T11:12:39Z</time><name>PT3643</name></trkpt>
<trkpt lat="53.187290" lon="-1.741767"><ele>203</ele><time>2020-01-31T11:12:40Z</time><name>PT3644</name></trkpt>
<trkpt lat="53.187302" lon="-1.741778"><ele>203</ele><time>2020-01-31T11:12:42Z</time><name>PT3645</name></trkpt>
<trkpt lat="53.187313" lon="-1.741792"><ele>203</ele><time>2020-01-31T11:12:42Z</time><name>PT3646</name></trkpt>
<trkpt lat="53.187321" lon="-1.741804"><ele>203</ele><time>2020-01-31T11:12:43Z</time><name>PT3647</name></trkpt>
<trkpt lat="53.187327" lon="-1.741815"><ele>204</ele><time>2020-01-31T11:12:45Z</time><name>PT3648</name></trkpt>
<trkpt lat="53.187331" lon="-1.741831"><ele>203</ele><time>2020-01-31T11:12:45Z</time><name>PT3649</name></trkpt>
<trkpt lat="53.187336" lon="-1.741843"><ele>203</ele><time>2020-01-31T11:12:46Z</time><name>PT3650</name></trkpt>
<trkpt lat="53.187339" lon="-1.741849"><ele>203</ele><time>2020-01-31T11:12:48Z</time><name>PT3651</name></trkpt>
<trkpt lat="53.187355" lon="-1.741861"><ele>202</ele><time>2020-01-31T11:12:48Z</time><name>PT3652</name></trkpt>
<trkpt lat="53.187364" lon="-1.741859"><ele>202</ele><time>2020-01-31T11:12:49Z</time><name>PT3653</name></trkpt>
<trkpt lat="53.187376" lon="-1.741859"><ele>202</ele><time>2020-01-31T11:12:51Z</time><name>PT3654</name></trkpt>
<trkpt lat="53.187387" lon="-1.741858"><ele>202</ele><time>2020-01-31T11:12:51Z</time><name>PT3655</name></trkpt>
<trkpt lat="53.187399" lon="-1.741861"><ele>202</ele><time>2020-01-31T11:12:52Z</time><name>PT3656</name></trkpt>
<trkpt lat="53.187417" lon="-1.741864"><ele>203</ele><time>2020-01-31T11:12:54Z</time><name>PT3657</name></trkpt>
<trkpt lat="53.187428" lon="-1.741876"><ele>203</ele><time>2020-01-31T11:12:54Z</time><name>PT3658</name></trkpt>
<trkpt lat="53.187439" lon="-1.741889"><ele>202</ele><time>2020-01-31T11:12:55Z</time><name>PT3659</name></trkpt>
<trkpt lat="53.187443" lon="-1.741903"><ele>203</ele><time>2020-01-31T11:12:57Z</time><name>PT3660</name></trkpt>
<trkpt lat="53.187453" lon="-1.741911"><ele>204</ele><time>2020-01-31T11:12:57Z</time><name>PT3661</name></trkpt>
<trkpt lat="53.187462" lon="-1.741921"><ele>205</ele><time>2020-01-31T11:12:58Z</time><name>PT3662</name></trkpt>
<trkpt lat="53.187473" lon="-1.741935"><ele>205</ele><time>2020-01-31T11:13:00Z</time><name>PT3663</name></trkpt>
<trkpt lat="53.187484" lon="-1.741954"><ele>205</ele><time>2020-01-31T11:13:00Z</time><name>PT3664</name></trkpt>
<trkpt lat="53.187493" lon="-1.741972"><ele>206</ele><time>2020-01-31T11:13:01Z</time><name>PT3665</name></trkpt>
<trkpt lat="53.187503" lon="-1.741977"><ele>204</ele><time>2020-01-31T11:13:03Z</time><name>PT3666</name></trkpt>
<trkpt lat="53.187515" lon="-1.741991"><ele>203</ele><time>2020-01-31T11:13:03Z</time><name>PT3667</name></trkpt>
<trkpt lat="53.187524" lon="-1.742000"><ele>204</ele><time>2020-01-31T11:13:04Z</time><name>PT3668</name></trkpt>
<trkpt lat="53.187534" lon="-1.742013"><ele>204</ele><time>2020-01-31T11:13:06Z</time><name>PT3669</name></trkpt>
<trkpt lat="53.187548" lon="-1.742024"><ele>204</ele><time>2020-01-31T11:13:06Z</time><name>PT3670</name></trkpt>
<trkpt lat="53.187558" lon="-1.742031"><ele>204</ele><time>2020-01-31T11:13:07Z</time><name>PT3671</name></trkpt>
<trkpt lat="53.187566" lon="-1.742037"><ele>205</ele><time>2020-01-31T11:13:09Z</time><name>PT3672</name></trkpt>
<trkpt lat="53.187575" lon="-1.742049"><ele>205</ele><time>2020-01-31T11:13:09Z</time><name>PT3673</name></trkpt>
<trkpt lat="53.187585" lon="-1.742058"><ele>204</ele><time>2020-01-31T11:13:10Z</time><name>PT3674</name></trkpt>
<trkpt lat="53.187595" lon="-1.742062"><ele>204</ele><time>2020-01-31T11:13:12Z</time><name>PT3675</name></trkpt>
<trkpt lat="53.187606" lon="-1.742066"><ele>204</ele><time>2020-01-31T11:13:12Z</time><name>PT3676</name></trkpt>
<trkpt lat="53.187617" lon="-1.742067"><ele>203</ele><time>2020-01-31T11:13:13Z</time><name>PT3677</name></trkpt>
<trkpt lat="53.187630" lon="-1.742075"><ele>204</ele><time>2020-01-31T11:13:15Z</time><name>PT3678</name></trkpt>
<trkpt lat="53.187638" lon="-1.742084"><ele>203</ele><time>2020-01-31T11:13:15Z</time><name>PT3679</name></trkpt>
<trkpt lat="53.187648" lon="-1.742090"><ele>203</ele><time>2020-01-31T11:13:16Z</time><name>PT3680</name></trkpt>
<trkpt lat="53.187656" lon="-1.742102"><ele>203</ele><time>2020-01-31T11:13:18Z</time><name>PT3681</name></trkpt>
<trkpt lat="53.187662" lon="-1.742116"><ele>203</ele><time>2020-01-31T11:13:18Z</time><name>PT3682</name></trkpt>
<trkpt lat="53.187670" lon="-1.742124"><ele>203</ele><time>2020-01-31T11:13:19Z</time><name>PT3683</name></trkpt>
<trkpt lat="53.187678" lon="-1.742122"><ele>203</ele><time>2020-01-31T11:13:21Z</time><name>PT3684</name></trkpt>
<trkpt lat="53.187687" lon="-1.742124"><ele>203</ele><time>2020-01-31T11:13:21Z</time><name>PT3685</name></trkpt>
<trkpt lat="53.187693" lon="-1.742131"><ele>203</ele><time>2020-01-31T11:13:22Z</time><name>PT3686</name></trkpt>
<trkpt lat="53.187699" lon="-1.742135"><ele>203</ele><time>2020-01-31T11:13:24Z</time><name>PT3687</name></trkpt>
<trkpt lat="53.187707" lon="-1.742143"><ele>203</ele><time>2020-01-31T11:13:24Z</time><name>PT3688</name></trkpt>
<trkpt lat="53.187716" lon="-1.742157"><ele>203</ele><time>2020-01-31T11:13:25Z</time><name>PT3689</name></trkpt>
<trkpt lat="53.187722" lon="-1.742172"><ele>204</ele><time>2020-01-31T11:13:27Z</time><name>PT3690</name></trkpt>
<trkpt lat="53.187732" lon="-1.742184"><ele>204</ele><time>2020-01-31T11:13:27Z</time><name>PT3691</name></trkpt>
<trkpt lat="53.187739" lon="-1.742194"><ele>204</ele><time>2020-01-31T11:13:28Z</time><name>PT3692</name></trkpt>
<trkpt lat="53.187747" lon="-1.742204"><ele>204</ele><time>2020-01-31T11:13:30Z</time><name>PT3693</name></trkpt>
<trkpt lat="53.187758" lon="-1.742208"><ele>205</ele><time>2020-01-31T11:13:30Z</time><name>PT3694</name></trkpt>
<trkpt lat="53.187766" lon="-1.742214"><ele>204</ele><time>2020-01-31T11:13:31Z</time><name>PT3695</name></trkpt>
<trkpt lat="53.187777" lon="-1.742221"><ele>205</ele><time>2020-01-31T11:13:33Z</time><name>PT3696</name></trkpt>
<trkpt lat="53.187788" lon="-1.742228"><ele>204</ele><time>2020-01-31T11:13:33Z</time><name>PT3697</name></trkpt>
<trkpt lat="53.187800" lon="-1.742230"><ele>205</ele><time>2020-01-31T11:13:34Z</time><name>PT3698</name></trkpt>
<trkpt lat="53.187813" lon="-1.742229"><ele>205</ele><time>2020-01-31T11:13:36Z</time><name>PT3699</name></trkpt>
<trkpt lat="53.187825" lon="-1.742230"><ele>204</ele><time>2020-01-31T11:13:36Z</time><name>PT3700</name></trkpt>
<trkpt lat="53.187837" lon="-1.742233"><ele>204</ele><time>2020-01-31T11:13:37Z</time><name>PT3701</name></trkpt>
<trkpt lat="53.187849" lon="-1.742234"><ele>204</ele><time>2020-01-31T11:13:39Z</time><name>PT3702</name></trkpt>
<trkpt lat="53.187859" lon="-1.742239"><ele>204</ele><time>2020-01-31T11:13:39Z</time><name>PT3703</name></trkpt>
<trkpt lat="53.187869" lon="-1.742243"><ele>204</ele><time>2020-01-31T11:13:40Z</time><name>PT3704</name></trkpt>
<trkpt lat="53.187877" lon="-1.742248"><ele>204</ele><time>2020-01-31T11:13:42Z</time><name>PT3705</name></trkpt>
<trkpt lat="53.187888" lon="-1.742245"><ele>204</ele><time>2020-01-31T11:13:42Z</time><name>PT3706</name></trkpt>
<trkpt lat="53.187899" lon="-1.742248"><ele>204</ele><time>2020-01-31T11:13:43Z</time><name>PT3707</name></trkpt>
<trkpt lat="53.187910" lon="-1.742248"><ele>204</ele><time>2020-01-31T11:13:45Z</time><name>PT3708</name></trkpt>
<trkpt lat="53.187921" lon="-1.742247"><ele>204</ele><time>2020-01-31T11:13:45Z</time><name>PT3709</name></trkpt>
<trkpt lat="53.187930" lon="-1.742254"><ele>204</ele><time>2020-01-31T11:13:46Z</time><name>PT3710</name></trkpt>
<trkpt lat="53.187939" lon="-1.742259"><ele>204</ele><time>2020-01-31T11:13:48Z</time><name>PT3711</name></trkpt>
<trkpt lat="53.187950" lon="-1.742263"><ele>204</ele><time>2020-01-31T11:13:48Z</time><name>PT3712</name></trkpt>
<trkpt lat="53.187961" lon="-1.742281"><ele>204</ele><time>2020-01-31T11:13:49Z</time><name>PT3713</name></trkpt>
<trkpt lat="53.187973" lon="-1.742288"><ele>204</ele><time>2020-01-31T11:13:51Z</time><name>PT3714</name></trkpt>
<trkpt lat="53.187984" lon="-1.742284"><ele>204</ele><time>2020-01-31T11:13:51Z</time><name>PT3715</name></trkpt>
<trkpt lat="53.187993" lon="-1.742291"><ele>204</ele><time>2020-01-31T11:13:52Z</time><name>PT3716</name></trkpt>
<trkpt lat="53.188004" lon="-1.742302"><ele>204</ele><time>2020-01-31T11:13:54Z</time><name>PT3717</name></trkpt>
<trkpt lat="53.188013" lon="-1.742313"><ele>204</ele><time>2020-01-31T11:13:54Z</time><name>PT3718</name></trkpt>
<trkpt lat="53.188024" lon="-1.742322"><ele>204</ele><time>2020-01-31T11:13:55Z</time><name>PT3719</name></trkpt>
<trkpt lat="53.188031" lon="-1.742332"><ele>203</ele><time>2020-01-31T11:13:57Z</time><name>PT3720</name></trkpt>
<trkpt lat="53.188037" lon="-1.742340"><ele>203</ele><time>2020-01-31T11:13:57Z</time><name>PT3721</name></trkpt>
<trkpt lat="53.188047" lon="-1.742342"><ele>203</ele><time>2020-01-31T11:13:58Z</time><name>PT3722</name></trkpt>
<trkpt lat="53.188059" lon="-1.742347"><ele>204</ele><time>2020-01-31T11:14:00Z</time><name>PT3723</name></trkpt>
<trkpt lat="53.188068" lon="-1.742352"><ele>203</ele><time>2020-01-31T11:14:00Z</time><name>PT3724</name></trkpt>
<trkpt lat="53.188080" lon="-1.742356"><ele>204</ele><time>2020-01-31T11:14:01Z</time><name>PT3725</name></trkpt>
<trkpt lat="53.188087" lon="-1.742361"><ele>203</ele><time>2020-01-31T11:14:03Z</time><name>PT3726</name></trkpt>
<trkpt lat="53.188094" lon="-1.742368"><ele>203</ele><time>2020-01-31T11:14:03Z</time><name>PT3727</name></trkpt>
<trkpt lat="53.188100" lon="-1.742373"><ele>203</ele><time>2020-01-31T11:14:04Z</time><name>PT3728</name></trkpt>
<trkpt lat="53.188106" lon="-1.742385"><ele>203</ele><time>2020-01-31T11:14:06Z</time><name>PT3729</name></trkpt>
<trkpt lat="53.188113" lon="-1.742391"><ele>203</ele><time>2020-01-31T11:14:06Z</time><name>PT3730</name></trkpt>
<trkpt lat="53.188123" lon="-1.742392"><ele>203</ele><time>2020-01-31T11:14:07Z</time><name>PT3731</name></trkpt>
<trkpt lat="53.188131" lon="-1.742395"><ele>203</ele><time>2020-01-31T11:14:09Z</time><name>PT3732</name></trkpt>
<trkpt lat="53.188140" lon="-1.742377"><ele>202</ele><time>2020-01-31T11:14:09Z</time><name>PT3733</name></trkpt>
<trkpt lat="53.188147" lon="-1.742376"><ele>202</ele><time>2020-01-31T11:14:10Z</time><name>PT3734</name></trkpt>
<trkpt lat="53.188154" lon="-1.742377"><ele>202</ele><time>2020-01-31T11:14:12Z</time><name>PT3735</name></trkpt>
<trkpt lat="53.188162" lon="-1.742378"><ele>202</ele><time>2020-01-31T11:14:12Z</time><name>PT3736</name></trkpt>
<trkpt lat="53.188169" lon="-1.742387"><ele>202</ele><time>2020-01-31T11:14:13Z</time><name>PT3737</name></trkpt>
<trkpt lat="53.188176" lon="-1.742388"><ele>202</ele><time>2020-01-31T11:14:15Z</time><name>PT3738</name></trkpt>
<trkpt lat="53.188184" lon="-1.742394"><ele>202</ele><time>2020-01-31T11:14:15Z</time><name>PT3739</name></trkpt>
<trkpt lat="53.188196" lon="-1.742398"><ele>202</ele><time>2020-01-31T11:14:16Z</time><name>PT3740</name></trkpt>
<trkpt lat="53.188208" lon="-1.742399"><ele>203</ele><time>2020-01-31T11:14:18Z</time><name>PT3741</name></trkpt>
<trkpt lat="53.188215" lon="-1.742407"><ele>203</ele><time>2020-01-31T11:14:18Z</time><name>PT3742</name></trkpt>
<trkpt lat="53.188223" lon="-1.742413"><ele>203</ele><time>2020-01-31T11:14:19Z</time><name>PT3743</name></trkpt>
<trkpt lat="53.188234" lon="-1.742413"><ele>203</ele><time>2020-01-31T11:14:21Z</time><name>PT3744</name></trkpt>
<trkpt lat="53.188243" lon="-1.742413"><ele>203</ele><time>2020-01-31T11:14:21Z</time><name>PT3745</name></trkpt>
<trkpt lat="53.188255" lon="-1.742413"><ele>204</ele><time>2020-01-31T11:14:22Z</time><name>PT3746</name></trkpt>
<trkpt lat="53.188264" lon="-1.742417"><ele>203</ele><time>2020-01-31T11:14:24Z</time><name>PT3747</name></trkpt>
<trkpt lat="53.188276" lon="-1.742425"><ele>203</ele><time>2020-01-31T11:14:24Z</time><name>PT3748</name></trkpt>
<trkpt lat="53.188287" lon="-1.742441"><ele>203</ele><time>2020-01-31T11:14:25Z</time><name>PT3749</name></trkpt>
<trkpt lat="53.188296" lon="-1.742438"><ele>203</ele><time>2020-01-31T11:14:27Z</time><name>PT3750</name></trkpt>
<trkpt lat="53.188307" lon="-1.742449"><ele>203</ele><time>2020-01-31T11:14:27Z</time><name>PT3751</name></trkpt>
<trkpt lat="53.188318" lon="-1.742451"><ele>203</ele><time>2020-01-31T11:14:28Z</time><name>PT3752</name></trkpt>
<trkpt lat="53.188332" lon="-1.742454"><ele>203</ele><time>2020-01-31T11:14:30Z</time><name>PT3753</name></trkpt>
<trkpt lat="53.188341" lon="-1.742468"><ele>203</ele><time>2020-01-31T11:14:30Z</time><name>PT3754</name></trkpt>
<trkpt lat="53.188347" lon="-1.742474"><ele>202</ele><time>2020-01-31T11:14:31Z</time><name>PT3755</name></trkpt>
<trkpt lat="53.188357" lon="-1.742482"><ele>202</ele><time>2020-01-31T11:14:33Z</time><name>PT3756</name></trkpt>
<trkpt lat="53.188367" lon="-1.742479"><ele>202</ele><time>2020-01-31T11:14:33Z</time><name>PT3757</name></trkpt>
<trkpt lat="53.188378" lon="-1.742475"><ele>202</ele><time>2020-01-31T11:14:34Z</time><name>PT3758</name></trkpt>
<trkpt lat="53.188389" lon="-1.742480"><ele>203</ele><time>2020-01-31T11:14:36Z</time><name>PT3759</name></trkpt>
<trkpt lat="53.188399" lon="-1.742485"><ele>202</ele><time>2020-01-31T11:14:36Z</time><name>PT3760</name></trkpt>
<trkpt lat="53.188410" lon="-1.742491"><ele>202</ele><time>2020-01-31T11:14:37Z</time><name>PT3761</name></trkpt>
<trkpt lat="53.188421" lon="-1.742495"><ele>202</ele><time>2020-01-31T11:14:39Z</time><name>PT3762</name></trkpt>
<trkpt lat="53.188433" lon="-1.742495"><ele>202</ele><time>2020-01-31T11:14:39Z</time><name>PT3763</name></trkpt>
<trkpt lat="53.188444" lon="-1.742500"><ele>202</ele><time>2020-01-31T11:14:40Z</time><name>PT3764</name></trkpt>
<trkpt lat="53.188455" lon="-1.742500"><ele>203</ele><time>2020-01-31T11:14:42Z</time><name>PT3765</name></trkpt>
<trkpt lat="53.188465" lon="-1.742505"><ele>204</ele><time>2020-01-31T11:14:42Z</time><name>PT3766</name></trkpt>
<trkpt lat="53.188474" lon="-1.742521"><ele>203</ele><time>2020-01-31T11:14:43Z</time><name>PT3767</name></trkpt>
<trkpt lat="53.188487" lon="-1.742530"><ele>204</ele><time>2020-01-31T11:14:45Z</time><name>PT3768</name></trkpt>
<trkpt lat="53.188497" lon="-1.742533"><ele>204</ele><time>2020-01-31T11:14:45Z</time><name>PT3769</name></trkpt>
<trkpt lat="53.188505" lon="-1.742533"><ele>204</ele><time>2020-01-31T11:14:46Z</time><name>PT3770</name></trkpt>
<trkpt lat="53.188511" lon="-1.742539"><ele>204</ele><time>2020-01-31T11:14:48Z</time><name>PT3771</name></trkpt>
<trkpt lat="53.188517" lon="-1.742541"><ele>203</ele><time>2020-01-31T11:14:48Z</time><name>PT3772</name></trkpt>
<trkpt lat="53.188519" lon="-1.742538"><ele>203</ele><time>2020-01-31T11:14:49Z</time><name>PT3773</name></trkpt>
<trkpt lat="53.188522" lon="-1.742536"><ele>203</ele><time>2020-01-31T11:14:51Z</time><name>PT3774</name></trkpt>
<trkpt lat="53.188527" lon="-1.742533"><ele>203</ele><time>2020-01-31T11:14:51Z</time><name>PT3775</name></trkpt>
<trkpt lat="53.188535" lon="-1.742533"><ele>203</ele><time>2020-01-31T11:14:52Z</time><name>PT3776</name></trkpt>
<trkpt lat="53.188545" lon="-1.742540"><ele>203</ele><time>2020-01-31T11:14:54Z</time><name>PT3777</name></trkpt>
<trkpt lat="53.188559" lon="-1.742543"><ele>203</ele><time>2020-01-31T11:14:54Z</time><name>PT3778</name></trkpt>
<trkpt lat="53.188571" lon="-1.742547"><ele>203</ele><time>2020-01-31T11:14:55Z</time><name>PT3779</name></trkpt>
<trkpt lat="53.188584" lon="-1.742550"><ele>203</ele><time>2020-01-31T11:14:57Z</time><name>PT3780</name></trkpt>
<trkpt lat="53.188594" lon="-1.742561"><ele>203</ele><time>2020-01-31T11:14:57Z</time><name>PT3781</name></trkpt>
<trkpt lat="53.188603" lon="-1.742568"><ele>203</ele><time>2020-01-31T11:14:58Z</time><name>PT3782</name></trkpt>
<trkpt lat="53.188613" lon="-1.742570"><ele>203</ele><time>2020-01-31T11:15:00Z</time><name>PT3783</name></trkpt>
<trkpt lat="53.188621" lon="-1.742576"><ele>203</ele><time>2020-01-31T11:15:00Z</time><name>PT3784</name></trkpt>
<trkpt lat="53.188631" lon="-1.742584"><ele>203</ele><time>2020-01-31T11:15:01Z</time><name>PT3785</name></trkpt>
<trkpt lat="53.188641" lon="-1.742590"><ele>203</ele><time>2020-01-31T11:15:03Z</time><name>PT3786</name></trkpt>
<trkpt lat="53.188650" lon="-1.742601"><ele>204</ele><time>2020-01-31T11:15:03Z</time><name>PT3787</name></trkpt>
<trkpt lat="53.188659" lon="-1.742607"><ele>204</ele><time>2020-01-31T11:15:04Z</time><name>PT3788</name></trkpt>
<trkpt lat="53.188667" lon="-1.742615"><ele>204</ele><time>2020-01-31T11:15:06Z</time><name>PT3789</name></trkpt>
<trkpt lat="53.188675" lon="-1.742618"><ele>204</ele><time>2020-01-31T11:15:06Z</time><name>PT3790</name></trkpt>
<trkpt lat="53.188683" lon="-1.742630"><ele>204</ele><time>2020-01-31T11:15:07Z</time><name>PT3791</name></trkpt>
<trkpt lat="53.188689" lon="-1.742640"><ele>204</ele><time>2020-01-31T11:15:09Z</time><name>PT3792</name></trkpt>
<trkpt lat="53.188697" lon="-1.742646"><ele>204</ele><time>2020-01-31T11:15:09Z</time><name>PT3793</name></trkpt>
<trkpt lat="53.188708" lon="-1.742658"><ele>204</ele><time>2020-01-31T11:15:10Z</time><name>PT3794</name></trkpt>
<trkpt lat="53.188717" lon="-1.742669"><ele>204</ele><time>2020-01-31T11:15:12Z</time><name>PT3795</name></trkpt>
<trkpt lat="53.188730" lon="-1.742677"><ele>204</ele><time>2020-01-31T11:15:12Z</time><name>PT3796</name></trkpt>
<trkpt lat="53.188743" lon="-1.742689"><ele>205</ele><time>2020-01-31T11:15:13Z</time><name>PT3797</name></trkpt>
<trkpt lat="53.188754" lon="-1.742705"><ele>204</ele><time>2020-01-31T11:15:15Z</time><name>PT3798</name></trkpt>
<trkpt lat="53.188761" lon="-1.742723"><ele>204</ele><time>2020-01-31T11:15:15Z</time><name>PT3799</name></trkpt>
<trkpt lat="53.188768" lon="-1.742739"><ele>203</ele><time>2020-01-31T11:15:16Z</time><name>PT3800</name></trkpt>
<trkpt lat="53.188778" lon="-1.742750"><ele>203</ele><time>2020-01-31T11:15:18Z</time><name>PT3801</name></trkpt>
<trkpt lat="53.188785" lon="-1.742760"><ele>203</ele><time>2020-01-31T11:15:18Z</time><name>PT3802</name></trkpt>
<trkpt lat="53.188793" lon="-1.742772"><ele>203</ele><time>2020-01-31T11:15:19Z</time><name>PT3803</name></trkpt>
<trkpt lat="53.188796" lon="-1.742787"><ele>204</ele><time>2020-01-31T11:15:21Z</time><name>PT3804</name></trkpt>
<trkpt lat="53.188798" lon="-1.742795"><ele>204</ele><time>2020-01-31T11:15:21Z</time><name>PT3805</name></trkpt>
<trkpt lat="53.188805" lon="-1.742804"><ele>204</ele><time>2020-01-31T11:15:22Z</time><name>PT3806</name></trkpt>
<trkpt lat="53.188812" lon="-1.742813"><ele>205</ele><time>2020-01-31T11:15:24Z</time><name>PT3807</name></trkpt>
<trkpt lat="53.188817" lon="-1.742825"><ele>206</ele><time>2020-01-31T11:15:24Z</time><name>PT3808</name></trkpt>
<trkpt lat="53.188825" lon="-1.742831"><ele>206</ele><time>2020-01-31T11:15:25Z</time><name>PT3809</name></trkpt>
<trkpt lat="53.188833" lon="-1.742842"><ele>206</ele><time>2020-01-31T11:15:27Z</time><name>PT3810</name></trkpt>
<trkpt lat="53.188841" lon="-1.742852"><ele>205</ele><time>2020-01-31T11:15:27Z</time><name>PT3811</name></trkpt>
<trkpt lat="53.188851" lon="-1.742860"><ele>204</ele><time>2020-01-31T11:15:28Z</time><name>PT3812</name></trkpt>
<trkpt lat="53.188858" lon="-1.742868"><ele>205</ele><time>2020-01-31T11:15:30Z</time><name>PT3813</name></trkpt>
<trkpt lat="53.188864" lon="-1.742879"><ele>205</ele><time>2020-01-31T11:15:30Z</time><name>PT3814</name></trkpt>
<trkpt lat="53.188869" lon="-1.742889"><ele>205</ele><time>2020-01-31T11:15:31Z</time><name>PT3815</name></trkpt>
<trkpt lat="53.188878" lon="-1.742896"><ele>205</ele><time>2020-01-31T11:15:33Z</time><name>PT3816</name></trkpt>
<trkpt lat="53.188888" lon="-1.742892"><ele>205</ele><time>2020-01-31T11:15:33Z</time><name>PT3817</name></trkpt>
<trkpt lat="53.188897" lon="-1.742904"><ele>204</ele><time>2020-01-31T11:15:34Z</time><name>PT3818</name></trkpt>
<trkpt lat="53.188906" lon="-1.742915"><ele>204</ele><time>2020-01-31T11:15:36Z</time><name>PT3819</name></trkpt>
<trkpt lat="53.188913" lon="-1.742925"><ele>204</ele><time>2020-01-31T11:15:36Z</time><name>PT3820</name></trkpt>
<trkpt lat="53.188924" lon="-1.742935"><ele>204</ele><time>2020-01-31T11:15:37Z</time><name>PT3821</name></trkpt>
<trkpt lat="53.188931" lon="-1.742945"><ele>204</ele><time>2020-01-31T11:15:39Z</time><name>PT3822</name></trkpt>
<trkpt lat="53.188939" lon="-1.742956"><ele>204</ele><time>2020-01-31T11:15:39Z</time><name>PT3823</name></trkpt>
<trkpt lat="53.188947" lon="-1.742970"><ele>204</ele><time>2020-01-31T11:15:40Z</time><name>PT3824</name></trkpt>
<trkpt lat="53.188955" lon="-1.742977"><ele>204</ele><time>2020-01-31T11:15:42Z</time><name>PT3825</name></trkpt>
<trkpt lat="53.188965" lon="-1.742982"><ele>205</ele><time>2020-01-31T11:15:42Z</time><name>PT3826</name></trkpt>
<trkpt lat="53.188972" lon="-1.742990"><ele>205</ele><time>2020-01-31T11:15:43Z</time><name>PT3827</name></trkpt>
<trkpt lat="53.188980" lon="-1.742996"><ele>205</ele><time>2020-01-31T11:15:45Z</time><name>PT3828</name></trkpt>
<trkpt lat="53.188988" lon="-1.743002"><ele>205</ele><time>2020-01-31T11:15:45Z</time><name>PT3829</name></trkpt>
<trkpt lat="53.188995" lon="-1.743009"><ele>205</ele><time>2020-01-31T11:15:46Z</time><name>PT3830</name></trkpt>
<trkpt lat="53.189003" lon="-1.743020"><ele>205</ele><time>2020-01-31T11:15:48Z</time><name>PT3831</name></trkpt>
<trkpt lat="53.189012" lon="-1.743021"><ele>205</ele><time>2020-01-31T11:15:48Z</time><name>PT3832</name></trkpt>
<trkpt lat="53.189022" lon="-1.743028"><ele>205</ele><time>2020-01-31T11:15:49Z</time><name>PT3833</name></trkpt>
<trkpt lat="53.189031" lon="-1.743032"><ele>205</ele><time>2020-01-31T11:15:51Z</time><name>PT3834</name></trkpt>
<trkpt lat="53.189039" lon="-1.743042"><ele>204</ele><time>2020-01-31T11:15:51Z</time><name>PT3835</name></trkpt>
<trkpt lat="53.189047" lon="-1.743052"><ele>204</ele><time>2020-01-31T11:15:52Z</time><name>PT3836</name></trkpt>
<trkpt lat="53.189063" lon="-1.743059"><ele>204</ele><time>2020-01-31T11:15:54Z</time><name>PT3837</name></trkpt>
<trkpt lat="53.189075" lon="-1.743064"><ele>204</ele><time>2020-01-31T11:15:54Z</time><name>PT3838</name></trkpt>
<trkpt lat="53.189085" lon="-1.743067"><ele>204</ele><time>2020-01-31T11:15:55Z</time><name>PT3839</name></trkpt>
<trkpt lat="53.189093" lon="-1.743078"><ele>203</ele><time>2020-01-31T11:15:57Z</time><name>PT3840</name></trkpt>
<trkpt lat="53.189101" lon="-1.743090"><ele>203</ele><time>2020-01-31T11:15:57Z</time><name>PT3841</name></trkpt>
<trkpt lat="53.189111" lon="-1.743100"><ele>203</ele><time>2020-01-31T11:15:58Z</time><name>PT3842</name></trkpt>
<trkpt lat="53.189120" lon="-1.743110"><ele>203</ele><time>2020-01-31T11:16:00Z</time><name>PT3843</name></trkpt>
<trkpt lat="53.189127" lon="-1.743117"><ele>203</ele><time>2020-01-31T11:16:00Z</time><name>PT3844</name></trkpt>
<trkpt lat="53.189132" lon="-1.743116"><ele>203</ele><time>2020-01-31T11:16:01Z</time><name>PT3845</name></trkpt>
<trkpt lat="53.189138" lon="-1.743117"><ele>203</ele><time>2020-01-31T11:16:03Z</time><name>PT3846</name></trkpt>
<trkpt lat="53.189147" lon="-1.743129"><ele>202</ele><time>2020-01-31T11:16:03Z</time><name>PT3847</name></trkpt>
<trkpt lat="53.189159" lon="-1.743135"><ele>202</ele><time>2020-01-31T11:16:04Z</time><name>PT3848</name></trkpt>
<trkpt lat="53.189161" lon="-1.743153"><ele>202</ele><time>2020-01-31T11:16:06Z</time><name>PT3849</name></trkpt>
<trkpt lat="53.189165" lon="-1.743167"><ele>202</ele><time>2020-01-31T11:16:06Z</time><name>PT3850</name></trkpt>
<trkpt lat="53.189171" lon="-1.743180"><ele>203</ele><time>2020-01-31T11:16:07Z</time><name>PT3851</name></trkpt>
<trkpt lat="53.189185" lon="-1.743175"><ele>202</ele><time>2020-01-31T11:16:09Z</time><name>PT3852</name></trkpt>
<trkpt lat="53.189194" lon="-1.743176"><ele>202</ele><time>2020-01-31T11:16:09Z</time><name>PT3853</name></trkpt>
<trkpt lat="53.189201" lon="-1.743185"><ele>201</ele><time>2020-01-31T11:16:10Z</time><name>PT3854</name></trkpt>
<trkpt lat="53.189208" lon="-1.743196"><ele>201</ele><time>2020-01-31T11:16:12Z</time><name>PT3855</name></trkpt>
<trkpt lat="53.189214" lon="-1.743204"><ele>201</ele><time>2020-01-31T11:16:12Z</time><name>PT3856</name></trkpt>
<trkpt lat="53.189224" lon="-1.743209"><ele>201</ele><time>2020-01-31T11:16:13Z</time><name>PT3857</name></trkpt>
<trkpt lat="53.189229" lon="-1.743220"><ele>202</ele><time>2020-01-31T11:16:15Z</time><name>PT3858</name></trkpt>
<trkpt lat="53.189239" lon="-1.743228"><ele>203</ele><time>2020-01-31T11:16:15Z</time><name>PT3859</name></trkpt>
<trkpt lat="53.189247" lon="-1.743237"><ele>202</ele><time>2020-01-31T11:16:16Z</time><name>PT3860</name></trkpt>
<trkpt lat="53.189254" lon="-1.743248"><ele>202</ele><time>2020-01-31T11:16:18Z</time><name>PT3861</name></trkpt>
<trkpt lat="53.189268" lon="-1.743254"><ele>202</ele><time>2020-01-31T11:16:18Z</time><name>PT3862</name></trkpt>
<trkpt lat="53.189277" lon="-1.743262"><ele>202</ele><time>2020-01-31T11:16:19Z</time><name>PT3863</name></trkpt>
<trkpt lat="53.189288" lon="-1.743269"><ele>202</ele><time>2020-01-31T11:16:21Z</time><name>PT3864</name></trkpt>
<trkpt lat="53.189299" lon="-1.743277"><ele>202</ele><time>2020-01-31T11:16:21Z</time><name>PT3865</name></trkpt>
<trkpt lat="53.189305" lon="-1.743287"><ele>202</ele><time>2020-01-31T11:16:22Z</time><name>PT3866</name></trkpt>
<trkpt lat="53.189316" lon="-1.743289"><ele>201</ele><time>2020-01-31T11:16:24Z</time><name>PT3867</name></trkpt>
<trkpt lat="53.189323" lon="-1.743294"><ele>201</ele><time>2020-01-31T11:16:24Z</time><name>PT3868</name></trkpt>
<trkpt lat="53.189333" lon="-1.743299"><ele>200</ele><time>2020-01-31T11:16:25Z</time><name>PT3869</name></trkpt>
<trkpt lat="53.189346" lon="-1.743305"><ele>201</ele><time>2020-01-31T11:16:27Z</time><name>PT3870</name></trkpt>
<trkpt lat="53.189351" lon="-1.743317"><ele>200</ele><time>2020-01-31T11:16:27Z</time><name>PT3871</name></trkpt>
<trkpt lat="53.189357" lon="-1.743329"><ele>200</ele><time>2020-01-31T11:16:28Z</time><name>PT3872</name></trkpt>
<trkpt lat="53.189364" lon="-1.743337"><ele>201</ele><time>2020-01-31T11:16:30Z</time><name>PT3873</name></trkpt>
<trkpt lat="53.189372" lon="-1.743344"><ele>201</ele><time>2020-01-31T11:16:30Z</time><name>PT3874</name></trkpt>
<trkpt lat="53.189377" lon="-1.743358"><ele>202</ele><time>2020-01-31T11:16:31Z</time><name>PT3875</name></trkpt>
<trkpt lat="53.189382" lon="-1.743369"><ele>202</ele><time>2020-01-31T11:16:33Z</time><name>PT3876</name></trkpt>
<trkpt lat="53.189391" lon="-1.743377"><ele>203</ele><time>2020-01-31T11:16:33Z</time><name>PT3877</name></trkpt>
<trkpt lat="53.189398" lon="-1.743382"><ele>203</ele><time>2020-01-31T11:16:34Z</time><name>PT3878</name></trkpt>
<trkpt lat="53.189407" lon="-1.743391"><ele>203</ele><time>2020-01-31T11:16:36Z</time><name>PT3879</name></trkpt>
<trkpt lat="53.189416" lon="-1.743404"><ele>204</ele><time>2020-01-31T11:16:36Z</time><name>PT3880</name></trkpt>
<trkpt lat="53.189426" lon="-1.743411"><ele>205</ele><time>2020-01-31T11:16:37Z</time><name>PT3881</name></trkpt>
<trkpt lat="53.189435" lon="-1.743419"><ele>205</ele><time>2020-01-31T11:16:39Z</time><name>PT3882</name></trkpt>
<trkpt lat="53.189442" lon="-1.743430"><ele>205</ele><time>2020-01-31T11:16:39Z</time><name>PT3883</name></trkpt>
<trkpt lat="53.189452" lon="-1.743434"><ele>205</ele><time>2020-01-31T11:16:40Z</time><name>PT3884</name></trkpt>
<trkpt lat="53.189458" lon="-1.743437"><ele>206</ele><time>2020-01-31T11:16:42Z</time><name>PT3885</name></trkpt>
<trkpt lat="53.189464" lon="-1.743446"><ele>205</ele><time>2020-01-31T11:16:42Z</time><name>PT3886</name></trkpt>
<trkpt lat="53.189473" lon="-1.743456"><ele>205</ele><time>2020-01-31T11:16:43Z</time><name>PT3887</name></trkpt>
<trkpt lat="53.189483" lon="-1.743466"><ele>205</ele><time>2020-01-31T11:16:45Z</time><name>PT3888</name></trkpt>
<trkpt lat="53.189491" lon="-1.743473"><ele>205</ele><time>2020-01-31T11:16:45Z</time><name>PT3889</name></trkpt>
<trkpt lat="53.189499" lon="-1.743478"><ele>204</ele><time>2020-01-31T11:16:46Z</time><name>PT3890</name></trkpt>
<trkpt lat="53.189505" lon="-1.743487"><ele>204</ele><time>2020-01-31T11:16:48Z</time><name>PT3891</name></trkpt>
<trkpt lat="53.189512" lon="-1.743488"><ele>204</ele><time>2020-01-31T11:16:48Z</time><name>PT3892</name></trkpt>
<trkpt lat="53.189517" lon="-1.743493"><ele>205</ele><time>2020-01-31T11:16:49Z</time><name>PT3893</name></trkpt>
<trkpt lat="53.189513" lon="-1.743505"><ele>205</ele><time>2020-01-31T11:16:51Z</time><name>PT3894</name></trkpt>
<trkpt lat="53.189518" lon="-1.743512"><ele>205</ele><time>2020-01-31T11:16:51Z</time><name>PT3895</name></trkpt>
<trkpt lat="53.189525" lon="-1.743524"><ele>205</ele><time>2020-01-31T11:16:52Z</time><name>PT3896</name></trkpt>
<trkpt lat="53.189532" lon="-1.743534"><ele>204</ele><time>2020-01-31T11:16:54Z</time><name>PT3897</name></trkpt>
<trkpt lat="53.189537" lon="-1.743545"><ele>204</ele><time>2020-01-31T11:16:54Z</time><name>PT3898</name></trkpt>
<trkpt lat="53.189540" lon="-1.743558"><ele>203</ele><time>2020-01-31T11:16:55Z</time><name>PT3899</name></trkpt>
<trkpt lat="53.189547" lon="-1.743565"><ele>203</ele><time>2020-01-31T11:16:57Z</time><name>PT3900</name></trkpt>
<trkpt lat="53.189553" lon="-1.743569"><ele>203</ele><time>2020-01-31T11:16:57Z</time><name>PT3901</name></trkpt>
<trkpt lat="53.189559" lon="-1.743573"><ele>203</ele><time>2020-01-31T11:16:58Z</time><name>PT3902</name></trkpt>
<trkpt lat="53.189561" lon="-1.743584"><ele>202</ele><time>2020-01-31T11:17:00Z</time><name>PT3903</name></trkpt>
<trkpt lat="53.189571" lon="-1.743598"><ele>203</ele><time>2020-01-31T11:17:00Z</time><name>PT3904</name></trkpt>
<trkpt lat="53.189578" lon="-1.743606"><ele>203</ele><time>2020-01-31T11:17:01Z</time><name>PT3905</name></trkpt>
<trkpt lat="53.189582" lon="-1.743621"><ele>203</ele><time>2020-01-31T11:17:03Z</time><name>PT3906</name></trkpt>
<trkpt lat="53.189588" lon="-1.743630"><ele>203</ele><time>2020-01-31T11:17:03Z</time><name>PT3907</name></trkpt>
<trkpt lat="53.189597" lon="-1.743640"><ele>203</ele><time>2020-01-31T11:17:04Z</time><name>PT3908</name></trkpt>
<trkpt lat="53.189603" lon="-1.743651"><ele>203</ele><time>2020-01-31T11:17:06Z</time><name>PT3909</name></trkpt>
<trkpt lat="53.189606" lon="-1.743669"><ele>204</ele><time>2020-01-31T11:17:06Z</time><name>PT3910</name></trkpt>
<trkpt lat="53.189615" lon="-1.743680"><ele>204</ele><time>2020-01-31T11:17:07Z</time><name>PT3911</name></trkpt>
<trkpt lat="53.189619" lon="-1.743689"><ele>204</ele><time>2020-01-31T11:17:09Z</time><name>PT3912</name></trkpt>
<trkpt lat="53.189624" lon="-1.743686"><ele>203</ele><time>2020-01-31T11:17:09Z</time><name>PT3913</name></trkpt>
<trkpt lat="53.189644" lon="-1.743686"><ele>205</ele><time>2020-01-31T11:17:10Z</time><name>PT3914</name></trkpt>
<trkpt lat="53.189652" lon="-1.743695"><ele>206</ele><time>2020-01-31T11:17:12Z</time><name>PT3915</name></trkpt>
<trkpt lat="53.189652" lon="-1.743703"><ele>206</ele><time>2020-01-31T11:17:12Z</time><name>PT3916</name></trkpt>
<trkpt lat="53.189656" lon="-1.743713"><ele>206</ele><time>2020-01-31T11:17:13Z</time><name>PT3917</name></trkpt>
<trkpt lat="53.189660" lon="-1.743721"><ele>205</ele><time>2020-01-31T11:17:15Z</time><name>PT3918</name></trkpt>
<trkpt lat="53.189664" lon="-1.743729"><ele>206</ele><time>2020-01-31T11:17:15Z</time><name>PT3919</name></trkpt>
<trkpt lat="53.189667" lon="-1.743741"><ele>206</ele><time>2020-01-31T11:17:16Z</time><name>PT3920</name></trkpt>
<trkpt lat="53.189674" lon="-1.743751"><ele>205</ele><time>2020-01-31T11:17:18Z</time><name>PT3921</name></trkpt>
<trkpt lat="53.189685" lon="-1.743761"><ele>205</ele><time>2020-01-31T11:17:18Z</time><name>PT3922</name></trkpt>
<trkpt lat="53.189692" lon="-1.743770"><ele>205</ele><time>2020-01-31T11:17:19Z</time><name>PT3923</name></trkpt>
<trkpt lat="53.189695" lon="-1.743780"><ele>204</ele><time>2020-01-31T11:17:21Z</time><name>PT3924</name></trkpt>
<trkpt lat="53.189701" lon="-1.743785"><ele>203</ele><time>2020-01-31T11:17:21Z</time><name>PT3925</name></trkpt>
<trkpt lat="53.189705" lon="-1.743799"><ele>202</ele><time>2020-01-31T11:17:22Z</time><name>PT3926</name></trkpt>
<trkpt lat="53.189708" lon="-1.743809"><ele>202</ele><time>2020-01-31T11:17:24Z</time><name>PT3927</name></trkpt>
<trkpt lat="53.189711" lon="-1.743813"><ele>201</ele><time>2020-01-31T11:17:24Z</time><name>PT3928</name></trkpt>
<trkpt lat="53.189713" lon="-1.743817"><ele>201</ele><time>2020-01-31T11:17:25Z</time><name>PT3929</name></trkpt>
<trkpt lat="53.189714" lon="-1.743822"><ele>201</ele><time>2020-01-31T11:17:27Z</time><name>PT3930</name></trkpt>
<trkpt lat="53.189714" lon="-1.743828"><ele>201</ele><time>2020-01-31T11:17:27Z</time><name>PT3931</name></trkpt>
<trkpt lat="53.189710" lon="-1.743834"><ele>201</ele><time>2020-01-31T11:17:31Z</time><name>PT3932</name></trkpt>
<trkpt lat="53.189710" lon="-1.743850"><ele>201</ele><time>2020-01-31T11:17:33Z</time><name>PT3933</name></trkpt>
<trkpt lat="53.189713" lon="-1.743868"><ele>201</ele><time>2020-01-31T11:17:33Z</time><name>PT3934</name></trkpt>
<trkpt lat="53.189713" lon="-1.743880"><ele>201</ele><time>2020-01-31T11:17:34Z</time><name>PT3935</name></trkpt>
<trkpt lat="53.189716" lon="-1.743895"><ele>201</ele><time>2020-01-31T11:17:36Z</time><name>PT3936</name></trkpt>
<trkpt lat="53.189727" lon="-1.743908"><ele>201</ele><time>2020-01-31T11:17:36Z</time><name>PT3937</name></trkpt>
<trkpt lat="53.189732" lon="-1.743942"><ele>202</ele><time>2020-01-31T11:17:37Z</time><name>PT3938</name></trkpt>
<trkpt lat="53.189734" lon="-1.743959"><ele>202</ele><time>2020-01-31T11:17:39Z</time><name>PT3939</name></trkpt>
<trkpt lat="53.189736" lon="-1.743978"><ele>202</ele><time>2020-01-31T11:17:39Z</time><name>PT3940</name></trkpt>
<trkpt lat="53.189740" lon="-1.744002"><ele>201</ele><time>2020-01-31T11:17:40Z</time><name>PT3941</name></trkpt>
<trkpt lat="53.189742" lon="-1.744019"><ele>201</ele><time>2020-01-31T11:17:42Z</time><name>PT3942</name></trkpt>
<trkpt lat="53.189741" lon="-1.744039"><ele>201</ele><time>2020-01-31T11:17:42Z</time><name>PT3943</name></trkpt>
<trkpt lat="53.189741" lon="-1.744060"><ele>201</ele><time>2020-01-31T11:17:43Z</time><name>PT3944</name></trkpt>
<trkpt lat="53.189746" lon="-1.744080"><ele>201</ele><time>2020-01-31T11:17:45Z</time><name>PT3945</name></trkpt>
<trkpt lat="53.189748" lon="-1.744097"><ele>201</ele><time>2020-01-31T11:17:45Z</time><name>PT3946</name></trkpt>
<trkpt lat="53.189752" lon="-1.744108"><ele>201</ele><time>2020-01-31T11:17:47Z</time><name>PT3947</name></trkpt>
<trkpt lat="53.189756" lon="-1.744121"><ele>202</ele><time>2020-01-31T11:17:48Z</time><name>PT3948</name></trkpt>
<trkpt lat="53.189757" lon="-1.744131"><ele>202</ele><time>2020-01-31T11:17:48Z</time><name>PT3949</name></trkpt>
<trkpt lat="53.189760" lon="-1.744144"><ele>202</ele><time>2020-01-31T11:17:50Z</time><name>PT3950</name></trkpt>
<trkpt lat="53.189762" lon="-1.744159"><ele>202</ele><time>2020-01-31T11:17:51Z</time><name>PT3951</name></trkpt>
<trkpt lat="53.189765" lon="-1.744175"><ele>202</ele><time>2020-01-31T11:17:51Z</time><name>PT3952</name></trkpt>
<trkpt lat="53.189764" lon="-1.744195"><ele>203</ele><time>2020-01-31T11:17:52Z</time><name>PT3953</name></trkpt>
<trkpt lat="53.189764" lon="-1.744210"><ele>204</ele><time>2020-01-31T11:17:54Z</time><name>PT3954</name></trkpt>
<trkpt lat="53.189769" lon="-1.744216"><ele>204</ele><time>2020-01-31T11:17:54Z</time><name>PT3955</name></trkpt>
<trkpt lat="53.189771" lon="-1.744227"><ele>205</ele><time>2020-01-31T11:17:55Z</time><name>PT3956</name></trkpt>
<trkpt lat="53.189771" lon="-1.744244"><ele>205</ele><time>2020-01-31T11:17:57Z</time><name>PT3957</name></trkpt>
<trkpt lat="53.189772" lon="-1.744262"><ele>205</ele><time>2020-01-31T11:17:57Z</time><name>PT3958</name></trkpt>
<trkpt lat="53.189775" lon="-1.744280"><ele>206</ele><time>2020-01-31T11:17:58Z</time><name>PT3959</name></trkpt>
<trkpt lat="53.189775" lon="-1.744298"><ele>205</ele><time>2020-01-31T11:18:00Z</time><name>PT3960</name></trkpt>
<trkpt lat="53.189775" lon="-1.744313"><ele>206</ele><time>2020-01-31T11:18:00Z</time><name>PT3961</name></trkpt>
<trkpt lat="53.189772" lon="-1.744330"><ele>206</ele><time>2020-01-31T11:18:01Z</time><name>PT3962</name></trkpt>
<trkpt lat="53.189771" lon="-1.744346"><ele>206</ele><time>2020-01-31T11:18:03Z</time><name>PT3963</name></trkpt>
<trkpt lat="53.189772" lon="-1.744363"><ele>206</ele><time>2020-01-31T11:18:03Z</time><name>PT3964</name></trkpt>
<trkpt lat="53.189776" lon="-1.744378"><ele>205</ele><time>2020-01-31T11:18:04Z</time><name>PT3965</name></trkpt>
<trkpt lat="53.189779" lon="-1.744394"><ele>205</ele><time>2020-01-31T11:18:06Z</time><name>PT3966</name></trkpt>
<trkpt lat="53.189789" lon="-1.744409"><ele>206</ele><time>2020-01-31T11:18:06Z</time><name>PT3967</name></trkpt>
<trkpt lat="53.189788" lon="-1.744423"><ele>205</ele><time>2020-01-31T11:18:07Z</time><name>PT3968</name></trkpt>
<trkpt lat="53.189791" lon="-1.744430"><ele>205</ele><time>2020-01-31T11:18:09Z</time><name>PT3969</name></trkpt>
<trkpt lat="53.189794" lon="-1.744447"><ele>205</ele><time>2020-01-31T11:18:09Z</time><name>PT3970</name></trkpt>
<trkpt lat="53.189796" lon="-1.744464"><ele>205</ele><time>2020-01-31T11:18:10Z</time><name>PT3971</name></trkpt>
<trkpt lat="53.189798" lon="-1.744481"><ele>205</ele><time>2020-01-31T11:18:12Z</time><name>PT3972</name></trkpt>
<trkpt lat="53.189800" lon="-1.744495"><ele>205</ele><time>2020-01-31T11:18:12Z</time><name>PT3973</name></trkpt>
<trkpt lat="53.189801" lon="-1.744505"><ele>205</ele><time>2020-01-31T11:18:13Z</time><name>PT3974</name></trkpt>
<trkpt lat="53.189802" lon="-1.744520"><ele>205</ele><time>2020-01-31T11:18:15Z</time><name>PT3975</name></trkpt>
<trkpt lat="53.189806" lon="-1.744537"><ele>206</ele><time>2020-01-31T11:18:15Z</time><name>PT3976</name></trkpt>
<trkpt lat="53.189812" lon="-1.744546"><ele>206</ele><time>2020-01-31T11:18:17Z</time><name>PT3977</name></trkpt>
<trkpt lat="53.189814" lon="-1.744558"><ele>206</ele><time>2020-01-31T11:18:18Z</time><name>PT3978</name></trkpt>
<trkpt lat="53.189815" lon="-1.744569"><ele>206</ele><time>2020-01-31T11:18:18Z</time><name>PT3979</name></trkpt>
<trkpt lat="53.189816" lon="-1.744577"><ele>206</ele><time>2020-01-31T11:18:19Z</time><name>PT3980</name></trkpt>
<trkpt lat="53.189817" lon="-1.744591"><ele>206</ele><time>2020-01-31T11:18:21Z</time><name>PT3981</name></trkpt>
<trkpt lat="53.189822" lon="-1.744601"><ele>206</ele><time>2020-01-31T11:18:21Z</time><name>PT3982</name></trkpt>
<trkpt lat="53.189827" lon="-1.744610"><ele>206</ele><time>2020-01-31T11:18:23Z</time><name>PT3983</name></trkpt>
<trkpt lat="53.189831" lon="-1.744619"><ele>206</ele><time>2020-01-31T11:18:24Z</time><name>PT3984</name></trkpt>
<trkpt lat="53.189836" lon="-1.744633"><ele>206</ele><time>2020-01-31T11:18:24Z</time><name>PT3985</name></trkpt>
<trkpt lat="53.189842" lon="-1.744643"><ele>205</ele><time>2020-01-31T11:18:25Z</time><name>PT3986</name></trkpt>
<trkpt lat="53.189846" lon="-1.744658"><ele>205</ele><time>2020-01-31T11:18:27Z</time><name>PT3987</name></trkpt>
<trkpt lat="53.189850" lon="-1.744671"><ele>205</ele><time>2020-01-31T11:18:27Z</time><name>PT3988</name></trkpt>
<trkpt lat="53.189853" lon="-1.744684"><ele>205</ele><time>2020-01-31T11:18:28Z</time><name>PT3989</name></trkpt>
<trkpt lat="53.189857" lon="-1.744697"><ele>205</ele><time>2020-01-31T11:18:30Z</time><name>PT3990</name></trkpt>
<trkpt lat="53.189861" lon="-1.744715"><ele>205</ele><time>2020-01-31T11:18:30Z</time><name>PT3991</name></trkpt>
<trkpt lat="53.189861" lon="-1.744727"><ele>204</ele><time>2020-01-31T11:18:31Z</time><name>PT3992</name></trkpt>
<trkpt lat="53.189862" lon="-1.744743"><ele>203</ele><time>2020-01-31T11:18:33Z</time><name>PT3993</name></trkpt>
<trkpt lat="53.189866" lon="-1.744760"><ele>203</ele><time>2020-01-31T11:18:33Z</time><name>PT3994</name></trkpt>
<trkpt lat="53.189870" lon="-1.744770"><ele>203</ele><time>2020-01-31T11:18:34Z</time><name>PT3995</name></trkpt>
<trkpt lat="53.189874" lon="-1.744779"><ele>202</ele><time>2020-01-31T11:18:36Z</time><name>PT3996</name></trkpt>
<trkpt lat="53.189880" lon="-1.744797"><ele>202</ele><time>2020-01-31T11:18:36Z</time><name>PT3997</name></trkpt>
<trkpt lat="53.189884" lon="-1.744810"><ele>202</ele><time>2020-01-31T11:18:37Z</time><name>PT3998</name></trkpt>
<trkpt lat="53.189891" lon="-1.744828"><ele>202</ele><time>2020-01-31T11:18:39Z</time><name>PT3999</name></trkpt>
<trkpt lat="53.189901" lon="-1.744839"><ele>201</ele><time>2020-01-31T11:18:39Z</time><name>PT4000</name></trkpt>
<trkpt lat="53.189905" lon="-1.744857"><ele>202</ele><time>2020-01-31T11:18:40Z</time><name>PT4001</name></trkpt>
<trkpt lat="53.189904" lon="-1.744870"><ele>202</ele><time>2020-01-31T11:18:42Z</time><name>PT4002</name></trkpt>
<trkpt lat="53.189906" lon="-1.744882"><ele>203</ele><time>2020-01-31T11:18:42Z</time><name>PT4003</name></trkpt>
<trkpt lat="53.189908" lon="-1.744892"><ele>202</ele><time>2020-01-31T11:18:43Z</time><name>PT4004</name></trkpt>
<trkpt lat="53.189913" lon="-1.744900"><ele>202</ele><time>2020-01-31T11:18:45Z</time><name>PT4005</name></trkpt>
<trkpt lat="53.189916" lon="-1.744915"><ele>203</ele><time>2020-01-31T11:18:45Z</time><name>PT4006</name></trkpt>
<trkpt lat="53.189919" lon="-1.744924"><ele>204</ele><time>2020-01-31T11:18:46Z</time><name>PT4007</name></trkpt>
<trkpt lat="53.189923" lon="-1.744939"><ele>204</ele><time>2020-01-31T11:18:48Z</time><name>PT4008</name></trkpt>
<trkpt lat="53.189926" lon="-1.744954"><ele>204</ele><time>2020-01-31T11:18:48Z</time><name>PT4009</name></trkpt>
<trkpt lat="53.189931" lon="-1.744963"><ele>205</ele><time>2020-01-31T11:18:49Z</time><name>PT4010</name></trkpt>
<trkpt lat="53.189933" lon="-1.744976"><ele>205</ele><time>2020-01-31T11:18:51Z</time><name>PT4011</name></trkpt>
<trkpt lat="53.189934" lon="-1.744991"><ele>205</ele><time>2020-01-31T11:18:51Z</time><name>PT4012</name></trkpt>
<trkpt lat="53.189935" lon="-1.745005"><ele>205</ele><time>2020-01-31T11:18:52Z</time><name>PT4013</name></trkpt>
<trkpt lat="53.189935" lon="-1.745013"><ele>206</ele><time>2020-01-31T11:18:54Z</time><name>PT4014</name></trkpt>
<trkpt lat="53.189937" lon="-1.745019"><ele>206</ele><time>2020-01-31T11:18:54Z</time><name>PT4015</name></trkpt>
<trkpt lat="53.189939" lon="-1.745028"><ele>207</ele><time>2020-01-31T11:18:55Z</time><name>PT4016</name></trkpt>
<trkpt lat="53.189937" lon="-1.745044"><ele>207</ele><time>2020-01-31T11:18:57Z</time><name>PT4017</name></trkpt>
<trkpt lat="53.189936" lon="-1.745057"><ele>207</ele><time>2020-01-31T11:18:57Z</time><name>PT4018</name></trkpt>
<trkpt lat="53.189935" lon="-1.745071"><ele>207</ele><time>2020-01-31T11:18:58Z</time><name>PT4019</name></trkpt>
<trkpt lat="53.189935" lon="-1.745085"><ele>208</ele><time>2020-01-31T11:19:00Z</time><name>PT4020</name></trkpt>
<trkpt lat="53.189935" lon="-1.745098"><ele>207</ele><time>2020-01-31T11:19:00Z</time><name>PT4021</name></trkpt>
<trkpt lat="53.189938" lon="-1.745110"><ele>207</ele><time>2020-01-31T11:19:01Z</time><name>PT4022</name></trkpt>
<trkpt lat="53.189939" lon="-1.745127"><ele>207</ele><time>2020-01-31T11:19:03Z</time><name>PT4023</name></trkpt>
<trkpt lat="53.189939" lon="-1.745143"><ele>207</ele><time>2020-01-31T11:19:03Z</time><name>PT4024</name></trkpt>
<trkpt lat="53.189943" lon="-1.745166"><ele>206</ele><time>2020-01-31T11:19:04Z</time><name>PT4025</name></trkpt>
<trkpt lat="53.189943" lon="-1.745180"><ele>205</ele><time>2020-01-31T11:19:06Z</time><name>PT4026</name></trkpt>
<trkpt lat="53.189944" lon="-1.745194"><ele>204</ele><time>2020-01-31T11:19:06Z</time><name>PT4027</name></trkpt>
<trkpt lat="53.189945" lon="-1.745204"><ele>204</ele><time>2020-01-31T11:19:07Z</time><name>PT4028</name></trkpt>
<trkpt lat="53.189945" lon="-1.745219"><ele>205</ele><time>2020-01-31T11:19:09Z</time><name>PT4029</name></trkpt>
<trkpt lat="53.189945" lon="-1.745230"><ele>205</ele><time>2020-01-31T11:19:09Z</time><name>PT4030</name></trkpt>
<trkpt lat="53.189946" lon="-1.745243"><ele>204</ele><time>2020-01-31T11:19:10Z</time><name>PT4031</name></trkpt>
<trkpt lat="53.189946" lon="-1.745255"><ele>205</ele><time>2020-01-31T11:19:12Z</time><name>PT4032</name></trkpt>
<trkpt lat="53.189945" lon="-1.745265"><ele>206</ele><time>2020-01-31T11:19:12Z</time><name>PT4033</name></trkpt>
<trkpt lat="53.189946" lon="-1.745278"><ele>207</ele><time>2020-01-31T11:19:13Z</time><name>PT4034</name></trkpt>
<trkpt lat="53.189950" lon="-1.745297"><ele>207</ele><time>2020-01-31T11:19:15Z</time><name>PT4035</name></trkpt>
<trkpt lat="53.189949" lon="-1.745316"><ele>206</ele><time>2020-01-31T11:19:15Z</time><name>PT4036</name></trkpt>
<trkpt lat="53.189949" lon="-1.745332"><ele>206</ele><time>2020-01-31T11:19:16Z</time><name>PT4037</name></trkpt>
<trkpt lat="53.189952" lon="-1.745340"><ele>207</ele><time>2020-01-31T11:19:18Z</time><name>PT4038</name></trkpt>
<trkpt lat="53.189956" lon="-1.745347"><ele>207</ele><time>2020-01-31T11:19:18Z</time><name>PT4039</name></trkpt>
<trkpt lat="53.189960" lon="-1.745351"><ele>208</ele><time>2020-01-31T11:19:19Z</time><name>PT4040</name></trkpt>
<trkpt lat="53.189959" lon="-1.745355"><ele>209</ele><time>2020-01-31T11:19:21Z</time><name>PT4041</name></trkpt>
<trkpt lat="53.189959" lon="-1.745363"><ele>210</ele><time>2020-01-31T11:19:21Z</time><name>PT4042</name></trkpt>
<trkpt lat="53.189958" lon="-1.745370"><ele>212</ele><time>2020-01-31T11:19:22Z</time><name>PT4043</name></trkpt>
<trkpt lat="53.189960" lon="-1.745379"><ele>212</ele><time>2020-01-31T11:19:24Z</time><name>PT4044</name></trkpt>
<trkpt lat="53.189961" lon="-1.745389"><ele>212</ele><time>2020-01-31T11:19:24Z</time><name>PT4045</name></trkpt>
<trkpt lat="53.189966" lon="-1.745407"><ele>213</ele><time>2020-01-31T11:19:25Z</time><name>PT4046</name></trkpt>
<trkpt lat="53.189965" lon="-1.745427"><ele>212</ele><time>2020-01-31T11:19:27Z</time><name>PT4047</name></trkpt>
<trkpt lat="53.189966" lon="-1.745435"><ele>212</ele><time>2020-01-31T11:19:27Z</time><name>PT4048</name></trkpt>
<trkpt lat="53.189973" lon="-1.745445"><ele>211</ele><time>2020-01-31T11:19:28Z</time><name>PT4049</name></trkpt>
<trkpt lat="53.189978" lon="-1.745451"><ele>212</ele><time>2020-01-31T11:19:30Z</time><name>PT4050</name></trkpt>
<trkpt lat="53.189990" lon="-1.745450"><ele>210</ele><time>2020-01-31T11:19:30Z</time><name>PT4051</name></trkpt>
<trkpt lat="53.189993" lon="-1.745457"><ele>210</ele><time>2020-01-31T11:19:31Z</time><name>PT4052</name></trkpt>
<trkpt lat="53.189993" lon="-1.745470"><ele>209</ele><time>2020-01-31T11:19:33Z</time><name>PT4053</name></trkpt>
<trkpt lat="53.189995" lon="-1.745476"><ele>209</ele><time>2020-01-31T11:19:33Z</time><name>PT4054</name></trkpt>
<trkpt lat="53.189996" lon="-1.745483"><ele>209</ele><time>2020-01-31T11:19:34Z</time><name>PT4055</name></trkpt>
<trkpt lat="53.189997" lon="-1.745492"><ele>210</ele><time>2020-01-31T11:19:36Z</time><name>PT4056</name></trkpt>
<trkpt lat="53.189998" lon="-1.745504"><ele>210</ele><time>2020-01-31T11:19:36Z</time><name>PT4057</name></trkpt>
<trkpt lat="53.190000" lon="-1.745515"><ele>209</ele><time>2020-01-31T11:19:37Z</time><name>PT4058</name></trkpt>
<trkpt lat="53.190000" lon="-1.745524"><ele>209</ele><time>2020-01-31T11:19:39Z</time><name>PT4059</name></trkpt>
<trkpt lat="53.190002" lon="-1.745529"><ele>208</ele><time>2020-01-31T11:19:39Z</time><name>PT4060</name></trkpt>
<trkpt lat="53.190002" lon="-1.745536"><ele>209</ele><time>2020-01-31T11:19:40Z</time><name>PT4061</name></trkpt>
<trkpt lat="53.190007" lon="-1.745549"><ele>208</ele><time>2020-01-31T11:19:42Z</time><name>PT4062</name></trkpt>
<trkpt lat="53.190007" lon="-1.745560"><ele>209</ele><time>2020-01-31T11:19:42Z</time><name>PT4063</name></trkpt>
<trkpt lat="53.190005" lon="-1.745568"><ele>209</ele><time>2020-01-31T11:19:43Z</time><name>PT4064</name></trkpt>
<trkpt lat="53.190004" lon="-1.745577"><ele>210</ele><time>2020-01-31T11:19:45Z</time><name>PT4065</name></trkpt>
<trkpt lat="53.190002" lon="-1.745586"><ele>210</ele><time>2020-01-31T11:19:45Z</time><name>PT4066</name></trkpt>
<trkpt lat="53.190003" lon="-1.745596"><ele>210</ele><time>2020-01-31T11:19:46Z</time><name>PT4067</name></trkpt>
<trkpt lat="53.190000" lon="-1.745605"><ele>210</ele><time>2020-01-31T11:19:48Z</time><name>PT4068</name></trkpt>
<trkpt lat="53.189998" lon="-1.745614"><ele>210</ele><time>2020-01-31T11:19:48Z</time><name>PT4069</name></trkpt>
<trkpt lat="53.189995" lon="-1.745625"><ele>209</ele><time>2020-01-31T11:19:49Z</time><name>PT4070</name></trkpt>
<trkpt lat="53.189993" lon="-1.745636"><ele>208</ele><time>2020-01-31T11:19:51Z</time><name>PT4071</name></trkpt>
<trkpt lat="53.189996" lon="-1.745644"><ele>207</ele><time>2020-01-31T11:19:51Z</time><name>PT4072</name></trkpt>
<trkpt lat="53.189993" lon="-1.745648"><ele>206</ele><time>2020-01-31T11:19:52Z</time><name>PT4073</name></trkpt>
<trkpt lat="53.189996" lon="-1.745658"><ele>206</ele><time>2020-01-31T11:19:54Z</time><name>PT4074</name></trkpt>
<trkpt lat="53.189995" lon="-1.745675"><ele>207</ele><time>2020-01-31T11:19:54Z</time><name>PT4075</name></trkpt>
<trkpt lat="53.189993" lon="-1.745687"><ele>208</ele><time>2020-01-31T11:19:55Z</time><name>PT4076</name></trkpt>
<trkpt lat="53.189992" lon="-1.745696"><ele>208</ele><time>2020-01-31T11:19:57Z</time><name>PT4077</name></trkpt>
<trkpt lat="53.189993" lon="-1.745708"><ele>206</ele><time>2020-01-31T11:19:57Z</time><name>PT4078</name></trkpt>
<trkpt lat="53.189996" lon="-1.745714"><ele>207</ele><time>2020-01-31T11:19:58Z</time><name>PT4079</name></trkpt>
<trkpt lat="53.189995" lon="-1.745721"><ele>206</ele><time>2020-01-31T11:20:00Z</time><name>PT4080</name></trkpt>
<trkpt lat="53.189995" lon="-1.745727"><ele>206</ele><time>2020-01-31T11:20:00Z</time><name>PT4081</name></trkpt>
<trkpt lat="53.189994" lon="-1.745729"><ele>206</ele><time>2020-01-31T11:20:01Z</time><name>PT4082</name></trkpt>
<trkpt lat="53.189993" lon="-1.745730"><ele>206</ele><time>2020-01-31T11:20:03Z</time><name>PT4083</name></trkpt>
<trkpt lat="53.189992" lon="-1.745732"><ele>207</ele><time>2020-01-31T11:20:03Z</time><name>PT4084</name></trkpt>
<trkpt lat="53.189995" lon="-1.745738"><ele>206</ele><time>2020-01-31T11:20:04Z</time><name>PT4085</name></trkpt>
<trkpt lat="53.189996" lon="-1.745748"><ele>205</ele><time>2020-01-31T11:20:06Z</time><name>PT4086</name></trkpt>
<trkpt lat="53.189998" lon="-1.745753"><ele>206</ele><time>2020-01-31T11:20:06Z</time><name>PT4087</name></trkpt>
<trkpt lat="53.190006" lon="-1.745774"><ele>205</ele><time>2020-01-31T11:20:10Z</time><name>PT4088</name></trkpt>
<trkpt lat="53.190010" lon="-1.745799"><ele>205</ele><time>2020-01-31T11:20:12Z</time><name>PT4089</name></trkpt>
<trkpt lat="53.190011" lon="-1.745817"><ele>205</ele><time>2020-01-31T11:20:12Z</time><name>PT4090</name></trkpt>
<trkpt lat="53.190010" lon="-1.745837"><ele>204</ele><time>2020-01-31T11:20:13Z</time><name>PT4091</name></trkpt>
<trkpt lat="53.190015" lon="-1.745865"><ele>204</ele><time>2020-01-31T11:20:15Z</time><name>PT4092</name></trkpt>
<trkpt lat="53.190015" lon="-1.745892"><ele>207</ele><time>2020-01-31T11:20:15Z</time><name>PT4093</name></trkpt>
<trkpt lat="53.190016" lon="-1.745910"><ele>207</ele><time>2020-01-31T11:20:16Z</time><name>PT4094</name></trkpt>
<trkpt lat="53.190007" lon="-1.745931"><ele>207</ele><time>2020-01-31T11:20:18Z</time><name>PT4095</name></trkpt>
<trkpt lat="53.190001" lon="-1.745948"><ele>208</ele><time>2020-01-31T11:20:18Z</time><name>PT4096</name></trkpt>
<trkpt lat="53.189998" lon="-1.745964"><ele>208</ele><time>2020-01-31T11:20:19Z</time><name>PT4097</name></trkpt>
<trkpt lat="53.189997" lon="-1.745978"><ele>209</ele><time>2020-01-31T11:20:21Z</time><name>PT4098</name></trkpt>
<trkpt lat="53.189993" lon="-1.745982"><ele>209</ele><time>2020-01-31T11:20:21Z</time><name>PT4099</name></trkpt>
<trkpt lat="53.189983" lon="-1.745987"><ele>209</ele><time>2020-01-31T11:20:22Z</time><name>PT4100</name></trkpt>
<trkpt lat="53.189972" lon="-1.745990"><ele>209</ele><time>2020-01-31T11:20:24Z</time><name>PT4101</name></trkpt>
<trkpt lat="53.189977" lon="-1.745999"><ele>208</ele><time>2020-01-31T11:20:24Z</time><name>PT4102</name></trkpt>
<trkpt lat="53.189971" lon="-1.746009"><ele>207</ele><time>2020-01-31T11:20:25Z</time><name>PT4103</name></trkpt>
<trkpt lat="53.189965" lon="-1.746017"><ele>206</ele><time>2020-01-31T11:20:27Z</time><name>PT4104</name></trkpt>
<trkpt lat="53.189961" lon="-1.746020"><ele>205</ele><time>2020-01-31T11:20:27Z</time><name>PT4105</name></trkpt>
<trkpt lat="53.189958" lon="-1.746023"><ele>205</ele><time>2020-01-31T11:20:28Z</time><name>PT4106</name></trkpt>
<trkpt lat="53.189953" lon="-1.746020"><ele>204</ele><time>2020-01-31T11:20:30Z</time><name>PT4107</name></trkpt>
<trkpt lat="53.189948" lon="-1.746018"><ele>204</ele><time>2020-01-31T11:20:30Z</time><name>PT4108</name></trkpt>
<trkpt lat="53.189945" lon="-1.746013"><ele>204</ele><time>2020-01-31T11:20:31Z</time><name>PT4109</name></trkpt>
<trkpt lat="53.189943" lon="-1.746011"><ele>203</ele><time>2020-01-31T11:20:33Z</time><name>PT4110</name></trkpt>
<trkpt lat="53.189938" lon="-1.746006"><ele>205</ele><time>2020-01-31T11:20:33Z</time><name>PT4111</name></trkpt>
<trkpt lat="53.189937" lon="-1.745985"><ele>208</ele><time>2020-01-31T11:20:34Z</time><name>PT4112</name></trkpt>
<trkpt lat="53.189935" lon="-1.745981"><ele>207</ele><time>2020-01-31T11:20:36Z</time><name>PT4113</name></trkpt>
<trkpt lat="53.189932" lon="-1.745982"><ele>208</ele><time>2020-01-31T11:20:36Z</time><name>PT4114</name></trkpt>
<trkpt lat="53.189934" lon="-1.745986"><ele>207</ele><time>2020-01-31T11:20:37Z</time><name>PT4115</name></trkpt>
<trkpt lat="53.189930" lon="-1.745987"><ele>206</ele><time>2020-01-31T11:20:39Z</time><name>PT4116</name></trkpt>
<trkpt lat="53.189924" lon="-1.745986"><ele>207</ele><time>2020-01-31T11:20:39Z</time><name>PT4117</name></trkpt>
<trkpt lat="53.189919" lon="-1.745978"><ele>209</ele><time>2020-01-31T11:20:41Z</time><name>PT4118</name></trkpt>
<trkpt lat="53.189917" lon="-1.745973"><ele>209</ele><time>2020-01-31T11:20:42Z</time><name>PT4119</name></trkpt>
<trkpt lat="53.189916" lon="-1.745970"><ele>209</ele><time>2020-01-31T11:20:42Z</time><name>PT4120</name></trkpt>
<trkpt lat="53.189915" lon="-1.745965"><ele>209</ele><time>2020-01-31T11:20:43Z</time><name>PT4121</name></trkpt>
<trkpt lat="53.189917" lon="-1.745972"><ele>209</ele><time>2020-01-31T11:20:58Z</time><name>PT4122</name></trkpt>
<trkpt lat="53.189921" lon="-1.745952"><ele>209</ele><time>2020-01-31T11:21:00Z</time><name>PT4123</name></trkpt>
<trkpt lat="53.189918" lon="-1.745951"><ele>209</ele><time>2020-01-31T11:21:00Z</time><name>PT4124</name></trkpt>
<trkpt lat="53.189918" lon="-1.745961"><ele>209</ele><time>2020-01-31T11:21:01Z</time><name>PT4125</name></trkpt>
<trkpt lat="53.189916" lon="-1.745966"><ele>209</ele><time>2020-01-31T11:21:03Z</time><name>PT4126</name></trkpt>
<trkpt lat="53.189909" lon="-1.745963"><ele>209</ele><time>2020-01-31T11:21:03Z</time><name>PT4127</name></trkpt>
<trkpt lat="53.189899" lon="-1.745951"><ele>209</ele><time>2020-01-31T11:21:04Z</time><name>PT4128</name></trkpt>
<trkpt lat="53.189895" lon="-1.745950"><ele>209</ele><time>2020-01-31T11:21:06Z</time><name>PT4129</name></trkpt>
<trkpt lat="53.189889" lon="-1.745952"><ele>210</ele><time>2020-01-31T11:21:06Z</time><name>PT4130</name></trkpt>
<trkpt lat="53.189892" lon="-1.745948"><ele>210</ele><time>2020-01-31T11:21:07Z</time><name>PT4131</name></trkpt>
<trkpt lat="53.189889" lon="-1.745945"><ele>211</ele><time>2020-01-31T11:21:09Z</time><name>PT4132</name></trkpt>
<trkpt lat="53.189889" lon="-1.745947"><ele>211</ele><time>2020-01-31T11:21:09Z</time><name>PT4133</name></trkpt>
<trkpt lat="53.189887" lon="-1.745952"><ele>211</ele><time>2020-01-31T11:21:10Z</time><name>PT4134</name></trkpt>
<trkpt lat="53.189884" lon="-1.745956"><ele>211</ele><time>2020-01-31T11:21:12Z</time><name>PT4135</name></trkpt>
<trkpt lat="53.189883" lon="-1.745956"><ele>210</ele><time>2020-01-31T11:21:12Z</time><name>PT4136</name></trkpt>
<trkpt lat="53.189880" lon="-1.745955"><ele>211</ele><time>2020-01-31T11:21:13Z</time><name>PT4137</name></trkpt>
<trkpt lat="53.189874" lon="-1.745948"><ele>212</ele><time>2020-01-31T11:21:15Z</time><name>PT4138</name></trkpt>
<trkpt lat="53.189861" lon="-1.745968"><ele>214</ele><time>2020-01-31T11:21:15Z</time><name>PT4139</name></trkpt>
<trkpt lat="53.189860" lon="-1.745965"><ele>214</ele><time>2020-01-31T11:21:16Z</time><name>PT4140</name></trkpt>
<trkpt lat="53.189859" lon="-1.745961"><ele>214</ele><time>2020-01-31T11:21:18Z</time><name>PT4141</name></trkpt>
<trkpt lat="53.189853" lon="-1.745955"><ele>215</ele><time>2020-01-31T11:21:18Z</time><name>PT4142</name></trkpt>
<trkpt lat="53.189852" lon="-1.745955"><ele>215</ele><time>2020-01-31T11:21:19Z</time><name>PT4143</name></trkpt>
<trkpt lat="53.189853" lon="-1.745955"><ele>215</ele><time>2020-01-31T11:21:21Z</time><name>PT4144</name></trkpt>
<trkpt lat="53.189857" lon="-1.745962"><ele>214</ele><time>2020-01-31T11:21:21Z</time><name>PT4145</name></trkpt>
<trkpt lat="53.189859" lon="-1.745969"><ele>213</ele><time>2020-01-31T11:21:22Z</time><name>PT4146</name></trkpt>
<trkpt lat="53.189857" lon="-1.745972"><ele>212</ele><time>2020-01-31T11:21:24Z</time><name>PT4147</name></trkpt>
<trkpt lat="53.189856" lon="-1.745967"><ele>212</ele><time>2020-01-31T11:21:25Z</time><name>PT4148</name></trkpt>
<trkpt lat="53.189853" lon="-1.745968"><ele>212</ele><time>2020-01-31T11:21:27Z</time><name>PT4149</name></trkpt>
<trkpt lat="53.189851" lon="-1.745964"><ele>211</ele><time>2020-01-31T11:21:27Z</time><name>PT4150</name></trkpt>
<trkpt lat="53.189849" lon="-1.745968"><ele>210</ele><time>2020-01-31T11:21:28Z</time><name>PT4151</name></trkpt>
<trkpt lat="53.189842" lon="-1.745962"><ele>210</ele><time>2020-01-31T11:21:30Z</time><name>PT4152</name></trkpt>
<trkpt lat="53.189842" lon="-1.745957"><ele>210</ele><time>2020-01-31T11:21:30Z</time><name>PT4153</name></trkpt>
<trkpt lat="53.189832" lon="-1.745955"><ele>210</ele><time>2020-01-31T11:21:31Z</time><name>PT4154</name></trkpt>
<trkpt lat="53.189829" lon="-1.745952"><ele>210</ele><time>2020-01-31T11:21:36Z</time><name>PT4155</name></trkpt>
<trkpt lat="53.189829" lon="-1.745950"><ele>210</ele><time>2020-01-31T11:21:36Z</time><name>PT4156</name></trkpt>
<trkpt lat="53.189827" lon="-1.745956"><ele>211</ele><time>2020-01-31T11:21:37Z</time><name>PT4157</name></trkpt>
<trkpt lat="53.189826" lon="-1.745961"><ele>211</ele><time>2020-01-31T11:21:39Z</time><name>PT4158</name></trkpt>
<trkpt lat="53.189828" lon="-1.745958"><ele>211</ele><time>2020-01-31T11:21:39Z</time><name>PT4159</name></trkpt>
<trkpt lat="53.189828" lon="-1.745962"><ele>211</ele><time>2020-01-31T11:21:40Z</time><name>PT4160</name></trkpt>
<trkpt lat="53.189825" lon="-1.745969"><ele>211</ele><time>2020-01-31T11:21:42Z</time><name>PT4161</name></trkpt>
<trkpt lat="53.189827" lon="-1.745960"><ele>210</ele><time>2020-01-31T11:21:42Z</time><name>PT4162</name></trkpt>
<trkpt lat="53.189827" lon="-1.745957"><ele>209</ele><time>2020-01-31T11:21:43Z</time><name>PT4163</name></trkpt>
<trkpt lat="53.189829" lon="-1.745965"><ele>209</ele><time>2020-01-31T11:21:45Z</time><name>PT4164</name></trkpt>
<trkpt lat="53.189839" lon="-1.745987"><ele>209</ele><time>2020-01-31T11:21:45Z</time><name>PT4165</name></trkpt>
<trkpt lat="53.189838" lon="-1.745973"><ele>207</ele><time>2020-01-31T11:21:48Z</time><name>PT4166</name></trkpt>
<trkpt lat="53.189836" lon="-1.745971"><ele>207</ele><time>2020-01-31T11:21:48Z</time><name>PT4167</name></trkpt>
<trkpt lat="53.189832" lon="-1.745972"><ele>207</ele><time>2020-01-31T11:21:49Z</time><name>PT4168</name></trkpt>
<trkpt lat="53.189835" lon="-1.745976"><ele>207</ele><time>2020-01-31T11:21:51Z</time><name>PT4169</name></trkpt>
<trkpt lat="53.189827" lon="-1.745975"><ele>208</ele><time>2020-01-31T11:21:51Z</time><name>PT4170</name></trkpt>
<trkpt lat="53.189822" lon="-1.745977"><ele>207</ele><time>2020-01-31T11:21:52Z</time><name>PT4171</name></trkpt>
<trkpt lat="53.189815" lon="-1.745968"><ele>208</ele><time>2020-01-31T11:21:54Z</time><name>PT4172</name></trkpt>
<trkpt lat="53.189810" lon="-1.745963"><ele>206</ele><time>2020-01-31T11:21:54Z</time><name>PT4173</name></trkpt>
<trkpt lat="53.189798" lon="-1.745957"><ele>206</ele><time>2020-01-31T11:21:55Z</time><name>PT4174</name></trkpt>
<trkpt lat="53.189793" lon="-1.745951"><ele>206</ele><time>2020-01-31T11:21:57Z</time><name>PT4175</name></trkpt>
<trkpt lat="53.189793" lon="-1.745938"><ele>206</ele><time>2020-01-31T11:21:57Z</time><name>PT4176</name></trkpt>
<trkpt lat="53.189792" lon="-1.745935"><ele>206</ele><time>2020-01-31T11:21:58Z</time><name>PT4177</name></trkpt>
<trkpt lat="53.189794" lon="-1.745933"><ele>206</ele><time>2020-01-31T11:22:00Z</time><name>PT4178</name></trkpt>
<trkpt lat="53.189793" lon="-1.745935"><ele>205</ele><time>2020-01-31T11:22:00Z</time><name>PT4179</name></trkpt>
<trkpt lat="53.189787" lon="-1.745924"><ele>205</ele><time>2020-01-31T11:22:01Z</time><name>PT4180</name></trkpt>
<trkpt lat="53.189782" lon="-1.745917"><ele>206</ele><time>2020-01-31T11:22:03Z</time><name>PT4181</name></trkpt>
<trkpt lat="53.189787" lon="-1.745918"><ele>207</ele><time>2020-01-31T11:22:03Z</time><name>PT4182</name></trkpt>
<trkpt lat="53.189784" lon="-1.745921"><ele>208</ele><time>2020-01-31T11:22:04Z</time><name>PT4183</name></trkpt>
<trkpt lat="53.189787" lon="-1.745931"><ele>208</ele><time>2020-01-31T11:22:06Z</time><name>PT4184</name></trkpt>
<trkpt lat="53.189808" lon="-1.745940"><ele>206</ele><time>2020-01-31T11:22:06Z</time><name>PT4185</name></trkpt>
<trkpt lat="53.189813" lon="-1.745947"><ele>206</ele><time>2020-01-31T11:22:07Z</time><name>PT4186</name></trkpt>
<trkpt lat="53.189819" lon="-1.745954"><ele>206</ele><time>2020-01-31T11:22:09Z</time><name>PT4187</name></trkpt>
<trkpt lat="53.189859" lon="-1.745940"><ele>205</ele><time>2020-01-31T11:22:09Z</time><name>PT4188</name></trkpt>
<trkpt lat="53.189851" lon="-1.745934"><ele>205</ele><time>2020-01-31T11:22:10Z</time><name>PT4189</name></trkpt>
<trkpt lat="53.189853" lon="-1.745936"><ele>205</ele><time>2020-01-31T11:22:12Z</time><name>PT4190</name></trkpt>
<trkpt lat="53.189881" lon="-1.745930"><ele>199</ele><time>2020-01-31T11:22:12Z</time><name>PT4191</name></trkpt>
<trkpt lat="53.189870" lon="-1.745919"><ele>199</ele><time>2020-01-31T11:22:13Z</time><name>PT4192</name></trkpt>
<trkpt lat="53.189863" lon="-1.745917"><ele>199</ele><time>2020-01-31T11:22:15Z</time><name>PT4193</name></trkpt>
<trkpt lat="53.189866" lon="-1.745884"><ele>197</ele><time>2020-01-31T11:22:15Z</time><name>PT4194</name></trkpt>
<trkpt lat="53.189880" lon="-1.745895"><ele>196</ele><time>2020-01-31T11:22:16Z</time><name>PT4195</name></trkpt>
<trkpt lat="53.189883" lon="-1.745891"><ele>196</ele><time>2020-01-31T11:22:18Z</time><name>PT4196</name></trkpt>
<trkpt lat="53.189890" lon="-1.745897"><ele>194</ele><time>2020-01-31T11:22:18Z</time><name>PT4197</name></trkpt>
<trkpt lat="53.189882" lon="-1.745900"><ele>194</ele><time>2020-01-31T11:22:19Z</time><name>PT4198</name></trkpt>
<trkpt lat="53.189880" lon="-1.745907"><ele>192</ele><time>2020-01-31T11:22:25Z</time><name>PT4199</name></trkpt>
<trkpt lat="53.189881" lon="-1.745933"><ele>191</ele><time>2020-01-31T11:22:27Z</time><name>PT4200</name></trkpt>
<trkpt lat="53.189885" lon="-1.745935"><ele>190</ele><time>2020-01-31T11:22:27Z</time><name>PT4201</name></trkpt>
<trkpt lat="53.189884" lon="-1.745936"><ele>189</ele><time>2020-01-31T11:22:28Z</time><name>PT4202</name></trkpt>
<trkpt lat="53.189879" lon="-1.745935"><ele>189</ele><time>2020-01-31T11:22:30Z</time><name>PT4203</name></trkpt>
<trkpt lat="53.189887" lon="-1.745935"><ele>191</ele><time>2020-01-31T11:22:30Z</time><name>PT4204</name></trkpt>
<trkpt lat="53.189887" lon="-1.745930"><ele>192</ele><time>2020-01-31T11:22:45Z</time><name>PT4205</name></trkpt>
<trkpt lat="53.189917" lon="-1.745894"><ele>189</ele><time>2020-01-31T11:22:45Z</time><name>PT4206</name></trkpt>
<trkpt lat="53.189911" lon="-1.745889"><ele>189</ele><time>2020-01-31T11:22:46Z</time><name>PT4207</name></trkpt>
<trkpt lat="53.189909" lon="-1.745891"><ele>190</ele><time>2020-01-31T11:22:48Z</time><name>PT4208</name></trkpt>
<trkpt lat="53.189952" lon="-1.745864"><ele>189</ele><time>2020-01-31T11:22:48Z</time><name>PT4209</name></trkpt>
<trkpt lat="53.189961" lon="-1.745862"><ele>189</ele><time>2020-01-31T11:22:49Z</time><name>PT4210</name></trkpt>
<trkpt lat="53.189971" lon="-1.745857"><ele>189</ele><time>2020-01-31T11:22:51Z</time><name>PT4211</name></trkpt>
<trkpt lat="53.189982" lon="-1.745836"><ele>187</ele><time>2020-01-31T11:22:51Z</time><name>PT4212</name></trkpt>
<trkpt lat="53.189981" lon="-1.745832"><ele>187</ele><time>2020-01-31T11:22:52Z</time><name>PT4213</name></trkpt>
<trkpt lat="53.189986" lon="-1.745830"><ele>187</ele><time>2020-01-31T11:22:54Z</time><name>PT4214</name></trkpt>
<trkpt lat="53.189985" lon="-1.745823"><ele>188</ele><time>2020-01-31T11:23:07Z</time><name>PT4215</name></trkpt>
<trkpt lat="53.189985" lon="-1.745820"><ele>189</ele><time>2020-01-31T11:23:09Z</time><name>PT4216</name></trkpt>
<trkpt lat="53.189995" lon="-1.745817"><ele>189</ele><time>2020-01-31T11:23:09Z</time><name>PT4217</name></trkpt>
<trkpt lat="53.190003" lon="-1.745846"><ele>188</ele><time>2020-01-31T11:23:12Z</time><name>PT4218</name></trkpt>
<trkpt lat="53.190010" lon="-1.745860"><ele>188</ele><time>2020-01-31T11:23:13Z</time><name>PT4219</name></trkpt>
<trkpt lat="53.190015" lon="-1.745865"><ele>188</ele><time>2020-01-31T11:23:15Z</time><name>PT4220</name></trkpt>
<trkpt lat="53.190036" lon="-1.745840"><ele>187</ele><time>2020-01-31T11:23:15Z</time><name>PT4221</name></trkpt>
<trkpt lat="53.190037" lon="-1.745853"><ele>187</ele><time>2020-01-31T11:23:31Z</time><name>PT4222</name></trkpt>
<trkpt lat="53.190030" lon="-1.745861"><ele>187</ele><time>2020-01-31T11:23:33Z</time><name>PT4223</name></trkpt>
<trkpt lat="53.190024" lon="-1.745844"><ele>187</ele><time>2020-01-31T11:23:36Z</time><name>PT4224</name></trkpt>
<trkpt lat="53.190040" lon="-1.745843"><ele>188</ele><time>2020-01-31T11:23:37Z</time><name>PT4225</name></trkpt>
<trkpt lat="53.190051" lon="-1.745847"><ele>188</ele><time>2020-01-31T11:23:39Z</time><name>PT4226</name></trkpt>
<trkpt lat="53.190095" lon="-1.745826"><ele>187</ele><time>2020-01-31T11:23:39Z</time><name>PT4227</name></trkpt>
<trkpt lat="53.190117" lon="-1.745839"><ele>187</ele><time>2020-01-31T11:23:40Z</time><name>PT4228</name></trkpt>
<trkpt lat="53.190140" lon="-1.745865"><ele>186</ele><time>2020-01-31T11:23:42Z</time><name>PT4229</name></trkpt>
<trkpt lat="53.190153" lon="-1.745837"><ele>186</ele><time>2020-01-31T11:23:42Z</time><name>PT4230</name></trkpt>
<trkpt lat="53.190172" lon="-1.745834"><ele>186</ele><time>2020-01-31T11:23:43Z</time><name>PT4231</name></trkpt>
<trkpt lat="53.190190" lon="-1.745833"><ele>186</ele><time>2020-01-31T11:23:45Z</time><name>PT4232</name></trkpt>
<trkpt lat="53.190182" lon="-1.745836"><ele>187</ele><time>2020-01-31T11:23:45Z</time><name>PT4233</name></trkpt>
<trkpt lat="53.190200" lon="-1.745865"><ele>187</ele><time>2020-01-31T11:23:46Z</time><name>PT4234</name></trkpt>
<trkpt lat="53.190194" lon="-1.745881"><ele>187</ele><time>2020-01-31T11:23:48Z</time><name>PT4235</name></trkpt>
<trkpt lat="53.190188" lon="-1.745866"><ele>186</ele><time>2020-01-31T11:23:48Z</time><name>PT4236</name></trkpt>
<trkpt lat="53.190181" lon="-1.745876"><ele>186</ele><time>2020-01-31T11:23:49Z</time><name>PT4237</name></trkpt>
<trkpt lat="53.190208" lon="-1.745867"><ele>187</ele><time>2020-01-31T11:23:51Z</time><name>PT4238</name></trkpt>
<trkpt lat="53.190235" lon="-1.745857"><ele>187</ele><time>2020-01-31T11:23:51Z</time><name>PT4239</name></trkpt>
<trkpt lat="53.190245" lon="-1.745845"><ele>188</ele><time>2020-01-31T11:23:57Z</time><name>PT4240</name></trkpt>
<trkpt lat="53.190266" lon="-1.745822"><ele>189</ele><time>2020-01-31T11:23:57Z</time><name>PT4241</name></trkpt>
<trkpt lat="53.190276" lon="-1.745821"><ele>189</ele><time>2020-01-31T11:23:58Z</time><name>PT4242</name></trkpt>
<trkpt lat="53.190283" lon="-1.745814"><ele>189</ele><time>2020-01-31T11:24:00Z</time><name>PT4243</name></trkpt>
<trkpt lat="53.190285" lon="-1.745803"><ele>189</ele><time>2020-01-31T11:24:00Z</time><name>PT4244</name></trkpt>
<trkpt lat="53.190300" lon="-1.745815"><ele>189</ele><time>2020-01-31T11:24:01Z</time><name>PT4245</name></trkpt>
<trkpt lat="53.190300" lon="-1.745839"><ele>188</ele><time>2020-01-31T11:24:15Z</time><name>PT4246</name></trkpt>
<trkpt lat="53.190323" lon="-1.745838"><ele>187</ele><time>2020-01-31T11:24:15Z</time><name>PT4247</name></trkpt>
<trkpt lat="53.190318" lon="-1.745860"><ele>187</ele><time>2020-01-31T11:24:16Z</time><name>PT4248</name></trkpt>
<trkpt lat="53.190316" lon="-1.745877"><ele>187</ele><time>2020-01-31T11:24:18Z</time><name>PT4249</name></trkpt>
<trkpt lat="53.190306" lon="-1.745868"><ele>188</ele><time>2020-01-31T11:24:18Z</time><name>PT4250</name></trkpt>
<trkpt lat="53.190300" lon="-1.745865"><ele>188</ele><time>2020-01-31T11:24:19Z</time><name>PT4251</name></trkpt>
<trkpt lat="53.190297" lon="-1.745877"><ele>188</ele><time>2020-01-31T11:24:21Z</time><name>PT4252</name></trkpt>
<trkpt lat="53.190326" lon="-1.745861"><ele>188</ele><time>2020-01-31T11:24:21Z</time><name>PT4253</name></trkpt>
<trkpt lat="53.190348" lon="-1.745849"><ele>189</ele><time>2020-01-31T11:24:22Z</time><name>PT4254</name></trkpt>
<trkpt lat="53.190360" lon="-1.745854"><ele>189</ele><time>2020-01-31T11:24:24Z</time><name>PT4255</name></trkpt>
<trkpt lat="53.190374" lon="-1.745846"><ele>190</ele><time>2020-01-31T11:24:24Z</time><name>PT4256</name></trkpt>
<trkpt lat="53.190391" lon="-1.745873"><ele>190</ele><time>2020-01-31T11:24:25Z</time><name>PT4257</name></trkpt>
<trkpt lat="53.190387" lon="-1.745871"><ele>190</ele><time>2020-01-31T11:24:27Z</time><name>PT4258</name></trkpt>
<trkpt lat="53.190379" lon="-1.745871"><ele>190</ele><time>2020-01-31T11:24:27Z</time><name>PT4259</name></trkpt>
<trkpt lat="53.190363" lon="-1.745878"><ele>190</ele><time>2020-01-31T11:24:28Z</time><name>PT4260</name></trkpt>
<trkpt lat="53.190349" lon="-1.745879"><ele>190</ele><time>2020-01-31T11:24:30Z</time><name>PT4261</name></trkpt>
<trkpt lat="53.190350" lon="-1.745885"><ele>191</ele><time>2020-01-31T11:24:30Z</time><name>PT4262</name></trkpt>
<trkpt lat="53.190344" lon="-1.745890"><ele>191</ele><time>2020-01-31T11:24:31Z</time><name>PT4263</name></trkpt>
<trkpt lat="53.190328" lon="-1.745901"><ele>191</ele><time>2020-01-31T11:24:33Z</time><name>PT4264</name></trkpt>
<trkpt lat="53.190308" lon="-1.745934"><ele>191</ele><time>2020-01-31T11:24:33Z</time><name>PT4265</name></trkpt>
<trkpt lat="53.190287" lon="-1.745952"><ele>192</ele><time>2020-01-31T11:24:34Z</time><name>PT4266</name></trkpt>
<trkpt lat="53.190269" lon="-1.745950"><ele>192</ele><time>2020-01-31T11:24:36Z</time><name>PT4267</name></trkpt>
<trkpt lat="53.190261" lon="-1.745950"><ele>192</ele><time>2020-01-31T11:24:36Z</time><name>PT4268</name></trkpt>
<trkpt lat="53.190254" lon="-1.745960"><ele>192</ele><time>2020-01-31T11:24:37Z</time><name>PT4269</name></trkpt>
<trkpt lat="53.190266" lon="-1.745978"><ele>193</ele><time>2020-01-31T11:24:39Z</time><name>PT4270</name></trkpt>
<trkpt lat="53.190282" lon="-1.745985"><ele>192</ele><time>2020-01-31T11:24:39Z</time><name>PT4271</name></trkpt>
<trkpt lat="53.190280" lon="-1.745989"><ele>192</ele><time>2020-01-31T11:24:40Z</time><name>PT4272</name></trkpt>
<trkpt lat="53.190277" lon="-1.745995"><ele>192</ele><time>2020-01-31T11:24:42Z</time><name>PT4273</name></trkpt>
<trkpt lat="53.190289" lon="-1.745999"><ele>192</ele><time>2020-01-31T11:24:48Z</time><name>PT4274</name></trkpt>
<trkpt lat="53.190325" lon="-1.745986"><ele>193</ele><time>2020-01-31T11:24:49Z</time><name>PT4275</name></trkpt>
<trkpt lat="53.190354" lon="-1.745964"><ele>193</ele><time>2020-01-31T11:24:51Z</time><name>PT4276</name></trkpt>
<trkpt lat="53.190345" lon="-1.745936"><ele>195</ele><time>2020-01-31T11:24:51Z</time><name>PT4277</name></trkpt>
<trkpt lat="53.190336" lon="-1.745926"><ele>195</ele><time>2020-01-31T11:24:52Z</time><name>PT4278</name></trkpt>
<trkpt lat="53.190327" lon="-1.745929"><ele>191</ele><time>2020-01-31T11:25:22Z</time><name>PT4279</name></trkpt>
<trkpt lat="53.190314" lon="-1.745937"><ele>190</ele><time>2020-01-31T11:25:24Z</time><name>PT4280</name></trkpt>
<trkpt lat="53.190347" lon="-1.745898"><ele>189</ele><time>2020-01-31T11:25:24Z</time><name>PT4281</name></trkpt>
<trkpt lat="53.190340" lon="-1.745894"><ele>188</ele><time>2020-01-31T11:25:25Z</time><name>PT4282</name></trkpt>
<trkpt lat="53.190330" lon="-1.745879"><ele>187</ele><time>2020-01-31T11:25:27Z</time><name>PT4283</name></trkpt>
<trkpt lat="53.190302" lon="-1.745884"><ele>186</ele><time>2020-01-31T11:25:27Z</time><name>PT4284</name></trkpt>
<trkpt lat="53.190292" lon="-1.745879"><ele>185</ele><time>2020-01-31T11:25:28Z</time><name>PT4285</name></trkpt>
<trkpt lat="53.190286" lon="-1.745874"><ele>184</ele><time>2020-01-31T11:25:30Z</time><name>PT4286</name></trkpt>
<trkpt lat="53.190295" lon="-1.745871"><ele>183</ele><time>2020-01-31T11:25:30Z</time><name>PT4287</name></trkpt>
<trkpt lat="53.190288" lon="-1.745877"><ele>182</ele><time>2020-01-31T11:25:31Z</time><name>PT4288</name></trkpt>
<trkpt lat="53.190279" lon="-1.745879"><ele>182</ele><time>2020-01-31T11:25:33Z</time><name>PT4289</name></trkpt>
<trkpt lat="53.190267" lon="-1.745857"><ele>180</ele><time>2020-01-31T11:25:43Z</time><name>PT4290</name></trkpt>
<trkpt lat="53.190259" lon="-1.745832"><ele>179</ele><time>2020-01-31T11:25:45Z</time><name>PT4291</name></trkpt>
<trkpt lat="53.190248" lon="-1.745826"><ele>178</ele><time>2020-01-31T11:25:52Z</time><name>PT4292</name></trkpt>
<trkpt lat="53.190237" lon="-1.745820"><ele>177</ele><time>2020-01-31T11:25:54Z</time><name>PT4293</name></trkpt>
<trkpt lat="53.190239" lon="-1.745784"><ele>176</ele><time>2020-01-31T11:25:54Z</time><name>PT4294</name></trkpt>
<trkpt lat="53.190233" lon="-1.745783"><ele>175</ele><time>2020-01-31T11:25:55Z</time><name>PT4295</name></trkpt>
<trkpt lat="53.190226" lon="-1.745776"><ele>175</ele><time>2020-01-31T11:25:57Z</time><name>PT4296</name></trkpt>
<trkpt lat="53.190252" lon="-1.745754"><ele>176</ele><time>2020-01-31T11:26:30Z</time><name>PT4297</name></trkpt>
<trkpt lat="53.190250" lon="-1.745770"><ele>178</ele><time>2020-01-31T11:26:31Z</time><name>PT4298</name></trkpt>
<trkpt lat="53.190245" lon="-1.745787"><ele>178</ele><time>2020-01-31T11:26:33Z</time><name>PT4299</name></trkpt>
<trkpt lat="53.190240" lon="-1.745804"><ele>179</ele><time>2020-01-31T11:26:42Z</time><name>PT4300</name></trkpt>
<trkpt lat="53.190250" lon="-1.745814"><ele>180</ele><time>2020-01-31T11:26:42Z</time><name>PT4301</name></trkpt>
<trkpt lat="53.190254" lon="-1.745820"><ele>180</ele><time>2020-01-31T11:26:44Z</time><name>PT4302</name></trkpt>
<trkpt lat="53.190259" lon="-1.745821"><ele>181</ele><time>2020-01-31T11:26:45Z</time><name>PT4303</name></trkpt>
<trkpt lat="53.190280" lon="-1.745818"><ele>180</ele><time>2020-01-31T11:26:45Z</time><name>PT4304</name></trkpt>
<trkpt lat="53.190285" lon="-1.745824"><ele>180</ele><time>2020-01-31T11:26:47Z</time><name>PT4305</name></trkpt>
<trkpt lat="53.190288" lon="-1.745808"><ele>180</ele><time>2020-01-31T11:26:48Z</time><name>PT4306</name></trkpt>
<trkpt lat="53.190279" lon="-1.745782"><ele>180</ele><time>2020-01-31T11:26:48Z</time><name>PT4307</name></trkpt>
<trkpt lat="53.190280" lon="-1.745772"><ele>180</ele><time>2020-01-31T11:26:49Z</time><name>PT4308</name></trkpt>
<trkpt lat="53.190274" lon="-1.745766"><ele>180</ele><time>2020-01-31T11:26:51Z</time><name>PT4309</name></trkpt>
<trkpt lat="53.190276" lon="-1.745752"><ele>180</ele><time>2020-01-31T11:26:51Z</time><name>PT4310</name></trkpt>
<trkpt lat="53.190280" lon="-1.745749"><ele>180</ele><time>2020-01-31T11:26:52Z</time><name>PT4311</name></trkpt>
<trkpt lat="53.190281" lon="-1.745751"><ele>180</ele><time>2020-01-31T11:26:54Z</time><name>PT4312</name></trkpt>
<trkpt lat="53.190286" lon="-1.745735"><ele>180</ele><time>2020-01-31T11:26:54Z</time><name>PT4313</name></trkpt>
<trkpt lat="53.190293" lon="-1.745736"><ele>180</ele><time>2020-01-31T11:26:58Z</time><name>PT4314</name></trkpt>
<trkpt lat="53.190299" lon="-1.745722"><ele>180</ele><time>2020-01-31T11:27:00Z</time><name>PT4315</name></trkpt>
<trkpt lat="53.190302" lon="-1.745719"><ele>180</ele><time>2020-01-31T11:27:00Z</time><name>PT4316</name></trkpt>
<trkpt lat="53.190304" lon="-1.745712"><ele>180</ele><time>2020-01-31T11:27:06Z</time><name>PT4317</name></trkpt>
<trkpt lat="53.190307" lon="-1.745724"><ele>181</ele><time>2020-01-31T11:27:07Z</time><name>PT4318</name></trkpt>
<trkpt lat="53.190306" lon="-1.745741"><ele>181</ele><time>2020-01-31T11:27:10Z</time><name>PT4319</name></trkpt>
<trkpt lat="53.190301" lon="-1.745755"><ele>181</ele><time>2020-01-31T11:27:12Z</time><name>PT4320</name></trkpt>
<trkpt lat="53.190287" lon="-1.745776"><ele>181</ele><time>2020-01-31T11:27:12Z</time><name>PT4321</name></trkpt>
<trkpt lat="53.190287" lon="-1.745783"><ele>181</ele><time>2020-01-31T11:27:13Z</time><name>PT4322</name></trkpt>
<trkpt lat="53.190280" lon="-1.745792"><ele>181</ele><time>2020-01-31T11:27:15Z</time><name>PT4323</name></trkpt>
<trkpt lat="53.190267" lon="-1.745803"><ele>181</ele><time>2020-01-31T11:27:15Z</time><name>PT4324</name></trkpt>
<trkpt lat="53.190256" lon="-1.745820"><ele>182</ele><time>2020-01-31T11:27:22Z</time><name>PT4325</name></trkpt>
<trkpt lat="53.190244" lon="-1.745838"><ele>182</ele><time>2020-01-31T11:27:24Z</time><name>PT4326</name></trkpt>
<trkpt lat="53.190213" lon="-1.745837"><ele>183</ele><time>2020-01-31T11:27:24Z</time><name>PT4327</name></trkpt>
<trkpt lat="53.190203" lon="-1.745859"><ele>182</ele><time>2020-01-31T11:27:42Z</time><name>PT4328</name></trkpt>
<trkpt lat="53.190207" lon="-1.745876"><ele>182</ele><time>2020-01-31T11:27:42Z</time><name>PT4329</name></trkpt>
<trkpt lat="53.190194" lon="-1.745890"><ele>182</ele><time>2020-01-31T11:27:43Z</time><name>PT4330</name></trkpt>
<trkpt lat="53.190182" lon="-1.745902"><ele>182</ele><time>2020-01-31T11:27:45Z</time><name>PT4331</name></trkpt>
<trkpt lat="53.190159" lon="-1.745908"><ele>183</ele><time>2020-01-31T11:27:46Z</time><name>PT4332</name></trkpt>
<trkpt lat="53.190130" lon="-1.745910"><ele>184</ele><time>2020-01-31T11:27:48Z</time><name>PT4333</name></trkpt>
<trkpt lat="53.190132" lon="-1.745896"><ele>183</ele><time>2020-01-31T11:27:48Z</time><name>PT4334</name></trkpt>
<trkpt lat="53.190122" lon="-1.745900"><ele>183</ele><time>2020-01-31T11:27:49Z</time><name>PT4335</name></trkpt>
<trkpt lat="53.190100" lon="-1.745900"><ele>183</ele><time>2020-01-31T11:27:51Z</time><name>PT4336</name></trkpt>
<trkpt lat="53.190096" lon="-1.745902"><ele>180</ele><time>2020-01-31T11:28:25Z</time><name>PT4337</name></trkpt>
<trkpt lat="53.190093" lon="-1.745891"><ele>180</ele><time>2020-01-31T11:28:27Z</time><name>PT4338</name></trkpt>
<trkpt lat="53.190095" lon="-1.745912"><ele>179</ele><time>2020-01-31T11:28:27Z</time><name>PT4339</name></trkpt>
<trkpt lat="53.190091" lon="-1.745912"><ele>179</ele><time>2020-01-31T11:28:28Z</time><name>PT4340</name></trkpt>
<trkpt lat="53.190086" lon="-1.745909"><ele>179</ele><time>2020-01-31T11:28:30Z</time><name>PT4341</name></trkpt>
<trkpt lat="53.190085" lon="-1.745906"><ele>178</ele><time>2020-01-31T11:28:49Z</time><name>PT4342</name></trkpt>
<trkpt lat="53.190084" lon="-1.745899"><ele>177</ele><time>2020-01-31T11:28:51Z</time><name>PT4343</name></trkpt>
<trkpt lat="53.190076" lon="-1.745894"><ele>179</ele><time>2020-01-31T11:29:09Z</time><name>PT4344</name></trkpt>
<trkpt lat="53.190076" lon="-1.745886"><ele>178</ele><time>2020-01-31T11:29:09Z</time><name>PT4345</name></trkpt>
<trkpt lat="53.190076" lon="-1.745906"><ele>178</ele><time>2020-01-31T11:29:10Z</time><name>PT4346</name></trkpt>
<trkpt lat="53.190074" lon="-1.745920"><ele>178</ele><time>2020-01-31T11:29:12Z</time><name>PT4347</name></trkpt>
<trkpt lat="53.190069" lon="-1.745904"><ele>178</ele><time>2020-01-31T11:29:12Z</time><name>PT4348</name></trkpt>
<trkpt lat="53.190065" lon="-1.745886"><ele>179</ele><time>2020-01-31T11:29:13Z</time><name>PT4349</name></trkpt>
<trkpt lat="53.190074" lon="-1.745885"><ele>180</ele><time>2020-01-31T11:29:15Z</time><name>PT4350</name></trkpt>
<trkpt lat="53.190073" lon="-1.745873"><ele>180</ele><time>2020-01-31T11:29:15Z</time><name>PT4351</name></trkpt>
<trkpt lat="53.190068" lon="-1.745847"><ele>181</ele><time>2020-01-31T11:29:16Z</time><name>PT4352</name></trkpt>
<trkpt lat="53.190059" lon="-1.745837"><ele>182</ele><time>2020-01-31T11:29:18Z</time><name>PT4353</name></trkpt>
<trkpt lat="53.190059" lon="-1.745829"><ele>181</ele><time>2020-01-31T11:29:18Z</time><name>PT4354</name></trkpt>
<trkpt lat="53.190072" lon="-1.745819"><ele>182</ele><time>2020-01-31T11:29:19Z</time><name>PT4355</name></trkpt>
<trkpt lat="53.190057" lon="-1.745808"><ele>182</ele><time>2020-01-31T11:29:21Z</time><name>PT4356</name></trkpt>
<trkpt lat="53.190052" lon="-1.745805"><ele>184</ele><time>2020-01-31T11:29:21Z</time><name>PT4357</name></trkpt>
<trkpt lat="53.190046" lon="-1.745807"><ele>184</ele><time>2020-01-31T11:29:22Z</time><name>PT4358</name></trkpt>
<trkpt lat="53.190055" lon="-1.745795"><ele>185</ele><time>2020-01-31T11:29:24Z</time><name>PT4359</name></trkpt>
<trkpt lat="53.190056" lon="-1.745783"><ele>186</ele><time>2020-01-31T11:29:24Z</time><name>PT4360</name></trkpt>
<trkpt lat="53.190061" lon="-1.745783"><ele>186</ele><time>2020-01-31T11:29:25Z</time><name>PT4361</name></trkpt>
<trkpt lat="53.190056" lon="-1.745798"><ele>187</ele><time>2020-01-31T11:29:28Z</time><name>PT4362</name></trkpt>
<trkpt lat="53.190064" lon="-1.745807"><ele>187</ele><time>2020-01-31T11:29:30Z</time><name>PT4363</name></trkpt>
<trkpt lat="53.190081" lon="-1.745819"><ele>189</ele><time>2020-01-31T11:29:40Z</time><name>PT4364</name></trkpt>
<trkpt lat="53.190103" lon="-1.745824"><ele>190</ele><time>2020-01-31T11:29:42Z</time><name>PT4365</name></trkpt>
<trkpt lat="53.190107" lon="-1.745841"><ele>191</ele><time>2020-01-31T11:29:42Z</time><name>PT4366</name></trkpt>
<trkpt lat="53.190127" lon="-1.745850"><ele>191</ele><time>2020-01-31T11:29:43Z</time><name>PT4367</name></trkpt>
<trkpt lat="53.190137" lon="-1.745874"><ele>191</ele><time>2020-01-31T11:29:45Z</time><name>PT4368</name></trkpt>
<trkpt lat="53.190154" lon="-1.745892"><ele>191</ele><time>2020-01-31T11:29:46Z</time><name>PT4369</name></trkpt>
<trkpt lat="53.190178" lon="-1.745902"><ele>192</ele><time>2020-01-31T11:29:48Z</time><name>PT4370</name></trkpt>
<trkpt lat="53.190207" lon="-1.745875"><ele>192</ele><time>2020-01-31T11:29:48Z</time><name>PT4371</name></trkpt>
<trkpt lat="53.190215" lon="-1.745884"><ele>193</ele><time>2020-01-31T11:29:49Z</time><name>PT4372</name></trkpt>
<trkpt lat="53.190211" lon="-1.745889"><ele>193</ele><time>2020-01-31T11:29:51Z</time><name>PT4373</name></trkpt>
<trkpt lat="53.190211" lon="-1.745902"><ele>193</ele><time>2020-01-31T11:29:51Z</time><name>PT4374</name></trkpt>
<trkpt lat="53.190217" lon="-1.745919"><ele>194</ele><time>2020-01-31T11:29:52Z</time><name>PT4375</name></trkpt>
<trkpt lat="53.190216" lon="-1.745919"><ele>195</ele><time>2020-01-31T11:29:54Z</time><name>PT4376</name></trkpt>
<trkpt lat="53.190229" lon="-1.745912"><ele>195</ele><time>2020-01-31T11:29:54Z</time><name>PT4377</name></trkpt>
<trkpt lat="53.190229" lon="-1.745911"><ele>196</ele><time>2020-01-31T11:29:55Z</time><name>PT4378</name></trkpt>
<trkpt lat="53.190227" lon="-1.745927"><ele>197</ele><time>2020-01-31T11:29:57Z</time><name>PT4379</name></trkpt>
<trkpt lat="53.190239" lon="-1.745918"><ele>198</ele><time>2020-01-31T11:29:57Z</time><name>PT4380</name></trkpt>
<trkpt lat="53.190227" lon="-1.745925"><ele>198</ele><time>2020-01-31T11:29:58Z</time><name>PT4381</name></trkpt>
<trkpt lat="53.190229" lon="-1.745943"><ele>199</ele><time>2020-01-31T11:30:00Z</time><name>PT4382</name></trkpt>
<trkpt lat="53.190240" lon="-1.745932"><ele>199</ele><time>2020-01-31T11:30:00Z</time><name>PT4383</name></trkpt>
<trkpt lat="53.190237" lon="-1.745937"><ele>201</ele><time>2020-01-31T11:30:03Z</time><name>PT4384</name></trkpt>
<trkpt lat="53.190255" lon="-1.745928"><ele>201</ele><time>2020-01-31T11:30:03Z</time><name>PT4385</name></trkpt>
<trkpt lat="53.190262" lon="-1.745934"><ele>202</ele><time>2020-01-31T11:30:04Z</time><name>PT4386</name></trkpt>
<trkpt lat="53.190267" lon="-1.745941"><ele>202</ele><time>2020-01-31T11:30:06Z</time><name>PT4387</name></trkpt>
<trkpt lat="53.190270" lon="-1.745926"><ele>203</ele><time>2020-01-31T11:30:06Z</time><name>PT4388</name></trkpt>
<trkpt lat="53.190274" lon="-1.745941"><ele>203</ele><time>2020-01-31T11:30:07Z</time><name>PT4389</name></trkpt>
<trkpt lat="53.190283" lon="-1.745947"><ele>203</ele><time>2020-01-31T11:30:09Z</time><name>PT4390</name></trkpt>
<trkpt lat="53.190306" lon="-1.745956"><ele>203</ele><time>2020-01-31T11:30:09Z</time><name>PT4391</name></trkpt>
<trkpt lat="53.190306" lon="-1.745959"><ele>203</ele><time>2020-01-31T11:30:10Z</time><name>PT4392</name></trkpt>
<trkpt lat="53.190317" lon="-1.745951"><ele>203</ele><time>2020-01-31T11:30:12Z</time><name>PT4393</name></trkpt>
<trkpt lat="53.190326" lon="-1.745937"><ele>202</ele><time>2020-01-31T11:30:12Z</time><name>PT4394</name></trkpt>
<trkpt lat="53.190333" lon="-1.745934"><ele>203</ele><time>2020-01-31T11:30:13Z</time><name>PT4395</name></trkpt>
<trkpt lat="53.190344" lon="-1.745950"><ele>203</ele><time>2020-01-31T11:30:15Z</time><name>PT4396</name></trkpt>
<trkpt lat="53.190331" lon="-1.745938"><ele>203</ele><time>2020-01-31T11:30:15Z</time><name>PT4397</name></trkpt>
<trkpt lat="53.190326" lon="-1.745944"><ele>203</ele><time>2020-01-31T11:30:16Z</time><name>PT4398</name></trkpt>
<trkpt lat="53.190317" lon="-1.745944"><ele>203</ele><time>2020-01-31T11:30:25Z</time><name>PT4399</name></trkpt>
<trkpt lat="53.190303" lon="-1.745946"><ele>203</ele><time>2020-01-31T11:30:27Z</time><name>PT4400</name></trkpt>
<trkpt lat="53.190300" lon="-1.745949"><ele>204</ele><time>2020-01-31T11:30:27Z</time><name>PT4401</name></trkpt>
<trkpt lat="53.190286" lon="-1.745953"><ele>205</ele><time>2020-01-31T11:30:28Z</time><name>PT4402</name></trkpt>
<trkpt lat="53.190276" lon="-1.745950"><ele>205</ele><time>2020-01-31T11:30:30Z</time><name>PT4403</name></trkpt>
<trkpt lat="53.190262" lon="-1.745946"><ele>206</ele><time>2020-01-31T11:30:33Z</time><name>PT4404</name></trkpt>
<trkpt lat="53.190246" lon="-1.745937"><ele>207</ele><time>2020-01-31T11:30:33Z</time><name>PT4405</name></trkpt>
<trkpt lat="53.190232" lon="-1.745934"><ele>207</ele><time>2020-01-31T11:30:34Z</time><name>PT4406</name></trkpt>
<trkpt lat="53.190227" lon="-1.745921"><ele>206</ele><time>2020-01-31T11:30:36Z</time><name>PT4407</name></trkpt>
<trkpt lat="53.190204" lon="-1.745872"><ele>206</ele><time>2020-01-31T11:30:36Z</time><name>PT4408</name></trkpt>
<trkpt lat="53.190193" lon="-1.745855"><ele>205</ele><time>2020-01-31T11:30:37Z</time><name>PT4409</name></trkpt>
<trkpt lat="53.190169" lon="-1.745848"><ele>204</ele><time>2020-01-31T11:30:39Z</time><name>PT4410</name></trkpt>
<trkpt lat="53.190159" lon="-1.745859"><ele>203</ele><time>2020-01-31T11:30:39Z</time><name>PT4411</name></trkpt>
<trkpt lat="53.190145" lon="-1.745862"><ele>202</ele><time>2020-01-31T11:30:40Z</time><name>PT4412</name></trkpt>
<trkpt lat="53.190136" lon="-1.745865"><ele>202</ele><time>2020-01-31T11:30:42Z</time><name>PT4413</name></trkpt>
<trkpt lat="53.190130" lon="-1.745859"><ele>201</ele><time>2020-01-31T11:30:42Z</time><name>PT4414</name></trkpt>
<trkpt lat="53.190119" lon="-1.745861"><ele>201</ele><time>2020-01-31T11:30:43Z</time><name>PT4415</name></trkpt>
<trkpt lat="53.190131" lon="-1.745868"><ele>201</ele><time>2020-01-31T11:30:45Z</time><name>PT4416</name></trkpt>
<trkpt lat="53.190160" lon="-1.745883"><ele>199</ele><time>2020-01-31T11:30:45Z</time><name>PT4417</name></trkpt>
<trkpt lat="53.190163" lon="-1.745896"><ele>199</ele><time>2020-01-31T11:30:46Z</time><name>PT4418</name></trkpt>
<trkpt lat="53.190166" lon="-1.745900"><ele>199</ele><time>2020-01-31T11:30:48Z</time><name>PT4419</name></trkpt>
<trkpt lat="53.190168" lon="-1.745903"><ele>200</ele><time>2020-01-31T11:30:49Z</time><name>PT4420</name></trkpt>
<trkpt lat="53.190171" lon="-1.745907"><ele>200</ele><time>2020-01-31T11:30:51Z</time><name>PT4421</name></trkpt>
<trkpt lat="53.190167" lon="-1.745894"><ele>200</ele><time>2020-01-31T11:30:51Z</time><name>PT4422</name></trkpt>
<trkpt lat="53.190170" lon="-1.745897"><ele>201</ele><time>2020-01-31T11:30:52Z</time><name>PT4423</name></trkpt>
<trkpt lat="53.190181" lon="-1.745901"><ele>201</ele><time>2020-01-31T11:30:54Z</time><name>PT4424</name></trkpt>
<trkpt lat="53.190181" lon="-1.745910"><ele>201</ele><time>2020-01-31T11:30:57Z</time><name>PT4425</name></trkpt>
<trkpt lat="53.190202" lon="-1.745890"><ele>201</ele><time>2020-01-31T11:30:57Z</time><name>PT4426</name></trkpt>
<trkpt lat="53.190202" lon="-1.745909"><ele>201</ele><time>2020-01-31T11:30:58Z</time><name>PT4427</name></trkpt>
<trkpt lat="53.190199" lon="-1.745923"><ele>201</ele><time>2020-01-31T11:31:00Z</time><name>PT4428</name></trkpt>
<trkpt lat="53.190240" lon="-1.745935"><ele>199</ele><time>2020-01-31T11:31:00Z</time><name>PT4429</name></trkpt>
<trkpt lat="53.190239" lon="-1.745958"><ele>199</ele><time>2020-01-31T11:31:42Z</time><name>PT4430</name></trkpt>
<trkpt lat="53.190203" lon="-1.745937"><ele>199</ele><time>2020-01-31T11:31:43Z</time><name>PT4431</name></trkpt>
<trkpt lat="53.190174" lon="-1.745928"><ele>200</ele><time>2020-01-31T11:31:45Z</time><name>PT4432</name></trkpt>
<trkpt lat="53.190157" lon="-1.745919"><ele>199</ele><time>2020-01-31T11:31:45Z</time><name>PT4433</name></trkpt>
<trkpt lat="53.190141" lon="-1.745932"><ele>199</ele><time>2020-01-31T11:31:46Z</time><name>PT4434</name></trkpt>
<trkpt lat="53.190147" lon="-1.745937"><ele>199</ele><time>2020-01-31T11:31:48Z</time><name>PT4435</name></trkpt>
<trkpt lat="53.190172" lon="-1.745932"><ele>198</ele><time>2020-01-31T11:31:48Z</time><name>PT4436</name></trkpt>
<trkpt lat="53.190170" lon="-1.745945"><ele>198</ele><time>2020-01-31T11:31:49Z</time><name>PT4437</name></trkpt>
<trkpt lat="53.190143" lon="-1.745943"><ele>197</ele><time>2020-01-31T11:31:51Z</time><name>PT4438</name></trkpt>
<trkpt lat="53.190123" lon="-1.745942"><ele>196</ele><time>2020-01-31T11:31:51Z</time><name>PT4439</name></trkpt>
<trkpt lat="53.190087" lon="-1.745932"><ele>196</ele><time>2020-01-31T11:31:52Z</time><name>PT4440</name></trkpt>
<trkpt lat="53.190055" lon="-1.745926"><ele>195</ele><time>2020-01-31T11:31:54Z</time><name>PT4441</name></trkpt>
<trkpt lat="53.190027" lon="-1.745950"><ele>195</ele><time>2020-01-31T11:31:54Z</time><name>PT4442</name></trkpt>
<trkpt lat="53.190017" lon="-1.745958"><ele>194</ele><time>2020-01-31T11:31:55Z</time><name>PT4443</name></trkpt>
<trkpt lat="53.190010" lon="-1.745966"><ele>194</ele><time>2020-01-31T11:31:57Z</time><name>PT4444</name></trkpt>
<trkpt lat="53.189986" lon="-1.745979"><ele>194</ele><time>2020-01-31T11:31:57Z</time><name>PT4445</name></trkpt>
<trkpt lat="53.189968" lon="-1.746001"><ele>193</ele><time>2020-01-31T11:31:58Z</time><name>PT4446</name></trkpt>
<trkpt lat="53.189959" lon="-1.745999"><ele>193</ele><time>2020-01-31T11:32:00Z</time><name>PT4447</name></trkpt>
<trkpt lat="53.189959" lon="-1.746009"><ele>192</ele><time>2020-01-31T11:32:00Z</time><name>PT4448</name></trkpt>
<trkpt lat="53.189957" lon="-1.746006"><ele>192</ele><time>2020-01-31T11:32:01Z</time><name>PT4449</name></trkpt>
<trkpt lat="53.189952" lon="-1.746009"><ele>192</ele><time>2020-01-31T11:32:03Z</time><name>PT4450</name></trkpt>
<trkpt lat="53.189941" lon="-1.746014"><ele>191</ele><time>2020-01-31T11:32:33Z</time><name>PT4451</name></trkpt>
<trkpt lat="53.189928" lon="-1.746009"><ele>191</ele><time>2020-01-31T11:32:33Z</time><name>PT4452</name></trkpt>
<trkpt lat="53.189905" lon="-1.746019"><ele>191</ele><time>2020-01-31T11:32:34Z</time><name>PT4453</name></trkpt>
<trkpt lat="53.189892" lon="-1.746023"><ele>191</ele><time>2020-01-31T11:32:36Z</time><name>PT4454</name></trkpt>
<trkpt lat="53.189880" lon="-1.746047"><ele>192</ele><time>2020-01-31T11:32:36Z</time><name>PT4455</name></trkpt>
<trkpt lat="53.189890" lon="-1.746075"><ele>190</ele><time>2020-01-31T11:32:37Z</time><name>PT4456</name></trkpt>
<trkpt lat="53.189882" lon="-1.746071"><ele>190</ele><time>2020-01-31T11:32:39Z</time><name>PT4457</name></trkpt>
<trkpt lat="53.189911" lon="-1.746064"><ele>190</ele><time>2020-01-31T11:32:39Z</time><name>PT4458</name></trkpt>
<trkpt lat="53.189920" lon="-1.746061"><ele>189</ele><time>2020-01-31T11:32:40Z</time><name>PT4459</name></trkpt>
<trkpt lat="53.189931" lon="-1.746069"><ele>189</ele><time>2020-01-31T11:32:42Z</time><name>PT4460</name></trkpt>
<trkpt lat="53.189943" lon="-1.746071"><ele>189</ele><time>2020-01-31T11:32:42Z</time><name>PT4461</name></trkpt>
<trkpt lat="53.189943" lon="-1.746069"><ele>188</ele><time>2020-01-31T11:32:44Z</time><name>PT4462</name></trkpt>
<trkpt lat="53.189942" lon="-1.746059"><ele>188</ele><time>2020-01-31T11:33:11Z</time><name>PT4463</name></trkpt>
<trkpt lat="53.189934" lon="-1.746056"><ele>188</ele><time>2020-01-31T11:33:12Z</time><name>PT4464</name></trkpt>
<trkpt lat="53.189940" lon="-1.746045"><ele>188</ele><time>2020-01-31T11:33:12Z</time><name>PT4465</name></trkpt>
<trkpt lat="53.189931" lon="-1.746039"><ele>188</ele><time>2020-01-31T11:33:14Z</time><name>PT4466</name></trkpt>
<trkpt lat="53.189923" lon="-1.746020"><ele>188</ele><time>2020-01-31T11:33:15Z</time><name>PT4467</name></trkpt>
<trkpt lat="53.189910" lon="-1.746003"><ele>189</ele><time>2020-01-31T11:33:15Z</time><name>PT4468</name></trkpt>
<trkpt lat="53.189909" lon="-1.745997"><ele>189</ele><time>2020-01-31T11:33:17Z</time><name>PT4469</name></trkpt>
<trkpt lat="53.189915" lon="-1.746024"><ele>190</ele><time>2020-01-31T11:33:21Z</time><name>PT4470</name></trkpt>
<trkpt lat="53.189927" lon="-1.746058"><ele>190</ele><time>2020-01-31T11:33:21Z</time><name>PT4471</name></trkpt>
<trkpt lat="53.189935" lon="-1.746075"><ele>190</ele><time>2020-01-31T11:33:22Z</time><name>PT4472</name></trkpt>
<trkpt lat="53.189939" lon="-1.746093"><ele>190</ele><time>2020-01-31T11:33:24Z</time><name>PT4473</name></trkpt>
<trkpt lat="53.189948" lon="-1.746118"><ele>190</ele><time>2020-01-31T11:33:24Z</time><name>PT4474</name></trkpt>
<trkpt lat="53.189954" lon="-1.746112"><ele>190</ele><time>2020-01-31T11:33:25Z</time><name>PT4475</name></trkpt>
<trkpt lat="53.189979" lon="-1.746108"><ele>190</ele><time>2020-01-31T11:33:27Z</time><name>PT4476</name></trkpt>
<trkpt lat="53.190009" lon="-1.746089"><ele>190</ele><time>2020-01-31T11:33:27Z</time><name>PT4477</name></trkpt>
<trkpt lat="53.190027" lon="-1.746089"><ele>191</ele><time>2020-01-31T11:33:28Z</time><name>PT4478</name></trkpt>
<trkpt lat="53.190038" lon="-1.746089"><ele>191</ele><time>2020-01-31T11:33:30Z</time><name>PT4479</name></trkpt>
<trkpt lat="53.190047" lon="-1.746098"><ele>191</ele><time>2020-01-31T11:33:30Z</time><name>PT4480</name></trkpt>
<trkpt lat="53.190055" lon="-1.746102"><ele>191</ele><time>2020-01-31T11:33:31Z</time><name>PT4481</name></trkpt>
<trkpt lat="53.190055" lon="-1.746091"><ele>191</ele><time>2020-01-31T11:33:33Z</time><name>PT4482</name></trkpt>
<trkpt lat="53.190064" lon="-1.746089"><ele>191</ele><time>2020-01-31T11:33:33Z</time><name>PT4483</name></trkpt>
<trkpt lat="53.190061" lon="-1.746087"><ele>191</ele><time>2020-01-31T11:33:57Z</time><name>PT4484</name></trkpt>
<trkpt lat="53.190040" lon="-1.746094"><ele>191</ele><time>2020-01-31T11:33:57Z</time><name>PT4485</name></trkpt>
<trkpt lat="53.190029" lon="-1.746103"><ele>191</ele><time>2020-01-31T11:33:58Z</time><name>PT4486</name></trkpt>
<trkpt lat="53.190018" lon="-1.746100"><ele>191</ele><time>2020-01-31T11:34:00Z</time><name>PT4487</name></trkpt>
<trkpt lat="53.190041" lon="-1.746101"><ele>192</ele><time>2020-01-31T11:34:00Z</time><name>PT4488</name></trkpt>
<trkpt lat="53.190067" lon="-1.746075"><ele>192</ele><time>2020-01-31T11:34:01Z</time><name>PT4489</name></trkpt>
<trkpt lat="53.190098" lon="-1.746047"><ele>191</ele><time>2020-01-31T11:34:03Z</time><name>PT4490</name></trkpt>
<trkpt lat="53.190116" lon="-1.746011"><ele>192</ele><time>2020-01-31T11:34:03Z</time><name>PT4491</name></trkpt>
<trkpt lat="53.190131" lon="-1.745979"><ele>192</ele><time>2020-01-31T11:34:04Z</time><name>PT4492</name></trkpt>
<trkpt lat="53.190146" lon="-1.745948"><ele>192</ele><time>2020-01-31T11:34:06Z</time><name>PT4493</name></trkpt>
<trkpt lat="53.190156" lon="-1.745911"><ele>192</ele><time>2020-01-31T11:34:06Z</time><name>PT4494</name></trkpt>
<trkpt lat="53.190160" lon="-1.745904"><ele>190</ele><time>2020-01-31T11:34:12Z</time><name>PT4495</name></trkpt>
<trkpt lat="53.190196" lon="-1.745897"><ele>189</ele><time>2020-01-31T11:34:12Z</time><name>PT4496</name></trkpt>
<trkpt lat="53.190204" lon="-1.745903"><ele>189</ele><time>2020-01-31T11:34:16Z</time><name>PT4497</name></trkpt>
<trkpt lat="53.190202" lon="-1.745917"><ele>190</ele><time>2020-01-31T11:34:18Z</time><name>PT4498</name></trkpt>
<trkpt lat="53.190200" lon="-1.745905"><ele>191</ele><time>2020-01-31T11:34:18Z</time><name>PT4499</name></trkpt>
<trkpt lat="53.190199" lon="-1.745897"><ele>191</ele><time>2020-01-31T11:34:19Z</time><name>PT4500</name></trkpt>
<trkpt lat="53.190200" lon="-1.745893"><ele>191</ele><time>2020-01-31T11:34:21Z</time><name>PT4501</name></trkpt>
<trkpt lat="53.190182" lon="-1.745882"><ele>192</ele><time>2020-01-31T11:34:21Z</time><name>PT4502</name></trkpt>
<trkpt lat="53.190173" lon="-1.745880"><ele>193</ele><time>2020-01-31T11:34:22Z</time><name>PT4503</name></trkpt>
<trkpt lat="53.190182" lon="-1.745884"><ele>193</ele><time>2020-01-31T11:34:24Z</time><name>PT4504</name></trkpt>
<trkpt lat="53.190203" lon="-1.745889"><ele>193</ele><time>2020-01-31T11:34:24Z</time><name>PT4505</name></trkpt>
<trkpt lat="53.190202" lon="-1.745891"><ele>194</ele><time>2020-01-31T11:34:25Z</time><name>PT4506</name></trkpt>
<trkpt lat="53.190213" lon="-1.745878"><ele>193</ele><time>2020-01-31T11:34:27Z</time><name>PT4507</name></trkpt>
<trkpt lat="53.190224" lon="-1.745880"><ele>192</ele><time>2020-01-31T11:34:30Z</time><name>PT4508</name></trkpt>
<trkpt lat="53.190236" lon="-1.745872"><ele>191</ele><time>2020-01-31T11:34:30Z</time><name>PT4509</name></trkpt>
<trkpt lat="53.190244" lon="-1.745868"><ele>191</ele><time>2020-01-31T11:34:31Z</time><name>PT4510</name></trkpt>
<trkpt lat="53.190248" lon="-1.745883"><ele>191</ele><time>2020-01-31T11:34:36Z</time><name>PT4511</name></trkpt>
<trkpt lat="53.190248" lon="-1.745899"><ele>191</ele><time>2020-01-31T11:34:36Z</time><name>PT4512</name></trkpt>
<trkpt lat="53.190254" lon="-1.745899"><ele>194</ele><time>2020-01-31T11:35:15Z</time><name>PT4513</name></trkpt>
<trkpt lat="53.190256" lon="-1.745907"><ele>195</ele><time>2020-01-31T11:35:16Z</time><name>PT4514</name></trkpt>
<trkpt lat="53.190258" lon="-1.745921"><ele>196</ele><time>2020-01-31T11:35:18Z</time><name>PT4515</name></trkpt>
<trkpt lat="53.190269" lon="-1.745929"><ele>196</ele><time>2020-01-31T11:35:18Z</time><name>PT4516</name></trkpt>
<trkpt lat="53.190274" lon="-1.745926"><ele>197</ele><time>2020-01-31T11:35:19Z</time><name>PT4517</name></trkpt>
<trkpt lat="53.190261" lon="-1.745927"><ele>197</ele><time>2020-01-31T11:35:21Z</time><name>PT4518</name></trkpt>
<trkpt lat="53.190242" lon="-1.745919"><ele>198</ele><time>2020-01-31T11:35:21Z</time><name>PT4519</name></trkpt>
<trkpt lat="53.190236" lon="-1.745920"><ele>198</ele><time>2020-01-31T11:35:22Z</time><name>PT4520</name></trkpt>
<trkpt lat="53.190237" lon="-1.745930"><ele>202</ele><time>2020-01-31T11:35:28Z</time><name>PT4521</name></trkpt>
<trkpt lat="53.190239" lon="-1.745915"><ele>204</ele><time>2020-01-31T11:35:30Z</time><name>PT4522</name></trkpt>
<trkpt lat="53.190230" lon="-1.745907"><ele>210</ele><time>2020-01-31T11:35:42Z</time><name>PT4523</name></trkpt>
<trkpt lat="53.190208" lon="-1.745900"><ele>212</ele><time>2020-01-31T11:35:43Z</time><name>PT4524</name></trkpt>
<trkpt lat="53.190194" lon="-1.745902"><ele>212</ele><time>2020-01-31T11:35:45Z</time><name>PT4525</name></trkpt>
<trkpt lat="53.190183" lon="-1.745907"><ele>212</ele><time>2020-01-31T11:35:45Z</time><name>PT4526</name></trkpt>
<trkpt lat="53.190175" lon="-1.745903"><ele>212</ele><time>2020-01-31T11:35:46Z</time><name>PT4527</name></trkpt>
<trkpt lat="53.190165" lon="-1.745906"><ele>213</ele><time>2020-01-31T11:35:58Z</time><name>PT4528</name></trkpt>
<trkpt lat="53.190156" lon="-1.745902"><ele>213</ele><time>2020-01-31T11:36:00Z</time><name>PT4529</name></trkpt>
<trkpt lat="53.190146" lon="-1.745902"><ele>213</ele><time>2020-01-31T11:36:00Z</time><name>PT4530</name></trkpt>
<trkpt lat="53.190143" lon="-1.745908"><ele>213</ele><time>2020-01-31T11:36:01Z</time><name>PT4531</name></trkpt>
<trkpt lat="53.190138" lon="-1.745915"><ele>213</ele><time>2020-01-31T11:36:03Z</time><name>PT4532</name></trkpt>
<trkpt lat="53.190134" lon="-1.745922"><ele>214</ele><time>2020-01-31T11:36:03Z</time><name>PT4533</name></trkpt>
<trkpt lat="53.190128" lon="-1.745933"><ele>213</ele><time>2020-01-31T11:36:04Z</time><name>PT4534</name></trkpt>
<trkpt lat="53.190127" lon="-1.745939"><ele>213</ele><time>2020-01-31T11:36:06Z</time><name>PT4535</name></trkpt>
<trkpt lat="53.190123" lon="-1.745934"><ele>213</ele><time>2020-01-31T11:36:06Z</time><name>PT4536</name></trkpt>
<trkpt lat="53.190121" lon="-1.745935"><ele>214</ele><time>2020-01-31T11:36:07Z</time><name>PT4537</name></trkpt>
<trkpt lat="53.190114" lon="-1.745931"><ele>214</ele><time>2020-01-31T11:36:09Z</time><name>PT4538</name></trkpt>
<trkpt lat="53.190109" lon="-1.745935"><ele>213</ele><time>2020-01-31T11:36:19Z</time><name>PT4539</name></trkpt>
<trkpt lat="53.190108" lon="-1.745929"><ele>213</ele><time>2020-01-31T11:36:21Z</time><name>PT4540</name></trkpt>
<trkpt lat="53.190103" lon="-1.745932"><ele>213</ele><time>2020-01-31T11:36:24Z</time><name>PT4541</name></trkpt>
<trkpt lat="53.190100" lon="-1.745929"><ele>213</ele><time>2020-01-31T11:36:24Z</time><name>PT4542</name></trkpt>
<trkpt lat="53.190101" lon="-1.745935"><ele>214</ele><time>2020-01-31T11:36:27Z</time><name>PT4543</name></trkpt>
<trkpt lat="53.190102" lon="-1.745933"><ele>213</ele><time>2020-01-31T11:36:28Z</time><name>PT4544</name></trkpt>
<trkpt lat="53.190101" lon="-1.745932"><ele>213</ele><time>2020-01-31T11:36:30Z</time><name>PT4545</name></trkpt>
<trkpt lat="53.190103" lon="-1.745933"><ele>212</ele><time>2020-01-31T11:36:30Z</time><name>PT4546</name></trkpt>
<trkpt lat="53.190102" lon="-1.745933"><ele>212</ele><time>2020-01-31T11:36:31Z</time><name>PT4547</name></trkpt>
<trkpt lat="53.190088" lon="-1.745937"><ele>213</ele><time>2020-01-31T11:36:33Z</time><name>PT4548</name></trkpt>
<trkpt lat="53.190086" lon="-1.745942"><ele>213</ele><time>2020-01-31T11:36:33Z</time><name>PT4549</name></trkpt>
<trkpt lat="53.190080" lon="-1.745934"><ele>212</ele><time>2020-01-31T11:36:34Z</time><name>PT4550</name></trkpt>
<trkpt lat="53.190079" lon="-1.745933"><ele>212</ele><time>2020-01-31T11:36:36Z</time><name>PT4551</name></trkpt>
<trkpt lat="53.190073" lon="-1.745933"><ele>212</ele><time>2020-01-31T11:36:36Z</time><name>PT4552</name></trkpt>
<trkpt lat="53.190071" lon="-1.745932"><ele>211</ele><time>2020-01-31T11:36:39Z</time><name>PT4553</name></trkpt>
<trkpt lat="53.190072" lon="-1.745940"><ele>210</ele><time>2020-01-31T11:36:40Z</time><name>PT4554</name></trkpt>
<trkpt lat="53.190073" lon="-1.745945"><ele>209</ele><time>2020-01-31T11:36:42Z</time><name>PT4555</name></trkpt>
<trkpt lat="53.190077" lon="-1.745948"><ele>209</ele><time>2020-01-31T11:36:42Z</time><name>PT4556</name></trkpt>
<trkpt lat="53.190077" lon="-1.745955"><ele>209</ele><time>2020-01-31T11:36:43Z</time><name>PT4557</name></trkpt>
<trkpt lat="53.190079" lon="-1.745962"><ele>209</ele><time>2020-01-31T11:36:45Z</time><name>PT4558</name></trkpt>
<trkpt lat="53.190081" lon="-1.745964"><ele>208</ele><time>2020-01-31T11:36:54Z</time><name>PT4559</name></trkpt>
<trkpt lat="53.190084" lon="-1.745966"><ele>208</ele><time>2020-01-31T11:36:55Z</time><name>PT4560</name></trkpt>
<trkpt lat="53.190098" lon="-1.745994"><ele>208</ele><time>2020-01-31T11:36:57Z</time><name>PT4561</name></trkpt>
<trkpt lat="53.190093" lon="-1.745980"><ele>207</ele><time>2020-01-31T11:36:57Z</time><name>PT4562</name></trkpt>
<trkpt lat="53.190098" lon="-1.745978"><ele>206</ele><time>2020-01-31T11:36:58Z</time><name>PT4563</name></trkpt>
<trkpt lat="53.190095" lon="-1.745978"><ele>205</ele><time>2020-01-31T11:37:00Z</time><name>PT4564</name></trkpt>
<trkpt lat="53.190091" lon="-1.745976"><ele>205</ele><time>2020-01-31T11:37:00Z</time><name>PT4565</name></trkpt>
<trkpt lat="53.190078" lon="-1.745971"><ele>204</ele><time>2020-01-31T11:37:01Z</time><name>PT4566</name></trkpt>
<trkpt lat="53.190069" lon="-1.745971"><ele>204</ele><time>2020-01-31T11:37:03Z</time><name>PT4567</name></trkpt>
<trkpt lat="53.190066" lon="-1.745972"><ele>203</ele><time>2020-01-31T11:37:03Z</time><name>PT4568</name></trkpt>
<trkpt lat="53.190064" lon="-1.745980"><ele>203</ele><time>2020-01-31T11:37:04Z</time><name>PT4569</name></trkpt>
<trkpt lat="53.190058" lon="-1.745985"><ele>203</ele><time>2020-01-31T11:37:06Z</time><name>PT4570</name></trkpt>
<trkpt lat="53.190053" lon="-1.745987"><ele>203</ele><time>2020-01-31T11:37:06Z</time><name>PT4571</name></trkpt>
<trkpt lat="53.190045" lon="-1.745995"><ele>202</ele><time>2020-01-31T11:37:07Z</time><name>PT4572</name></trkpt>
<trkpt lat="53.190036" lon="-1.745995"><ele>202</ele><time>2020-01-31T11:37:09Z</time><name>PT4573</name></trkpt>
<trkpt lat="53.190025" lon="-1.746001"><ele>202</ele><time>2020-01-31T11:37:09Z</time><name>PT4574</name></trkpt>
<trkpt lat="53.190019" lon="-1.746009"><ele>202</ele><time>2020-01-31T11:37:10Z</time><name>PT4575</name></trkpt>
<trkpt lat="53.190015" lon="-1.746015"><ele>202</ele><time>2020-01-31T11:37:12Z</time><name>PT4576</name></trkpt>
<trkpt lat="53.190015" lon="-1.746019"><ele>202</ele><time>2020-01-31T11:37:12Z</time><name>PT4577</name></trkpt>
<trkpt lat="53.190010" lon="-1.746020"><ele>202</ele><time>2020-01-31T11:37:13Z</time><name>PT4578</name></trkpt>
<trkpt lat="53.190007" lon="-1.746030"><ele>203</ele><time>2020-01-31T11:37:15Z</time><name>PT4579</name></trkpt>
<trkpt lat="53.190002" lon="-1.746042"><ele>202</ele><time>2020-01-31T11:37:15Z</time><name>PT4580</name></trkpt>
<trkpt lat="53.190002" lon="-1.746052"><ele>202</ele><time>2020-01-31T11:37:16Z</time><name>PT4581</name></trkpt>
<trkpt lat="53.190002" lon="-1.746064"><ele>201</ele><time>2020-01-31T11:37:18Z</time><name>PT4582</name></trkpt>
<trkpt lat="53.189999" lon="-1.746068"><ele>202</ele><time>2020-01-31T11:37:18Z</time><name>PT4583</name></trkpt>
<trkpt lat="53.189993" lon="-1.746075"><ele>202</ele><time>2020-01-31T11:37:19Z</time><name>PT4584</name></trkpt>
<trkpt lat="53.189988" lon="-1.746083"><ele>203</ele><time>2020-01-31T11:37:21Z</time><name>PT4585</name></trkpt>
<trkpt lat="53.189990" lon="-1.746095"><ele>203</ele><time>2020-01-31T11:37:21Z</time><name>PT4586</name></trkpt>
<trkpt lat="53.189993" lon="-1.746105"><ele>203</ele><time>2020-01-31T11:37:22Z</time><name>PT4587</name></trkpt>
<trkpt lat="53.189997" lon="-1.746119"><ele>203</ele><time>2020-01-31T11:37:24Z</time><name>PT4588</name></trkpt>
<trkpt lat="53.190000" lon="-1.746132"><ele>203</ele><time>2020-01-31T11:37:24Z</time><name>PT4589</name></trkpt>
<trkpt lat="53.190000" lon="-1.746144"><ele>203</ele><time>2020-01-31T11:37:25Z</time><name>PT4590</name></trkpt>
<trkpt lat="53.190001" lon="-1.746156"><ele>205</ele><time>2020-01-31T11:37:27Z</time><name>PT4591</name></trkpt>
<trkpt lat="53.189999" lon="-1.746172"><ele>205</ele><time>2020-01-31T11:37:27Z</time><name>PT4592</name></trkpt>
<trkpt lat="53.189996" lon="-1.746184"><ele>206</ele><time>2020-01-31T11:37:28Z</time><name>PT4593</name></trkpt>
<trkpt lat="53.189995" lon="-1.746197"><ele>206</ele><time>2020-01-31T11:37:30Z</time><name>PT4594</name></trkpt>
<trkpt lat="53.190000" lon="-1.746210"><ele>206</ele><time>2020-01-31T11:37:30Z</time><name>PT4595</name></trkpt>
<trkpt lat="53.190003" lon="-1.746217"><ele>206</ele><time>2020-01-31T11:37:31Z</time><name>PT4596</name></trkpt>
<trkpt lat="53.190008" lon="-1.746224"><ele>207</ele><time>2020-01-31T11:37:33Z</time><name>PT4597</name></trkpt>
<trkpt lat="53.190009" lon="-1.746235"><ele>207</ele><time>2020-01-31T11:37:33Z</time><name>PT4598</name></trkpt>
<trkpt lat="53.190006" lon="-1.746245"><ele>206</ele><time>2020-01-31T11:37:34Z</time><name>PT4599</name></trkpt>
<trkpt lat="53.190010" lon="-1.746244"><ele>206</ele><time>2020-01-31T11:37:36Z</time><name>PT4600</name></trkpt>
<trkpt lat="53.190009" lon="-1.746252"><ele>206</ele><time>2020-01-31T11:37:36Z</time><name>PT4601</name></trkpt>
<trkpt lat="53.190009" lon="-1.746265"><ele>207</ele><time>2020-01-31T11:37:37Z</time><name>PT4602</name></trkpt>
<trkpt lat="53.190012" lon="-1.746273"><ele>207</ele><time>2020-01-31T11:37:39Z</time><name>PT4603</name></trkpt>
<trkpt lat="53.190011" lon="-1.746280"><ele>207</ele><time>2020-01-31T11:37:39Z</time><name>PT4604</name></trkpt>
<trkpt lat="53.190012" lon="-1.746299"><ele>209</ele><time>2020-01-31T11:37:40Z</time><name>PT4605</name></trkpt>
<trkpt lat="53.190008" lon="-1.746310"><ele>209</ele><time>2020-01-31T11:37:42Z</time><name>PT4606</name></trkpt>
<trkpt lat="53.189999" lon="-1.746326"><ele>208</ele><time>2020-01-31T11:37:42Z</time><name>PT4607</name></trkpt>
<trkpt lat="53.189987" lon="-1.746339"><ele>208</ele><time>2020-01-31T11:37:43Z</time><name>PT4608</name></trkpt>
<trkpt lat="53.189983" lon="-1.746355"><ele>208</ele><time>2020-01-31T11:37:45Z</time><name>PT4609</name></trkpt>
<trkpt lat="53.189977" lon="-1.746371"><ele>209</ele><time>2020-01-31T11:37:45Z</time><name>PT4610</name></trkpt>
<trkpt lat="53.189975" lon="-1.746384"><ele>210</ele><time>2020-01-31T11:37:46Z</time><name>PT4611</name></trkpt>
<trkpt lat="53.189978" lon="-1.746391"><ele>209</ele><time>2020-01-31T11:37:48Z</time><name>PT4612</name></trkpt>
<trkpt lat="53.189984" lon="-1.746398"><ele>209</ele><time>2020-01-31T11:37:48Z</time><name>PT4613</name></trkpt>
<trkpt lat="53.189989" lon="-1.746416"><ele>210</ele><time>2020-01-31T11:37:49Z</time><name>PT4614</name></trkpt>
<trkpt lat="53.189992" lon="-1.746436"><ele>209</ele><time>2020-01-31T11:37:51Z</time><name>PT4615</name></trkpt>
<trkpt lat="53.189998" lon="-1.746456"><ele>209</ele><time>2020-01-31T11:37:51Z</time><name>PT4616</name></trkpt>
<trkpt lat="53.189998" lon="-1.746474"><ele>208</ele><time>2020-01-31T11:37:52Z</time><name>PT4617</name></trkpt>
<trkpt lat="53.190001" lon="-1.746484"><ele>208</ele><time>2020-01-31T11:37:54Z</time><name>PT4618</name></trkpt>
<trkpt lat="53.190004" lon="-1.746497"><ele>208</ele><time>2020-01-31T11:37:54Z</time><name>PT4619</name></trkpt>
<trkpt lat="53.190007" lon="-1.746512"><ele>208</ele><time>2020-01-31T11:37:55Z</time><name>PT4620</name></trkpt>
<trkpt lat="53.190011" lon="-1.746530"><ele>208</ele><time>2020-01-31T11:37:57Z</time><name>PT4621</name></trkpt>
<trkpt lat="53.190014" lon="-1.746542"><ele>207</ele><time>2020-01-31T11:37:57Z</time><name>PT4622</name></trkpt>
<trkpt lat="53.190021" lon="-1.746553"><ele>208</ele><time>2020-01-31T11:37:58Z</time><name>PT4623</name></trkpt>
<trkpt lat="53.190021" lon="-1.746564"><ele>208</ele><time>2020-01-31T11:38:00Z</time><name>PT4624</name></trkpt>
<trkpt lat="53.190022" lon="-1.746575"><ele>208</ele><time>2020-01-31T11:38:00Z</time><name>PT4625</name></trkpt>
<trkpt lat="53.190022" lon="-1.746589"><ele>208</ele><time>2020-01-31T11:38:01Z</time><name>PT4626</name></trkpt>
<trkpt lat="53.190016" lon="-1.746603"><ele>208</ele><time>2020-01-31T11:38:03Z</time><name>PT4627</name></trkpt>
<trkpt lat="53.190013" lon="-1.746619"><ele>208</ele><time>2020-01-31T11:38:03Z</time><name>PT4628</name></trkpt>
<trkpt lat="53.190014" lon="-1.746639"><ele>207</ele><time>2020-01-31T11:38:04Z</time><name>PT4629</name></trkpt>
<trkpt lat="53.190016" lon="-1.746650"><ele>207</ele><time>2020-01-31T11:38:06Z</time><name>PT4630</name></trkpt>
<trkpt lat="53.190018" lon="-1.746666"><ele>207</ele><time>2020-01-31T11:38:06Z</time><name>PT4631</name></trkpt>
<trkpt lat="53.190022" lon="-1.746691"><ele>207</ele><time>2020-01-31T11:38:07Z</time><name>PT4632</name></trkpt>
<trkpt lat="53.190025" lon="-1.746714"><ele>206</ele><time>2020-01-31T11:38:09Z</time><name>PT4633</name></trkpt>
<trkpt lat="53.190020" lon="-1.746747"><ele>207</ele><time>2020-01-31T11:38:09Z</time><name>PT4634</name></trkpt>
<trkpt lat="53.190019" lon="-1.746772"><ele>207</ele><time>2020-01-31T11:38:10Z</time><name>PT4635</name></trkpt>
<trkpt lat="53.190026" lon="-1.746780"><ele>206</ele><time>2020-01-31T11:38:12Z</time><name>PT4636</name></trkpt>
<trkpt lat="53.190022" lon="-1.746794"><ele>206</ele><time>2020-01-31T11:38:12Z</time><name>PT4637</name></trkpt>
<trkpt lat="53.190020" lon="-1.746800"><ele>206</ele><time>2020-01-31T11:38:13Z</time><name>PT4638</name></trkpt>
<trkpt lat="53.190017" lon="-1.746818"><ele>206</ele><time>2020-01-31T11:38:15Z</time><name>PT4639</name></trkpt>
<trkpt lat="53.190013" lon="-1.746841"><ele>206</ele><time>2020-01-31T11:38:15Z</time><name>PT4640</name></trkpt>
<trkpt lat="53.190010" lon="-1.746863"><ele>206</ele><time>2020-01-31T11:38:16Z</time><name>PT4641</name></trkpt>
<trkpt lat="53.190003" lon="-1.746886"><ele>207</ele><time>2020-01-31T11:38:18Z</time><name>PT4642</name></trkpt>
<trkpt lat="53.190001" lon="-1.746901"><ele>207</ele><time>2020-01-31T11:38:18Z</time><name>PT4643</name></trkpt>
<trkpt lat="53.189995" lon="-1.746919"><ele>207</ele><time>2020-01-31T11:38:19Z</time><name>PT4644</name></trkpt>
<trkpt lat="53.189991" lon="-1.746937"><ele>207</ele><time>2020-01-31T11:38:21Z</time><name>PT4645</name></trkpt>
<trkpt lat="53.189992" lon="-1.746962"><ele>208</ele><time>2020-01-31T11:38:21Z</time><name>PT4646</name></trkpt>
<trkpt lat="53.189989" lon="-1.746988"><ele>208</ele><time>2020-01-31T11:38:22Z</time><name>PT4647</name></trkpt>
<trkpt lat="53.189987" lon="-1.747007"><ele>208</ele><time>2020-01-31T11:38:24Z</time><name>PT4648</name></trkpt>
<trkpt lat="53.189988" lon="-1.747025"><ele>209</ele><time>2020-01-31T11:38:24Z</time><name>PT4649</name></trkpt>
<trkpt lat="53.189988" lon="-1.747035"><ele>209</ele><time>2020-01-31T11:38:25Z</time><name>PT4650</name></trkpt>
<trkpt lat="53.189992" lon="-1.747047"><ele>209</ele><time>2020-01-31T11:38:27Z</time><name>PT4651</name></trkpt>
<trkpt lat="53.189993" lon="-1.747065"><ele>208</ele><time>2020-01-31T11:38:27Z</time><name>PT4652</name></trkpt>
<trkpt lat="53.189994" lon="-1.747086"><ele>208</ele><time>2020-01-31T11:38:28Z</time><name>PT4653</name></trkpt>
<trkpt lat="53.189998" lon="-1.747109"><ele>208</ele><time>2020-01-31T11:38:30Z</time><name>PT4654</name></trkpt>
<trkpt lat="53.190002" lon="-1.747125"><ele>208</ele><time>2020-01-31T11:38:30Z</time><name>PT4655</name></trkpt>
<trkpt lat="53.190007" lon="-1.747142"><ele>208</ele><time>2020-01-31T11:38:31Z</time><name>PT4656</name></trkpt>
<trkpt lat="53.190010" lon="-1.747161"><ele>208</ele><time>2020-01-31T11:38:33Z</time><name>PT4657</name></trkpt>
<trkpt lat="53.190005" lon="-1.747174"><ele>207</ele><time>2020-01-31T11:38:33Z</time><name>PT4658</name></trkpt>
<trkpt lat="53.190002" lon="-1.747191"><ele>207</ele><time>2020-01-31T11:38:34Z</time><name>PT4659</name></trkpt>
<trkpt lat="53.189993" lon="-1.747206"><ele>206</ele><time>2020-01-31T11:38:36Z</time><name>PT4660</name></trkpt>
<trkpt lat="53.189984" lon="-1.747222"><ele>205</ele><time>2020-01-31T11:38:36Z</time><name>PT4661</name></trkpt>
<trkpt lat="53.189979" lon="-1.747242"><ele>205</ele><time>2020-01-31T11:38:37Z</time><name>PT4662</name></trkpt>
<trkpt lat="53.189981" lon="-1.747262"><ele>205</ele><time>2020-01-31T11:38:39Z</time><name>PT4663</name></trkpt>
<trkpt lat="53.189984" lon="-1.747273"><ele>203</ele><time>2020-01-31T11:38:39Z</time><name>PT4664</name></trkpt>
<trkpt lat="53.189986" lon="-1.747290"><ele>203</ele><time>2020-01-31T11:38:40Z</time><name>PT4665</name></trkpt>
<trkpt lat="53.189986" lon="-1.747310"><ele>203</ele><time>2020-01-31T11:38:42Z</time><name>PT4666</name></trkpt>
<trkpt lat="53.189984" lon="-1.747323"><ele>203</ele><time>2020-01-31T11:38:42Z</time><name>PT4667</name></trkpt>
<trkpt lat="53.189983" lon="-1.747346"><ele>203</ele><time>2020-01-31T11:38:43Z</time><name>PT4668</name></trkpt>
<trkpt lat="53.189983" lon="-1.747367"><ele>204</ele><time>2020-01-31T11:38:45Z</time><name>PT4669</name></trkpt>
<trkpt lat="53.189980" lon="-1.747385"><ele>203</ele><time>2020-01-31T11:38:45Z</time><name>PT4670</name></trkpt>
<trkpt lat="53.189982" lon="-1.747402"><ele>204</ele><time>2020-01-31T11:38:46Z</time><name>PT4671</name></trkpt>
<trkpt lat="53.189978" lon="-1.747419"><ele>204</ele><time>2020-01-31T11:38:48Z</time><name>PT4672</name></trkpt>
<trkpt lat="53.189971" lon="-1.747433"><ele>204</ele><time>2020-01-31T11:38:48Z</time><name>PT4673</name></trkpt>
<trkpt lat="53.189965" lon="-1.747451"><ele>205</ele><time>2020-01-31T11:38:49Z</time><name>PT4674</name></trkpt>
<trkpt lat="53.189969" lon="-1.747467"><ele>206</ele><time>2020-01-31T11:38:51Z</time><name>PT4675</name></trkpt>
<trkpt lat="53.189970" lon="-1.747485"><ele>206</ele><time>2020-01-31T11:38:51Z</time><name>PT4676</name></trkpt>
<trkpt lat="53.189970" lon="-1.747499"><ele>206</ele><time>2020-01-31T11:38:52Z</time><name>PT4677</name></trkpt>
<trkpt lat="53.189970" lon="-1.747515"><ele>205</ele><time>2020-01-31T11:38:54Z</time><name>PT4678</name></trkpt>
<trkpt lat="53.189971" lon="-1.747529"><ele>205</ele><time>2020-01-31T11:38:54Z</time><name>PT4679</name></trkpt>
<trkpt lat="53.189968" lon="-1.747539"><ele>205</ele><time>2020-01-31T11:38:55Z</time><name>PT4680</name></trkpt>
<trkpt lat="53.189967" lon="-1.747561"><ele>205</ele><time>2020-01-31T11:38:57Z</time><name>PT4681</name></trkpt>
<trkpt lat="53.189968" lon="-1.747578"><ele>206</ele><time>2020-01-31T11:38:57Z</time><name>PT4682</name></trkpt>
<trkpt lat="53.189971" lon="-1.747591"><ele>205</ele><time>2020-01-31T11:38:58Z</time><name>PT4683</name></trkpt>
<trkpt lat="53.189981" lon="-1.747602"><ele>205</ele><time>2020-01-31T11:39:00Z</time><name>PT4684</name></trkpt>
<trkpt lat="53.189989" lon="-1.747611"><ele>205</ele><time>2020-01-31T11:39:00Z</time><name>PT4685</name></trkpt>
<trkpt lat="53.189994" lon="-1.747630"><ele>205</ele><time>2020-01-31T11:39:01Z</time><name>PT4686</name></trkpt>
<trkpt lat="53.189997" lon="-1.747646"><ele>205</ele><time>2020-01-31T11:39:03Z</time><name>PT4687</name></trkpt>
<trkpt lat="53.189999" lon="-1.747657"><ele>204</ele><time>2020-01-31T11:39:03Z</time><name>PT4688</name></trkpt>
<trkpt lat="53.190001" lon="-1.747674"><ele>203</ele><time>2020-01-31T11:39:04Z</time><name>PT4689</name></trkpt>
<trkpt lat="53.190006" lon="-1.747697"><ele>203</ele><time>2020-01-31T11:39:06Z</time><name>PT4690</name></trkpt>
<trkpt lat="53.190006" lon="-1.747693"><ele>201</ele><time>2020-01-31T11:39:06Z</time><name>PT4691</name></trkpt>
<trkpt lat="53.190012" lon="-1.747704"><ele>201</ele><time>2020-01-31T11:39:07Z</time><name>PT4692</name></trkpt>
<trkpt lat="53.190016" lon="-1.747725"><ele>201</ele><time>2020-01-31T11:39:09Z</time><name>PT4693</name></trkpt>
<trkpt lat="53.190026" lon="-1.747742"><ele>202</ele><time>2020-01-31T11:39:09Z</time><name>PT4694</name></trkpt>
<trkpt lat="53.190026" lon="-1.747758"><ele>201</ele><time>2020-01-31T11:39:10Z</time><name>PT4695</name></trkpt>
<trkpt lat="53.190029" lon="-1.747779"><ele>201</ele><time>2020-01-31T11:39:12Z</time><name>PT4696</name></trkpt>
<trkpt lat="53.190022" lon="-1.747799"><ele>202</ele><time>2020-01-31T11:39:12Z</time><name>PT4697</name></trkpt>
<trkpt lat="53.190020" lon="-1.747812"><ele>201</ele><time>2020-01-31T11:39:14Z</time><name>PT4698</name></trkpt>
<trkpt lat="53.190016" lon="-1.747831"><ele>200</ele><time>2020-01-31T11:39:15Z</time><name>PT4699</name></trkpt>
<trkpt lat="53.190017" lon="-1.747846"><ele>200</ele><time>2020-01-31T11:39:15Z</time><name>PT4700</name></trkpt>
<trkpt lat="53.190018" lon="-1.747865"><ele>200</ele><time>2020-01-31T11:39:16Z</time><name>PT4701</name></trkpt>
<trkpt lat="53.190019" lon="-1.747882"><ele>200</ele><time>2020-01-31T11:39:18Z</time><name>PT4702</name></trkpt>
<trkpt lat="53.190025" lon="-1.747899"><ele>201</ele><time>2020-01-31T11:39:18Z</time><name>PT4703</name></trkpt>
<trkpt lat="53.190023" lon="-1.747920"><ele>201</ele><time>2020-01-31T11:39:19Z</time><name>PT4704</name></trkpt>
<trkpt lat="53.190018" lon="-1.747939"><ele>200</ele><time>2020-01-31T11:39:21Z</time><name>PT4705</name></trkpt>
<trkpt lat="53.190009" lon="-1.747973"><ele>201</ele><time>2020-01-31T11:39:21Z</time><name>PT4706</name></trkpt>
<trkpt lat="53.190008" lon="-1.747996"><ele>201</ele><time>2020-01-31T11:39:22Z</time><name>PT4707</name></trkpt>
<trkpt lat="53.190006" lon="-1.748020"><ele>201</ele><time>2020-01-31T11:39:24Z</time><name>PT4708</name></trkpt>
<trkpt lat="53.190011" lon="-1.748039"><ele>200</ele><time>2020-01-31T11:39:24Z</time><name>PT4709</name></trkpt>
<trkpt lat="53.190016" lon="-1.748057"><ele>201</ele><time>2020-01-31T11:39:25Z</time><name>PT4710</name></trkpt>
<trkpt lat="53.190015" lon="-1.748074"><ele>202</ele><time>2020-01-31T11:39:27Z</time><name>PT4711</name></trkpt>
<trkpt lat="53.190022" lon="-1.748078"><ele>202</ele><time>2020-01-31T11:39:27Z</time><name>PT4712</name></trkpt>
<trkpt lat="53.190027" lon="-1.748096"><ele>203</ele><time>2020-01-31T11:39:28Z</time><name>PT4713</name></trkpt>
<trkpt lat="53.190026" lon="-1.748117"><ele>203</ele><time>2020-01-31T11:39:30Z</time><name>PT4714</name></trkpt>
<trkpt lat="53.190026" lon="-1.748129"><ele>204</ele><time>2020-01-31T11:39:30Z</time><name>PT4715</name></trkpt>
<trkpt lat="53.190028" lon="-1.748143"><ele>205</ele><time>2020-01-31T11:39:31Z</time><name>PT4716</name></trkpt>
<trkpt lat="53.190027" lon="-1.748157"><ele>205</ele><time>2020-01-31T11:39:33Z</time><name>PT4717</name></trkpt>
<trkpt lat="53.190024" lon="-1.748168"><ele>205</ele><time>2020-01-31T11:39:33Z</time><name>PT4718</name></trkpt>
<trkpt lat="53.190022" lon="-1.748181"><ele>205</ele><time>2020-01-31T11:39:34Z</time><name>PT4719</name></trkpt>
<trkpt lat="53.190017" lon="-1.748203"><ele>205</ele><time>2020-01-31T11:39:36Z</time><name>PT4720</name></trkpt>
<trkpt lat="53.190016" lon="-1.748220"><ele>206</ele><time>2020-01-31T11:39:36Z</time><name>PT4721</name></trkpt>
<trkpt lat="53.190014" lon="-1.748236"><ele>206</ele><time>2020-01-31T11:39:37Z</time><name>PT4722</name></trkpt>
<trkpt lat="53.190013" lon="-1.748253"><ele>207</ele><time>2020-01-31T11:39:39Z</time><name>PT4723</name></trkpt>
<trkpt lat="53.190019" lon="-1.748268"><ele>208</ele><time>2020-01-31T11:39:39Z</time><name>PT4724</name></trkpt>
<trkpt lat="53.190019" lon="-1.748283"><ele>208</ele><time>2020-01-31T11:39:40Z</time><name>PT4725</name></trkpt>
<trkpt lat="53.190010" lon="-1.748298"><ele>209</ele><time>2020-01-31T11:39:42Z</time><name>PT4726</name></trkpt>
<trkpt lat="53.190011" lon="-1.748311"><ele>209</ele><time>2020-01-31T11:39:42Z</time><name>PT4727</name></trkpt>
<trkpt lat="53.190010" lon="-1.748325"><ele>208</ele><time>2020-01-31T11:39:43Z</time><name>PT4728</name></trkpt>
<trkpt lat="53.190012" lon="-1.748342"><ele>209</ele><time>2020-01-31T11:39:45Z</time><name>PT4729</name></trkpt>
<trkpt lat="53.190017" lon="-1.748358"><ele>209</ele><time>2020-01-31T11:39:45Z</time><name>PT4730</name></trkpt>
<trkpt lat="53.190021" lon="-1.748373"><ele>210</ele><time>2020-01-31T11:39:46Z</time><name>PT4731</name></trkpt>
<trkpt lat="53.190029" lon="-1.748385"><ele>211</ele><time>2020-01-31T11:39:48Z</time><name>PT4732</name></trkpt>
<trkpt lat="53.190033" lon="-1.748397"><ele>211</ele><time>2020-01-31T11:39:48Z</time><name>PT4733</name></trkpt>
<trkpt lat="53.190033" lon="-1.748409"><ele>210</ele><time>2020-01-31T11:39:49Z</time><name>PT4734</name></trkpt>
<trkpt lat="53.190031" lon="-1.748426"><ele>210</ele><time>2020-01-31T11:39:51Z</time><name>PT4735</name></trkpt>
<trkpt lat="53.190034" lon="-1.748445"><ele>210</ele><time>2020-01-31T11:39:51Z</time><name>PT4736</name></trkpt>
<trkpt lat="53.190038" lon="-1.748466"><ele>210</ele><time>2020-01-31T11:39:52Z</time><name>PT4737</name></trkpt>
<trkpt lat="53.190041" lon="-1.748481"><ele>210</ele><time>2020-01-31T11:39:54Z</time><name>PT4738</name></trkpt>
<trkpt lat="53.190045" lon="-1.748498"><ele>210</ele><time>2020-01-31T11:39:54Z</time><name>PT4739</name></trkpt>
<trkpt lat="53.190045" lon="-1.748520"><ele>209</ele><time>2020-01-31T11:39:55Z</time><name>PT4740</name></trkpt>
<trkpt lat="53.190050" lon="-1.748533"><ele>210</ele><time>2020-01-31T11:39:57Z</time><name>PT4741</name></trkpt>
<trkpt lat="53.190052" lon="-1.748546"><ele>210</ele><time>2020-01-31T11:39:57Z</time><name>PT4742</name></trkpt>
<trkpt lat="53.190056" lon="-1.748559"><ele>210</ele><time>2020-01-31T11:39:58Z</time><name>PT4743</name></trkpt>
<trkpt lat="53.190065" lon="-1.748568"><ele>210</ele><time>2020-01-31T11:40:00Z</time><name>PT4744</name></trkpt>
<trkpt lat="53.190073" lon="-1.748581"><ele>211</ele><time>2020-01-31T11:40:00Z</time><name>PT4745</name></trkpt>
<trkpt lat="53.190080" lon="-1.748590"><ele>211</ele><time>2020-01-31T11:40:01Z</time><name>PT4746</name></trkpt>
<trkpt lat="53.190087" lon="-1.748601"><ele>212</ele><time>2020-01-31T11:40:03Z</time><name>PT4747</name></trkpt>
<trkpt lat="53.190089" lon="-1.748616"><ele>212</ele><time>2020-01-31T11:40:03Z</time><name>PT4748</name></trkpt>
<trkpt lat="53.190093" lon="-1.748635"><ele>212</ele><time>2020-01-31T11:40:04Z</time><name>PT4749</name></trkpt>
<trkpt lat="53.190098" lon="-1.748653"><ele>211</ele><time>2020-01-31T11:40:06Z</time><name>PT4750</name></trkpt>
<trkpt lat="53.190098" lon="-1.748676"><ele>211</ele><time>2020-01-31T11:40:06Z</time><name>PT4751</name></trkpt>
<trkpt lat="53.190101" lon="-1.748693"><ele>210</ele><time>2020-01-31T11:40:07Z</time><name>PT4752</name></trkpt>
<trkpt lat="53.190105" lon="-1.748707"><ele>210</ele><time>2020-01-31T11:40:09Z</time><name>PT4753</name></trkpt>
<trkpt lat="53.190109" lon="-1.748720"><ele>209</ele><time>2020-01-31T11:40:09Z</time><name>PT4754</name></trkpt>
<trkpt lat="53.190114" lon="-1.748730"><ele>210</ele><time>2020-01-31T11:40:10Z</time><name>PT4755</name></trkpt>
<trkpt lat="53.190120" lon="-1.748737"><ele>210</ele><time>2020-01-31T11:40:12Z</time><name>PT4756</name></trkpt>
<trkpt lat="53.190123" lon="-1.748751"><ele>210</ele><time>2020-01-31T11:40:12Z</time><name>PT4757</name></trkpt>
<trkpt lat="53.190123" lon="-1.748771"><ele>210</ele><time>2020-01-31T11:40:13Z</time><name>PT4758</name></trkpt>
<trkpt lat="53.190129" lon="-1.748789"><ele>210</ele><time>2020-01-31T11:40:15Z</time><name>PT4759</name></trkpt>
<trkpt lat="53.190136" lon="-1.748802"><ele>210</ele><time>2020-01-31T11:40:15Z</time><name>PT4760</name></trkpt>
<trkpt lat="53.190138" lon="-1.748818"><ele>210</ele><time>2020-01-31T11:40:16Z</time><name>PT4761</name></trkpt>
<trkpt lat="53.190145" lon="-1.748832"><ele>210</ele><time>2020-01-31T11:40:18Z</time><name>PT4762</name></trkpt>
<trkpt lat="53.190141" lon="-1.748860"><ele>208</ele><time>2020-01-31T11:40:18Z</time><name>PT4763</name></trkpt>
<trkpt lat="53.190145" lon="-1.748872"><ele>208</ele><time>2020-01-31T11:40:19Z</time><name>PT4764</name></trkpt>
<trkpt lat="53.190148" lon="-1.748886"><ele>209</ele><time>2020-01-31T11:40:21Z</time><name>PT4765</name></trkpt>
<trkpt lat="53.190154" lon="-1.748898"><ele>209</ele><time>2020-01-31T11:40:21Z</time><name>PT4766</name></trkpt>
<trkpt lat="53.190162" lon="-1.748912"><ele>210</ele><time>2020-01-31T11:40:22Z</time><name>PT4767</name></trkpt>
<trkpt lat="53.190168" lon="-1.748918"><ele>210</ele><time>2020-01-31T11:40:24Z</time><name>PT4768</name></trkpt>
<trkpt lat="53.190174" lon="-1.748929"><ele>210</ele><time>2020-01-31T11:40:24Z</time><name>PT4769</name></trkpt>
<trkpt lat="53.190179" lon="-1.748939"><ele>210</ele><time>2020-01-31T11:40:25Z</time><name>PT4770</name></trkpt>
<trkpt lat="53.190180" lon="-1.748956"><ele>209</ele><time>2020-01-31T11:40:27Z</time><name>PT4771</name></trkpt>
<trkpt lat="53.190184" lon="-1.748971"><ele>209</ele><time>2020-01-31T11:40:27Z</time><name>PT4772</name></trkpt>
<trkpt lat="53.190188" lon="-1.748982"><ele>208</ele><time>2020-01-31T11:40:28Z</time><name>PT4773</name></trkpt>
<trkpt lat="53.190195" lon="-1.748991"><ele>208</ele><time>2020-01-31T11:40:30Z</time><name>PT4774</name></trkpt>
<trkpt lat="53.190202" lon="-1.748998"><ele>207</ele><time>2020-01-31T11:40:30Z</time><name>PT4775</name></trkpt>
<trkpt lat="53.190205" lon="-1.749007"><ele>207</ele><time>2020-01-31T11:40:31Z</time><name>PT4776</name></trkpt>
<trkpt lat="53.190208" lon="-1.749012"><ele>207</ele><time>2020-01-31T11:40:33Z</time><name>PT4777</name></trkpt>
<trkpt lat="53.190209" lon="-1.749022"><ele>207</ele><time>2020-01-31T11:40:33Z</time><name>PT4778</name></trkpt>
<trkpt lat="53.190216" lon="-1.749023"><ele>207</ele><time>2020-01-31T11:40:34Z</time><name>PT4779</name></trkpt>
<trkpt lat="53.190220" lon="-1.749035"><ele>207</ele><time>2020-01-31T11:40:36Z</time><name>PT4780</name></trkpt>
<trkpt lat="53.190223" lon="-1.749048"><ele>207</ele><time>2020-01-31T11:40:36Z</time><name>PT4781</name></trkpt>
<trkpt lat="53.190224" lon="-1.749060"><ele>205</ele><time>2020-01-31T11:40:37Z</time><name>PT4782</name></trkpt>
<trkpt lat="53.190227" lon="-1.749076"><ele>205</ele><time>2020-01-31T11:40:39Z</time><name>PT4783</name></trkpt>
<trkpt lat="53.190235" lon="-1.749080"><ele>204</ele><time>2020-01-31T11:40:39Z</time><name>PT4784</name></trkpt>
<trkpt lat="53.190247" lon="-1.749085"><ele>204</ele><time>2020-01-31T11:40:40Z</time><name>PT4785</name></trkpt>
<trkpt lat="53.190261" lon="-1.749091"><ele>204</ele><time>2020-01-31T11:40:42Z</time><name>PT4786</name></trkpt>
<trkpt lat="53.190269" lon="-1.749106"><ele>203</ele><time>2020-01-31T11:40:42Z</time><name>PT4787</name></trkpt>
<trkpt lat="53.190275" lon="-1.749115"><ele>204</ele><time>2020-01-31T11:40:43Z</time><name>PT4788</name></trkpt>
<trkpt lat="53.190283" lon="-1.749125"><ele>205</ele><time>2020-01-31T11:40:45Z</time><name>PT4789</name></trkpt>
<trkpt lat="53.190287" lon="-1.749137"><ele>205</ele><time>2020-01-31T11:40:45Z</time><name>PT4790</name></trkpt>
<trkpt lat="53.190290" lon="-1.749147"><ele>205</ele><time>2020-01-31T11:40:46Z</time><name>PT4791</name></trkpt>
<trkpt lat="53.190294" lon="-1.749156"><ele>205</ele><time>2020-01-31T11:40:48Z</time><name>PT4792</name></trkpt>
<trkpt lat="53.190302" lon="-1.749169"><ele>206</ele><time>2020-01-31T11:40:48Z</time><name>PT4793</name></trkpt>
<trkpt lat="53.190308" lon="-1.749176"><ele>206</ele><time>2020-01-31T11:40:49Z</time><name>PT4794</name></trkpt>
<trkpt lat="53.190314" lon="-1.749187"><ele>207</ele><time>2020-01-31T11:40:51Z</time><name>PT4795</name></trkpt>
<trkpt lat="53.190320" lon="-1.749200"><ele>207</ele><time>2020-01-31T11:40:51Z</time><name>PT4796</name></trkpt>
<trkpt lat="53.190328" lon="-1.749210"><ele>208</ele><time>2020-01-31T11:40:52Z</time><name>PT4797</name></trkpt>
<trkpt lat="53.190338" lon="-1.749217"><ele>207</ele><time>2020-01-31T11:40:54Z</time><name>PT4798</name></trkpt>
<trkpt lat="53.190345" lon="-1.749230"><ele>207</ele><time>2020-01-31T11:40:54Z</time><name>PT4799</name></trkpt>
<trkpt lat="53.190349" lon="-1.749244"><ele>207</ele><time>2020-01-31T11:40:55Z</time><name>PT4800</name></trkpt>
<trkpt lat="53.190355" lon="-1.749257"><ele>207</ele><time>2020-01-31T11:40:57Z</time><name>PT4801</name></trkpt>
<trkpt lat="53.190361" lon="-1.749265"><ele>206</ele><time>2020-01-31T11:40:57Z</time><name>PT4802</name></trkpt>
<trkpt lat="53.190366" lon="-1.749277"><ele>207</ele><time>2020-01-31T11:40:58Z</time><name>PT4803</name></trkpt>
<trkpt lat="53.190369" lon="-1.749291"><ele>207</ele><time>2020-01-31T11:41:00Z</time><name>PT4804</name></trkpt>
<trkpt lat="53.190374" lon="-1.749304"><ele>207</ele><time>2020-01-31T11:41:00Z</time><name>PT4805</name></trkpt>
<trkpt lat="53.190377" lon="-1.749317"><ele>207</ele><time>2020-01-31T11:41:01Z</time><name>PT4806</name></trkpt>
<trkpt lat="53.190383" lon="-1.749332"><ele>207</ele><time>2020-01-31T11:41:03Z</time><name>PT4807</name></trkpt>
<trkpt lat="53.190393" lon="-1.749345"><ele>207</ele><time>2020-01-31T11:41:03Z</time><name>PT4808</name></trkpt>
<trkpt lat="53.190398" lon="-1.749355"><ele>208</ele><time>2020-01-31T11:41:04Z</time><name>PT4809</name></trkpt>
<trkpt lat="53.190398" lon="-1.749369"><ele>207</ele><time>2020-01-31T11:41:06Z</time><name>PT4810</name></trkpt>
<trkpt lat="53.190403" lon="-1.749376"><ele>207</ele><time>2020-01-31T11:41:06Z</time><name>PT4811</name></trkpt>
<trkpt lat="53.190403" lon="-1.749384"><ele>206</ele><time>2020-01-31T11:41:07Z</time><name>PT4812</name></trkpt>
<trkpt lat="53.190404" lon="-1.749392"><ele>207</ele><time>2020-01-31T11:41:09Z</time><name>PT4813</name></trkpt>
<trkpt lat="53.190401" lon="-1.749411"><ele>207</ele><time>2020-01-31T11:41:09Z</time><name>PT4814</name></trkpt>
<trkpt lat="53.190403" lon="-1.749421"><ele>206</ele><time>2020-01-31T11:41:10Z</time><name>PT4815</name></trkpt>
<trkpt lat="53.190411" lon="-1.749432"><ele>207</ele><time>2020-01-31T11:41:12Z</time><name>PT4816</name></trkpt>
<trkpt lat="53.190419" lon="-1.749442"><ele>207</ele><time>2020-01-31T11:41:12Z</time><name>PT4817</name></trkpt>
<trkpt lat="53.190427" lon="-1.749448"><ele>208</ele><time>2020-01-31T11:41:13Z</time><name>PT4818</name></trkpt>
<trkpt lat="53.190431" lon="-1.749457"><ele>208</ele><time>2020-01-31T11:41:15Z</time><name>PT4819</name></trkpt>
<trkpt lat="53.190436" lon="-1.749470"><ele>208</ele><time>2020-01-31T11:41:15Z</time><name>PT4820</name></trkpt>
<trkpt lat="53.190442" lon="-1.749480"><ele>208</ele><time>2020-01-31T11:41:16Z</time><name>PT4821</name></trkpt>
<trkpt lat="53.190447" lon="-1.749489"><ele>208</ele><time>2020-01-31T11:41:18Z</time><name>PT4822</name></trkpt>
<trkpt lat="53.190452" lon="-1.749499"><ele>208</ele><time>2020-01-31T11:41:18Z</time><name>PT4823</name></trkpt>
<trkpt lat="53.190461" lon="-1.749510"><ele>207</ele><time>2020-01-31T11:41:19Z</time><name>PT4824</name></trkpt>
<trkpt lat="53.190468" lon="-1.749521"><ele>208</ele><time>2020-01-31T11:41:21Z</time><name>PT4825</name></trkpt>
<trkpt lat="53.190473" lon="-1.749530"><ele>208</ele><time>2020-01-31T11:41:21Z</time><name>PT4826</name></trkpt>
<trkpt lat="53.190480" lon="-1.749534"><ele>208</ele><time>2020-01-31T11:41:22Z</time><name>PT4827</name></trkpt>
<trkpt lat="53.190487" lon="-1.749548"><ele>209</ele><time>2020-01-31T11:41:24Z</time><name>PT4828</name></trkpt>
<trkpt lat="53.190489" lon="-1.749557"><ele>208</ele><time>2020-01-31T11:41:24Z</time><name>PT4829</name></trkpt>
<trkpt lat="53.190490" lon="-1.749570"><ele>208</ele><time>2020-01-31T11:41:26Z</time><name>PT4830</name></trkpt>
<trkpt lat="53.190494" lon="-1.749578"><ele>208</ele><time>2020-01-31T11:41:27Z</time><name>PT4831</name></trkpt>
<trkpt lat="53.190498" lon="-1.749592"><ele>208</ele><time>2020-01-31T11:41:27Z</time><name>PT4832</name></trkpt>
<trkpt lat="53.190501" lon="-1.749606"><ele>208</ele><time>2020-01-31T11:41:28Z</time><name>PT4833</name></trkpt>
<trkpt lat="53.190508" lon="-1.749615"><ele>208</ele><time>2020-01-31T11:41:30Z</time><name>PT4834</name></trkpt>
<trkpt lat="53.190513" lon="-1.749629"><ele>208</ele><time>2020-01-31T11:41:30Z</time><name>PT4835</name></trkpt>
<trkpt lat="53.190521" lon="-1.749634"><ele>208</ele><time>2020-01-31T11:41:31Z</time><name>PT4836</name></trkpt>
<trkpt lat="53.190527" lon="-1.749644"><ele>208</ele><time>2020-01-31T11:41:33Z</time><name>PT4837</name></trkpt>
<trkpt lat="53.190534" lon="-1.749654"><ele>208</ele><time>2020-01-31T11:41:33Z</time><name>PT4838</name></trkpt>
<trkpt lat="53.190542" lon="-1.749662"><ele>208</ele><time>2020-01-31T11:41:34Z</time><name>PT4839</name></trkpt>
<trkpt lat="53.190553" lon="-1.749673"><ele>208</ele><time>2020-01-31T11:41:36Z</time><name>PT4840</name></trkpt>
<trkpt lat="53.190558" lon="-1.749679"><ele>208</ele><time>2020-01-31T11:41:36Z</time><name>PT4841</name></trkpt>
<trkpt lat="53.190564" lon="-1.749688"><ele>208</ele><time>2020-01-31T11:41:37Z</time><name>PT4842</name></trkpt>
<trkpt lat="53.190566" lon="-1.749699"><ele>208</ele><time>2020-01-31T11:41:39Z</time><name>PT4843</name></trkpt>
<trkpt lat="53.190570" lon="-1.749717"><ele>209</ele><time>2020-01-31T11:41:39Z</time><name>PT4844</name></trkpt>
<trkpt lat="53.190577" lon="-1.749731"><ele>209</ele><time>2020-01-31T11:41:40Z</time><name>PT4845</name></trkpt>
<trkpt lat="53.190585" lon="-1.749745"><ele>210</ele><time>2020-01-31T11:41:42Z</time><name>PT4846</name></trkpt>
<trkpt lat="53.190590" lon="-1.749762"><ele>210</ele><time>2020-01-31T11:41:42Z</time><name>PT4847</name></trkpt>
<trkpt lat="53.190590" lon="-1.749783"><ele>210</ele><time>2020-01-31T11:41:43Z</time><name>PT4848</name></trkpt>
<trkpt lat="53.190595" lon="-1.749799"><ele>210</ele><time>2020-01-31T11:41:45Z</time><name>PT4849</name></trkpt>
<trkpt lat="53.190599" lon="-1.749809"><ele>210</ele><time>2020-01-31T11:41:45Z</time><name>PT4850</name></trkpt>
<trkpt lat="53.190603" lon="-1.749826"><ele>210</ele><time>2020-01-31T11:41:46Z</time><name>PT4851</name></trkpt>
<trkpt lat="53.190607" lon="-1.749841"><ele>210</ele><time>2020-01-31T11:41:48Z</time><name>PT4852</name></trkpt>
<trkpt lat="53.190609" lon="-1.749855"><ele>210</ele><time>2020-01-31T11:41:48Z</time><name>PT4853</name></trkpt>
<trkpt lat="53.190608" lon="-1.749874"><ele>210</ele><time>2020-01-31T11:41:49Z</time><name>PT4854</name></trkpt>
<trkpt lat="53.190609" lon="-1.749891"><ele>210</ele><time>2020-01-31T11:41:51Z</time><name>PT4855</name></trkpt>
<trkpt lat="53.190607" lon="-1.749915"><ele>210</ele><time>2020-01-31T11:41:51Z</time><name>PT4856</name></trkpt>
<trkpt lat="53.190608" lon="-1.749939"><ele>209</ele><time>2020-01-31T11:41:52Z</time><name>PT4857</name></trkpt>
<trkpt lat="53.190609" lon="-1.749956"><ele>209</ele><time>2020-01-31T11:41:54Z</time><name>PT4858</name></trkpt>
<trkpt lat="53.190613" lon="-1.749974"><ele>209</ele><time>2020-01-31T11:41:54Z</time><name>PT4859</name></trkpt>
<trkpt lat="53.190618" lon="-1.749992"><ele>210</ele><time>2020-01-31T11:41:55Z</time><name>PT4860</name></trkpt>
<trkpt lat="53.190623" lon="-1.750006"><ele>210</ele><time>2020-01-31T11:41:57Z</time><name>PT4861</name></trkpt>
<trkpt lat="53.190625" lon="-1.750022"><ele>209</ele><time>2020-01-31T11:41:57Z</time><name>PT4862</name></trkpt>
<trkpt lat="53.190627" lon="-1.750042"><ele>209</ele><time>2020-01-31T11:41:58Z</time><name>PT4863</name></trkpt>
<trkpt lat="53.190630" lon="-1.750055"><ele>209</ele><time>2020-01-31T11:42:00Z</time><name>PT4864</name></trkpt>
<trkpt lat="53.190636" lon="-1.750068"><ele>209</ele><time>2020-01-31T11:42:00Z</time><name>PT4865</name></trkpt>
<trkpt lat="53.190643" lon="-1.750075"><ele>209</ele><time>2020-01-31T11:42:01Z</time><name>PT4866</name></trkpt>
<trkpt lat="53.190648" lon="-1.750091"><ele>210</ele><time>2020-01-31T11:42:03Z</time><name>PT4867</name></trkpt>
<trkpt lat="53.190654" lon="-1.750107"><ele>210</ele><time>2020-01-31T11:42:03Z</time><name>PT4868</name></trkpt>
<trkpt lat="53.190662" lon="-1.750117"><ele>210</ele><time>2020-01-31T11:42:04Z</time><name>PT4869</name></trkpt>
<trkpt lat="53.190675" lon="-1.750132"><ele>211</ele><time>2020-01-31T11:42:06Z</time><name>PT4870</name></trkpt>
<trkpt lat="53.190685" lon="-1.750138"><ele>210</ele><time>2020-01-31T11:42:06Z</time><name>PT4871</name></trkpt>
<trkpt lat="53.190692" lon="-1.750149"><ele>210</ele><time>2020-01-31T11:42:07Z</time><name>PT4872</name></trkpt>
<trkpt lat="53.190700" lon="-1.750167"><ele>210</ele><time>2020-01-31T11:42:09Z</time><name>PT4873</name></trkpt>
<trkpt lat="53.190705" lon="-1.750186"><ele>211</ele><time>2020-01-31T11:42:09Z</time><name>PT4874</name></trkpt>
<trkpt lat="53.190709" lon="-1.750201"><ele>211</ele><time>2020-01-31T11:42:10Z</time><name>PT4875</name></trkpt>
<trkpt lat="53.190709" lon="-1.750219"><ele>211</ele><time>2020-01-31T11:42:12Z</time><name>PT4876</name></trkpt>
<trkpt lat="53.190711" lon="-1.750225"><ele>211</ele><time>2020-01-31T11:42:12Z</time><name>PT4877</name></trkpt>
<trkpt lat="53.190712" lon="-1.750237"><ele>211</ele><time>2020-01-31T11:42:13Z</time><name>PT4878</name></trkpt>
<trkpt lat="53.190717" lon="-1.750250"><ele>211</ele><time>2020-01-31T11:42:15Z</time><name>PT4879</name></trkpt>
<trkpt lat="53.190723" lon="-1.750261"><ele>212</ele><time>2020-01-31T11:42:15Z</time><name>PT4880</name></trkpt>
<trkpt lat="53.190727" lon="-1.750281"><ele>213</ele><time>2020-01-31T11:42:16Z</time><name>PT4881</name></trkpt>
<trkpt lat="53.190726" lon="-1.750299"><ele>214</ele><time>2020-01-31T11:42:18Z</time><name>PT4882</name></trkpt>
<trkpt lat="53.190719" lon="-1.750317"><ele>214</ele><time>2020-01-31T11:42:18Z</time><name>PT4883</name></trkpt>
<trkpt lat="53.190717" lon="-1.750332"><ele>215</ele><time>2020-01-31T11:42:19Z</time><name>PT4884</name></trkpt>
<trkpt lat="53.190715" lon="-1.750347"><ele>215</ele><time>2020-01-31T11:42:21Z</time><name>PT4885</name></trkpt>
<trkpt lat="53.190718" lon="-1.750353"><ele>214</ele><time>2020-01-31T11:42:21Z</time><name>PT4886</name></trkpt>
<trkpt lat="53.190720" lon="-1.750367"><ele>214</ele><time>2020-01-31T11:42:22Z</time><name>PT4887</name></trkpt>
<trkpt lat="53.190726" lon="-1.750381"><ele>214</ele><time>2020-01-31T11:42:24Z</time><name>PT4888</name></trkpt>
<trkpt lat="53.190728" lon="-1.750395"><ele>213</ele><time>2020-01-31T11:42:24Z</time><name>PT4889</name></trkpt>
<trkpt lat="53.190726" lon="-1.750408"><ele>213</ele><time>2020-01-31T11:42:25Z</time><name>PT4890</name></trkpt>
<trkpt lat="53.190726" lon="-1.750415"><ele>213</ele><time>2020-01-31T11:42:27Z</time><name>PT4891</name></trkpt>
<trkpt lat="53.190728" lon="-1.750424"><ele>213</ele><time>2020-01-31T11:42:27Z</time><name>PT4892</name></trkpt>
<trkpt lat="53.190729" lon="-1.750433"><ele>213</ele><time>2020-01-31T11:42:28Z</time><name>PT4893</name></trkpt>
<trkpt lat="53.190731" lon="-1.750446"><ele>213</ele><time>2020-01-31T11:42:30Z</time><name>PT4894</name></trkpt>
<trkpt lat="53.190734" lon="-1.750448"><ele>213</ele><time>2020-01-31T11:42:30Z</time><name>PT4895</name></trkpt>
<trkpt lat="53.190734" lon="-1.750461"><ele>214</ele><time>2020-01-31T11:42:31Z</time><name>PT4896</name></trkpt>
<trkpt lat="53.190738" lon="-1.750468"><ele>214</ele><time>2020-01-31T11:42:33Z</time><name>PT4897</name></trkpt>
<trkpt lat="53.190739" lon="-1.750477"><ele>214</ele><time>2020-01-31T11:42:33Z</time><name>PT4898</name></trkpt>
<trkpt lat="53.190742" lon="-1.750486"><ele>214</ele><time>2020-01-31T11:42:34Z</time><name>PT4899</name></trkpt>
<trkpt lat="53.190746" lon="-1.750498"><ele>213</ele><time>2020-01-31T11:42:36Z</time><name>PT4900</name></trkpt>
<trkpt lat="53.190749" lon="-1.750505"><ele>214</ele><time>2020-01-31T11:42:36Z</time><name>PT4901</name></trkpt>
<trkpt lat="53.190750" lon="-1.750517"><ele>213</ele><time>2020-01-31T11:42:37Z</time><name>PT4902</name></trkpt>
<trkpt lat="53.190753" lon="-1.750529"><ele>214</ele><time>2020-01-31T11:42:39Z</time><name>PT4903</name></trkpt>
<trkpt lat="53.190756" lon="-1.750544"><ele>214</ele><time>2020-01-31T11:42:39Z</time><name>PT4904</name></trkpt>
<trkpt lat="53.190760" lon="-1.750557"><ele>214</ele><time>2020-01-31T11:42:40Z</time><name>PT4905</name></trkpt>
<trkpt lat="53.190763" lon="-1.750569"><ele>215</ele><time>2020-01-31T11:42:42Z</time><name>PT4906</name></trkpt>
<trkpt lat="53.190768" lon="-1.750582"><ele>215</ele><time>2020-01-31T11:42:42Z</time><name>PT4907</name></trkpt>
<trkpt lat="53.190772" lon="-1.750592"><ele>214</ele><time>2020-01-31T11:42:43Z</time><name>PT4908</name></trkpt>
<trkpt lat="53.190775" lon="-1.750601"><ele>214</ele><time>2020-01-31T11:42:45Z</time><name>PT4909</name></trkpt>
<trkpt lat="53.190782" lon="-1.750607"><ele>213</ele><time>2020-01-31T11:42:45Z</time><name>PT4910</name></trkpt>
<trkpt lat="53.190786" lon="-1.750622"><ele>213</ele><time>2020-01-31T11:42:46Z</time><name>PT4911</name></trkpt>
<trkpt lat="53.190790" lon="-1.750636"><ele>213</ele><time>2020-01-31T11:42:48Z</time><name>PT4912</name></trkpt>
<trkpt lat="53.190792" lon="-1.750650"><ele>212</ele><time>2020-01-31T11:42:48Z</time><name>PT4913</name></trkpt>
<trkpt lat="53.190798" lon="-1.750663"><ele>212</ele><time>2020-01-31T11:42:49Z</time><name>PT4914</name></trkpt>
<trkpt lat="53.190804" lon="-1.750676"><ele>213</ele><time>2020-01-31T11:42:51Z</time><name>PT4915</name></trkpt>
<trkpt lat="53.190810" lon="-1.750691"><ele>213</ele><time>2020-01-31T11:42:51Z</time><name>PT4916</name></trkpt>
<trkpt lat="53.190817" lon="-1.750705"><ele>213</ele><time>2020-01-31T11:42:52Z</time><name>PT4917</name></trkpt>
<trkpt lat="53.190822" lon="-1.750718"><ele>213</ele><time>2020-01-31T11:42:54Z</time><name>PT4918</name></trkpt>
<trkpt lat="53.190824" lon="-1.750731"><ele>213</ele><time>2020-01-31T11:42:54Z</time><name>PT4919</name></trkpt>
<trkpt lat="53.190824" lon="-1.750745"><ele>212</ele><time>2020-01-31T11:42:55Z</time><name>PT4920</name></trkpt>
<trkpt lat="53.190822" lon="-1.750759"><ele>212</ele><time>2020-01-31T11:42:57Z</time><name>PT4921</name></trkpt>
<trkpt lat="53.190826" lon="-1.750769"><ele>211</ele><time>2020-01-31T11:42:57Z</time><name>PT4922</name></trkpt>
<trkpt lat="53.190833" lon="-1.750783"><ele>211</ele><time>2020-01-31T11:42:58Z</time><name>PT4923</name></trkpt>
<trkpt lat="53.190835" lon="-1.750804"><ele>211</ele><time>2020-01-31T11:43:00Z</time><name>PT4924</name></trkpt>
<trkpt lat="53.190841" lon="-1.750812"><ele>211</ele><time>2020-01-31T11:43:00Z</time><name>PT4925</name></trkpt>
<trkpt lat="53.190847" lon="-1.750821"><ele>211</ele><time>2020-01-31T11:43:01Z</time><name>PT4926</name></trkpt>
<trkpt lat="53.190850" lon="-1.750830"><ele>212</ele><time>2020-01-31T11:43:03Z</time><name>PT4927</name></trkpt>
<trkpt lat="53.190851" lon="-1.750843"><ele>211</ele><time>2020-01-31T11:43:03Z</time><name>PT4928</name></trkpt>
<trkpt lat="53.190859" lon="-1.750856"><ele>211</ele><time>2020-01-31T11:43:04Z</time><name>PT4929</name></trkpt>
<trkpt lat="53.190866" lon="-1.750873"><ele>211</ele><time>2020-01-31T11:43:06Z</time><name>PT4930</name></trkpt>
<trkpt lat="53.190870" lon="-1.750887"><ele>211</ele><time>2020-01-31T11:43:06Z</time><name>PT4931</name></trkpt>
<trkpt lat="53.190871" lon="-1.750903"><ele>212</ele><time>2020-01-31T11:43:07Z</time><name>PT4932</name></trkpt>
<trkpt lat="53.190873" lon="-1.750913"><ele>212</ele><time>2020-01-31T11:43:09Z</time><name>PT4933</name></trkpt>
<trkpt lat="53.190876" lon="-1.750921"><ele>213</ele><time>2020-01-31T11:43:09Z</time><name>PT4934</name></trkpt>
<trkpt lat="53.190875" lon="-1.750927"><ele>213</ele><time>2020-01-31T11:43:10Z</time><name>PT4935</name></trkpt>
<trkpt lat="53.190873" lon="-1.750933"><ele>212</ele><time>2020-01-31T11:43:12Z</time><name>PT4936</name></trkpt>
<trkpt lat="53.190877" lon="-1.750945"><ele>211</ele><time>2020-01-31T11:43:12Z</time><name>PT4937</name></trkpt>
<trkpt lat="53.190876" lon="-1.750959"><ele>212</ele><time>2020-01-31T11:43:13Z</time><name>PT4938</name></trkpt>
<trkpt lat="53.190876" lon="-1.750977"><ele>212</ele><time>2020-01-31T11:43:15Z</time><name>PT4939</name></trkpt>
<trkpt lat="53.190879" lon="-1.750987"><ele>213</ele><time>2020-01-31T11:43:15Z</time><name>PT4940</name></trkpt>
<trkpt lat="53.190878" lon="-1.751005"><ele>213</ele><time>2020-01-31T11:43:16Z</time><name>PT4941</name></trkpt>
<trkpt lat="53.190887" lon="-1.751015"><ele>215</ele><time>2020-01-31T11:43:18Z</time><name>PT4942</name></trkpt>
<trkpt lat="53.190892" lon="-1.751024"><ele>216</ele><time>2020-01-31T11:43:18Z</time><name>PT4943</name></trkpt>
<trkpt lat="53.190898" lon="-1.751037"><ele>216</ele><time>2020-01-31T11:43:19Z</time><name>PT4944</name></trkpt>
<trkpt lat="53.190903" lon="-1.751044"><ele>216</ele><time>2020-01-31T11:43:21Z</time><name>PT4945</name></trkpt>
<trkpt lat="53.190907" lon="-1.751056"><ele>216</ele><time>2020-01-31T11:43:21Z</time><name>PT4946</name></trkpt>
<trkpt lat="53.190909" lon="-1.751069"><ele>217</ele><time>2020-01-31T11:43:22Z</time><name>PT4947</name></trkpt>
<trkpt lat="53.190912" lon="-1.751084"><ele>217</ele><time>2020-01-31T11:43:24Z</time><name>PT4948</name></trkpt>
<trkpt lat="53.190916" lon="-1.751097"><ele>216</ele><time>2020-01-31T11:43:24Z</time><name>PT4949</name></trkpt>
<trkpt lat="53.190923" lon="-1.751112"><ele>216</ele><time>2020-01-31T11:43:25Z</time><name>PT4950</name></trkpt>
<trkpt lat="53.190927" lon="-1.751127"><ele>217</ele><time>2020-01-31T11:43:27Z</time><name>PT4951</name></trkpt>
<trkpt lat="53.190931" lon="-1.751145"><ele>217</ele><time>2020-01-31T11:43:27Z</time><name>PT4952</name></trkpt>
<trkpt lat="53.190932" lon="-1.751167"><ele>217</ele><time>2020-01-31T11:43:28Z</time><name>PT4953</name></trkpt>
<trkpt lat="53.190930" lon="-1.751187"><ele>217</ele><time>2020-01-31T11:43:30Z</time><name>PT4954</name></trkpt>
<trkpt lat="53.190934" lon="-1.751199"><ele>217</ele><time>2020-01-31T11:43:30Z</time><name>PT4955</name></trkpt>
<trkpt lat="53.190930" lon="-1.751222"><ele>215</ele><time>2020-01-31T11:43:31Z</time><name>PT4956</name></trkpt>
<trkpt lat="53.190932" lon="-1.751235"><ele>216</ele><time>2020-01-31T11:43:33Z</time><name>PT4957</name></trkpt>
<trkpt lat="53.190939" lon="-1.751247"><ele>216</ele><time>2020-01-31T11:43:33Z</time><name>PT4958</name></trkpt>
<trkpt lat="53.190942" lon="-1.751255"><ele>216</ele><time>2020-01-31T11:43:34Z</time><name>PT4959</name></trkpt>
<trkpt lat="53.190942" lon="-1.751272"><ele>215</ele><time>2020-01-31T11:43:36Z</time><name>PT4960</name></trkpt>
<trkpt lat="53.190948" lon="-1.751288"><ele>215</ele><time>2020-01-31T11:43:36Z</time><name>PT4961</name></trkpt>
<trkpt lat="53.190947" lon="-1.751305"><ele>215</ele><time>2020-01-31T11:43:37Z</time><name>PT4962</name></trkpt>
<trkpt lat="53.190946" lon="-1.751325"><ele>214</ele><time>2020-01-31T11:43:39Z</time><name>PT4963</name></trkpt>
<trkpt lat="53.190946" lon="-1.751340"><ele>214</ele><time>2020-01-31T11:43:39Z</time><name>PT4964</name></trkpt>
<trkpt lat="53.190946" lon="-1.751350"><ele>214</ele><time>2020-01-31T11:43:40Z</time><name>PT4965</name></trkpt>
<trkpt lat="53.190944" lon="-1.751360"><ele>214</ele><time>2020-01-31T11:43:42Z</time><name>PT4966</name></trkpt>
<trkpt lat="53.190941" lon="-1.751376"><ele>213</ele><time>2020-01-31T11:43:42Z</time><name>PT4967</name></trkpt>
<trkpt lat="53.190938" lon="-1.751396"><ele>213</ele><time>2020-01-31T11:43:43Z</time><name>PT4968</name></trkpt>
<trkpt lat="53.190942" lon="-1.751402"><ele>213</ele><time>2020-01-31T11:43:45Z</time><name>PT4969</name></trkpt>
<trkpt lat="53.190948" lon="-1.751405"><ele>212</ele><time>2020-01-31T11:43:45Z</time><name>PT4970</name></trkpt>
<trkpt lat="53.190949" lon="-1.751413"><ele>213</ele><time>2020-01-31T11:43:46Z</time><name>PT4971</name></trkpt>
<trkpt lat="53.190950" lon="-1.751427"><ele>213</ele><time>2020-01-31T11:43:48Z</time><name>PT4972</name></trkpt>
<trkpt lat="53.190950" lon="-1.751450"><ele>211</ele><time>2020-01-31T11:43:48Z</time><name>PT4973</name></trkpt>
<trkpt lat="53.190947" lon="-1.751462"><ele>210</ele><time>2020-01-31T11:43:49Z</time><name>PT4974</name></trkpt>
<trkpt lat="53.190944" lon="-1.751470"><ele>210</ele><time>2020-01-31T11:43:51Z</time><name>PT4975</name></trkpt>
<trkpt lat="53.190943" lon="-1.751472"><ele>210</ele><time>2020-01-31T11:43:51Z</time><name>PT4976</name></trkpt>
<trkpt lat="53.190940" lon="-1.751484"><ele>211</ele><time>2020-01-31T11:43:52Z</time><name>PT4977</name></trkpt>
<trkpt lat="53.190935" lon="-1.751493"><ele>211</ele><time>2020-01-31T11:43:54Z</time><name>PT4978</name></trkpt>
<trkpt lat="53.190928" lon="-1.751509"><ele>211</ele><time>2020-01-31T11:44:03Z</time><name>PT4979</name></trkpt>
<trkpt lat="53.190921" lon="-1.751531"><ele>211</ele><time>2020-01-31T11:44:04Z</time><name>PT4980</name></trkpt>
<trkpt lat="53.190924" lon="-1.751539"><ele>211</ele><time>2020-01-31T11:44:07Z</time><name>PT4981</name></trkpt>
<trkpt lat="53.190935" lon="-1.751566"><ele>211</ele><time>2020-01-31T11:44:09Z</time><name>PT4982</name></trkpt>
<trkpt lat="53.190938" lon="-1.751579"><ele>210</ele><time>2020-01-31T11:44:09Z</time><name>PT4983</name></trkpt>
<trkpt lat="53.190942" lon="-1.751585"><ele>210</ele><time>2020-01-31T11:44:10Z</time><name>PT4984</name></trkpt>
<trkpt lat="53.190959" lon="-1.751607"><ele>210</ele><time>2020-01-31T11:44:12Z</time><name>PT4985</name></trkpt>
<trkpt lat="53.190967" lon="-1.751616"><ele>210</ele><time>2020-01-31T11:44:12Z</time><name>PT4986</name></trkpt>
<trkpt lat="53.190971" lon="-1.751625"><ele>210</ele><time>2020-01-31T11:44:13Z</time><name>PT4987</name></trkpt>
<trkpt lat="53.190975" lon="-1.751637"><ele>211</ele><time>2020-01-31T11:44:15Z</time><name>PT4988</name></trkpt>
<trkpt lat="53.190980" lon="-1.751641"><ele>211</ele><time>2020-01-31T11:44:15Z</time><name>PT4989</name></trkpt>
<trkpt lat="53.190988" lon="-1.751652"><ele>211</ele><time>2020-01-31T11:44:16Z</time><name>PT4990</name></trkpt>
<trkpt lat="53.190995" lon="-1.751666"><ele>212</ele><time>2020-01-31T11:44:18Z</time><name>PT4991</name></trkpt>
<trkpt lat="53.191001" lon="-1.751680"><ele>211</ele><time>2020-01-31T11:44:18Z</time><name>PT4992</name></trkpt>
<trkpt lat="53.191008" lon="-1.751691"><ele>211</ele><time>2020-01-31T11:44:19Z</time><name>PT4993</name></trkpt>
<trkpt lat="53.191012" lon="-1.751705"><ele>212</ele><time>2020-01-31T11:44:21Z</time><name>PT4994</name></trkpt>
<trkpt lat="53.191017" lon="-1.751718"><ele>211</ele><time>2020-01-31T11:44:21Z</time><name>PT4995</name></trkpt>
<trkpt lat="53.191024" lon="-1.751728"><ele>210</ele><time>2020-01-31T11:44:22Z</time><name>PT4996</name></trkpt>
<trkpt lat="53.191023" lon="-1.751745"><ele>210</ele><time>2020-01-31T11:44:24Z</time><name>PT4997</name></trkpt>
<trkpt lat="53.191026" lon="-1.751756"><ele>211</ele><time>2020-01-31T11:44:24Z</time><name>PT4998</name></trkpt>
<trkpt lat="53.191036" lon="-1.751764"><ele>211</ele><time>2020-01-31T11:44:25Z</time><name>PT4999</name></trkpt>
<trkpt lat="53.191043" lon="-1.751772"><ele>211</ele><time>2020-01-31T11:44:27Z</time><name>PT5000</name></trkpt>
<trkpt lat="53.191047" lon="-1.751785"><ele>211</ele><time>2020-01-31T11:44:27Z</time><name>PT5001</name></trkpt>
<trkpt lat="53.191050" lon="-1.751796"><ele>210</ele><time>2020-01-31T11:44:28Z</time><name>PT5002</name></trkpt>
<trkpt lat="53.191053" lon="-1.751811"><ele>209</ele><time>2020-01-31T11:44:30Z</time><name>PT5003</name></trkpt>
<trkpt lat="53.191058" lon="-1.751823"><ele>208</ele><time>2020-01-31T11:44:30Z</time><name>PT5004</name></trkpt>
<trkpt lat="53.191064" lon="-1.751834"><ele>208</ele><time>2020-01-31T11:44:31Z</time><name>PT5005</name></trkpt>
<trkpt lat="53.191067" lon="-1.751841"><ele>208</ele><time>2020-01-31T11:44:33Z</time><name>PT5006</name></trkpt>
<trkpt lat="53.191074" lon="-1.751850"><ele>208</ele><time>2020-01-31T11:44:33Z</time><name>PT5007</name></trkpt>
<trkpt lat="53.191077" lon="-1.751869"><ele>208</ele><time>2020-01-31T11:44:34Z</time><name>PT5008</name></trkpt>
<trkpt lat="53.191081" lon="-1.751881"><ele>207</ele><time>2020-01-31T11:44:36Z</time><name>PT5009</name></trkpt>
<trkpt lat="53.191084" lon="-1.751895"><ele>206</ele><time>2020-01-31T11:44:36Z</time><name>PT5010</name></trkpt>
<trkpt lat="53.191086" lon="-1.751914"><ele>206</ele><time>2020-01-31T11:44:37Z</time><name>PT5011</name></trkpt>
<trkpt lat="53.191082" lon="-1.751936"><ele>203</ele><time>2020-01-31T11:44:39Z</time><name>PT5012</name></trkpt>
<trkpt lat="53.191089" lon="-1.751941"><ele>203</ele><time>2020-01-31T11:44:39Z</time><name>PT5013</name></trkpt>
<trkpt lat="53.191095" lon="-1.751954"><ele>203</ele><time>2020-01-31T11:44:41Z</time><name>PT5014</name></trkpt>
<trkpt lat="53.191100" lon="-1.751962"><ele>203</ele><time>2020-01-31T11:44:42Z</time><name>PT5015</name></trkpt>
<trkpt lat="53.191101" lon="-1.751976"><ele>202</ele><time>2020-01-31T11:44:42Z</time><name>PT5016</name></trkpt>
<trkpt lat="53.191110" lon="-1.751984"><ele>203</ele><time>2020-01-31T11:44:44Z</time><name>PT5017</name></trkpt>
<trkpt lat="53.191119" lon="-1.751989"><ele>202</ele><time>2020-01-31T11:44:45Z</time><name>PT5018</name></trkpt>
<trkpt lat="53.191128" lon="-1.751992"><ele>202</ele><time>2020-01-31T11:44:45Z</time><name>PT5019</name></trkpt>
<trkpt lat="53.191135" lon="-1.752003"><ele>203</ele><time>2020-01-31T11:44:47Z</time><name>PT5020</name></trkpt>
<trkpt lat="53.191139" lon="-1.752011"><ele>203</ele><time>2020-01-31T11:44:48Z</time><name>PT5021</name></trkpt>
<trkpt lat="53.191143" lon="-1.752017"><ele>203</ele><time>2020-01-31T11:44:48Z</time><name>PT5022</name></trkpt>
<trkpt lat="53.191143" lon="-1.752031"><ele>203</ele><time>2020-01-31T11:44:49Z</time><name>PT5023</name></trkpt>
<trkpt lat="53.191141" lon="-1.752044"><ele>202</ele><time>2020-01-31T11:44:51Z</time><name>PT5024</name></trkpt>
<trkpt lat="53.191141" lon="-1.752058"><ele>202</ele><time>2020-01-31T11:44:51Z</time><name>PT5025</name></trkpt>
<trkpt lat="53.191142" lon="-1.752068"><ele>202</ele><time>2020-01-31T11:44:52Z</time><name>PT5026</name></trkpt>
<trkpt lat="53.191148" lon="-1.752078"><ele>202</ele><time>2020-01-31T11:44:54Z</time><name>PT5027</name></trkpt>
<trkpt lat="53.191152" lon="-1.752087"><ele>202</ele><time>2020-01-31T11:44:54Z</time><name>PT5028</name></trkpt>
<trkpt lat="53.191158" lon="-1.752101"><ele>203</ele><time>2020-01-31T11:44:55Z</time><name>PT5029</name></trkpt>
<trkpt lat="53.191160" lon="-1.752118"><ele>203</ele><time>2020-01-31T11:44:57Z</time><name>PT5030</name></trkpt>
<trkpt lat="53.191163" lon="-1.752135"><ele>203</ele><time>2020-01-31T11:44:57Z</time><name>PT5031</name></trkpt>
<trkpt lat="53.191173" lon="-1.752144"><ele>204</ele><time>2020-01-31T11:44:58Z</time><name>PT5032</name></trkpt>
<trkpt lat="53.191177" lon="-1.752145"><ele>203</ele><time>2020-01-31T11:45:00Z</time><name>PT5033</name></trkpt>
<trkpt lat="53.191178" lon="-1.752151"><ele>205</ele><time>2020-01-31T11:45:00Z</time><name>PT5034</name></trkpt>
<trkpt lat="53.191188" lon="-1.752154"><ele>205</ele><time>2020-01-31T11:45:01Z</time><name>PT5035</name></trkpt>
<trkpt lat="53.191193" lon="-1.752171"><ele>205</ele><time>2020-01-31T11:45:03Z</time><name>PT5036</name></trkpt>
<trkpt lat="53.191198" lon="-1.752192"><ele>204</ele><time>2020-01-31T11:45:03Z</time><name>PT5037</name></trkpt>
<trkpt lat="53.191205" lon="-1.752205"><ele>203</ele><time>2020-01-31T11:45:04Z</time><name>PT5038</name></trkpt>
<trkpt lat="53.191211" lon="-1.752220"><ele>203</ele><time>2020-01-31T11:45:06Z</time><name>PT5039</name></trkpt>
<trkpt lat="53.191212" lon="-1.752240"><ele>203</ele><time>2020-01-31T11:45:06Z</time><name>PT5040</name></trkpt>
<trkpt lat="53.191206" lon="-1.752268"><ele>202</ele><time>2020-01-31T11:45:07Z</time><name>PT5041</name></trkpt>
<trkpt lat="53.191205" lon="-1.752281"><ele>202</ele><time>2020-01-31T11:45:09Z</time><name>PT5042</name></trkpt>
<trkpt lat="53.191207" lon="-1.752301"><ele>201</ele><time>2020-01-31T11:45:09Z</time><name>PT5043</name></trkpt>
<trkpt lat="53.191211" lon="-1.752311"><ele>201</ele><time>2020-01-31T11:45:10Z</time><name>PT5044</name></trkpt>
<trkpt lat="53.191211" lon="-1.752324"><ele>202</ele><time>2020-01-31T11:45:12Z</time><name>PT5045</name></trkpt>
<trkpt lat="53.191217" lon="-1.752339"><ele>202</ele><time>2020-01-31T11:45:12Z</time><name>PT5046</name></trkpt>
<trkpt lat="53.191227" lon="-1.752352"><ele>203</ele><time>2020-01-31T11:45:13Z</time><name>PT5047</name></trkpt>
<trkpt lat="53.191236" lon="-1.752358"><ele>204</ele><time>2020-01-31T11:45:15Z</time><name>PT5048</name></trkpt>
<trkpt lat="53.191243" lon="-1.752363"><ele>206</ele><time>2020-01-31T11:45:15Z</time><name>PT5049</name></trkpt>
<trkpt lat="53.191241" lon="-1.752382"><ele>205</ele><time>2020-01-31T11:45:16Z</time><name>PT5050</name></trkpt>
<trkpt lat="53.191239" lon="-1.752404"><ele>205</ele><time>2020-01-31T11:45:18Z</time><name>PT5051</name></trkpt>
<trkpt lat="53.191243" lon="-1.752423"><ele>204</ele><time>2020-01-31T11:45:18Z</time><name>PT5052</name></trkpt>
<trkpt lat="53.191251" lon="-1.752434"><ele>205</ele><time>2020-01-31T11:45:19Z</time><name>PT5053</name></trkpt>
<trkpt lat="53.191259" lon="-1.752447"><ele>205</ele><time>2020-01-31T11:45:21Z</time><name>PT5054</name></trkpt>
<trkpt lat="53.191268" lon="-1.752460"><ele>205</ele><time>2020-01-31T11:45:21Z</time><name>PT5055</name></trkpt>
<trkpt lat="53.191270" lon="-1.752479"><ele>206</ele><time>2020-01-31T11:45:22Z</time><name>PT5056</name></trkpt>
<trkpt lat="53.191272" lon="-1.752497"><ele>205</ele><time>2020-01-31T11:45:24Z</time><name>PT5057</name></trkpt>
<trkpt lat="53.191280" lon="-1.752504"><ele>206</ele><time>2020-01-31T11:45:24Z</time><name>PT5058</name></trkpt>
<trkpt lat="53.191281" lon="-1.752523"><ele>206</ele><time>2020-01-31T11:45:25Z</time><name>PT5059</name></trkpt>
<trkpt lat="53.191286" lon="-1.752536"><ele>207</ele><time>2020-01-31T11:45:27Z</time><name>PT5060</name></trkpt>
<trkpt lat="53.191293" lon="-1.752549"><ele>208</ele><time>2020-01-31T11:45:27Z</time><name>PT5061</name></trkpt>
<trkpt lat="53.191298" lon="-1.752557"><ele>209</ele><time>2020-01-31T11:45:28Z</time><name>PT5062</name></trkpt>
<trkpt lat="53.191300" lon="-1.752567"><ele>209</ele><time>2020-01-31T11:45:30Z</time><name>PT5063</name></trkpt>
<trkpt lat="53.191295" lon="-1.752583"><ele>209</ele><time>2020-01-31T11:45:30Z</time><name>PT5064</name></trkpt>
<trkpt lat="53.191293" lon="-1.752589"><ele>210</ele><time>2020-01-31T11:45:31Z</time><name>PT5065</name></trkpt>
<trkpt lat="53.191286" lon="-1.752600"><ele>211</ele><time>2020-01-31T11:45:33Z</time><name>PT5066</name></trkpt>
<trkpt lat="53.191282" lon="-1.752614"><ele>212</ele><time>2020-01-31T11:45:33Z</time><name>PT5067</name></trkpt>
<trkpt lat="53.191285" lon="-1.752629"><ele>212</ele><time>2020-01-31T11:45:34Z</time><name>PT5068</name></trkpt>
<trkpt lat="53.191287" lon="-1.752646"><ele>212</ele><time>2020-01-31T11:45:36Z</time><name>PT5069</name></trkpt>
<trkpt lat="53.191288" lon="-1.752662"><ele>212</ele><time>2020-01-31T11:45:36Z</time><name>PT5070</name></trkpt>
<trkpt lat="53.191290" lon="-1.752674"><ele>212</ele><time>2020-01-31T11:45:37Z</time><name>PT5071</name></trkpt>
<trkpt lat="53.191289" lon="-1.752693"><ele>211</ele><time>2020-01-31T11:45:39Z</time><name>PT5072</name></trkpt>
<trkpt lat="53.191299" lon="-1.752707"><ele>212</ele><time>2020-01-31T11:45:39Z</time><name>PT5073</name></trkpt>
<trkpt lat="53.191303" lon="-1.752723"><ele>212</ele><time>2020-01-31T11:45:40Z</time><name>PT5074</name></trkpt>
<trkpt lat="53.191302" lon="-1.752740"><ele>211</ele><time>2020-01-31T11:45:42Z</time><name>PT5075</name></trkpt>
<trkpt lat="53.191301" lon="-1.752762"><ele>211</ele><time>2020-01-31T11:45:42Z</time><name>PT5076</name></trkpt>
<trkpt lat="53.191303" lon="-1.752778"><ele>211</ele><time>2020-01-31T11:45:43Z</time><name>PT5077</name></trkpt>
<trkpt lat="53.191306" lon="-1.752789"><ele>212</ele><time>2020-01-31T11:45:45Z</time><name>PT5078</name></trkpt>
<trkpt lat="53.191305" lon="-1.752799"><ele>211</ele><time>2020-01-31T11:45:45Z</time><name>PT5079</name></trkpt>
<trkpt lat="53.191306" lon="-1.752813"><ele>211</ele><time>2020-01-31T11:45:46Z</time><name>PT5080</name></trkpt>
<trkpt lat="53.191307" lon="-1.752826"><ele>211</ele><time>2020-01-31T11:45:48Z</time><name>PT5081</name></trkpt>
<trkpt lat="53.191307" lon="-1.752841"><ele>211</ele><time>2020-01-31T11:45:48Z</time><name>PT5082</name></trkpt>
<trkpt lat="53.191304" lon="-1.752868"><ele>210</ele><time>2020-01-31T11:45:49Z</time><name>PT5083</name></trkpt>
<trkpt lat="53.191303" lon="-1.752883"><ele>210</ele><time>2020-01-31T11:45:51Z</time><name>PT5084</name></trkpt>
<trkpt lat="53.191315" lon="-1.752887"><ele>211</ele><time>2020-01-31T11:45:51Z</time><name>PT5085</name></trkpt>
<trkpt lat="53.191319" lon="-1.752898"><ele>212</ele><time>2020-01-31T11:45:52Z</time><name>PT5086</name></trkpt>
<trkpt lat="53.191316" lon="-1.752914"><ele>212</ele><time>2020-01-31T11:45:54Z</time><name>PT5087</name></trkpt>
<trkpt lat="53.191315" lon="-1.752920"><ele>214</ele><time>2020-01-31T11:45:54Z</time><name>PT5088</name></trkpt>
<trkpt lat="53.191316" lon="-1.752940"><ele>213</ele><time>2020-01-31T11:45:55Z</time><name>PT5089</name></trkpt>
<trkpt lat="53.191310" lon="-1.752953"><ele>214</ele><time>2020-01-31T11:45:57Z</time><name>PT5090</name></trkpt>
<trkpt lat="53.191305" lon="-1.752964"><ele>214</ele><time>2020-01-31T11:45:57Z</time><name>PT5091</name></trkpt>
<trkpt lat="53.191306" lon="-1.752971"><ele>214</ele><time>2020-01-31T11:45:58Z</time><name>PT5092</name></trkpt>
<trkpt lat="53.191308" lon="-1.752974"><ele>215</ele><time>2020-01-31T11:46:00Z</time><name>PT5093</name></trkpt>
<trkpt lat="53.191302" lon="-1.752990"><ele>215</ele><time>2020-01-31T11:46:00Z</time><name>PT5094</name></trkpt>
<trkpt lat="53.191296" lon="-1.753009"><ele>215</ele><time>2020-01-31T11:46:01Z</time><name>PT5095</name></trkpt>
<trkpt lat="53.191296" lon="-1.753010"><ele>216</ele><time>2020-01-31T11:46:03Z</time><name>PT5096</name></trkpt>
<trkpt lat="53.191294" lon="-1.753020"><ele>215</ele><time>2020-01-31T11:46:03Z</time><name>PT5097</name></trkpt>
<trkpt lat="53.191296" lon="-1.753022"><ele>214</ele><time>2020-01-31T11:46:04Z</time><name>PT5098</name></trkpt>
<trkpt lat="53.191298" lon="-1.753026"><ele>214</ele><time>2020-01-31T11:46:06Z</time><name>PT5099</name></trkpt>
<trkpt lat="53.191290" lon="-1.753028"><ele>214</ele><time>2020-01-31T11:46:06Z</time><name>PT5100</name></trkpt>
<trkpt lat="53.191285" lon="-1.753043"><ele>214</ele><time>2020-01-31T11:46:07Z</time><name>PT5101</name></trkpt>
<trkpt lat="53.191290" lon="-1.753055"><ele>215</ele><time>2020-01-31T11:46:09Z</time><name>PT5102</name></trkpt>
<trkpt lat="53.191293" lon="-1.753070"><ele>215</ele><time>2020-01-31T11:46:09Z</time><name>PT5103</name></trkpt>
<trkpt lat="53.191292" lon="-1.753081"><ele>215</ele><time>2020-01-31T11:46:10Z</time><name>PT5104</name></trkpt>
<trkpt lat="53.191299" lon="-1.753101"><ele>214</ele><time>2020-01-31T11:46:12Z</time><name>PT5105</name></trkpt>
<trkpt lat="53.191293" lon="-1.753109"><ele>214</ele><time>2020-01-31T11:46:12Z</time><name>PT5106</name></trkpt>
<trkpt lat="53.191282" lon="-1.753122"><ele>213</ele><time>2020-01-31T11:46:13Z</time><name>PT5107</name></trkpt>
<trkpt lat="53.191279" lon="-1.753131"><ele>213</ele><time>2020-01-31T11:46:15Z</time><name>PT5108</name></trkpt>
<trkpt lat="53.191280" lon="-1.753129"><ele>213</ele><time>2020-01-31T11:46:15Z</time><name>PT5109</name></trkpt>
<trkpt lat="53.191272" lon="-1.753142"><ele>213</ele><time>2020-01-31T11:46:16Z</time><name>PT5110</name></trkpt>
<trkpt lat="53.191264" lon="-1.753150"><ele>212</ele><time>2020-01-31T11:46:18Z</time><name>PT5111</name></trkpt>
<trkpt lat="53.191258" lon="-1.753159"><ele>212</ele><time>2020-01-31T11:46:18Z</time><name>PT5112</name></trkpt>
<trkpt lat="53.191251" lon="-1.753173"><ele>212</ele><time>2020-01-31T11:46:19Z</time><name>PT5113</name></trkpt>
<trkpt lat="53.191242" lon="-1.753179"><ele>212</ele><time>2020-01-31T11:46:21Z</time><name>PT5114</name></trkpt>
<trkpt lat="53.191238" lon="-1.753187"><ele>213</ele><time>2020-01-31T11:46:21Z</time><name>PT5115</name></trkpt>
<trkpt lat="53.191231" lon="-1.753198"><ele>213</ele><time>2020-01-31T11:46:22Z</time><name>PT5116</name></trkpt>
<trkpt lat="53.191229" lon="-1.753207"><ele>214</ele><time>2020-01-31T11:46:24Z</time><name>PT5117</name></trkpt>
<trkpt lat="53.191227" lon="-1.753226"><ele>213</ele><time>2020-01-31T11:46:24Z</time><name>PT5118</name></trkpt>
<trkpt lat="53.191218" lon="-1.753233"><ele>213</ele><time>2020-01-31T11:46:25Z</time><name>PT5119</name></trkpt>
<trkpt lat="53.191215" lon="-1.753242"><ele>213</ele><time>2020-01-31T11:46:27Z</time><name>PT5120</name></trkpt>
<trkpt lat="53.191213" lon="-1.753245"><ele>213</ele><time>2020-01-31T11:46:27Z</time><name>PT5121</name></trkpt>
<trkpt lat="53.191215" lon="-1.753254"><ele>214</ele><time>2020-01-31T11:46:28Z</time><name>PT5122</name></trkpt>
<trkpt lat="53.191221" lon="-1.753259"><ele>214</ele><time>2020-01-31T11:46:30Z</time><name>PT5123</name></trkpt>
<trkpt lat="53.191232" lon="-1.753281"><ele>213</ele><time>2020-01-31T11:46:30Z</time><name>PT5124</name></trkpt>
<trkpt lat="53.191239" lon="-1.753287"><ele>213</ele><time>2020-01-31T11:46:31Z</time><name>PT5125</name></trkpt>
<trkpt lat="53.191236" lon="-1.753311"><ele>213</ele><time>2020-01-31T11:46:33Z</time><name>PT5126</name></trkpt>
<trkpt lat="53.191237" lon="-1.753326"><ele>213</ele><time>2020-01-31T11:46:33Z</time><name>PT5127</name></trkpt>
<trkpt lat="53.191237" lon="-1.753358"><ele>211</ele><time>2020-01-31T11:46:34Z</time><name>PT5128</name></trkpt>
<trkpt lat="53.191239" lon="-1.753376"><ele>211</ele><time>2020-01-31T11:46:36Z</time><name>PT5129</name></trkpt>
<trkpt lat="53.191235" lon="-1.753396"><ele>210</ele><time>2020-01-31T11:46:36Z</time><name>PT5130</name></trkpt>
<trkpt lat="53.191238" lon="-1.753408"><ele>208</ele><time>2020-01-31T11:46:37Z</time><name>PT5131</name></trkpt>
<trkpt lat="53.191250" lon="-1.753411"><ele>208</ele><time>2020-01-31T11:46:39Z</time><name>PT5132</name></trkpt>
<trkpt lat="53.191251" lon="-1.753423"><ele>209</ele><time>2020-01-31T11:46:39Z</time><name>PT5133</name></trkpt>
<trkpt lat="53.191254" lon="-1.753435"><ele>208</ele><time>2020-01-31T11:46:40Z</time><name>PT5134</name></trkpt>
<trkpt lat="53.191264" lon="-1.753451"><ele>207</ele><time>2020-01-31T11:46:42Z</time><name>PT5135</name></trkpt>
<trkpt lat="53.191269" lon="-1.753467"><ele>207</ele><time>2020-01-31T11:46:42Z</time><name>PT5136</name></trkpt>
<trkpt lat="53.191270" lon="-1.753480"><ele>205</ele><time>2020-01-31T11:46:43Z</time><name>PT5137</name></trkpt>
<trkpt lat="53.191269" lon="-1.753479"><ele>205</ele><time>2020-01-31T11:46:45Z</time><name>PT5138</name></trkpt>
<trkpt lat="53.191270" lon="-1.753478"><ele>206</ele><time>2020-01-31T11:46:45Z</time><name>PT5139</name></trkpt>
<trkpt lat="53.191275" lon="-1.753489"><ele>205</ele><time>2020-01-31T11:46:46Z</time><name>PT5140</name></trkpt>
<trkpt lat="53.191274" lon="-1.753492"><ele>202</ele><time>2020-01-31T11:46:48Z</time><name>PT5141</name></trkpt>
<trkpt lat="53.191273" lon="-1.753502"><ele>202</ele><time>2020-01-31T11:46:48Z</time><name>PT5142</name></trkpt>
<trkpt lat="53.191273" lon="-1.753508"><ele>201</ele><time>2020-01-31T11:46:49Z</time><name>PT5143</name></trkpt>
<trkpt lat="53.191274" lon="-1.753517"><ele>200</ele><time>2020-01-31T11:46:51Z</time><name>PT5144</name></trkpt>
<trkpt lat="53.191270" lon="-1.753527"><ele>201</ele><time>2020-01-31T11:46:51Z</time><name>PT5145</name></trkpt>
<trkpt lat="53.191272" lon="-1.753535"><ele>201</ele><time>2020-01-31T11:46:52Z</time><name>PT5146</name></trkpt>
<trkpt lat="53.191281" lon="-1.753536"><ele>201</ele><time>2020-01-31T11:46:54Z</time><name>PT5147</name></trkpt>
<trkpt lat="53.191280" lon="-1.753560"><ele>202</ele><time>2020-01-31T11:46:54Z</time><name>PT5148</name></trkpt>
<trkpt lat="53.191285" lon="-1.753567"><ele>201</ele><time>2020-01-31T11:46:55Z</time><name>PT5149</name></trkpt>
<trkpt lat="53.191286" lon="-1.753574"><ele>200</ele><time>2020-01-31T11:46:57Z</time><name>PT5150</name></trkpt>
<trkpt lat="53.191285" lon="-1.753591"><ele>200</ele><time>2020-01-31T11:46:57Z</time><name>PT5151</name></trkpt>
<trkpt lat="53.191281" lon="-1.753617"><ele>200</ele><time>2020-01-31T11:46:58Z</time><name>PT5152</name></trkpt>
<trkpt lat="53.191278" lon="-1.753644"><ele>201</ele><time>2020-01-31T11:47:00Z</time><name>PT5153</name></trkpt>
<trkpt lat="53.191274" lon="-1.753673"><ele>202</ele><time>2020-01-31T11:47:00Z</time><name>PT5154</name></trkpt>
<trkpt lat="53.191282" lon="-1.753699"><ele>204</ele><time>2020-01-31T11:47:01Z</time><name>PT5155</name></trkpt>
<trkpt lat="53.191284" lon="-1.753718"><ele>205</ele><time>2020-01-31T11:47:03Z</time><name>PT5156</name></trkpt>
<trkpt lat="53.191281" lon="-1.753741"><ele>207</ele><time>2020-01-31T11:47:03Z</time><name>PT5157</name></trkpt>
<trkpt lat="53.191284" lon="-1.753761"><ele>207</ele><time>2020-01-31T11:47:04Z</time><name>PT5158</name></trkpt>
<trkpt lat="53.191282" lon="-1.753785"><ele>206</ele><time>2020-01-31T11:47:06Z</time><name>PT5159</name></trkpt>
<trkpt lat="53.191282" lon="-1.753812"><ele>207</ele><time>2020-01-31T11:47:06Z</time><name>PT5160</name></trkpt>
<trkpt lat="53.191274" lon="-1.753842"><ele>208</ele><time>2020-01-31T11:47:07Z</time><name>PT5161</name></trkpt>
<trkpt lat="53.191268" lon="-1.753868"><ele>207</ele><time>2020-01-31T11:47:09Z</time><name>PT5162</name></trkpt>
<trkpt lat="53.191260" lon="-1.753888"><ele>207</ele><time>2020-01-31T11:47:09Z</time><name>PT5163</name></trkpt>
<trkpt lat="53.191258" lon="-1.753904"><ele>208</ele><time>2020-01-31T11:47:10Z</time><name>PT5164</name></trkpt>
<trkpt lat="53.191252" lon="-1.753920"><ele>208</ele><time>2020-01-31T11:47:12Z</time><name>PT5165</name></trkpt>
<trkpt lat="53.191242" lon="-1.753950"><ele>206</ele><time>2020-01-31T11:47:12Z</time><name>PT5166</name></trkpt>
<trkpt lat="53.191238" lon="-1.753970"><ele>205</ele><time>2020-01-31T11:47:13Z</time><name>PT5167</name></trkpt>
<trkpt lat="53.191228" lon="-1.753991"><ele>205</ele><time>2020-01-31T11:47:15Z</time><name>PT5168</name></trkpt>
<trkpt lat="53.191224" lon="-1.754010"><ele>205</ele><time>2020-01-31T11:47:15Z</time><name>PT5169</name></trkpt>
<trkpt lat="53.191211" lon="-1.754036"><ele>204</ele><time>2020-01-31T11:47:16Z</time><name>PT5170</name></trkpt>
<trkpt lat="53.191211" lon="-1.754058"><ele>204</ele><time>2020-01-31T11:47:18Z</time><name>PT5171</name></trkpt>
<trkpt lat="53.191210" lon="-1.754070"><ele>205</ele><time>2020-01-31T11:47:18Z</time><name>PT5172</name></trkpt>
<trkpt lat="53.191210" lon="-1.754084"><ele>205</ele><time>2020-01-31T11:47:19Z</time><name>PT5173</name></trkpt>
<trkpt lat="53.191213" lon="-1.754102"><ele>205</ele><time>2020-01-31T11:47:21Z</time><name>PT5174</name></trkpt>
<trkpt lat="53.191214" lon="-1.754121"><ele>205</ele><time>2020-01-31T11:47:21Z</time><name>PT5175</name></trkpt>
<trkpt lat="53.191216" lon="-1.754129"><ele>205</ele><time>2020-01-31T11:47:22Z</time><name>PT5176</name></trkpt>
<trkpt lat="53.191215" lon="-1.754137"><ele>206</ele><time>2020-01-31T11:47:24Z</time><name>PT5177</name></trkpt>
<trkpt lat="53.191213" lon="-1.754151"><ele>206</ele><time>2020-01-31T11:47:24Z</time><name>PT5178</name></trkpt>
<trkpt lat="53.191213" lon="-1.754162"><ele>206</ele><time>2020-01-31T11:47:25Z</time><name>PT5179</name></trkpt>
<trkpt lat="53.191210" lon="-1.754181"><ele>207</ele><time>2020-01-31T11:47:27Z</time><name>PT5180</name></trkpt>
<trkpt lat="53.191206" lon="-1.754185"><ele>208</ele><time>2020-01-31T11:47:27Z</time><name>PT5181</name></trkpt>
<trkpt lat="53.191205" lon="-1.754194"><ele>209</ele><time>2020-01-31T11:47:28Z</time><name>PT5182</name></trkpt>
<trkpt lat="53.191200" lon="-1.754207"><ele>210</ele><time>2020-01-31T11:47:30Z</time><name>PT5183</name></trkpt>
<trkpt lat="53.191197" lon="-1.754210"><ele>212</ele><time>2020-01-31T11:47:30Z</time><name>PT5184</name></trkpt>
<trkpt lat="53.191195" lon="-1.754216"><ele>212</ele><time>2020-01-31T11:47:31Z</time><name>PT5185</name></trkpt>
<trkpt lat="53.191194" lon="-1.754225"><ele>212</ele><time>2020-01-31T11:47:33Z</time><name>PT5186</name></trkpt>
<trkpt lat="53.191197" lon="-1.754228"><ele>212</ele><time>2020-01-31T11:47:33Z</time><name>PT5187</name></trkpt>
<trkpt lat="53.191200" lon="-1.754235"><ele>212</ele><time>2020-01-31T11:47:34Z</time><name>PT5188</name></trkpt>
<trkpt lat="53.191196" lon="-1.754242"><ele>212</ele><time>2020-01-31T11:47:36Z</time><name>PT5189</name></trkpt>
<trkpt lat="53.191204" lon="-1.754244"><ele>213</ele><time>2020-01-31T11:47:36Z</time><name>PT5190</name></trkpt>
<trkpt lat="53.191197" lon="-1.754260"><ele>213</ele><time>2020-01-31T11:47:37Z</time><name>PT5191</name></trkpt>
<trkpt lat="53.191188" lon="-1.754261"><ele>213</ele><time>2020-01-31T11:47:39Z</time><name>PT5192</name></trkpt>
<trkpt lat="53.191185" lon="-1.754270"><ele>212</ele><time>2020-01-31T11:47:39Z</time><name>PT5193</name></trkpt>
<trkpt lat="53.191179" lon="-1.754277"><ele>212</ele><time>2020-01-31T11:47:40Z</time><name>PT5194</name></trkpt>
<trkpt lat="53.191183" lon="-1.754324"><ele>211</ele><time>2020-01-31T11:47:43Z</time><name>PT5195</name></trkpt>
<trkpt lat="53.191182" lon="-1.754378"><ele>212</ele><time>2020-01-31T11:47:45Z</time><name>PT5196</name></trkpt>
<trkpt lat="53.191187" lon="-1.754421"><ele>212</ele><time>2020-01-31T11:47:45Z</time><name>PT5197</name></trkpt>
<trkpt lat="53.191182" lon="-1.754463"><ele>212</ele><time>2020-01-31T11:47:49Z</time><name>PT5198</name></trkpt>
<trkpt lat="53.191182" lon="-1.754504"><ele>213</ele><time>2020-01-31T11:47:51Z</time><name>PT5199</name></trkpt>
<trkpt lat="53.191184" lon="-1.754519"><ele>213</ele><time>2020-01-31T11:47:51Z</time><name>PT5200</name></trkpt>
<trkpt lat="53.191181" lon="-1.754548"><ele>212</ele><time>2020-01-31T11:48:00Z</time><name>PT5201</name></trkpt>
<trkpt lat="53.191194" lon="-1.754592"><ele>212</ele><time>2020-01-31T11:48:00Z</time><name>PT5202</name></trkpt>
<trkpt lat="53.191195" lon="-1.754624"><ele>212</ele><time>2020-01-31T11:48:01Z</time><name>PT5203</name></trkpt>
<trkpt lat="53.191200" lon="-1.754646"><ele>213</ele><time>2020-01-31T11:48:03Z</time><name>PT5204</name></trkpt>
<trkpt lat="53.191201" lon="-1.754658"><ele>213</ele><time>2020-01-31T11:48:03Z</time><name>PT5205</name></trkpt>
<trkpt lat="53.191198" lon="-1.754669"><ele>213</ele><time>2020-01-31T11:48:04Z</time><name>PT5206</name></trkpt>
<trkpt lat="53.191192" lon="-1.754680"><ele>213</ele><time>2020-01-31T11:48:06Z</time><name>PT5207</name></trkpt>
<trkpt lat="53.191194" lon="-1.754690"><ele>213</ele><time>2020-01-31T11:48:06Z</time><name>PT5208</name></trkpt>
<trkpt lat="53.191193" lon="-1.754702"><ele>213</ele><time>2020-01-31T11:48:07Z</time><name>PT5209</name></trkpt>
<trkpt lat="53.191191" lon="-1.754732"><ele>213</ele><time>2020-01-31T11:48:09Z</time><name>PT5210</name></trkpt>
<trkpt lat="53.191193" lon="-1.754755"><ele>213</ele><time>2020-01-31T11:48:10Z</time><name>PT5211</name></trkpt>
<trkpt lat="53.191200" lon="-1.754775"><ele>213</ele><time>2020-01-31T11:48:12Z</time><name>PT5212</name></trkpt>
<trkpt lat="53.191204" lon="-1.754804"><ele>213</ele><time>2020-01-31T11:48:12Z</time><name>PT5213</name></trkpt>
<trkpt lat="53.191223" lon="-1.754824"><ele>213</ele><time>2020-01-31T11:48:13Z</time><name>PT5214</name></trkpt>
<trkpt lat="53.191230" lon="-1.754836"><ele>213</ele><time>2020-01-31T11:48:15Z</time><name>PT5215</name></trkpt>
<trkpt lat="53.191237" lon="-1.754851"><ele>213</ele><time>2020-01-31T11:48:15Z</time><name>PT5216</name></trkpt>
<trkpt lat="53.191242" lon="-1.754864"><ele>213</ele><time>2020-01-31T11:48:16Z</time><name>PT5217</name></trkpt>
<trkpt lat="53.191253" lon="-1.754869"><ele>213</ele><time>2020-01-31T11:48:18Z</time><name>PT5218</name></trkpt>
<trkpt lat="53.191259" lon="-1.754879"><ele>213</ele><time>2020-01-31T11:48:18Z</time><name>PT5219</name></trkpt>
<trkpt lat="53.191262" lon="-1.754886"><ele>214</ele><time>2020-01-31T11:48:19Z</time><name>PT5220</name></trkpt>
<trkpt lat="53.191260" lon="-1.754893"><ele>214</ele><time>2020-01-31T11:48:21Z</time><name>PT5221</name></trkpt>
<trkpt lat="53.191260" lon="-1.754905"><ele>214</ele><time>2020-01-31T11:48:21Z</time><name>PT5222</name></trkpt>
<trkpt lat="53.191255" lon="-1.754907"><ele>214</ele><time>2020-01-31T11:48:22Z</time><name>PT5223</name></trkpt>
<trkpt lat="53.191256" lon="-1.754921"><ele>214</ele><time>2020-01-31T11:48:24Z</time><name>PT5224</name></trkpt>
<trkpt lat="53.191251" lon="-1.754923"><ele>214</ele><time>2020-01-31T11:48:24Z</time><name>PT5225</name></trkpt>
<trkpt lat="53.191253" lon="-1.754924"><ele>214</ele><time>2020-01-31T11:48:25Z</time><name>PT5226</name></trkpt>
<trkpt lat="53.191251" lon="-1.754933"><ele>214</ele><time>2020-01-31T11:48:27Z</time><name>PT5227</name></trkpt>
<trkpt lat="53.191252" lon="-1.754939"><ele>213</ele><time>2020-01-31T11:48:27Z</time><name>PT5228</name></trkpt>
<trkpt lat="53.191263" lon="-1.754957"><ele>213</ele><time>2020-01-31T11:48:28Z</time><name>PT5229</name></trkpt>
<trkpt lat="53.191266" lon="-1.754969"><ele>213</ele><time>2020-01-31T11:48:30Z</time><name>PT5230</name></trkpt>
<trkpt lat="53.191265" lon="-1.754978"><ele>214</ele><time>2020-01-31T11:48:30Z</time><name>PT5231</name></trkpt>
<trkpt lat="53.191266" lon="-1.754986"><ele>214</ele><time>2020-01-31T11:48:31Z</time><name>PT5232</name></trkpt>
<trkpt lat="53.191264" lon="-1.755001"><ele>214</ele><time>2020-01-31T11:48:33Z</time><name>PT5233</name></trkpt>
<trkpt lat="53.191260" lon="-1.755017"><ele>215</ele><time>2020-01-31T11:48:33Z</time><name>PT5234</name></trkpt>
<trkpt lat="53.191256" lon="-1.755028"><ele>214</ele><time>2020-01-31T11:48:34Z</time><name>PT5235</name></trkpt>
<trkpt lat="53.191252" lon="-1.755046"><ele>214</ele><time>2020-01-31T11:48:36Z</time><name>PT5236</name></trkpt>
<trkpt lat="53.191253" lon="-1.755063"><ele>214</ele><time>2020-01-31T11:48:36Z</time><name>PT5237</name></trkpt>
<trkpt lat="53.191252" lon="-1.755087"><ele>214</ele><time>2020-01-31T11:48:37Z</time><name>PT5238</name></trkpt>
<trkpt lat="53.191250" lon="-1.755103"><ele>214</ele><time>2020-01-31T11:48:39Z</time><name>PT5239</name></trkpt>
<trkpt lat="53.191237" lon="-1.755109"><ele>215</ele><time>2020-01-31T11:48:39Z</time><name>PT5240</name></trkpt>
<trkpt lat="53.191244" lon="-1.755120"><ele>215</ele><time>2020-01-31T11:48:40Z</time><name>PT5241</name></trkpt>
<trkpt lat="53.191239" lon="-1.755130"><ele>216</ele><time>2020-01-31T11:48:42Z</time><name>PT5242</name></trkpt>
<trkpt lat="53.191243" lon="-1.755141"><ele>216</ele><time>2020-01-31T11:48:42Z</time><name>PT5243</name></trkpt>
<trkpt lat="53.191236" lon="-1.755175"><ele>216</ele><time>2020-01-31T11:48:49Z</time><name>PT5244</name></trkpt>
<trkpt lat="53.191240" lon="-1.755201"><ele>216</ele><time>2020-01-31T11:48:51Z</time><name>PT5245</name></trkpt>
<trkpt lat="53.191238" lon="-1.755221"><ele>216</ele><time>2020-01-31T11:48:51Z</time><name>PT5246</name></trkpt>
<trkpt lat="53.191241" lon="-1.755250"><ele>217</ele><time>2020-01-31T11:48:52Z</time><name>PT5247</name></trkpt>
<trkpt lat="53.191248" lon="-1.755285"><ele>217</ele><time>2020-01-31T11:48:54Z</time><name>PT5248</name></trkpt>
<trkpt lat="53.191245" lon="-1.755312"><ele>217</ele><time>2020-01-31T11:48:54Z</time><name>PT5249</name></trkpt>
<trkpt lat="53.191248" lon="-1.755341"><ele>217</ele><time>2020-01-31T11:48:55Z</time><name>PT5250</name></trkpt>
<trkpt lat="53.191258" lon="-1.755365"><ele>217</ele><time>2020-01-31T11:48:57Z</time><name>PT5251</name></trkpt>
<trkpt lat="53.191258" lon="-1.755391"><ele>217</ele><time>2020-01-31T11:48:57Z</time><name>PT5252</name></trkpt>
<trkpt lat="53.191260" lon="-1.755415"><ele>217</ele><time>2020-01-31T11:48:58Z</time><name>PT5253</name></trkpt>
<trkpt lat="53.191269" lon="-1.755432"><ele>217</ele><time>2020-01-31T11:49:00Z</time><name>PT5254</name></trkpt>
<trkpt lat="53.191273" lon="-1.755455"><ele>217</ele><time>2020-01-31T11:49:00Z</time><name>PT5255</name></trkpt>
<trkpt lat="53.191280" lon="-1.755477"><ele>217</ele><time>2020-01-31T11:49:01Z</time><name>PT5256</name></trkpt>
<trkpt lat="53.191286" lon="-1.755504"><ele>217</ele><time>2020-01-31T11:49:03Z</time><name>PT5257</name></trkpt>
<trkpt lat="53.191291" lon="-1.755518"><ele>217</ele><time>2020-01-31T11:49:03Z</time><name>PT5258</name></trkpt>
<trkpt lat="53.191296" lon="-1.755537"><ele>217</ele><time>2020-01-31T11:49:04Z</time><name>PT5259</name></trkpt>
<trkpt lat="53.191297" lon="-1.755546"><ele>217</ele><time>2020-01-31T11:49:06Z</time><name>PT5260</name></trkpt>
<trkpt lat="53.191304" lon="-1.755552"><ele>217</ele><time>2020-01-31T11:49:06Z</time><name>PT5261</name></trkpt>
<trkpt lat="53.191310" lon="-1.755566"><ele>217</ele><time>2020-01-31T11:49:07Z</time><name>PT5262</name></trkpt>
<trkpt lat="53.191314" lon="-1.755584"><ele>218</ele><time>2020-01-31T11:49:09Z</time><name>PT5263</name></trkpt>
<trkpt lat="53.191319" lon="-1.755602"><ele>218</ele><time>2020-01-31T11:49:09Z</time><name>PT5264</name></trkpt>
<trkpt lat="53.191326" lon="-1.755617"><ele>217</ele><time>2020-01-31T11:49:10Z</time><name>PT5265</name></trkpt>
<trkpt lat="53.191327" lon="-1.755634"><ele>217</ele><time>2020-01-31T11:49:12Z</time><name>PT5266</name></trkpt>
<trkpt lat="53.191334" lon="-1.755657"><ele>217</ele><time>2020-01-31T11:49:12Z</time><name>PT5267</name></trkpt>
<trkpt lat="53.191338" lon="-1.755671"><ele>217</ele><time>2020-01-31T11:49:13Z</time><name>PT5268</name></trkpt>
<trkpt lat="53.191350" lon="-1.755690"><ele>217</ele><time>2020-01-31T11:49:15Z</time><name>PT5269</name></trkpt>
<trkpt lat="53.191357" lon="-1.755698"><ele>216</ele><time>2020-01-31T11:49:15Z</time><name>PT5270</name></trkpt>
<trkpt lat="53.191359" lon="-1.755713"><ele>216</ele><time>2020-01-31T11:49:16Z</time><name>PT5271</name></trkpt>
<trkpt lat="53.191355" lon="-1.755715"><ele>217</ele><time>2020-01-31T11:49:18Z</time><name>PT5272</name></trkpt>
<trkpt lat="53.191349" lon="-1.755738"><ele>216</ele><time>2020-01-31T11:49:18Z</time><name>PT5273</name></trkpt>
<trkpt lat="53.191346" lon="-1.755758"><ele>216</ele><time>2020-01-31T11:49:19Z</time><name>PT5274</name></trkpt>
<trkpt lat="53.191339" lon="-1.755778"><ele>216</ele><time>2020-01-31T11:49:21Z</time><name>PT5275</name></trkpt>
<trkpt lat="53.191336" lon="-1.755801"><ele>216</ele><time>2020-01-31T11:49:21Z</time><name>PT5276</name></trkpt>
<trkpt lat="53.191336" lon="-1.755818"><ele>216</ele><time>2020-01-31T11:49:22Z</time><name>PT5277</name></trkpt>
<trkpt lat="53.191334" lon="-1.755833"><ele>216</ele><time>2020-01-31T11:49:24Z</time><name>PT5278</name></trkpt>
<trkpt lat="53.191336" lon="-1.755845"><ele>216</ele><time>2020-01-31T11:49:24Z</time><name>PT5279</name></trkpt>
<trkpt lat="53.191341" lon="-1.755855"><ele>217</ele><time>2020-01-31T11:49:25Z</time><name>PT5280</name></trkpt>
<trkpt lat="53.191344" lon="-1.755868"><ele>216</ele><time>2020-01-31T11:49:27Z</time><name>PT5281</name></trkpt>
<trkpt lat="53.191344" lon="-1.755880"><ele>217</ele><time>2020-01-31T11:49:27Z</time><name>PT5282</name></trkpt>
<trkpt lat="53.191343" lon="-1.755902"><ele>217</ele><time>2020-01-31T11:49:28Z</time><name>PT5283</name></trkpt>
<trkpt lat="53.191342" lon="-1.755911"><ele>216</ele><time>2020-01-31T11:49:30Z</time><name>PT5284</name></trkpt>
<trkpt lat="53.191338" lon="-1.755928"><ele>217</ele><time>2020-01-31T11:49:30Z</time><name>PT5285</name></trkpt>
<trkpt lat="53.191335" lon="-1.755941"><ele>217</ele><time>2020-01-31T11:49:31Z</time><name>PT5286</name></trkpt>
<trkpt lat="53.191331" lon="-1.755955"><ele>216</ele><time>2020-01-31T11:49:33Z</time><name>PT5287</name></trkpt>
<trkpt lat="53.191330" lon="-1.755980"><ele>216</ele><time>2020-01-31T11:49:34Z</time><name>PT5288</name></trkpt>
<trkpt lat="53.191332" lon="-1.756006"><ele>216</ele><time>2020-01-31T11:49:36Z</time><name>PT5289</name></trkpt>
<trkpt lat="53.191343" lon="-1.756013"><ele>216</ele><time>2020-01-31T11:49:36Z</time><name>PT5290</name></trkpt>
<trkpt lat="53.191346" lon="-1.756034"><ele>215</ele><time>2020-01-31T11:49:37Z</time><name>PT5291</name></trkpt>
<trkpt lat="53.191347" lon="-1.756059"><ele>215</ele><time>2020-01-31T11:49:39Z</time><name>PT5292</name></trkpt>
<trkpt lat="53.191362" lon="-1.756079"><ele>215</ele><time>2020-01-31T11:49:39Z</time><name>PT5293</name></trkpt>
<trkpt lat="53.191363" lon="-1.756101"><ele>215</ele><time>2020-01-31T11:49:40Z</time><name>PT5294</name></trkpt>
<trkpt lat="53.191373" lon="-1.756112"><ele>215</ele><time>2020-01-31T11:49:42Z</time><name>PT5295</name></trkpt>
<trkpt lat="53.191377" lon="-1.756125"><ele>215</ele><time>2020-01-31T11:49:42Z</time><name>PT5296</name></trkpt>
<trkpt lat="53.191377" lon="-1.756137"><ele>215</ele><time>2020-01-31T11:49:43Z</time><name>PT5297</name></trkpt>
<trkpt lat="53.191374" lon="-1.756163"><ele>214</ele><time>2020-01-31T11:49:45Z</time><name>PT5298</name></trkpt>
<trkpt lat="53.191374" lon="-1.756185"><ele>214</ele><time>2020-01-31T11:49:45Z</time><name>PT5299</name></trkpt>
<trkpt lat="53.191376" lon="-1.756216"><ele>214</ele><time>2020-01-31T11:49:46Z</time><name>PT5300</name></trkpt>
<trkpt lat="53.191382" lon="-1.756242"><ele>214</ele><time>2020-01-31T11:49:48Z</time><name>PT5301</name></trkpt>
<trkpt lat="53.191376" lon="-1.756271"><ele>214</ele><time>2020-01-31T11:49:48Z</time><name>PT5302</name></trkpt>
<trkpt lat="53.191374" lon="-1.756297"><ele>214</ele><time>2020-01-31T11:49:49Z</time><name>PT5303</name></trkpt>
<trkpt lat="53.191378" lon="-1.756315"><ele>214</ele><time>2020-01-31T11:49:51Z</time><name>PT5304</name></trkpt>
<trkpt lat="53.191385" lon="-1.756330"><ele>215</ele><time>2020-01-31T11:49:51Z</time><name>PT5305</name></trkpt>
<trkpt lat="53.191394" lon="-1.756345"><ele>215</ele><time>2020-01-31T11:49:52Z</time><name>PT5306</name></trkpt>
<trkpt lat="53.191402" lon="-1.756362"><ele>216</ele><time>2020-01-31T11:49:54Z</time><name>PT5307</name></trkpt>
<trkpt lat="53.191414" lon="-1.756380"><ele>216</ele><time>2020-01-31T11:49:54Z</time><name>PT5308</name></trkpt>
<trkpt lat="53.191421" lon="-1.756397"><ele>216</ele><time>2020-01-31T11:49:55Z</time><name>PT5309</name></trkpt>
<trkpt lat="53.191438" lon="-1.756402"><ele>216</ele><time>2020-01-31T11:49:57Z</time><name>PT5310</name></trkpt>
<trkpt lat="53.191454" lon="-1.756408"><ele>217</ele><time>2020-01-31T11:49:57Z</time><name>PT5311</name></trkpt>
<trkpt lat="53.191459" lon="-1.756419"><ele>217</ele><time>2020-01-31T11:49:58Z</time><name>PT5312</name></trkpt>
<trkpt lat="53.191465" lon="-1.756431"><ele>217</ele><time>2020-01-31T11:50:00Z</time><name>PT5313</name></trkpt>
<trkpt lat="53.191474" lon="-1.756450"><ele>217</ele><time>2020-01-31T11:50:00Z</time><name>PT5314</name></trkpt>
<trkpt lat="53.191486" lon="-1.756458"><ele>216</ele><time>2020-01-31T11:50:01Z</time><name>PT5315</name></trkpt>
<trkpt lat="53.191487" lon="-1.756488"><ele>214</ele><time>2020-01-31T11:50:03Z</time><name>PT5316</name></trkpt>
<trkpt lat="53.191502" lon="-1.756498"><ele>216</ele><time>2020-01-31T11:50:03Z</time><name>PT5317</name></trkpt>
<trkpt lat="53.191511" lon="-1.756513"><ele>215</ele><time>2020-01-31T11:50:04Z</time><name>PT5318</name></trkpt>
<trkpt lat="53.191522" lon="-1.756519"><ele>217</ele><time>2020-01-31T11:50:06Z</time><name>PT5319</name></trkpt>
<trkpt lat="53.191526" lon="-1.756533"><ele>217</ele><time>2020-01-31T11:50:06Z</time><name>PT5320</name></trkpt>
<trkpt lat="53.191533" lon="-1.756538"><ele>218</ele><time>2020-01-31T11:50:07Z</time><name>PT5321</name></trkpt>
<trkpt lat="53.191529" lon="-1.756561"><ele>218</ele><time>2020-01-31T11:50:09Z</time><name>PT5322</name></trkpt>
<trkpt lat="53.191525" lon="-1.756576"><ele>219</ele><time>2020-01-31T11:50:09Z</time><name>PT5323</name></trkpt>
<trkpt lat="53.191519" lon="-1.756608"><ele>218</ele><time>2020-01-31T11:50:10Z</time><name>PT5324</name></trkpt>
<trkpt lat="53.191521" lon="-1.756637"><ele>219</ele><time>2020-01-31T11:50:12Z</time><name>PT5325</name></trkpt>
<trkpt lat="53.191525" lon="-1.756654"><ele>220</ele><time>2020-01-31T11:50:12Z</time><name>PT5326</name></trkpt>
<trkpt lat="53.191522" lon="-1.756675"><ele>220</ele><time>2020-01-31T11:50:13Z</time><name>PT5327</name></trkpt>
<trkpt lat="53.191521" lon="-1.756691"><ele>220</ele><time>2020-01-31T11:50:15Z</time><name>PT5328</name></trkpt>
<trkpt lat="53.191519" lon="-1.756695"><ele>219</ele><time>2020-01-31T11:50:15Z</time><name>PT5329</name></trkpt>
<trkpt lat="53.191518" lon="-1.756708"><ele>218</ele><time>2020-01-31T11:50:16Z</time><name>PT5330</name></trkpt>
<trkpt lat="53.191514" lon="-1.756723"><ele>218</ele><time>2020-01-31T11:50:18Z</time><name>PT5331</name></trkpt>
<trkpt lat="53.191508" lon="-1.756744"><ele>218</ele><time>2020-01-31T11:50:18Z</time><name>PT5332</name></trkpt>
<trkpt lat="53.191508" lon="-1.756757"><ele>218</ele><time>2020-01-31T11:50:19Z</time><name>PT5333</name></trkpt>
<trkpt lat="53.191507" lon="-1.756768"><ele>218</ele><time>2020-01-31T11:50:21Z</time><name>PT5334</name></trkpt>
<trkpt lat="53.191510" lon="-1.756779"><ele>217</ele><time>2020-01-31T11:50:21Z</time><name>PT5335</name></trkpt>
<trkpt lat="53.191508" lon="-1.756797"><ele>217</ele><time>2020-01-31T11:50:22Z</time><name>PT5336</name></trkpt>
<trkpt lat="53.191507" lon="-1.756815"><ele>217</ele><time>2020-01-31T11:50:24Z</time><name>PT5337</name></trkpt>
<trkpt lat="53.191501" lon="-1.756844"><ele>216</ele><time>2020-01-31T11:50:24Z</time><name>PT5338</name></trkpt>
<trkpt lat="53.191500" lon="-1.756869"><ele>216</ele><time>2020-01-31T11:50:25Z</time><name>PT5339</name></trkpt>
<trkpt lat="53.191499" lon="-1.756888"><ele>216</ele><time>2020-01-31T11:50:27Z</time><name>PT5340</name></trkpt>
<trkpt lat="53.191497" lon="-1.756911"><ele>215</ele><time>2020-01-31T11:50:27Z</time><name>PT5341</name></trkpt>
<trkpt lat="53.191492" lon="-1.756931"><ele>216</ele><time>2020-01-31T11:50:28Z</time><name>PT5342</name></trkpt>
<trkpt lat="53.191491" lon="-1.756945"><ele>216</ele><time>2020-01-31T11:50:30Z</time><name>PT5343</name></trkpt>
<trkpt lat="53.191488" lon="-1.756959"><ele>216</ele><time>2020-01-31T11:50:30Z</time><name>PT5344</name></trkpt>
<trkpt lat="53.191489" lon="-1.756982"><ele>216</ele><time>2020-01-31T11:50:31Z</time><name>PT5345</name></trkpt>
<trkpt lat="53.191493" lon="-1.757000"><ele>215</ele><time>2020-01-31T11:50:33Z</time><name>PT5346</name></trkpt>
<trkpt lat="53.191493" lon="-1.757026"><ele>216</ele><time>2020-01-31T11:50:33Z</time><name>PT5347</name></trkpt>
<trkpt lat="53.191496" lon="-1.757051"><ele>216</ele><time>2020-01-31T11:50:34Z</time><name>PT5348</name></trkpt>
<trkpt lat="53.191499" lon="-1.757070"><ele>216</ele><time>2020-01-31T11:50:36Z</time><name>PT5349</name></trkpt>
<trkpt lat="53.191501" lon="-1.757088"><ele>216</ele><time>2020-01-31T11:50:36Z</time><name>PT5350</name></trkpt>
<trkpt lat="53.191502" lon="-1.757112"><ele>216</ele><time>2020-01-31T11:50:37Z</time><name>PT5351</name></trkpt>
<trkpt lat="53.191506" lon="-1.757128"><ele>217</ele><time>2020-01-31T11:50:39Z</time><name>PT5352</name></trkpt>
<trkpt lat="53.191513" lon="-1.757144"><ele>217</ele><time>2020-01-31T11:50:39Z</time><name>PT5353</name></trkpt>
<trkpt lat="53.191520" lon="-1.757161"><ele>217</ele><time>2020-01-31T11:50:40Z</time><name>PT5354</name></trkpt>
<trkpt lat="53.191525" lon="-1.757173"><ele>218</ele><time>2020-01-31T11:50:42Z</time><name>PT5355</name></trkpt>
<trkpt lat="53.191537" lon="-1.757185"><ele>217</ele><time>2020-01-31T11:50:42Z</time><name>PT5356</name></trkpt>
<trkpt lat="53.191545" lon="-1.757198"><ele>217</ele><time>2020-01-31T11:50:43Z</time><name>PT5357</name></trkpt>
<trkpt lat="53.191552" lon="-1.757205"><ele>218</ele><time>2020-01-31T11:50:45Z</time><name>PT5358</name></trkpt>
<trkpt lat="53.191563" lon="-1.757231"><ele>218</ele><time>2020-01-31T11:50:45Z</time><name>PT5359</name></trkpt>
<trkpt lat="53.191573" lon="-1.757252"><ele>217</ele><time>2020-01-31T11:50:46Z</time><name>PT5360</name></trkpt>
<trkpt lat="53.191575" lon="-1.757267"><ele>216</ele><time>2020-01-31T11:50:48Z</time><name>PT5361</name></trkpt>
<trkpt lat="53.191583" lon="-1.757280"><ele>216</ele><time>2020-01-31T11:50:48Z</time><name>PT5362</name></trkpt>
<trkpt lat="53.191585" lon="-1.757294"><ele>216</ele><time>2020-01-31T11:50:49Z</time><name>PT5363</name></trkpt>
<trkpt lat="53.191585" lon="-1.757306"><ele>216</ele><time>2020-01-31T11:50:51Z</time><name>PT5364</name></trkpt>
<trkpt lat="53.191589" lon="-1.757330"><ele>217</ele><time>2020-01-31T11:50:51Z</time><name>PT5365</name></trkpt>
<trkpt lat="53.191591" lon="-1.757343"><ele>217</ele><time>2020-01-31T11:50:52Z</time><name>PT5366</name></trkpt>
<trkpt lat="53.191591" lon="-1.757358"><ele>217</ele><time>2020-01-31T11:50:54Z</time><name>PT5367</name></trkpt>
<trkpt lat="53.191590" lon="-1.757376"><ele>217</ele><time>2020-01-31T11:50:54Z</time><name>PT5368</name></trkpt>
<trkpt lat="53.191593" lon="-1.757407"><ele>217</ele><time>2020-01-31T11:50:55Z</time><name>PT5369</name></trkpt>
<trkpt lat="53.191596" lon="-1.757416"><ele>217</ele><time>2020-01-31T11:50:57Z</time><name>PT5370</name></trkpt>
<trkpt lat="53.191602" lon="-1.757411"><ele>217</ele><time>2020-01-31T11:50:57Z</time><name>PT5371</name></trkpt>
<trkpt lat="53.191608" lon="-1.757415"><ele>218</ele><time>2020-01-31T11:50:58Z</time><name>PT5372</name></trkpt>
<trkpt lat="53.191613" lon="-1.757429"><ele>217</ele><time>2020-01-31T11:51:00Z</time><name>PT5373</name></trkpt>
<trkpt lat="53.191612" lon="-1.757447"><ele>217</ele><time>2020-01-31T11:51:00Z</time><name>PT5374</name></trkpt>
<trkpt lat="53.191615" lon="-1.757456"><ele>217</ele><time>2020-01-31T11:51:01Z</time><name>PT5375</name></trkpt>
<trkpt lat="53.191616" lon="-1.757471"><ele>217</ele><time>2020-01-31T11:51:03Z</time><name>PT5376</name></trkpt>
<trkpt lat="53.191621" lon="-1.757494"><ele>217</ele><time>2020-01-31T11:51:03Z</time><name>PT5377</name></trkpt>
<trkpt lat="53.191631" lon="-1.757513"><ele>217</ele><time>2020-01-31T11:51:04Z</time><name>PT5378</name></trkpt>
<trkpt lat="53.191637" lon="-1.757528"><ele>217</ele><time>2020-01-31T11:51:06Z</time><name>PT5379</name></trkpt>
<trkpt lat="53.191640" lon="-1.757542"><ele>218</ele><time>2020-01-31T11:51:06Z</time><name>PT5380</name></trkpt>
<trkpt lat="53.191646" lon="-1.757555"><ele>218</ele><time>2020-01-31T11:51:07Z</time><name>PT5381</name></trkpt>
<trkpt lat="53.191647" lon="-1.757579"><ele>219</ele><time>2020-01-31T11:51:09Z</time><name>PT5382</name></trkpt>
<trkpt lat="53.191648" lon="-1.757595"><ele>221</ele><time>2020-01-31T11:51:09Z</time><name>PT5383</name></trkpt>
<trkpt lat="53.191657" lon="-1.757610"><ele>221</ele><time>2020-01-31T11:51:10Z</time><name>PT5384</name></trkpt>
<trkpt lat="53.191669" lon="-1.757617"><ele>222</ele><time>2020-01-31T11:51:12Z</time><name>PT5385</name></trkpt>
<trkpt lat="53.191676" lon="-1.757630"><ele>222</ele><time>2020-01-31T11:51:12Z</time><name>PT5386</name></trkpt>
<trkpt lat="53.191681" lon="-1.757650"><ele>222</ele><time>2020-01-31T11:51:13Z</time><name>PT5387</name></trkpt>
<trkpt lat="53.191696" lon="-1.757661"><ele>222</ele><time>2020-01-31T11:51:15Z</time><name>PT5388</name></trkpt>
<trkpt lat="53.191699" lon="-1.757686"><ele>222</ele><time>2020-01-31T11:51:15Z</time><name>PT5389</name></trkpt>
<trkpt lat="53.191704" lon="-1.757705"><ele>222</ele><time>2020-01-31T11:51:16Z</time><name>PT5390</name></trkpt>
<trkpt lat="53.191710" lon="-1.757724"><ele>223</ele><time>2020-01-31T11:51:18Z</time><name>PT5391</name></trkpt>
<trkpt lat="53.191716" lon="-1.757740"><ele>224</ele><time>2020-01-31T11:51:18Z</time><name>PT5392</name></trkpt>
<trkpt lat="53.191724" lon="-1.757759"><ele>224</ele><time>2020-01-31T11:51:19Z</time><name>PT5393</name></trkpt>
<trkpt lat="53.191730" lon="-1.757775"><ele>223</ele><time>2020-01-31T11:51:21Z</time><name>PT5394</name></trkpt>
<trkpt lat="53.191734" lon="-1.757793"><ele>223</ele><time>2020-01-31T11:51:21Z</time><name>PT5395</name></trkpt>
<trkpt lat="53.191740" lon="-1.757805"><ele>225</ele><time>2020-01-31T11:51:22Z</time><name>PT5396</name></trkpt>
<trkpt lat="53.191745" lon="-1.757826"><ele>225</ele><time>2020-01-31T11:51:24Z</time><name>PT5397</name></trkpt>
<trkpt lat="53.191747" lon="-1.757845"><ele>224</ele><time>2020-01-31T11:51:24Z</time><name>PT5398</name></trkpt>
<trkpt lat="53.191750" lon="-1.757862"><ele>224</ele><time>2020-01-31T11:51:26Z</time><name>PT5399</name></trkpt>
<trkpt lat="53.191753" lon="-1.757890"><ele>223</ele><time>2020-01-31T11:51:27Z</time><name>PT5400</name></trkpt>
<trkpt lat="53.191754" lon="-1.757911"><ele>224</ele><time>2020-01-31T11:51:27Z</time><name>PT5401</name></trkpt>
<trkpt lat="53.191761" lon="-1.757924"><ele>224</ele><time>2020-01-31T11:51:29Z</time><name>PT5402</name></trkpt>
<trkpt lat="53.191768" lon="-1.757937"><ele>224</ele><time>2020-01-31T11:51:30Z</time><name>PT5403</name></trkpt>
<trkpt lat="53.191775" lon="-1.757952"><ele>224</ele><time>2020-01-31T11:51:30Z</time><name>PT5404</name></trkpt>
<trkpt lat="53.191779" lon="-1.757970"><ele>223</ele><time>2020-01-31T11:51:32Z</time><name>PT5405</name></trkpt>
<trkpt lat="53.191783" lon="-1.757988"><ele>223</ele><time>2020-01-31T11:51:33Z</time><name>PT5406</name></trkpt>
<trkpt lat="53.191784" lon="-1.758011"><ele>222</ele><time>2020-01-31T11:51:33Z</time><name>PT5407</name></trkpt>
<trkpt lat="53.191786" lon="-1.758030"><ele>222</ele><time>2020-01-31T11:51:34Z</time><name>PT5408</name></trkpt>
<trkpt lat="53.191784" lon="-1.758052"><ele>222</ele><time>2020-01-31T11:51:36Z</time><name>PT5409</name></trkpt>
<trkpt lat="53.191786" lon="-1.758070"><ele>223</ele><time>2020-01-31T11:51:36Z</time><name>PT5410</name></trkpt>
<trkpt lat="53.191793" lon="-1.758087"><ele>223</ele><time>2020-01-31T11:51:37Z</time><name>PT5411</name></trkpt>
<trkpt lat="53.191800" lon="-1.758104"><ele>224</ele><time>2020-01-31T11:51:39Z</time><name>PT5412</name></trkpt>
<trkpt lat="53.191808" lon="-1.758114"><ele>224</ele><time>2020-01-31T11:51:39Z</time><name>PT5413</name></trkpt>
<trkpt lat="53.191810" lon="-1.758127"><ele>225</ele><time>2020-01-31T11:51:40Z</time><name>PT5414</name></trkpt>
<trkpt lat="53.191808" lon="-1.758139"><ele>225</ele><time>2020-01-31T11:51:42Z</time><name>PT5415</name></trkpt>
<trkpt lat="53.191810" lon="-1.758158"><ele>225</ele><time>2020-01-31T11:51:42Z</time><name>PT5416</name></trkpt>
<trkpt lat="53.191820" lon="-1.758161"><ele>226</ele><time>2020-01-31T11:51:43Z</time><name>PT5417</name></trkpt>
<trkpt lat="53.191829" lon="-1.758170"><ele>227</ele><time>2020-01-31T11:51:45Z</time><name>PT5418</name></trkpt>
<trkpt lat="53.191839" lon="-1.758185"><ele>228</ele><time>2020-01-31T11:51:45Z</time><name>PT5419</name></trkpt>
<trkpt lat="53.191844" lon="-1.758195"><ele>228</ele><time>2020-01-31T11:51:46Z</time><name>PT5420</name></trkpt>
<trkpt lat="53.191848" lon="-1.758212"><ele>228</ele><time>2020-01-31T11:51:48Z</time><name>PT5421</name></trkpt>
<trkpt lat="53.191855" lon="-1.758219"><ele>228</ele><time>2020-01-31T11:51:48Z</time><name>PT5422</name></trkpt>
<trkpt lat="53.191856" lon="-1.758232"><ele>229</ele><time>2020-01-31T11:51:49Z</time><name>PT5423</name></trkpt>
<trkpt lat="53.191857" lon="-1.758248"><ele>229</ele><time>2020-01-31T11:51:51Z</time><name>PT5424</name></trkpt>
<trkpt lat="53.191862" lon="-1.758263"><ele>229</ele><time>2020-01-31T11:51:51Z</time><name>PT5425</name></trkpt>
<trkpt lat="53.191869" lon="-1.758275"><ele>229</ele><time>2020-01-31T11:51:52Z</time><name>PT5426</name></trkpt>
<trkpt lat="53.191868" lon="-1.758298"><ele>229</ele><time>2020-01-31T11:51:54Z</time><name>PT5427</name></trkpt>
<trkpt lat="53.191871" lon="-1.758311"><ele>229</ele><time>2020-01-31T11:51:54Z</time><name>PT5428</name></trkpt>
<trkpt lat="53.191871" lon="-1.758331"><ele>230</ele><time>2020-01-31T11:51:55Z</time><name>PT5429</name></trkpt>
<trkpt lat="53.191874" lon="-1.758347"><ele>230</ele><time>2020-01-31T11:51:57Z</time><name>PT5430</name></trkpt>
<trkpt lat="53.191879" lon="-1.758357"><ele>230</ele><time>2020-01-31T11:51:57Z</time><name>PT5431</name></trkpt>
<trkpt lat="53.191884" lon="-1.758368"><ele>230</ele><time>2020-01-31T11:51:58Z</time><name>PT5432</name></trkpt>
<trkpt lat="53.191889" lon="-1.758378"><ele>231</ele><time>2020-01-31T11:52:00Z</time><name>PT5433</name></trkpt>
<trkpt lat="53.191892" lon="-1.758394"><ele>232</ele><time>2020-01-31T11:52:00Z</time><name>PT5434</name></trkpt>
<trkpt lat="53.191898" lon="-1.758413"><ele>231</ele><time>2020-01-31T11:52:01Z</time><name>PT5435</name></trkpt>
<trkpt lat="53.191898" lon="-1.758437"><ele>231</ele><time>2020-01-31T11:52:03Z</time><name>PT5436</name></trkpt>
<trkpt lat="53.191899" lon="-1.758460"><ele>231</ele><time>2020-01-31T11:52:03Z</time><name>PT5437</name></trkpt>
<trkpt lat="53.191901" lon="-1.758479"><ele>230</ele><time>2020-01-31T11:52:04Z</time><name>PT5438</name></trkpt>
<trkpt lat="53.191909" lon="-1.758496"><ele>230</ele><time>2020-01-31T11:52:06Z</time><name>PT5439</name></trkpt>
<trkpt lat="53.191908" lon="-1.758514"><ele>229</ele><time>2020-01-31T11:52:06Z</time><name>PT5440</name></trkpt>
<trkpt lat="53.191906" lon="-1.758530"><ele>229</ele><time>2020-01-31T11:52:07Z</time><name>PT5441</name></trkpt>
<trkpt lat="53.191904" lon="-1.758547"><ele>230</ele><time>2020-01-31T11:52:09Z</time><name>PT5442</name></trkpt>
<trkpt lat="53.191906" lon="-1.758567"><ele>231</ele><time>2020-01-31T11:52:09Z</time><name>PT5443</name></trkpt>
<trkpt lat="53.191906" lon="-1.758592"><ele>231</ele><time>2020-01-31T11:52:10Z</time><name>PT5444</name></trkpt>
<trkpt lat="53.191905" lon="-1.758616"><ele>231</ele><time>2020-01-31T11:52:12Z</time><name>PT5445</name></trkpt>
<trkpt lat="53.191906" lon="-1.758634"><ele>231</ele><time>2020-01-31T11:52:12Z</time><name>PT5446</name></trkpt>
<trkpt lat="53.191909" lon="-1.758651"><ele>232</ele><time>2020-01-31T11:52:13Z</time><name>PT5447</name></trkpt>
<trkpt lat="53.191911" lon="-1.758672"><ele>232</ele><time>2020-01-31T11:52:15Z</time><name>PT5448</name></trkpt>
<trkpt lat="53.191910" lon="-1.758696"><ele>232</ele><time>2020-01-31T11:52:15Z</time><name>PT5449</name></trkpt>
<trkpt lat="53.191915" lon="-1.758707"><ele>232</ele><time>2020-01-31T11:52:16Z</time><name>PT5450</name></trkpt>
<trkpt lat="53.191920" lon="-1.758717"><ele>232</ele><time>2020-01-31T11:52:18Z</time><name>PT5451</name></trkpt>
<trkpt lat="53.191924" lon="-1.758732"><ele>233</ele><time>2020-01-31T11:52:18Z</time><name>PT5452</name></trkpt>
<trkpt lat="53.191925" lon="-1.758751"><ele>232</ele><time>2020-01-31T11:52:19Z</time><name>PT5453</name></trkpt>
<trkpt lat="53.191925" lon="-1.758769"><ele>233</ele><time>2020-01-31T11:52:21Z</time><name>PT5454</name></trkpt>
<trkpt lat="53.191927" lon="-1.758786"><ele>233</ele><time>2020-01-31T11:52:21Z</time><name>PT5455</name></trkpt>
<trkpt lat="53.191928" lon="-1.758803"><ele>233</ele><time>2020-01-31T11:52:22Z</time><name>PT5456</name></trkpt>
<trkpt lat="53.191929" lon="-1.758820"><ele>233</ele><time>2020-01-31T11:52:24Z</time><name>PT5457</name></trkpt>
<trkpt lat="53.191928" lon="-1.758846"><ele>233</ele><time>2020-01-31T11:52:24Z</time><name>PT5458</name></trkpt>
<trkpt lat="53.191930" lon="-1.758870"><ele>233</ele><time>2020-01-31T11:52:25Z</time><name>PT5459</name></trkpt>
<trkpt lat="53.191936" lon="-1.758882"><ele>233</ele><time>2020-01-31T11:52:27Z</time><name>PT5460</name></trkpt>
<trkpt lat="53.191941" lon="-1.758894"><ele>232</ele><time>2020-01-31T11:52:27Z</time><name>PT5461</name></trkpt>
<trkpt lat="53.191943" lon="-1.758904"><ele>231</ele><time>2020-01-31T11:52:28Z</time><name>PT5462</name></trkpt>
<trkpt lat="53.191948" lon="-1.758913"><ele>231</ele><time>2020-01-31T11:52:30Z</time><name>PT5463</name></trkpt>
<trkpt lat="53.191952" lon="-1.758923"><ele>231</ele><time>2020-01-31T11:52:30Z</time><name>PT5464</name></trkpt>
<trkpt lat="53.191953" lon="-1.758934"><ele>230</ele><time>2020-01-31T11:52:31Z</time><name>PT5465</name></trkpt>
<trkpt lat="53.191956" lon="-1.758941"><ele>230</ele><time>2020-01-31T11:52:33Z</time><name>PT5466</name></trkpt>
<trkpt lat="53.191955" lon="-1.758950"><ele>230</ele><time>2020-01-31T11:52:33Z</time><name>PT5467</name></trkpt>
<trkpt lat="53.191952" lon="-1.758960"><ele>229</ele><time>2020-01-31T11:52:34Z</time><name>PT5468</name></trkpt>
<trkpt lat="53.191950" lon="-1.758970"><ele>229</ele><time>2020-01-31T11:52:36Z</time><name>PT5469</name></trkpt>
<trkpt lat="53.191946" lon="-1.758988"><ele>228</ele><time>2020-01-31T11:52:36Z</time><name>PT5470</name></trkpt>
<trkpt lat="53.191942" lon="-1.759000"><ele>226</ele><time>2020-01-31T11:52:37Z</time><name>PT5471</name></trkpt>
<trkpt lat="53.191940" lon="-1.759008"><ele>226</ele><time>2020-01-31T11:52:39Z</time><name>PT5472</name></trkpt>
<trkpt lat="53.191940" lon="-1.759012"><ele>226</ele><time>2020-01-31T11:52:39Z</time><name>PT5473</name></trkpt>
<trkpt lat="53.191938" lon="-1.759021"><ele>226</ele><time>2020-01-31T11:52:40Z</time><name>PT5474</name></trkpt>
<trkpt lat="53.191935" lon="-1.759025"><ele>226</ele><time>2020-01-31T11:52:42Z</time><name>PT5475</name></trkpt>
<trkpt lat="53.191935" lon="-1.759029"><ele>226</ele><time>2020-01-31T11:52:42Z</time><name>PT5476</name></trkpt>
<trkpt lat="53.191936" lon="-1.759033"><ele>226</ele><time>2020-01-31T11:52:43Z</time><name>PT5477</name></trkpt>
<trkpt lat="53.191937" lon="-1.759036"><ele>226</ele><time>2020-01-31T11:52:45Z</time><name>PT5478</name></trkpt>
<trkpt lat="53.191935" lon="-1.759047"><ele>227</ele><time>2020-01-31T11:53:00Z</time><name>PT5479</name></trkpt>
<trkpt lat="53.191940" lon="-1.759062"><ele>227</ele><time>2020-01-31T11:53:00Z</time><name>PT5480</name></trkpt>
<trkpt lat="53.191942" lon="-1.759072"><ele>227</ele><time>2020-01-31T11:53:01Z</time><name>PT5481</name></trkpt>
<trkpt lat="53.191947" lon="-1.759086"><ele>228</ele><time>2020-01-31T11:53:03Z</time><name>PT5482</name></trkpt>
<trkpt lat="53.191950" lon="-1.759085"><ele>228</ele><time>2020-01-31T11:53:04Z</time><name>PT5483</name></trkpt>
<trkpt lat="53.191949" lon="-1.759094"><ele>228</ele><time>2020-01-31T11:53:06Z</time><name>PT5484</name></trkpt>
<trkpt lat="53.191949" lon="-1.759099"><ele>228</ele><time>2020-01-31T11:53:06Z</time><name>PT5485</name></trkpt>
<trkpt lat="53.191949" lon="-1.759100"><ele>227</ele><time>2020-01-31T11:53:07Z</time><name>PT5486</name></trkpt>
<trkpt lat="53.191956" lon="-1.759102"><ele>227</ele><time>2020-01-31T11:53:09Z</time><name>PT5487</name></trkpt>
<trkpt lat="53.191959" lon="-1.759105"><ele>227</ele><time>2020-01-31T11:53:09Z</time><name>PT5488</name></trkpt>
<trkpt lat="53.191968" lon="-1.759108"><ele>227</ele><time>2020-01-31T11:53:10Z</time><name>PT5489</name></trkpt>
<trkpt lat="53.191971" lon="-1.759110"><ele>227</ele><time>2020-01-31T11:53:12Z</time><name>PT5490</name></trkpt>
<trkpt lat="53.191977" lon="-1.759109"><ele>227</ele><time>2020-01-31T11:53:12Z</time><name>PT5491</name></trkpt>
<trkpt lat="53.191983" lon="-1.759110"><ele>227</ele><time>2020-01-31T11:53:13Z</time><name>PT5492</name></trkpt>
<trkpt lat="53.191988" lon="-1.759111"><ele>227</ele><time>2020-01-31T11:53:15Z</time><name>PT5493</name></trkpt>
<trkpt lat="53.191985" lon="-1.759110"><ele>228</ele><time>2020-01-31T11:53:21Z</time><name>PT5494</name></trkpt>
<trkpt lat="53.191979" lon="-1.759109"><ele>229</ele><time>2020-01-31T11:53:22Z</time><name>PT5495</name></trkpt>
<trkpt lat="53.191975" lon="-1.759114"><ele>229</ele><time>2020-01-31T11:53:24Z</time><name>PT5496</name></trkpt>
<trkpt lat="53.191972" lon="-1.759116"><ele>228</ele><time>2020-01-31T11:53:27Z</time><name>PT5497</name></trkpt>
<trkpt lat="53.191970" lon="-1.759123"><ele>229</ele><time>2020-01-31T11:53:28Z</time><name>PT5498</name></trkpt>
<trkpt lat="53.191966" lon="-1.759124"><ele>229</ele><time>2020-01-31T11:53:30Z</time><name>PT5499</name></trkpt>
<trkpt lat="53.191962" lon="-1.759125"><ele>228</ele><time>2020-01-31T11:53:36Z</time><name>PT5500</name></trkpt>
<trkpt lat="53.191958" lon="-1.759120"><ele>228</ele><time>2020-01-31T11:53:37Z</time><name>PT5501</name></trkpt>
<trkpt lat="53.191955" lon="-1.759120"><ele>228</ele><time>2020-01-31T11:53:39Z</time><name>PT5502</name></trkpt>
<trkpt lat="53.191952" lon="-1.759117"><ele>228</ele><time>2020-01-31T11:53:39Z</time><name>PT5503</name></trkpt>
<trkpt lat="53.191952" lon="-1.759114"><ele>229</ele><time>2020-01-31T11:54:00Z</time><name>PT5504</name></trkpt>
<trkpt lat="53.191953" lon="-1.759111"><ele>230</ele><time>2020-01-31T11:54:01Z</time><name>PT5505</name></trkpt>
<trkpt lat="53.191955" lon="-1.759102"><ele>230</ele><time>2020-01-31T11:54:03Z</time><name>PT5506</name></trkpt>
<trkpt lat="53.191955" lon="-1.759105"><ele>230</ele><time>2020-01-31T11:54:03Z</time><name>PT5507</name></trkpt>
<trkpt lat="53.191954" lon="-1.759110"><ele>231</ele><time>2020-01-31T11:54:13Z</time><name>PT5508</name></trkpt>
<trkpt lat="53.191955" lon="-1.759123"><ele>231</ele><time>2020-01-31T11:54:15Z</time><name>PT5509</name></trkpt>
<trkpt lat="53.191951" lon="-1.759133"><ele>231</ele><time>2020-01-31T11:54:15Z</time><name>PT5510</name></trkpt>
<trkpt lat="53.191953" lon="-1.759149"><ele>230</ele><time>2020-01-31T11:54:16Z</time><name>PT5511</name></trkpt>
<trkpt lat="53.191956" lon="-1.759167"><ele>230</ele><time>2020-01-31T11:54:18Z</time><name>PT5512</name></trkpt>
<trkpt lat="53.191958" lon="-1.759183"><ele>230</ele><time>2020-01-31T11:54:18Z</time><name>PT5513</name></trkpt>
<trkpt lat="53.191957" lon="-1.759194"><ele>230</ele><time>2020-01-31T11:54:19Z</time><name>PT5514</name></trkpt>
<trkpt lat="53.191957" lon="-1.759206"><ele>230</ele><time>2020-01-31T11:54:21Z</time><name>PT5515</name></trkpt>
<trkpt lat="53.191957" lon="-1.759220"><ele>229</ele><time>2020-01-31T11:54:21Z</time><name>PT5516</name></trkpt>
<trkpt lat="53.191955" lon="-1.759234"><ele>229</ele><time>2020-01-31T11:54:22Z</time><name>PT5517</name></trkpt>
<trkpt lat="53.191957" lon="-1.759254"><ele>229</ele><time>2020-01-31T11:54:24Z</time><name>PT5518</name></trkpt>
<trkpt lat="53.191958" lon="-1.759264"><ele>229</ele><time>2020-01-31T11:54:24Z</time><name>PT5519</name></trkpt>
<trkpt lat="53.191959" lon="-1.759273"><ele>230</ele><time>2020-01-31T11:54:25Z</time><name>PT5520</name></trkpt>
<trkpt lat="53.191963" lon="-1.759287"><ele>230</ele><time>2020-01-31T11:54:27Z</time><name>PT5521</name></trkpt>
<trkpt lat="53.191963" lon="-1.759297"><ele>230</ele><time>2020-01-31T11:54:27Z</time><name>PT5522</name></trkpt>
<trkpt lat="53.191969" lon="-1.759312"><ele>229</ele><time>2020-01-31T11:54:28Z</time><name>PT5523</name></trkpt>
<trkpt lat="53.191976" lon="-1.759319"><ele>229</ele><time>2020-01-31T11:54:30Z</time><name>PT5524</name></trkpt>
<trkpt lat="53.191978" lon="-1.759331"><ele>230</ele><time>2020-01-31T11:54:30Z</time><name>PT5525</name></trkpt>
<trkpt lat="53.191981" lon="-1.759346"><ele>230</ele><time>2020-01-31T11:54:31Z</time><name>PT5526</name></trkpt>
<trkpt lat="53.191980" lon="-1.759362"><ele>231</ele><time>2020-01-31T11:54:33Z</time><name>PT5527</name></trkpt>
<trkpt lat="53.191982" lon="-1.759373"><ele>231</ele><time>2020-01-31T11:54:33Z</time><name>PT5528</name></trkpt>
<trkpt lat="53.191981" lon="-1.759380"><ele>230</ele><time>2020-01-31T11:54:34Z</time><name>PT5529</name></trkpt>
<trkpt lat="53.191983" lon="-1.759395"><ele>229</ele><time>2020-01-31T11:54:36Z</time><name>PT5530</name></trkpt>
<trkpt lat="53.191985" lon="-1.759406"><ele>229</ele><time>2020-01-31T11:54:36Z</time><name>PT5531</name></trkpt>
<trkpt lat="53.191985" lon="-1.759416"><ele>229</ele><time>2020-01-31T11:54:37Z</time><name>PT5532</name></trkpt>
<trkpt lat="53.191983" lon="-1.759417"><ele>229</ele><time>2020-01-31T11:54:39Z</time><name>PT5533</name></trkpt>
<trkpt lat="53.191984" lon="-1.759429"><ele>228</ele><time>2020-01-31T11:54:39Z</time><name>PT5534</name></trkpt>
<trkpt lat="53.191988" lon="-1.759438"><ele>227</ele><time>2020-01-31T11:54:40Z</time><name>PT5535</name></trkpt>
<trkpt lat="53.191994" lon="-1.759440"><ele>228</ele><time>2020-01-31T11:54:42Z</time><name>PT5536</name></trkpt>
<trkpt lat="53.191995" lon="-1.759444"><ele>228</ele><time>2020-01-31T11:54:42Z</time><name>PT5537</name></trkpt>
<trkpt lat="53.191999" lon="-1.759449"><ele>228</ele><time>2020-01-31T11:54:43Z</time><name>PT5538</name></trkpt>
<trkpt lat="53.192003" lon="-1.759461"><ele>229</ele><time>2020-01-31T11:54:45Z</time><name>PT5539</name></trkpt>
<trkpt lat="53.192003" lon="-1.759465"><ele>229</ele><time>2020-01-31T11:54:45Z</time><name>PT5540</name></trkpt>
<trkpt lat="53.192006" lon="-1.759469"><ele>229</ele><time>2020-01-31T11:54:46Z</time><name>PT5541</name></trkpt>
<trkpt lat="53.192012" lon="-1.759470"><ele>230</ele><time>2020-01-31T11:54:48Z</time><name>PT5542</name></trkpt>
<trkpt lat="53.192013" lon="-1.759466"><ele>229</ele><time>2020-01-31T11:54:48Z</time><name>PT5543</name></trkpt>
<trkpt lat="53.192012" lon="-1.759471"><ele>230</ele><time>2020-01-31T11:54:49Z</time><name>PT5544</name></trkpt>
<trkpt lat="53.192014" lon="-1.759470"><ele>230</ele><time>2020-01-31T11:54:51Z</time><name>PT5545</name></trkpt>
<trkpt lat="53.192016" lon="-1.759475"><ele>229</ele><time>2020-01-31T11:54:51Z</time><name>PT5546</name></trkpt>
<trkpt lat="53.192015" lon="-1.759480"><ele>229</ele><time>2020-01-31T11:54:52Z</time><name>PT5547</name></trkpt>
<trkpt lat="53.192012" lon="-1.759492"><ele>231</ele><time>2020-01-31T11:54:54Z</time><name>PT5548</name></trkpt>
<trkpt lat="53.192012" lon="-1.759497"><ele>231</ele><time>2020-01-31T11:54:54Z</time><name>PT5549</name></trkpt>
<trkpt lat="53.192012" lon="-1.759474"><ele>231</ele><time>2020-01-31T11:55:01Z</time><name>PT5550</name></trkpt>
<trkpt lat="53.192013" lon="-1.759466"><ele>231</ele><time>2020-01-31T11:55:03Z</time><name>PT5551</name></trkpt>
<trkpt lat="53.192011" lon="-1.759463"><ele>231</ele><time>2020-01-31T11:55:03Z</time><name>PT5552</name></trkpt>
<trkpt lat="53.192005" lon="-1.759468"><ele>232</ele><time>2020-01-31T11:55:04Z</time><name>PT5553</name></trkpt>
<trkpt lat="53.192009" lon="-1.759457"><ele>232</ele><time>2020-01-31T11:55:06Z</time><name>PT5554</name></trkpt>
<trkpt lat="53.192002" lon="-1.759467"><ele>233</ele><time>2020-01-31T11:55:06Z</time><name>PT5555</name></trkpt>
<trkpt lat="53.192000" lon="-1.759475"><ele>234</ele><time>2020-01-31T11:55:07Z</time><name>PT5556</name></trkpt>
<trkpt lat="53.192003" lon="-1.759471"><ele>233</ele><time>2020-01-31T11:55:09Z</time><name>PT5557</name></trkpt>
<trkpt lat="53.192002" lon="-1.759461"><ele>234</ele><time>2020-01-31T11:55:09Z</time><name>PT5558</name></trkpt>
<trkpt lat="53.192001" lon="-1.759456"><ele>234</ele><time>2020-01-31T11:55:10Z</time><name>PT5559</name></trkpt>
<trkpt lat="53.192002" lon="-1.759456"><ele>234</ele><time>2020-01-31T11:55:12Z</time><name>PT5560</name></trkpt>
<trkpt lat="53.192002" lon="-1.759465"><ele>234</ele><time>2020-01-31T11:55:12Z</time><name>PT5561</name></trkpt>
<trkpt lat="53.191998" lon="-1.759473"><ele>234</ele><time>2020-01-31T11:55:13Z</time><name>PT5562</name></trkpt>
<trkpt lat="53.192001" lon="-1.759481"><ele>236</ele><time>2020-01-31T11:55:15Z</time><name>PT5563</name></trkpt>
<trkpt lat="53.192004" lon="-1.759481"><ele>236</ele><time>2020-01-31T11:55:15Z</time><name>PT5564</name></trkpt>
<trkpt lat="53.192008" lon="-1.759487"><ele>237</ele><time>2020-01-31T11:55:16Z</time><name>PT5565</name></trkpt>
<trkpt lat="53.192001" lon="-1.759487"><ele>239</ele><time>2020-01-31T11:55:24Z</time><name>PT5566</name></trkpt>
<trkpt lat="53.192000" lon="-1.759491"><ele>239</ele><time>2020-01-31T11:55:25Z</time><name>PT5567</name></trkpt>
<trkpt lat="53.191997" lon="-1.759492"><ele>239</ele><time>2020-01-31T11:55:27Z</time><name>PT5568</name></trkpt>
<trkpt lat="53.191997" lon="-1.759501"><ele>239</ele><time>2020-01-31T11:55:31Z</time><name>PT5569</name></trkpt>
<trkpt lat="53.191996" lon="-1.759513"><ele>239</ele><time>2020-01-31T11:55:33Z</time><name>PT5570</name></trkpt>
<trkpt lat="53.191997" lon="-1.759524"><ele>239</ele><time>2020-01-31T11:55:33Z</time><name>PT5571</name></trkpt>
<trkpt lat="53.191999" lon="-1.759529"><ele>239</ele><time>2020-01-31T11:55:34Z</time><name>PT5572</name></trkpt>
<trkpt lat="53.192003" lon="-1.759544"><ele>240</ele><time>2020-01-31T11:55:36Z</time><name>PT5573</name></trkpt>
<trkpt lat="53.192006" lon="-1.759548"><ele>241</ele><time>2020-01-31T11:55:36Z</time><name>PT5574</name></trkpt>
<trkpt lat="53.192006" lon="-1.759548"><ele>241</ele><time>2020-01-31T11:55:37Z</time><name>PT5575</name></trkpt>
<trkpt lat="53.192003" lon="-1.759553"><ele>240</ele><time>2020-01-31T11:55:39Z</time><name>PT5576</name></trkpt>
<trkpt lat="53.192006" lon="-1.759558"><ele>240</ele><time>2020-01-31T11:55:39Z</time><name>PT5577</name></trkpt>
<trkpt lat="53.192009" lon="-1.759556"><ele>240</ele><time>2020-01-31T11:55:40Z</time><name>PT5578</name></trkpt>
<trkpt lat="53.192013" lon="-1.759560"><ele>239</ele><time>2020-01-31T11:55:42Z</time><name>PT5579</name></trkpt>
<trkpt lat="53.192023" lon="-1.759564"><ele>240</ele><time>2020-01-31T11:55:42Z</time><name>PT5580</name></trkpt>
<trkpt lat="53.192025" lon="-1.759566"><ele>240</ele><time>2020-01-31T11:55:43Z</time><name>PT5581</name></trkpt>
<trkpt lat="53.192027" lon="-1.759567"><ele>241</ele><time>2020-01-31T11:55:45Z</time><name>PT5582</name></trkpt>
<trkpt lat="53.192033" lon="-1.759568"><ele>241</ele><time>2020-01-31T11:55:45Z</time><name>PT5583</name></trkpt>
<trkpt lat="53.192035" lon="-1.759574"><ele>241</ele><time>2020-01-31T11:55:48Z</time><name>PT5584</name></trkpt>
<trkpt lat="53.192041" lon="-1.759583"><ele>241</ele><time>2020-01-31T11:55:49Z</time><name>PT5585</name></trkpt>
<trkpt lat="53.192042" lon="-1.759591"><ele>242</ele><time>2020-01-31T11:55:51Z</time><name>PT5586</name></trkpt>
<trkpt lat="53.192047" lon="-1.759601"><ele>242</ele><time>2020-01-31T11:55:57Z</time><name>PT5587</name></trkpt>
<trkpt lat="53.192058" lon="-1.759612"><ele>242</ele><time>2020-01-31T11:55:58Z</time><name>PT5588</name></trkpt>
<trkpt lat="53.192075" lon="-1.759632"><ele>241</ele><time>2020-01-31T11:56:00Z</time><name>PT5589</name></trkpt>
<trkpt lat="53.192081" lon="-1.759642"><ele>241</ele><time>2020-01-31T11:56:00Z</time><name>PT5590</name></trkpt>
<trkpt lat="53.192083" lon="-1.759657"><ele>241</ele><time>2020-01-31T11:56:01Z</time><name>PT5591</name></trkpt>
<trkpt lat="53.192088" lon="-1.759672"><ele>241</ele><time>2020-01-31T11:56:03Z</time><name>PT5592</name></trkpt>
<trkpt lat="53.192094" lon="-1.759688"><ele>241</ele><time>2020-01-31T11:56:03Z</time><name>PT5593</name></trkpt>
<trkpt lat="53.192100" lon="-1.759704"><ele>241</ele><time>2020-01-31T11:56:04Z</time><name>PT5594</name></trkpt>
<trkpt lat="53.192105" lon="-1.759715"><ele>241</ele><time>2020-01-31T11:56:06Z</time><name>PT5595</name></trkpt>
<trkpt lat="53.192111" lon="-1.759730"><ele>240</ele><time>2020-01-31T11:56:06Z</time><name>PT5596</name></trkpt>
<trkpt lat="53.192111" lon="-1.759744"><ele>239</ele><time>2020-01-31T11:56:07Z</time><name>PT5597</name></trkpt>
<trkpt lat="53.192109" lon="-1.759760"><ele>239</ele><time>2020-01-31T11:56:09Z</time><name>PT5598</name></trkpt>
<trkpt lat="53.192112" lon="-1.759772"><ele>239</ele><time>2020-01-31T11:56:09Z</time><name>PT5599</name></trkpt>
<trkpt lat="53.192116" lon="-1.759785"><ele>238</ele><time>2020-01-31T11:56:10Z</time><name>PT5600</name></trkpt>
<trkpt lat="53.192121" lon="-1.759800"><ele>238</ele><time>2020-01-31T11:56:12Z</time><name>PT5601</name></trkpt>
<trkpt lat="53.192128" lon="-1.759816"><ele>238</ele><time>2020-01-31T11:56:12Z</time><name>PT5602</name></trkpt>
<trkpt lat="53.192136" lon="-1.759826"><ele>238</ele><time>2020-01-31T11:56:13Z</time><name>PT5603</name></trkpt>
<trkpt lat="53.192141" lon="-1.759838"><ele>238</ele><time>2020-01-31T11:56:15Z</time><name>PT5604</name></trkpt>
<trkpt lat="53.192143" lon="-1.759855"><ele>239</ele><time>2020-01-31T11:56:15Z</time><name>PT5605</name></trkpt>
<trkpt lat="53.192149" lon="-1.759867"><ele>238</ele><time>2020-01-31T11:56:16Z</time><name>PT5606</name></trkpt>
<trkpt lat="53.192155" lon="-1.759881"><ele>238</ele><time>2020-01-31T11:56:18Z</time><name>PT5607</name></trkpt>
<trkpt lat="53.192158" lon="-1.759897"><ele>239</ele><time>2020-01-31T11:56:18Z</time><name>PT5608</name></trkpt>
<trkpt lat="53.192162" lon="-1.759912"><ele>239</ele><time>2020-01-31T11:56:19Z</time><name>PT5609</name></trkpt>
<trkpt lat="53.192166" lon="-1.759924"><ele>239</ele><time>2020-01-31T11:56:21Z</time><name>PT5610</name></trkpt>
<trkpt lat="53.192169" lon="-1.759935"><ele>238</ele><time>2020-01-31T11:56:21Z</time><name>PT5611</name></trkpt>
<trkpt lat="53.192176" lon="-1.759947"><ele>239</ele><time>2020-01-31T11:56:22Z</time><name>PT5612</name></trkpt>
<trkpt lat="53.192180" lon="-1.759959"><ele>239</ele><time>2020-01-31T11:56:24Z</time><name>PT5613</name></trkpt>
<trkpt lat="53.192188" lon="-1.759966"><ele>238</ele><time>2020-01-31T11:56:24Z</time><name>PT5614</name></trkpt>
<trkpt lat="53.192199" lon="-1.759970"><ele>239</ele><time>2020-01-31T11:56:25Z</time><name>PT5615</name></trkpt>
<trkpt lat="53.192207" lon="-1.759975"><ele>239</ele><time>2020-01-31T11:56:27Z</time><name>PT5616</name></trkpt>
<trkpt lat="53.192214" lon="-1.759984"><ele>239</ele><time>2020-01-31T11:56:27Z</time><name>PT5617</name></trkpt>
<trkpt lat="53.192222" lon="-1.759984"><ele>239</ele><time>2020-01-31T11:56:28Z</time><name>PT5618</name></trkpt>
<trkpt lat="53.192223" lon="-1.759991"><ele>239</ele><time>2020-01-31T11:56:30Z</time><name>PT5619</name></trkpt>
<trkpt lat="53.192226" lon="-1.759998"><ele>239</ele><time>2020-01-31T11:56:30Z</time><name>PT5620</name></trkpt>
<trkpt lat="53.192227" lon="-1.760002"><ele>238</ele><time>2020-01-31T11:56:31Z</time><name>PT5621</name></trkpt>
<trkpt lat="53.192226" lon="-1.760011"><ele>238</ele><time>2020-01-31T11:56:33Z</time><name>PT5622</name></trkpt>
<trkpt lat="53.192227" lon="-1.760020"><ele>238</ele><time>2020-01-31T11:56:33Z</time><name>PT5623</name></trkpt>
<trkpt lat="53.192222" lon="-1.760031"><ele>238</ele><time>2020-01-31T11:56:34Z</time><name>PT5624</name></trkpt>
<trkpt lat="53.192218" lon="-1.760040"><ele>238</ele><time>2020-01-31T11:56:36Z</time><name>PT5625</name></trkpt>
<trkpt lat="53.192216" lon="-1.760059"><ele>239</ele><time>2020-01-31T11:56:36Z</time><name>PT5626</name></trkpt>
<trkpt lat="53.192220" lon="-1.760077"><ele>239</ele><time>2020-01-31T11:56:37Z</time><name>PT5627</name></trkpt>
<trkpt lat="53.192219" lon="-1.760093"><ele>239</ele><time>2020-01-31T11:56:39Z</time><name>PT5628</name></trkpt>
<trkpt lat="53.192221" lon="-1.760104"><ele>240</ele><time>2020-01-31T11:56:39Z</time><name>PT5629</name></trkpt>
<trkpt lat="53.192224" lon="-1.760117"><ele>240</ele><time>2020-01-31T11:56:40Z</time><name>PT5630</name></trkpt>
<trkpt lat="53.192228" lon="-1.760135"><ele>240</ele><time>2020-01-31T11:56:42Z</time><name>PT5631</name></trkpt>
<trkpt lat="53.192235" lon="-1.760143"><ele>239</ele><time>2020-01-31T11:56:42Z</time><name>PT5632</name></trkpt>
<trkpt lat="53.192235" lon="-1.760162"><ele>239</ele><time>2020-01-31T11:56:43Z</time><name>PT5633</name></trkpt>
<trkpt lat="53.192236" lon="-1.760176"><ele>239</ele><time>2020-01-31T11:56:45Z</time><name>PT5634</name></trkpt>
<trkpt lat="53.192241" lon="-1.760189"><ele>239</ele><time>2020-01-31T11:56:45Z</time><name>PT5635</name></trkpt>
<trkpt lat="53.192247" lon="-1.760197"><ele>239</ele><time>2020-01-31T11:56:46Z</time><name>PT5636</name></trkpt>
<trkpt lat="53.192253" lon="-1.760208"><ele>239</ele><time>2020-01-31T11:56:48Z</time><name>PT5637</name></trkpt>
<trkpt lat="53.192257" lon="-1.760225"><ele>239</ele><time>2020-01-31T11:56:48Z</time><name>PT5638</name></trkpt>
<trkpt lat="53.192261" lon="-1.760240"><ele>239</ele><time>2020-01-31T11:56:49Z</time><name>PT5639</name></trkpt>
<trkpt lat="53.192266" lon="-1.760248"><ele>239</ele><time>2020-01-31T11:56:51Z</time><name>PT5640</name></trkpt>
<trkpt lat="53.192272" lon="-1.760259"><ele>239</ele><time>2020-01-31T11:56:51Z</time><name>PT5641</name></trkpt>
<trkpt lat="53.192277" lon="-1.760272"><ele>239</ele><time>2020-01-31T11:56:52Z</time><name>PT5642</name></trkpt>
<trkpt lat="53.192284" lon="-1.760279"><ele>238</ele><time>2020-01-31T11:56:54Z</time><name>PT5643</name></trkpt>
<trkpt lat="53.192287" lon="-1.760295"><ele>239</ele><time>2020-01-31T11:56:54Z</time><name>PT5644</name></trkpt>
<trkpt lat="53.192295" lon="-1.760309"><ele>238</ele><time>2020-01-31T11:56:55Z</time><name>PT5645</name></trkpt>
<trkpt lat="53.192302" lon="-1.760325"><ele>238</ele><time>2020-01-31T11:56:57Z</time><name>PT5646</name></trkpt>
<trkpt lat="53.192307" lon="-1.760342"><ele>238</ele><time>2020-01-31T11:56:57Z</time><name>PT5647</name></trkpt>
<trkpt lat="53.192313" lon="-1.760360"><ele>239</ele><time>2020-01-31T11:56:58Z</time><name>PT5648</name></trkpt>
<trkpt lat="53.192317" lon="-1.760373"><ele>239</ele><time>2020-01-31T11:57:00Z</time><name>PT5649</name></trkpt>
<trkpt lat="53.192322" lon="-1.760382"><ele>238</ele><time>2020-01-31T11:57:00Z</time><name>PT5650</name></trkpt>
<trkpt lat="53.192326" lon="-1.760396"><ele>238</ele><time>2020-01-31T11:57:01Z</time><name>PT5651</name></trkpt>
<trkpt lat="53.192335" lon="-1.760412"><ele>238</ele><time>2020-01-31T11:57:03Z</time><name>PT5652</name></trkpt>
<trkpt lat="53.192341" lon="-1.760425"><ele>238</ele><time>2020-01-31T11:57:03Z</time><name>PT5653</name></trkpt>
<trkpt lat="53.192345" lon="-1.760437"><ele>238</ele><time>2020-01-31T11:57:05Z</time><name>PT5654</name></trkpt>
<trkpt lat="53.192351" lon="-1.760450"><ele>237</ele><time>2020-01-31T11:57:06Z</time><name>PT5655</name></trkpt>
<trkpt lat="53.192357" lon="-1.760465"><ele>237</ele><time>2020-01-31T11:57:06Z</time><name>PT5656</name></trkpt>
<trkpt lat="53.192362" lon="-1.760481"><ele>237</ele><time>2020-01-31T11:57:07Z</time><name>PT5657</name></trkpt>
<trkpt lat="53.192366" lon="-1.760494"><ele>237</ele><time>2020-01-31T11:57:09Z</time><name>PT5658</name></trkpt>
<trkpt lat="53.192372" lon="-1.760508"><ele>237</ele><time>2020-01-31T11:57:09Z</time><name>PT5659</name></trkpt>
<trkpt lat="53.192378" lon="-1.760524"><ele>237</ele><time>2020-01-31T11:57:10Z</time><name>PT5660</name></trkpt>
<trkpt lat="53.192387" lon="-1.760536"><ele>236</ele><time>2020-01-31T11:57:12Z</time><name>PT5661</name></trkpt>
<trkpt lat="53.192392" lon="-1.760553"><ele>237</ele><time>2020-01-31T11:57:12Z</time><name>PT5662</name></trkpt>
<trkpt lat="53.192395" lon="-1.760572"><ele>237</ele><time>2020-01-31T11:57:13Z</time><name>PT5663</name></trkpt>
<trkpt lat="53.192403" lon="-1.760592"><ele>238</ele><time>2020-01-31T11:57:15Z</time><name>PT5664</name></trkpt>
<trkpt lat="53.192409" lon="-1.760612"><ele>238</ele><time>2020-01-31T11:57:15Z</time><name>PT5665</name></trkpt>
<trkpt lat="53.192412" lon="-1.760628"><ele>238</ele><time>2020-01-31T11:57:16Z</time><name>PT5666</name></trkpt>
<trkpt lat="53.192415" lon="-1.760643"><ele>238</ele><time>2020-01-31T11:57:18Z</time><name>PT5667</name></trkpt>
<trkpt lat="53.192425" lon="-1.760655"><ele>238</ele><time>2020-01-31T11:57:18Z</time><name>PT5668</name></trkpt>
<trkpt lat="53.192427" lon="-1.760668"><ele>237</ele><time>2020-01-31T11:57:19Z</time><name>PT5669</name></trkpt>
<trkpt lat="53.192429" lon="-1.760688"><ele>237</ele><time>2020-01-31T11:57:21Z</time><name>PT5670</name></trkpt>
<trkpt lat="53.192434" lon="-1.760704"><ele>237</ele><time>2020-01-31T11:57:21Z</time><name>PT5671</name></trkpt>
<trkpt lat="53.192438" lon="-1.760729"><ele>238</ele><time>2020-01-31T11:57:22Z</time><name>PT5672</name></trkpt>
<trkpt lat="53.192441" lon="-1.760751"><ele>238</ele><time>2020-01-31T11:57:24Z</time><name>PT5673</name></trkpt>
<trkpt lat="53.192445" lon="-1.760774"><ele>238</ele><time>2020-01-31T11:57:24Z</time><name>PT5674</name></trkpt>
<trkpt lat="53.192446" lon="-1.760797"><ele>239</ele><time>2020-01-31T11:57:25Z</time><name>PT5675</name></trkpt>
<trkpt lat="53.192443" lon="-1.760824"><ele>238</ele><time>2020-01-31T11:57:27Z</time><name>PT5676</name></trkpt>
<trkpt lat="53.192444" lon="-1.760848"><ele>239</ele><time>2020-01-31T11:57:27Z</time><name>PT5677</name></trkpt>
<trkpt lat="53.192445" lon="-1.760867"><ele>239</ele><time>2020-01-31T11:57:28Z</time><name>PT5678</name></trkpt>
<trkpt lat="53.192448" lon="-1.760883"><ele>239</ele><time>2020-01-31T11:57:30Z</time><name>PT5679</name></trkpt>
<trkpt lat="53.192451" lon="-1.760893"><ele>239</ele><time>2020-01-31T11:57:30Z</time><name>PT5680</name></trkpt>
<trkpt lat="53.192456" lon="-1.760907"><ele>239</ele><time>2020-01-31T11:57:31Z</time><name>PT5681</name></trkpt>
<trkpt lat="53.192458" lon="-1.760922"><ele>239</ele><time>2020-01-31T11:57:33Z</time><name>PT5682</name></trkpt>
<trkpt lat="53.192461" lon="-1.760939"><ele>239</ele><time>2020-01-31T11:57:33Z</time><name>PT5683</name></trkpt>
<trkpt lat="53.192465" lon="-1.760957"><ele>239</ele><time>2020-01-31T11:57:34Z</time><name>PT5684</name></trkpt>
<trkpt lat="53.192469" lon="-1.760973"><ele>240</ele><time>2020-01-31T11:57:36Z</time><name>PT5685</name></trkpt>
<trkpt lat="53.192473" lon="-1.760984"><ele>239</ele><time>2020-01-31T11:57:36Z</time><name>PT5686</name></trkpt>
<trkpt lat="53.192478" lon="-1.761002"><ele>239</ele><time>2020-01-31T11:57:38Z</time><name>PT5687</name></trkpt>
<trkpt lat="53.192480" lon="-1.761020"><ele>239</ele><time>2020-01-31T11:57:39Z</time><name>PT5688</name></trkpt>
<trkpt lat="53.192485" lon="-1.761038"><ele>239</ele><time>2020-01-31T11:57:39Z</time><name>PT5689</name></trkpt>
<trkpt lat="53.192489" lon="-1.761060"><ele>240</ele><time>2020-01-31T11:57:40Z</time><name>PT5690</name></trkpt>
<trkpt lat="53.192492" lon="-1.761077"><ele>240</ele><time>2020-01-31T11:57:42Z</time><name>PT5691</name></trkpt>
<trkpt lat="53.192494" lon="-1.761095"><ele>240</ele><time>2020-01-31T11:57:42Z</time><name>PT5692</name></trkpt>
<trkpt lat="53.192497" lon="-1.761108"><ele>240</ele><time>2020-01-31T11:57:43Z</time><name>PT5693</name></trkpt>
<trkpt lat="53.192501" lon="-1.761124"><ele>240</ele><time>2020-01-31T11:57:45Z</time><name>PT5694</name></trkpt>
<trkpt lat="53.192503" lon="-1.761138"><ele>240</ele><time>2020-01-31T11:57:45Z</time><name>PT5695</name></trkpt>
<trkpt lat="53.192508" lon="-1.761149"><ele>239</ele><time>2020-01-31T11:57:46Z</time><name>PT5696</name></trkpt>
<trkpt lat="53.192513" lon="-1.761162"><ele>240</ele><time>2020-01-31T11:57:48Z</time><name>PT5697</name></trkpt>
<trkpt lat="53.192520" lon="-1.761181"><ele>240</ele><time>2020-01-31T11:57:48Z</time><name>PT5698</name></trkpt>
<trkpt lat="53.192525" lon="-1.761191"><ele>240</ele><time>2020-01-31T11:57:49Z</time><name>PT5699</name></trkpt>
<trkpt lat="53.192531" lon="-1.761209"><ele>241</ele><time>2020-01-31T11:57:51Z</time><name>PT5700</name></trkpt>
<trkpt lat="53.192538" lon="-1.761231"><ele>241</ele><time>2020-01-31T11:57:51Z</time><name>PT5701</name></trkpt>
<trkpt lat="53.192544" lon="-1.761253"><ele>242</ele><time>2020-01-31T11:57:52Z</time><name>PT5702</name></trkpt>
<trkpt lat="53.192546" lon="-1.761270"><ele>242</ele><time>2020-01-31T11:57:54Z</time><name>PT5703</name></trkpt>
<trkpt lat="53.192551" lon="-1.761291"><ele>242</ele><time>2020-01-31T11:57:54Z</time><name>PT5704</name></trkpt>
<trkpt lat="53.192553" lon="-1.761308"><ele>242</ele><time>2020-01-31T11:57:55Z</time><name>PT5705</name></trkpt>
<trkpt lat="53.192556" lon="-1.761330"><ele>242</ele><time>2020-01-31T11:57:57Z</time><name>PT5706</name></trkpt>
<trkpt lat="53.192562" lon="-1.761347"><ele>242</ele><time>2020-01-31T11:57:57Z</time><name>PT5707</name></trkpt>
<trkpt lat="53.192570" lon="-1.761363"><ele>242</ele><time>2020-01-31T11:57:58Z</time><name>PT5708</name></trkpt>
<trkpt lat="53.192577" lon="-1.761373"><ele>242</ele><time>2020-01-31T11:58:00Z</time><name>PT5709</name></trkpt>
<trkpt lat="53.192581" lon="-1.761393"><ele>242</ele><time>2020-01-31T11:58:00Z</time><name>PT5710</name></trkpt>
<trkpt lat="53.192588" lon="-1.761408"><ele>242</ele><time>2020-01-31T11:58:01Z</time><name>PT5711</name></trkpt>
<trkpt lat="53.192593" lon="-1.761425"><ele>242</ele><time>2020-01-31T11:58:03Z</time><name>PT5712</name></trkpt>
<trkpt lat="53.192594" lon="-1.761443"><ele>242</ele><time>2020-01-31T11:58:03Z</time><name>PT5713</name></trkpt>
<trkpt lat="53.192599" lon="-1.761456"><ele>242</ele><time>2020-01-31T11:58:04Z</time><name>PT5714</name></trkpt>
<trkpt lat="53.192606" lon="-1.761459"><ele>241</ele><time>2020-01-31T11:58:06Z</time><name>PT5715</name></trkpt>
<trkpt lat="53.192614" lon="-1.761468"><ele>241</ele><time>2020-01-31T11:58:06Z</time><name>PT5716</name></trkpt>
<trkpt lat="53.192621" lon="-1.761479"><ele>242</ele><time>2020-01-31T11:58:07Z</time><name>PT5717</name></trkpt>
<trkpt lat="53.192629" lon="-1.761489"><ele>242</ele><time>2020-01-31T11:58:09Z</time><name>PT5718</name></trkpt>
<trkpt lat="53.192638" lon="-1.761503"><ele>242</ele><time>2020-01-31T11:58:09Z</time><name>PT5719</name></trkpt>
<trkpt lat="53.192647" lon="-1.761518"><ele>242</ele><time>2020-01-31T11:58:10Z</time><name>PT5720</name></trkpt>
<trkpt lat="53.192651" lon="-1.761538"><ele>242</ele><time>2020-01-31T11:58:12Z</time><name>PT5721</name></trkpt>
<trkpt lat="53.192657" lon="-1.761553"><ele>242</ele><time>2020-01-31T11:58:12Z</time><name>PT5722</name></trkpt>
<trkpt lat="53.192665" lon="-1.761567"><ele>242</ele><time>2020-01-31T11:58:13Z</time><name>PT5723</name></trkpt>
<trkpt lat="53.192671" lon="-1.761582"><ele>243</ele><time>2020-01-31T11:58:15Z</time><name>PT5724</name></trkpt>
<trkpt lat="53.192676" lon="-1.761600"><ele>243</ele><time>2020-01-31T11:58:15Z</time><name>PT5725</name></trkpt>
<trkpt lat="53.192678" lon="-1.761623"><ele>243</ele><time>2020-01-31T11:58:16Z</time><name>PT5726</name></trkpt>
<trkpt lat="53.192686" lon="-1.761643"><ele>243</ele><time>2020-01-31T11:58:18Z</time><name>PT5727</name></trkpt>
<trkpt lat="53.192695" lon="-1.761660"><ele>243</ele><time>2020-01-31T11:58:18Z</time><name>PT5728</name></trkpt>
<trkpt lat="53.192705" lon="-1.761675"><ele>243</ele><time>2020-01-31T11:58:19Z</time><name>PT5729</name></trkpt>
<trkpt lat="53.192713" lon="-1.761688"><ele>243</ele><time>2020-01-31T11:58:21Z</time><name>PT5730</name></trkpt>
<trkpt lat="53.192720" lon="-1.761700"><ele>242</ele><time>2020-01-31T11:58:21Z</time><name>PT5731</name></trkpt>
<trkpt lat="53.192727" lon="-1.761719"><ele>242</ele><time>2020-01-31T11:58:22Z</time><name>PT5732</name></trkpt>
<trkpt lat="53.192727" lon="-1.761738"><ele>242</ele><time>2020-01-31T11:58:24Z</time><name>PT5733</name></trkpt>
<trkpt lat="53.192726" lon="-1.761762"><ele>241</ele><time>2020-01-31T11:58:24Z</time><name>PT5734</name></trkpt>
<trkpt lat="53.192733" lon="-1.761781"><ele>242</ele><time>2020-01-31T11:58:25Z</time><name>PT5735</name></trkpt>
<trkpt lat="53.192740" lon="-1.761800"><ele>242</ele><time>2020-01-31T11:58:27Z</time><name>PT5736</name></trkpt>
<trkpt lat="53.192745" lon="-1.761813"><ele>242</ele><time>2020-01-31T11:58:27Z</time><name>PT5737</name></trkpt>
<trkpt lat="53.192752" lon="-1.761825"><ele>242</ele><time>2020-01-31T11:58:28Z</time><name>PT5738</name></trkpt>
<trkpt lat="53.192760" lon="-1.761835"><ele>242</ele><time>2020-01-31T11:58:30Z</time><name>PT5739</name></trkpt>
<trkpt lat="53.192770" lon="-1.761844"><ele>242</ele><time>2020-01-31T11:58:30Z</time><name>PT5740</name></trkpt>
<trkpt lat="53.192778" lon="-1.761858"><ele>242</ele><time>2020-01-31T11:58:31Z</time><name>PT5741</name></trkpt>
<trkpt lat="53.192788" lon="-1.761873"><ele>242</ele><time>2020-01-31T11:58:33Z</time><name>PT5742</name></trkpt>
<trkpt lat="53.192797" lon="-1.761892"><ele>243</ele><time>2020-01-31T11:58:33Z</time><name>PT5743</name></trkpt>
<trkpt lat="53.192804" lon="-1.761912"><ele>243</ele><time>2020-01-31T11:58:34Z</time><name>PT5744</name></trkpt>
<trkpt lat="53.192816" lon="-1.761928"><ele>243</ele><time>2020-01-31T11:58:36Z</time><name>PT5745</name></trkpt>
<trkpt lat="53.192826" lon="-1.761941"><ele>244</ele><time>2020-01-31T11:58:36Z</time><name>PT5746</name></trkpt>
<trkpt lat="53.192833" lon="-1.761955"><ele>244</ele><time>2020-01-31T11:58:37Z</time><name>PT5747</name></trkpt>
<trkpt lat="53.192841" lon="-1.761969"><ele>244</ele><time>2020-01-31T11:58:39Z</time><name>PT5748</name></trkpt>
<trkpt lat="53.192852" lon="-1.761981"><ele>245</ele><time>2020-01-31T11:58:39Z</time><name>PT5749</name></trkpt>
<trkpt lat="53.192862" lon="-1.761991"><ele>245</ele><time>2020-01-31T11:58:40Z</time><name>PT5750</name></trkpt>
<trkpt lat="53.192871" lon="-1.762000"><ele>244</ele><time>2020-01-31T11:58:42Z</time><name>PT5751</name></trkpt>
<trkpt lat="53.192881" lon="-1.762019"><ele>245</ele><time>2020-01-31T11:58:42Z</time><name>PT5752</name></trkpt>
<trkpt lat="53.192891" lon="-1.762033"><ele>245</ele><time>2020-01-31T11:58:43Z</time><name>PT5753</name></trkpt>
<trkpt lat="53.192901" lon="-1.762047"><ele>246</ele><time>2020-01-31T11:58:45Z</time><name>PT5754</name></trkpt>
<trkpt lat="53.192908" lon="-1.762063"><ele>246</ele><time>2020-01-31T11:58:45Z</time><name>PT5755</name></trkpt>
<trkpt lat="53.192912" lon="-1.762081"><ele>246</ele><time>2020-01-31T11:58:46Z</time><name>PT5756</name></trkpt>
<trkpt lat="53.192920" lon="-1.762092"><ele>246</ele><time>2020-01-31T11:58:48Z</time><name>PT5757</name></trkpt>
<trkpt lat="53.192928" lon="-1.762106"><ele>246</ele><time>2020-01-31T11:58:48Z</time><name>PT5758</name></trkpt>
<trkpt lat="53.192934" lon="-1.762120"><ele>246</ele><time>2020-01-31T11:58:49Z</time><name>PT5759</name></trkpt>
<trkpt lat="53.192942" lon="-1.762131"><ele>246</ele><time>2020-01-31T11:58:51Z</time><name>PT5760</name></trkpt>
<trkpt lat="53.192954" lon="-1.762138"><ele>246</ele><time>2020-01-31T11:58:51Z</time><name>PT5761</name></trkpt>
<trkpt lat="53.192969" lon="-1.762147"><ele>247</ele><time>2020-01-31T11:58:52Z</time><name>PT5762</name></trkpt>
<trkpt lat="53.192976" lon="-1.762160"><ele>247</ele><time>2020-01-31T11:58:54Z</time><name>PT5763</name></trkpt>
<trkpt lat="53.192984" lon="-1.762170"><ele>247</ele><time>2020-01-31T11:58:54Z</time><name>PT5764</name></trkpt>
<trkpt lat="53.192993" lon="-1.762182"><ele>247</ele><time>2020-01-31T11:58:55Z</time><name>PT5765</name></trkpt>
<trkpt lat="53.193004" lon="-1.762195"><ele>248</ele><time>2020-01-31T11:58:57Z</time><name>PT5766</name></trkpt>
<trkpt lat="53.193012" lon="-1.762205"><ele>247</ele><time>2020-01-31T11:58:57Z</time><name>PT5767</name></trkpt>
<trkpt lat="53.193025" lon="-1.762214"><ele>248</ele><time>2020-01-31T11:58:58Z</time><name>PT5768</name></trkpt>
<trkpt lat="53.193035" lon="-1.762223"><ele>248</ele><time>2020-01-31T11:59:00Z</time><name>PT5769</name></trkpt>
<trkpt lat="53.193042" lon="-1.762235"><ele>248</ele><time>2020-01-31T11:59:00Z</time><name>PT5770</name></trkpt>
<trkpt lat="53.193049" lon="-1.762242"><ele>247</ele><time>2020-01-31T11:59:01Z</time><name>PT5771</name></trkpt>
<trkpt lat="53.193058" lon="-1.762248"><ele>247</ele><time>2020-01-31T11:59:03Z</time><name>PT5772</name></trkpt>
<trkpt lat="53.193068" lon="-1.762257"><ele>247</ele><time>2020-01-31T11:59:03Z</time><name>PT5773</name></trkpt>
<trkpt lat="53.193077" lon="-1.762267"><ele>247</ele><time>2020-01-31T11:59:04Z</time><name>PT5774</name></trkpt>
<trkpt lat="53.193085" lon="-1.762279"><ele>247</ele><time>2020-01-31T11:59:06Z</time><name>PT5775</name></trkpt>
<trkpt lat="53.193094" lon="-1.762283"><ele>247</ele><time>2020-01-31T11:59:06Z</time><name>PT5776</name></trkpt>
<trkpt lat="53.193103" lon="-1.762287"><ele>247</ele><time>2020-01-31T11:59:07Z</time><name>PT5777</name></trkpt>
<trkpt lat="53.193111" lon="-1.762298"><ele>246</ele><time>2020-01-31T11:59:09Z</time><name>PT5778</name></trkpt>
<trkpt lat="53.193120" lon="-1.762309"><ele>246</ele><time>2020-01-31T11:59:09Z</time><name>PT5779</name></trkpt>
<trkpt lat="53.193129" lon="-1.762317"><ele>246</ele><time>2020-01-31T11:59:10Z</time><name>PT5780</name></trkpt>
<trkpt lat="53.193141" lon="-1.762330"><ele>247</ele><time>2020-01-31T11:59:12Z</time><name>PT5781</name></trkpt>
<trkpt lat="53.193149" lon="-1.762339"><ele>247</ele><time>2020-01-31T11:59:12Z</time><name>PT5782</name></trkpt>
<trkpt lat="53.193159" lon="-1.762351"><ele>247</ele><time>2020-01-31T11:59:13Z</time><name>PT5783</name></trkpt>
<trkpt lat="53.193166" lon="-1.762361"><ele>247</ele><time>2020-01-31T11:59:15Z</time><name>PT5784</name></trkpt>
<trkpt lat="53.193174" lon="-1.762378"><ele>247</ele><time>2020-01-31T11:59:15Z</time><name>PT5785</name></trkpt>
<trkpt lat="53.193183" lon="-1.762394"><ele>247</ele><time>2020-01-31T11:59:16Z</time><name>PT5786</name></trkpt>
<trkpt lat="53.193193" lon="-1.762408"><ele>247</ele><time>2020-01-31T11:59:18Z</time><name>PT5787</name></trkpt>
<trkpt lat="53.193203" lon="-1.762421"><ele>247</ele><time>2020-01-31T11:59:18Z</time><name>PT5788</name></trkpt>
<trkpt lat="53.193214" lon="-1.762426"><ele>247</ele><time>2020-01-31T11:59:19Z</time><name>PT5789</name></trkpt>
<trkpt lat="53.193224" lon="-1.762436"><ele>246</ele><time>2020-01-31T11:59:21Z</time><name>PT5790</name></trkpt>
<trkpt lat="53.193237" lon="-1.762445"><ele>247</ele><time>2020-01-31T11:59:21Z</time><name>PT5791</name></trkpt>
<trkpt lat="53.193246" lon="-1.762457"><ele>246</ele><time>2020-01-31T11:59:22Z</time><name>PT5792</name></trkpt>
<trkpt lat="53.193256" lon="-1.762463"><ele>246</ele><time>2020-01-31T11:59:24Z</time><name>PT5793</name></trkpt>
<trkpt lat="53.193265" lon="-1.762472"><ele>246</ele><time>2020-01-31T11:59:24Z</time><name>PT5794</name></trkpt>
<trkpt lat="53.193277" lon="-1.762482"><ele>246</ele><time>2020-01-31T11:59:25Z</time><name>PT5795</name></trkpt>
<trkpt lat="53.193285" lon="-1.762495"><ele>246</ele><time>2020-01-31T11:59:27Z</time><name>PT5796</name></trkpt>
<trkpt lat="53.193297" lon="-1.762508"><ele>247</ele><time>2020-01-31T11:59:27Z</time><name>PT5797</name></trkpt>
<trkpt lat="53.193306" lon="-1.762520"><ele>247</ele><time>2020-01-31T11:59:28Z</time><name>PT5798</name></trkpt>
<trkpt lat="53.193317" lon="-1.762525"><ele>247</ele><time>2020-01-31T11:59:30Z</time><name>PT5799</name></trkpt>
<trkpt lat="53.193325" lon="-1.762537"><ele>246</ele><time>2020-01-31T11:59:30Z</time><name>PT5800</name></trkpt>
<trkpt lat="53.193331" lon="-1.762548"><ele>245</ele><time>2020-01-31T11:59:31Z</time><name>PT5801</name></trkpt>
<trkpt lat="53.193340" lon="-1.762556"><ele>245</ele><time>2020-01-31T11:59:33Z</time><name>PT5802</name></trkpt>
<trkpt lat="53.193355" lon="-1.762567"><ele>246</ele><time>2020-01-31T11:59:33Z</time><name>PT5803</name></trkpt>
<trkpt lat="53.193367" lon="-1.762572"><ele>246</ele><time>2020-01-31T11:59:34Z</time><name>PT5804</name></trkpt>
<trkpt lat="53.193374" lon="-1.762578"><ele>245</ele><time>2020-01-31T11:59:36Z</time><name>PT5805</name></trkpt>
<trkpt lat="53.193378" lon="-1.762585"><ele>245</ele><time>2020-01-31T11:59:36Z</time><name>PT5806</name></trkpt>
<trkpt lat="53.193388" lon="-1.762590"><ele>245</ele><time>2020-01-31T11:59:37Z</time><name>PT5807</name></trkpt>
<trkpt lat="53.193400" lon="-1.762599"><ele>246</ele><time>2020-01-31T11:59:39Z</time><name>PT5808</name></trkpt>
<trkpt lat="53.193405" lon="-1.762604"><ele>245</ele><time>2020-01-31T11:59:39Z</time><name>PT5809</name></trkpt>
<trkpt lat="53.193408" lon="-1.762605"><ele>245</ele><time>2020-01-31T11:59:40Z</time><name>PT5810</name></trkpt>
<trkpt lat="53.193408" lon="-1.762609"><ele>245</ele><time>2020-01-31T11:59:42Z</time><name>PT5811</name></trkpt>
<trkpt lat="53.193408" lon="-1.762609"><ele>245</ele><time>2020-01-31T11:59:42Z</time><name>PT5812</name></trkpt>
<trkpt lat="53.193412" lon="-1.762605"><ele>244</ele><time>2020-01-31T11:59:43Z</time><name>PT5813</name></trkpt>
<trkpt lat="53.193413" lon="-1.762607"><ele>244</ele><time>2020-01-31T11:59:45Z</time><name>PT5814</name></trkpt>
<trkpt lat="53.193418" lon="-1.762606"><ele>244</ele><time>2020-01-31T11:59:45Z</time><name>PT5815</name></trkpt>
<trkpt lat="53.193419" lon="-1.762615"><ele>244</ele><time>2020-01-31T11:59:46Z</time><name>PT5816</name></trkpt>
<trkpt lat="53.193425" lon="-1.762614"><ele>244</ele><time>2020-01-31T11:59:48Z</time><name>PT5817</name></trkpt>
<trkpt lat="53.193435" lon="-1.762626"><ele>245</ele><time>2020-01-31T11:59:48Z</time><name>PT5818</name></trkpt>
<trkpt lat="53.193444" lon="-1.762638"><ele>245</ele><time>2020-01-31T11:59:49Z</time><name>PT5819</name></trkpt>
<trkpt lat="53.193452" lon="-1.762649"><ele>245</ele><time>2020-01-31T11:59:51Z</time><name>PT5820</name></trkpt>
<trkpt lat="53.193462" lon="-1.762659"><ele>245</ele><time>2020-01-31T11:59:51Z</time><name>PT5821</name></trkpt>
<trkpt lat="53.193472" lon="-1.762668"><ele>245</ele><time>2020-01-31T11:59:52Z</time><name>PT5822</name></trkpt>
<trkpt lat="53.193482" lon="-1.762680"><ele>246</ele><time>2020-01-31T11:59:54Z</time><name>PT5823</name></trkpt>
<trkpt lat="53.193492" lon="-1.762687"><ele>246</ele><time>2020-01-31T11:59:54Z</time><name>PT5824</name></trkpt>
<trkpt lat="53.193503" lon="-1.762696"><ele>247</ele><time>2020-01-31T11:59:55Z</time><name>PT5825</name></trkpt>
<trkpt lat="53.193513" lon="-1.762705"><ele>247</ele><time>2020-01-31T11:59:57Z</time><name>PT5826</name></trkpt>
<trkpt lat="53.193523" lon="-1.762718"><ele>246</ele><time>2020-01-31T11:59:57Z</time><name>PT5827</name></trkpt>
<trkpt lat="53.193532" lon="-1.762731"><ele>246</ele><time>2020-01-31T11:59:58Z</time><name>PT5828</name></trkpt>
<trkpt lat="53.193544" lon="-1.762742"><ele>246</ele><time>2020-01-31T12:00:00Z</time><name>PT5829</name></trkpt>
<trkpt lat="53.193557" lon="-1.762748"><ele>247</ele><time>2020-01-31T12:00:00Z</time><name>PT5830</name></trkpt>
<trkpt lat="53.193571" lon="-1.762759"><ele>247</ele><time>2020-01-31T12:00:01Z</time><name>PT5831</name></trkpt>
<trkpt lat="53.193582" lon="-1.762773"><ele>247</ele><time>2020-01-31T12:00:03Z</time><name>PT5832</name></trkpt>
<trkpt lat="53.193594" lon="-1.762781"><ele>248</ele><time>2020-01-31T12:00:03Z</time><name>PT5833</name></trkpt>
<trkpt lat="53.193605" lon="-1.762790"><ele>248</ele><time>2020-01-31T12:00:04Z</time><name>PT5834</name></trkpt>
<trkpt lat="53.193614" lon="-1.762802"><ele>249</ele><time>2020-01-31T12:00:06Z</time><name>PT5835</name></trkpt>
<trkpt lat="53.193626" lon="-1.762810"><ele>249</ele><time>2020-01-31T12:00:06Z</time><name>PT5836</name></trkpt>
<trkpt lat="53.193634" lon="-1.762822"><ele>250</ele><time>2020-01-31T12:00:07Z</time><name>PT5837</name></trkpt>
<trkpt lat="53.193644" lon="-1.762832"><ele>250</ele><time>2020-01-31T12:00:09Z</time><name>PT5838</name></trkpt>
<trkpt lat="53.193655" lon="-1.762841"><ele>250</ele><time>2020-01-31T12:00:09Z</time><name>PT5839</name></trkpt>
<trkpt lat="53.193663" lon="-1.762858"><ele>250</ele><time>2020-01-31T12:00:10Z</time><name>PT5840</name></trkpt>
<trkpt lat="53.193671" lon="-1.762875"><ele>250</ele><time>2020-01-31T12:00:12Z</time><name>PT5841</name></trkpt>
<trkpt lat="53.193684" lon="-1.762890"><ele>251</ele><time>2020-01-31T12:00:12Z</time><name>PT5842</name></trkpt>
<trkpt lat="53.193696" lon="-1.762901"><ele>251</ele><time>2020-01-31T12:00:13Z</time><name>PT5843</name></trkpt>
<trkpt lat="53.193705" lon="-1.762915"><ele>251</ele><time>2020-01-31T12:00:15Z</time><name>PT5844</name></trkpt>
<trkpt lat="53.193712" lon="-1.762930"><ele>251</ele><time>2020-01-31T12:00:15Z</time><name>PT5845</name></trkpt>
<trkpt lat="53.193717" lon="-1.762945"><ele>251</ele><time>2020-01-31T12:00:16Z</time><name>PT5846</name></trkpt>
<trkpt lat="53.193723" lon="-1.762964"><ele>251</ele><time>2020-01-31T12:00:18Z</time><name>PT5847</name></trkpt>
<trkpt lat="53.193730" lon="-1.762979"><ele>251</ele><time>2020-01-31T12:00:18Z</time><name>PT5848</name></trkpt>
<trkpt lat="53.193738" lon="-1.762994"><ele>252</ele><time>2020-01-31T12:00:19Z</time><name>PT5849</name></trkpt>
<trkpt lat="53.193743" lon="-1.763011"><ele>251</ele><time>2020-01-31T12:00:21Z</time><name>PT5850</name></trkpt>
<trkpt lat="53.193749" lon="-1.763026"><ele>251</ele><time>2020-01-31T12:00:21Z</time><name>PT5851</name></trkpt>
<trkpt lat="53.193756" lon="-1.763039"><ele>252</ele><time>2020-01-31T12:00:22Z</time><name>PT5852</name></trkpt>
<trkpt lat="53.193760" lon="-1.763053"><ele>251</ele><time>2020-01-31T12:00:24Z</time><name>PT5853</name></trkpt>
<trkpt lat="53.193765" lon="-1.763069"><ele>251</ele><time>2020-01-31T12:00:24Z</time><name>PT5854</name></trkpt>
<trkpt lat="53.193767" lon="-1.763084"><ele>251</ele><time>2020-01-31T12:00:25Z</time><name>PT5855</name></trkpt>
<trkpt lat="53.193768" lon="-1.763097"><ele>251</ele><time>2020-01-31T12:00:27Z</time><name>PT5856</name></trkpt>
<trkpt lat="53.193772" lon="-1.763113"><ele>251</ele><time>2020-01-31T12:00:27Z</time><name>PT5857</name></trkpt>
<trkpt lat="53.193781" lon="-1.763125"><ele>250</ele><time>2020-01-31T12:00:28Z</time><name>PT5858</name></trkpt>
<trkpt lat="53.193788" lon="-1.763131"><ele>250</ele><time>2020-01-31T12:00:30Z</time><name>PT5859</name></trkpt>
<trkpt lat="53.193795" lon="-1.763145"><ele>250</ele><time>2020-01-31T12:00:30Z</time><name>PT5860</name></trkpt>
<trkpt lat="53.193805" lon="-1.763155"><ele>250</ele><time>2020-01-31T12:00:31Z</time><name>PT5861</name></trkpt>
<trkpt lat="53.193813" lon="-1.763166"><ele>250</ele><time>2020-01-31T12:00:33Z</time><name>PT5862</name></trkpt>
<trkpt lat="53.193818" lon="-1.763175"><ele>250</ele><time>2020-01-31T12:00:33Z</time><name>PT5863</name></trkpt>
<trkpt lat="53.193824" lon="-1.763185"><ele>250</ele><time>2020-01-31T12:00:34Z</time><name>PT5864</name></trkpt>
<trkpt lat="53.193829" lon="-1.763194"><ele>250</ele><time>2020-01-31T12:00:36Z</time><name>PT5865</name></trkpt>
<trkpt lat="53.193837" lon="-1.763212"><ele>250</ele><time>2020-01-31T12:00:36Z</time><name>PT5866</name></trkpt>
<trkpt lat="53.193846" lon="-1.763223"><ele>250</ele><time>2020-01-31T12:00:37Z</time><name>PT5867</name></trkpt>
<trkpt lat="53.193855" lon="-1.763233"><ele>249</ele><time>2020-01-31T12:00:39Z</time><name>PT5868</name></trkpt>
<trkpt lat="53.193859" lon="-1.763247"><ele>249</ele><time>2020-01-31T12:00:39Z</time><name>PT5869</name></trkpt>
<trkpt lat="53.193867" lon="-1.763258"><ele>249</ele><time>2020-01-31T12:00:40Z</time><name>PT5870</name></trkpt>
<trkpt lat="53.193874" lon="-1.763273"><ele>249</ele><time>2020-01-31T12:00:42Z</time><name>PT5871</name></trkpt>
<trkpt lat="53.193882" lon="-1.763287"><ele>249</ele><time>2020-01-31T12:00:42Z</time><name>PT5872</name></trkpt>
<trkpt lat="53.193891" lon="-1.763303"><ele>249</ele><time>2020-01-31T12:00:43Z</time><name>PT5873</name></trkpt>
<trkpt lat="53.193899" lon="-1.763318"><ele>249</ele><time>2020-01-31T12:00:45Z</time><name>PT5874</name></trkpt>
<trkpt lat="53.193906" lon="-1.763334"><ele>249</ele><time>2020-01-31T12:00:45Z</time><name>PT5875</name></trkpt>
<trkpt lat="53.193913" lon="-1.763351"><ele>249</ele><time>2020-01-31T12:00:46Z</time><name>PT5876</name></trkpt>
<trkpt lat="53.193921" lon="-1.763364"><ele>249</ele><time>2020-01-31T12:00:48Z</time><name>PT5877</name></trkpt>
<trkpt lat="53.193931" lon="-1.763376"><ele>250</ele><time>2020-01-31T12:00:48Z</time><name>PT5878</name></trkpt>
<trkpt lat="53.193940" lon="-1.763389"><ele>250</ele><time>2020-01-31T12:00:49Z</time><name>PT5879</name></trkpt>
<trkpt lat="53.193949" lon="-1.763400"><ele>250</ele><time>2020-01-31T12:00:51Z</time><name>PT5880</name></trkpt>
<trkpt lat="53.193957" lon="-1.763410"><ele>249</ele><time>2020-01-31T12:00:51Z</time><name>PT5881</name></trkpt>
<trkpt lat="53.193965" lon="-1.763422"><ele>249</ele><time>2020-01-31T12:00:52Z</time><name>PT5882</name></trkpt>
<trkpt lat="53.193973" lon="-1.763435"><ele>249</ele><time>2020-01-31T12:00:54Z</time><name>PT5883</name></trkpt>
<trkpt lat="53.193983" lon="-1.763450"><ele>249</ele><time>2020-01-31T12:00:54Z</time><name>PT5884</name></trkpt>
<trkpt lat="53.193991" lon="-1.763463"><ele>249</ele><time>2020-01-31T12:00:55Z</time><name>PT5885</name></trkpt>
<trkpt lat="53.194000" lon="-1.763481"><ele>249</ele><time>2020-01-31T12:00:57Z</time><name>PT5886</name></trkpt>
<trkpt lat="53.194006" lon="-1.763498"><ele>249</ele><time>2020-01-31T12:00:57Z</time><name>PT5887</name></trkpt>
<trkpt lat="53.194014" lon="-1.763508"><ele>249</ele><time>2020-01-31T12:00:58Z</time><name>PT5888</name></trkpt>
<trkpt lat="53.194022" lon="-1.763523"><ele>249</ele><time>2020-01-31T12:01:00Z</time><name>PT5889</name></trkpt>
<trkpt lat="53.194029" lon="-1.763542"><ele>249</ele><time>2020-01-31T12:01:00Z</time><name>PT5890</name></trkpt>
<trkpt lat="53.194037" lon="-1.763557"><ele>249</ele><time>2020-01-31T12:01:01Z</time><name>PT5891</name></trkpt>
<trkpt lat="53.194044" lon="-1.763570"><ele>249</ele><time>2020-01-31T12:01:03Z</time><name>PT5892</name></trkpt>
<trkpt lat="53.194051" lon="-1.763585"><ele>249</ele><time>2020-01-31T12:01:03Z</time><name>PT5893</name></trkpt>
<trkpt lat="53.194061" lon="-1.763597"><ele>249</ele><time>2020-01-31T12:01:04Z</time><name>PT5894</name></trkpt>
<trkpt lat="53.194069" lon="-1.763616"><ele>249</ele><time>2020-01-31T12:01:06Z</time><name>PT5895</name></trkpt>
<trkpt lat="53.194074" lon="-1.763629"><ele>249</ele><time>2020-01-31T12:01:06Z</time><name>PT5896</name></trkpt>
<trkpt lat="53.194080" lon="-1.763653"><ele>250</ele><time>2020-01-31T12:01:07Z</time><name>PT5897</name></trkpt>
<trkpt lat="53.194086" lon="-1.763677"><ele>250</ele><time>2020-01-31T12:01:09Z</time><name>PT5898</name></trkpt>
<trkpt lat="53.194092" lon="-1.763695"><ele>250</ele><time>2020-01-31T12:01:09Z</time><name>PT5899</name></trkpt>
<trkpt lat="53.194098" lon="-1.763711"><ele>250</ele><time>2020-01-31T12:01:10Z</time><name>PT5900</name></trkpt>
<trkpt lat="53.194105" lon="-1.763734"><ele>251</ele><time>2020-01-31T12:01:12Z</time><name>PT5901</name></trkpt>
<trkpt lat="53.194112" lon="-1.763751"><ele>251</ele><time>2020-01-31T12:01:12Z</time><name>PT5902</name></trkpt>
<trkpt lat="53.194120" lon="-1.763766"><ele>251</ele><time>2020-01-31T12:01:13Z</time><name>PT5903</name></trkpt>
<trkpt lat="53.194127" lon="-1.763781"><ele>251</ele><time>2020-01-31T12:01:15Z</time><name>PT5904</name></trkpt>
<trkpt lat="53.194134" lon="-1.763797"><ele>251</ele><time>2020-01-31T12:01:15Z</time><name>PT5905</name></trkpt>
<trkpt lat="53.194142" lon="-1.763813"><ele>251</ele><time>2020-01-31T12:01:16Z</time><name>PT5906</name></trkpt>
<trkpt lat="53.194149" lon="-1.763823"><ele>251</ele><time>2020-01-31T12:01:18Z</time><name>PT5907</name></trkpt>
<trkpt lat="53.194159" lon="-1.763834"><ele>251</ele><time>2020-01-31T12:01:18Z</time><name>PT5908</name></trkpt>
<trkpt lat="53.194178" lon="-1.763843"><ele>253</ele><time>2020-01-31T12:01:19Z</time><name>PT5909</name></trkpt>
<trkpt lat="53.194186" lon="-1.763860"><ele>253</ele><time>2020-01-31T12:01:21Z</time><name>PT5910</name></trkpt>
<trkpt lat="53.194190" lon="-1.763881"><ele>253</ele><time>2020-01-31T12:01:21Z</time><name>PT5911</name></trkpt>
<trkpt lat="53.194196" lon="-1.763899"><ele>253</ele><time>2020-01-31T12:01:22Z</time><name>PT5912</name></trkpt>
<trkpt lat="53.194204" lon="-1.763917"><ele>253</ele><time>2020-01-31T12:01:24Z</time><name>PT5913</name></trkpt>
<trkpt lat="53.194209" lon="-1.763932"><ele>253</ele><time>2020-01-31T12:01:24Z</time><name>PT5914</name></trkpt>
<trkpt lat="53.194214" lon="-1.763952"><ele>253</ele><time>2020-01-31T12:01:26Z</time><name>PT5915</name></trkpt>
<trkpt lat="53.194218" lon="-1.763971"><ele>252</ele><time>2020-01-31T12:01:27Z</time><name>PT5916</name></trkpt>
<trkpt lat="53.194223" lon="-1.763992"><ele>252</ele><time>2020-01-31T12:01:27Z</time><name>PT5917</name></trkpt>
<trkpt lat="53.194228" lon="-1.764013"><ele>252</ele><time>2020-01-31T12:01:28Z</time><name>PT5918</name></trkpt>
<trkpt lat="53.194232" lon="-1.764030"><ele>252</ele><time>2020-01-31T12:01:30Z</time><name>PT5919</name></trkpt>
<trkpt lat="53.194246" lon="-1.764044"><ele>252</ele><time>2020-01-31T12:01:30Z</time><name>PT5920</name></trkpt>
<trkpt lat="53.194257" lon="-1.764063"><ele>253</ele><time>2020-01-31T12:01:31Z</time><name>PT5921</name></trkpt>
<trkpt lat="53.194263" lon="-1.764080"><ele>252</ele><time>2020-01-31T12:01:33Z</time><name>PT5922</name></trkpt>
<trkpt lat="53.194268" lon="-1.764097"><ele>251</ele><time>2020-01-31T12:01:33Z</time><name>PT5923</name></trkpt>
<trkpt lat="53.194273" lon="-1.764116"><ele>251</ele><time>2020-01-31T12:01:34Z</time><name>PT5924</name></trkpt>
<trkpt lat="53.194279" lon="-1.764134"><ele>251</ele><time>2020-01-31T12:01:36Z</time><name>PT5925</name></trkpt>
<trkpt lat="53.194283" lon="-1.764152"><ele>251</ele><time>2020-01-31T12:01:36Z</time><name>PT5926</name></trkpt>
<trkpt lat="53.194292" lon="-1.764167"><ele>251</ele><time>2020-01-31T12:01:37Z</time><name>PT5927</name></trkpt>
<trkpt lat="53.194303" lon="-1.764178"><ele>251</ele><time>2020-01-31T12:01:39Z</time><name>PT5928</name></trkpt>
<trkpt lat="53.194312" lon="-1.764192"><ele>252</ele><time>2020-01-31T12:01:39Z</time><name>PT5929</name></trkpt>
<trkpt lat="53.194317" lon="-1.764206"><ele>252</ele><time>2020-01-31T12:01:40Z</time><name>PT5930</name></trkpt>
<trkpt lat="53.194323" lon="-1.764223"><ele>251</ele><time>2020-01-31T12:01:42Z</time><name>PT5931</name></trkpt>
<trkpt lat="53.194328" lon="-1.764243"><ele>251</ele><time>2020-01-31T12:01:42Z</time><name>PT5932</name></trkpt>
<trkpt lat="53.194332" lon="-1.764261"><ele>251</ele><time>2020-01-31T12:01:43Z</time><name>PT5933</name></trkpt>
<trkpt lat="53.194344" lon="-1.764276"><ele>252</ele><time>2020-01-31T12:01:45Z</time><name>PT5934</name></trkpt>
<trkpt lat="53.194349" lon="-1.764290"><ele>252</ele><time>2020-01-31T12:01:45Z</time><name>PT5935</name></trkpt>
<trkpt lat="53.194356" lon="-1.764303"><ele>253</ele><time>2020-01-31T12:01:46Z</time><name>PT5936</name></trkpt>
<trkpt lat="53.194360" lon="-1.764322"><ele>253</ele><time>2020-01-31T12:01:48Z</time><name>PT5937</name></trkpt>
<trkpt lat="53.194367" lon="-1.764340"><ele>253</ele><time>2020-01-31T12:01:48Z</time><name>PT5938</name></trkpt>
<trkpt lat="53.194372" lon="-1.764358"><ele>252</ele><time>2020-01-31T12:01:49Z</time><name>PT5939</name></trkpt>
<trkpt lat="53.194381" lon="-1.764372"><ele>252</ele><time>2020-01-31T12:01:51Z</time><name>PT5940</name></trkpt>
<trkpt lat="53.194389" lon="-1.764387"><ele>252</ele><time>2020-01-31T12:01:51Z</time><name>PT5941</name></trkpt>
<trkpt lat="53.194394" lon="-1.764403"><ele>251</ele><time>2020-01-31T12:01:52Z</time><name>PT5942</name></trkpt>
<trkpt lat="53.194406" lon="-1.764420"><ele>252</ele><time>2020-01-31T12:01:54Z</time><name>PT5943</name></trkpt>
<trkpt lat="53.194414" lon="-1.764436"><ele>252</ele><time>2020-01-31T12:01:54Z</time><name>PT5944</name></trkpt>
<trkpt lat="53.194420" lon="-1.764449"><ele>251</ele><time>2020-01-31T12:01:55Z</time><name>PT5945</name></trkpt>
<trkpt lat="53.194427" lon="-1.764460"><ele>251</ele><time>2020-01-31T12:01:57Z</time><name>PT5946</name></trkpt>
<trkpt lat="53.194433" lon="-1.764465"><ele>251</ele><time>2020-01-31T12:01:57Z</time><name>PT5947</name></trkpt>
<trkpt lat="53.194442" lon="-1.764479"><ele>250</ele><time>2020-01-31T12:01:58Z</time><name>PT5948</name></trkpt>
<trkpt lat="53.194450" lon="-1.764500"><ele>251</ele><time>2020-01-31T12:02:00Z</time><name>PT5949</name></trkpt>
<trkpt lat="53.194453" lon="-1.764512"><ele>251</ele><time>2020-01-31T12:02:00Z</time><name>PT5950</name></trkpt>
<trkpt lat="53.194460" lon="-1.764527"><ele>250</ele><time>2020-01-31T12:02:01Z</time><name>PT5951</name></trkpt>
<trkpt lat="53.194469" lon="-1.764546"><ele>250</ele><time>2020-01-31T12:02:03Z</time><name>PT5952</name></trkpt>
<trkpt lat="53.194477" lon="-1.764565"><ele>250</ele><time>2020-01-31T12:02:03Z</time><name>PT5953</name></trkpt>
<trkpt lat="53.194481" lon="-1.764581"><ele>249</ele><time>2020-01-31T12:02:04Z</time><name>PT5954</name></trkpt>
<trkpt lat="53.194484" lon="-1.764598"><ele>249</ele><time>2020-01-31T12:02:06Z</time><name>PT5955</name></trkpt>
<trkpt lat="53.194490" lon="-1.764615"><ele>249</ele><time>2020-01-31T12:02:06Z</time><name>PT5956</name></trkpt>
<trkpt lat="53.194500" lon="-1.764628"><ele>249</ele><time>2020-01-31T12:02:07Z</time><name>PT5957</name></trkpt>
<trkpt lat="53.194504" lon="-1.764647"><ele>249</ele><time>2020-01-31T12:02:09Z</time><name>PT5958</name></trkpt>
<trkpt lat="53.194510" lon="-1.764667"><ele>249</ele><time>2020-01-31T12:02:09Z</time><name>PT5959</name></trkpt>
<trkpt lat="53.194517" lon="-1.764687"><ele>249</ele><time>2020-01-31T12:02:10Z</time><name>PT5960</name></trkpt>
<trkpt lat="53.194525" lon="-1.764703"><ele>249</ele><time>2020-01-31T12:02:12Z</time><name>PT5961</name></trkpt>
<trkpt lat="53.194530" lon="-1.764723"><ele>249</ele><time>2020-01-31T12:02:12Z</time><name>PT5962</name></trkpt>
<trkpt lat="53.194537" lon="-1.764744"><ele>249</ele><time>2020-01-31T12:02:13Z</time><name>PT5963</name></trkpt>
<trkpt lat="53.194539" lon="-1.764770"><ele>249</ele><time>2020-01-31T12:02:15Z</time><name>PT5964</name></trkpt>
<trkpt lat="53.194545" lon="-1.764789"><ele>249</ele><time>2020-01-31T12:02:15Z</time><name>PT5965</name></trkpt>
<trkpt lat="53.194550" lon="-1.764806"><ele>248</ele><time>2020-01-31T12:02:16Z</time><name>PT5966</name></trkpt>
<trkpt lat="53.194557" lon="-1.764826"><ele>249</ele><time>2020-01-31T12:02:18Z</time><name>PT5967</name></trkpt>
<trkpt lat="53.194566" lon="-1.764846"><ele>249</ele><time>2020-01-31T12:02:18Z</time><name>PT5968</name></trkpt>
<trkpt lat="53.194570" lon="-1.764865"><ele>249</ele><time>2020-01-31T12:02:19Z</time><name>PT5969</name></trkpt>
<trkpt lat="53.194575" lon="-1.764881"><ele>250</ele><time>2020-01-31T12:02:21Z</time><name>PT5970</name></trkpt>
<trkpt lat="53.194581" lon="-1.764904"><ele>250</ele><time>2020-01-31T12:02:21Z</time><name>PT5971</name></trkpt>
<trkpt lat="53.194588" lon="-1.764920"><ele>249</ele><time>2020-01-31T12:02:22Z</time><name>PT5972</name></trkpt>
<trkpt lat="53.194598" lon="-1.764929"><ele>249</ele><time>2020-01-31T12:02:24Z</time><name>PT5973</name></trkpt>
<trkpt lat="53.194605" lon="-1.764944"><ele>249</ele><time>2020-01-31T12:02:24Z</time><name>PT5974</name></trkpt>
<trkpt lat="53.194610" lon="-1.764964"><ele>249</ele><time>2020-01-31T12:02:25Z</time><name>PT5975</name></trkpt>
<trkpt lat="53.194616" lon="-1.764981"><ele>249</ele><time>2020-01-31T12:02:27Z</time><name>PT5976</name></trkpt>
<trkpt lat="53.194619" lon="-1.765001"><ele>248</ele><time>2020-01-31T12:02:27Z</time><name>PT5977</name></trkpt>
<trkpt lat="53.194624" lon="-1.765022"><ele>248</ele><time>2020-01-31T12:02:28Z</time><name>PT5978</name></trkpt>
<trkpt lat="53.194633" lon="-1.765041"><ele>249</ele><time>2020-01-31T12:02:30Z</time><name>PT5979</name></trkpt>
<trkpt lat="53.194643" lon="-1.765056"><ele>249</ele><time>2020-01-31T12:02:30Z</time><name>PT5980</name></trkpt>
<trkpt lat="53.194650" lon="-1.765077"><ele>249</ele><time>2020-01-31T12:02:31Z</time><name>PT5981</name></trkpt>
<trkpt lat="53.194656" lon="-1.765092"><ele>249</ele><time>2020-01-31T12:02:33Z</time><name>PT5982</name></trkpt>
<trkpt lat="53.194660" lon="-1.765109"><ele>249</ele><time>2020-01-31T12:02:33Z</time><name>PT5983</name></trkpt>
<trkpt lat="53.194669" lon="-1.765116"><ele>248</ele><time>2020-01-31T12:02:34Z</time><name>PT5984</name></trkpt>
<trkpt lat="53.194675" lon="-1.765128"><ele>248</ele><time>2020-01-31T12:02:36Z</time><name>PT5985</name></trkpt>
<trkpt lat="53.194682" lon="-1.765144"><ele>248</ele><time>2020-01-31T12:02:36Z</time><name>PT5986</name></trkpt>
<trkpt lat="53.194686" lon="-1.765158"><ele>248</ele><time>2020-01-31T12:02:37Z</time><name>PT5987</name></trkpt>
<trkpt lat="53.194690" lon="-1.765175"><ele>248</ele><time>2020-01-31T12:02:39Z</time><name>PT5988</name></trkpt>
<trkpt lat="53.194695" lon="-1.765189"><ele>248</ele><time>2020-01-31T12:02:39Z</time><name>PT5989</name></trkpt>
<trkpt lat="53.194702" lon="-1.765206"><ele>248</ele><time>2020-01-31T12:02:40Z</time><name>PT5990</name></trkpt>
<trkpt lat="53.194707" lon="-1.765227"><ele>248</ele><time>2020-01-31T12:02:42Z</time><name>PT5991</name></trkpt>
<trkpt lat="53.194719" lon="-1.765242"><ele>248</ele><time>2020-01-31T12:02:42Z</time><name>PT5992</name></trkpt>
<trkpt lat="53.194725" lon="-1.765261"><ele>248</ele><time>2020-01-31T12:02:43Z</time><name>PT5993</name></trkpt>
<trkpt lat="53.194732" lon="-1.765276"><ele>248</ele><time>2020-01-31T12:02:45Z</time><name>PT5994</name></trkpt>
<trkpt lat="53.194738" lon="-1.765291"><ele>248</ele><time>2020-01-31T12:02:45Z</time><name>PT5995</name></trkpt>
<trkpt lat="53.194749" lon="-1.765313"><ele>248</ele><time>2020-01-31T12:02:46Z</time><name>PT5996</name></trkpt>
<trkpt lat="53.194756" lon="-1.765329"><ele>248</ele><time>2020-01-31T12:02:48Z</time><name>PT5997</name></trkpt>
<trkpt lat="53.194761" lon="-1.765350"><ele>248</ele><time>2020-01-31T12:02:48Z</time><name>PT5998</name></trkpt>
<trkpt lat="53.194764" lon="-1.765376"><ele>248</ele><time>2020-01-31T12:02:49Z</time><name>PT5999</name></trkpt>
<trkpt lat="53.194767" lon="-1.765391"><ele>247</ele><time>2020-01-31T12:02:51Z</time><name>PT6000</name></trkpt>
<trkpt lat="53.194772" lon="-1.765413"><ele>247</ele><time>2020-01-31T12:02:51Z</time><name>PT6001</name></trkpt>
<trkpt lat="53.194778" lon="-1.765432"><ele>247</ele><time>2020-01-31T12:02:52Z</time><name>PT6002</name></trkpt>
<trkpt lat="53.194783" lon="-1.765448"><ele>248</ele><time>2020-01-31T12:02:54Z</time><name>PT6003</name></trkpt>
<trkpt lat="53.194788" lon="-1.765464"><ele>248</ele><time>2020-01-31T12:02:54Z</time><name>PT6004</name></trkpt>
<trkpt lat="53.194794" lon="-1.765480"><ele>247</ele><time>2020-01-31T12:02:55Z</time><name>PT6005</name></trkpt>
<trkpt lat="53.194803" lon="-1.765495"><ele>248</ele><time>2020-01-31T12:02:57Z</time><name>PT6006</name></trkpt>
<trkpt lat="53.194810" lon="-1.765510"><ele>247</ele><time>2020-01-31T12:02:57Z</time><name>PT6007</name></trkpt>
<trkpt lat="53.194819" lon="-1.765524"><ele>247</ele><time>2020-01-31T12:02:58Z</time><name>PT6008</name></trkpt>
<trkpt lat="53.194830" lon="-1.765535"><ele>248</ele><time>2020-01-31T12:03:00Z</time><name>PT6009</name></trkpt>
<trkpt lat="53.194835" lon="-1.765549"><ele>248</ele><time>2020-01-31T12:03:00Z</time><name>PT6010</name></trkpt>
<trkpt lat="53.194841" lon="-1.765562"><ele>248</ele><time>2020-01-31T12:03:01Z</time><name>PT6011</name></trkpt>
<trkpt lat="53.194850" lon="-1.765575"><ele>248</ele><time>2020-01-31T12:03:03Z</time><name>PT6012</name></trkpt>
<trkpt lat="53.194854" lon="-1.765595"><ele>249</ele><time>2020-01-31T12:03:03Z</time><name>PT6013</name></trkpt>
<trkpt lat="53.194859" lon="-1.765610"><ele>249</ele><time>2020-01-31T12:03:04Z</time><name>PT6014</name></trkpt>
<trkpt lat="53.194862" lon="-1.765631"><ele>248</ele><time>2020-01-31T12:03:06Z</time><name>PT6015</name></trkpt>
<trkpt lat="53.194866" lon="-1.765651"><ele>248</ele><time>2020-01-31T12:03:06Z</time><name>PT6016</name></trkpt>
<trkpt lat="53.194873" lon="-1.765670"><ele>248</ele><time>2020-01-31T12:03:07Z</time><name>PT6017</name></trkpt>
<trkpt lat="53.194878" lon="-1.765682"><ele>248</ele><time>2020-01-31T12:03:09Z</time><name>PT6018</name></trkpt>
<trkpt lat="53.194888" lon="-1.765684"><ele>248</ele><time>2020-01-31T12:03:09Z</time><name>PT6019</name></trkpt>
<trkpt lat="53.194895" lon="-1.765695"><ele>248</ele><time>2020-01-31T12:03:10Z</time><name>PT6020</name></trkpt>
<trkpt lat="53.194899" lon="-1.765714"><ele>248</ele><time>2020-01-31T12:03:12Z</time><name>PT6021</name></trkpt>
<trkpt lat="53.194909" lon="-1.765732"><ele>249</ele><time>2020-01-31T12:03:12Z</time><name>PT6022</name></trkpt>
<trkpt lat="53.194918" lon="-1.765742"><ele>248</ele><time>2020-01-31T12:03:13Z</time><name>PT6023</name></trkpt>
<trkpt lat="53.194928" lon="-1.765750"><ele>249</ele><time>2020-01-31T12:03:15Z</time><name>PT6024</name></trkpt>
<trkpt lat="53.194936" lon="-1.765756"><ele>249</ele><time>2020-01-31T12:03:15Z</time><name>PT6025</name></trkpt>
<trkpt lat="53.194942" lon="-1.765764"><ele>249</ele><time>2020-01-31T12:03:16Z</time><name>PT6026</name></trkpt>
<trkpt lat="53.194942" lon="-1.765766"><ele>248</ele><time>2020-01-31T12:03:18Z</time><name>PT6027</name></trkpt>
<trkpt lat="53.194939" lon="-1.765772"><ele>247</ele><time>2020-01-31T12:03:18Z</time><name>PT6028</name></trkpt>
<trkpt lat="53.194940" lon="-1.765773"><ele>247</ele><time>2020-01-31T12:03:19Z</time><name>PT6029</name></trkpt>
<trkpt lat="53.194939" lon="-1.765775"><ele>247</ele><time>2020-01-31T12:03:21Z</time><name>PT6030</name></trkpt>
<trkpt lat="53.194940" lon="-1.765779"><ele>247</ele><time>2020-01-31T12:03:21Z</time><name>PT6031</name></trkpt>
<trkpt lat="53.194944" lon="-1.765776"><ele>247</ele><time>2020-01-31T12:03:22Z</time><name>PT6032</name></trkpt>
<trkpt lat="53.194943" lon="-1.765778"><ele>247</ele><time>2020-01-31T12:03:24Z</time><name>PT6033</name></trkpt>
<trkpt lat="53.194941" lon="-1.765781"><ele>247</ele><time>2020-01-31T12:03:24Z</time><name>PT6034</name></trkpt>
<trkpt lat="53.194942" lon="-1.765779"><ele>247</ele><time>2020-01-31T12:03:25Z</time><name>PT6035</name></trkpt>
<trkpt lat="53.194941" lon="-1.765779"><ele>247</ele><time>2020-01-31T12:03:27Z</time><name>PT6036</name></trkpt>
<trkpt lat="53.194941" lon="-1.765780"><ele>247</ele><time>2020-01-31T12:03:30Z</time><name>PT6037</name></trkpt>
<trkpt lat="53.194943" lon="-1.765788"><ele>246</ele><time>2020-01-31T12:03:30Z</time><name>PT6038</name></trkpt>
<trkpt lat="53.194953" lon="-1.765796"><ele>246</ele><time>2020-01-31T12:03:31Z</time><name>PT6039</name></trkpt>
<trkpt lat="53.194958" lon="-1.765798"><ele>246</ele><time>2020-01-31T12:03:33Z</time><name>PT6040</name></trkpt>
<trkpt lat="53.194957" lon="-1.765800"><ele>246</ele><time>2020-01-31T12:03:33Z</time><name>PT6041</name></trkpt>
<trkpt lat="53.194955" lon="-1.765805"><ele>245</ele><time>2020-01-31T12:03:36Z</time><name>PT6042</name></trkpt>
<trkpt lat="53.194963" lon="-1.765813"><ele>245</ele><time>2020-01-31T12:03:36Z</time><name>PT6043</name></trkpt>
<trkpt lat="53.194968" lon="-1.765814"><ele>245</ele><time>2020-01-31T12:03:37Z</time><name>PT6044</name></trkpt>
<trkpt lat="53.194969" lon="-1.765818"><ele>245</ele><time>2020-01-31T12:03:39Z</time><name>PT6045</name></trkpt>
<trkpt lat="53.194973" lon="-1.765830"><ele>245</ele><time>2020-01-31T12:03:39Z</time><name>PT6046</name></trkpt>
<trkpt lat="53.194978" lon="-1.765837"><ele>245</ele><time>2020-01-31T12:03:40Z</time><name>PT6047</name></trkpt>
<trkpt lat="53.194988" lon="-1.765835"><ele>245</ele><time>2020-01-31T12:03:42Z</time><name>PT6048</name></trkpt>
<trkpt lat="53.195004" lon="-1.765836"><ele>245</ele><time>2020-01-31T12:03:42Z</time><name>PT6049</name></trkpt>
<trkpt lat="53.195006" lon="-1.765838"><ele>245</ele><time>2020-01-31T12:03:43Z</time><name>PT6050</name></trkpt>
<trkpt lat="53.195007" lon="-1.765839"><ele>245</ele><time>2020-01-31T12:03:45Z</time><name>PT6051</name></trkpt>
<trkpt lat="53.195009" lon="-1.765845"><ele>245</ele><time>2020-01-31T12:03:45Z</time><name>PT6052</name></trkpt>
<trkpt lat="53.195008" lon="-1.765866"><ele>245</ele><time>2020-01-31T12:03:46Z</time><name>PT6053</name></trkpt>
<trkpt lat="53.195012" lon="-1.765880"><ele>245</ele><time>2020-01-31T12:03:48Z</time><name>PT6054</name></trkpt>
<trkpt lat="53.195010" lon="-1.765901"><ele>245</ele><time>2020-01-31T12:03:48Z</time><name>PT6055</name></trkpt>
<trkpt lat="53.195011" lon="-1.765918"><ele>245</ele><time>2020-01-31T12:03:49Z</time><name>PT6056</name></trkpt>
<trkpt lat="53.195017" lon="-1.765932"><ele>245</ele><time>2020-01-31T12:03:51Z</time><name>PT6057</name></trkpt>
<trkpt lat="53.195018" lon="-1.765945"><ele>244</ele><time>2020-01-31T12:03:51Z</time><name>PT6058</name></trkpt>
<trkpt lat="53.195026" lon="-1.765958"><ele>244</ele><time>2020-01-31T12:03:52Z</time><name>PT6059</name></trkpt>
<trkpt lat="53.195036" lon="-1.765970"><ele>244</ele><time>2020-01-31T12:03:54Z</time><name>PT6060</name></trkpt>
<trkpt lat="53.195042" lon="-1.765987"><ele>244</ele><time>2020-01-31T12:03:54Z</time><name>PT6061</name></trkpt>
<trkpt lat="53.195045" lon="-1.766003"><ele>243</ele><time>2020-01-31T12:03:55Z</time><name>PT6062</name></trkpt>
<trkpt lat="53.195052" lon="-1.766022"><ele>244</ele><time>2020-01-31T12:03:57Z</time><name>PT6063</name></trkpt>
<trkpt lat="53.195056" lon="-1.766035"><ele>245</ele><time>2020-01-31T12:03:57Z</time><name>PT6064</name></trkpt>
<trkpt lat="53.195057" lon="-1.766055"><ele>244</ele><time>2020-01-31T12:03:58Z</time><name>PT6065</name></trkpt>
<trkpt lat="53.195056" lon="-1.766077"><ele>245</ele><time>2020-01-31T12:04:00Z</time><name>PT6066</name></trkpt>
<trkpt lat="53.195061" lon="-1.766097"><ele>245</ele><time>2020-01-31T12:04:00Z</time><name>PT6067</name></trkpt>
<trkpt lat="53.195064" lon="-1.766108"><ele>245</ele><time>2020-01-31T12:04:01Z</time><name>PT6068</name></trkpt>
<trkpt lat="53.195066" lon="-1.766125"><ele>245</ele><time>2020-01-31T12:04:03Z</time><name>PT6069</name></trkpt>
<trkpt lat="53.195068" lon="-1.766141"><ele>245</ele><time>2020-01-31T12:04:03Z</time><name>PT6070</name></trkpt>
<trkpt lat="53.195068" lon="-1.766163"><ele>245</ele><time>2020-01-31T12:04:04Z</time><name>PT6071</name></trkpt>
<trkpt lat="53.195069" lon="-1.766185"><ele>245</ele><time>2020-01-31T12:04:06Z</time><name>PT6072</name></trkpt>
<trkpt lat="53.195069" lon="-1.766200"><ele>245</ele><time>2020-01-31T12:04:06Z</time><name>PT6073</name></trkpt>
<trkpt lat="53.195072" lon="-1.766217"><ele>246</ele><time>2020-01-31T12:04:07Z</time><name>PT6074</name></trkpt>
<trkpt lat="53.195073" lon="-1.766235"><ele>246</ele><time>2020-01-31T12:04:09Z</time><name>PT6075</name></trkpt>
<trkpt lat="53.195076" lon="-1.766260"><ele>246</ele><time>2020-01-31T12:04:09Z</time><name>PT6076</name></trkpt>
<trkpt lat="53.195077" lon="-1.766282"><ele>246</ele><time>2020-01-31T12:04:10Z</time><name>PT6077</name></trkpt>
<trkpt lat="53.195077" lon="-1.766297"><ele>247</ele><time>2020-01-31T12:04:12Z</time><name>PT6078</name></trkpt>
<trkpt lat="53.195080" lon="-1.766316"><ele>247</ele><time>2020-01-31T12:04:12Z</time><name>PT6079</name></trkpt>
<trkpt lat="53.195078" lon="-1.766332"><ele>247</ele><time>2020-01-31T12:04:13Z</time><name>PT6080</name></trkpt>
<trkpt lat="53.195077" lon="-1.766352"><ele>247</ele><time>2020-01-31T12:04:15Z</time><name>PT6081</name></trkpt>
<trkpt lat="53.195077" lon="-1.766366"><ele>248</ele><time>2020-01-31T12:04:15Z</time><name>PT6082</name></trkpt>
<trkpt lat="53.195074" lon="-1.766383"><ele>249</ele><time>2020-01-31T12:04:16Z</time><name>PT6083</name></trkpt>
<trkpt lat="53.195068" lon="-1.766402"><ele>250</ele><time>2020-01-31T12:04:18Z</time><name>PT6084</name></trkpt>
<trkpt lat="53.195068" lon="-1.766416"><ele>250</ele><time>2020-01-31T12:04:18Z</time><name>PT6085</name></trkpt>
<trkpt lat="53.195070" lon="-1.766431"><ele>251</ele><time>2020-01-31T12:04:19Z</time><name>PT6086</name></trkpt>
<trkpt lat="53.195071" lon="-1.766446"><ele>251</ele><time>2020-01-31T12:04:21Z</time><name>PT6087</name></trkpt>
<trkpt lat="53.195071" lon="-1.766459"><ele>250</ele><time>2020-01-31T12:04:21Z</time><name>PT6088</name></trkpt>
<trkpt lat="53.195074" lon="-1.766472"><ele>251</ele><time>2020-01-31T12:04:22Z</time><name>PT6089</name></trkpt>
<trkpt lat="53.195076" lon="-1.766484"><ele>251</ele><time>2020-01-31T12:04:24Z</time><name>PT6090</name></trkpt>
<trkpt lat="53.195077" lon="-1.766495"><ele>250</ele><time>2020-01-31T12:04:24Z</time><name>PT6091</name></trkpt>
<trkpt lat="53.195080" lon="-1.766505"><ele>250</ele><time>2020-01-31T12:04:25Z</time><name>PT6092</name></trkpt>
<trkpt lat="53.195084" lon="-1.766517"><ele>250</ele><time>2020-01-31T12:04:27Z</time><name>PT6093</name></trkpt>
<trkpt lat="53.195082" lon="-1.766530"><ele>250</ele><time>2020-01-31T12:04:27Z</time><name>PT6094</name></trkpt>
<trkpt lat="53.195083" lon="-1.766541"><ele>250</ele><time>2020-01-31T12:04:28Z</time><name>PT6095</name></trkpt>
<trkpt lat="53.195081" lon="-1.766550"><ele>250</ele><time>2020-01-31T12:04:30Z</time><name>PT6096</name></trkpt>
<trkpt lat="53.195085" lon="-1.766559"><ele>251</ele><time>2020-01-31T12:04:30Z</time><name>PT6097</name></trkpt>
<trkpt lat="53.195086" lon="-1.766570"><ele>250</ele><time>2020-01-31T12:04:31Z</time><name>PT6098</name></trkpt>
<trkpt lat="53.195084" lon="-1.766580"><ele>250</ele><time>2020-01-31T12:04:33Z</time><name>PT6099</name></trkpt>
<trkpt lat="53.195086" lon="-1.766592"><ele>250</ele><time>2020-01-31T12:04:33Z</time><name>PT6100</name></trkpt>
<trkpt lat="53.195086" lon="-1.766607"><ele>249</ele><time>2020-01-31T12:04:34Z</time><name>PT6101</name></trkpt>
<trkpt lat="53.195083" lon="-1.766615"><ele>249</ele><time>2020-01-31T12:04:36Z</time><name>PT6102</name></trkpt>
<trkpt lat="53.195082" lon="-1.766627"><ele>250</ele><time>2020-01-31T12:04:36Z</time><name>PT6103</name></trkpt>
<trkpt lat="53.195084" lon="-1.766638"><ele>249</ele><time>2020-01-31T12:04:37Z</time><name>PT6104</name></trkpt>
<trkpt lat="53.195084" lon="-1.766654"><ele>250</ele><time>2020-01-31T12:04:39Z</time><name>PT6105</name></trkpt>
<trkpt lat="53.195083" lon="-1.766671"><ele>249</ele><time>2020-01-31T12:04:39Z</time><name>PT6106</name></trkpt>
<trkpt lat="53.195085" lon="-1.766684"><ele>249</ele><time>2020-01-31T12:04:40Z</time><name>PT6107</name></trkpt>
<trkpt lat="53.195085" lon="-1.766700"><ele>249</ele><time>2020-01-31T12:04:42Z</time><name>PT6108</name></trkpt>
<trkpt lat="53.195086" lon="-1.766712"><ele>248</ele><time>2020-01-31T12:04:42Z</time><name>PT6109</name></trkpt>
<trkpt lat="53.195091" lon="-1.766721"><ele>249</ele><time>2020-01-31T12:04:43Z</time><name>PT6110</name></trkpt>
<trkpt lat="53.195092" lon="-1.766735"><ele>249</ele><time>2020-01-31T12:04:45Z</time><name>PT6111</name></trkpt>
<trkpt lat="53.195094" lon="-1.766748"><ele>249</ele><time>2020-01-31T12:04:45Z</time><name>PT6112</name></trkpt>
<trkpt lat="53.195096" lon="-1.766759"><ele>249</ele><time>2020-01-31T12:04:46Z</time><name>PT6113</name></trkpt>
<trkpt lat="53.195101" lon="-1.766763"><ele>249</ele><time>2020-01-31T12:04:48Z</time><name>PT6114</name></trkpt>
<trkpt lat="53.195106" lon="-1.766773"><ele>249</ele><time>2020-01-31T12:04:48Z</time><name>PT6115</name></trkpt>
<trkpt lat="53.195109" lon="-1.766784"><ele>249</ele><time>2020-01-31T12:04:49Z</time><name>PT6116</name></trkpt>
<trkpt lat="53.195115" lon="-1.766792"><ele>249</ele><time>2020-01-31T12:04:51Z</time><name>PT6117</name></trkpt>
<trkpt lat="53.195122" lon="-1.766796"><ele>249</ele><time>2020-01-31T12:04:51Z</time><name>PT6118</name></trkpt>
<trkpt lat="53.195126" lon="-1.766810"><ele>249</ele><time>2020-01-31T12:04:52Z</time><name>PT6119</name></trkpt>
<trkpt lat="53.195128" lon="-1.766824"><ele>248</ele><time>2020-01-31T12:04:54Z</time><name>PT6120</name></trkpt>
<trkpt lat="53.195132" lon="-1.766839"><ele>248</ele><time>2020-01-31T12:04:54Z</time><name>PT6121</name></trkpt>
<trkpt lat="53.195136" lon="-1.766849"><ele>249</ele><time>2020-01-31T12:04:55Z</time><name>PT6122</name></trkpt>
<trkpt lat="53.195140" lon="-1.766860"><ele>249</ele><time>2020-01-31T12:04:57Z</time><name>PT6123</name></trkpt>
<trkpt lat="53.195142" lon="-1.766869"><ele>249</ele><time>2020-01-31T12:04:57Z</time><name>PT6124</name></trkpt>
<trkpt lat="53.195140" lon="-1.766884"><ele>249</ele><time>2020-01-31T12:04:58Z</time><name>PT6125</name></trkpt>
<trkpt lat="53.195143" lon="-1.766886"><ele>248</ele><time>2020-01-31T12:05:00Z</time><name>PT6126</name></trkpt>
<trkpt lat="53.195149" lon="-1.766890"><ele>249</ele><time>2020-01-31T12:05:00Z</time><name>PT6127</name></trkpt>
<trkpt lat="53.195157" lon="-1.766897"><ele>249</ele><time>2020-01-31T12:05:01Z</time><name>PT6128</name></trkpt>
<trkpt lat="53.195163" lon="-1.766909"><ele>248</ele><time>2020-01-31T12:05:03Z</time><name>PT6129</name></trkpt>
<trkpt lat="53.195168" lon="-1.766914"><ele>248</ele><time>2020-01-31T12:05:03Z</time><name>PT6130</name></trkpt>
<trkpt lat="53.195176" lon="-1.766918"><ele>247</ele><time>2020-01-31T12:05:04Z</time><name>PT6131</name></trkpt>
<trkpt lat="53.195188" lon="-1.766928"><ele>248</ele><time>2020-01-31T12:05:06Z</time><name>PT6132</name></trkpt>
<trkpt lat="53.195187" lon="-1.766941"><ele>247</ele><time>2020-01-31T12:05:06Z</time><name>PT6133</name></trkpt>
<trkpt lat="53.195191" lon="-1.766949"><ele>247</ele><time>2020-01-31T12:05:07Z</time><name>PT6134</name></trkpt>
<trkpt lat="53.195194" lon="-1.766955"><ele>247</ele><time>2020-01-31T12:05:09Z</time><name>PT6135</name></trkpt>
<trkpt lat="53.195194" lon="-1.766959"><ele>247</ele><time>2020-01-31T12:05:09Z</time><name>PT6136</name></trkpt>
<trkpt lat="53.195195" lon="-1.766962"><ele>247</ele><time>2020-01-31T12:05:11Z</time><name>PT6137</name></trkpt>
<trkpt lat="53.195194" lon="-1.766963"><ele>247</ele><time>2020-01-31T12:05:15Z</time><name>PT6138</name></trkpt>
<trkpt lat="53.195196" lon="-1.766961"><ele>247</ele><time>2020-01-31T12:05:15Z</time><name>PT6139</name></trkpt>
<trkpt lat="53.195193" lon="-1.766967"><ele>247</ele><time>2020-01-31T12:05:16Z</time><name>PT6140</name></trkpt>
<trkpt lat="53.195190" lon="-1.766973"><ele>247</ele><time>2020-01-31T12:05:18Z</time><name>PT6141</name></trkpt>
<trkpt lat="53.195191" lon="-1.766978"><ele>247</ele><time>2020-01-31T12:05:18Z</time><name>PT6142</name></trkpt>
<trkpt lat="53.195192" lon="-1.766979"><ele>247</ele><time>2020-01-31T12:05:19Z</time><name>PT6143</name></trkpt>
<trkpt lat="53.195192" lon="-1.766986"><ele>247</ele><time>2020-01-31T12:05:21Z</time><name>PT6144</name></trkpt>
<trkpt lat="53.195192" lon="-1.766987"><ele>247</ele><time>2020-01-31T12:05:21Z</time><name>PT6145</name></trkpt>
<trkpt lat="53.195200" lon="-1.766987"><ele>247</ele><time>2020-01-31T12:05:22Z</time><name>PT6146</name></trkpt>
<trkpt lat="53.195210" lon="-1.766996"><ele>248</ele><time>2020-01-31T12:05:24Z</time><name>PT6147</name></trkpt>
<trkpt lat="53.195211" lon="-1.766996"><ele>248</ele><time>2020-01-31T12:05:24Z</time><name>PT6148</name></trkpt>
<trkpt lat="53.195212" lon="-1.766991"><ele>248</ele><time>2020-01-31T12:05:25Z</time><name>PT6149</name></trkpt>
<trkpt lat="53.195214" lon="-1.766988"><ele>248</ele><time>2020-01-31T12:05:27Z</time><name>PT6150</name></trkpt>
<trkpt lat="53.195217" lon="-1.766986"><ele>249</ele><time>2020-01-31T12:05:27Z</time><name>PT6151</name></trkpt>
<trkpt lat="53.195218" lon="-1.766987"><ele>249</ele><time>2020-01-31T12:05:28Z</time><name>PT6152</name></trkpt>
<trkpt lat="53.195218" lon="-1.766986"><ele>249</ele><time>2020-01-31T12:05:30Z</time><name>PT6153</name></trkpt>
<trkpt lat="53.195220" lon="-1.766978"><ele>249</ele><time>2020-01-31T12:05:30Z</time><name>PT6154</name></trkpt>
<trkpt lat="53.195222" lon="-1.766978"><ele>249</ele><time>2020-01-31T12:05:31Z</time><name>PT6155</name></trkpt>
<trkpt lat="53.195225" lon="-1.766986"><ele>249</ele><time>2020-01-31T12:05:34Z</time><name>PT6156</name></trkpt>
<trkpt lat="53.195231" lon="-1.766989"><ele>249</ele><time>2020-01-31T12:05:36Z</time><name>PT6157</name></trkpt>
<trkpt lat="53.195233" lon="-1.766988"><ele>249</ele><time>2020-01-31T12:05:36Z</time><name>PT6158</name></trkpt>
<trkpt lat="53.195235" lon="-1.766991"><ele>249</ele><time>2020-01-31T12:05:37Z</time><name>PT6159</name></trkpt>
<trkpt lat="53.195231" lon="-1.766997"><ele>250</ele><time>2020-01-31T12:05:39Z</time><name>PT6160</name></trkpt>
<trkpt lat="53.195222" lon="-1.766990"><ele>250</ele><time>2020-01-31T12:05:39Z</time><name>PT6161</name></trkpt>
<trkpt lat="53.195221" lon="-1.766983"><ele>250</ele><time>2020-01-31T12:05:40Z</time><name>PT6162</name></trkpt>
<trkpt lat="53.195221" lon="-1.766984"><ele>250</ele><time>2020-01-31T12:05:42Z</time><name>PT6163</name></trkpt>
<trkpt lat="53.195223" lon="-1.766987"><ele>250</ele><time>2020-01-31T12:05:42Z</time><name>PT6164</name></trkpt>
<trkpt lat="53.195227" lon="-1.766991"><ele>250</ele><time>2020-01-31T12:05:43Z</time><name>PT6165</name></trkpt>
<trkpt lat="53.195233" lon="-1.766995"><ele>250</ele><time>2020-01-31T12:05:45Z</time><name>PT6166</name></trkpt>
<trkpt lat="53.195238" lon="-1.766990"><ele>250</ele><time>2020-01-31T12:05:45Z</time><name>PT6167</name></trkpt>
<trkpt lat="53.195242" lon="-1.766985"><ele>249</ele><time>2020-01-31T12:05:46Z</time><name>PT6168</name></trkpt>
<trkpt lat="53.195246" lon="-1.766977"><ele>248</ele><time>2020-01-31T12:05:48Z</time><name>PT6169</name></trkpt>
<trkpt lat="53.195254" lon="-1.766975"><ele>249</ele><time>2020-01-31T12:05:48Z</time><name>PT6170</name></trkpt>
<trkpt lat="53.195263" lon="-1.766979"><ele>250</ele><time>2020-01-31T12:05:49Z</time><name>PT6171</name></trkpt>
<trkpt lat="53.195268" lon="-1.766984"><ele>250</ele><time>2020-01-31T12:05:51Z</time><name>PT6172</name></trkpt>
<trkpt lat="53.195273" lon="-1.766991"><ele>250</ele><time>2020-01-31T12:05:51Z</time><name>PT6173</name></trkpt>
<trkpt lat="53.195291" lon="-1.766994"><ele>250</ele><time>2020-01-31T12:05:52Z</time><name>PT6174</name></trkpt>
<trkpt lat="53.195307" lon="-1.767003"><ele>251</ele><time>2020-01-31T12:05:54Z</time><name>PT6175</name></trkpt>
<trkpt lat="53.195315" lon="-1.767009"><ele>251</ele><time>2020-01-31T12:05:54Z</time><name>PT6176</name></trkpt>
<trkpt lat="53.195320" lon="-1.767016"><ele>251</ele><time>2020-01-31T12:05:55Z</time><name>PT6177</name></trkpt>
<trkpt lat="53.195330" lon="-1.767018"><ele>251</ele><time>2020-01-31T12:05:57Z</time><name>PT6178</name></trkpt>
<trkpt lat="53.195338" lon="-1.767023"><ele>251</ele><time>2020-01-31T12:05:57Z</time><name>PT6179</name></trkpt>
<trkpt lat="53.195342" lon="-1.767040"><ele>251</ele><time>2020-01-31T12:05:58Z</time><name>PT6180</name></trkpt>
<trkpt lat="53.195349" lon="-1.767053"><ele>252</ele><time>2020-01-31T12:06:00Z</time><name>PT6181</name></trkpt>
<trkpt lat="53.195355" lon="-1.767061"><ele>252</ele><time>2020-01-31T12:06:00Z</time><name>PT6182</name></trkpt>
<trkpt lat="53.195363" lon="-1.767064"><ele>252</ele><time>2020-01-31T12:06:01Z</time><name>PT6183</name></trkpt>
<trkpt lat="53.195368" lon="-1.767069"><ele>252</ele><time>2020-01-31T12:06:03Z</time><name>PT6184</name></trkpt>
<trkpt lat="53.195376" lon="-1.767075"><ele>253</ele><time>2020-01-31T12:06:03Z</time><name>PT6185</name></trkpt>
<trkpt lat="53.195381" lon="-1.767080"><ele>253</ele><time>2020-01-31T12:06:04Z</time><name>PT6186</name></trkpt>
<trkpt lat="53.195387" lon="-1.767083"><ele>253</ele><time>2020-01-31T12:06:06Z</time><name>PT6187</name></trkpt>
<trkpt lat="53.195391" lon="-1.767087"><ele>253</ele><time>2020-01-31T12:06:06Z</time><name>PT6188</name></trkpt>
<trkpt lat="53.195401" lon="-1.767095"><ele>253</ele><time>2020-01-31T12:06:07Z</time><name>PT6189</name></trkpt>
<trkpt lat="53.195410" lon="-1.767103"><ele>253</ele><time>2020-01-31T12:06:09Z</time><name>PT6190</name></trkpt>
<trkpt lat="53.195416" lon="-1.767111"><ele>252</ele><time>2020-01-31T12:06:09Z</time><name>PT6191</name></trkpt>
<trkpt lat="53.195419" lon="-1.767115"><ele>252</ele><time>2020-01-31T12:06:10Z</time><name>PT6192</name></trkpt>
<trkpt lat="53.195426" lon="-1.767120"><ele>252</ele><time>2020-01-31T12:06:12Z</time><name>PT6193</name></trkpt>
<trkpt lat="53.195435" lon="-1.767126"><ele>252</ele><time>2020-01-31T12:06:12Z</time><name>PT6194</name></trkpt>
<trkpt lat="53.195442" lon="-1.767128"><ele>251</ele><time>2020-01-31T12:06:13Z</time><name>PT6195</name></trkpt>
<trkpt lat="53.195449" lon="-1.767142"><ele>252</ele><time>2020-01-31T12:06:15Z</time><name>PT6196</name></trkpt>
<trkpt lat="53.195450" lon="-1.767146"><ele>251</ele><time>2020-01-31T12:06:15Z</time><name>PT6197</name></trkpt>
<trkpt lat="53.195456" lon="-1.767153"><ele>251</ele><time>2020-01-31T12:06:16Z</time><name>PT6198</name></trkpt>
<trkpt lat="53.195462" lon="-1.767161"><ele>251</ele><time>2020-01-31T12:06:18Z</time><name>PT6199</name></trkpt>
<trkpt lat="53.195467" lon="-1.767165"><ele>251</ele><time>2020-01-31T12:06:18Z</time><name>PT6200</name></trkpt>
<trkpt lat="53.195471" lon="-1.767172"><ele>251</ele><time>2020-01-31T12:06:19Z</time><name>PT6201</name></trkpt>
<trkpt lat="53.195477" lon="-1.767182"><ele>251</ele><time>2020-01-31T12:06:21Z</time><name>PT6202</name></trkpt>
<trkpt lat="53.195488" lon="-1.767188"><ele>250</ele><time>2020-01-31T12:06:21Z</time><name>PT6203</name></trkpt>
<trkpt lat="53.195493" lon="-1.767193"><ele>250</ele><time>2020-01-31T12:06:22Z</time><name>PT6204</name></trkpt>
<trkpt lat="53.195498" lon="-1.767196"><ele>250</ele><time>2020-01-31T12:06:24Z</time><name>PT6205</name></trkpt>
<trkpt lat="53.195501" lon="-1.767206"><ele>250</ele><time>2020-01-31T12:06:24Z</time><name>PT6206</name></trkpt>
<trkpt lat="53.195508" lon="-1.767212"><ele>250</ele><time>2020-01-31T12:06:25Z</time><name>PT6207</name></trkpt>
<trkpt lat="53.195520" lon="-1.767218"><ele>251</ele><time>2020-01-31T12:06:27Z</time><name>PT6208</name></trkpt>
<trkpt lat="53.195529" lon="-1.767222"><ele>251</ele><time>2020-01-31T12:06:27Z</time><name>PT6209</name></trkpt>
<trkpt lat="53.195531" lon="-1.767229"><ele>250</ele><time>2020-01-31T12:06:28Z</time><name>PT6210</name></trkpt>
<trkpt lat="53.195538" lon="-1.767230"><ele>250</ele><time>2020-01-31T12:06:30Z</time><name>PT6211</name></trkpt>
<trkpt lat="53.195547" lon="-1.767233"><ele>250</ele><time>2020-01-31T12:06:30Z</time><name>PT6212</name></trkpt>
<trkpt lat="53.195550" lon="-1.767243"><ele>250</ele><time>2020-01-31T12:06:31Z</time><name>PT6213</name></trkpt>
<trkpt lat="53.195557" lon="-1.767250"><ele>250</ele><time>2020-01-31T12:06:33Z</time><name>PT6214</name></trkpt>
<trkpt lat="53.195558" lon="-1.767263"><ele>250</ele><time>2020-01-31T12:06:33Z</time><name>PT6215</name></trkpt>
<trkpt lat="53.195566" lon="-1.767277"><ele>250</ele><time>2020-01-31T12:06:34Z</time><name>PT6216</name></trkpt>
<trkpt lat="53.195575" lon="-1.767284"><ele>249</ele><time>2020-01-31T12:06:36Z</time><name>PT6217</name></trkpt>
<trkpt lat="53.195589" lon="-1.767297"><ele>250</ele><time>2020-01-31T12:06:36Z</time><name>PT6218</name></trkpt>
<trkpt lat="53.195598" lon="-1.767309"><ele>249</ele><time>2020-01-31T12:06:37Z</time><name>PT6219</name></trkpt>
<trkpt lat="53.195604" lon="-1.767317"><ele>249</ele><time>2020-01-31T12:06:39Z</time><name>PT6220</name></trkpt>
<trkpt lat="53.195614" lon="-1.767315"><ele>249</ele><time>2020-01-31T12:06:39Z</time><name>PT6221</name></trkpt>
<trkpt lat="53.195624" lon="-1.767320"><ele>249</ele><time>2020-01-31T12:06:40Z</time><name>PT6222</name></trkpt>
<trkpt lat="53.195632" lon="-1.767322"><ele>249</ele><time>2020-01-31T12:06:42Z</time><name>PT6223</name></trkpt>
<trkpt lat="53.195643" lon="-1.767326"><ele>249</ele><time>2020-01-31T12:06:42Z</time><name>PT6224</name></trkpt>
<trkpt lat="53.195647" lon="-1.767334"><ele>248</ele><time>2020-01-31T12:06:43Z</time><name>PT6225</name></trkpt>
<trkpt lat="53.195655" lon="-1.767343"><ele>248</ele><time>2020-01-31T12:06:45Z</time><name>PT6226</name></trkpt>
<trkpt lat="53.195664" lon="-1.767359"><ele>248</ele><time>2020-01-31T12:06:45Z</time><name>PT6227</name></trkpt>
<trkpt lat="53.195667" lon="-1.767369"><ele>249</ele><time>2020-01-31T12:06:46Z</time><name>PT6228</name></trkpt>
<trkpt lat="53.195674" lon="-1.767376"><ele>249</ele><time>2020-01-31T12:06:48Z</time><name>PT6229</name></trkpt>
<trkpt lat="53.195680" lon="-1.767383"><ele>249</ele><time>2020-01-31T12:06:48Z</time><name>PT6230</name></trkpt>
<trkpt lat="53.195685" lon="-1.767390"><ele>249</ele><time>2020-01-31T12:06:49Z</time><name>PT6231</name></trkpt>
<trkpt lat="53.195694" lon="-1.767402"><ele>249</ele><time>2020-01-31T12:06:51Z</time><name>PT6232</name></trkpt>
<trkpt lat="53.195702" lon="-1.767412"><ele>249</ele><time>2020-01-31T12:06:51Z</time><name>PT6233</name></trkpt>
<trkpt lat="53.195706" lon="-1.767416"><ele>249</ele><time>2020-01-31T12:06:52Z</time><name>PT6234</name></trkpt>
<trkpt lat="53.195713" lon="-1.767415"><ele>249</ele><time>2020-01-31T12:06:54Z</time><name>PT6235</name></trkpt>
<trkpt lat="53.195720" lon="-1.767424"><ele>249</ele><time>2020-01-31T12:06:54Z</time><name>PT6236</name></trkpt>
<trkpt lat="53.195730" lon="-1.767433"><ele>249</ele><time>2020-01-31T12:06:55Z</time><name>PT6237</name></trkpt>
<trkpt lat="53.195738" lon="-1.767436"><ele>249</ele><time>2020-01-31T12:06:57Z</time><name>PT6238</name></trkpt>
<trkpt lat="53.195746" lon="-1.767440"><ele>248</ele><time>2020-01-31T12:06:57Z</time><name>PT6239</name></trkpt>
<trkpt lat="53.195760" lon="-1.767441"><ele>249</ele><time>2020-01-31T12:06:58Z</time><name>PT6240</name></trkpt>
<trkpt lat="53.195767" lon="-1.767446"><ele>249</ele><time>2020-01-31T12:07:00Z</time><name>PT6241</name></trkpt>
<trkpt lat="53.195773" lon="-1.767448"><ele>248</ele><time>2020-01-31T12:07:00Z</time><name>PT6242</name></trkpt>
<trkpt lat="53.195783" lon="-1.767447"><ele>249</ele><time>2020-01-31T12:07:01Z</time><name>PT6243</name></trkpt>
<trkpt lat="53.195788" lon="-1.767451"><ele>248</ele><time>2020-01-31T12:07:03Z</time><name>PT6244</name></trkpt>
<trkpt lat="53.195791" lon="-1.767455"><ele>248</ele><time>2020-01-31T12:07:03Z</time><name>PT6245</name></trkpt>
<trkpt lat="53.195793" lon="-1.767466"><ele>248</ele><time>2020-01-31T12:07:04Z</time><name>PT6246</name></trkpt>
<trkpt lat="53.195797" lon="-1.767472"><ele>248</ele><time>2020-01-31T12:07:06Z</time><name>PT6247</name></trkpt>
<trkpt lat="53.195803" lon="-1.767481"><ele>247</ele><time>2020-01-31T12:07:09Z</time><name>PT6248</name></trkpt>
<trkpt lat="53.195817" lon="-1.767495"><ele>248</ele><time>2020-01-31T12:07:10Z</time><name>PT6249</name></trkpt>
<trkpt lat="53.195824" lon="-1.767493"><ele>247</ele><time>2020-01-31T12:07:12Z</time><name>PT6250</name></trkpt>
<trkpt lat="53.195832" lon="-1.767495"><ele>247</ele><time>2020-01-31T12:07:12Z</time><name>PT6251</name></trkpt>
<trkpt lat="53.195841" lon="-1.767497"><ele>247</ele><time>2020-01-31T12:07:13Z</time><name>PT6252</name></trkpt>
<trkpt lat="53.195848" lon="-1.767497"><ele>248</ele><time>2020-01-31T12:07:15Z</time><name>PT6253</name></trkpt>
<trkpt lat="53.195855" lon="-1.767509"><ele>248</ele><time>2020-01-31T12:07:15Z</time><name>PT6254</name></trkpt>
<trkpt lat="53.195860" lon="-1.767520"><ele>247</ele><time>2020-01-31T12:07:16Z</time><name>PT6255</name></trkpt>
<trkpt lat="53.195871" lon="-1.767529"><ele>248</ele><time>2020-01-31T12:07:18Z</time><name>PT6256</name></trkpt>
<trkpt lat="53.195881" lon="-1.767534"><ele>248</ele><time>2020-01-31T12:07:18Z</time><name>PT6257</name></trkpt>
<trkpt lat="53.195891" lon="-1.767536"><ele>249</ele><time>2020-01-31T12:07:19Z</time><name>PT6258</name></trkpt>
<trkpt lat="53.195899" lon="-1.767548"><ele>249</ele><time>2020-01-31T12:07:21Z</time><name>PT6259</name></trkpt>
<trkpt lat="53.195908" lon="-1.767553"><ele>249</ele><time>2020-01-31T12:07:21Z</time><name>PT6260</name></trkpt>
<trkpt lat="53.195914" lon="-1.767562"><ele>249</ele><time>2020-01-31T12:07:22Z</time><name>PT6261</name></trkpt>
<trkpt lat="53.195920" lon="-1.767565"><ele>249</ele><time>2020-01-31T12:07:24Z</time><name>PT6262</name></trkpt>
<trkpt lat="53.195927" lon="-1.767572"><ele>250</ele><time>2020-01-31T12:07:24Z</time><name>PT6263</name></trkpt>
<trkpt lat="53.195936" lon="-1.767576"><ele>250</ele><time>2020-01-31T12:07:25Z</time><name>PT6264</name></trkpt>
<trkpt lat="53.195944" lon="-1.767579"><ele>250</ele><time>2020-01-31T12:07:27Z</time><name>PT6265</name></trkpt>
<trkpt lat="53.195951" lon="-1.767585"><ele>250</ele><time>2020-01-31T12:07:27Z</time><name>PT6266</name></trkpt>
<trkpt lat="53.195954" lon="-1.767597"><ele>250</ele><time>2020-01-31T12:07:28Z</time><name>PT6267</name></trkpt>
<trkpt lat="53.195955" lon="-1.767600"><ele>250</ele><time>2020-01-31T12:07:30Z</time><name>PT6268</name></trkpt>
<trkpt lat="53.195958" lon="-1.767598"><ele>251</ele><time>2020-01-31T12:07:30Z</time><name>PT6269</name></trkpt>
<trkpt lat="53.195963" lon="-1.767598"><ele>251</ele><time>2020-01-31T12:07:31Z</time><name>PT6270</name></trkpt>
<trkpt lat="53.195964" lon="-1.767603"><ele>252</ele><time>2020-01-31T12:07:33Z</time><name>PT6271</name></trkpt>
<trkpt lat="53.195964" lon="-1.767605"><ele>251</ele><time>2020-01-31T12:07:33Z</time><name>PT6272</name></trkpt>
<trkpt lat="53.195963" lon="-1.767603"><ele>251</ele><time>2020-01-31T12:07:45Z</time><name>PT6273</name></trkpt>
<trkpt lat="53.195966" lon="-1.767612"><ele>251</ele><time>2020-01-31T12:07:45Z</time><name>PT6274</name></trkpt>
<trkpt lat="53.195973" lon="-1.767611"><ele>251</ele><time>2020-01-31T12:07:46Z</time><name>PT6275</name></trkpt>
<trkpt lat="53.195981" lon="-1.767609"><ele>251</ele><time>2020-01-31T12:07:48Z</time><name>PT6276</name></trkpt>
<trkpt lat="53.195984" lon="-1.767617"><ele>251</ele><time>2020-01-31T12:07:48Z</time><name>PT6277</name></trkpt>
<trkpt lat="53.195990" lon="-1.767628"><ele>251</ele><time>2020-01-31T12:07:49Z</time><name>PT6278</name></trkpt>
<trkpt lat="53.196000" lon="-1.767628"><ele>251</ele><time>2020-01-31T12:07:51Z</time><name>PT6279</name></trkpt>
<trkpt lat="53.196008" lon="-1.767639"><ele>250</ele><time>2020-01-31T12:07:51Z</time><name>PT6280</name></trkpt>
<trkpt lat="53.196014" lon="-1.767645"><ele>250</ele><time>2020-01-31T12:07:52Z</time><name>PT6281</name></trkpt>
<trkpt lat="53.196017" lon="-1.767662"><ele>250</ele><time>2020-01-31T12:07:54Z</time><name>PT6282</name></trkpt>
<trkpt lat="53.196026" lon="-1.767675"><ele>250</ele><time>2020-01-31T12:07:54Z</time><name>PT6283</name></trkpt>
<trkpt lat="53.196029" lon="-1.767680"><ele>249</ele><time>2020-01-31T12:07:55Z</time><name>PT6284</name></trkpt>
<trkpt lat="53.196035" lon="-1.767686"><ele>249</ele><time>2020-01-31T12:07:57Z</time><name>PT6285</name></trkpt>
<trkpt lat="53.196042" lon="-1.767691"><ele>249</ele><time>2020-01-31T12:07:57Z</time><name>PT6286</name></trkpt>
<trkpt lat="53.196047" lon="-1.767695"><ele>249</ele><time>2020-01-31T12:07:58Z</time><name>PT6287</name></trkpt>
<trkpt lat="53.196056" lon="-1.767707"><ele>250</ele><time>2020-01-31T12:08:00Z</time><name>PT6288</name></trkpt>
<trkpt lat="53.196068" lon="-1.767701"><ele>250</ele><time>2020-01-31T12:08:00Z</time><name>PT6289</name></trkpt>
<trkpt lat="53.196076" lon="-1.767703"><ele>251</ele><time>2020-01-31T12:08:02Z</time><name>PT6290</name></trkpt>
<trkpt lat="53.196085" lon="-1.767704"><ele>252</ele><time>2020-01-31T12:08:03Z</time><name>PT6291</name></trkpt>
<trkpt lat="53.196091" lon="-1.767712"><ele>252</ele><time>2020-01-31T12:08:03Z</time><name>PT6292</name></trkpt>
<trkpt lat="53.196098" lon="-1.767718"><ele>253</ele><time>2020-01-31T12:08:05Z</time><name>PT6293</name></trkpt>
<trkpt lat="53.196104" lon="-1.767726"><ele>253</ele><time>2020-01-31T12:08:06Z</time><name>PT6294</name></trkpt>
<trkpt lat="53.196111" lon="-1.767728"><ele>253</ele><time>2020-01-31T12:08:06Z</time><name>PT6295</name></trkpt>
<trkpt lat="53.196118" lon="-1.767725"><ele>254</ele><time>2020-01-31T12:08:08Z</time><name>PT6296</name></trkpt>
<trkpt lat="53.196122" lon="-1.767726"><ele>254</ele><time>2020-01-31T12:08:09Z</time><name>PT6297</name></trkpt>
<trkpt lat="53.196128" lon="-1.767722"><ele>255</ele><time>2020-01-31T12:08:09Z</time><name>PT6298</name></trkpt>
<trkpt lat="53.196134" lon="-1.767716"><ele>256</ele><time>2020-01-31T12:08:10Z</time><name>PT6299</name></trkpt>
<trkpt lat="53.196136" lon="-1.767704"><ele>256</ele><time>2020-01-31T12:08:12Z</time><name>PT6300</name></trkpt>
<trkpt lat="53.196136" lon="-1.767683"><ele>256</ele><time>2020-01-31T12:08:12Z</time><name>PT6301</name></trkpt>
<trkpt lat="53.196135" lon="-1.767672"><ele>255</ele><time>2020-01-31T12:08:13Z</time><name>PT6302</name></trkpt>
<trkpt lat="53.196133" lon="-1.767658"><ele>255</ele><time>2020-01-31T12:08:15Z</time><name>PT6303</name></trkpt>
<trkpt lat="53.196133" lon="-1.767643"><ele>255</ele><time>2020-01-31T12:08:15Z</time><name>PT6304</name></trkpt>
<trkpt lat="53.196140" lon="-1.767624"><ele>255</ele><time>2020-01-31T12:08:16Z</time><name>PT6305</name></trkpt>
<trkpt lat="53.196143" lon="-1.767613"><ele>255</ele><time>2020-01-31T12:08:18Z</time><name>PT6306</name></trkpt>
<trkpt lat="53.196151" lon="-1.767590"><ele>255</ele><time>2020-01-31T12:08:18Z</time><name>PT6307</name></trkpt>
<trkpt lat="53.196151" lon="-1.767577"><ele>255</ele><time>2020-01-31T12:08:19Z</time><name>PT6308</name></trkpt>
<trkpt lat="53.196149" lon="-1.767569"><ele>255</ele><time>2020-01-31T12:08:21Z</time><name>PT6309</name></trkpt>
<trkpt lat="53.196144" lon="-1.767562"><ele>254</ele><time>2020-01-31T12:08:21Z</time><name>PT6310</name></trkpt>
<trkpt lat="53.196141" lon="-1.767549"><ele>254</ele><time>2020-01-31T12:08:22Z</time><name>PT6311</name></trkpt>
<trkpt lat="53.196139" lon="-1.767537"><ele>255</ele><time>2020-01-31T12:08:24Z</time><name>PT6312</name></trkpt>
<trkpt lat="53.196135" lon="-1.767522"><ele>254</ele><time>2020-01-31T12:08:24Z</time><name>PT6313</name></trkpt>
<trkpt lat="53.196133" lon="-1.767512"><ele>254</ele><time>2020-01-31T12:08:25Z</time><name>PT6314</name></trkpt>
<trkpt lat="53.196134" lon="-1.767506"><ele>254</ele><time>2020-01-31T12:08:27Z</time><name>PT6315</name></trkpt>
<trkpt lat="53.196134" lon="-1.767505"><ele>254</ele><time>2020-01-31T12:08:27Z</time><name>PT6316</name></trkpt>
<trkpt lat="53.196134" lon="-1.767505"><ele>255</ele><time>2020-01-31T12:08:28Z</time><name>PT6317</name></trkpt>
<trkpt lat="53.196131" lon="-1.767502"><ele>255</ele><time>2020-01-31T12:08:30Z</time><name>PT6318</name></trkpt>
<trkpt lat="53.196133" lon="-1.767495"><ele>256</ele><time>2020-01-31T12:08:30Z</time><name>PT6319</name></trkpt>
<trkpt lat="53.196135" lon="-1.767487"><ele>256</ele><time>2020-01-31T12:08:31Z</time><name>PT6320</name></trkpt>
<trkpt lat="53.196135" lon="-1.767483"><ele>256</ele><time>2020-01-31T12:08:33Z</time><name>PT6321</name></trkpt>
<trkpt lat="53.196137" lon="-1.767477"><ele>257</ele><time>2020-01-31T12:08:33Z</time><name>PT6322</name></trkpt>
<trkpt lat="53.196138" lon="-1.767466"><ele>257</ele><time>2020-01-31T12:08:34Z</time><name>PT6323</name></trkpt>
<trkpt lat="53.196142" lon="-1.767458"><ele>258</ele><time>2020-01-31T12:08:36Z</time><name>PT6324</name></trkpt>
<trkpt lat="53.196146" lon="-1.767450"><ele>258</ele><time>2020-01-31T12:08:36Z</time><name>PT6325</name></trkpt>
<trkpt lat="53.196148" lon="-1.767443"><ele>258</ele><time>2020-01-31T12:08:37Z</time><name>PT6326</name></trkpt>
<trkpt lat="53.196146" lon="-1.767436"><ele>258</ele><time>2020-01-31T12:08:39Z</time><name>PT6327</name></trkpt>
<trkpt lat="53.196145" lon="-1.767425"><ele>259</ele><time>2020-01-31T12:08:39Z</time><name>PT6328</name></trkpt>
<trkpt lat="53.196144" lon="-1.767416"><ele>259</ele><time>2020-01-31T12:08:40Z</time><name>PT6329</name></trkpt>
<trkpt lat="53.196141" lon="-1.767404"><ele>259</ele><time>2020-01-31T12:08:42Z</time><name>PT6330</name></trkpt>
<trkpt lat="53.196140" lon="-1.767392"><ele>259</ele><time>2020-01-31T12:08:42Z</time><name>PT6331</name></trkpt>
<trkpt lat="53.196143" lon="-1.767381"><ele>260</ele><time>2020-01-31T12:08:43Z</time><name>PT6332</name></trkpt>
<trkpt lat="53.196145" lon="-1.767371"><ele>260</ele><time>2020-01-31T12:08:45Z</time><name>PT6333</name></trkpt>
<trkpt lat="53.196145" lon="-1.767362"><ele>261</ele><time>2020-01-31T12:08:45Z</time><name>PT6334</name></trkpt>
<trkpt lat="53.196147" lon="-1.767352"><ele>261</ele><time>2020-01-31T12:08:46Z</time><name>PT6335</name></trkpt>
<trkpt lat="53.196145" lon="-1.767344"><ele>261</ele><time>2020-01-31T12:08:48Z</time><name>PT6336</name></trkpt>
<trkpt lat="53.196145" lon="-1.767337"><ele>261</ele><time>2020-01-31T12:08:48Z</time><name>PT6337</name></trkpt>
<trkpt lat="53.196147" lon="-1.767333"><ele>261</ele><time>2020-01-31T12:08:49Z</time><name>PT6338</name></trkpt>
<trkpt lat="53.196148" lon="-1.767324"><ele>261</ele><time>2020-01-31T12:08:51Z</time><name>PT6339</name></trkpt>
<trkpt lat="53.196148" lon="-1.767318"><ele>261</ele><time>2020-01-31T12:08:51Z</time><name>PT6340</name></trkpt>
<trkpt lat="53.196148" lon="-1.767317"><ele>261</ele><time>2020-01-31T12:08:52Z</time><name>PT6341</name></trkpt>
<trkpt lat="53.196145" lon="-1.767312"><ele>260</ele><time>2020-01-31T12:08:54Z</time><name>PT6342</name></trkpt>
<trkpt lat="53.196146" lon="-1.767314"><ele>259</ele><time>2020-01-31T12:08:54Z</time><name>PT6343</name></trkpt>
<trkpt lat="53.196151" lon="-1.767322"><ele>261</ele><time>2020-01-31T12:08:55Z</time><name>PT6344</name></trkpt>
<trkpt lat="53.196156" lon="-1.767322"><ele>261</ele><time>2020-01-31T12:08:57Z</time><name>PT6345</name></trkpt>
<trkpt lat="53.196158" lon="-1.767313"><ele>261</ele><time>2020-01-31T12:09:15Z</time><name>PT6346</name></trkpt>
<trkpt lat="53.196162" lon="-1.767303"><ele>261</ele><time>2020-01-31T12:09:16Z</time><name>PT6347</name></trkpt>
<trkpt lat="53.196167" lon="-1.767300"><ele>262</ele><time>2020-01-31T12:09:18Z</time><name>PT6348</name></trkpt>
<trkpt lat="53.196170" lon="-1.767296"><ele>262</ele><time>2020-01-31T12:09:18Z</time><name>PT6349</name></trkpt>
<trkpt lat="53.196173" lon="-1.767285"><ele>262</ele><time>2020-01-31T12:09:19Z</time><name>PT6350</name></trkpt>
<trkpt lat="53.196177" lon="-1.767276"><ele>262</ele><time>2020-01-31T12:09:21Z</time><name>PT6351</name></trkpt>
<trkpt lat="53.196181" lon="-1.767266"><ele>262</ele><time>2020-01-31T12:09:21Z</time><name>PT6352</name></trkpt>
<trkpt lat="53.196187" lon="-1.767257"><ele>262</ele><time>2020-01-31T12:09:22Z</time><name>PT6353</name></trkpt>
<trkpt lat="53.196192" lon="-1.767248"><ele>262</ele><time>2020-01-31T12:09:24Z</time><name>PT6354</name></trkpt>
<trkpt lat="53.196198" lon="-1.767238"><ele>262</ele><time>2020-01-31T12:09:24Z</time><name>PT6355</name></trkpt>
<trkpt lat="53.196207" lon="-1.767230"><ele>262</ele><time>2020-01-31T12:09:25Z</time><name>PT6356</name></trkpt>
<trkpt lat="53.196213" lon="-1.767222"><ele>262</ele><time>2020-01-31T12:09:27Z</time><name>PT6357</name></trkpt>
<trkpt lat="53.196220" lon="-1.767210"><ele>263</ele><time>2020-01-31T12:09:27Z</time><name>PT6358</name></trkpt>
<trkpt lat="53.196224" lon="-1.767198"><ele>263</ele><time>2020-01-31T12:09:28Z</time><name>PT6359</name></trkpt>
<trkpt lat="53.196230" lon="-1.767189"><ele>262</ele><time>2020-01-31T12:09:30Z</time><name>PT6360</name></trkpt>
<trkpt lat="53.196235" lon="-1.767179"><ele>262</ele><time>2020-01-31T12:09:30Z</time><name>PT6361</name></trkpt>
<trkpt lat="53.196241" lon="-1.767170"><ele>263</ele><time>2020-01-31T12:09:31Z</time><name>PT6362</name></trkpt>
<trkpt lat="53.196244" lon="-1.767161"><ele>263</ele><time>2020-01-31T12:09:33Z</time><name>PT6363</name></trkpt>
<trkpt lat="53.196249" lon="-1.767151"><ele>263</ele><time>2020-01-31T12:09:33Z</time><name>PT6364</name></trkpt>
<trkpt lat="53.196251" lon="-1.767147"><ele>263</ele><time>2020-01-31T12:09:34Z</time><name>PT6365</name></trkpt>
<trkpt lat="53.196258" lon="-1.767146"><ele>263</ele><time>2020-01-31T12:09:36Z</time><name>PT6366</name></trkpt>
<trkpt lat="53.196261" lon="-1.767146"><ele>264</ele><time>2020-01-31T12:09:36Z</time><name>PT6367</name></trkpt>
<trkpt lat="53.196259" lon="-1.767142"><ele>263</ele><time>2020-01-31T12:09:39Z</time><name>PT6368</name></trkpt>
<trkpt lat="53.196262" lon="-1.767137"><ele>264</ele><time>2020-01-31T12:09:39Z</time><name>PT6369</name></trkpt>
<trkpt lat="53.196264" lon="-1.767140"><ele>264</ele><time>2020-01-31T12:09:40Z</time><name>PT6370</name></trkpt>
<trkpt lat="53.196265" lon="-1.767140"><ele>264</ele><time>2020-01-31T12:09:42Z</time><name>PT6371</name></trkpt>
<trkpt lat="53.196268" lon="-1.767139"><ele>264</ele><time>2020-01-31T12:09:42Z</time><name>PT6372</name></trkpt>
<trkpt lat="53.196270" lon="-1.767139"><ele>265</ele><time>2020-01-31T12:09:45Z</time><name>PT6373</name></trkpt>
<trkpt lat="53.196273" lon="-1.767117"><ele>265</ele><time>2020-01-31T12:09:46Z</time><name>PT6374</name></trkpt>
<trkpt lat="53.196276" lon="-1.767103"><ele>265</ele><time>2020-01-31T12:09:48Z</time><name>PT6375</name></trkpt>
<trkpt lat="53.196277" lon="-1.767088"><ele>265</ele><time>2020-01-31T12:09:48Z</time><name>PT6376</name></trkpt>
<trkpt lat="53.196278" lon="-1.767082"><ele>265</ele><time>2020-01-31T12:09:49Z</time><name>PT6377</name></trkpt>
<trkpt lat="53.196283" lon="-1.767076"><ele>266</ele><time>2020-01-31T12:09:51Z</time><name>PT6378</name></trkpt>
<trkpt lat="53.196288" lon="-1.767061"><ele>266</ele><time>2020-01-31T12:09:51Z</time><name>PT6379</name></trkpt>
<trkpt lat="53.196291" lon="-1.767046"><ele>267</ele><time>2020-01-31T12:09:52Z</time><name>PT6380</name></trkpt>
<trkpt lat="53.196291" lon="-1.767039"><ele>267</ele><time>2020-01-31T12:09:54Z</time><name>PT6381</name></trkpt>
<trkpt lat="53.196296" lon="-1.767032"><ele>267</ele><time>2020-01-31T12:09:54Z</time><name>PT6382</name></trkpt>
<trkpt lat="53.196304" lon="-1.767027"><ele>267</ele><time>2020-01-31T12:09:55Z</time><name>PT6383</name></trkpt>
<trkpt lat="53.196305" lon="-1.767012"><ele>266</ele><time>2020-01-31T12:09:57Z</time><name>PT6384</name></trkpt>
<trkpt lat="53.196308" lon="-1.767002"><ele>266</ele><time>2020-01-31T12:09:57Z</time><name>PT6385</name></trkpt>
<trkpt lat="53.196312" lon="-1.766997"><ele>266</ele><time>2020-01-31T12:09:58Z</time><name>PT6386</name></trkpt>
<trkpt lat="53.196322" lon="-1.766992"><ele>267</ele><time>2020-01-31T12:10:00Z</time><name>PT6387</name></trkpt>
<trkpt lat="53.196331" lon="-1.766992"><ele>267</ele><time>2020-01-31T12:10:00Z</time><name>PT6388</name></trkpt>
<trkpt lat="53.196338" lon="-1.766996"><ele>267</ele><time>2020-01-31T12:10:01Z</time><name>PT6389</name></trkpt>
<trkpt lat="53.196346" lon="-1.766997"><ele>267</ele><time>2020-01-31T12:10:03Z</time><name>PT6390</name></trkpt>
<trkpt lat="53.196354" lon="-1.767001"><ele>267</ele><time>2020-01-31T12:10:03Z</time><name>PT6391</name></trkpt>
<trkpt lat="53.196364" lon="-1.766993"><ele>267</ele><time>2020-01-31T12:10:04Z</time><name>PT6392</name></trkpt>
<trkpt lat="53.196376" lon="-1.766999"><ele>267</ele><time>2020-01-31T12:10:06Z</time><name>PT6393</name></trkpt>
<trkpt lat="53.196379" lon="-1.767002"><ele>267</ele><time>2020-01-31T12:10:06Z</time><name>PT6394</name></trkpt>
<trkpt lat="53.196389" lon="-1.767004"><ele>267</ele><time>2020-01-31T12:10:07Z</time><name>PT6395</name></trkpt>
<trkpt lat="53.196401" lon="-1.767008"><ele>267</ele><time>2020-01-31T12:10:09Z</time><name>PT6396</name></trkpt>
<trkpt lat="53.196410" lon="-1.767010"><ele>267</ele><time>2020-01-31T12:10:09Z</time><name>PT6397</name></trkpt>
<trkpt lat="53.196421" lon="-1.767017"><ele>267</ele><time>2020-01-31T12:10:10Z</time><name>PT6398</name></trkpt>
<trkpt lat="53.196437" lon="-1.767025"><ele>268</ele><time>2020-01-31T12:10:12Z</time><name>PT6399</name></trkpt>
<trkpt lat="53.196451" lon="-1.767037"><ele>268</ele><time>2020-01-31T12:10:12Z</time><name>PT6400</name></trkpt>
<trkpt lat="53.196461" lon="-1.767046"><ele>268</ele><time>2020-01-31T12:10:13Z</time><name>PT6401</name></trkpt>
<trkpt lat="53.196472" lon="-1.767054"><ele>268</ele><time>2020-01-31T12:10:15Z</time><name>PT6402</name></trkpt>
<trkpt lat="53.196482" lon="-1.767061"><ele>268</ele><time>2020-01-31T12:10:15Z</time><name>PT6403</name></trkpt>
<trkpt lat="53.196487" lon="-1.767072"><ele>268</ele><time>2020-01-31T12:10:16Z</time><name>PT6404</name></trkpt>
<trkpt lat="53.196492" lon="-1.767084"><ele>268</ele><time>2020-01-31T12:10:18Z</time><name>PT6405</name></trkpt>
<trkpt lat="53.196500" lon="-1.767095"><ele>268</ele><time>2020-01-31T12:10:18Z</time><name>PT6406</name></trkpt>
<trkpt lat="53.196509" lon="-1.767103"><ele>268</ele><time>2020-01-31T12:10:19Z</time><name>PT6407</name></trkpt>
<trkpt lat="53.196517" lon="-1.767113"><ele>268</ele><time>2020-01-31T12:10:21Z</time><name>PT6408</name></trkpt>
<trkpt lat="53.196525" lon="-1.767126"><ele>268</ele><time>2020-01-31T12:10:21Z</time><name>PT6409</name></trkpt>
<trkpt lat="53.196535" lon="-1.767129"><ele>268</ele><time>2020-01-31T12:10:22Z</time><name>PT6410</name></trkpt>
<trkpt lat="53.196545" lon="-1.767139"><ele>268</ele><time>2020-01-31T12:10:24Z</time><name>PT6411</name></trkpt>
<trkpt lat="53.196551" lon="-1.767155"><ele>268</ele><time>2020-01-31T12:10:24Z</time><name>PT6412</name></trkpt>
<trkpt lat="53.196558" lon="-1.767170"><ele>268</ele><time>2020-01-31T12:10:25Z</time><name>PT6413</name></trkpt>
<trkpt lat="53.196565" lon="-1.767185"><ele>268</ele><time>2020-01-31T12:10:27Z</time><name>PT6414</name></trkpt>
<trkpt lat="53.196571" lon="-1.767199"><ele>268</ele><time>2020-01-31T12:10:27Z</time><name>PT6415</name></trkpt>
<trkpt lat="53.196575" lon="-1.767212"><ele>267</ele><time>2020-01-31T12:10:28Z</time><name>PT6416</name></trkpt>
<trkpt lat="53.196579" lon="-1.767229"><ele>267</ele><time>2020-01-31T12:10:30Z</time><name>PT6417</name></trkpt>
<trkpt lat="53.196583" lon="-1.767243"><ele>267</ele><time>2020-01-31T12:10:30Z</time><name>PT6418</name></trkpt>
<trkpt lat="53.196587" lon="-1.767257"><ele>267</ele><time>2020-01-31T12:10:31Z</time><name>PT6419</name></trkpt>
<trkpt lat="53.196594" lon="-1.767272"><ele>267</ele><time>2020-01-31T12:10:33Z</time><name>PT6420</name></trkpt>
<trkpt lat="53.196598" lon="-1.767286"><ele>267</ele><time>2020-01-31T12:10:33Z</time><name>PT6421</name></trkpt>
<trkpt lat="53.196600" lon="-1.767302"><ele>266</ele><time>2020-01-31T12:10:34Z</time><name>PT6422</name></trkpt>
<trkpt lat="53.196602" lon="-1.767322"><ele>266</ele><time>2020-01-31T12:10:36Z</time><name>PT6423</name></trkpt>
<trkpt lat="53.196607" lon="-1.767343"><ele>266</ele><time>2020-01-31T12:10:36Z</time><name>PT6424</name></trkpt>
<trkpt lat="53.196611" lon="-1.767360"><ele>266</ele><time>2020-01-31T12:10:37Z</time><name>PT6425</name></trkpt>
<trkpt lat="53.196614" lon="-1.767379"><ele>266</ele><time>2020-01-31T12:10:39Z</time><name>PT6426</name></trkpt>
<trkpt lat="53.196616" lon="-1.767400"><ele>266</ele><time>2020-01-31T12:10:39Z</time><name>PT6427</name></trkpt>
<trkpt lat="53.196620" lon="-1.767419"><ele>266</ele><time>2020-01-31T12:10:40Z</time><name>PT6428</name></trkpt>
<trkpt lat="53.196624" lon="-1.767436"><ele>266</ele><time>2020-01-31T12:10:42Z</time><name>PT6429</name></trkpt>
<trkpt lat="53.196627" lon="-1.767453"><ele>266</ele><time>2020-01-31T12:10:42Z</time><name>PT6430</name></trkpt>
<trkpt lat="53.196630" lon="-1.767471"><ele>265</ele><time>2020-01-31T12:10:43Z</time><name>PT6431</name></trkpt>
<trkpt lat="53.196634" lon="-1.767486"><ele>265</ele><time>2020-01-31T12:10:45Z</time><name>PT6432</name></trkpt>
<trkpt lat="53.196639" lon="-1.767502"><ele>265</ele><time>2020-01-31T12:10:45Z</time><name>PT6433</name></trkpt>
<trkpt lat="53.196646" lon="-1.767519"><ele>265</ele><time>2020-01-31T12:10:46Z</time><name>PT6434</name></trkpt>
<trkpt lat="53.196653" lon="-1.767535"><ele>265</ele><time>2020-01-31T12:10:48Z</time><name>PT6435</name></trkpt>
<trkpt lat="53.196660" lon="-1.767551"><ele>265</ele><time>2020-01-31T12:10:48Z</time><name>PT6436</name></trkpt>
<trkpt lat="53.196669" lon="-1.767564"><ele>265</ele><time>2020-01-31T12:10:49Z</time><name>PT6437</name></trkpt>
<trkpt lat="53.196676" lon="-1.767579"><ele>264</ele><time>2020-01-31T12:10:51Z</time><name>PT6438</name></trkpt>
<trkpt lat="53.196683" lon="-1.767594"><ele>264</ele><time>2020-01-31T12:10:51Z</time><name>PT6439</name></trkpt>
<trkpt lat="53.196689" lon="-1.767609"><ele>264</ele><time>2020-01-31T12:10:52Z</time><name>PT6440</name></trkpt>
<trkpt lat="53.196695" lon="-1.767626"><ele>264</ele><time>2020-01-31T12:10:54Z</time><name>PT6441</name></trkpt>
<trkpt lat="53.196701" lon="-1.767643"><ele>264</ele><time>2020-01-31T12:10:54Z</time><name>PT6442</name></trkpt>
<trkpt lat="53.196706" lon="-1.767662"><ele>264</ele><time>2020-01-31T12:10:55Z</time><name>PT6443</name></trkpt>
<trkpt lat="53.196711" lon="-1.767680"><ele>264</ele><time>2020-01-31T12:10:57Z</time><name>PT6444</name></trkpt>
<trkpt lat="53.196716" lon="-1.767697"><ele>264</ele><time>2020-01-31T12:10:57Z</time><name>PT6445</name></trkpt>
<trkpt lat="53.196721" lon="-1.767714"><ele>264</ele><time>2020-01-31T12:10:58Z</time><name>PT6446</name></trkpt>
<trkpt lat="53.196724" lon="-1.767734"><ele>263</ele><time>2020-01-31T12:11:00Z</time><name>PT6447</name></trkpt>
<trkpt lat="53.196723" lon="-1.767753"><ele>263</ele><time>2020-01-31T12:11:00Z</time><name>PT6448</name></trkpt>
<trkpt lat="53.196722" lon="-1.767770"><ele>263</ele><time>2020-01-31T12:11:01Z</time><name>PT6449</name></trkpt>
<trkpt lat="53.196720" lon="-1.767788"><ele>263</ele><time>2020-01-31T12:11:03Z</time><name>PT6450</name></trkpt>
<trkpt lat="53.196719" lon="-1.767806"><ele>262</ele><time>2020-01-31T12:11:03Z</time><name>PT6451</name></trkpt>
<trkpt lat="53.196720" lon="-1.767823"><ele>262</ele><time>2020-01-31T12:11:05Z</time><name>PT6452</name></trkpt>
<trkpt lat="53.196720" lon="-1.767835"><ele>262</ele><time>2020-01-31T12:11:06Z</time><name>PT6453</name></trkpt>
<trkpt lat="53.196717" lon="-1.767847"><ele>262</ele><time>2020-01-31T12:11:06Z</time><name>PT6454</name></trkpt>
<trkpt lat="53.196716" lon="-1.767862"><ele>262</ele><time>2020-01-31T12:11:07Z</time><name>PT6455</name></trkpt>
<trkpt lat="53.196714" lon="-1.767873"><ele>261</ele><time>2020-01-31T12:11:09Z</time><name>PT6456</name></trkpt>
<trkpt lat="53.196713" lon="-1.767884"><ele>261</ele><time>2020-01-31T12:11:09Z</time><name>PT6457</name></trkpt>
<trkpt lat="53.196711" lon="-1.767899"><ele>260</ele><time>2020-01-31T12:11:10Z</time><name>PT6458</name></trkpt>
<trkpt lat="53.196709" lon="-1.767915"><ele>260</ele><time>2020-01-31T12:11:12Z</time><name>PT6459</name></trkpt>
<trkpt lat="53.196709" lon="-1.767932"><ele>259</ele><time>2020-01-31T12:11:12Z</time><name>PT6460</name></trkpt>
<trkpt lat="53.196711" lon="-1.767947"><ele>259</ele><time>2020-01-31T12:11:13Z</time><name>PT6461</name></trkpt>
<trkpt lat="53.196713" lon="-1.767958"><ele>259</ele><time>2020-01-31T12:11:15Z</time><name>PT6462</name></trkpt>
<trkpt lat="53.196713" lon="-1.767968"><ele>258</ele><time>2020-01-31T12:11:15Z</time><name>PT6463</name></trkpt>
<trkpt lat="53.196714" lon="-1.767980"><ele>258</ele><time>2020-01-31T12:11:16Z</time><name>PT6464</name></trkpt>
<trkpt lat="53.196713" lon="-1.767993"><ele>258</ele><time>2020-01-31T12:11:18Z</time><name>PT6465</name></trkpt>
<trkpt lat="53.196713" lon="-1.768005"><ele>258</ele><time>2020-01-31T12:11:18Z</time><name>PT6466</name></trkpt>
<trkpt lat="53.196718" lon="-1.768019"><ele>257</ele><time>2020-01-31T12:11:19Z</time><name>PT6467</name></trkpt>
<trkpt lat="53.196723" lon="-1.768036"><ele>257</ele><time>2020-01-31T12:11:21Z</time><name>PT6468</name></trkpt>
<trkpt lat="53.196729" lon="-1.768051"><ele>257</ele><time>2020-01-31T12:11:21Z</time><name>PT6469</name></trkpt>
<trkpt lat="53.196734" lon="-1.768065"><ele>257</ele><time>2020-01-31T12:11:22Z</time><name>PT6470</name></trkpt>
<trkpt lat="53.196737" lon="-1.768078"><ele>257</ele><time>2020-01-31T12:11:24Z</time><name>PT6471</name></trkpt>
<trkpt lat="53.196740" lon="-1.768087"><ele>256</ele><time>2020-01-31T12:11:24Z</time><name>PT6472</name></trkpt>
<trkpt lat="53.196747" lon="-1.768094"><ele>256</ele><time>2020-01-31T12:11:25Z</time><name>PT6473</name></trkpt>
<trkpt lat="53.196755" lon="-1.768105"><ele>256</ele><time>2020-01-31T12:11:27Z</time><name>PT6474</name></trkpt>
<trkpt lat="53.196762" lon="-1.768115"><ele>255</ele><time>2020-01-31T12:11:27Z</time><name>PT6475</name></trkpt>
<trkpt lat="53.196767" lon="-1.768123"><ele>255</ele><time>2020-01-31T12:11:28Z</time><name>PT6476</name></trkpt>
<trkpt lat="53.196771" lon="-1.768136"><ele>255</ele><time>2020-01-31T12:11:30Z</time><name>PT6477</name></trkpt>
<trkpt lat="53.196775" lon="-1.768149"><ele>254</ele><time>2020-01-31T12:11:30Z</time><name>PT6478</name></trkpt>
<trkpt lat="53.196776" lon="-1.768164"><ele>253</ele><time>2020-01-31T12:11:31Z</time><name>PT6479</name></trkpt>
<trkpt lat="53.196782" lon="-1.768185"><ele>253</ele><time>2020-01-31T12:11:33Z</time><name>PT6480</name></trkpt>
<trkpt lat="53.196787" lon="-1.768201"><ele>253</ele><time>2020-01-31T12:11:33Z</time><name>PT6481</name></trkpt>
<trkpt lat="53.196795" lon="-1.768217"><ele>253</ele><time>2020-01-31T12:11:34Z</time><name>PT6482</name></trkpt>
<trkpt lat="53.196801" lon="-1.768229"><ele>253</ele><time>2020-01-31T12:11:36Z</time><name>PT6483</name></trkpt>
<trkpt lat="53.196807" lon="-1.768241"><ele>252</ele><time>2020-01-31T12:11:36Z</time><name>PT6484</name></trkpt>
<trkpt lat="53.196815" lon="-1.768256"><ele>252</ele><time>2020-01-31T12:11:37Z</time><name>PT6485</name></trkpt>
<trkpt lat="53.196823" lon="-1.768276"><ele>251</ele><time>2020-01-31T12:11:39Z</time><name>PT6486</name></trkpt>
<trkpt lat="53.196830" lon="-1.768290"><ele>251</ele><time>2020-01-31T12:11:39Z</time><name>PT6487</name></trkpt>
<trkpt lat="53.196838" lon="-1.768305"><ele>251</ele><time>2020-01-31T12:11:40Z</time><name>PT6488</name></trkpt>
<trkpt lat="53.196847" lon="-1.768323"><ele>251</ele><time>2020-01-31T12:11:42Z</time><name>PT6489</name></trkpt>
<trkpt lat="53.196854" lon="-1.768341"><ele>251</ele><time>2020-01-31T12:11:42Z</time><name>PT6490</name></trkpt>
<trkpt lat="53.196860" lon="-1.768359"><ele>251</ele><time>2020-01-31T12:11:43Z</time><name>PT6491</name></trkpt>
<trkpt lat="53.196866" lon="-1.768377"><ele>251</ele><time>2020-01-31T12:11:45Z</time><name>PT6492</name></trkpt>
<trkpt lat="53.196868" lon="-1.768397"><ele>251</ele><time>2020-01-31T12:11:45Z</time><name>PT6493</name></trkpt>
<trkpt lat="53.196868" lon="-1.768415"><ele>250</ele><time>2020-01-31T12:11:46Z</time><name>PT6494</name></trkpt>
<trkpt lat="53.196870" lon="-1.768434"><ele>250</ele><time>2020-01-31T12:11:48Z</time><name>PT6495</name></trkpt>
<trkpt lat="53.196869" lon="-1.768461"><ele>249</ele><time>2020-01-31T12:11:48Z</time><name>PT6496</name></trkpt>
<trkpt lat="53.196872" lon="-1.768488"><ele>249</ele><time>2020-01-31T12:11:49Z</time><name>PT6497</name></trkpt>
<trkpt lat="53.196873" lon="-1.768504"><ele>249</ele><time>2020-01-31T12:11:51Z</time><name>PT6498</name></trkpt>
<trkpt lat="53.196873" lon="-1.768521"><ele>249</ele><time>2020-01-31T12:11:51Z</time><name>PT6499</name></trkpt>
<trkpt lat="53.196874" lon="-1.768542"><ele>249</ele><time>2020-01-31T12:11:52Z</time><name>PT6500</name></trkpt>
<trkpt lat="53.196875" lon="-1.768565"><ele>249</ele><time>2020-01-31T12:11:54Z</time><name>PT6501</name></trkpt>
<trkpt lat="53.196874" lon="-1.768583"><ele>248</ele><time>2020-01-31T12:11:54Z</time><name>PT6502</name></trkpt>
<trkpt lat="53.196870" lon="-1.768600"><ele>248</ele><time>2020-01-31T12:11:55Z</time><name>PT6503</name></trkpt>
<trkpt lat="53.196868" lon="-1.768620"><ele>248</ele><time>2020-01-31T12:11:57Z</time><name>PT6504</name></trkpt>
<trkpt lat="53.196867" lon="-1.768639"><ele>248</ele><time>2020-01-31T12:11:57Z</time><name>PT6505</name></trkpt>
<trkpt lat="53.196864" lon="-1.768652"><ele>247</ele><time>2020-01-31T12:11:58Z</time><name>PT6506</name></trkpt>
<trkpt lat="53.196862" lon="-1.768670"><ele>248</ele><time>2020-01-31T12:12:00Z</time><name>PT6507</name></trkpt>
<trkpt lat="53.196858" lon="-1.768691"><ele>248</ele><time>2020-01-31T12:12:00Z</time><name>PT6508</name></trkpt>
<trkpt lat="53.196857" lon="-1.768712"><ele>249</ele><time>2020-01-31T12:12:01Z</time><name>PT6509</name></trkpt>
<trkpt lat="53.196855" lon="-1.768723"><ele>248</ele><time>2020-01-31T12:12:03Z</time><name>PT6510</name></trkpt>
<trkpt lat="53.196856" lon="-1.768738"><ele>248</ele><time>2020-01-31T12:12:03Z</time><name>PT6511</name></trkpt>
<trkpt lat="53.196858" lon="-1.768751"><ele>248</ele><time>2020-01-31T12:12:04Z</time><name>PT6512</name></trkpt>
<trkpt lat="53.196861" lon="-1.768761"><ele>249</ele><time>2020-01-31T12:12:06Z</time><name>PT6513</name></trkpt>
<trkpt lat="53.196864" lon="-1.768766"><ele>248</ele><time>2020-01-31T12:12:06Z</time><name>PT6514</name></trkpt>
<trkpt lat="53.196869" lon="-1.768774"><ele>248</ele><time>2020-01-31T12:12:07Z</time><name>PT6515</name></trkpt>
<trkpt lat="53.196874" lon="-1.768781"><ele>248</ele><time>2020-01-31T12:12:09Z</time><name>PT6516</name></trkpt>
<trkpt lat="53.196875" lon="-1.768782"><ele>248</ele><time>2020-01-31T12:12:09Z</time><name>PT6517</name></trkpt>
<trkpt lat="53.196875" lon="-1.768782"><ele>248</ele><time>2020-01-31T12:12:10Z</time><name>PT6518</name></trkpt>
<trkpt lat="53.196876" lon="-1.768785"><ele>248</ele><time>2020-01-31T12:12:12Z</time><name>PT6519</name></trkpt>
<trkpt lat="53.196875" lon="-1.768790"><ele>248</ele><time>2020-01-31T12:12:15Z</time><name>PT6520</name></trkpt>
<trkpt lat="53.196875" lon="-1.768794"><ele>248</ele><time>2020-01-31T12:12:16Z</time><name>PT6521</name></trkpt>
<trkpt lat="53.196877" lon="-1.768796"><ele>248</ele><time>2020-01-31T12:12:18Z</time><name>PT6522</name></trkpt>
<trkpt lat="53.196878" lon="-1.768798"><ele>248</ele><time>2020-01-31T12:12:18Z</time><name>PT6523</name></trkpt>
<trkpt lat="53.196877" lon="-1.768805"><ele>248</ele><time>2020-01-31T12:12:19Z</time><name>PT6524</name></trkpt>
<trkpt lat="53.196878" lon="-1.768808"><ele>248</ele><time>2020-01-31T12:12:27Z</time><name>PT6525</name></trkpt>
<trkpt lat="53.196881" lon="-1.768810"><ele>248</ele><time>2020-01-31T12:12:28Z</time><name>PT6526</name></trkpt>
<trkpt lat="53.196879" lon="-1.768816"><ele>248</ele><time>2020-01-31T12:12:33Z</time><name>PT6527</name></trkpt>
<trkpt lat="53.196884" lon="-1.768823"><ele>248</ele><time>2020-01-31T12:12:34Z</time><name>PT6528</name></trkpt>
<trkpt lat="53.196893" lon="-1.768829"><ele>248</ele><time>2020-01-31T12:12:36Z</time><name>PT6529</name></trkpt>
<trkpt lat="53.196894" lon="-1.768841"><ele>249</ele><time>2020-01-31T12:12:36Z</time><name>PT6530</name></trkpt>
<trkpt lat="53.196902" lon="-1.768855"><ele>249</ele><time>2020-01-31T12:12:37Z</time><name>PT6531</name></trkpt>
<trkpt lat="53.196911" lon="-1.768872"><ele>249</ele><time>2020-01-31T12:12:39Z</time><name>PT6532</name></trkpt>
<trkpt lat="53.196920" lon="-1.768887"><ele>249</ele><time>2020-01-31T12:12:39Z</time><name>PT6533</name></trkpt>
<trkpt lat="53.196930" lon="-1.768904"><ele>249</ele><time>2020-01-31T12:12:40Z</time><name>PT6534</name></trkpt>
<trkpt lat="53.196941" lon="-1.768911"><ele>249</ele><time>2020-01-31T12:12:42Z</time><name>PT6535</name></trkpt>
<trkpt lat="53.196951" lon="-1.768918"><ele>249</ele><time>2020-01-31T12:12:42Z</time><name>PT6536</name></trkpt>
<trkpt lat="53.196961" lon="-1.768931"><ele>249</ele><time>2020-01-31T12:12:43Z</time><name>PT6537</name></trkpt>
<trkpt lat="53.196967" lon="-1.768944"><ele>249</ele><time>2020-01-31T12:12:45Z</time><name>PT6538</name></trkpt>
<trkpt lat="53.196973" lon="-1.768965"><ele>249</ele><time>2020-01-31T12:12:45Z</time><name>PT6539</name></trkpt>
<trkpt lat="53.196981" lon="-1.768981"><ele>249</ele><time>2020-01-31T12:12:46Z</time><name>PT6540</name></trkpt>
<trkpt lat="53.196988" lon="-1.768993"><ele>249</ele><time>2020-01-31T12:12:48Z</time><name>PT6541</name></trkpt>
<trkpt lat="53.197000" lon="-1.769008"><ele>249</ele><time>2020-01-31T12:12:48Z</time><name>PT6542</name></trkpt>
<trkpt lat="53.197010" lon="-1.769019"><ele>249</ele><time>2020-01-31T12:12:49Z</time><name>PT6543</name></trkpt>
<trkpt lat="53.197018" lon="-1.769029"><ele>249</ele><time>2020-01-31T12:12:51Z</time><name>PT6544</name></trkpt>
<trkpt lat="53.197028" lon="-1.769041"><ele>249</ele><time>2020-01-31T12:12:51Z</time><name>PT6545</name></trkpt>
<trkpt lat="53.197040" lon="-1.769060"><ele>250</ele><time>2020-01-31T12:12:52Z</time><name>PT6546</name></trkpt>
<trkpt lat="53.197050" lon="-1.769075"><ele>250</ele><time>2020-01-31T12:12:54Z</time><name>PT6547</name></trkpt>
<trkpt lat="53.197060" lon="-1.769087"><ele>250</ele><time>2020-01-31T12:12:54Z</time><name>PT6548</name></trkpt>
<trkpt lat="53.197067" lon="-1.769099"><ele>250</ele><time>2020-01-31T12:12:55Z</time><name>PT6549</name></trkpt>
<trkpt lat="53.197075" lon="-1.769114"><ele>251</ele><time>2020-01-31T12:12:57Z</time><name>PT6550</name></trkpt>
<trkpt lat="53.197082" lon="-1.769129"><ele>251</ele><time>2020-01-31T12:12:57Z</time><name>PT6551</name></trkpt>
<trkpt lat="53.197089" lon="-1.769143"><ele>251</ele><time>2020-01-31T12:12:58Z</time><name>PT6552</name></trkpt>
<trkpt lat="53.197099" lon="-1.769159"><ele>251</ele><time>2020-01-31T12:13:00Z</time><name>PT6553</name></trkpt>
<trkpt lat="53.197109" lon="-1.769177"><ele>251</ele><time>2020-01-31T12:13:00Z</time><name>PT6554</name></trkpt>
<trkpt lat="53.197117" lon="-1.769194"><ele>251</ele><time>2020-01-31T12:13:01Z</time><name>PT6555</name></trkpt>
<trkpt lat="53.197124" lon="-1.769207"><ele>251</ele><time>2020-01-31T12:13:03Z</time><name>PT6556</name></trkpt>
<trkpt lat="53.197132" lon="-1.769221"><ele>251</ele><time>2020-01-31T12:13:03Z</time><name>PT6557</name></trkpt>
<trkpt lat="53.197142" lon="-1.769234"><ele>251</ele><time>2020-01-31T12:13:04Z</time><name>PT6558</name></trkpt>
<trkpt lat="53.197154" lon="-1.769252"><ele>251</ele><time>2020-01-31T12:13:06Z</time><name>PT6559</name></trkpt>
<trkpt lat="53.197162" lon="-1.769269"><ele>251</ele><time>2020-01-31T12:13:06Z</time><name>PT6560</name></trkpt>
<trkpt lat="53.197169" lon="-1.769286"><ele>251</ele><time>2020-01-31T12:13:08Z</time><name>PT6561</name></trkpt>
<trkpt lat="53.197176" lon="-1.769306"><ele>252</ele><time>2020-01-31T12:13:09Z</time><name>PT6562</name></trkpt>
<trkpt lat="53.197183" lon="-1.769324"><ele>252</ele><time>2020-01-31T12:13:09Z</time><name>PT6563</name></trkpt>
<trkpt lat="53.197191" lon="-1.769339"><ele>252</ele><time>2020-01-31T12:13:10Z</time><name>PT6564</name></trkpt>
<trkpt lat="53.197200" lon="-1.769356"><ele>252</ele><time>2020-01-31T12:13:12Z</time><name>PT6565</name></trkpt>
<trkpt lat="53.197208" lon="-1.769370"><ele>252</ele><time>2020-01-31T12:13:12Z</time><name>PT6566</name></trkpt>
<trkpt lat="53.197213" lon="-1.769385"><ele>252</ele><time>2020-01-31T12:13:14Z</time><name>PT6567</name></trkpt>
<trkpt lat="53.197220" lon="-1.769401"><ele>252</ele><time>2020-01-31T12:13:15Z</time><name>PT6568</name></trkpt>
<trkpt lat="53.197228" lon="-1.769419"><ele>252</ele><time>2020-01-31T12:13:15Z</time><name>PT6569</name></trkpt>
<trkpt lat="53.197237" lon="-1.769432"><ele>252</ele><time>2020-01-31T12:13:16Z</time><name>PT6570</name></trkpt>
<trkpt lat="53.197247" lon="-1.769445"><ele>252</ele><time>2020-01-31T12:13:18Z</time><name>PT6571</name></trkpt>
<trkpt lat="53.197255" lon="-1.769457"><ele>252</ele><time>2020-01-31T12:13:18Z</time><name>PT6572</name></trkpt>
<trkpt lat="53.197264" lon="-1.769474"><ele>252</ele><time>2020-01-31T12:13:19Z</time><name>PT6573</name></trkpt>
<trkpt lat="53.197276" lon="-1.769487"><ele>253</ele><time>2020-01-31T12:13:21Z</time><name>PT6574</name></trkpt>
<trkpt lat="53.197286" lon="-1.769494"><ele>253</ele><time>2020-01-31T12:13:21Z</time><name>PT6575</name></trkpt>
<trkpt lat="53.197297" lon="-1.769505"><ele>253</ele><time>2020-01-31T12:13:22Z</time><name>PT6576</name></trkpt>
<trkpt lat="53.197306" lon="-1.769518"><ele>253</ele><time>2020-01-31T12:13:24Z</time><name>PT6577</name></trkpt>
<trkpt lat="53.197312" lon="-1.769530"><ele>254</ele><time>2020-01-31T12:13:24Z</time><name>PT6578</name></trkpt>
<trkpt lat="53.197317" lon="-1.769545"><ele>253</ele><time>2020-01-31T12:13:25Z</time><name>PT6579</name></trkpt>
<trkpt lat="53.197326" lon="-1.769561"><ele>253</ele><time>2020-01-31T12:13:27Z</time><name>PT6580</name></trkpt>
<trkpt lat="53.197334" lon="-1.769573"><ele>253</ele><time>2020-01-31T12:13:27Z</time><name>PT6581</name></trkpt>
<trkpt lat="53.197342" lon="-1.769587"><ele>253</ele><time>2020-01-31T12:13:28Z</time><name>PT6582</name></trkpt>
<trkpt lat="53.197350" lon="-1.769601"><ele>253</ele><time>2020-01-31T12:13:30Z</time><name>PT6583</name></trkpt>
<trkpt lat="53.197358" lon="-1.769617"><ele>254</ele><time>2020-01-31T12:13:30Z</time><name>PT6584</name></trkpt>
<trkpt lat="53.197365" lon="-1.769626"><ele>254</ele><time>2020-01-31T12:13:31Z</time><name>PT6585</name></trkpt>
<trkpt lat="53.197373" lon="-1.769635"><ele>253</ele><time>2020-01-31T12:13:33Z</time><name>PT6586</name></trkpt>
<trkpt lat="53.197379" lon="-1.769649"><ele>253</ele><time>2020-01-31T12:13:33Z</time><name>PT6587</name></trkpt>
<trkpt lat="53.197385" lon="-1.769664"><ele>253</ele><time>2020-01-31T12:13:34Z</time><name>PT6588</name></trkpt>
<trkpt lat="53.197394" lon="-1.769674"><ele>253</ele><time>2020-01-31T12:13:36Z</time><name>PT6589</name></trkpt>
<trkpt lat="53.197403" lon="-1.769680"><ele>254</ele><time>2020-01-31T12:13:36Z</time><name>PT6590</name></trkpt>
<trkpt lat="53.197412" lon="-1.769689"><ele>253</ele><time>2020-01-31T12:13:37Z</time><name>PT6591</name></trkpt>
<trkpt lat="53.197420" lon="-1.769698"><ele>253</ele><time>2020-01-31T12:13:39Z</time><name>PT6592</name></trkpt>
<trkpt lat="53.197423" lon="-1.769705"><ele>253</ele><time>2020-01-31T12:13:39Z</time><name>PT6593</name></trkpt>
<trkpt lat="53.197425" lon="-1.769709"><ele>253</ele><time>2020-01-31T12:13:40Z</time><name>PT6594</name></trkpt>
<trkpt lat="53.197427" lon="-1.769710"><ele>253</ele><time>2020-01-31T12:13:42Z</time><name>PT6595</name></trkpt>
<trkpt lat="53.197430" lon="-1.769714"><ele>253</ele><time>2020-01-31T12:13:42Z</time><name>PT6596</name></trkpt>
<trkpt lat="53.197430" lon="-1.769722"><ele>253</ele><time>2020-01-31T12:13:43Z</time><name>PT6597</name></trkpt>
<trkpt lat="53.197433" lon="-1.769729"><ele>253</ele><time>2020-01-31T12:13:45Z</time><name>PT6598</name></trkpt>
<trkpt lat="53.197431" lon="-1.769734"><ele>253</ele><time>2020-01-31T12:13:45Z</time><name>PT6599</name></trkpt>
<trkpt lat="53.197430" lon="-1.769739"><ele>253</ele><time>2020-01-31T12:13:46Z</time><name>PT6600</name></trkpt>
<trkpt lat="53.197435" lon="-1.769761"><ele>252</ele><time>2020-01-31T12:13:48Z</time><name>PT6601</name></trkpt>
<trkpt lat="53.197439" lon="-1.769784"><ele>252</ele><time>2020-01-31T12:13:48Z</time><name>PT6602</name></trkpt>
<trkpt lat="53.197446" lon="-1.769802"><ele>252</ele><time>2020-01-31T12:13:49Z</time><name>PT6603</name></trkpt>
<trkpt lat="53.197450" lon="-1.769817"><ele>252</ele><time>2020-01-31T12:13:51Z</time><name>PT6604</name></trkpt>
<trkpt lat="53.197454" lon="-1.769836"><ele>252</ele><time>2020-01-31T12:13:51Z</time><name>PT6605</name></trkpt>
<trkpt lat="53.197451" lon="-1.769852"><ele>251</ele><time>2020-01-31T12:13:52Z</time><name>PT6606</name></trkpt>
<trkpt lat="53.197456" lon="-1.769870"><ele>252</ele><time>2020-01-31T12:13:54Z</time><name>PT6607</name></trkpt>
<trkpt lat="53.197458" lon="-1.769890"><ele>252</ele><time>2020-01-31T12:13:54Z</time><name>PT6608</name></trkpt>
<trkpt lat="53.197464" lon="-1.769904"><ele>252</ele><time>2020-01-31T12:13:55Z</time><name>PT6609</name></trkpt>
<trkpt lat="53.197466" lon="-1.769931"><ele>252</ele><time>2020-01-31T12:13:57Z</time><name>PT6610</name></trkpt>
<trkpt lat="53.197469" lon="-1.769958"><ele>253</ele><time>2020-01-31T12:13:57Z</time><name>PT6611</name></trkpt>
<trkpt lat="53.197466" lon="-1.769976"><ele>253</ele><time>2020-01-31T12:13:58Z</time><name>PT6612</name></trkpt>
<trkpt lat="53.197470" lon="-1.769996"><ele>253</ele><time>2020-01-31T12:14:00Z</time><name>PT6613</name></trkpt>
<trkpt lat="53.197477" lon="-1.770017"><ele>254</ele><time>2020-01-31T12:14:00Z</time><name>PT6614</name></trkpt>
<trkpt lat="53.197481" lon="-1.770035"><ele>254</ele><time>2020-01-31T12:14:01Z</time><name>PT6615</name></trkpt>
<trkpt lat="53.197484" lon="-1.770053"><ele>254</ele><time>2020-01-31T12:14:03Z</time><name>PT6616</name></trkpt>
<trkpt lat="53.197488" lon="-1.770068"><ele>254</ele><time>2020-01-31T12:14:03Z</time><name>PT6617</name></trkpt>
<trkpt lat="53.197492" lon="-1.770083"><ele>254</ele><time>2020-01-31T12:14:04Z</time><name>PT6618</name></trkpt>
<trkpt lat="53.197498" lon="-1.770098"><ele>254</ele><time>2020-01-31T12:14:06Z</time><name>PT6619</name></trkpt>
<trkpt lat="53.197502" lon="-1.770116"><ele>254</ele><time>2020-01-31T12:14:06Z</time><name>PT6620</name></trkpt>
<trkpt lat="53.197507" lon="-1.770134"><ele>254</ele><time>2020-01-31T12:14:07Z</time><name>PT6621</name></trkpt>
<trkpt lat="53.197509" lon="-1.770148"><ele>254</ele><time>2020-01-31T12:14:09Z</time><name>PT6622</name></trkpt>
<trkpt lat="53.197511" lon="-1.770159"><ele>254</ele><time>2020-01-31T12:14:09Z</time><name>PT6623</name></trkpt>
<trkpt lat="53.197514" lon="-1.770173"><ele>254</ele><time>2020-01-31T12:14:10Z</time><name>PT6624</name></trkpt>
<trkpt lat="53.197517" lon="-1.770190"><ele>254</ele><time>2020-01-31T12:14:12Z</time><name>PT6625</name></trkpt>
<trkpt lat="53.197519" lon="-1.770207"><ele>254</ele><time>2020-01-31T12:14:12Z</time><name>PT6626</name></trkpt>
<trkpt lat="53.197520" lon="-1.770225"><ele>254</ele><time>2020-01-31T12:14:13Z</time><name>PT6627</name></trkpt>
<trkpt lat="53.197522" lon="-1.770241"><ele>255</ele><time>2020-01-31T12:14:15Z</time><name>PT6628</name></trkpt>
<trkpt lat="53.197528" lon="-1.770254"><ele>255</ele><time>2020-01-31T12:14:15Z</time><name>PT6629</name></trkpt>
<trkpt lat="53.197533" lon="-1.770271"><ele>254</ele><time>2020-01-31T12:14:16Z</time><name>PT6630</name></trkpt>
<trkpt lat="53.197538" lon="-1.770286"><ele>254</ele><time>2020-01-31T12:14:18Z</time><name>PT6631</name></trkpt>
<trkpt lat="53.197541" lon="-1.770301"><ele>254</ele><time>2020-01-31T12:14:18Z</time><name>PT6632</name></trkpt>
<trkpt lat="53.197548" lon="-1.770321"><ele>255</ele><time>2020-01-31T12:14:19Z</time><name>PT6633</name></trkpt>
<trkpt lat="53.197553" lon="-1.770337"><ele>255</ele><time>2020-01-31T12:14:21Z</time><name>PT6634</name></trkpt>
<trkpt lat="53.197557" lon="-1.770353"><ele>255</ele><time>2020-01-31T12:14:21Z</time><name>PT6635</name></trkpt>
<trkpt lat="53.197564" lon="-1.770369"><ele>255</ele><time>2020-01-31T12:14:22Z</time><name>PT6636</name></trkpt>
<trkpt lat="53.197568" lon="-1.770379"><ele>255</ele><time>2020-01-31T12:14:24Z</time><name>PT6637</name></trkpt>
<trkpt lat="53.197572" lon="-1.770393"><ele>255</ele><time>2020-01-31T12:14:24Z</time><name>PT6638</name></trkpt>
<trkpt lat="53.197576" lon="-1.770413"><ele>255</ele><time>2020-01-31T12:14:25Z</time><name>PT6639</name></trkpt>
<trkpt lat="53.197580" lon="-1.770431"><ele>254</ele><time>2020-01-31T12:14:27Z</time><name>PT6640</name></trkpt>
<trkpt lat="53.197586" lon="-1.770451"><ele>255</ele><time>2020-01-31T12:14:27Z</time><name>PT6641</name></trkpt>
<trkpt lat="53.197590" lon="-1.770470"><ele>255</ele><time>2020-01-31T12:14:28Z</time><name>PT6642</name></trkpt>
<trkpt lat="53.197593" lon="-1.770485"><ele>255</ele><time>2020-01-31T12:14:30Z</time><name>PT6643</name></trkpt>
<trkpt lat="53.197595" lon="-1.770501"><ele>255</ele><time>2020-01-31T12:14:30Z</time><name>PT6644</name></trkpt>
<trkpt lat="53.197593" lon="-1.770526"><ele>254</ele><time>2020-01-31T12:14:31Z</time><name>PT6645</name></trkpt>
<trkpt lat="53.197597" lon="-1.770543"><ele>254</ele><time>2020-01-31T12:14:33Z</time><name>PT6646</name></trkpt>
<trkpt lat="53.197601" lon="-1.770555"><ele>253</ele><time>2020-01-31T12:14:33Z</time><name>PT6647</name></trkpt>
<trkpt lat="53.197607" lon="-1.770562"><ele>253</ele><time>2020-01-31T12:14:34Z</time><name>PT6648</name></trkpt>
<trkpt lat="53.197612" lon="-1.770575"><ele>253</ele><time>2020-01-31T12:14:36Z</time><name>PT6649</name></trkpt>
<trkpt lat="53.197613" lon="-1.770587"><ele>252</ele><time>2020-01-31T12:14:36Z</time><name>PT6650</name></trkpt>
<trkpt lat="53.197615" lon="-1.770606"><ele>252</ele><time>2020-01-31T12:14:37Z</time><name>PT6651</name></trkpt>
<trkpt lat="53.197620" lon="-1.770622"><ele>252</ele><time>2020-01-31T12:14:39Z</time><name>PT6652</name></trkpt>
<trkpt lat="53.197622" lon="-1.770641"><ele>252</ele><time>2020-01-31T12:14:39Z</time><name>PT6653</name></trkpt>
<trkpt lat="53.197626" lon="-1.770650"><ele>252</ele><time>2020-01-31T12:14:40Z</time><name>PT6654</name></trkpt>
<trkpt lat="53.197629" lon="-1.770667"><ele>251</ele><time>2020-01-31T12:14:42Z</time><name>PT6655</name></trkpt>
<trkpt lat="53.197631" lon="-1.770683"><ele>251</ele><time>2020-01-31T12:14:42Z</time><name>PT6656</name></trkpt>
<trkpt lat="53.197630" lon="-1.770700"><ele>250</ele><time>2020-01-31T12:14:43Z</time><name>PT6657</name></trkpt>
<trkpt lat="53.197636" lon="-1.770715"><ele>251</ele><time>2020-01-31T12:14:45Z</time><name>PT6658</name></trkpt>
<trkpt lat="53.197640" lon="-1.770727"><ele>251</ele><time>2020-01-31T12:14:45Z</time><name>PT6659</name></trkpt>
<trkpt lat="53.197645" lon="-1.770744"><ele>251</ele><time>2020-01-31T12:14:46Z</time><name>PT6660</name></trkpt>
<trkpt lat="53.197647" lon="-1.770759"><ele>250</ele><time>2020-01-31T12:14:48Z</time><name>PT6661</name></trkpt>
<trkpt lat="53.197652" lon="-1.770773"><ele>249</ele><time>2020-01-31T12:14:48Z</time><name>PT6662</name></trkpt>
<trkpt lat="53.197658" lon="-1.770792"><ele>249</ele><time>2020-01-31T12:14:49Z</time><name>PT6663</name></trkpt>
<trkpt lat="53.197660" lon="-1.770809"><ele>249</ele><time>2020-01-31T12:14:51Z</time><name>PT6664</name></trkpt>
<trkpt lat="53.197663" lon="-1.770825"><ele>249</ele><time>2020-01-31T12:14:51Z</time><name>PT6665</name></trkpt>
<trkpt lat="53.197667" lon="-1.770840"><ele>249</ele><time>2020-01-31T12:14:52Z</time><name>PT6666</name></trkpt>
<trkpt lat="53.197670" lon="-1.770849"><ele>249</ele><time>2020-01-31T12:14:54Z</time><name>PT6667</name></trkpt>
<trkpt lat="53.197672" lon="-1.770862"><ele>249</ele><time>2020-01-31T12:14:54Z</time><name>PT6668</name></trkpt>
<trkpt lat="53.197674" lon="-1.770874"><ele>249</ele><time>2020-01-31T12:14:55Z</time><name>PT6669</name></trkpt>
<trkpt lat="53.197678" lon="-1.770884"><ele>249</ele><time>2020-01-31T12:14:57Z</time><name>PT6670</name></trkpt>
<trkpt lat="53.197684" lon="-1.770897"><ele>249</ele><time>2020-01-31T12:14:57Z</time><name>PT6671</name></trkpt>
<trkpt lat="53.197688" lon="-1.770912"><ele>249</ele><time>2020-01-31T12:14:58Z</time><name>PT6672</name></trkpt>
<trkpt lat="53.197691" lon="-1.770929"><ele>249</ele><time>2020-01-31T12:15:00Z</time><name>PT6673</name></trkpt>
<trkpt lat="53.197695" lon="-1.770940"><ele>249</ele><time>2020-01-31T12:15:00Z</time><name>PT6674</name></trkpt>
<trkpt lat="53.197702" lon="-1.770958"><ele>250</ele><time>2020-01-31T12:15:01Z</time><name>PT6675</name></trkpt>
<trkpt lat="53.197707" lon="-1.770973"><ele>250</ele><time>2020-01-31T12:15:03Z</time><name>PT6676</name></trkpt>
<trkpt lat="53.197711" lon="-1.770989"><ele>250</ele><time>2020-01-31T12:15:03Z</time><name>PT6677</name></trkpt>
<trkpt lat="53.197716" lon="-1.771004"><ele>250</ele><time>2020-01-31T12:15:04Z</time><name>PT6678</name></trkpt>
<trkpt lat="53.197721" lon="-1.771021"><ele>250</ele><time>2020-01-31T12:15:06Z</time><name>PT6679</name></trkpt>
<trkpt lat="53.197723" lon="-1.771035"><ele>249</ele><time>2020-01-31T12:15:06Z</time><name>PT6680</name></trkpt>
<trkpt lat="53.197729" lon="-1.771052"><ele>249</ele><time>2020-01-31T12:15:07Z</time><name>PT6681</name></trkpt>
<trkpt lat="53.197735" lon="-1.771061"><ele>250</ele><time>2020-01-31T12:15:09Z</time><name>PT6682</name></trkpt>
<trkpt lat="53.197740" lon="-1.771071"><ele>250</ele><time>2020-01-31T12:15:09Z</time><name>PT6683</name></trkpt>
<trkpt lat="53.197741" lon="-1.771084"><ele>250</ele><time>2020-01-31T12:15:10Z</time><name>PT6684</name></trkpt>
<trkpt lat="53.197744" lon="-1.771097"><ele>251</ele><time>2020-01-31T12:15:12Z</time><name>PT6685</name></trkpt>
<trkpt lat="53.197747" lon="-1.771109"><ele>251</ele><time>2020-01-31T12:15:12Z</time><name>PT6686</name></trkpt>
<trkpt lat="53.197749" lon="-1.771123"><ele>250</ele><time>2020-01-31T12:15:13Z</time><name>PT6687</name></trkpt>
<trkpt lat="53.197750" lon="-1.771134"><ele>249</ele><time>2020-01-31T12:15:15Z</time><name>PT6688</name></trkpt>
<trkpt lat="53.197752" lon="-1.771149"><ele>249</ele><time>2020-01-31T12:15:15Z</time><name>PT6689</name></trkpt>
<trkpt lat="53.197754" lon="-1.771159"><ele>249</ele><time>2020-01-31T12:15:16Z</time><name>PT6690</name></trkpt>
<trkpt lat="53.197755" lon="-1.771167"><ele>248</ele><time>2020-01-31T12:15:18Z</time><name>PT6691</name></trkpt>
<trkpt lat="53.197754" lon="-1.771180"><ele>248</ele><time>2020-01-31T12:15:18Z</time><name>PT6692</name></trkpt>
<trkpt lat="53.197758" lon="-1.771190"><ele>248</ele><time>2020-01-31T12:15:19Z</time><name>PT6693</name></trkpt>
<trkpt lat="53.197763" lon="-1.771202"><ele>248</ele><time>2020-01-31T12:15:21Z</time><name>PT6694</name></trkpt>
<trkpt lat="53.197765" lon="-1.771219"><ele>246</ele><time>2020-01-31T12:15:21Z</time><name>PT6695</name></trkpt>
<trkpt lat="53.197766" lon="-1.771229"><ele>245</ele><time>2020-01-31T12:15:22Z</time><name>PT6696</name></trkpt>
<trkpt lat="53.197768" lon="-1.771241"><ele>246</ele><time>2020-01-31T12:15:24Z</time><name>PT6697</name></trkpt>
<trkpt lat="53.197773" lon="-1.771254"><ele>247</ele><time>2020-01-31T12:15:24Z</time><name>PT6698</name></trkpt>
<trkpt lat="53.197775" lon="-1.771265"><ele>247</ele><time>2020-01-31T12:15:25Z</time><name>PT6699</name></trkpt>
<trkpt lat="53.197778" lon="-1.771279"><ele>247</ele><time>2020-01-31T12:15:27Z</time><name>PT6700</name></trkpt>
<trkpt lat="53.197780" lon="-1.771297"><ele>247</ele><time>2020-01-31T12:15:27Z</time><name>PT6701</name></trkpt>
<trkpt lat="53.197783" lon="-1.771314"><ele>248</ele><time>2020-01-31T12:15:28Z</time><name>PT6702</name></trkpt>
<trkpt lat="53.197788" lon="-1.771325"><ele>248</ele><time>2020-01-31T12:15:30Z</time><name>PT6703</name></trkpt>
<trkpt lat="53.197789" lon="-1.771336"><ele>248</ele><time>2020-01-31T12:15:30Z</time><name>PT6704</name></trkpt>
<trkpt lat="53.197793" lon="-1.771351"><ele>248</ele><time>2020-01-31T12:15:31Z</time><name>PT6705</name></trkpt>
<trkpt lat="53.197800" lon="-1.771365"><ele>248</ele><time>2020-01-31T12:15:33Z</time><name>PT6706</name></trkpt>
<trkpt lat="53.197810" lon="-1.771376"><ele>249</ele><time>2020-01-31T12:15:33Z</time><name>PT6707</name></trkpt>
<trkpt lat="53.197821" lon="-1.771390"><ele>249</ele><time>2020-01-31T12:15:34Z</time><name>PT6708</name></trkpt>
<trkpt lat="53.197829" lon="-1.771407"><ele>248</ele><time>2020-01-31T12:15:36Z</time><name>PT6709</name></trkpt>
<trkpt lat="53.197835" lon="-1.771427"><ele>249</ele><time>2020-01-31T12:15:36Z</time><name>PT6710</name></trkpt>
<trkpt lat="53.197839" lon="-1.771439"><ele>249</ele><time>2020-01-31T12:15:37Z</time><name>PT6711</name></trkpt>
<trkpt lat="53.197848" lon="-1.771452"><ele>249</ele><time>2020-01-31T12:15:39Z</time><name>PT6712</name></trkpt>
<trkpt lat="53.197856" lon="-1.771468"><ele>250</ele><time>2020-01-31T12:15:39Z</time><name>PT6713</name></trkpt>
<trkpt lat="53.197862" lon="-1.771484"><ele>250</ele><time>2020-01-31T12:15:40Z</time><name>PT6714</name></trkpt>
<trkpt lat="53.197870" lon="-1.771505"><ele>250</ele><time>2020-01-31T12:15:42Z</time><name>PT6715</name></trkpt>
<trkpt lat="53.197878" lon="-1.771521"><ele>251</ele><time>2020-01-31T12:15:42Z</time><name>PT6716</name></trkpt>
<trkpt lat="53.197884" lon="-1.771537"><ele>251</ele><time>2020-01-31T12:15:43Z</time><name>PT6717</name></trkpt>
<trkpt lat="53.197887" lon="-1.771554"><ele>251</ele><time>2020-01-31T12:15:45Z</time><name>PT6718</name></trkpt>
<trkpt lat="53.197888" lon="-1.771571"><ele>251</ele><time>2020-01-31T12:15:45Z</time><name>PT6719</name></trkpt>
<trkpt lat="53.197892" lon="-1.771588"><ele>251</ele><time>2020-01-31T12:15:46Z</time><name>PT6720</name></trkpt>
<trkpt lat="53.197894" lon="-1.771604"><ele>250</ele><time>2020-01-31T12:15:48Z</time><name>PT6721</name></trkpt>
<trkpt lat="53.197896" lon="-1.771622"><ele>249</ele><time>2020-01-31T12:15:48Z</time><name>PT6722</name></trkpt>
<trkpt lat="53.197903" lon="-1.771640"><ele>249</ele><time>2020-01-31T12:15:49Z</time><name>PT6723</name></trkpt>
<trkpt lat="53.197908" lon="-1.771659"><ele>249</ele><time>2020-01-31T12:15:51Z</time><name>PT6724</name></trkpt>
<trkpt lat="53.197914" lon="-1.771683"><ele>249</ele><time>2020-01-31T12:15:51Z</time><name>PT6725</name></trkpt>
<trkpt lat="53.197921" lon="-1.771700"><ele>250</ele><time>2020-01-31T12:15:52Z</time><name>PT6726</name></trkpt>
<trkpt lat="53.197928" lon="-1.771719"><ele>250</ele><time>2020-01-31T12:15:54Z</time><name>PT6727</name></trkpt>
<trkpt lat="53.197934" lon="-1.771739"><ele>250</ele><time>2020-01-31T12:15:54Z</time><name>PT6728</name></trkpt>
<trkpt lat="53.197937" lon="-1.771755"><ele>250</ele><time>2020-01-31T12:15:55Z</time><name>PT6729</name></trkpt>
<trkpt lat="53.197940" lon="-1.771775"><ele>250</ele><time>2020-01-31T12:15:57Z</time><name>PT6730</name></trkpt>
<trkpt lat="53.197943" lon="-1.771787"><ele>249</ele><time>2020-01-31T12:15:57Z</time><name>PT6731</name></trkpt>
<trkpt lat="53.197950" lon="-1.771808"><ele>249</ele><time>2020-01-31T12:15:58Z</time><name>PT6732</name></trkpt>
<trkpt lat="53.197953" lon="-1.771828"><ele>249</ele><time>2020-01-31T12:16:00Z</time><name>PT6733</name></trkpt>
<trkpt lat="53.197957" lon="-1.771847"><ele>249</ele><time>2020-01-31T12:16:00Z</time><name>PT6734</name></trkpt>
<trkpt lat="53.197960" lon="-1.771870"><ele>249</ele><time>2020-01-31T12:16:01Z</time><name>PT6735</name></trkpt>
<trkpt lat="53.197965" lon="-1.771886"><ele>250</ele><time>2020-01-31T12:16:03Z</time><name>PT6736</name></trkpt>
<trkpt lat="53.197971" lon="-1.771905"><ele>250</ele><time>2020-01-31T12:16:03Z</time><name>PT6737</name></trkpt>
<trkpt lat="53.197977" lon="-1.771927"><ele>250</ele><time>2020-01-31T12:16:04Z</time><name>PT6738</name></trkpt>
<trkpt lat="53.197983" lon="-1.771948"><ele>251</ele><time>2020-01-31T12:16:06Z</time><name>PT6739</name></trkpt>
<trkpt lat="53.197988" lon="-1.771969"><ele>252</ele><time>2020-01-31T12:16:06Z</time><name>PT6740</name></trkpt>
<trkpt lat="53.197991" lon="-1.771989"><ele>252</ele><time>2020-01-31T12:16:07Z</time><name>PT6741</name></trkpt>
<trkpt lat="53.197996" lon="-1.772010"><ele>252</ele><time>2020-01-31T12:16:09Z</time><name>PT6742</name></trkpt>
<trkpt lat="53.198000" lon="-1.772027"><ele>252</ele><time>2020-01-31T12:16:09Z</time><name>PT6743</name></trkpt>
<trkpt lat="53.198000" lon="-1.772041"><ele>252</ele><time>2020-01-31T12:16:11Z</time><name>PT6744</name></trkpt>
<trkpt lat="53.198005" lon="-1.772064"><ele>252</ele><time>2020-01-31T12:16:12Z</time><name>PT6745</name></trkpt>
<trkpt lat="53.198008" lon="-1.772082"><ele>253</ele><time>2020-01-31T12:16:12Z</time><name>PT6746</name></trkpt>
<trkpt lat="53.198012" lon="-1.772100"><ele>253</ele><time>2020-01-31T12:16:13Z</time><name>PT6747</name></trkpt>
<trkpt lat="53.198018" lon="-1.772119"><ele>253</ele><time>2020-01-31T12:16:15Z</time><name>PT6748</name></trkpt>
<trkpt lat="53.198021" lon="-1.772140"><ele>253</ele><time>2020-01-31T12:16:15Z</time><name>PT6749</name></trkpt>
<trkpt lat="53.198023" lon="-1.772156"><ele>253</ele><time>2020-01-31T12:16:16Z</time><name>PT6750</name></trkpt>
<trkpt lat="53.198025" lon="-1.772172"><ele>253</ele><time>2020-01-31T12:16:18Z</time><name>PT6751</name></trkpt>
<trkpt lat="53.198030" lon="-1.772197"><ele>253</ele><time>2020-01-31T12:16:18Z</time><name>PT6752</name></trkpt>
<trkpt lat="53.198033" lon="-1.772217"><ele>253</ele><time>2020-01-31T12:16:19Z</time><name>PT6753</name></trkpt>
<trkpt lat="53.198034" lon="-1.772237"><ele>253</ele><time>2020-01-31T12:16:21Z</time><name>PT6754</name></trkpt>
<trkpt lat="53.198039" lon="-1.772255"><ele>253</ele><time>2020-01-31T12:16:21Z</time><name>PT6755</name></trkpt>
<trkpt lat="53.198043" lon="-1.772270"><ele>253</ele><time>2020-01-31T12:16:22Z</time><name>PT6756</name></trkpt>
<trkpt lat="53.198047" lon="-1.772287"><ele>253</ele><time>2020-01-31T12:16:24Z</time><name>PT6757</name></trkpt>
<trkpt lat="53.198050" lon="-1.772304"><ele>253</ele><time>2020-01-31T12:16:24Z</time><name>PT6758</name></trkpt>
<trkpt lat="53.198054" lon="-1.772326"><ele>254</ele><time>2020-01-31T12:16:25Z</time><name>PT6759</name></trkpt>
<trkpt lat="53.198056" lon="-1.772338"><ele>253</ele><time>2020-01-31T12:16:27Z</time><name>PT6760</name></trkpt>
<trkpt lat="53.198062" lon="-1.772354"><ele>253</ele><time>2020-01-31T12:16:27Z</time><name>PT6761</name></trkpt>
<trkpt lat="53.198065" lon="-1.772366"><ele>253</ele><time>2020-01-31T12:16:28Z</time><name>PT6762</name></trkpt>
<trkpt lat="53.198066" lon="-1.772388"><ele>253</ele><time>2020-01-31T12:16:30Z</time><name>PT6763</name></trkpt>
<trkpt lat="53.198068" lon="-1.772407"><ele>253</ele><time>2020-01-31T12:16:30Z</time><name>PT6764</name></trkpt>
<trkpt lat="53.198070" lon="-1.772421"><ele>252</ele><time>2020-01-31T12:16:31Z</time><name>PT6765</name></trkpt>
<trkpt lat="53.198073" lon="-1.772437"><ele>252</ele><time>2020-01-31T12:16:33Z</time><name>PT6766</name></trkpt>
<trkpt lat="53.198075" lon="-1.772453"><ele>252</ele><time>2020-01-31T12:16:33Z</time><name>PT6767</name></trkpt>
<trkpt lat="53.198079" lon="-1.772473"><ele>252</ele><time>2020-01-31T12:16:34Z</time><name>PT6768</name></trkpt>
<trkpt lat="53.198086" lon="-1.772497"><ele>253</ele><time>2020-01-31T12:16:36Z</time><name>PT6769</name></trkpt>
<trkpt lat="53.198091" lon="-1.772513"><ele>253</ele><time>2020-01-31T12:16:36Z</time><name>PT6770</name></trkpt>
<trkpt lat="53.198096" lon="-1.772527"><ele>253</ele><time>2020-01-31T12:16:37Z</time><name>PT6771</name></trkpt>
<trkpt lat="53.198099" lon="-1.772542"><ele>253</ele><time>2020-01-31T12:16:39Z</time><name>PT6772</name></trkpt>
<trkpt lat="53.198103" lon="-1.772561"><ele>253</ele><time>2020-01-31T12:16:39Z</time><name>PT6773</name></trkpt>
<trkpt lat="53.198106" lon="-1.772578"><ele>253</ele><time>2020-01-31T12:16:40Z</time><name>PT6774</name></trkpt>
<trkpt lat="53.198112" lon="-1.772591"><ele>253</ele><time>2020-01-31T12:16:42Z</time><name>PT6775</name></trkpt>
<trkpt lat="53.198118" lon="-1.772607"><ele>253</ele><time>2020-01-31T12:16:42Z</time><name>PT6776</name></trkpt>
<trkpt lat="53.198122" lon="-1.772623"><ele>253</ele><time>2020-01-31T12:16:43Z</time><name>PT6777</name></trkpt>
<trkpt lat="53.198125" lon="-1.772643"><ele>253</ele><time>2020-01-31T12:16:45Z</time><name>PT6778</name></trkpt>
<trkpt lat="53.198126" lon="-1.772662"><ele>252</ele><time>2020-01-31T12:16:45Z</time><name>PT6779</name></trkpt>
<trkpt lat="53.198126" lon="-1.772675"><ele>251</ele><time>2020-01-31T12:16:46Z</time><name>PT6780</name></trkpt>
<trkpt lat="53.198129" lon="-1.772691"><ele>251</ele><time>2020-01-31T12:16:48Z</time><name>PT6781</name></trkpt>
<trkpt lat="53.198126" lon="-1.772710"><ele>249</ele><time>2020-01-31T12:16:48Z</time><name>PT6782</name></trkpt>
<trkpt lat="53.198130" lon="-1.772734"><ele>249</ele><time>2020-01-31T12:16:49Z</time><name>PT6783</name></trkpt>
<trkpt lat="53.198134" lon="-1.772751"><ele>249</ele><time>2020-01-31T12:16:51Z</time><name>PT6784</name></trkpt>
<trkpt lat="53.198137" lon="-1.772765"><ele>249</ele><time>2020-01-31T12:16:51Z</time><name>PT6785</name></trkpt>
<trkpt lat="53.198141" lon="-1.772786"><ele>248</ele><time>2020-01-31T12:16:52Z</time><name>PT6786</name></trkpt>
<trkpt lat="53.198148" lon="-1.772808"><ele>249</ele><time>2020-01-31T12:16:54Z</time><name>PT6787</name></trkpt>
<trkpt lat="53.198150" lon="-1.772830"><ele>250</ele><time>2020-01-31T12:16:54Z</time><name>PT6788</name></trkpt>
<trkpt lat="53.198151" lon="-1.772849"><ele>250</ele><time>2020-01-31T12:16:55Z</time><name>PT6789</name></trkpt>
<trkpt lat="53.198153" lon="-1.772867"><ele>250</ele><time>2020-01-31T12:16:57Z</time><name>PT6790</name></trkpt>
<trkpt lat="53.198155" lon="-1.772886"><ele>250</ele><time>2020-01-31T12:16:57Z</time><name>PT6791</name></trkpt>
<trkpt lat="53.198157" lon="-1.772905"><ele>250</ele><time>2020-01-31T12:16:58Z</time><name>PT6792</name></trkpt>
<trkpt lat="53.198157" lon="-1.772922"><ele>250</ele><time>2020-01-31T12:17:00Z</time><name>PT6793</name></trkpt>
<trkpt lat="53.198158" lon="-1.772941"><ele>251</ele><time>2020-01-31T12:17:00Z</time><name>PT6794</name></trkpt>
<trkpt lat="53.198161" lon="-1.772957"><ele>251</ele><time>2020-01-31T12:17:01Z</time><name>PT6795</name></trkpt>
<trkpt lat="53.198164" lon="-1.772973"><ele>251</ele><time>2020-01-31T12:17:03Z</time><name>PT6796</name></trkpt>
<trkpt lat="53.198169" lon="-1.772995"><ele>251</ele><time>2020-01-31T12:17:03Z</time><name>PT6797</name></trkpt>
<trkpt lat="53.198170" lon="-1.773014"><ele>251</ele><time>2020-01-31T12:17:04Z</time><name>PT6798</name></trkpt>
<trkpt lat="53.198169" lon="-1.773031"><ele>251</ele><time>2020-01-31T12:17:06Z</time><name>PT6799</name></trkpt>
<trkpt lat="53.198159" lon="-1.773052"><ele>250</ele><time>2020-01-31T12:17:06Z</time><name>PT6800</name></trkpt>
<trkpt lat="53.198155" lon="-1.773069"><ele>250</ele><time>2020-01-31T12:17:07Z</time><name>PT6801</name></trkpt>
<trkpt lat="53.198157" lon="-1.773086"><ele>250</ele><time>2020-01-31T12:17:09Z</time><name>PT6802</name></trkpt>
<trkpt lat="53.198159" lon="-1.773100"><ele>251</ele><time>2020-01-31T12:17:09Z</time><name>PT6803</name></trkpt>
<trkpt lat="53.198160" lon="-1.773116"><ele>251</ele><time>2020-01-31T12:17:10Z</time><name>PT6804</name></trkpt>
<trkpt lat="53.198160" lon="-1.773129"><ele>251</ele><time>2020-01-31T12:17:12Z</time><name>PT6805</name></trkpt>
<trkpt lat="53.198162" lon="-1.773144"><ele>251</ele><time>2020-01-31T12:17:12Z</time><name>PT6806</name></trkpt>
<trkpt lat="53.198166" lon="-1.773157"><ele>251</ele><time>2020-01-31T12:17:13Z</time><name>PT6807</name></trkpt>
<trkpt lat="53.198169" lon="-1.773171"><ele>252</ele><time>2020-01-31T12:17:15Z</time><name>PT6808</name></trkpt>
<trkpt lat="53.198171" lon="-1.773185"><ele>252</ele><time>2020-01-31T12:17:15Z</time><name>PT6809</name></trkpt>
<trkpt lat="53.198173" lon="-1.773196"><ele>252</ele><time>2020-01-31T12:17:16Z</time><name>PT6810</name></trkpt>
<trkpt lat="53.198178" lon="-1.773202"><ele>252</ele><time>2020-01-31T12:17:18Z</time><name>PT6811</name></trkpt>
<trkpt lat="53.198180" lon="-1.773207"><ele>253</ele><time>2020-01-31T12:17:18Z</time><name>PT6812</name></trkpt>
<trkpt lat="53.198183" lon="-1.773210"><ele>253</ele><time>2020-01-31T12:17:19Z</time><name>PT6813</name></trkpt>
<trkpt lat="53.198184" lon="-1.773212"><ele>253</ele><time>2020-01-31T12:17:21Z</time><name>PT6814</name></trkpt>
<trkpt lat="53.198185" lon="-1.773215"><ele>254</ele><time>2020-01-31T12:17:21Z</time><name>PT6815</name></trkpt>
<trkpt lat="53.198185" lon="-1.773219"><ele>254</ele><time>2020-01-31T12:17:22Z</time><name>PT6816</name></trkpt>
<trkpt lat="53.198192" lon="-1.773226"><ele>254</ele><time>2020-01-31T12:17:27Z</time><name>PT6817</name></trkpt>
<trkpt lat="53.198200" lon="-1.773217"><ele>254</ele><time>2020-01-31T12:17:27Z</time><name>PT6818</name></trkpt>
<trkpt lat="53.198200" lon="-1.773219"><ele>254</ele><time>2020-01-31T12:17:28Z</time><name>PT6819</name></trkpt>
<trkpt lat="53.198202" lon="-1.773228"><ele>254</ele><time>2020-01-31T12:17:30Z</time><name>PT6820</name></trkpt>
<trkpt lat="53.198202" lon="-1.773239"><ele>254</ele><time>2020-01-31T12:17:30Z</time><name>PT6821</name></trkpt>
<trkpt lat="53.198202" lon="-1.773240"><ele>254</ele><time>2020-01-31T12:17:31Z</time><name>PT6822</name></trkpt>
<trkpt lat="53.198203" lon="-1.773252"><ele>254</ele><time>2020-01-31T12:17:33Z</time><name>PT6823</name></trkpt>
<trkpt lat="53.198203" lon="-1.773262"><ele>254</ele><time>2020-01-31T12:17:33Z</time><name>PT6824</name></trkpt>
<trkpt lat="53.198205" lon="-1.773268"><ele>254</ele><time>2020-01-31T12:17:34Z</time><name>PT6825</name></trkpt>
<trkpt lat="53.198206" lon="-1.773267"><ele>254</ele><time>2020-01-31T12:17:36Z</time><name>PT6826</name></trkpt>
<trkpt lat="53.198205" lon="-1.773266"><ele>254</ele><time>2020-01-31T12:17:36Z</time><name>PT6827</name></trkpt>
<trkpt lat="53.198204" lon="-1.773272"><ele>254</ele><time>2020-01-31T12:17:37Z</time><name>PT6828</name></trkpt>
<trkpt lat="53.198205" lon="-1.773278"><ele>254</ele><time>2020-01-31T12:17:39Z</time><name>PT6829</name></trkpt>
<trkpt lat="53.198206" lon="-1.773288"><ele>254</ele><time>2020-01-31T12:17:39Z</time><name>PT6830</name></trkpt>
<trkpt lat="53.198210" lon="-1.773299"><ele>254</ele><time>2020-01-31T12:17:40Z</time><name>PT6831</name></trkpt>
<trkpt lat="53.198212" lon="-1.773308"><ele>254</ele><time>2020-01-31T12:17:42Z</time><name>PT6832</name></trkpt>
<trkpt lat="53.198214" lon="-1.773315"><ele>254</ele><time>2020-01-31T12:17:42Z</time><name>PT6833</name></trkpt>
<trkpt lat="53.198217" lon="-1.773324"><ele>254</ele><time>2020-01-31T12:17:43Z</time><name>PT6834</name></trkpt>
<trkpt lat="53.198216" lon="-1.773339"><ele>254</ele><time>2020-01-31T12:17:45Z</time><name>PT6835</name></trkpt>
<trkpt lat="53.198219" lon="-1.773352"><ele>254</ele><time>2020-01-31T12:17:45Z</time><name>PT6836</name></trkpt>
<trkpt lat="53.198222" lon="-1.773364"><ele>254</ele><time>2020-01-31T12:17:46Z</time><name>PT6837</name></trkpt>
<trkpt lat="53.198226" lon="-1.773374"><ele>254</ele><time>2020-01-31T12:17:48Z</time><name>PT6838</name></trkpt>
<trkpt lat="53.198225" lon="-1.773384"><ele>254</ele><time>2020-01-31T12:17:48Z</time><name>PT6839</name></trkpt>
<trkpt lat="53.198224" lon="-1.773400"><ele>255</ele><time>2020-01-31T12:17:49Z</time><name>PT6840</name></trkpt>
<trkpt lat="53.198223" lon="-1.773419"><ele>255</ele><time>2020-01-31T12:17:51Z</time><name>PT6841</name></trkpt>
<trkpt lat="53.198224" lon="-1.773434"><ele>255</ele><time>2020-01-31T12:17:51Z</time><name>PT6842</name></trkpt>
<trkpt lat="53.198227" lon="-1.773450"><ele>255</ele><time>2020-01-31T12:17:52Z</time><name>PT6843</name></trkpt>
<trkpt lat="53.198231" lon="-1.773465"><ele>255</ele><time>2020-01-31T12:17:54Z</time><name>PT6844</name></trkpt>
<trkpt lat="53.198233" lon="-1.773484"><ele>255</ele><time>2020-01-31T12:17:54Z</time><name>PT6845</name></trkpt>
<trkpt lat="53.198236" lon="-1.773501"><ele>255</ele><time>2020-01-31T12:17:55Z</time><name>PT6846</name></trkpt>
<trkpt lat="53.198240" lon="-1.773518"><ele>255</ele><time>2020-01-31T12:17:57Z</time><name>PT6847</name></trkpt>
<trkpt lat="53.198243" lon="-1.773535"><ele>256</ele><time>2020-01-31T12:17:57Z</time><name>PT6848</name></trkpt>
<trkpt lat="53.198249" lon="-1.773554"><ele>256</ele><time>2020-01-31T12:17:58Z</time><name>PT6849</name></trkpt>
<trkpt lat="53.198252" lon="-1.773573"><ele>255</ele><time>2020-01-31T12:18:00Z</time><name>PT6850</name></trkpt>
<trkpt lat="53.198254" lon="-1.773595"><ele>256</ele><time>2020-01-31T12:18:00Z</time><name>PT6851</name></trkpt>
<trkpt lat="53.198256" lon="-1.773617"><ele>256</ele><time>2020-01-31T12:18:01Z</time><name>PT6852</name></trkpt>
<trkpt lat="53.198261" lon="-1.773637"><ele>256</ele><time>2020-01-31T12:18:03Z</time><name>PT6853</name></trkpt>
<trkpt lat="53.198262" lon="-1.773659"><ele>255</ele><time>2020-01-31T12:18:03Z</time><name>PT6854</name></trkpt>
<trkpt lat="53.198266" lon="-1.773673"><ele>256</ele><time>2020-01-31T12:18:04Z</time><name>PT6855</name></trkpt>
<trkpt lat="53.198270" lon="-1.773689"><ele>256</ele><time>2020-01-31T12:18:06Z</time><name>PT6856</name></trkpt>
<trkpt lat="53.198274" lon="-1.773706"><ele>256</ele><time>2020-01-31T12:18:06Z</time><name>PT6857</name></trkpt>
<trkpt lat="53.198276" lon="-1.773724"><ele>256</ele><time>2020-01-31T12:18:07Z</time><name>PT6858</name></trkpt>
<trkpt lat="53.198278" lon="-1.773745"><ele>256</ele><time>2020-01-31T12:18:09Z</time><name>PT6859</name></trkpt>
<trkpt lat="53.198278" lon="-1.773768"><ele>257</ele><time>2020-01-31T12:18:09Z</time><name>PT6860</name></trkpt>
<trkpt lat="53.198278" lon="-1.773789"><ele>257</ele><time>2020-01-31T12:18:10Z</time><name>PT6861</name></trkpt>
<trkpt lat="53.198280" lon="-1.773812"><ele>256</ele><time>2020-01-31T12:18:12Z</time><name>PT6862</name></trkpt>
<trkpt lat="53.198285" lon="-1.773831"><ele>257</ele><time>2020-01-31T12:18:12Z</time><name>PT6863</name></trkpt>
<trkpt lat="53.198293" lon="-1.773850"><ele>257</ele><time>2020-01-31T12:18:13Z</time><name>PT6864</name></trkpt>
<trkpt lat="53.198296" lon="-1.773866"><ele>257</ele><time>2020-01-31T12:18:15Z</time><name>PT6865</name></trkpt>
<trkpt lat="53.198298" lon="-1.773887"><ele>257</ele><time>2020-01-31T12:18:15Z</time><name>PT6866</name></trkpt>
<trkpt lat="53.198299" lon="-1.773910"><ele>257</ele><time>2020-01-31T12:18:16Z</time><name>PT6867</name></trkpt>
<trkpt lat="53.198304" lon="-1.773926"><ele>257</ele><time>2020-01-31T12:18:18Z</time><name>PT6868</name></trkpt>
<trkpt lat="53.198307" lon="-1.773947"><ele>258</ele><time>2020-01-31T12:18:18Z</time><name>PT6869</name></trkpt>
<trkpt lat="53.198308" lon="-1.773969"><ele>258</ele><time>2020-01-31T12:18:19Z</time><name>PT6870</name></trkpt>
<trkpt lat="53.198309" lon="-1.773988"><ele>258</ele><time>2020-01-31T12:18:21Z</time><name>PT6871</name></trkpt>
<trkpt lat="53.198315" lon="-1.774008"><ele>257</ele><time>2020-01-31T12:18:21Z</time><name>PT6872</name></trkpt>
<trkpt lat="53.198318" lon="-1.774031"><ele>258</ele><time>2020-01-31T12:18:22Z</time><name>PT6873</name></trkpt>
<trkpt lat="53.198322" lon="-1.774052"><ele>258</ele><time>2020-01-31T12:18:24Z</time><name>PT6874</name></trkpt>
<trkpt lat="53.198325" lon="-1.774068"><ele>258</ele><time>2020-01-31T12:18:24Z</time><name>PT6875</name></trkpt>
<trkpt lat="53.198327" lon="-1.774088"><ele>259</ele><time>2020-01-31T12:18:25Z</time><name>PT6876</name></trkpt>
<trkpt lat="53.198330" lon="-1.774110"><ele>259</ele><time>2020-01-31T12:18:27Z</time><name>PT6877</name></trkpt>
<trkpt lat="53.198334" lon="-1.774125"><ele>259</ele><time>2020-01-31T12:18:27Z</time><name>PT6878</name></trkpt>
<trkpt lat="53.198337" lon="-1.774147"><ele>259</ele><time>2020-01-31T12:18:28Z</time><name>PT6879</name></trkpt>
<trkpt lat="53.198339" lon="-1.774172"><ele>259</ele><time>2020-01-31T12:18:30Z</time><name>PT6880</name></trkpt>
<trkpt lat="53.198340" lon="-1.774190"><ele>259</ele><time>2020-01-31T12:18:30Z</time><name>PT6881</name></trkpt>
<trkpt lat="53.198344" lon="-1.774209"><ele>260</ele><time>2020-01-31T12:18:31Z</time><name>PT6882</name></trkpt>
<trkpt lat="53.198346" lon="-1.774227"><ele>260</ele><time>2020-01-31T12:18:33Z</time><name>PT6883</name></trkpt>
<trkpt lat="53.198350" lon="-1.774242"><ele>259</ele><time>2020-01-31T12:18:33Z</time><name>PT6884</name></trkpt>
<trkpt lat="53.198355" lon="-1.774257"><ele>259</ele><time>2020-01-31T12:18:34Z</time><name>PT6885</name></trkpt>
<trkpt lat="53.198358" lon="-1.774275"><ele>259</ele><time>2020-01-31T12:18:36Z</time><name>PT6886</name></trkpt>
<trkpt lat="53.198361" lon="-1.774295"><ele>259</ele><time>2020-01-31T12:18:36Z</time><name>PT6887</name></trkpt>
<trkpt lat="53.198363" lon="-1.774315"><ele>259</ele><time>2020-01-31T12:18:37Z</time><name>PT6888</name></trkpt>
<trkpt lat="53.198368" lon="-1.774333"><ele>259</ele><time>2020-01-31T12:18:39Z</time><name>PT6889</name></trkpt>
<trkpt lat="53.198371" lon="-1.774352"><ele>260</ele><time>2020-01-31T12:18:39Z</time><name>PT6890</name></trkpt>
<trkpt lat="53.198371" lon="-1.774368"><ele>260</ele><time>2020-01-31T12:18:40Z</time><name>PT6891</name></trkpt>
<trkpt lat="53.198374" lon="-1.774386"><ele>259</ele><time>2020-01-31T12:18:42Z</time><name>PT6892</name></trkpt>
<trkpt lat="53.198376" lon="-1.774405"><ele>259</ele><time>2020-01-31T12:18:42Z</time><name>PT6893</name></trkpt>
<trkpt lat="53.198379" lon="-1.774427"><ele>259</ele><time>2020-01-31T12:18:43Z</time><name>PT6894</name></trkpt>
<trkpt lat="53.198384" lon="-1.774443"><ele>259</ele><time>2020-01-31T12:18:45Z</time><name>PT6895</name></trkpt>
<trkpt lat="53.198389" lon="-1.774464"><ele>260</ele><time>2020-01-31T12:18:45Z</time><name>PT6896</name></trkpt>
<trkpt lat="53.198390" lon="-1.774485"><ele>259</ele><time>2020-01-31T12:18:47Z</time><name>PT6897</name></trkpt>
<trkpt lat="53.198391" lon="-1.774507"><ele>259</ele><time>2020-01-31T12:18:48Z</time><name>PT6898</name></trkpt>
<trkpt lat="53.198392" lon="-1.774523"><ele>258</ele><time>2020-01-31T12:18:48Z</time><name>PT6899</name></trkpt>
<trkpt lat="53.198391" lon="-1.774542"><ele>259</ele><time>2020-01-31T12:18:49Z</time><name>PT6900</name></trkpt>
<trkpt lat="53.198391" lon="-1.774561"><ele>258</ele><time>2020-01-31T12:18:51Z</time><name>PT6901</name></trkpt>
<trkpt lat="53.198394" lon="-1.774579"><ele>258</ele><time>2020-01-31T12:18:51Z</time><name>PT6902</name></trkpt>
<trkpt lat="53.198395" lon="-1.774593"><ele>257</ele><time>2020-01-31T12:18:52Z</time><name>PT6903</name></trkpt>
<trkpt lat="53.198400" lon="-1.774612"><ele>257</ele><time>2020-01-31T12:18:54Z</time><name>PT6904</name></trkpt>
<trkpt lat="53.198407" lon="-1.774624"><ele>258</ele><time>2020-01-31T12:18:54Z</time><name>PT6905</name></trkpt>
<trkpt lat="53.198412" lon="-1.774643"><ele>258</ele><time>2020-01-31T12:18:55Z</time><name>PT6906</name></trkpt>
<trkpt lat="53.198413" lon="-1.774659"><ele>257</ele><time>2020-01-31T12:18:57Z</time><name>PT6907</name></trkpt>
<trkpt lat="53.198418" lon="-1.774676"><ele>258</ele><time>2020-01-31T12:18:57Z</time><name>PT6908</name></trkpt>
<trkpt lat="53.198424" lon="-1.774691"><ele>258</ele><time>2020-01-31T12:18:58Z</time><name>PT6909</name></trkpt>
<trkpt lat="53.198427" lon="-1.774701"><ele>257</ele><time>2020-01-31T12:19:00Z</time><name>PT6910</name></trkpt>
<trkpt lat="53.198431" lon="-1.774715"><ele>257</ele><time>2020-01-31T12:19:00Z</time><name>PT6911</name></trkpt>
<trkpt lat="53.198435" lon="-1.774732"><ele>257</ele><time>2020-01-31T12:19:01Z</time><name>PT6912</name></trkpt>
<trkpt lat="53.198437" lon="-1.774753"><ele>257</ele><time>2020-01-31T12:19:03Z</time><name>PT6913</name></trkpt>
<trkpt lat="53.198438" lon="-1.774777"><ele>257</ele><time>2020-01-31T12:19:03Z</time><name>PT6914</name></trkpt>
<trkpt lat="53.198440" lon="-1.774796"><ele>257</ele><time>2020-01-31T12:19:04Z</time><name>PT6915</name></trkpt>
<trkpt lat="53.198440" lon="-1.774816"><ele>257</ele><time>2020-01-31T12:19:06Z</time><name>PT6916</name></trkpt>
<trkpt lat="53.198443" lon="-1.774838"><ele>257</ele><time>2020-01-31T12:19:06Z</time><name>PT6917</name></trkpt>
<trkpt lat="53.198447" lon="-1.774859"><ele>257</ele><time>2020-01-31T12:19:07Z</time><name>PT6918</name></trkpt>
<trkpt lat="53.198449" lon="-1.774883"><ele>258</ele><time>2020-01-31T12:19:09Z</time><name>PT6919</name></trkpt>
<trkpt lat="53.198450" lon="-1.774902"><ele>257</ele><time>2020-01-31T12:19:09Z</time><name>PT6920</name></trkpt>
<trkpt lat="53.198452" lon="-1.774919"><ele>258</ele><time>2020-01-31T12:19:10Z</time><name>PT6921</name></trkpt>
<trkpt lat="53.198456" lon="-1.774938"><ele>257</ele><time>2020-01-31T12:19:12Z</time><name>PT6922</name></trkpt>
<trkpt lat="53.198462" lon="-1.774952"><ele>257</ele><time>2020-01-31T12:19:12Z</time><name>PT6923</name></trkpt>
<trkpt lat="53.198468" lon="-1.774965"><ele>257</ele><time>2020-01-31T12:19:13Z</time><name>PT6924</name></trkpt>
<trkpt lat="53.198471" lon="-1.774982"><ele>257</ele><time>2020-01-31T12:19:15Z</time><name>PT6925</name></trkpt>
<trkpt lat="53.198475" lon="-1.775004"><ele>257</ele><time>2020-01-31T12:19:15Z</time><name>PT6926</name></trkpt>
<trkpt lat="53.198478" lon="-1.775024"><ele>257</ele><time>2020-01-31T12:19:16Z</time><name>PT6927</name></trkpt>
<trkpt lat="53.198482" lon="-1.775038"><ele>257</ele><time>2020-01-31T12:19:18Z</time><name>PT6928</name></trkpt>
<trkpt lat="53.198483" lon="-1.775049"><ele>258</ele><time>2020-01-31T12:19:18Z</time><name>PT6929</name></trkpt>
<trkpt lat="53.198486" lon="-1.775064"><ele>258</ele><time>2020-01-31T12:19:19Z</time><name>PT6930</name></trkpt>
<trkpt lat="53.198488" lon="-1.775081"><ele>257</ele><time>2020-01-31T12:19:21Z</time><name>PT6931</name></trkpt>
<trkpt lat="53.198487" lon="-1.775102"><ele>257</ele><time>2020-01-31T12:19:21Z</time><name>PT6932</name></trkpt>
<trkpt lat="53.198490" lon="-1.775124"><ele>257</ele><time>2020-01-31T12:19:22Z</time><name>PT6933</name></trkpt>
<trkpt lat="53.198489" lon="-1.775142"><ele>259</ele><time>2020-01-31T12:19:24Z</time><name>PT6934</name></trkpt>
<trkpt lat="53.198488" lon="-1.775162"><ele>259</ele><time>2020-01-31T12:19:24Z</time><name>PT6935</name></trkpt>
<trkpt lat="53.198485" lon="-1.775182"><ele>259</ele><time>2020-01-31T12:19:25Z</time><name>PT6936</name></trkpt>
<trkpt lat="53.198485" lon="-1.775206"><ele>260</ele><time>2020-01-31T12:19:27Z</time><name>PT6937</name></trkpt>
<trkpt lat="53.198486" lon="-1.775228"><ele>259</ele><time>2020-01-31T12:19:27Z</time><name>PT6938</name></trkpt>
<trkpt lat="53.198483" lon="-1.775241"><ele>258</ele><time>2020-01-31T12:19:28Z</time><name>PT6939</name></trkpt>
<trkpt lat="53.198482" lon="-1.775259"><ele>258</ele><time>2020-01-31T12:19:30Z</time><name>PT6940</name></trkpt>
<trkpt lat="53.198482" lon="-1.775276"><ele>258</ele><time>2020-01-31T12:19:30Z</time><name>PT6941</name></trkpt>
<trkpt lat="53.198484" lon="-1.775289"><ele>258</ele><time>2020-01-31T12:19:31Z</time><name>PT6942</name></trkpt>
<trkpt lat="53.198484" lon="-1.775296"><ele>257</ele><time>2020-01-31T12:19:33Z</time><name>PT6943</name></trkpt>
<trkpt lat="53.198482" lon="-1.775304"><ele>257</ele><time>2020-01-31T12:19:33Z</time><name>PT6944</name></trkpt>
<trkpt lat="53.198481" lon="-1.775305"><ele>257</ele><time>2020-01-31T12:19:34Z</time><name>PT6945</name></trkpt>
<trkpt lat="53.198480" lon="-1.775307"><ele>257</ele><time>2020-01-31T12:19:36Z</time><name>PT6946</name></trkpt>
<trkpt lat="53.198480" lon="-1.775307"><ele>258</ele><time>2020-01-31T12:19:36Z</time><name>PT6947</name></trkpt>
<trkpt lat="53.198478" lon="-1.775311"><ele>259</ele><time>2020-01-31T12:19:37Z</time><name>PT6948</name></trkpt>
<trkpt lat="53.198477" lon="-1.775314"><ele>259</ele><time>2020-01-31T12:19:39Z</time><name>PT6949</name></trkpt>
<trkpt lat="53.198476" lon="-1.775322"><ele>260</ele><time>2020-01-31T12:19:39Z</time><name>PT6950</name></trkpt>
<trkpt lat="53.198478" lon="-1.775325"><ele>260</ele><time>2020-01-31T12:19:40Z</time><name>PT6951</name></trkpt>
<trkpt lat="53.198478" lon="-1.775324"><ele>260</ele><time>2020-01-31T12:19:42Z</time><name>PT6952</name></trkpt>
<trkpt lat="53.198479" lon="-1.775322"><ele>261</ele><time>2020-01-31T12:19:42Z</time><name>PT6953</name></trkpt>
<trkpt lat="53.198475" lon="-1.775332"><ele>261</ele><time>2020-01-31T12:19:48Z</time><name>PT6954</name></trkpt>
<trkpt lat="53.198477" lon="-1.775345"><ele>261</ele><time>2020-01-31T12:19:49Z</time><name>PT6955</name></trkpt>
<trkpt lat="53.198480" lon="-1.775357"><ele>261</ele><time>2020-01-31T12:19:51Z</time><name>PT6956</name></trkpt>
<trkpt lat="53.198483" lon="-1.775375"><ele>261</ele><time>2020-01-31T12:19:51Z</time><name>PT6957</name></trkpt>
<trkpt lat="53.198484" lon="-1.775386"><ele>260</ele><time>2020-01-31T12:19:52Z</time><name>PT6958</name></trkpt>
<trkpt lat="53.198485" lon="-1.775401"><ele>260</ele><time>2020-01-31T12:19:54Z</time><name>PT6959</name></trkpt>
<trkpt lat="53.198482" lon="-1.775416"><ele>260</ele><time>2020-01-31T12:19:54Z</time><name>PT6960</name></trkpt>
<trkpt lat="53.198474" lon="-1.775442"><ele>259</ele><time>2020-01-31T12:19:55Z</time><name>PT6961</name></trkpt>
<trkpt lat="53.198473" lon="-1.775457"><ele>260</ele><time>2020-01-31T12:19:57Z</time><name>PT6962</name></trkpt>
<trkpt lat="53.198479" lon="-1.775473"><ele>259</ele><time>2020-01-31T12:19:57Z</time><name>PT6963</name></trkpt>
<trkpt lat="53.198484" lon="-1.775493"><ele>260</ele><time>2020-01-31T12:19:58Z</time><name>PT6964</name></trkpt>
<trkpt lat="53.198487" lon="-1.775510"><ele>259</ele><time>2020-01-31T12:20:00Z</time><name>PT6965</name></trkpt>
<trkpt lat="53.198489" lon="-1.775527"><ele>260</ele><time>2020-01-31T12:20:00Z</time><name>PT6966</name></trkpt>
<trkpt lat="53.198494" lon="-1.775544"><ele>259</ele><time>2020-01-31T12:20:01Z</time><name>PT6967</name></trkpt>
<trkpt lat="53.198499" lon="-1.775562"><ele>259</ele><time>2020-01-31T12:20:03Z</time><name>PT6968</name></trkpt>
<trkpt lat="53.198506" lon="-1.775580"><ele>259</ele><time>2020-01-31T12:20:03Z</time><name>PT6969</name></trkpt>
<trkpt lat="53.198512" lon="-1.775594"><ele>260</ele><time>2020-01-31T12:20:04Z</time><name>PT6970</name></trkpt>
<trkpt lat="53.198518" lon="-1.775611"><ele>260</ele><time>2020-01-31T12:20:06Z</time><name>PT6971</name></trkpt>
<trkpt lat="53.198525" lon="-1.775632"><ele>260</ele><time>2020-01-31T12:20:06Z</time><name>PT6972</name></trkpt>
<trkpt lat="53.198530" lon="-1.775650"><ele>260</ele><time>2020-01-31T12:20:07Z</time><name>PT6973</name></trkpt>
<trkpt lat="53.198535" lon="-1.775666"><ele>260</ele><time>2020-01-31T12:20:09Z</time><name>PT6974</name></trkpt>
<trkpt lat="53.198536" lon="-1.775688"><ele>260</ele><time>2020-01-31T12:20:09Z</time><name>PT6975</name></trkpt>
<trkpt lat="53.198542" lon="-1.775705"><ele>260</ele><time>2020-01-31T12:20:10Z</time><name>PT6976</name></trkpt>
<trkpt lat="53.198549" lon="-1.775722"><ele>260</ele><time>2020-01-31T12:20:12Z</time><name>PT6977</name></trkpt>
<trkpt lat="53.198553" lon="-1.775736"><ele>260</ele><time>2020-01-31T12:20:12Z</time><name>PT6978</name></trkpt>
<trkpt lat="53.198559" lon="-1.775751"><ele>261</ele><time>2020-01-31T12:20:13Z</time><name>PT6979</name></trkpt>
<trkpt lat="53.198566" lon="-1.775768"><ele>261</ele><time>2020-01-31T12:20:15Z</time><name>PT6980</name></trkpt>
<trkpt lat="53.198572" lon="-1.775786"><ele>261</ele><time>2020-01-31T12:20:15Z</time><name>PT6981</name></trkpt>
<trkpt lat="53.198576" lon="-1.775804"><ele>261</ele><time>2020-01-31T12:20:16Z</time><name>PT6982</name></trkpt>
<trkpt lat="53.198580" lon="-1.775820"><ele>260</ele><time>2020-01-31T12:20:18Z</time><name>PT6983</name></trkpt>
<trkpt lat="53.198586" lon="-1.775837"><ele>262</ele><time>2020-01-31T12:20:18Z</time><name>PT6984</name></trkpt>
<trkpt lat="53.198589" lon="-1.775851"><ele>262</ele><time>2020-01-31T12:20:19Z</time><name>PT6985</name></trkpt>
<trkpt lat="53.198591" lon="-1.775873"><ele>262</ele><time>2020-01-31T12:20:21Z</time><name>PT6986</name></trkpt>
<trkpt lat="53.198595" lon="-1.775896"><ele>262</ele><time>2020-01-31T12:20:21Z</time><name>PT6987</name></trkpt>
<trkpt lat="53.198598" lon="-1.775911"><ele>261</ele><time>2020-01-31T12:20:22Z</time><name>PT6988</name></trkpt>
<trkpt lat="53.198601" lon="-1.775922"><ele>261</ele><time>2020-01-31T12:20:24Z</time><name>PT6989</name></trkpt>
<trkpt lat="53.198605" lon="-1.775939"><ele>262</ele><time>2020-01-31T12:20:24Z</time><name>PT6990</name></trkpt>
<trkpt lat="53.198613" lon="-1.775951"><ele>262</ele><time>2020-01-31T12:20:25Z</time><name>PT6991</name></trkpt>
<trkpt lat="53.198620" lon="-1.775962"><ele>262</ele><time>2020-01-31T12:20:27Z</time><name>PT6992</name></trkpt>
<trkpt lat="53.198626" lon="-1.775975"><ele>262</ele><time>2020-01-31T12:20:27Z</time><name>PT6993</name></trkpt>
<trkpt lat="53.198629" lon="-1.775987"><ele>262</ele><time>2020-01-31T12:20:28Z</time><name>PT6994</name></trkpt>
<trkpt lat="53.198631" lon="-1.775991"><ele>261</ele><time>2020-01-31T12:20:30Z</time><name>PT6995</name></trkpt>
<trkpt lat="53.198633" lon="-1.775994"><ele>260</ele><time>2020-01-31T12:20:30Z</time><name>PT6996</name></trkpt>
<trkpt lat="53.198635" lon="-1.776000"><ele>260</ele><time>2020-01-31T12:20:31Z</time><name>PT6997</name></trkpt>
<trkpt lat="53.198634" lon="-1.776007"><ele>259</ele><time>2020-01-31T12:20:33Z</time><name>PT6998</name></trkpt>
<trkpt lat="53.198636" lon="-1.776009"><ele>259</ele><time>2020-01-31T12:20:33Z</time><name>PT6999</name></trkpt>
<trkpt lat="53.198643" lon="-1.776009"><ele>258</ele><time>2020-01-31T12:20:34Z</time><name>PT7000</name></trkpt>
<trkpt lat="53.198646" lon="-1.776005"><ele>259</ele><time>2020-01-31T12:20:36Z</time><name>PT7001</name></trkpt>
<trkpt lat="53.198648" lon="-1.776003"><ele>259</ele><time>2020-01-31T12:20:36Z</time><name>PT7002</name></trkpt>
<trkpt lat="53.198655" lon="-1.776009"><ele>259</ele><time>2020-01-31T12:20:37Z</time><name>PT7003</name></trkpt>
<trkpt lat="53.198666" lon="-1.776012"><ele>260</ele><time>2020-01-31T12:20:39Z</time><name>PT7004</name></trkpt>
<trkpt lat="53.198673" lon="-1.776019"><ele>260</ele><time>2020-01-31T12:20:39Z</time><name>PT7005</name></trkpt>
<trkpt lat="53.198681" lon="-1.776025"><ele>260</ele><time>2020-01-31T12:20:40Z</time><name>PT7006</name></trkpt>
<trkpt lat="53.198689" lon="-1.776027"><ele>260</ele><time>2020-01-31T12:20:42Z</time><name>PT7007</name></trkpt>
<trkpt lat="53.198693" lon="-1.776032"><ele>261</ele><time>2020-01-31T12:20:42Z</time><name>PT7008</name></trkpt>
<trkpt lat="53.198694" lon="-1.776037"><ele>260</ele><time>2020-01-31T12:20:43Z</time><name>PT7009</name></trkpt>
<trkpt lat="53.198693" lon="-1.776043"><ele>260</ele><time>2020-01-31T12:20:45Z</time><name>PT7010</name></trkpt>
<trkpt lat="53.198696" lon="-1.776046"><ele>261</ele><time>2020-01-31T12:20:45Z</time><name>PT7011</name></trkpt>
<trkpt lat="53.198696" lon="-1.776052"><ele>261</ele><time>2020-01-31T12:20:46Z</time><name>PT7012</name></trkpt>
<trkpt lat="53.198695" lon="-1.776058"><ele>261</ele><time>2020-01-31T12:20:48Z</time><name>PT7013</name></trkpt>
<trkpt lat="53.198698" lon="-1.776060"><ele>261</ele><time>2020-01-31T12:20:49Z</time><name>PT7014</name></trkpt>
<trkpt lat="53.198697" lon="-1.776064"><ele>261</ele><time>2020-01-31T12:20:51Z</time><name>PT7015</name></trkpt>
<trkpt lat="53.198695" lon="-1.776066"><ele>261</ele><time>2020-01-31T12:20:51Z</time><name>PT7016</name></trkpt>
<trkpt lat="53.198697" lon="-1.776066"><ele>261</ele><time>2020-01-31T12:20:52Z</time><name>PT7017</name></trkpt>
<trkpt lat="53.198703" lon="-1.776076"><ele>261</ele><time>2020-01-31T12:20:54Z</time><name>PT7018</name></trkpt>
<trkpt lat="53.198706" lon="-1.776080"><ele>261</ele><time>2020-01-31T12:20:55Z</time><name>PT7019</name></trkpt>
<trkpt lat="53.198724" lon="-1.776106"><ele>262</ele><time>2020-01-31T12:20:57Z</time><name>PT7020</name></trkpt>
<trkpt lat="53.198726" lon="-1.776106"><ele>262</ele><time>2020-01-31T12:20:57Z</time><name>PT7021</name></trkpt>
<trkpt lat="53.198729" lon="-1.776106"><ele>261</ele><time>2020-01-31T12:20:58Z</time><name>PT7022</name></trkpt>
<trkpt lat="53.198727" lon="-1.776098"><ele>262</ele><time>2020-01-31T12:21:00Z</time><name>PT7023</name></trkpt>
<trkpt lat="53.198722" lon="-1.776092"><ele>262</ele><time>2020-01-31T12:21:00Z</time><name>PT7024</name></trkpt>
<trkpt lat="53.198723" lon="-1.776090"><ele>262</ele><time>2020-01-31T12:21:01Z</time><name>PT7025</name></trkpt>
<trkpt lat="53.198722" lon="-1.776088"><ele>263</ele><time>2020-01-31T12:21:03Z</time><name>PT7026</name></trkpt>
<trkpt lat="53.198725" lon="-1.776080"><ele>262</ele><time>2020-01-31T12:21:09Z</time><name>PT7027</name></trkpt>
<trkpt lat="53.198726" lon="-1.776079"><ele>263</ele><time>2020-01-31T12:21:11Z</time><name>PT7028</name></trkpt>
<trkpt lat="53.198725" lon="-1.776084"><ele>263</ele><time>2020-01-31T12:21:12Z</time><name>PT7029</name></trkpt>
<trkpt lat="53.198725" lon="-1.776080"><ele>263</ele><time>2020-01-31T12:21:12Z</time><name>PT7030</name></trkpt>
<trkpt lat="53.198726" lon="-1.776075"><ele>263</ele><time>2020-01-31T12:21:13Z</time><name>PT7031</name></trkpt>
<trkpt lat="53.198726" lon="-1.776077"><ele>263</ele><time>2020-01-31T12:21:34Z</time><name>PT7032</name></trkpt>
<trkpt lat="53.198729" lon="-1.776071"><ele>263</ele><time>2020-01-31T12:21:36Z</time><name>PT7033</name></trkpt>
<trkpt lat="53.198734" lon="-1.776061"><ele>263</ele><time>2020-01-31T12:21:36Z</time><name>PT7034</name></trkpt>
<trkpt lat="53.198739" lon="-1.776049"><ele>263</ele><time>2020-01-31T12:21:37Z</time><name>PT7035</name></trkpt>
<trkpt lat="53.198743" lon="-1.776037"><ele>263</ele><time>2020-01-31T12:21:39Z</time><name>PT7036</name></trkpt>
<trkpt lat="53.198746" lon="-1.776023"><ele>263</ele><time>2020-01-31T12:21:39Z</time><name>PT7037</name></trkpt>
<trkpt lat="53.198749" lon="-1.776005"><ele>263</ele><time>2020-01-31T12:21:40Z</time><name>PT7038</name></trkpt>
<trkpt lat="53.198749" lon="-1.775984"><ele>264</ele><time>2020-01-31T12:21:42Z</time><name>PT7039</name></trkpt>
<trkpt lat="53.198751" lon="-1.775964"><ele>264</ele><time>2020-01-31T12:21:42Z</time><name>PT7040</name></trkpt>
<trkpt lat="53.198755" lon="-1.775942"><ele>264</ele><time>2020-01-31T12:21:43Z</time><name>PT7041</name></trkpt>
<trkpt lat="53.198761" lon="-1.775930"><ele>263</ele><time>2020-01-31T12:21:45Z</time><name>PT7042</name></trkpt>
<trkpt lat="53.198765" lon="-1.775920"><ele>263</ele><time>2020-01-31T12:21:45Z</time><name>PT7043</name></trkpt>
<trkpt lat="53.198765" lon="-1.775907"><ele>263</ele><time>2020-01-31T12:21:46Z</time><name>PT7044</name></trkpt>
<trkpt lat="53.198768" lon="-1.775889"><ele>262</ele><time>2020-01-31T12:21:48Z</time><name>PT7045</name></trkpt>
<trkpt lat="53.198773" lon="-1.775876"><ele>262</ele><time>2020-01-31T12:21:48Z</time><name>PT7046</name></trkpt>
<trkpt lat="53.198774" lon="-1.775858"><ele>262</ele><time>2020-01-31T12:21:49Z</time><name>PT7047</name></trkpt>
<trkpt lat="53.198779" lon="-1.775847"><ele>262</ele><time>2020-01-31T12:21:51Z</time><name>PT7048</name></trkpt>
<trkpt lat="53.198782" lon="-1.775831"><ele>262</ele><time>2020-01-31T12:21:51Z</time><name>PT7049</name></trkpt>
<trkpt lat="53.198784" lon="-1.775817"><ele>262</ele><time>2020-01-31T12:21:52Z</time><name>PT7050</name></trkpt>
<trkpt lat="53.198786" lon="-1.775806"><ele>263</ele><time>2020-01-31T12:21:54Z</time><name>PT7051</name></trkpt>
<trkpt lat="53.198788" lon="-1.775791"><ele>262</ele><time>2020-01-31T12:21:54Z</time><name>PT7052</name></trkpt>
<trkpt lat="53.198794" lon="-1.775767"><ele>263</ele><time>2020-01-31T12:21:55Z</time><name>PT7053</name></trkpt>
<trkpt lat="53.198804" lon="-1.775748"><ele>263</ele><time>2020-01-31T12:21:57Z</time><name>PT7054</name></trkpt>
<trkpt lat="53.198810" lon="-1.775731"><ele>262</ele><time>2020-01-31T12:21:57Z</time><name>PT7055</name></trkpt>
<trkpt lat="53.198816" lon="-1.775711"><ele>262</ele><time>2020-01-31T12:21:58Z</time><name>PT7056</name></trkpt>
<trkpt lat="53.198823" lon="-1.775688"><ele>262</ele><time>2020-01-31T12:22:00Z</time><name>PT7057</name></trkpt>
<trkpt lat="53.198826" lon="-1.775666"><ele>262</ele><time>2020-01-31T12:22:00Z</time><name>PT7058</name></trkpt>
<trkpt lat="53.198834" lon="-1.775650"><ele>262</ele><time>2020-01-31T12:22:01Z</time><name>PT7059</name></trkpt>
<trkpt lat="53.198835" lon="-1.775638"><ele>262</ele><time>2020-01-31T12:22:03Z</time><name>PT7060</name></trkpt>
<trkpt lat="53.198838" lon="-1.775620"><ele>262</ele><time>2020-01-31T12:22:03Z</time><name>PT7061</name></trkpt>
<trkpt lat="53.198838" lon="-1.775600"><ele>262</ele><time>2020-01-31T12:22:04Z</time><name>PT7062</name></trkpt>
<trkpt lat="53.198839" lon="-1.775582"><ele>261</ele><time>2020-01-31T12:22:06Z</time><name>PT7063</name></trkpt>
<trkpt lat="53.198840" lon="-1.775565"><ele>261</ele><time>2020-01-31T12:22:06Z</time><name>PT7064</name></trkpt>
<trkpt lat="53.198843" lon="-1.775548"><ele>262</ele><time>2020-01-31T12:22:07Z</time><name>PT7065</name></trkpt>
<trkpt lat="53.198854" lon="-1.775542"><ele>261</ele><time>2020-01-31T12:22:09Z</time><name>PT7066</name></trkpt>
<trkpt lat="53.198863" lon="-1.775524"><ele>260</ele><time>2020-01-31T12:22:09Z</time><name>PT7067</name></trkpt>
<trkpt lat="53.198866" lon="-1.775508"><ele>260</ele><time>2020-01-31T12:22:10Z</time><name>PT7068</name></trkpt>
<trkpt lat="53.198871" lon="-1.775492"><ele>259</ele><time>2020-01-31T12:22:12Z</time><name>PT7069</name></trkpt>
<trkpt lat="53.198875" lon="-1.775485"><ele>258</ele><time>2020-01-31T12:22:12Z</time><name>PT7070</name></trkpt>
<trkpt lat="53.198882" lon="-1.775476"><ele>257</ele><time>2020-01-31T12:22:13Z</time><name>PT7071</name></trkpt>
<trkpt lat="53.198886" lon="-1.775459"><ele>258</ele><time>2020-01-31T12:22:15Z</time><name>PT7072</name></trkpt>
<trkpt lat="53.198894" lon="-1.775436"><ele>259</ele><time>2020-01-31T12:22:15Z</time><name>PT7073</name></trkpt>
<trkpt lat="53.198902" lon="-1.775417"><ele>259</ele><time>2020-01-31T12:22:16Z</time><name>PT7074</name></trkpt>
<trkpt lat="53.198905" lon="-1.775402"><ele>258</ele><time>2020-01-31T12:22:18Z</time><name>PT7075</name></trkpt>
<trkpt lat="53.198912" lon="-1.775391"><ele>258</ele><time>2020-01-31T12:22:18Z</time><name>PT7076</name></trkpt>
<trkpt lat="53.198919" lon="-1.775375"><ele>257</ele><time>2020-01-31T12:22:19Z</time><name>PT7077</name></trkpt>
<trkpt lat="53.198920" lon="-1.775358"><ele>258</ele><time>2020-01-31T12:22:21Z</time><name>PT7078</name></trkpt>
<trkpt lat="53.198924" lon="-1.775345"><ele>258</ele><time>2020-01-31T12:22:21Z</time><name>PT7079</name></trkpt>
<trkpt lat="53.198925" lon="-1.775331"><ele>257</ele><time>2020-01-31T12:22:22Z</time><name>PT7080</name></trkpt>
<trkpt lat="53.198933" lon="-1.775319"><ele>257</ele><time>2020-01-31T12:22:24Z</time><name>PT7081</name></trkpt>
<trkpt lat="53.198936" lon="-1.775294"><ele>258</ele><time>2020-01-31T12:22:24Z</time><name>PT7082</name></trkpt>
<trkpt lat="53.198936" lon="-1.775270"><ele>257</ele><time>2020-01-31T12:22:25Z</time><name>PT7083</name></trkpt>
<trkpt lat="53.198938" lon="-1.775249"><ele>257</ele><time>2020-01-31T12:22:27Z</time><name>PT7084</name></trkpt>
<trkpt lat="53.198938" lon="-1.775234"><ele>256</ele><time>2020-01-31T12:22:27Z</time><name>PT7085</name></trkpt>
<trkpt lat="53.198940" lon="-1.775214"><ele>256</ele><time>2020-01-31T12:22:28Z</time><name>PT7086</name></trkpt>
<trkpt lat="53.198946" lon="-1.775181"><ele>256</ele><time>2020-01-31T12:22:30Z</time><name>PT7087</name></trkpt>
<trkpt lat="53.198948" lon="-1.775152"><ele>257</ele><time>2020-01-31T12:22:30Z</time><name>PT7088</name></trkpt>
<trkpt lat="53.198953" lon="-1.775131"><ele>257</ele><time>2020-01-31T12:22:31Z</time><name>PT7089</name></trkpt>
<trkpt lat="53.198956" lon="-1.775116"><ele>257</ele><time>2020-01-31T12:22:33Z</time><name>PT7090</name></trkpt>
<trkpt lat="53.198962" lon="-1.775096"><ele>257</ele><time>2020-01-31T12:22:33Z</time><name>PT7091</name></trkpt>
<trkpt lat="53.198967" lon="-1.775073"><ele>258</ele><time>2020-01-31T12:22:34Z</time><name>PT7092</name></trkpt>
<trkpt lat="53.198971" lon="-1.775049"><ele>258</ele><time>2020-01-31T12:22:36Z</time><name>PT7093</name></trkpt>
<trkpt lat="53.198977" lon="-1.775031"><ele>258</ele><time>2020-01-31T12:22:36Z</time><name>PT7094</name></trkpt>
<trkpt lat="53.198977" lon="-1.775016"><ele>258</ele><time>2020-01-31T12:22:37Z</time><name>PT7095</name></trkpt>
<trkpt lat="53.198979" lon="-1.775000"><ele>258</ele><time>2020-01-31T12:22:39Z</time><name>PT7096</name></trkpt>
<trkpt lat="53.198981" lon="-1.774986"><ele>258</ele><time>2020-01-31T12:22:39Z</time><name>PT7097</name></trkpt>
<trkpt lat="53.198983" lon="-1.774966"><ele>258</ele><time>2020-01-31T12:22:40Z</time><name>PT7098</name></trkpt>
<trkpt lat="53.198984" lon="-1.774952"><ele>258</ele><time>2020-01-31T12:22:42Z</time><name>PT7099</name></trkpt>
<trkpt lat="53.198981" lon="-1.774936"><ele>258</ele><time>2020-01-31T12:22:42Z</time><name>PT7100</name></trkpt>
<trkpt lat="53.198979" lon="-1.774920"><ele>258</ele><time>2020-01-31T12:22:43Z</time><name>PT7101</name></trkpt>
<trkpt lat="53.198980" lon="-1.774900"><ele>258</ele><time>2020-01-31T12:22:45Z</time><name>PT7102</name></trkpt>
<trkpt lat="53.198980" lon="-1.774878"><ele>258</ele><time>2020-01-31T12:22:45Z</time><name>PT7103</name></trkpt>
<trkpt lat="53.198983" lon="-1.774850"><ele>258</ele><time>2020-01-31T12:22:46Z</time><name>PT7104</name></trkpt>
<trkpt lat="53.198981" lon="-1.774822"><ele>259</ele><time>2020-01-31T12:22:48Z</time><name>PT7105</name></trkpt>
<trkpt lat="53.198978" lon="-1.774795"><ele>259</ele><time>2020-01-31T12:22:48Z</time><name>PT7106</name></trkpt>
<trkpt lat="53.198976" lon="-1.774769"><ele>259</ele><time>2020-01-31T12:22:49Z</time><name>PT7107</name></trkpt>
<trkpt lat="53.198972" lon="-1.774744"><ele>259</ele><time>2020-01-31T12:22:51Z</time><name>PT7108</name></trkpt>
<trkpt lat="53.198975" lon="-1.774717"><ele>260</ele><time>2020-01-31T12:22:51Z</time><name>PT7109</name></trkpt>
<trkpt lat="53.198972" lon="-1.774694"><ele>260</ele><time>2020-01-31T12:22:53Z</time><name>PT7110</name></trkpt>
<trkpt lat="53.198972" lon="-1.774662"><ele>261</ele><time>2020-01-31T12:22:54Z</time><name>PT7111</name></trkpt>
<trkpt lat="53.198971" lon="-1.774636"><ele>261</ele><time>2020-01-31T12:22:54Z</time><name>PT7112</name></trkpt>
<trkpt lat="53.198970" lon="-1.774604"><ele>262</ele><time>2020-01-31T12:22:55Z</time><name>PT7113</name></trkpt>
<trkpt lat="53.198974" lon="-1.774579"><ele>262</ele><time>2020-01-31T12:22:57Z</time><name>PT7114</name></trkpt>
<trkpt lat="53.198975" lon="-1.774556"><ele>263</ele><time>2020-01-31T12:22:57Z</time><name>PT7115</name></trkpt>
<trkpt lat="53.198973" lon="-1.774530"><ele>263</ele><time>2020-01-31T12:22:58Z</time><name>PT7116</name></trkpt>
<trkpt lat="53.198973" lon="-1.774506"><ele>264</ele><time>2020-01-31T12:23:00Z</time><name>PT7117</name></trkpt>
<trkpt lat="53.198975" lon="-1.774482"><ele>264</ele><time>2020-01-31T12:23:00Z</time><name>PT7118</name></trkpt>
<trkpt lat="53.198979" lon="-1.774458"><ele>264</ele><time>2020-01-31T12:23:01Z</time><name>PT7119</name></trkpt>
<trkpt lat="53.198980" lon="-1.774436"><ele>264</ele><time>2020-01-31T12:23:03Z</time><name>PT7120</name></trkpt>
<trkpt lat="53.198981" lon="-1.774414"><ele>264</ele><time>2020-01-31T12:23:03Z</time><name>PT7121</name></trkpt>
<trkpt lat="53.198983" lon="-1.774390"><ele>265</ele><time>2020-01-31T12:23:04Z</time><name>PT7122</name></trkpt>
<trkpt lat="53.198989" lon="-1.774379"><ele>264</ele><time>2020-01-31T12:23:06Z</time><name>PT7123</name></trkpt>
<trkpt lat="53.198997" lon="-1.774371"><ele>265</ele><time>2020-01-31T12:23:06Z</time><name>PT7124</name></trkpt>
<trkpt lat="53.199004" lon="-1.774359"><ele>265</ele><time>2020-01-31T12:23:07Z</time><name>PT7125</name></trkpt>
<trkpt lat="53.199008" lon="-1.774349"><ele>265</ele><time>2020-01-31T12:23:09Z</time><name>PT7126</name></trkpt>
<trkpt lat="53.199013" lon="-1.774335"><ele>265</ele><time>2020-01-31T12:23:09Z</time><name>PT7127</name></trkpt>
<trkpt lat="53.199017" lon="-1.774322"><ele>265</ele><time>2020-01-31T12:23:10Z</time><name>PT7128</name></trkpt>
<trkpt lat="53.199020" lon="-1.774302"><ele>265</ele><time>2020-01-31T12:23:12Z</time><name>PT7129</name></trkpt>
<trkpt lat="53.199025" lon="-1.774287"><ele>265</ele><time>2020-01-31T12:23:12Z</time><name>PT7130</name></trkpt>
<trkpt lat="53.199026" lon="-1.774265"><ele>265</ele><time>2020-01-31T12:23:13Z</time><name>PT7131</name></trkpt>
<trkpt lat="53.199025" lon="-1.774255"><ele>265</ele><time>2020-01-31T12:23:15Z</time><name>PT7132</name></trkpt>
<trkpt lat="53.199023" lon="-1.774242"><ele>265</ele><time>2020-01-31T12:23:15Z</time><name>PT7133</name></trkpt>
<trkpt lat="53.199022" lon="-1.774232"><ele>265</ele><time>2020-01-31T12:23:16Z</time><name>PT7134</name></trkpt>
<trkpt lat="53.199024" lon="-1.774216"><ele>265</ele><time>2020-01-31T12:23:18Z</time><name>PT7135</name></trkpt>
<trkpt lat="53.199027" lon="-1.774199"><ele>265</ele><time>2020-01-31T12:23:18Z</time><name>PT7136</name></trkpt>
<trkpt lat="53.199026" lon="-1.774180"><ele>265</ele><time>2020-01-31T12:23:19Z</time><name>PT7137</name></trkpt>
<trkpt lat="53.199025" lon="-1.774162"><ele>265</ele><time>2020-01-31T12:23:21Z</time><name>PT7138</name></trkpt>
<trkpt lat="53.199029" lon="-1.774142"><ele>265</ele><time>2020-01-31T12:23:21Z</time><name>PT7139</name></trkpt>
<trkpt lat="53.199031" lon="-1.774123"><ele>265</ele><time>2020-01-31T12:23:22Z</time><name>PT7140</name></trkpt>
<trkpt lat="53.199031" lon="-1.774105"><ele>265</ele><time>2020-01-31T12:23:24Z</time><name>PT7141</name></trkpt>
<trkpt lat="53.199029" lon="-1.774083"><ele>265</ele><time>2020-01-31T12:23:24Z</time><name>PT7142</name></trkpt>
<trkpt lat="53.199030" lon="-1.774066"><ele>265</ele><time>2020-01-31T12:23:25Z</time><name>PT7143</name></trkpt>
<trkpt lat="53.199034" lon="-1.774044"><ele>265</ele><time>2020-01-31T12:23:27Z</time><name>PT7144</name></trkpt>
<trkpt lat="53.199038" lon="-1.774024"><ele>265</ele><time>2020-01-31T12:23:27Z</time><name>PT7145</name></trkpt>
<trkpt lat="53.199039" lon="-1.774002"><ele>265</ele><time>2020-01-31T12:23:28Z</time><name>PT7146</name></trkpt>
<trkpt lat="53.199041" lon="-1.773982"><ele>265</ele><time>2020-01-31T12:23:30Z</time><name>PT7147</name></trkpt>
<trkpt lat="53.199046" lon="-1.773964"><ele>265</ele><time>2020-01-31T12:23:30Z</time><name>PT7148</name></trkpt>
<trkpt lat="53.199050" lon="-1.773945"><ele>265</ele><time>2020-01-31T12:23:31Z</time><name>PT7149</name></trkpt>
<trkpt lat="53.199056" lon="-1.773926"><ele>265</ele><time>2020-01-31T12:23:33Z</time><name>PT7150</name></trkpt>
<trkpt lat="53.199061" lon="-1.773905"><ele>265</ele><time>2020-01-31T12:23:33Z</time><name>PT7151</name></trkpt>
<trkpt lat="53.199066" lon="-1.773886"><ele>266</ele><time>2020-01-31T12:23:34Z</time><name>PT7152</name></trkpt>
<trkpt lat="53.199066" lon="-1.773868"><ele>266</ele><time>2020-01-31T12:23:36Z</time><name>PT7153</name></trkpt>
<trkpt lat="53.199073" lon="-1.773860"><ele>267</ele><time>2020-01-31T12:23:36Z</time><name>PT7154</name></trkpt>
<trkpt lat="53.199079" lon="-1.773848"><ele>267</ele><time>2020-01-31T12:23:37Z</time><name>PT7155</name></trkpt>
<trkpt lat="53.199082" lon="-1.773833"><ele>267</ele><time>2020-01-31T12:23:39Z</time><name>PT7156</name></trkpt>
<trkpt lat="53.199089" lon="-1.773814"><ele>267</ele><time>2020-01-31T12:23:39Z</time><name>PT7157</name></trkpt>
<trkpt lat="53.199093" lon="-1.773796"><ele>267</ele><time>2020-01-31T12:23:40Z</time><name>PT7158</name></trkpt>
<trkpt lat="53.199095" lon="-1.773779"><ele>267</ele><time>2020-01-31T12:23:42Z</time><name>PT7159</name></trkpt>
<trkpt lat="53.199098" lon="-1.773762"><ele>267</ele><time>2020-01-31T12:23:42Z</time><name>PT7160</name></trkpt>
<trkpt lat="53.199104" lon="-1.773746"><ele>267</ele><time>2020-01-31T12:23:43Z</time><name>PT7161</name></trkpt>
<trkpt lat="53.199108" lon="-1.773730"><ele>267</ele><time>2020-01-31T12:23:45Z</time><name>PT7162</name></trkpt>
<trkpt lat="53.199112" lon="-1.773711"><ele>267</ele><time>2020-01-31T12:23:45Z</time><name>PT7163</name></trkpt>
<trkpt lat="53.199116" lon="-1.773693"><ele>267</ele><time>2020-01-31T12:23:46Z</time><name>PT7164</name></trkpt>
<trkpt lat="53.199122" lon="-1.773676"><ele>267</ele><time>2020-01-31T12:23:48Z</time><name>PT7165</name></trkpt>
<trkpt lat="53.199129" lon="-1.773661"><ele>267</ele><time>2020-01-31T12:23:48Z</time><name>PT7166</name></trkpt>
<trkpt lat="53.199136" lon="-1.773646"><ele>267</ele><time>2020-01-31T12:23:49Z</time><name>PT7167</name></trkpt>
<trkpt lat="53.199142" lon="-1.773629"><ele>267</ele><time>2020-01-31T12:23:51Z</time><name>PT7168</name></trkpt>
<trkpt lat="53.199146" lon="-1.773607"><ele>268</ele><time>2020-01-31T12:23:51Z</time><name>PT7169</name></trkpt>
<trkpt lat="53.199153" lon="-1.773587"><ele>268</ele><time>2020-01-31T12:23:52Z</time><name>PT7170</name></trkpt>
<trkpt lat="53.199159" lon="-1.773574"><ele>268</ele><time>2020-01-31T12:23:54Z</time><name>PT7171</name></trkpt>
<trkpt lat="53.199165" lon="-1.773558"><ele>268</ele><time>2020-01-31T12:23:54Z</time><name>PT7172</name></trkpt>
<trkpt lat="53.199165" lon="-1.773544"><ele>268</ele><time>2020-01-31T12:23:55Z</time><name>PT7173</name></trkpt>
<trkpt lat="53.199169" lon="-1.773524"><ele>268</ele><time>2020-01-31T12:23:57Z</time><name>PT7174</name></trkpt>
<trkpt lat="53.199172" lon="-1.773507"><ele>268</ele><time>2020-01-31T12:23:57Z</time><name>PT7175</name></trkpt>
<trkpt lat="53.199177" lon="-1.773489"><ele>268</ele><time>2020-01-31T12:23:58Z</time><name>PT7176</name></trkpt>
<trkpt lat="53.199182" lon="-1.773471"><ele>268</ele><time>2020-01-31T12:24:00Z</time><name>PT7177</name></trkpt>
<trkpt lat="53.199189" lon="-1.773455"><ele>268</ele><time>2020-01-31T12:24:00Z</time><name>PT7178</name></trkpt>
<trkpt lat="53.199196" lon="-1.773437"><ele>269</ele><time>2020-01-31T12:24:01Z</time><name>PT7179</name></trkpt>
<trkpt lat="53.199202" lon="-1.773420"><ele>269</ele><time>2020-01-31T12:24:03Z</time><name>PT7180</name></trkpt>
<trkpt lat="53.199210" lon="-1.773403"><ele>269</ele><time>2020-01-31T12:24:03Z</time><name>PT7181</name></trkpt>
<trkpt lat="53.199218" lon="-1.773387"><ele>269</ele><time>2020-01-31T12:24:04Z</time><name>PT7182</name></trkpt>
<trkpt lat="53.199223" lon="-1.773372"><ele>269</ele><time>2020-01-31T12:24:06Z</time><name>PT7183</name></trkpt>
<trkpt lat="53.199228" lon="-1.773356"><ele>269</ele><time>2020-01-31T12:24:06Z</time><name>PT7184</name></trkpt>
<trkpt lat="53.199234" lon="-1.773340"><ele>269</ele><time>2020-01-31T12:24:07Z</time><name>PT7185</name></trkpt>
<trkpt lat="53.199240" lon="-1.773328"><ele>269</ele><time>2020-01-31T12:24:09Z</time><name>PT7186</name></trkpt>
<trkpt lat="53.199246" lon="-1.773313"><ele>269</ele><time>2020-01-31T12:24:09Z</time><name>PT7187</name></trkpt>
<trkpt lat="53.199251" lon="-1.773298"><ele>269</ele><time>2020-01-31T12:24:10Z</time><name>PT7188</name></trkpt>
<trkpt lat="53.199256" lon="-1.773276"><ele>269</ele><time>2020-01-31T12:24:12Z</time><name>PT7189</name></trkpt>
<trkpt lat="53.199261" lon="-1.773260"><ele>269</ele><time>2020-01-31T12:24:12Z</time><name>PT7190</name></trkpt>
<trkpt lat="53.199269" lon="-1.773243"><ele>269</ele><time>2020-01-31T12:24:13Z</time><name>PT7191</name></trkpt>
<trkpt lat="53.199275" lon="-1.773228"><ele>269</ele><time>2020-01-31T12:24:15Z</time><name>PT7192</name></trkpt>
<trkpt lat="53.199282" lon="-1.773213"><ele>270</ele><time>2020-01-31T12:24:15Z</time><name>PT7193</name></trkpt>
<trkpt lat="53.199289" lon="-1.773197"><ele>270</ele><time>2020-01-31T12:24:16Z</time><name>PT7194</name></trkpt>
<trkpt lat="53.199293" lon="-1.773181"><ele>270</ele><time>2020-01-31T12:24:18Z</time><name>PT7195</name></trkpt>
<trkpt lat="53.199296" lon="-1.773163"><ele>270</ele><time>2020-01-31T12:24:18Z</time><name>PT7196</name></trkpt>
<trkpt lat="53.199301" lon="-1.773147"><ele>270</ele><time>2020-01-31T12:24:19Z</time><name>PT7197</name></trkpt>
<trkpt lat="53.199306" lon="-1.773129"><ele>270</ele><time>2020-01-31T12:24:21Z</time><name>PT7198</name></trkpt>
<trkpt lat="53.199309" lon="-1.773114"><ele>270</ele><time>2020-01-31T12:24:21Z</time><name>PT7199</name></trkpt>
<trkpt lat="53.199313" lon="-1.773099"><ele>270</ele><time>2020-01-31T12:24:22Z</time><name>PT7200</name></trkpt>
<trkpt lat="53.199318" lon="-1.773086"><ele>270</ele><time>2020-01-31T12:24:24Z</time><name>PT7201</name></trkpt>
<trkpt lat="53.199324" lon="-1.773072"><ele>270</ele><time>2020-01-31T12:24:24Z</time><name>PT7202</name></trkpt>
<trkpt lat="53.199329" lon="-1.773054"><ele>270</ele><time>2020-01-31T12:24:25Z</time><name>PT7203</name></trkpt>
<trkpt lat="53.199335" lon="-1.773038"><ele>270</ele><time>2020-01-31T12:24:27Z</time><name>PT7204</name></trkpt>
<trkpt lat="53.199341" lon="-1.773021"><ele>270</ele><time>2020-01-31T12:24:27Z</time><name>PT7205</name></trkpt>
<trkpt lat="53.199346" lon="-1.773007"><ele>270</ele><time>2020-01-31T12:24:28Z</time><name>PT7206</name></trkpt>
<trkpt lat="53.199350" lon="-1.772994"><ele>270</ele><time>2020-01-31T12:24:30Z</time><name>PT7207</name></trkpt>
<trkpt lat="53.199356" lon="-1.772979"><ele>270</ele><time>2020-01-31T12:24:30Z</time><name>PT7208</name></trkpt>
<trkpt lat="53.199362" lon="-1.772961"><ele>270</ele><time>2020-01-31T12:24:31Z</time><name>PT7209</name></trkpt>
<trkpt lat="53.199369" lon="-1.772943"><ele>270</ele><time>2020-01-31T12:24:33Z</time><name>PT7210</name></trkpt>
<trkpt lat="53.199376" lon="-1.772927"><ele>270</ele><time>2020-01-31T12:24:33Z</time><name>PT7211</name></trkpt>
<trkpt lat="53.199383" lon="-1.772910"><ele>270</ele><time>2020-01-31T12:24:34Z</time><name>PT7212</name></trkpt>
<trkpt lat="53.199389" lon="-1.772894"><ele>270</ele><time>2020-01-31T12:24:36Z</time><name>PT7213</name></trkpt>
<trkpt lat="53.199397" lon="-1.772873"><ele>270</ele><time>2020-01-31T12:24:36Z</time><name>PT7214</name></trkpt>
<trkpt lat="53.199402" lon="-1.772855"><ele>270</ele><time>2020-01-31T12:24:37Z</time><name>PT7215</name></trkpt>
<trkpt lat="53.199407" lon="-1.772835"><ele>270</ele><time>2020-01-31T12:24:39Z</time><name>PT7216</name></trkpt>
<trkpt lat="53.199414" lon="-1.772818"><ele>271</ele><time>2020-01-31T12:24:39Z</time><name>PT7217</name></trkpt>
<trkpt lat="53.199418" lon="-1.772802"><ele>271</ele><time>2020-01-31T12:24:40Z</time><name>PT7218</name></trkpt>
<trkpt lat="53.199422" lon="-1.772784"><ele>270</ele><time>2020-01-31T12:24:42Z</time><name>PT7219</name></trkpt>
<trkpt lat="53.199426" lon="-1.772763"><ele>270</ele><time>2020-01-31T12:24:42Z</time><name>PT7220</name></trkpt>
<trkpt lat="53.199433" lon="-1.772744"><ele>270</ele><time>2020-01-31T12:24:43Z</time><name>PT7221</name></trkpt>
<trkpt lat="53.199443" lon="-1.772724"><ele>270</ele><time>2020-01-31T12:24:45Z</time><name>PT7222</name></trkpt>
<trkpt lat="53.199444" lon="-1.772701"><ele>270</ele><time>2020-01-31T12:24:45Z</time><name>PT7223</name></trkpt>
<trkpt lat="53.199447" lon="-1.772682"><ele>271</ele><time>2020-01-31T12:24:46Z</time><name>PT7224</name></trkpt>
<trkpt lat="53.199451" lon="-1.772661"><ele>270</ele><time>2020-01-31T12:24:48Z</time><name>PT7225</name></trkpt>
<trkpt lat="53.199457" lon="-1.772643"><ele>270</ele><time>2020-01-31T12:24:48Z</time><name>PT7226</name></trkpt>
<trkpt lat="53.199465" lon="-1.772624"><ele>271</ele><time>2020-01-31T12:24:49Z</time><name>PT7227</name></trkpt>
<trkpt lat="53.199471" lon="-1.772603"><ele>270</ele><time>2020-01-31T12:24:51Z</time><name>PT7228</name></trkpt>
<trkpt lat="53.199472" lon="-1.772583"><ele>270</ele><time>2020-01-31T12:24:51Z</time><name>PT7229</name></trkpt>
<trkpt lat="53.199474" lon="-1.772567"><ele>270</ele><time>2020-01-31T12:24:52Z</time><name>PT7230</name></trkpt>
<trkpt lat="53.199479" lon="-1.772548"><ele>270</ele><time>2020-01-31T12:24:54Z</time><name>PT7231</name></trkpt>
<trkpt lat="53.199487" lon="-1.772530"><ele>270</ele><time>2020-01-31T12:24:54Z</time><name>PT7232</name></trkpt>
<trkpt lat="53.199491" lon="-1.772513"><ele>270</ele><time>2020-01-31T12:24:55Z</time><name>PT7233</name></trkpt>
<trkpt lat="53.199498" lon="-1.772496"><ele>269</ele><time>2020-01-31T12:24:57Z</time><name>PT7234</name></trkpt>
<trkpt lat="53.199505" lon="-1.772480"><ele>269</ele><time>2020-01-31T12:24:57Z</time><name>PT7235</name></trkpt>
<trkpt lat="53.199512" lon="-1.772463"><ele>269</ele><time>2020-01-31T12:24:58Z</time><name>PT7236</name></trkpt>
<trkpt lat="53.199516" lon="-1.772439"><ele>269</ele><time>2020-01-31T12:25:00Z</time><name>PT7237</name></trkpt>
<trkpt lat="53.199521" lon="-1.772423"><ele>268</ele><time>2020-01-31T12:25:00Z</time><name>PT7238</name></trkpt>
<trkpt lat="53.199529" lon="-1.772404"><ele>268</ele><time>2020-01-31T12:25:01Z</time><name>PT7239</name></trkpt>
<trkpt lat="53.199539" lon="-1.772384"><ele>268</ele><time>2020-01-31T12:25:03Z</time><name>PT7240</name></trkpt>
<trkpt lat="53.199547" lon="-1.772366"><ele>268</ele><time>2020-01-31T12:25:03Z</time><name>PT7241</name></trkpt>
<trkpt lat="53.199555" lon="-1.772347"><ele>268</ele><time>2020-01-31T12:25:04Z</time><name>PT7242</name></trkpt>
<trkpt lat="53.199562" lon="-1.772324"><ele>269</ele><time>2020-01-31T12:25:06Z</time><name>PT7243</name></trkpt>
<trkpt lat="53.199568" lon="-1.772300"><ele>269</ele><time>2020-01-31T12:25:06Z</time><name>PT7244</name></trkpt>
<trkpt lat="53.199575" lon="-1.772278"><ele>268</ele><time>2020-01-31T12:25:07Z</time><name>PT7245</name></trkpt>
<trkpt lat="53.199584" lon="-1.772255"><ele>269</ele><time>2020-01-31T12:25:09Z</time><name>PT7246</name></trkpt>
<trkpt lat="53.199594" lon="-1.772236"><ele>269</ele><time>2020-01-31T12:25:09Z</time><name>PT7247</name></trkpt>
<trkpt lat="53.199604" lon="-1.772216"><ele>269</ele><time>2020-01-31T12:25:10Z</time><name>PT7248</name></trkpt>
<trkpt lat="53.199612" lon="-1.772200"><ele>269</ele><time>2020-01-31T12:25:12Z</time><name>PT7249</name></trkpt>
<trkpt lat="53.199621" lon="-1.772183"><ele>269</ele><time>2020-01-31T12:25:12Z</time><name>PT7250</name></trkpt>
<trkpt lat="53.199628" lon="-1.772164"><ele>269</ele><time>2020-01-31T12:25:13Z</time><name>PT7251</name></trkpt>
<trkpt lat="53.199634" lon="-1.772148"><ele>269</ele><time>2020-01-31T12:25:15Z</time><name>PT7252</name></trkpt>
<trkpt lat="53.199643" lon="-1.772131"><ele>269</ele><time>2020-01-31T12:25:15Z</time><name>PT7253</name></trkpt>
<trkpt lat="53.199653" lon="-1.772114"><ele>269</ele><time>2020-01-31T12:25:16Z</time><name>PT7254</name></trkpt>
<trkpt lat="53.199660" lon="-1.772088"><ele>269</ele><time>2020-01-31T12:25:18Z</time><name>PT7255</name></trkpt>
<trkpt lat="53.199670" lon="-1.772068"><ele>269</ele><time>2020-01-31T12:25:18Z</time><name>PT7256</name></trkpt>
<trkpt lat="53.199679" lon="-1.772048"><ele>269</ele><time>2020-01-31T12:25:19Z</time><name>PT7257</name></trkpt>
<trkpt lat="53.199687" lon="-1.772033"><ele>269</ele><time>2020-01-31T12:25:21Z</time><name>PT7258</name></trkpt>
<trkpt lat="53.199691" lon="-1.772013"><ele>269</ele><time>2020-01-31T12:25:21Z</time><name>PT7259</name></trkpt>
<trkpt lat="53.199696" lon="-1.771993"><ele>269</ele><time>2020-01-31T12:25:22Z</time><name>PT7260</name></trkpt>
<trkpt lat="53.199704" lon="-1.771978"><ele>269</ele><time>2020-01-31T12:25:24Z</time><name>PT7261</name></trkpt>
<trkpt lat="53.199716" lon="-1.771959"><ele>269</ele><time>2020-01-31T12:25:24Z</time><name>PT7262</name></trkpt>
<trkpt lat="53.199725" lon="-1.771938"><ele>269</ele><time>2020-01-31T12:25:25Z</time><name>PT7263</name></trkpt>
<trkpt lat="53.199735" lon="-1.771923"><ele>268</ele><time>2020-01-31T12:25:27Z</time><name>PT7264</name></trkpt>
<trkpt lat="53.199742" lon="-1.771903"><ele>269</ele><time>2020-01-31T12:25:27Z</time><name>PT7265</name></trkpt>
<trkpt lat="53.199749" lon="-1.771884"><ele>268</ele><time>2020-01-31T12:25:28Z</time><name>PT7266</name></trkpt>
<trkpt lat="53.199757" lon="-1.771863"><ele>268</ele><time>2020-01-31T12:25:30Z</time><name>PT7267</name></trkpt>
<trkpt lat="53.199766" lon="-1.771843"><ele>269</ele><time>2020-01-31T12:25:30Z</time><name>PT7268</name></trkpt>
<trkpt lat="53.199775" lon="-1.771825"><ele>269</ele><time>2020-01-31T12:25:31Z</time><name>PT7269</name></trkpt>
<trkpt lat="53.199780" lon="-1.771807"><ele>268</ele><time>2020-01-31T12:25:33Z</time><name>PT7270</name></trkpt>
<trkpt lat="53.199786" lon="-1.771788"><ele>268</ele><time>2020-01-31T12:25:33Z</time><name>PT7271</name></trkpt>
<trkpt lat="53.199794" lon="-1.771768"><ele>268</ele><time>2020-01-31T12:25:34Z</time><name>PT7272</name></trkpt>
<trkpt lat="53.199803" lon="-1.771747"><ele>269</ele><time>2020-01-31T12:25:36Z</time><name>PT7273</name></trkpt>
<trkpt lat="53.199810" lon="-1.771728"><ele>269</ele><time>2020-01-31T12:25:36Z</time><name>PT7274</name></trkpt>
<trkpt lat="53.199819" lon="-1.771713"><ele>269</ele><time>2020-01-31T12:25:37Z</time><name>PT7275</name></trkpt>
<trkpt lat="53.199827" lon="-1.771691"><ele>269</ele><time>2020-01-31T12:25:39Z</time><name>PT7276</name></trkpt>
<trkpt lat="53.199834" lon="-1.771671"><ele>269</ele><time>2020-01-31T12:25:39Z</time><name>PT7277</name></trkpt>
<trkpt lat="53.199838" lon="-1.771653"><ele>269</ele><time>2020-01-31T12:25:40Z</time><name>PT7278</name></trkpt>
<trkpt lat="53.199844" lon="-1.771638"><ele>269</ele><time>2020-01-31T12:25:42Z</time><name>PT7279</name></trkpt>
<trkpt lat="53.199846" lon="-1.771624"><ele>269</ele><time>2020-01-31T12:25:42Z</time><name>PT7280</name></trkpt>
<trkpt lat="53.199852" lon="-1.771607"><ele>269</ele><time>2020-01-31T12:25:43Z</time><name>PT7281</name></trkpt>
<trkpt lat="53.199859" lon="-1.771590"><ele>269</ele><time>2020-01-31T12:25:45Z</time><name>PT7282</name></trkpt>
<trkpt lat="53.199865" lon="-1.771572"><ele>270</ele><time>2020-01-31T12:25:45Z</time><name>PT7283</name></trkpt>
<trkpt lat="53.199869" lon="-1.771556"><ele>269</ele><time>2020-01-31T12:25:46Z</time><name>PT7284</name></trkpt>
<trkpt lat="53.199873" lon="-1.771536"><ele>269</ele><time>2020-01-31T12:25:48Z</time><name>PT7285</name></trkpt>
<trkpt lat="53.199876" lon="-1.771514"><ele>269</ele><time>2020-01-31T12:25:48Z</time><name>PT7286</name></trkpt>
<trkpt lat="53.199880" lon="-1.771493"><ele>269</ele><time>2020-01-31T12:25:49Z</time><name>PT7287</name></trkpt>
<trkpt lat="53.199885" lon="-1.771475"><ele>268</ele><time>2020-01-31T12:25:51Z</time><name>PT7288</name></trkpt>
<trkpt lat="53.199892" lon="-1.771452"><ele>269</ele><time>2020-01-31T12:25:51Z</time><name>PT7289</name></trkpt>
<trkpt lat="53.199896" lon="-1.771436"><ele>268</ele><time>2020-01-31T12:25:52Z</time><name>PT7290</name></trkpt>
<trkpt lat="53.199900" lon="-1.771418"><ele>268</ele><time>2020-01-31T12:25:54Z</time><name>PT7291</name></trkpt>
<trkpt lat="53.199904" lon="-1.771397"><ele>268</ele><time>2020-01-31T12:25:54Z</time><name>PT7292</name></trkpt>
<trkpt lat="53.199910" lon="-1.771379"><ele>268</ele><time>2020-01-31T12:25:55Z</time><name>PT7293</name></trkpt>
<trkpt lat="53.199917" lon="-1.771360"><ele>268</ele><time>2020-01-31T12:25:57Z</time><name>PT7294</name></trkpt>
<trkpt lat="53.199924" lon="-1.771339"><ele>269</ele><time>2020-01-31T12:25:57Z</time><name>PT7295</name></trkpt>
<trkpt lat="53.199928" lon="-1.771319"><ele>269</ele><time>2020-01-31T12:25:58Z</time><name>PT7296</name></trkpt>
<trkpt lat="53.199931" lon="-1.771301"><ele>269</ele><time>2020-01-31T12:26:00Z</time><name>PT7297</name></trkpt>
<trkpt lat="53.199936" lon="-1.771278"><ele>269</ele><time>2020-01-31T12:26:00Z</time><name>PT7298</name></trkpt>
<trkpt lat="53.199938" lon="-1.771260"><ele>269</ele><time>2020-01-31T12:26:01Z</time><name>PT7299</name></trkpt>
<trkpt lat="53.199943" lon="-1.771240"><ele>269</ele><time>2020-01-31T12:26:03Z</time><name>PT7300</name></trkpt>
<trkpt lat="53.199948" lon="-1.771225"><ele>269</ele><time>2020-01-31T12:26:03Z</time><name>PT7301</name></trkpt>
<trkpt lat="53.199954" lon="-1.771206"><ele>269</ele><time>2020-01-31T12:26:04Z</time><name>PT7302</name></trkpt>
<trkpt lat="53.199961" lon="-1.771188"><ele>269</ele><time>2020-01-31T12:26:06Z</time><name>PT7303</name></trkpt>
<trkpt lat="53.199968" lon="-1.771168"><ele>269</ele><time>2020-01-31T12:26:06Z</time><name>PT7304</name></trkpt>
<trkpt lat="53.199977" lon="-1.771141"><ele>269</ele><time>2020-01-31T12:26:07Z</time><name>PT7305</name></trkpt>
<trkpt lat="53.199982" lon="-1.771121"><ele>270</ele><time>2020-01-31T12:26:09Z</time><name>PT7306</name></trkpt>
<trkpt lat="53.199992" lon="-1.771102"><ele>270</ele><time>2020-01-31T12:26:09Z</time><name>PT7307</name></trkpt>
<trkpt lat="53.200002" lon="-1.771086"><ele>271</ele><time>2020-01-31T12:26:10Z</time><name>PT7308</name></trkpt>
<trkpt lat="53.200009" lon="-1.771071"><ele>270</ele><time>2020-01-31T12:26:12Z</time><name>PT7309</name></trkpt>
<trkpt lat="53.200014" lon="-1.771053"><ele>270</ele><time>2020-01-31T12:26:12Z</time><name>PT7310</name></trkpt>
<trkpt lat="53.200022" lon="-1.771033"><ele>270</ele><time>2020-01-31T12:26:13Z</time><name>PT7311</name></trkpt>
<trkpt lat="53.200028" lon="-1.771013"><ele>270</ele><time>2020-01-31T12:26:15Z</time><name>PT7312</name></trkpt>
<trkpt lat="53.200036" lon="-1.770996"><ele>270</ele><time>2020-01-31T12:26:15Z</time><name>PT7313</name></trkpt>
<trkpt lat="53.200044" lon="-1.770979"><ele>270</ele><time>2020-01-31T12:26:16Z</time><name>PT7314</name></trkpt>
<trkpt lat="53.200051" lon="-1.770958"><ele>270</ele><time>2020-01-31T12:26:18Z</time><name>PT7315</name></trkpt>
<trkpt lat="53.200057" lon="-1.770934"><ele>270</ele><time>2020-01-31T12:26:18Z</time><name>PT7316</name></trkpt>
<trkpt lat="53.200063" lon="-1.770916"><ele>270</ele><time>2020-01-31T12:26:19Z</time><name>PT7317</name></trkpt>
<trkpt lat="53.200067" lon="-1.770896"><ele>270</ele><time>2020-01-31T12:26:21Z</time><name>PT7318</name></trkpt>
<trkpt lat="53.200070" lon="-1.770877"><ele>271</ele><time>2020-01-31T12:26:21Z</time><name>PT7319</name></trkpt>
<trkpt lat="53.200075" lon="-1.770859"><ele>271</ele><time>2020-01-31T12:26:22Z</time><name>PT7320</name></trkpt>
<trkpt lat="53.200083" lon="-1.770836"><ele>271</ele><time>2020-01-31T12:26:24Z</time><name>PT7321</name></trkpt>
<trkpt lat="53.200088" lon="-1.770814"><ele>271</ele><time>2020-01-31T12:26:24Z</time><name>PT7322</name></trkpt>
<trkpt lat="53.200092" lon="-1.770796"><ele>271</ele><time>2020-01-31T12:26:25Z</time><name>PT7323</name></trkpt>
<trkpt lat="53.200097" lon="-1.770774"><ele>271</ele><time>2020-01-31T12:26:27Z</time><name>PT7324</name></trkpt>
<trkpt lat="53.200102" lon="-1.770752"><ele>271</ele><time>2020-01-31T12:26:27Z</time><name>PT7325</name></trkpt>
<trkpt lat="53.200107" lon="-1.770733"><ele>272</ele><time>2020-01-31T12:26:28Z</time><name>PT7326</name></trkpt>
<trkpt lat="53.200112" lon="-1.770713"><ele>272</ele><time>2020-01-31T12:26:30Z</time><name>PT7327</name></trkpt>
<trkpt lat="53.200117" lon="-1.770696"><ele>272</ele><time>2020-01-31T12:26:30Z</time><name>PT7328</name></trkpt>
<trkpt lat="53.200121" lon="-1.770676"><ele>272</ele><time>2020-01-31T12:26:31Z</time><name>PT7329</name></trkpt>
<trkpt lat="53.200122" lon="-1.770653"><ele>272</ele><time>2020-01-31T12:26:33Z</time><name>PT7330</name></trkpt>
<trkpt lat="53.200127" lon="-1.770633"><ele>272</ele><time>2020-01-31T12:26:33Z</time><name>PT7331</name></trkpt>
<trkpt lat="53.200134" lon="-1.770615"><ele>272</ele><time>2020-01-31T12:26:34Z</time><name>PT7332</name></trkpt>
<trkpt lat="53.200141" lon="-1.770594"><ele>272</ele><time>2020-01-31T12:26:36Z</time><name>PT7333</name></trkpt>
<trkpt lat="53.200148" lon="-1.770577"><ele>271</ele><time>2020-01-31T12:26:36Z</time><name>PT7334</name></trkpt>
<trkpt lat="53.200152" lon="-1.770564"><ele>271</ele><time>2020-01-31T12:26:37Z</time><name>PT7335</name></trkpt>
<trkpt lat="53.200154" lon="-1.770546"><ele>271</ele><time>2020-01-31T12:26:39Z</time><name>PT7336</name></trkpt>
<trkpt lat="53.200156" lon="-1.770530"><ele>271</ele><time>2020-01-31T12:26:39Z</time><name>PT7337</name></trkpt>
<trkpt lat="53.200161" lon="-1.770511"><ele>271</ele><time>2020-01-31T12:26:40Z</time><name>PT7338</name></trkpt>
<trkpt lat="53.200167" lon="-1.770493"><ele>271</ele><time>2020-01-31T12:26:42Z</time><name>PT7339</name></trkpt>
<trkpt lat="53.200173" lon="-1.770472"><ele>271</ele><time>2020-01-31T12:26:42Z</time><name>PT7340</name></trkpt>
<trkpt lat="53.200180" lon="-1.770453"><ele>271</ele><time>2020-01-31T12:26:43Z</time><name>PT7341</name></trkpt>
<trkpt lat="53.200184" lon="-1.770437"><ele>271</ele><time>2020-01-31T12:26:45Z</time><name>PT7342</name></trkpt>
<trkpt lat="53.200190" lon="-1.770414"><ele>272</ele><time>2020-01-31T12:26:45Z</time><name>PT7343</name></trkpt>
<trkpt lat="53.200195" lon="-1.770392"><ele>272</ele><time>2020-01-31T12:26:46Z</time><name>PT7344</name></trkpt>
<trkpt lat="53.200201" lon="-1.770374"><ele>272</ele><time>2020-01-31T12:26:48Z</time><name>PT7345</name></trkpt>
<trkpt lat="53.200207" lon="-1.770359"><ele>271</ele><time>2020-01-31T12:26:48Z</time><name>PT7346</name></trkpt>
<trkpt lat="53.200210" lon="-1.770339"><ele>271</ele><time>2020-01-31T12:26:49Z</time><name>PT7347</name></trkpt>
<trkpt lat="53.200213" lon="-1.770320"><ele>271</ele><time>2020-01-31T12:26:51Z</time><name>PT7348</name></trkpt>
<trkpt lat="53.200219" lon="-1.770299"><ele>272</ele><time>2020-01-31T12:26:51Z</time><name>PT7349</name></trkpt>
<trkpt lat="53.200223" lon="-1.770279"><ele>271</ele><time>2020-01-31T12:26:52Z</time><name>PT7350</name></trkpt>
<trkpt lat="53.200230" lon="-1.770261"><ele>272</ele><time>2020-01-31T12:26:54Z</time><name>PT7351</name></trkpt>
<trkpt lat="53.200235" lon="-1.770244"><ele>272</ele><time>2020-01-31T12:26:54Z</time><name>PT7352</name></trkpt>
<trkpt lat="53.200243" lon="-1.770221"><ele>271</ele><time>2020-01-31T12:26:55Z</time><name>PT7353</name></trkpt>
<trkpt lat="53.200247" lon="-1.770203"><ele>271</ele><time>2020-01-31T12:26:57Z</time><name>PT7354</name></trkpt>
<trkpt lat="53.200252" lon="-1.770183"><ele>271</ele><time>2020-01-31T12:26:57Z</time><name>PT7355</name></trkpt>
<trkpt lat="53.200258" lon="-1.770160"><ele>272</ele><time>2020-01-31T12:26:58Z</time><name>PT7356</name></trkpt>
<trkpt lat="53.200265" lon="-1.770142"><ele>272</ele><time>2020-01-31T12:27:00Z</time><name>PT7357</name></trkpt>
<trkpt lat="53.200274" lon="-1.770124"><ele>272</ele><time>2020-01-31T12:27:00Z</time><name>PT7358</name></trkpt>
<trkpt lat="53.200283" lon="-1.770100"><ele>272</ele><time>2020-01-31T12:27:01Z</time><name>PT7359</name></trkpt>
<trkpt lat="53.200291" lon="-1.770081"><ele>272</ele><time>2020-01-31T12:27:03Z</time><name>PT7360</name></trkpt>
<trkpt lat="53.200296" lon="-1.770063"><ele>272</ele><time>2020-01-31T12:27:03Z</time><name>PT7361</name></trkpt>
<trkpt lat="53.200301" lon="-1.770041"><ele>272</ele><time>2020-01-31T12:27:04Z</time><name>PT7362</name></trkpt>
<trkpt lat="53.200306" lon="-1.770023"><ele>272</ele><time>2020-01-31T12:27:06Z</time><name>PT7363</name></trkpt>
<trkpt lat="53.200312" lon="-1.770004"><ele>271</ele><time>2020-01-31T12:27:06Z</time><name>PT7364</name></trkpt>
<trkpt lat="53.200318" lon="-1.769982"><ele>271</ele><time>2020-01-31T12:27:07Z</time><name>PT7365</name></trkpt>
<trkpt lat="53.200324" lon="-1.769963"><ele>271</ele><time>2020-01-31T12:27:09Z</time><name>PT7366</name></trkpt>
<trkpt lat="53.200330" lon="-1.769946"><ele>271</ele><time>2020-01-31T12:27:09Z</time><name>PT7367</name></trkpt>
<trkpt lat="53.200338" lon="-1.769926"><ele>272</ele><time>2020-01-31T12:27:10Z</time><name>PT7368</name></trkpt>
<trkpt lat="53.200345" lon="-1.769906"><ele>272</ele><time>2020-01-31T12:27:12Z</time><name>PT7369</name></trkpt>
<trkpt lat="53.200351" lon="-1.769888"><ele>272</ele><time>2020-01-31T12:27:12Z</time><name>PT7370</name></trkpt>
<trkpt lat="53.200358" lon="-1.769869"><ele>272</ele><time>2020-01-31T12:27:13Z</time><name>PT7371</name></trkpt>
<trkpt lat="53.200367" lon="-1.769851"><ele>272</ele><time>2020-01-31T12:27:15Z</time><name>PT7372</name></trkpt>
<trkpt lat="53.200371" lon="-1.769833"><ele>272</ele><time>2020-01-31T12:27:15Z</time><name>PT7373</name></trkpt>
<trkpt lat="53.200378" lon="-1.769812"><ele>272</ele><time>2020-01-31T12:27:16Z</time><name>PT7374</name></trkpt>
<trkpt lat="53.200382" lon="-1.769790"><ele>272</ele><time>2020-01-31T12:27:18Z</time><name>PT7375</name></trkpt>
<trkpt lat="53.200387" lon="-1.769772"><ele>272</ele><time>2020-01-31T12:27:18Z</time><name>PT7376</name></trkpt>
<trkpt lat="53.200394" lon="-1.769754"><ele>272</ele><time>2020-01-31T12:27:19Z</time><name>PT7377</name></trkpt>
<trkpt lat="53.200399" lon="-1.769735"><ele>272</ele><time>2020-01-31T12:27:21Z</time><name>PT7378</name></trkpt>
<trkpt lat="53.200405" lon="-1.769717"><ele>272</ele><time>2020-01-31T12:27:21Z</time><name>PT7379</name></trkpt>
<trkpt lat="53.200411" lon="-1.769695"><ele>273</ele><time>2020-01-31T12:27:22Z</time><name>PT7380</name></trkpt>
<trkpt lat="53.200419" lon="-1.769675"><ele>273</ele><time>2020-01-31T12:27:24Z</time><name>PT7381</name></trkpt>
<trkpt lat="53.200424" lon="-1.769657"><ele>273</ele><time>2020-01-31T12:27:24Z</time><name>PT7382</name></trkpt>
<trkpt lat="53.200429" lon="-1.769638"><ele>273</ele><time>2020-01-31T12:27:25Z</time><name>PT7383</name></trkpt>
<trkpt lat="53.200435" lon="-1.769618"><ele>273</ele><time>2020-01-31T12:27:27Z</time><name>PT7384</name></trkpt>
<trkpt lat="53.200441" lon="-1.769599"><ele>273</ele><time>2020-01-31T12:27:27Z</time><name>PT7385</name></trkpt>
<trkpt lat="53.200446" lon="-1.769581"><ele>273</ele><time>2020-01-31T12:27:28Z</time><name>PT7386</name></trkpt>
<trkpt lat="53.200446" lon="-1.769562"><ele>273</ele><time>2020-01-31T12:27:30Z</time><name>PT7387</name></trkpt>
<trkpt lat="53.200454" lon="-1.769546"><ele>273</ele><time>2020-01-31T12:27:30Z</time><name>PT7388</name></trkpt>
<trkpt lat="53.200459" lon="-1.769532"><ele>273</ele><time>2020-01-31T12:27:31Z</time><name>PT7389</name></trkpt>
<trkpt lat="53.200463" lon="-1.769515"><ele>273</ele><time>2020-01-31T12:27:33Z</time><name>PT7390</name></trkpt>
<trkpt lat="53.200465" lon="-1.769498"><ele>273</ele><time>2020-01-31T12:27:33Z</time><name>PT7391</name></trkpt>
<trkpt lat="53.200468" lon="-1.769478"><ele>273</ele><time>2020-01-31T12:27:34Z</time><name>PT7392</name></trkpt>
<trkpt lat="53.200472" lon="-1.769459"><ele>273</ele><time>2020-01-31T12:27:36Z</time><name>PT7393</name></trkpt>
<trkpt lat="53.200481" lon="-1.769440"><ele>274</ele><time>2020-01-31T12:27:36Z</time><name>PT7394</name></trkpt>
<trkpt lat="53.200488" lon="-1.769422"><ele>274</ele><time>2020-01-31T12:27:37Z</time><name>PT7395</name></trkpt>
<trkpt lat="53.200490" lon="-1.769408"><ele>274</ele><time>2020-01-31T12:27:39Z</time><name>PT7396</name></trkpt>
<trkpt lat="53.200496" lon="-1.769393"><ele>274</ele><time>2020-01-31T12:27:39Z</time><name>PT7397</name></trkpt>
<trkpt lat="53.200501" lon="-1.769384"><ele>275</ele><time>2020-01-31T12:27:40Z</time><name>PT7398</name></trkpt>
<trkpt lat="53.200505" lon="-1.769379"><ele>275</ele><time>2020-01-31T12:27:42Z</time><name>PT7399</name></trkpt>
<trkpt lat="53.200511" lon="-1.769373"><ele>275</ele><time>2020-01-31T12:27:42Z</time><name>PT7400</name></trkpt>
<trkpt lat="53.200519" lon="-1.769364"><ele>275</ele><time>2020-01-31T12:27:43Z</time><name>PT7401</name></trkpt>
<trkpt lat="53.200523" lon="-1.769355"><ele>275</ele><time>2020-01-31T12:27:45Z</time><name>PT7402</name></trkpt>
<trkpt lat="53.200527" lon="-1.769339"><ele>276</ele><time>2020-01-31T12:27:45Z</time><name>PT7403</name></trkpt>
<trkpt lat="53.200533" lon="-1.769327"><ele>276</ele><time>2020-01-31T12:27:46Z</time><name>PT7404</name></trkpt>
<trkpt lat="53.200534" lon="-1.769313"><ele>276</ele><time>2020-01-31T12:27:48Z</time><name>PT7405</name></trkpt>
<trkpt lat="53.200536" lon="-1.769305"><ele>276</ele><time>2020-01-31T12:27:48Z</time><name>PT7406</name></trkpt>
<trkpt lat="53.200540" lon="-1.769302"><ele>276</ele><time>2020-01-31T12:27:49Z</time><name>PT7407</name></trkpt>
<trkpt lat="53.200543" lon="-1.769299"><ele>276</ele><time>2020-01-31T12:27:51Z</time><name>PT7408</name></trkpt>
<trkpt lat="53.200546" lon="-1.769284"><ele>277</ele><time>2020-01-31T12:27:55Z</time><name>PT7409</name></trkpt>
<trkpt lat="53.200552" lon="-1.769258"><ele>277</ele><time>2020-01-31T12:27:57Z</time><name>PT7410</name></trkpt>
<trkpt lat="53.200562" lon="-1.769226"><ele>277</ele><time>2020-01-31T12:27:57Z</time><name>PT7411</name></trkpt>
<trkpt lat="53.200566" lon="-1.769207"><ele>277</ele><time>2020-01-31T12:27:58Z</time><name>PT7412</name></trkpt>
<trkpt lat="53.200574" lon="-1.769185"><ele>277</ele><time>2020-01-31T12:28:00Z</time><name>PT7413</name></trkpt>
<trkpt lat="53.200580" lon="-1.769162"><ele>277</ele><time>2020-01-31T12:28:00Z</time><name>PT7414</name></trkpt>
<trkpt lat="53.200583" lon="-1.769138"><ele>277</ele><time>2020-01-31T12:28:01Z</time><name>PT7415</name></trkpt>
<trkpt lat="53.200589" lon="-1.769123"><ele>276</ele><time>2020-01-31T12:28:03Z</time><name>PT7416</name></trkpt>
<trkpt lat="53.200596" lon="-1.769104"><ele>276</ele><time>2020-01-31T12:28:03Z</time><name>PT7417</name></trkpt>
<trkpt lat="53.200604" lon="-1.769083"><ele>277</ele><time>2020-01-31T12:28:04Z</time><name>PT7418</name></trkpt>
<trkpt lat="53.200613" lon="-1.769060"><ele>277</ele><time>2020-01-31T12:28:06Z</time><name>PT7419</name></trkpt>
<trkpt lat="53.200621" lon="-1.769040"><ele>277</ele><time>2020-01-31T12:28:06Z</time><name>PT7420</name></trkpt>
<trkpt lat="53.200626" lon="-1.769018"><ele>277</ele><time>2020-01-31T12:28:07Z</time><name>PT7421</name></trkpt>
<trkpt lat="53.200632" lon="-1.768998"><ele>277</ele><time>2020-01-31T12:28:09Z</time><name>PT7422</name></trkpt>
<trkpt lat="53.200639" lon="-1.768976"><ele>277</ele><time>2020-01-31T12:28:09Z</time><name>PT7423</name></trkpt>
<trkpt lat="53.200642" lon="-1.768953"><ele>277</ele><time>2020-01-31T12:28:10Z</time><name>PT7424</name></trkpt>
<trkpt lat="53.200647" lon="-1.768932"><ele>278</ele><time>2020-01-31T12:28:12Z</time><name>PT7425</name></trkpt>
<trkpt lat="53.200654" lon="-1.768910"><ele>278</ele><time>2020-01-31T12:28:12Z</time><name>PT7426</name></trkpt>
<trkpt lat="53.200662" lon="-1.768890"><ele>278</ele><time>2020-01-31T12:28:13Z</time><name>PT7427</name></trkpt>
<trkpt lat="53.200669" lon="-1.768869"><ele>278</ele><time>2020-01-31T12:28:15Z</time><name>PT7428</name></trkpt>
<trkpt lat="53.200672" lon="-1.768849"><ele>278</ele><time>2020-01-31T12:28:15Z</time><name>PT7429</name></trkpt>
<trkpt lat="53.200677" lon="-1.768829"><ele>278</ele><time>2020-01-31T12:28:16Z</time><name>PT7430</name></trkpt>
<trkpt lat="53.200683" lon="-1.768807"><ele>278</ele><time>2020-01-31T12:28:18Z</time><name>PT7431</name></trkpt>
<trkpt lat="53.200688" lon="-1.768788"><ele>278</ele><time>2020-01-31T12:28:18Z</time><name>PT7432</name></trkpt>
<trkpt lat="53.200692" lon="-1.768771"><ele>278</ele><time>2020-01-31T12:28:19Z</time><name>PT7433</name></trkpt>
<trkpt lat="53.200698" lon="-1.768754"><ele>278</ele><time>2020-01-31T12:28:21Z</time><name>PT7434</name></trkpt>
<trkpt lat="53.200705" lon="-1.768734"><ele>278</ele><time>2020-01-31T12:28:21Z</time><name>PT7435</name></trkpt>
<trkpt lat="53.200708" lon="-1.768717"><ele>278</ele><time>2020-01-31T12:28:22Z</time><name>PT7436</name></trkpt>
<trkpt lat="53.200714" lon="-1.768695"><ele>279</ele><time>2020-01-31T12:28:24Z</time><name>PT7437</name></trkpt>
<trkpt lat="53.200720" lon="-1.768675"><ele>279</ele><time>2020-01-31T12:28:24Z</time><name>PT7438</name></trkpt>
<trkpt lat="53.200726" lon="-1.768659"><ele>278</ele><time>2020-01-31T12:28:25Z</time><name>PT7439</name></trkpt>
<trkpt lat="53.200730" lon="-1.768642"><ele>278</ele><time>2020-01-31T12:28:27Z</time><name>PT7440</name></trkpt>
<trkpt lat="53.200737" lon="-1.768619"><ele>279</ele><time>2020-01-31T12:28:27Z</time><name>PT7441</name></trkpt>
<trkpt lat="53.200742" lon="-1.768601"><ele>279</ele><time>2020-01-31T12:28:28Z</time><name>PT7442</name></trkpt>
<trkpt lat="53.200745" lon="-1.768582"><ele>279</ele><time>2020-01-31T12:28:30Z</time><name>PT7443</name></trkpt>
<trkpt lat="53.200752" lon="-1.768562"><ele>279</ele><time>2020-01-31T12:28:30Z</time><name>PT7444</name></trkpt>
<trkpt lat="53.200760" lon="-1.768543"><ele>279</ele><time>2020-01-31T12:28:31Z</time><name>PT7445</name></trkpt>
<trkpt lat="53.200766" lon="-1.768527"><ele>279</ele><time>2020-01-31T12:28:33Z</time><name>PT7446</name></trkpt>
<trkpt lat="53.200769" lon="-1.768512"><ele>279</ele><time>2020-01-31T12:28:33Z</time><name>PT7447</name></trkpt>
<trkpt lat="53.200776" lon="-1.768489"><ele>279</ele><time>2020-01-31T12:28:34Z</time><name>PT7448</name></trkpt>
<trkpt lat="53.200781" lon="-1.768470"><ele>279</ele><time>2020-01-31T12:28:36Z</time><name>PT7449</name></trkpt>
<trkpt lat="53.200784" lon="-1.768448"><ele>280</ele><time>2020-01-31T12:28:36Z</time><name>PT7450</name></trkpt>
<trkpt lat="53.200789" lon="-1.768423"><ele>280</ele><time>2020-01-31T12:28:37Z</time><name>PT7451</name></trkpt>
<trkpt lat="53.200796" lon="-1.768399"><ele>281</ele><time>2020-01-31T12:28:39Z</time><name>PT7452</name></trkpt>
<trkpt lat="53.200805" lon="-1.768379"><ele>281</ele><time>2020-01-31T12:28:39Z</time><name>PT7453</name></trkpt>
<trkpt lat="53.200814" lon="-1.768359"><ele>281</ele><time>2020-01-31T12:28:40Z</time><name>PT7454</name></trkpt>
<trkpt lat="53.200821" lon="-1.768340"><ele>281</ele><time>2020-01-31T12:28:42Z</time><name>PT7455</name></trkpt>
<trkpt lat="53.200828" lon="-1.768321"><ele>281</ele><time>2020-01-31T12:28:42Z</time><name>PT7456</name></trkpt>
<trkpt lat="53.200831" lon="-1.768300"><ele>281</ele><time>2020-01-31T12:28:43Z</time><name>PT7457</name></trkpt>
<trkpt lat="53.200837" lon="-1.768276"><ele>282</ele><time>2020-01-31T12:28:45Z</time><name>PT7458</name></trkpt>
<trkpt lat="53.200844" lon="-1.768256"><ele>282</ele><time>2020-01-31T12:28:45Z</time><name>PT7459</name></trkpt>
<trkpt lat="53.200850" lon="-1.768236"><ele>283</ele><time>2020-01-31T12:28:46Z</time><name>PT7460</name></trkpt>
<trkpt lat="53.200855" lon="-1.768217"><ele>282</ele><time>2020-01-31T12:28:48Z</time><name>PT7461</name></trkpt>
<trkpt lat="53.200862" lon="-1.768196"><ele>283</ele><time>2020-01-31T12:28:48Z</time><name>PT7462</name></trkpt>
<trkpt lat="53.200867" lon="-1.768176"><ele>283</ele><time>2020-01-31T12:28:49Z</time><name>PT7463</name></trkpt>
<trkpt lat="53.200877" lon="-1.768154"><ele>283</ele><time>2020-01-31T12:28:51Z</time><name>PT7464</name></trkpt>
<trkpt lat="53.200882" lon="-1.768137"><ele>283</ele><time>2020-01-31T12:28:51Z</time><name>PT7465</name></trkpt>
<trkpt lat="53.200891" lon="-1.768116"><ele>283</ele><time>2020-01-31T12:28:52Z</time><name>PT7466</name></trkpt>
<trkpt lat="53.200896" lon="-1.768095"><ele>283</ele><time>2020-01-31T12:28:54Z</time><name>PT7467</name></trkpt>
<trkpt lat="53.200894" lon="-1.768074"><ele>283</ele><time>2020-01-31T12:28:54Z</time><name>PT7468</name></trkpt>
<trkpt lat="53.200899" lon="-1.768052"><ele>283</ele><time>2020-01-31T12:28:55Z</time><name>PT7469</name></trkpt>
<trkpt lat="53.200907" lon="-1.768030"><ele>283</ele><time>2020-01-31T12:28:57Z</time><name>PT7470</name></trkpt>
<trkpt lat="53.200914" lon="-1.768009"><ele>283</ele><time>2020-01-31T12:28:57Z</time><name>PT7471</name></trkpt>
<trkpt lat="53.200918" lon="-1.767994"><ele>283</ele><time>2020-01-31T12:28:58Z</time><name>PT7472</name></trkpt>
<trkpt lat="53.200922" lon="-1.767973"><ele>283</ele><time>2020-01-31T12:29:00Z</time><name>PT7473</name></trkpt>
<trkpt lat="53.200933" lon="-1.767949"><ele>284</ele><time>2020-01-31T12:29:00Z</time><name>PT7474</name></trkpt>
<trkpt lat="53.200936" lon="-1.767929"><ele>284</ele><time>2020-01-31T12:29:01Z</time><name>PT7475</name></trkpt>
<trkpt lat="53.200937" lon="-1.767910"><ele>283</ele><time>2020-01-31T12:29:03Z</time><name>PT7476</name></trkpt>
<trkpt lat="53.200940" lon="-1.767887"><ele>283</ele><time>2020-01-31T12:29:03Z</time><name>PT7477</name></trkpt>
<trkpt lat="53.200939" lon="-1.767867"><ele>283</ele><time>2020-01-31T12:29:04Z</time><name>PT7478</name></trkpt>
<trkpt lat="53.200944" lon="-1.767844"><ele>283</ele><time>2020-01-31T12:29:06Z</time><name>PT7479</name></trkpt>
<trkpt lat="53.200952" lon="-1.767826"><ele>282</ele><time>2020-01-31T12:29:06Z</time><name>PT7480</name></trkpt>
<trkpt lat="53.200956" lon="-1.767808"><ele>282</ele><time>2020-01-31T12:29:07Z</time><name>PT7481</name></trkpt>
<trkpt lat="53.200960" lon="-1.767788"><ele>282</ele><time>2020-01-31T12:29:09Z</time><name>PT7482</name></trkpt>
<trkpt lat="53.200963" lon="-1.767768"><ele>281</ele><time>2020-01-31T12:29:09Z</time><name>PT7483</name></trkpt>
<trkpt lat="53.200967" lon="-1.767745"><ele>281</ele><time>2020-01-31T12:29:10Z</time><name>PT7484</name></trkpt>
<trkpt lat="53.200971" lon="-1.767723"><ele>282</ele><time>2020-01-31T12:29:12Z</time><name>PT7485</name></trkpt>
<trkpt lat="53.200978" lon="-1.767703"><ele>282</ele><time>2020-01-31T12:29:12Z</time><name>PT7486</name></trkpt>
<trkpt lat="53.200985" lon="-1.767684"><ele>282</ele><time>2020-01-31T12:29:13Z</time><name>PT7487</name></trkpt>
<trkpt lat="53.200988" lon="-1.767665"><ele>282</ele><time>2020-01-31T12:29:15Z</time><name>PT7488</name></trkpt>
<trkpt lat="53.200990" lon="-1.767640"><ele>283</ele><time>2020-01-31T12:29:15Z</time><name>PT7489</name></trkpt>
<trkpt lat="53.200993" lon="-1.767617"><ele>283</ele><time>2020-01-31T12:29:16Z</time><name>PT7490</name></trkpt>
<trkpt lat="53.200997" lon="-1.767598"><ele>282</ele><time>2020-01-31T12:29:18Z</time><name>PT7491</name></trkpt>
<trkpt lat="53.201004" lon="-1.767578"><ele>282</ele><time>2020-01-31T12:29:18Z</time><name>PT7492</name></trkpt>
<trkpt lat="53.201012" lon="-1.767556"><ele>283</ele><time>2020-01-31T12:29:19Z</time><name>PT7493</name></trkpt>
<trkpt lat="53.201017" lon="-1.767535"><ele>283</ele><time>2020-01-31T12:29:21Z</time><name>PT7494</name></trkpt>
<trkpt lat="53.201022" lon="-1.767515"><ele>283</ele><time>2020-01-31T12:29:21Z</time><name>PT7495</name></trkpt>
<trkpt lat="53.201027" lon="-1.767496"><ele>283</ele><time>2020-01-31T12:29:22Z</time><name>PT7496</name></trkpt>
<trkpt lat="53.201034" lon="-1.767477"><ele>283</ele><time>2020-01-31T12:29:24Z</time><name>PT7497</name></trkpt>
<trkpt lat="53.201040" lon="-1.767459"><ele>283</ele><time>2020-01-31T12:29:24Z</time><name>PT7498</name></trkpt>
<trkpt lat="53.201045" lon="-1.767440"><ele>284</ele><time>2020-01-31T12:29:25Z</time><name>PT7499</name></trkpt>
<trkpt lat="53.201050" lon="-1.767423"><ele>284</ele><time>2020-01-31T12:29:27Z</time><name>PT7500</name></trkpt>
<trkpt lat="53.201054" lon="-1.767400"><ele>284</ele><time>2020-01-31T12:29:27Z</time><name>PT7501</name></trkpt>
<trkpt lat="53.201059" lon="-1.767378"><ele>285</ele><time>2020-01-31T12:29:28Z</time><name>PT7502</name></trkpt>
<trkpt lat="53.201065" lon="-1.767363"><ele>284</ele><time>2020-01-31T12:29:30Z</time><name>PT7503</name></trkpt>
<trkpt lat="53.201071" lon="-1.767343"><ele>284</ele><time>2020-01-31T12:29:30Z</time><name>PT7504</name></trkpt>
<trkpt lat="53.201080" lon="-1.767321"><ele>284</ele><time>2020-01-31T12:29:31Z</time><name>PT7505</name></trkpt>
<trkpt lat="53.201084" lon="-1.767300"><ele>285</ele><time>2020-01-31T12:29:33Z</time><name>PT7506</name></trkpt>
<trkpt lat="53.201088" lon="-1.767280"><ele>285</ele><time>2020-01-31T12:29:33Z</time><name>PT7507</name></trkpt>
<trkpt lat="53.201090" lon="-1.767260"><ele>285</ele><time>2020-01-31T12:29:34Z</time><name>PT7508</name></trkpt>
<trkpt lat="53.201095" lon="-1.767240"><ele>285</ele><time>2020-01-31T12:29:36Z</time><name>PT7509</name></trkpt>
<trkpt lat="53.201100" lon="-1.767219"><ele>285</ele><time>2020-01-31T12:29:36Z</time><name>PT7510</name></trkpt>
<trkpt lat="53.201106" lon="-1.767198"><ele>285</ele><time>2020-01-31T12:29:37Z</time><name>PT7511</name></trkpt>
<trkpt lat="53.201113" lon="-1.767178"><ele>285</ele><time>2020-01-31T12:29:39Z</time><name>PT7512</name></trkpt>
<trkpt lat="53.201118" lon="-1.767157"><ele>285</ele><time>2020-01-31T12:29:39Z</time><name>PT7513</name></trkpt>
<trkpt lat="53.201121" lon="-1.767134"><ele>286</ele><time>2020-01-31T12:29:40Z</time><name>PT7514</name></trkpt>
<trkpt lat="53.201127" lon="-1.767111"><ele>286</ele><time>2020-01-31T12:29:42Z</time><name>PT7515</name></trkpt>
<trkpt lat="53.201134" lon="-1.767091"><ele>286</ele><time>2020-01-31T12:29:42Z</time><name>PT7516</name></trkpt>
<trkpt lat="53.201140" lon="-1.767073"><ele>285</ele><time>2020-01-31T12:29:44Z</time><name>PT7517</name></trkpt>
<trkpt lat="53.201148" lon="-1.767051"><ele>286</ele><time>2020-01-31T12:29:45Z</time><name>PT7518</name></trkpt>
<trkpt lat="53.201155" lon="-1.767029"><ele>286</ele><time>2020-01-31T12:29:45Z</time><name>PT7519</name></trkpt>
<trkpt lat="53.201160" lon="-1.767010"><ele>286</ele><time>2020-01-31T12:29:46Z</time><name>PT7520</name></trkpt>
<trkpt lat="53.201165" lon="-1.766991"><ele>286</ele><time>2020-01-31T12:29:48Z</time><name>PT7521</name></trkpt>
<trkpt lat="53.201169" lon="-1.766966"><ele>286</ele><time>2020-01-31T12:29:48Z</time><name>PT7522</name></trkpt>
<trkpt lat="53.201171" lon="-1.766948"><ele>286</ele><time>2020-01-31T12:29:49Z</time><name>PT7523</name></trkpt>
<trkpt lat="53.201175" lon="-1.766931"><ele>286</ele><time>2020-01-31T12:29:51Z</time><name>PT7524</name></trkpt>
<trkpt lat="53.201183" lon="-1.766909"><ele>286</ele><time>2020-01-31T12:29:51Z</time><name>PT7525</name></trkpt>
<trkpt lat="53.201190" lon="-1.766891"><ele>286</ele><time>2020-01-31T12:29:52Z</time><name>PT7526</name></trkpt>
<trkpt lat="53.201196" lon="-1.766874"><ele>286</ele><time>2020-01-31T12:29:54Z</time><name>PT7527</name></trkpt>
<trkpt lat="53.201202" lon="-1.766855"><ele>286</ele><time>2020-01-31T12:29:54Z</time><name>PT7528</name></trkpt>
<trkpt lat="53.201204" lon="-1.766838"><ele>286</ele><time>2020-01-31T12:29:55Z</time><name>PT7529</name></trkpt>
<trkpt lat="53.201210" lon="-1.766822"><ele>286</ele><time>2020-01-31T12:29:57Z</time><name>PT7530</name></trkpt>
<trkpt lat="53.201216" lon="-1.766804"><ele>285</ele><time>2020-01-31T12:29:57Z</time><name>PT7531</name></trkpt>
<trkpt lat="53.201219" lon="-1.766795"><ele>286</ele><time>2020-01-31T12:29:58Z</time><name>PT7532</name></trkpt>
<trkpt lat="53.201219" lon="-1.766792"><ele>286</ele><time>2020-01-31T12:30:00Z</time><name>PT7533</name></trkpt>
<trkpt lat="53.201221" lon="-1.766792"><ele>286</ele><time>2020-01-31T12:30:00Z</time><name>PT7534</name></trkpt>
<trkpt lat="53.201222" lon="-1.766792"><ele>286</ele><time>2020-01-31T12:30:01Z</time><name>PT7535</name></trkpt>
<trkpt lat="53.201224" lon="-1.766789"><ele>286</ele><time>2020-01-31T12:30:03Z</time><name>PT7536</name></trkpt>
<trkpt lat="53.201225" lon="-1.766785"><ele>286</ele><time>2020-01-31T12:30:03Z</time><name>PT7537</name></trkpt>
<trkpt lat="53.201228" lon="-1.766774"><ele>286</ele><time>2020-01-31T12:30:04Z</time><name>PT7538</name></trkpt>
<trkpt lat="53.201232" lon="-1.766751"><ele>286</ele><time>2020-01-31T12:30:06Z</time><name>PT7539</name></trkpt>
<trkpt lat="53.201239" lon="-1.766740"><ele>287</ele><time>2020-01-31T12:30:06Z</time><name>PT7540</name></trkpt>
<trkpt lat="53.201240" lon="-1.766734"><ele>287</ele><time>2020-01-31T12:30:07Z</time><name>PT7541</name></trkpt>
<trkpt lat="53.201244" lon="-1.766734"><ele>288</ele><time>2020-01-31T12:30:09Z</time><name>PT7542</name></trkpt>
<trkpt lat="53.201246" lon="-1.766739"><ele>288</ele><time>2020-01-31T12:30:09Z</time><name>PT7543</name></trkpt>
<trkpt lat="53.201250" lon="-1.766748"><ele>288</ele><time>2020-01-31T12:30:10Z</time><name>PT7544</name></trkpt>
<trkpt lat="53.201252" lon="-1.766753"><ele>288</ele><time>2020-01-31T12:30:12Z</time><name>PT7545</name></trkpt>
<trkpt lat="53.201250" lon="-1.766751"><ele>288</ele><time>2020-01-31T12:30:12Z</time><name>PT7546</name></trkpt>
<trkpt lat="53.201247" lon="-1.766753"><ele>288</ele><time>2020-01-31T12:30:13Z</time><name>PT7547</name></trkpt>
<trkpt lat="53.201244" lon="-1.766752"><ele>288</ele><time>2020-01-31T12:30:15Z</time><name>PT7548</name></trkpt>
<trkpt lat="53.201245" lon="-1.766751"><ele>288</ele><time>2020-01-31T12:30:15Z</time><name>PT7549</name></trkpt>
<trkpt lat="53.201244" lon="-1.766753"><ele>288</ele><time>2020-01-31T12:30:16Z</time><name>PT7550</name></trkpt>
<trkpt lat="53.201242" lon="-1.766755"><ele>288</ele><time>2020-01-31T12:30:18Z</time><name>PT7551</name></trkpt>
<trkpt lat="53.201241" lon="-1.766757"><ele>287</ele><time>2020-01-31T12:30:18Z</time><name>PT7552</name></trkpt>
<trkpt lat="53.201243" lon="-1.766759"><ele>288</ele><time>2020-01-31T12:30:21Z</time><name>PT7553</name></trkpt>
<trkpt lat="53.201242" lon="-1.766766"><ele>287</ele><time>2020-01-31T12:30:21Z</time><name>PT7554</name></trkpt>
<trkpt lat="53.201244" lon="-1.766767"><ele>287</ele><time>2020-01-31T12:30:22Z</time><name>PT7555</name></trkpt>
<trkpt lat="53.201243" lon="-1.766769"><ele>287</ele><time>2020-01-31T12:30:24Z</time><name>PT7556</name></trkpt>
<trkpt lat="53.201240" lon="-1.766771"><ele>287</ele><time>2020-01-31T12:30:27Z</time><name>PT7557</name></trkpt>
<trkpt lat="53.201230" lon="-1.766781"><ele>287</ele><time>2020-01-31T12:30:28Z</time><name>PT7558</name></trkpt>
<trkpt lat="53.201222" lon="-1.766792"><ele>287</ele><time>2020-01-31T12:30:30Z</time><name>PT7559</name></trkpt>
<trkpt lat="53.201213" lon="-1.766807"><ele>287</ele><time>2020-01-31T12:30:30Z</time><name>PT7560</name></trkpt>
<trkpt lat="53.201206" lon="-1.766828"><ele>287</ele><time>2020-01-31T12:30:32Z</time><name>PT7561</name></trkpt>
<trkpt lat="53.201200" lon="-1.766850"><ele>287</ele><time>2020-01-31T12:30:33Z</time><name>PT7562</name></trkpt>
<trkpt lat="53.201196" lon="-1.766869"><ele>287</ele><time>2020-01-31T12:30:33Z</time><name>PT7563</name></trkpt>
<trkpt lat="53.201194" lon="-1.766893"><ele>287</ele><time>2020-01-31T12:30:34Z</time><name>PT7564</name></trkpt>
<trkpt lat="53.201192" lon="-1.766912"><ele>287</ele><time>2020-01-31T12:30:36Z</time><name>PT7565</name></trkpt>
<trkpt lat="53.201190" lon="-1.766930"><ele>287</ele><time>2020-01-31T12:30:36Z</time><name>PT7566</name></trkpt>
<trkpt lat="53.201186" lon="-1.766954"><ele>287</ele><time>2020-01-31T12:30:37Z</time><name>PT7567</name></trkpt>
<trkpt lat="53.201183" lon="-1.766977"><ele>286</ele><time>2020-01-31T12:30:39Z</time><name>PT7568</name></trkpt>
<trkpt lat="53.201177" lon="-1.766998"><ele>286</ele><time>2020-01-31T12:30:39Z</time><name>PT7569</name></trkpt>
<trkpt lat="53.201171" lon="-1.767019"><ele>287</ele><time>2020-01-31T12:30:40Z</time><name>PT7570</name></trkpt>
<trkpt lat="53.201164" lon="-1.767036"><ele>287</ele><time>2020-01-31T12:30:42Z</time><name>PT7571</name></trkpt>
<trkpt lat="53.201158" lon="-1.767052"><ele>286</ele><time>2020-01-31T12:30:42Z</time><name>PT7572</name></trkpt>
<trkpt lat="53.201155" lon="-1.767069"><ele>286</ele><time>2020-01-31T12:30:43Z</time><name>PT7573</name></trkpt>
<trkpt lat="53.201151" lon="-1.767090"><ele>286</ele><time>2020-01-31T12:30:45Z</time><name>PT7574</name></trkpt>
<trkpt lat="53.201147" lon="-1.767113"><ele>286</ele><time>2020-01-31T12:30:45Z</time><name>PT7575</name></trkpt>
<trkpt lat="53.201143" lon="-1.767132"><ele>286</ele><time>2020-01-31T12:30:46Z</time><name>PT7576</name></trkpt>
<trkpt lat="53.201139" lon="-1.767151"><ele>286</ele><time>2020-01-31T12:30:48Z</time><name>PT7577</name></trkpt>
<trkpt lat="53.201134" lon="-1.767175"><ele>285</ele><time>2020-01-31T12:30:48Z</time><name>PT7578</name></trkpt>
<trkpt lat="53.201130" lon="-1.767198"><ele>285</ele><time>2020-01-31T12:30:49Z</time><name>PT7579</name></trkpt>
<trkpt lat="53.201126" lon="-1.767219"><ele>285</ele><time>2020-01-31T12:30:51Z</time><name>PT7580</name></trkpt>
<trkpt lat="53.201123" lon="-1.767240"><ele>285</ele><time>2020-01-31T12:30:51Z</time><name>PT7581</name></trkpt>
<trkpt lat="53.201121" lon="-1.767261"><ele>284</ele><time>2020-01-31T12:30:52Z</time><name>PT7582</name></trkpt>
<trkpt lat="53.201115" lon="-1.767284"><ele>285</ele><time>2020-01-31T12:30:54Z</time><name>PT7583</name></trkpt>
<trkpt lat="53.201112" lon="-1.767304"><ele>286</ele><time>2020-01-31T12:30:54Z</time><name>PT7584</name></trkpt>
<trkpt lat="53.201108" lon="-1.767327"><ele>286</ele><time>2020-01-31T12:30:55Z</time><name>PT7585</name></trkpt>
<trkpt lat="53.201102" lon="-1.767348"><ele>286</ele><time>2020-01-31T12:30:57Z</time><name>PT7586</name></trkpt>
<trkpt lat="53.201093" lon="-1.767366"><ele>286</ele><time>2020-01-31T12:30:57Z</time><name>PT7587</name></trkpt>
<trkpt lat="53.201091" lon="-1.767386"><ele>287</ele><time>2020-01-31T12:30:58Z</time><name>PT7588</name></trkpt>
<trkpt lat="53.201088" lon="-1.767409"><ele>287</ele><time>2020-01-31T12:31:00Z</time><name>PT7589</name></trkpt>
<trkpt lat="53.201087" lon="-1.767433"><ele>287</ele><time>2020-01-31T12:31:00Z</time><name>PT7590</name></trkpt>
<trkpt lat="53.201083" lon="-1.767453"><ele>288</ele><time>2020-01-31T12:31:01Z</time><name>PT7591</name></trkpt>
<trkpt lat="53.201078" lon="-1.767474"><ele>288</ele><time>2020-01-31T12:31:03Z</time><name>PT7592</name></trkpt>
<trkpt lat="53.201072" lon="-1.767492"><ele>288</ele><time>2020-01-31T12:31:03Z</time><name>PT7593</name></trkpt>
<trkpt lat="53.201067" lon="-1.767512"><ele>288</ele><time>2020-01-31T12:31:04Z</time><name>PT7594</name></trkpt>
<trkpt lat="53.201063" lon="-1.767533"><ele>288</ele><time>2020-01-31T12:31:06Z</time><name>PT7595</name></trkpt>
<trkpt lat="53.201059" lon="-1.767554"><ele>288</ele><time>2020-01-31T12:31:06Z</time><name>PT7596</name></trkpt>
<trkpt lat="53.201055" lon="-1.767574"><ele>288</ele><time>2020-01-31T12:31:07Z</time><name>PT7597</name></trkpt>
<trkpt lat="53.201051" lon="-1.767594"><ele>288</ele><time>2020-01-31T12:31:09Z</time><name>PT7598</name></trkpt>
<trkpt lat="53.201045" lon="-1.767614"><ele>288</ele><time>2020-01-31T12:31:09Z</time><name>PT7599</name></trkpt>
<trkpt lat="53.201039" lon="-1.767634"><ele>288</ele><time>2020-01-31T12:31:10Z</time><name>PT7600</name></trkpt>
<trkpt lat="53.201033" lon="-1.767652"><ele>288</ele><time>2020-01-31T12:31:12Z</time><name>PT7601</name></trkpt>
<trkpt lat="53.201028" lon="-1.767671"><ele>288</ele><time>2020-01-31T12:31:12Z</time><name>PT7602</name></trkpt>
<trkpt lat="53.201023" lon="-1.767692"><ele>288</ele><time>2020-01-31T12:31:13Z</time><name>PT7603</name></trkpt>
<trkpt lat="53.201018" lon="-1.767711"><ele>288</ele><time>2020-01-31T12:31:15Z</time><name>PT7604</name></trkpt>
<trkpt lat="53.201014" lon="-1.767729"><ele>288</ele><time>2020-01-31T12:31:15Z</time><name>PT7605</name></trkpt>
<trkpt lat="53.201009" lon="-1.767747"><ele>287</ele><time>2020-01-31T12:31:16Z</time><name>PT7606</name></trkpt>
<trkpt lat="53.201004" lon="-1.767762"><ele>287</ele><time>2020-01-31T12:31:18Z</time><name>PT7607</name></trkpt>
<trkpt lat="53.201002" lon="-1.767777"><ele>287</ele><time>2020-01-31T12:31:18Z</time><name>PT7608</name></trkpt>
<trkpt lat="53.201002" lon="-1.767793"><ele>287</ele><time>2020-01-31T12:31:20Z</time><name>PT7609</name></trkpt>
<trkpt lat="53.201004" lon="-1.767807"><ele>287</ele><time>2020-01-31T12:31:21Z</time><name>PT7610</name></trkpt>
<trkpt lat="53.201005" lon="-1.767823"><ele>287</ele><time>2020-01-31T12:31:21Z</time><name>PT7611</name></trkpt>
<trkpt lat="53.201009" lon="-1.767836"><ele>287</ele><time>2020-01-31T12:31:22Z</time><name>PT7612</name></trkpt>
<trkpt lat="53.201011" lon="-1.767848"><ele>287</ele><time>2020-01-31T12:31:24Z</time><name>PT7613</name></trkpt>
<trkpt lat="53.201012" lon="-1.767856"><ele>287</ele><time>2020-01-31T12:31:24Z</time><name>PT7614</name></trkpt>
<trkpt lat="53.201015" lon="-1.767860"><ele>287</ele><time>2020-01-31T12:31:25Z</time><name>PT7615</name></trkpt>
<trkpt lat="53.201017" lon="-1.767866"><ele>287</ele><time>2020-01-31T12:31:27Z</time><name>PT7616</name></trkpt>
<trkpt lat="53.201020" lon="-1.767868"><ele>287</ele><time>2020-01-31T12:31:27Z</time><name>PT7617</name></trkpt>
<trkpt lat="53.201022" lon="-1.767868"><ele>287</ele><time>2020-01-31T12:31:28Z</time><name>PT7618</name></trkpt>
<trkpt lat="53.201027" lon="-1.767876"><ele>287</ele><time>2020-01-31T12:31:30Z</time><name>PT7619</name></trkpt>
<trkpt lat="53.201030" lon="-1.767879"><ele>287</ele><time>2020-01-31T12:31:30Z</time><name>PT7620</name></trkpt>
<trkpt lat="53.201038" lon="-1.767880"><ele>287</ele><time>2020-01-31T12:31:31Z</time><name>PT7621</name></trkpt>
<trkpt lat="53.201046" lon="-1.767883"><ele>287</ele><time>2020-01-31T12:31:33Z</time><name>PT7622</name></trkpt>
<trkpt lat="53.201054" lon="-1.767884"><ele>287</ele><time>2020-01-31T12:31:33Z</time><name>PT7623</name></trkpt>
<trkpt lat="53.201059" lon="-1.767887"><ele>287</ele><time>2020-01-31T12:31:34Z</time><name>PT7624</name></trkpt>
<trkpt lat="53.201062" lon="-1.767881"><ele>287</ele><time>2020-01-31T12:31:36Z</time><name>PT7625</name></trkpt>
<trkpt lat="53.201069" lon="-1.767874"><ele>287</ele><time>2020-01-31T12:31:36Z</time><name>PT7626</name></trkpt>
<trkpt lat="53.201078" lon="-1.767870"><ele>287</ele><time>2020-01-31T12:31:37Z</time><name>PT7627</name></trkpt>
<trkpt lat="53.201086" lon="-1.767867"><ele>287</ele><time>2020-01-31T12:31:39Z</time><name>PT7628</name></trkpt>
<trkpt lat="53.201090" lon="-1.767860"><ele>287</ele><time>2020-01-31T12:31:39Z</time><name>PT7629</name></trkpt>
<trkpt lat="53.201094" lon="-1.767852"><ele>287</ele><time>2020-01-31T12:31:40Z</time><name>PT7630</name></trkpt>
<trkpt lat="53.201100" lon="-1.767848"><ele>286</ele><time>2020-01-31T12:31:42Z</time><name>PT7631</name></trkpt>
<trkpt lat="53.201108" lon="-1.767842"><ele>287</ele><time>2020-01-31T12:31:42Z</time><name>PT7632</name></trkpt>
<trkpt lat="53.201115" lon="-1.767835"><ele>287</ele><time>2020-01-31T12:31:43Z</time><name>PT7633</name></trkpt>
<trkpt lat="53.201123" lon="-1.767832"><ele>287</ele><time>2020-01-31T12:31:45Z</time><name>PT7634</name></trkpt>
<trkpt lat="53.201132" lon="-1.767829"><ele>287</ele><time>2020-01-31T12:31:45Z</time><name>PT7635</name></trkpt>
<trkpt lat="53.201138" lon="-1.767827"><ele>287</ele><time>2020-01-31T12:31:46Z</time><name>PT7636</name></trkpt>
<trkpt lat="53.201146" lon="-1.767824"><ele>287</ele><time>2020-01-31T12:31:48Z</time><name>PT7637</name></trkpt>
<trkpt lat="53.201154" lon="-1.767817"><ele>287</ele><time>2020-01-31T12:31:48Z</time><name>PT7638</name></trkpt>
<trkpt lat="53.201164" lon="-1.767813"><ele>287</ele><time>2020-01-31T12:31:49Z</time><name>PT7639</name></trkpt>
<trkpt lat="53.201179" lon="-1.767814"><ele>288</ele><time>2020-01-31T12:31:51Z</time><name>PT7640</name></trkpt>
<trkpt lat="53.201185" lon="-1.767811"><ele>287</ele><time>2020-01-31T12:31:51Z</time><name>PT7641</name></trkpt>
<trkpt lat="53.201193" lon="-1.767804"><ele>287</ele><time>2020-01-31T12:31:52Z</time><name>PT7642</name></trkpt>
<trkpt lat="53.201199" lon="-1.767802"><ele>287</ele><time>2020-01-31T12:31:54Z</time><name>PT7643</name></trkpt>
<trkpt lat="53.201210" lon="-1.767796"><ele>287</ele><time>2020-01-31T12:31:54Z</time><name>PT7644</name></trkpt>
<trkpt lat="53.201221" lon="-1.767792"><ele>287</ele><time>2020-01-31T12:31:55Z</time><name>PT7645</name></trkpt>
<trkpt lat="53.201231" lon="-1.767792"><ele>287</ele><time>2020-01-31T12:31:57Z</time><name>PT7646</name></trkpt>
<trkpt lat="53.201241" lon="-1.767788"><ele>287</ele><time>2020-01-31T12:31:57Z</time><name>PT7647</name></trkpt>
<trkpt lat="53.201252" lon="-1.767783"><ele>287</ele><time>2020-01-31T12:31:58Z</time><name>PT7648</name></trkpt>
<trkpt lat="53.201261" lon="-1.767778"><ele>287</ele><time>2020-01-31T12:32:00Z</time><name>PT7649</name></trkpt>
<trkpt lat="53.201271" lon="-1.767773"><ele>287</ele><time>2020-01-31T12:32:00Z</time><name>PT7650</name></trkpt>
<trkpt lat="53.201281" lon="-1.767769"><ele>287</ele><time>2020-01-31T12:32:01Z</time><name>PT7651</name></trkpt>
<trkpt lat="53.201291" lon="-1.767764"><ele>287</ele><time>2020-01-31T12:32:03Z</time><name>PT7652</name></trkpt>
<trkpt lat="53.201301" lon="-1.767758"><ele>286</ele><time>2020-01-31T12:32:03Z</time><name>PT7653</name></trkpt>
<trkpt lat="53.201311" lon="-1.767753"><ele>287</ele><time>2020-01-31T12:32:04Z</time><name>PT7654</name></trkpt>
<trkpt lat="53.201322" lon="-1.767748"><ele>286</ele><time>2020-01-31T12:32:06Z</time><name>PT7655</name></trkpt>
<trkpt lat="53.201333" lon="-1.767745"><ele>286</ele><time>2020-01-31T12:32:06Z</time><name>PT7656</name></trkpt>
<trkpt lat="53.201343" lon="-1.767740"><ele>286</ele><time>2020-01-31T12:32:07Z</time><name>PT7657</name></trkpt>
<trkpt lat="53.201355" lon="-1.767736"><ele>286</ele><time>2020-01-31T12:32:09Z</time><name>PT7658</name></trkpt>
<trkpt lat="53.201366" lon="-1.767732"><ele>287</ele><time>2020-01-31T12:32:09Z</time><name>PT7659</name></trkpt>
<trkpt lat="53.201378" lon="-1.767729"><ele>287</ele><time>2020-01-31T12:32:10Z</time><name>PT7660</name></trkpt>
<trkpt lat="53.201389" lon="-1.767726"><ele>287</ele><time>2020-01-31T12:32:12Z</time><name>PT7661</name></trkpt>
<trkpt lat="53.201399" lon="-1.767720"><ele>287</ele><time>2020-01-31T12:32:12Z</time><name>PT7662</name></trkpt>
<trkpt lat="53.201409" lon="-1.767712"><ele>287</ele><time>2020-01-31T12:32:13Z</time><name>PT7663</name></trkpt>
<trkpt lat="53.201420" lon="-1.767706"><ele>287</ele><time>2020-01-31T12:32:15Z</time><name>PT7664</name></trkpt>
<trkpt lat="53.201431" lon="-1.767702"><ele>287</ele><time>2020-01-31T12:32:15Z</time><name>PT7665</name></trkpt>
<trkpt lat="53.201442" lon="-1.767699"><ele>287</ele><time>2020-01-31T12:32:16Z</time><name>PT7666</name></trkpt>
<trkpt lat="53.201452" lon="-1.767695"><ele>287</ele><time>2020-01-31T12:32:18Z</time><name>PT7667</name></trkpt>
<trkpt lat="53.201463" lon="-1.767689"><ele>287</ele><time>2020-01-31T12:32:18Z</time><name>PT7668</name></trkpt>
<trkpt lat="53.201474" lon="-1.767684"><ele>287</ele><time>2020-01-31T12:32:19Z</time><name>PT7669</name></trkpt>
<trkpt lat="53.201485" lon="-1.767679"><ele>287</ele><time>2020-01-31T12:32:21Z</time><name>PT7670</name></trkpt>
<trkpt lat="53.201495" lon="-1.767675"><ele>287</ele><time>2020-01-31T12:32:21Z</time><name>PT7671</name></trkpt>
<trkpt lat="53.201505" lon="-1.767670"><ele>287</ele><time>2020-01-31T12:32:22Z</time><name>PT7672</name></trkpt>
<trkpt lat="53.201515" lon="-1.767663"><ele>287</ele><time>2020-01-31T12:32:24Z</time><name>PT7673</name></trkpt>
<trkpt lat="53.201527" lon="-1.767657"><ele>287</ele><time>2020-01-31T12:32:24Z</time><name>PT7674</name></trkpt>
<trkpt lat="53.201538" lon="-1.767655"><ele>287</ele><time>2020-01-31T12:32:25Z</time><name>PT7675</name></trkpt>
<trkpt lat="53.201549" lon="-1.767654"><ele>287</ele><time>2020-01-31T12:32:27Z</time><name>PT7676</name></trkpt>
<trkpt lat="53.201561" lon="-1.767652"><ele>287</ele><time>2020-01-31T12:32:27Z</time><name>PT7677</name></trkpt>
<trkpt lat="53.201571" lon="-1.767647"><ele>287</ele><time>2020-01-31T12:32:28Z</time><name>PT7678</name></trkpt>
<trkpt lat="53.201582" lon="-1.767641"><ele>287</ele><time>2020-01-31T12:32:30Z</time><name>PT7679</name></trkpt>
<trkpt lat="53.201593" lon="-1.767637"><ele>287</ele><time>2020-01-31T12:32:30Z</time><name>PT7680</name></trkpt>
<trkpt lat="53.201604" lon="-1.767632"><ele>287</ele><time>2020-01-31T12:32:31Z</time><name>PT7681</name></trkpt>
<trkpt lat="53.201614" lon="-1.767628"><ele>287</ele><time>2020-01-31T12:32:33Z</time><name>PT7682</name></trkpt>
<trkpt lat="53.201625" lon="-1.767622"><ele>287</ele><time>2020-01-31T12:32:33Z</time><name>PT7683</name></trkpt>
<trkpt lat="53.201636" lon="-1.767617"><ele>287</ele><time>2020-01-31T12:32:34Z</time><name>PT7684</name></trkpt>
<trkpt lat="53.201648" lon="-1.767610"><ele>287</ele><time>2020-01-31T12:32:36Z</time><name>PT7685</name></trkpt>
<trkpt lat="53.201658" lon="-1.767604"><ele>287</ele><time>2020-01-31T12:32:36Z</time><name>PT7686</name></trkpt>
<trkpt lat="53.201670" lon="-1.767601"><ele>287</ele><time>2020-01-31T12:32:37Z</time><name>PT7687</name></trkpt>
<trkpt lat="53.201682" lon="-1.767600"><ele>287</ele><time>2020-01-31T12:32:39Z</time><name>PT7688</name></trkpt>
<trkpt lat="53.201693" lon="-1.767596"><ele>287</ele><time>2020-01-31T12:32:39Z</time><name>PT7689</name></trkpt>
<trkpt lat="53.201705" lon="-1.767592"><ele>287</ele><time>2020-01-31T12:32:40Z</time><name>PT7690</name></trkpt>
<trkpt lat="53.201717" lon="-1.767589"><ele>287</ele><time>2020-01-31T12:32:42Z</time><name>PT7691</name></trkpt>
<trkpt lat="53.201729" lon="-1.767587"><ele>287</ele><time>2020-01-31T12:32:42Z</time><name>PT7692</name></trkpt>
<trkpt lat="53.201740" lon="-1.767585"><ele>287</ele><time>2020-01-31T12:32:43Z</time><name>PT7693</name></trkpt>
<trkpt lat="53.201751" lon="-1.767581"><ele>288</ele><time>2020-01-31T12:32:45Z</time><name>PT7694</name></trkpt>
<trkpt lat="53.201763" lon="-1.767574"><ele>287</ele><time>2020-01-31T12:32:45Z</time><name>PT7695</name></trkpt>
<trkpt lat="53.201774" lon="-1.767568"><ele>287</ele><time>2020-01-31T12:32:46Z</time><name>PT7696</name></trkpt>
<trkpt lat="53.201786" lon="-1.767564"><ele>288</ele><time>2020-01-31T12:32:48Z</time><name>PT7697</name></trkpt>
<trkpt lat="53.201799" lon="-1.767562"><ele>288</ele><time>2020-01-31T12:32:48Z</time><name>PT7698</name></trkpt>
<trkpt lat="53.201810" lon="-1.767562"><ele>288</ele><time>2020-01-31T12:32:49Z</time><name>PT7699</name></trkpt>
<trkpt lat="53.201821" lon="-1.767560"><ele>288</ele><time>2020-01-31T12:32:51Z</time><name>PT7700</name></trkpt>
<trkpt lat="53.201834" lon="-1.767557"><ele>288</ele><time>2020-01-31T12:32:51Z</time><name>PT7701</name></trkpt>
<trkpt lat="53.201845" lon="-1.767554"><ele>288</ele><time>2020-01-31T12:32:52Z</time><name>PT7702</name></trkpt>
<trkpt lat="53.201856" lon="-1.767552"><ele>288</ele><time>2020-01-31T12:32:54Z</time><name>PT7703</name></trkpt>
<trkpt lat="53.201868" lon="-1.767552"><ele>288</ele><time>2020-01-31T12:32:54Z</time><name>PT7704</name></trkpt>
<trkpt lat="53.201880" lon="-1.767552"><ele>288</ele><time>2020-01-31T12:32:55Z</time><name>PT7705</name></trkpt>
<trkpt lat="53.201892" lon="-1.767550"><ele>288</ele><time>2020-01-31T12:32:57Z</time><name>PT7706</name></trkpt>
<trkpt lat="53.201903" lon="-1.767547"><ele>288</ele><time>2020-01-31T12:32:57Z</time><name>PT7707</name></trkpt>
<trkpt lat="53.201912" lon="-1.767549"><ele>287</ele><time>2020-01-31T12:32:58Z</time><name>PT7708</name></trkpt>
<trkpt lat="53.201924" lon="-1.767550"><ele>286</ele><time>2020-01-31T12:33:00Z</time><name>PT7709</name></trkpt>
<trkpt lat="53.201933" lon="-1.767550"><ele>286</ele><time>2020-01-31T12:33:00Z</time><name>PT7710</name></trkpt>
<trkpt lat="53.201939" lon="-1.767551"><ele>287</ele><time>2020-01-31T12:33:01Z</time><name>PT7711</name></trkpt>
<trkpt lat="53.201950" lon="-1.767546"><ele>287</ele><time>2020-01-31T12:33:03Z</time><name>PT7712</name></trkpt>
<trkpt lat="53.201969" lon="-1.767538"><ele>287</ele><time>2020-01-31T12:33:03Z</time><name>PT7713</name></trkpt>
<trkpt lat="53.201987" lon="-1.767532"><ele>287</ele><time>2020-01-31T12:33:04Z</time><name>PT7714</name></trkpt>
<trkpt lat="53.202001" lon="-1.767528"><ele>287</ele><time>2020-01-31T12:33:06Z</time><name>PT7715</name></trkpt>
<trkpt lat="53.202010" lon="-1.767529"><ele>286</ele><time>2020-01-31T12:33:06Z</time><name>PT7716</name></trkpt>
<trkpt lat="53.202018" lon="-1.767530"><ele>287</ele><time>2020-01-31T12:33:07Z</time><name>PT7717</name></trkpt>
<trkpt lat="53.202029" lon="-1.767527"><ele>287</ele><time>2020-01-31T12:33:09Z</time><name>PT7718</name></trkpt>
<trkpt lat="53.202045" lon="-1.767523"><ele>287</ele><time>2020-01-31T12:33:09Z</time><name>PT7719</name></trkpt>
<trkpt lat="53.202061" lon="-1.767517"><ele>287</ele><time>2020-01-31T12:33:10Z</time><name>PT7720</name></trkpt>
<trkpt lat="53.202075" lon="-1.767512"><ele>287</ele><time>2020-01-31T12:33:12Z</time><name>PT7721</name></trkpt>
<trkpt lat="53.202086" lon="-1.767510"><ele>287</ele><time>2020-01-31T12:33:12Z</time><name>PT7722</name></trkpt>
<trkpt lat="53.202095" lon="-1.767507"><ele>287</ele><time>2020-01-31T12:33:13Z</time><name>PT7723</name></trkpt>
<trkpt lat="53.202103" lon="-1.767505"><ele>287</ele><time>2020-01-31T12:33:15Z</time><name>PT7724</name></trkpt>
<trkpt lat="53.202117" lon="-1.767496"><ele>287</ele><time>2020-01-31T12:33:15Z</time><name>PT7725</name></trkpt>
<trkpt lat="53.202131" lon="-1.767489"><ele>287</ele><time>2020-01-31T12:33:16Z</time><name>PT7726</name></trkpt>
<trkpt lat="53.202146" lon="-1.767485"><ele>287</ele><time>2020-01-31T12:33:18Z</time><name>PT7727</name></trkpt>
<trkpt lat="53.202162" lon="-1.767476"><ele>288</ele><time>2020-01-31T12:33:18Z</time><name>PT7728</name></trkpt>
<trkpt lat="53.202174" lon="-1.767472"><ele>289</ele><time>2020-01-31T12:33:19Z</time><name>PT7729</name></trkpt>
<trkpt lat="53.202186" lon="-1.767468"><ele>289</ele><time>2020-01-31T12:33:21Z</time><name>PT7730</name></trkpt>
<trkpt lat="53.202199" lon="-1.767461"><ele>289</ele><time>2020-01-31T12:33:21Z</time><name>PT7731</name></trkpt>
<trkpt lat="53.202207" lon="-1.767462"><ele>288</ele><time>2020-01-31T12:33:22Z</time><name>PT7732</name></trkpt>
<trkpt lat="53.202219" lon="-1.767457"><ele>288</ele><time>2020-01-31T12:33:24Z</time><name>PT7733</name></trkpt>
<trkpt lat="53.202231" lon="-1.767454"><ele>288</ele><time>2020-01-31T12:33:24Z</time><name>PT7734</name></trkpt>
<trkpt lat="53.202239" lon="-1.767452"><ele>288</ele><time>2020-01-31T12:33:25Z</time><name>PT7735</name></trkpt>
<trkpt lat="53.202248" lon="-1.767453"><ele>288</ele><time>2020-01-31T12:33:27Z</time><name>PT7736</name></trkpt>
<trkpt lat="53.202259" lon="-1.767449"><ele>288</ele><time>2020-01-31T12:33:27Z</time><name>PT7737</name></trkpt>
<trkpt lat="53.202271" lon="-1.767444"><ele>288</ele><time>2020-01-31T12:33:28Z</time><name>PT7738</name></trkpt>
<trkpt lat="53.202286" lon="-1.767439"><ele>288</ele><time>2020-01-31T12:33:30Z</time><name>PT7739</name></trkpt>
<trkpt lat="53.202298" lon="-1.767436"><ele>287</ele><time>2020-01-31T12:33:30Z</time><name>PT7740</name></trkpt>
<trkpt lat="53.202309" lon="-1.767435"><ele>287</ele><time>2020-01-31T12:33:31Z</time><name>PT7741</name></trkpt>
<trkpt lat="53.202315" lon="-1.767435"><ele>287</ele><time>2020-01-31T12:33:33Z</time><name>PT7742</name></trkpt>
<trkpt lat="53.202323" lon="-1.767430"><ele>287</ele><time>2020-01-31T12:33:33Z</time><name>PT7743</name></trkpt>
<trkpt lat="53.202339" lon="-1.767413"><ele>288</ele><time>2020-01-31T12:33:34Z</time><name>PT7744</name></trkpt>
<trkpt lat="53.202351" lon="-1.767406"><ele>288</ele><time>2020-01-31T12:33:36Z</time><name>PT7745</name></trkpt>
<trkpt lat="53.202362" lon="-1.767398"><ele>288</ele><time>2020-01-31T12:33:36Z</time><name>PT7746</name></trkpt>
<trkpt lat="53.202375" lon="-1.767394"><ele>288</ele><time>2020-01-31T12:33:37Z</time><name>PT7747</name></trkpt>
<trkpt lat="53.202388" lon="-1.767388"><ele>289</ele><time>2020-01-31T12:33:39Z</time><name>PT7748</name></trkpt>
<trkpt lat="53.202401" lon="-1.767381"><ele>289</ele><time>2020-01-31T12:33:39Z</time><name>PT7749</name></trkpt>
<trkpt lat="53.202413" lon="-1.767375"><ele>289</ele><time>2020-01-31T12:33:40Z</time><name>PT7750</name></trkpt>
<trkpt lat="53.202424" lon="-1.767367"><ele>289</ele><time>2020-01-31T12:33:42Z</time><name>PT7751</name></trkpt>
<trkpt lat="53.202436" lon="-1.767362"><ele>289</ele><time>2020-01-31T12:33:42Z</time><name>PT7752</name></trkpt>
<trkpt lat="53.202443" lon="-1.767363"><ele>289</ele><time>2020-01-31T12:33:43Z</time><name>PT7753</name></trkpt>
<trkpt lat="53.202448" lon="-1.767363"><ele>289</ele><time>2020-01-31T12:33:45Z</time><name>PT7754</name></trkpt>
<trkpt lat="53.202458" lon="-1.767355"><ele>289</ele><time>2020-01-31T12:33:45Z</time><name>PT7755</name></trkpt>
<trkpt lat="53.202470" lon="-1.767345"><ele>289</ele><time>2020-01-31T12:33:46Z</time><name>PT7756</name></trkpt>
<trkpt lat="53.202481" lon="-1.767333"><ele>289</ele><time>2020-01-31T12:33:48Z</time><name>PT7757</name></trkpt>
<trkpt lat="53.202494" lon="-1.767319"><ele>289</ele><time>2020-01-31T12:33:48Z</time><name>PT7758</name></trkpt>
<trkpt lat="53.202505" lon="-1.767307"><ele>289</ele><time>2020-01-31T12:33:49Z</time><name>PT7759</name></trkpt>
<trkpt lat="53.202516" lon="-1.767299"><ele>289</ele><time>2020-01-31T12:33:51Z</time><name>PT7760</name></trkpt>
<trkpt lat="53.202526" lon="-1.767292"><ele>289</ele><time>2020-01-31T12:33:51Z</time><name>PT7761</name></trkpt>
<trkpt lat="53.202535" lon="-1.767286"><ele>289</ele><time>2020-01-31T12:33:52Z</time><name>PT7762</name></trkpt>
<trkpt lat="53.202548" lon="-1.767276"><ele>289</ele><time>2020-01-31T12:33:54Z</time><name>PT7763</name></trkpt>
<trkpt lat="53.202555" lon="-1.767272"><ele>288</ele><time>2020-01-31T12:33:54Z</time><name>PT7764</name></trkpt>
<trkpt lat="53.202563" lon="-1.767267"><ele>288</ele><time>2020-01-31T12:33:55Z</time><name>PT7765</name></trkpt>
<trkpt lat="53.202571" lon="-1.767260"><ele>288</ele><time>2020-01-31T12:33:57Z</time><name>PT7766</name></trkpt>
<trkpt lat="53.202578" lon="-1.767252"><ele>288</ele><time>2020-01-31T12:33:57Z</time><name>PT7767</name></trkpt>
<trkpt lat="53.202582" lon="-1.767248"><ele>288</ele><time>2020-01-31T12:33:58Z</time><name>PT7768</name></trkpt>
<trkpt lat="53.202582" lon="-1.767248"><ele>288</ele><time>2020-01-31T12:34:00Z</time><name>PT7769</name></trkpt>
<trkpt lat="53.202584" lon="-1.767247"><ele>288</ele><time>2020-01-31T12:34:00Z</time><name>PT7770</name></trkpt>
<trkpt lat="53.202586" lon="-1.767246"><ele>288</ele><time>2020-01-31T12:34:01Z</time><name>PT7771</name></trkpt>
<trkpt lat="53.202588" lon="-1.767245"><ele>289</ele><time>2020-01-31T12:34:03Z</time><name>PT7772</name></trkpt>
<trkpt lat="53.202591" lon="-1.767241"><ele>289</ele><time>2020-01-31T12:34:03Z</time><name>PT7773</name></trkpt>
<trkpt lat="53.202596" lon="-1.767236"><ele>289</ele><time>2020-01-31T12:34:04Z</time><name>PT7774</name></trkpt>
<trkpt lat="53.202599" lon="-1.767230"><ele>290</ele><time>2020-01-31T12:34:06Z</time><name>PT7775</name></trkpt>
<trkpt lat="53.202599" lon="-1.767219"><ele>290</ele><time>2020-01-31T12:34:06Z</time><name>PT7776</name></trkpt>
<trkpt lat="53.202608" lon="-1.767200"><ele>290</ele><time>2020-01-31T12:34:07Z</time><name>PT7777</name></trkpt>
<trkpt lat="53.202617" lon="-1.767183"><ele>290</ele><time>2020-01-31T12:34:09Z</time><name>PT7778</name></trkpt>
<trkpt lat="53.202626" lon="-1.767170"><ele>290</ele><time>2020-01-31T12:34:09Z</time><name>PT7779</name></trkpt>
<trkpt lat="53.202633" lon="-1.767157"><ele>290</ele><time>2020-01-31T12:34:10Z</time><name>PT7780</name></trkpt>
<trkpt lat="53.202640" lon="-1.767144"><ele>290</ele><time>2020-01-31T12:34:12Z</time><name>PT7781</name></trkpt>
<trkpt lat="53.202648" lon="-1.767128"><ele>290</ele><time>2020-01-31T12:34:12Z</time><name>PT7782</name></trkpt>
<trkpt lat="53.202656" lon="-1.767112"><ele>290</ele><time>2020-01-31T12:34:13Z</time><name>PT7783</name></trkpt>
<trkpt lat="53.202663" lon="-1.767097"><ele>290</ele><time>2020-01-31T12:34:15Z</time><name>PT7784</name></trkpt>
<trkpt lat="53.202670" lon="-1.767082"><ele>290</ele><time>2020-01-31T12:34:15Z</time><name>PT7785</name></trkpt>
<trkpt lat="53.202676" lon="-1.767069"><ele>290</ele><time>2020-01-31T12:34:16Z</time><name>PT7786</name></trkpt>
<trkpt lat="53.202681" lon="-1.767055"><ele>290</ele><time>2020-01-31T12:34:18Z</time><name>PT7787</name></trkpt>
<trkpt lat="53.202687" lon="-1.767041"><ele>290</ele><time>2020-01-31T12:34:18Z</time><name>PT7788</name></trkpt>
<trkpt lat="53.202694" lon="-1.767027"><ele>290</ele><time>2020-01-31T12:34:19Z</time><name>PT7789</name></trkpt>
<trkpt lat="53.202699" lon="-1.767021"><ele>290</ele><time>2020-01-31T12:34:21Z</time><name>PT7790</name></trkpt>
<trkpt lat="53.202703" lon="-1.767014"><ele>290</ele><time>2020-01-31T12:34:21Z</time><name>PT7791</name></trkpt>
<trkpt lat="53.202702" lon="-1.767006"><ele>289</ele><time>2020-01-31T12:34:22Z</time><name>PT7792</name></trkpt>
<trkpt lat="53.202710" lon="-1.766987"><ele>289</ele><time>2020-01-31T12:34:24Z</time><name>PT7793</name></trkpt>
<trkpt lat="53.202721" lon="-1.766964"><ele>289</ele><time>2020-01-31T12:34:24Z</time><name>PT7794</name></trkpt>
<trkpt lat="53.202732" lon="-1.766941"><ele>289</ele><time>2020-01-31T12:34:25Z</time><name>PT7795</name></trkpt>
<trkpt lat="53.202740" lon="-1.766934"><ele>289</ele><time>2020-01-31T12:34:27Z</time><name>PT7796</name></trkpt>
<trkpt lat="53.202747" lon="-1.766925"><ele>288</ele><time>2020-01-31T12:34:27Z</time><name>PT7797</name></trkpt>
<trkpt lat="53.202753" lon="-1.766913"><ele>288</ele><time>2020-01-31T12:34:28Z</time><name>PT7798</name></trkpt>
<trkpt lat="53.202761" lon="-1.766892"><ele>288</ele><time>2020-01-31T12:34:30Z</time><name>PT7799</name></trkpt>
<trkpt lat="53.202771" lon="-1.766868"><ele>289</ele><time>2020-01-31T12:34:30Z</time><name>PT7800</name></trkpt>
<trkpt lat="53.202780" lon="-1.766851"><ele>289</ele><time>2020-01-31T12:34:31Z</time><name>PT7801</name></trkpt>
<trkpt lat="53.202786" lon="-1.766838"><ele>289</ele><time>2020-01-31T12:34:33Z</time><name>PT7802</name></trkpt>
<trkpt lat="53.202791" lon="-1.766829"><ele>289</ele><time>2020-01-31T12:34:33Z</time><name>PT7803</name></trkpt>
<trkpt lat="53.202796" lon="-1.766818"><ele>289</ele><time>2020-01-31T12:34:34Z</time><name>PT7804</name></trkpt>
<trkpt lat="53.202803" lon="-1.766797"><ele>289</ele><time>2020-01-31T12:34:36Z</time><name>PT7805</name></trkpt>
<trkpt lat="53.202814" lon="-1.766771"><ele>289</ele><time>2020-01-31T12:34:36Z</time><name>PT7806</name></trkpt>
<trkpt lat="53.202823" lon="-1.766749"><ele>289</ele><time>2020-01-31T12:34:37Z</time><name>PT7807</name></trkpt>
<trkpt lat="53.202830" lon="-1.766738"><ele>289</ele><time>2020-01-31T12:34:39Z</time><name>PT7808</name></trkpt>
<trkpt lat="53.202837" lon="-1.766731"><ele>289</ele><time>2020-01-31T12:34:39Z</time><name>PT7809</name></trkpt>
<trkpt lat="53.202844" lon="-1.766718"><ele>289</ele><time>2020-01-31T12:34:40Z</time><name>PT7810</name></trkpt>
<trkpt lat="53.202854" lon="-1.766697"><ele>290</ele><time>2020-01-31T12:34:42Z</time><name>PT7811</name></trkpt>
<trkpt lat="53.202867" lon="-1.766669"><ele>290</ele><time>2020-01-31T12:34:42Z</time><name>PT7812</name></trkpt>
<trkpt lat="53.202880" lon="-1.766643"><ele>290</ele><time>2020-01-31T12:34:43Z</time><name>PT7813</name></trkpt>
<trkpt lat="53.202889" lon="-1.766624"><ele>290</ele><time>2020-01-31T12:34:45Z</time><name>PT7814</name></trkpt>
<trkpt lat="53.202898" lon="-1.766613"><ele>290</ele><time>2020-01-31T12:34:45Z</time><name>PT7815</name></trkpt>
<trkpt lat="53.202904" lon="-1.766605"><ele>290</ele><time>2020-01-31T12:34:46Z</time><name>PT7816</name></trkpt>
<trkpt lat="53.202909" lon="-1.766597"><ele>290</ele><time>2020-01-31T12:34:48Z</time><name>PT7817</name></trkpt>
<trkpt lat="53.202917" lon="-1.766583"><ele>290</ele><time>2020-01-31T12:34:48Z</time><name>PT7818</name></trkpt>
<trkpt lat="53.202926" lon="-1.766560"><ele>290</ele><time>2020-01-31T12:34:49Z</time><name>PT7819</name></trkpt>
<trkpt lat="53.202936" lon="-1.766539"><ele>290</ele><time>2020-01-31T12:34:51Z</time><name>PT7820</name></trkpt>
<trkpt lat="53.202947" lon="-1.766524"><ele>290</ele><time>2020-01-31T12:34:51Z</time><name>PT7821</name></trkpt>
<trkpt lat="53.202956" lon="-1.766510"><ele>290</ele><time>2020-01-31T12:34:52Z</time><name>PT7822</name></trkpt>
<trkpt lat="53.202962" lon="-1.766496"><ele>290</ele><time>2020-01-31T12:34:54Z</time><name>PT7823</name></trkpt>
<trkpt lat="53.202969" lon="-1.766479"><ele>290</ele><time>2020-01-31T12:34:54Z</time><name>PT7824</name></trkpt>
<trkpt lat="53.202977" lon="-1.766461"><ele>290</ele><time>2020-01-31T12:34:55Z</time><name>PT7825</name></trkpt>
<trkpt lat="53.202984" lon="-1.766443"><ele>290</ele><time>2020-01-31T12:34:57Z</time><name>PT7826</name></trkpt>
<trkpt lat="53.202992" lon="-1.766419"><ele>290</ele><time>2020-01-31T12:34:57Z</time><name>PT7827</name></trkpt>
<trkpt lat="53.203001" lon="-1.766397"><ele>290</ele><time>2020-01-31T12:34:58Z</time><name>PT7828</name></trkpt>
<trkpt lat="53.203009" lon="-1.766386"><ele>290</ele><time>2020-01-31T12:35:00Z</time><name>PT7829</name></trkpt>
<trkpt lat="53.203014" lon="-1.766382"><ele>290</ele><time>2020-01-31T12:35:00Z</time><name>PT7830</name></trkpt>
<trkpt lat="53.203019" lon="-1.766368"><ele>290</ele><time>2020-01-31T12:35:01Z</time><name>PT7831</name></trkpt>
<trkpt lat="53.203029" lon="-1.766353"><ele>290</ele><time>2020-01-31T12:35:03Z</time><name>PT7832</name></trkpt>
<trkpt lat="53.203038" lon="-1.766338"><ele>290</ele><time>2020-01-31T12:35:03Z</time><name>PT7833</name></trkpt>
<trkpt lat="53.203048" lon="-1.766325"><ele>290</ele><time>2020-01-31T12:35:04Z</time><name>PT7834</name></trkpt>
<trkpt lat="53.203057" lon="-1.766308"><ele>290</ele><time>2020-01-31T12:35:06Z</time><name>PT7835</name></trkpt>
<trkpt lat="53.203063" lon="-1.766297"><ele>290</ele><time>2020-01-31T12:35:06Z</time><name>PT7836</name></trkpt>
<trkpt lat="53.203069" lon="-1.766284"><ele>291</ele><time>2020-01-31T12:35:07Z</time><name>PT7837</name></trkpt>
<trkpt lat="53.203075" lon="-1.766270"><ele>290</ele><time>2020-01-31T12:35:09Z</time><name>PT7838</name></trkpt>
<trkpt lat="53.203085" lon="-1.766246"><ele>290</ele><time>2020-01-31T12:35:09Z</time><name>PT7839</name></trkpt>
<trkpt lat="53.203095" lon="-1.766224"><ele>290</ele><time>2020-01-31T12:35:10Z</time><name>PT7840</name></trkpt>
<trkpt lat="53.203104" lon="-1.766207"><ele>290</ele><time>2020-01-31T12:35:12Z</time><name>PT7841</name></trkpt>
<trkpt lat="53.203110" lon="-1.766193"><ele>290</ele><time>2020-01-31T12:35:12Z</time><name>PT7842</name></trkpt>
<trkpt lat="53.203116" lon="-1.766186"><ele>290</ele><time>2020-01-31T12:35:13Z</time><name>PT7843</name></trkpt>
<trkpt lat="53.203123" lon="-1.766178"><ele>290</ele><time>2020-01-31T12:35:15Z</time><name>PT7844</name></trkpt>
<trkpt lat="53.203131" lon="-1.766159"><ele>290</ele><time>2020-01-31T12:35:15Z</time><name>PT7845</name></trkpt>
<trkpt lat="53.203139" lon="-1.766136"><ele>290</ele><time>2020-01-31T12:35:16Z</time><name>PT7846</name></trkpt>
<trkpt lat="53.203149" lon="-1.766116"><ele>290</ele><time>2020-01-31T12:35:18Z</time><name>PT7847</name></trkpt>
<trkpt lat="53.203157" lon="-1.766099"><ele>289</ele><time>2020-01-31T12:35:18Z</time><name>PT7848</name></trkpt>
<trkpt lat="53.203166" lon="-1.766083"><ele>290</ele><time>2020-01-31T12:35:19Z</time><name>PT7849</name></trkpt>
<trkpt lat="53.203175" lon="-1.766067"><ele>290</ele><time>2020-01-31T12:35:21Z</time><name>PT7850</name></trkpt>
<trkpt lat="53.203183" lon="-1.766047"><ele>290</ele><time>2020-01-31T12:35:21Z</time><name>PT7851</name></trkpt>
<trkpt lat="53.203191" lon="-1.766030"><ele>290</ele><time>2020-01-31T12:35:22Z</time><name>PT7852</name></trkpt>
<trkpt lat="53.203201" lon="-1.766013"><ele>290</ele><time>2020-01-31T12:35:24Z</time><name>PT7853</name></trkpt>
<trkpt lat="53.203210" lon="-1.765997"><ele>290</ele><time>2020-01-31T12:35:24Z</time><name>PT7854</name></trkpt>
<trkpt lat="53.203221" lon="-1.765983"><ele>290</ele><time>2020-01-31T12:35:25Z</time><name>PT7855</name></trkpt>
<trkpt lat="53.203229" lon="-1.765968"><ele>290</ele><time>2020-01-31T12:35:27Z</time><name>PT7856</name></trkpt>
<trkpt lat="53.203237" lon="-1.765951"><ele>290</ele><time>2020-01-31T12:35:27Z</time><name>PT7857</name></trkpt>
<trkpt lat="53.203245" lon="-1.765936"><ele>290</ele><time>2020-01-31T12:35:28Z</time><name>PT7858</name></trkpt>
<trkpt lat="53.203254" lon="-1.765922"><ele>291</ele><time>2020-01-31T12:35:30Z</time><name>PT7859</name></trkpt>
<trkpt lat="53.203263" lon="-1.765907"><ele>290</ele><time>2020-01-31T12:35:30Z</time><name>PT7860</name></trkpt>
<trkpt lat="53.203272" lon="-1.765895"><ele>290</ele><time>2020-01-31T12:35:31Z</time><name>PT7861</name></trkpt>
<trkpt lat="53.203282" lon="-1.765882"><ele>291</ele><time>2020-01-31T12:35:33Z</time><name>PT7862</name></trkpt>
<trkpt lat="53.203291" lon="-1.765866"><ele>291</ele><time>2020-01-31T12:35:33Z</time><name>PT7863</name></trkpt>
<trkpt lat="53.203300" lon="-1.765850"><ele>290</ele><time>2020-01-31T12:35:34Z</time><name>PT7864</name></trkpt>
<trkpt lat="53.203308" lon="-1.765836"><ele>290</ele><time>2020-01-31T12:35:36Z</time><name>PT7865</name></trkpt>
<trkpt lat="53.203318" lon="-1.765822"><ele>290</ele><time>2020-01-31T12:35:36Z</time><name>PT7866</name></trkpt>
<trkpt lat="53.203327" lon="-1.765808"><ele>290</ele><time>2020-01-31T12:35:37Z</time><name>PT7867</name></trkpt>
<trkpt lat="53.203336" lon="-1.765794"><ele>290</ele><time>2020-01-31T12:35:39Z</time><name>PT7868</name></trkpt>
<trkpt lat="53.203344" lon="-1.765780"><ele>290</ele><time>2020-01-31T12:35:39Z</time><name>PT7869</name></trkpt>
<trkpt lat="53.203352" lon="-1.765761"><ele>290</ele><time>2020-01-31T12:35:40Z</time><name>PT7870</name></trkpt>
<trkpt lat="53.203359" lon="-1.765744"><ele>290</ele><time>2020-01-31T12:35:42Z</time><name>PT7871</name></trkpt>
<trkpt lat="53.203367" lon="-1.765726"><ele>290</ele><time>2020-01-31T12:35:42Z</time><name>PT7872</name></trkpt>
<trkpt lat="53.203376" lon="-1.765709"><ele>290</ele><time>2020-01-31T12:35:43Z</time><name>PT7873</name></trkpt>
<trkpt lat="53.203385" lon="-1.765694"><ele>290</ele><time>2020-01-31T12:35:45Z</time><name>PT7874</name></trkpt>
<trkpt lat="53.203391" lon="-1.765678"><ele>290</ele><time>2020-01-31T12:35:45Z</time><name>PT7875</name></trkpt>
<trkpt lat="53.203399" lon="-1.765660"><ele>290</ele><time>2020-01-31T12:35:46Z</time><name>PT7876</name></trkpt>
<trkpt lat="53.203406" lon="-1.765643"><ele>290</ele><time>2020-01-31T12:35:48Z</time><name>PT7877</name></trkpt>
<trkpt lat="53.203413" lon="-1.765626"><ele>290</ele><time>2020-01-31T12:35:48Z</time><name>PT7878</name></trkpt>
<trkpt lat="53.203421" lon="-1.765609"><ele>290</ele><time>2020-01-31T12:35:49Z</time><name>PT7879</name></trkpt>
<trkpt lat="53.203430" lon="-1.765595"><ele>290</ele><time>2020-01-31T12:35:51Z</time><name>PT7880</name></trkpt>
<trkpt lat="53.203438" lon="-1.765580"><ele>290</ele><time>2020-01-31T12:35:51Z</time><name>PT7881</name></trkpt>
<trkpt lat="53.203445" lon="-1.765563"><ele>290</ele><time>2020-01-31T12:35:52Z</time><name>PT7882</name></trkpt>
<trkpt lat="53.203452" lon="-1.765545"><ele>290</ele><time>2020-01-31T12:35:54Z</time><name>PT7883</name></trkpt>
<trkpt lat="53.203459" lon="-1.765531"><ele>290</ele><time>2020-01-31T12:35:54Z</time><name>PT7884</name></trkpt>
<trkpt lat="53.203468" lon="-1.765517"><ele>290</ele><time>2020-01-31T12:35:55Z</time><name>PT7885</name></trkpt>
<trkpt lat="53.203475" lon="-1.765513"><ele>290</ele><time>2020-01-31T12:35:57Z</time><name>PT7886</name></trkpt>
<trkpt lat="53.203480" lon="-1.765508"><ele>290</ele><time>2020-01-31T12:35:57Z</time><name>PT7887</name></trkpt>
<trkpt lat="53.203487" lon="-1.765497"><ele>290</ele><time>2020-01-31T12:35:58Z</time><name>PT7888</name></trkpt>
<trkpt lat="53.203494" lon="-1.765487"><ele>290</ele><time>2020-01-31T12:36:00Z</time><name>PT7889</name></trkpt>
<trkpt lat="53.203502" lon="-1.765478"><ele>290</ele><time>2020-01-31T12:36:00Z</time><name>PT7890</name></trkpt>
<trkpt lat="53.203506" lon="-1.765470"><ele>290</ele><time>2020-01-31T12:36:01Z</time><name>PT7891</name></trkpt>
<trkpt lat="53.203508" lon="-1.765468"><ele>290</ele><time>2020-01-31T12:36:03Z</time><name>PT7892</name></trkpt>
<trkpt lat="53.203509" lon="-1.765467"><ele>290</ele><time>2020-01-31T12:36:03Z</time><name>PT7893</name></trkpt>
<trkpt lat="53.203510" lon="-1.765467"><ele>290</ele><time>2020-01-31T12:36:04Z</time><name>PT7894</name></trkpt>
<trkpt lat="53.203512" lon="-1.765463"><ele>290</ele><time>2020-01-31T12:36:06Z</time><name>PT7895</name></trkpt>
<trkpt lat="53.203518" lon="-1.765452"><ele>290</ele><time>2020-01-31T12:36:06Z</time><name>PT7896</name></trkpt>
<trkpt lat="53.203522" lon="-1.765447"><ele>291</ele><time>2020-01-31T12:36:07Z</time><name>PT7897</name></trkpt>
<trkpt lat="53.203522" lon="-1.765445"><ele>291</ele><time>2020-01-31T12:36:09Z</time><name>PT7898</name></trkpt>
<trkpt lat="53.203523" lon="-1.765442"><ele>291</ele><time>2020-01-31T12:36:09Z</time><name>PT7899</name></trkpt>
<trkpt lat="53.203524" lon="-1.765439"><ele>291</ele><time>2020-01-31T12:36:10Z</time><name>PT7900</name></trkpt>
<trkpt lat="53.203524" lon="-1.765438"><ele>291</ele><time>2020-01-31T12:36:12Z</time><name>PT7901</name></trkpt>
<trkpt lat="53.203525" lon="-1.765435"><ele>291</ele><time>2020-01-31T12:36:12Z</time><name>PT7902</name></trkpt>
<trkpt lat="53.203529" lon="-1.765434"><ele>291</ele><time>2020-01-31T12:36:13Z</time><name>PT7903</name></trkpt>
<trkpt lat="53.203539" lon="-1.765432"><ele>290</ele><time>2020-01-31T12:36:15Z</time><name>PT7904</name></trkpt>
<trkpt lat="53.203549" lon="-1.765424"><ele>291</ele><time>2020-01-31T12:36:15Z</time><name>PT7905</name></trkpt>
<trkpt lat="53.203555" lon="-1.765413"><ele>291</ele><time>2020-01-31T12:36:16Z</time><name>PT7906</name></trkpt>
<trkpt lat="53.203563" lon="-1.765403"><ele>291</ele><time>2020-01-31T12:36:18Z</time><name>PT7907</name></trkpt>
<trkpt lat="53.203571" lon="-1.765395"><ele>291</ele><time>2020-01-31T12:36:18Z</time><name>PT7908</name></trkpt>
<trkpt lat="53.203579" lon="-1.765388"><ele>291</ele><time>2020-01-31T12:36:19Z</time><name>PT7909</name></trkpt>
<trkpt lat="53.203588" lon="-1.765379"><ele>291</ele><time>2020-01-31T12:36:21Z</time><name>PT7910</name></trkpt>
<trkpt lat="53.203597" lon="-1.765371"><ele>291</ele><time>2020-01-31T12:36:21Z</time><name>PT7911</name></trkpt>
<trkpt lat="53.203607" lon="-1.765364"><ele>291</ele><time>2020-01-31T12:36:22Z</time><name>PT7912</name></trkpt>
<trkpt lat="53.203617" lon="-1.765356"><ele>291</ele><time>2020-01-31T12:36:24Z</time><name>PT7913</name></trkpt>
<trkpt lat="53.203626" lon="-1.765348"><ele>291</ele><time>2020-01-31T12:36:24Z</time><name>PT7914</name></trkpt>
<trkpt lat="53.203635" lon="-1.765340"><ele>291</ele><time>2020-01-31T12:36:25Z</time><name>PT7915</name></trkpt>
<trkpt lat="53.203645" lon="-1.765332"><ele>291</ele><time>2020-01-31T12:36:27Z</time><name>PT7916</name></trkpt>
<trkpt lat="53.203653" lon="-1.765324"><ele>291</ele><time>2020-01-31T12:36:27Z</time><name>PT7917</name></trkpt>
<trkpt lat="53.203662" lon="-1.765317"><ele>291</ele><time>2020-01-31T12:36:28Z</time><name>PT7918</name></trkpt>
<trkpt lat="53.203672" lon="-1.765310"><ele>291</ele><time>2020-01-31T12:36:30Z</time><name>PT7919</name></trkpt>
<trkpt lat="53.203684" lon="-1.765302"><ele>291</ele><time>2020-01-31T12:36:30Z</time><name>PT7920</name></trkpt>
<trkpt lat="53.203693" lon="-1.765294"><ele>291</ele><time>2020-01-31T12:36:31Z</time><name>PT7921</name></trkpt>
<trkpt lat="53.203703" lon="-1.765285"><ele>291</ele><time>2020-01-31T12:36:33Z</time><name>PT7922</name></trkpt>
<trkpt lat="53.203712" lon="-1.765275"><ele>291</ele><time>2020-01-31T12:36:33Z</time><name>PT7923</name></trkpt>
<trkpt lat="53.203721" lon="-1.765268"><ele>291</ele><time>2020-01-31T12:36:34Z</time><name>PT7924</name></trkpt>
<trkpt lat="53.203730" lon="-1.765266"><ele>291</ele><time>2020-01-31T12:36:36Z</time><name>PT7925</name></trkpt>
<trkpt lat="53.203740" lon="-1.765261"><ele>291</ele><time>2020-01-31T12:36:36Z</time><name>PT7926</name></trkpt>
<trkpt lat="53.203748" lon="-1.765254"><ele>291</ele><time>2020-01-31T12:36:37Z</time><name>PT7927</name></trkpt>
<trkpt lat="53.203757" lon="-1.765247"><ele>291</ele><time>2020-01-31T12:36:39Z</time><name>PT7928</name></trkpt>
<trkpt lat="53.203767" lon="-1.765244"><ele>291</ele><time>2020-01-31T12:36:39Z</time><name>PT7929</name></trkpt>
<trkpt lat="53.203776" lon="-1.765240"><ele>291</ele><time>2020-01-31T12:36:40Z</time><name>PT7930</name></trkpt>
<trkpt lat="53.203784" lon="-1.765233"><ele>291</ele><time>2020-01-31T12:36:42Z</time><name>PT7931</name></trkpt>
<trkpt lat="53.203793" lon="-1.765228"><ele>291</ele><time>2020-01-31T12:36:42Z</time><name>PT7932</name></trkpt>
<trkpt lat="53.203800" lon="-1.765223"><ele>291</ele><time>2020-01-31T12:36:43Z</time><name>PT7933</name></trkpt>
<trkpt lat="53.203807" lon="-1.765218"><ele>291</ele><time>2020-01-31T12:36:45Z</time><name>PT7934</name></trkpt>
<trkpt lat="53.203815" lon="-1.765213"><ele>291</ele><time>2020-01-31T12:36:45Z</time><name>PT7935</name></trkpt>
<trkpt lat="53.203822" lon="-1.765206"><ele>291</ele><time>2020-01-31T12:36:46Z</time><name>PT7936</name></trkpt>
<trkpt lat="53.203831" lon="-1.765196"><ele>291</ele><time>2020-01-31T12:36:48Z</time><name>PT7937</name></trkpt>
<trkpt lat="53.203839" lon="-1.765187"><ele>291</ele><time>2020-01-31T12:36:48Z</time><name>PT7938</name></trkpt>
<trkpt lat="53.203849" lon="-1.765177"><ele>291</ele><time>2020-01-31T12:36:49Z</time><name>PT7939</name></trkpt>
<trkpt lat="53.203860" lon="-1.765167"><ele>291</ele><time>2020-01-31T12:36:51Z</time><name>PT7940</name></trkpt>
<trkpt lat="53.203870" lon="-1.765158"><ele>291</ele><time>2020-01-31T12:36:51Z</time><name>PT7941</name></trkpt>
<trkpt lat="53.203879" lon="-1.765147"><ele>291</ele><time>2020-01-31T12:36:52Z</time><name>PT7942</name></trkpt>
<trkpt lat="53.203889" lon="-1.765136"><ele>291</ele><time>2020-01-31T12:36:54Z</time><name>PT7943</name></trkpt>
<trkpt lat="53.203899" lon="-1.765125"><ele>291</ele><time>2020-01-31T12:36:54Z</time><name>PT7944</name></trkpt>
<trkpt lat="53.203909" lon="-1.765113"><ele>291</ele><time>2020-01-31T12:36:55Z</time><name>PT7945</name></trkpt>
<trkpt lat="53.203919" lon="-1.765101"><ele>291</ele><time>2020-01-31T12:36:57Z</time><name>PT7946</name></trkpt>
<trkpt lat="53.203928" lon="-1.765091"><ele>291</ele><time>2020-01-31T12:36:57Z</time><name>PT7947</name></trkpt>
<trkpt lat="53.203937" lon="-1.765078"><ele>291</ele><time>2020-01-31T12:36:58Z</time><name>PT7948</name></trkpt>
<trkpt lat="53.203947" lon="-1.765068"><ele>291</ele><time>2020-01-31T12:37:00Z</time><name>PT7949</name></trkpt>
<trkpt lat="53.203957" lon="-1.765060"><ele>291</ele><time>2020-01-31T12:37:00Z</time><name>PT7950</name></trkpt>
<trkpt lat="53.203967" lon="-1.765051"><ele>291</ele><time>2020-01-31T12:37:01Z</time><name>PT7951</name></trkpt>
<trkpt lat="53.203976" lon="-1.765039"><ele>291</ele><time>2020-01-31T12:37:03Z</time><name>PT7952</name></trkpt>
<trkpt lat="53.203984" lon="-1.765024"><ele>291</ele><time>2020-01-31T12:37:03Z</time><name>PT7953</name></trkpt>
<trkpt lat="53.203992" lon="-1.765010"><ele>291</ele><time>2020-01-31T12:37:04Z</time><name>PT7954</name></trkpt>
<trkpt lat="53.204002" lon="-1.764997"><ele>291</ele><time>2020-01-31T12:37:06Z</time><name>PT7955</name></trkpt>
<trkpt lat="53.204013" lon="-1.764985"><ele>291</ele><time>2020-01-31T12:37:06Z</time><name>PT7956</name></trkpt>
<trkpt lat="53.204023" lon="-1.764976"><ele>291</ele><time>2020-01-31T12:37:07Z</time><name>PT7957</name></trkpt>
<trkpt lat="53.204034" lon="-1.764965"><ele>291</ele><time>2020-01-31T12:37:09Z</time><name>PT7958</name></trkpt>
<trkpt lat="53.204044" lon="-1.764952"><ele>291</ele><time>2020-01-31T12:37:09Z</time><name>PT7959</name></trkpt>
<trkpt lat="53.204053" lon="-1.764938"><ele>291</ele><time>2020-01-31T12:37:10Z</time><name>PT7960</name></trkpt>
<trkpt lat="53.204062" lon="-1.764925"><ele>291</ele><time>2020-01-31T12:37:12Z</time><name>PT7961</name></trkpt>
<trkpt lat="53.204073" lon="-1.764913"><ele>291</ele><time>2020-01-31T12:37:12Z</time><name>PT7962</name></trkpt>
<trkpt lat="53.204082" lon="-1.764903"><ele>291</ele><time>2020-01-31T12:37:13Z</time><name>PT7963</name></trkpt>
<trkpt lat="53.204092" lon="-1.764892"><ele>291</ele><time>2020-01-31T12:37:15Z</time><name>PT7964</name></trkpt>
<trkpt lat="53.204101" lon="-1.764881"><ele>291</ele><time>2020-01-31T12:37:15Z</time><name>PT7965</name></trkpt>
<trkpt lat="53.204111" lon="-1.764869"><ele>291</ele><time>2020-01-31T12:37:16Z</time><name>PT7966</name></trkpt>
<trkpt lat="53.204122" lon="-1.764855"><ele>291</ele><time>2020-01-31T12:37:18Z</time><name>PT7967</name></trkpt>
<trkpt lat="53.204130" lon="-1.764842"><ele>291</ele><time>2020-01-31T12:37:18Z</time><name>PT7968</name></trkpt>
<trkpt lat="53.204140" lon="-1.764830"><ele>291</ele><time>2020-01-31T12:37:19Z</time><name>PT7969</name></trkpt>
<trkpt lat="53.204148" lon="-1.764818"><ele>291</ele><time>2020-01-31T12:37:21Z</time><name>PT7970</name></trkpt>
<trkpt lat="53.204159" lon="-1.764806"><ele>291</ele><time>2020-01-31T12:37:21Z</time><name>PT7971</name></trkpt>
<trkpt lat="53.204170" lon="-1.764795"><ele>291</ele><time>2020-01-31T12:37:22Z</time><name>PT7972</name></trkpt>
<trkpt lat="53.204178" lon="-1.764783"><ele>291</ele><time>2020-01-31T12:37:24Z</time><name>PT7973</name></trkpt>
<trkpt lat="53.204184" lon="-1.764768"><ele>291</ele><time>2020-01-31T12:37:24Z</time><name>PT7974</name></trkpt>
<trkpt lat="53.204188" lon="-1.764752"><ele>291</ele><time>2020-01-31T12:37:25Z</time><name>PT7975</name></trkpt>
<trkpt lat="53.204194" lon="-1.764739"><ele>291</ele><time>2020-01-31T12:37:27Z</time><name>PT7976</name></trkpt>
<trkpt lat="53.204202" lon="-1.764726"><ele>292</ele><time>2020-01-31T12:37:27Z</time><name>PT7977</name></trkpt>
<trkpt lat="53.204211" lon="-1.764716"><ele>292</ele><time>2020-01-31T12:37:28Z</time><name>PT7978</name></trkpt>
<trkpt lat="53.204220" lon="-1.764705"><ele>292</ele><time>2020-01-31T12:37:30Z</time><name>PT7979</name></trkpt>
<trkpt lat="53.204227" lon="-1.764691"><ele>292</ele><time>2020-01-31T12:37:30Z</time><name>PT7980</name></trkpt>
<trkpt lat="53.204236" lon="-1.764680"><ele>292</ele><time>2020-01-31T12:37:31Z</time><name>PT7981</name></trkpt>
<trkpt lat="53.204247" lon="-1.764670"><ele>292</ele><time>2020-01-31T12:37:33Z</time><name>PT7982</name></trkpt>
<trkpt lat="53.204257" lon="-1.764659"><ele>292</ele><time>2020-01-31T12:37:33Z</time><name>PT7983</name></trkpt>
<trkpt lat="53.204267" lon="-1.764647"><ele>292</ele><time>2020-01-31T12:37:34Z</time><name>PT7984</name></trkpt>
<trkpt lat="53.204276" lon="-1.764636"><ele>292</ele><time>2020-01-31T12:37:36Z</time><name>PT7985</name></trkpt>
<trkpt lat="53.204285" lon="-1.764625"><ele>292</ele><time>2020-01-31T12:37:36Z</time><name>PT7986</name></trkpt>
<trkpt lat="53.204293" lon="-1.764611"><ele>292</ele><time>2020-01-31T12:37:37Z</time><name>PT7987</name></trkpt>
<trkpt lat="53.204301" lon="-1.764598"><ele>292</ele><time>2020-01-31T12:37:39Z</time><name>PT7988</name></trkpt>
<trkpt lat="53.204308" lon="-1.764598"><ele>291</ele><time>2020-01-31T12:37:39Z</time><name>PT7989</name></trkpt>
<trkpt lat="53.204322" lon="-1.764589"><ele>291</ele><time>2020-01-31T12:37:41Z</time><name>PT7990</name></trkpt>
<trkpt lat="53.204335" lon="-1.764572"><ele>290</ele><time>2020-01-31T12:37:42Z</time><name>PT7991</name></trkpt>
<trkpt lat="53.204343" lon="-1.764557"><ele>291</ele><time>2020-01-31T12:37:42Z</time><name>PT7992</name></trkpt>
<trkpt lat="53.204350" lon="-1.764549"><ele>291</ele><time>2020-01-31T12:37:43Z</time><name>PT7993</name></trkpt>
<trkpt lat="53.204356" lon="-1.764539"><ele>290</ele><time>2020-01-31T12:37:45Z</time><name>PT7994</name></trkpt>
<trkpt lat="53.204368" lon="-1.764518"><ele>291</ele><time>2020-01-31T12:37:45Z</time><name>PT7995</name></trkpt>
<trkpt lat="53.204381" lon="-1.764498"><ele>291</ele><time>2020-01-31T12:37:47Z</time><name>PT7996</name></trkpt>
<trkpt lat="53.204389" lon="-1.764483"><ele>291</ele><time>2020-01-31T12:37:48Z</time><name>PT7997</name></trkpt>
<trkpt lat="53.204396" lon="-1.764475"><ele>291</ele><time>2020-01-31T12:37:48Z</time><name>PT7998</name></trkpt>
<trkpt lat="53.204402" lon="-1.764468"><ele>291</ele><time>2020-01-31T12:37:49Z</time><name>PT7999</name></trkpt>
<trkpt lat="53.204412" lon="-1.764451"><ele>291</ele><time>2020-01-31T12:37:51Z</time><name>PT8000</name></trkpt>
<trkpt lat="53.204427" lon="-1.764431"><ele>291</ele><time>2020-01-31T12:37:51Z</time><name>PT8001</name></trkpt>
<trkpt lat="53.204440" lon="-1.764413"><ele>291</ele><time>2020-01-31T12:37:52Z</time><name>PT8002</name></trkpt>
<trkpt lat="53.204452" lon="-1.764395"><ele>292</ele><time>2020-01-31T12:37:54Z</time><name>PT8003</name></trkpt>
<trkpt lat="53.204462" lon="-1.764382"><ele>292</ele><time>2020-01-31T12:37:54Z</time><name>PT8004</name></trkpt>
<trkpt lat="53.204471" lon="-1.764379"><ele>291</ele><time>2020-01-31T12:37:56Z</time><name>PT8005</name></trkpt>
<trkpt lat="53.204483" lon="-1.764362"><ele>292</ele><time>2020-01-31T12:37:57Z</time><name>PT8006</name></trkpt>
<trkpt lat="53.204497" lon="-1.764343"><ele>292</ele><time>2020-01-31T12:37:57Z</time><name>PT8007</name></trkpt>
<trkpt lat="53.204510" lon="-1.764328"><ele>292</ele><time>2020-01-31T12:37:58Z</time><name>PT8008</name></trkpt>
<trkpt lat="53.204514" lon="-1.764318"><ele>292</ele><time>2020-01-31T12:38:00Z</time><name>PT8009</name></trkpt>
<trkpt lat="53.204517" lon="-1.764317"><ele>292</ele><time>2020-01-31T12:38:00Z</time><name>PT8010</name></trkpt>
<trkpt lat="53.204528" lon="-1.764306"><ele>292</ele><time>2020-01-31T12:38:01Z</time><name>PT8011</name></trkpt>
<trkpt lat="53.204545" lon="-1.764288"><ele>293</ele><time>2020-01-31T12:38:03Z</time><name>PT8012</name></trkpt>
<trkpt lat="53.204557" lon="-1.764275"><ele>293</ele><time>2020-01-31T12:38:03Z</time><name>PT8013</name></trkpt>
<trkpt lat="53.204566" lon="-1.764269"><ele>293</ele><time>2020-01-31T12:38:04Z</time><name>PT8014</name></trkpt>
<trkpt lat="53.204573" lon="-1.764265"><ele>293</ele><time>2020-01-31T12:38:06Z</time><name>PT8015</name></trkpt>
<trkpt lat="53.204578" lon="-1.764259"><ele>292</ele><time>2020-01-31T12:38:06Z</time><name>PT8016</name></trkpt>
<trkpt lat="53.204590" lon="-1.764243"><ele>293</ele><time>2020-01-31T12:38:07Z</time><name>PT8017</name></trkpt>
<trkpt lat="53.204606" lon="-1.764230"><ele>293</ele><time>2020-01-31T12:38:09Z</time><name>PT8018</name></trkpt>
<trkpt lat="53.204617" lon="-1.764222"><ele>293</ele><time>2020-01-31T12:38:09Z</time><name>PT8019</name></trkpt>
<trkpt lat="53.204624" lon="-1.764216"><ele>294</ele><time>2020-01-31T12:38:10Z</time><name>PT8020</name></trkpt>
<trkpt lat="53.204626" lon="-1.764214"><ele>294</ele><time>2020-01-31T12:38:12Z</time><name>PT8021</name></trkpt>
<trkpt lat="53.204631" lon="-1.764210"><ele>294</ele><time>2020-01-31T12:38:12Z</time><name>PT8022</name></trkpt>
<trkpt lat="53.204637" lon="-1.764202"><ele>294</ele><time>2020-01-31T12:38:13Z</time><name>PT8023</name></trkpt>
<trkpt lat="53.204643" lon="-1.764187"><ele>294</ele><time>2020-01-31T12:38:15Z</time><name>PT8024</name></trkpt>
<trkpt lat="53.204646" lon="-1.764169"><ele>295</ele><time>2020-01-31T12:38:15Z</time><name>PT8025</name></trkpt>
<trkpt lat="53.204648" lon="-1.764167"><ele>295</ele><time>2020-01-31T12:38:16Z</time><name>PT8026</name></trkpt>
<trkpt lat="53.204651" lon="-1.764166"><ele>295</ele><time>2020-01-31T12:38:18Z</time><name>PT8027</name></trkpt>
<trkpt lat="53.204654" lon="-1.764163"><ele>295</ele><time>2020-01-31T12:38:18Z</time><name>PT8028</name></trkpt>
<trkpt lat="53.204658" lon="-1.764162"><ele>295</ele><time>2020-01-31T12:38:19Z</time><name>PT8029</name></trkpt>
<trkpt lat="53.204666" lon="-1.764156"><ele>295</ele><time>2020-01-31T12:38:21Z</time><name>PT8030</name></trkpt>
<trkpt lat="53.204678" lon="-1.764151"><ele>296</ele><time>2020-01-31T12:38:21Z</time><name>PT8031</name></trkpt>
<trkpt lat="53.204679" lon="-1.764148"><ele>296</ele><time>2020-01-31T12:38:22Z</time><name>PT8032</name></trkpt>
<trkpt lat="53.204683" lon="-1.764148"><ele>296</ele><time>2020-01-31T12:38:24Z</time><name>PT8033</name></trkpt>
<trkpt lat="53.204688" lon="-1.764156"><ele>296</ele><time>2020-01-31T12:38:24Z</time><name>PT8034</name></trkpt>
<trkpt lat="53.204695" lon="-1.764158"><ele>295</ele><time>2020-01-31T12:38:25Z</time><name>PT8035</name></trkpt>
<trkpt lat="53.204707" lon="-1.764160"><ele>296</ele><time>2020-01-31T12:38:27Z</time><name>PT8036</name></trkpt>
<trkpt lat="53.204717" lon="-1.764163"><ele>295</ele><time>2020-01-31T12:38:27Z</time><name>PT8037</name></trkpt>
<trkpt lat="53.204726" lon="-1.764168"><ele>295</ele><time>2020-01-31T12:38:28Z</time><name>PT8038</name></trkpt>
<trkpt lat="53.204733" lon="-1.764165"><ele>295</ele><time>2020-01-31T12:38:30Z</time><name>PT8039</name></trkpt>
<trkpt lat="53.204733" lon="-1.764166"><ele>294</ele><time>2020-01-31T12:38:30Z</time><name>PT8040</name></trkpt>
<trkpt lat="53.204734" lon="-1.764166"><ele>294</ele><time>2020-01-31T12:38:31Z</time><name>PT8041</name></trkpt>
<trkpt lat="53.204734" lon="-1.764165"><ele>294</ele><time>2020-01-31T12:38:33Z</time><name>PT8042</name></trkpt>
<trkpt lat="53.204734" lon="-1.764166"><ele>294</ele><time>2020-01-31T12:38:33Z</time><name>PT8043</name></trkpt>
<trkpt lat="53.204732" lon="-1.764169"><ele>294</ele><time>2020-01-31T12:38:49Z</time><name>PT8044</name></trkpt>
<trkpt lat="53.204731" lon="-1.764169"><ele>294</ele><time>2020-01-31T12:38:51Z</time><name>PT8045</name></trkpt>
<trkpt lat="53.204730" lon="-1.764167"><ele>294</ele><time>2020-01-31T12:38:51Z</time><name>PT8046</name></trkpt>
<trkpt lat="53.204728" lon="-1.764165"><ele>294</ele><time>2020-01-31T12:38:52Z</time><name>PT8047</name></trkpt>
<trkpt lat="53.204732" lon="-1.764156"><ele>295</ele><time>2020-01-31T12:39:06Z</time><name>PT8048</name></trkpt>
<trkpt lat="53.204733" lon="-1.764153"><ele>294</ele><time>2020-01-31T12:39:06Z</time><name>PT8049</name></trkpt>
<trkpt lat="53.204726" lon="-1.764150"><ele>295</ele><time>2020-01-31T12:39:13Z</time><name>PT8050</name></trkpt>
<trkpt lat="53.204725" lon="-1.764151"><ele>295</ele><time>2020-01-31T12:39:15Z</time><name>PT8051</name></trkpt>
<trkpt lat="53.204725" lon="-1.764152"><ele>294</ele><time>2020-01-31T12:39:15Z</time><name>PT8052</name></trkpt>
<trkpt lat="53.204724" lon="-1.764154"><ele>294</ele><time>2020-01-31T12:39:16Z</time><name>PT8053</name></trkpt>
<trkpt lat="53.204726" lon="-1.764157"><ele>294</ele><time>2020-01-31T12:39:18Z</time><name>PT8054</name></trkpt>
<trkpt lat="53.204729" lon="-1.764160"><ele>294</ele><time>2020-01-31T12:39:18Z</time><name>PT8055</name></trkpt>
<trkpt lat="53.204735" lon="-1.764160"><ele>294</ele><time>2020-01-31T12:39:19Z</time><name>PT8056</name></trkpt>
<trkpt lat="53.204742" lon="-1.764157"><ele>294</ele><time>2020-01-31T12:39:21Z</time><name>PT8057</name></trkpt>
<trkpt lat="53.204750" lon="-1.764153"><ele>294</ele><time>2020-01-31T12:39:21Z</time><name>PT8058</name></trkpt>
<trkpt lat="53.204757" lon="-1.764148"><ele>294</ele><time>2020-01-31T12:39:22Z</time><name>PT8059</name></trkpt>
<trkpt lat="53.204767" lon="-1.764142"><ele>294</ele><time>2020-01-31T12:39:24Z</time><name>PT8060</name></trkpt>
<trkpt lat="53.204777" lon="-1.764138"><ele>294</ele><time>2020-01-31T12:39:24Z</time><name>PT8061</name></trkpt>
<trkpt lat="53.204787" lon="-1.764140"><ele>294</ele><time>2020-01-31T12:39:25Z</time><name>PT8062</name></trkpt>
<trkpt lat="53.204798" lon="-1.764142"><ele>294</ele><time>2020-01-31T12:39:27Z</time><name>PT8063</name></trkpt>
<trkpt lat="53.204808" lon="-1.764145"><ele>294</ele><time>2020-01-31T12:39:27Z</time><name>PT8064</name></trkpt>
<trkpt lat="53.204819" lon="-1.764146"><ele>294</ele><time>2020-01-31T12:39:28Z</time><name>PT8065</name></trkpt>
<trkpt lat="53.204830" lon="-1.764144"><ele>294</ele><time>2020-01-31T12:39:30Z</time><name>PT8066</name></trkpt>
<trkpt lat="53.204842" lon="-1.764140"><ele>294</ele><time>2020-01-31T12:39:30Z</time><name>PT8067</name></trkpt>
<trkpt lat="53.204851" lon="-1.764134"><ele>294</ele><time>2020-01-31T12:39:31Z</time><name>PT8068</name></trkpt>
<trkpt lat="53.204861" lon="-1.764130"><ele>294</ele><time>2020-01-31T12:39:33Z</time><name>PT8069</name></trkpt>
<trkpt lat="53.204871" lon="-1.764128"><ele>294</ele><time>2020-01-31T12:39:33Z</time><name>PT8070</name></trkpt>
<trkpt lat="53.204880" lon="-1.764125"><ele>294</ele><time>2020-01-31T12:39:34Z</time><name>PT8071</name></trkpt>
<trkpt lat="53.204890" lon="-1.764121"><ele>294</ele><time>2020-01-31T12:39:36Z</time><name>PT8072</name></trkpt>
<trkpt lat="53.204900" lon="-1.764115"><ele>294</ele><time>2020-01-31T12:39:36Z</time><name>PT8073</name></trkpt>
<trkpt lat="53.204909" lon="-1.764109"><ele>294</ele><time>2020-01-31T12:39:37Z</time><name>PT8074</name></trkpt>
<trkpt lat="53.204916" lon="-1.764100"><ele>294</ele><time>2020-01-31T12:39:39Z</time><name>PT8075</name></trkpt>
<trkpt lat="53.204928" lon="-1.764095"><ele>295</ele><time>2020-01-31T12:39:39Z</time><name>PT8076</name></trkpt>
<trkpt lat="53.204940" lon="-1.764091"><ele>295</ele><time>2020-01-31T12:39:40Z</time><name>PT8077</name></trkpt>
<trkpt lat="53.204950" lon="-1.764086"><ele>295</ele><time>2020-01-31T12:39:42Z</time><name>PT8078</name></trkpt>
<trkpt lat="53.204962" lon="-1.764082"><ele>296</ele><time>2020-01-31T12:39:42Z</time><name>PT8079</name></trkpt>
<trkpt lat="53.204978" lon="-1.764074"><ele>295</ele><time>2020-01-31T12:39:43Z</time><name>PT8080</name></trkpt>
<trkpt lat="53.204995" lon="-1.764064"><ele>295</ele><time>2020-01-31T12:39:45Z</time><name>PT8081</name></trkpt>
<trkpt lat="53.205009" lon="-1.764057"><ele>295</ele><time>2020-01-31T12:39:45Z</time><name>PT8082</name></trkpt>
<trkpt lat="53.205022" lon="-1.764050"><ele>295</ele><time>2020-01-31T12:39:46Z</time><name>PT8083</name></trkpt>
<trkpt lat="53.205029" lon="-1.764049"><ele>295</ele><time>2020-01-31T12:39:48Z</time><name>PT8084</name></trkpt>
<trkpt lat="53.205035" lon="-1.764049"><ele>296</ele><time>2020-01-31T12:39:48Z</time><name>PT8085</name></trkpt>
<trkpt lat="53.205042" lon="-1.764047"><ele>296</ele><time>2020-01-31T12:39:49Z</time><name>PT8086</name></trkpt>
<trkpt lat="53.205052" lon="-1.764038"><ele>295</ele><time>2020-01-31T12:39:51Z</time><name>PT8087</name></trkpt>
<trkpt lat="53.205067" lon="-1.764024"><ele>295</ele><time>2020-01-31T12:39:51Z</time><name>PT8088</name></trkpt>
<trkpt lat="53.205083" lon="-1.764010"><ele>296</ele><time>2020-01-31T12:39:52Z</time><name>PT8089</name></trkpt>
<trkpt lat="53.205094" lon="-1.764000"><ele>295</ele><time>2020-01-31T12:39:54Z</time><name>PT8090</name></trkpt>
<trkpt lat="53.205102" lon="-1.763994"><ele>295</ele><time>2020-01-31T12:39:54Z</time><name>PT8091</name></trkpt>
<trkpt lat="53.205108" lon="-1.763993"><ele>295</ele><time>2020-01-31T12:39:55Z</time><name>PT8092</name></trkpt>
<trkpt lat="53.205114" lon="-1.763994"><ele>295</ele><time>2020-01-31T12:39:57Z</time><name>PT8093</name></trkpt>
<trkpt lat="53.205122" lon="-1.763991"><ele>295</ele><time>2020-01-31T12:39:57Z</time><name>PT8094</name></trkpt>
<trkpt lat="53.205137" lon="-1.763980"><ele>295</ele><time>2020-01-31T12:39:58Z</time><name>PT8095</name></trkpt>
<trkpt lat="53.205153" lon="-1.763967"><ele>295</ele><time>2020-01-31T12:40:00Z</time><name>PT8096</name></trkpt>
<trkpt lat="53.205168" lon="-1.763951"><ele>296</ele><time>2020-01-31T12:40:00Z</time><name>PT8097</name></trkpt>
<trkpt lat="53.205184" lon="-1.763941"><ele>296</ele><time>2020-01-31T12:40:02Z</time><name>PT8098</name></trkpt>
<trkpt lat="53.205193" lon="-1.763942"><ele>296</ele><time>2020-01-31T12:40:03Z</time><name>PT8099</name></trkpt>
<trkpt lat="53.205201" lon="-1.763946"><ele>296</ele><time>2020-01-31T12:40:03Z</time><name>PT8100</name></trkpt>
<trkpt lat="53.205208" lon="-1.763945"><ele>296</ele><time>2020-01-31T12:40:04Z</time><name>PT8101</name></trkpt>
<trkpt lat="53.205218" lon="-1.763936"><ele>296</ele><time>2020-01-31T12:40:06Z</time><name>PT8102</name></trkpt>
<trkpt lat="53.205232" lon="-1.763923"><ele>296</ele><time>2020-01-31T12:40:06Z</time><name>PT8103</name></trkpt>
<trkpt lat="53.205245" lon="-1.763913"><ele>296</ele><time>2020-01-31T12:40:07Z</time><name>PT8104</name></trkpt>
<trkpt lat="53.205254" lon="-1.763909"><ele>296</ele><time>2020-01-31T12:40:09Z</time><name>PT8105</name></trkpt>
<trkpt lat="53.205259" lon="-1.763908"><ele>296</ele><time>2020-01-31T12:40:09Z</time><name>PT8106</name></trkpt>
<trkpt lat="53.205267" lon="-1.763903"><ele>296</ele><time>2020-01-31T12:40:10Z</time><name>PT8107</name></trkpt>
<trkpt lat="53.205282" lon="-1.763893"><ele>296</ele><time>2020-01-31T12:40:12Z</time><name>PT8108</name></trkpt>
<trkpt lat="53.205299" lon="-1.763881"><ele>296</ele><time>2020-01-31T12:40:12Z</time><name>PT8109</name></trkpt>
<trkpt lat="53.205311" lon="-1.763872"><ele>296</ele><time>2020-01-31T12:40:13Z</time><name>PT8110</name></trkpt>
<trkpt lat="53.205321" lon="-1.763867"><ele>297</ele><time>2020-01-31T12:40:15Z</time><name>PT8111</name></trkpt>
<trkpt lat="53.205332" lon="-1.763860"><ele>297</ele><time>2020-01-31T12:40:15Z</time><name>PT8112</name></trkpt>
<trkpt lat="53.205344" lon="-1.763856"><ele>297</ele><time>2020-01-31T12:40:16Z</time><name>PT8113</name></trkpt>
<trkpt lat="53.205354" lon="-1.763850"><ele>296</ele><time>2020-01-31T12:40:18Z</time><name>PT8114</name></trkpt>
<trkpt lat="53.205367" lon="-1.763837"><ele>296</ele><time>2020-01-31T12:40:18Z</time><name>PT8115</name></trkpt>
<trkpt lat="53.205381" lon="-1.763826"><ele>296</ele><time>2020-01-31T12:40:19Z</time><name>PT8116</name></trkpt>
<trkpt lat="53.205392" lon="-1.763820"><ele>296</ele><time>2020-01-31T12:40:21Z</time><name>PT8117</name></trkpt>
<trkpt lat="53.205399" lon="-1.763818"><ele>296</ele><time>2020-01-31T12:40:21Z</time><name>PT8118</name></trkpt>
<trkpt lat="53.205403" lon="-1.763817"><ele>296</ele><time>2020-01-31T12:40:22Z</time><name>PT8119</name></trkpt>
<trkpt lat="53.205409" lon="-1.763811"><ele>296</ele><time>2020-01-31T12:40:24Z</time><name>PT8120</name></trkpt>
<trkpt lat="53.205422" lon="-1.763796"><ele>296</ele><time>2020-01-31T12:40:24Z</time><name>PT8121</name></trkpt>
<trkpt lat="53.205437" lon="-1.763776"><ele>296</ele><time>2020-01-31T12:40:25Z</time><name>PT8122</name></trkpt>
<trkpt lat="53.205450" lon="-1.763763"><ele>297</ele><time>2020-01-31T12:40:27Z</time><name>PT8123</name></trkpt>
<trkpt lat="53.205459" lon="-1.763755"><ele>297</ele><time>2020-01-31T12:40:27Z</time><name>PT8124</name></trkpt>
<trkpt lat="53.205461" lon="-1.763750"><ele>297</ele><time>2020-01-31T12:40:28Z</time><name>PT8125</name></trkpt>
<trkpt lat="53.205481" lon="-1.763736"><ele>297</ele><time>2020-01-31T12:40:30Z</time><name>PT8126</name></trkpt>
<trkpt lat="53.205496" lon="-1.763721"><ele>297</ele><time>2020-01-31T12:40:31Z</time><name>PT8127</name></trkpt>
<trkpt lat="53.205509" lon="-1.763709"><ele>297</ele><time>2020-01-31T12:40:33Z</time><name>PT8128</name></trkpt>
<trkpt lat="53.205520" lon="-1.763701"><ele>297</ele><time>2020-01-31T12:40:33Z</time><name>PT8129</name></trkpt>
<trkpt lat="53.205528" lon="-1.763701"><ele>297</ele><time>2020-01-31T12:40:34Z</time><name>PT8130</name></trkpt>
<trkpt lat="53.205538" lon="-1.763700"><ele>297</ele><time>2020-01-31T12:40:36Z</time><name>PT8131</name></trkpt>
<trkpt lat="53.205551" lon="-1.763686"><ele>298</ele><time>2020-01-31T12:40:36Z</time><name>PT8132</name></trkpt>
<trkpt lat="53.205565" lon="-1.763676"><ele>298</ele><time>2020-01-31T12:40:37Z</time><name>PT8133</name></trkpt>
<trkpt lat="53.205579" lon="-1.763670"><ele>298</ele><time>2020-01-31T12:40:39Z</time><name>PT8134</name></trkpt>
<trkpt lat="53.205590" lon="-1.763661"><ele>298</ele><time>2020-01-31T12:40:39Z</time><name>PT8135</name></trkpt>
<trkpt lat="53.205597" lon="-1.763659"><ele>298</ele><time>2020-01-31T12:40:40Z</time><name>PT8136</name></trkpt>
<trkpt lat="53.205603" lon="-1.763656"><ele>299</ele><time>2020-01-31T12:40:42Z</time><name>PT8137</name></trkpt>
<trkpt lat="53.205611" lon="-1.763653"><ele>298</ele><time>2020-01-31T12:40:42Z</time><name>PT8138</name></trkpt>
<trkpt lat="53.205624" lon="-1.763643"><ele>298</ele><time>2020-01-31T12:40:43Z</time><name>PT8139</name></trkpt>
<trkpt lat="53.205637" lon="-1.763638"><ele>298</ele><time>2020-01-31T12:40:45Z</time><name>PT8140</name></trkpt>
<trkpt lat="53.205648" lon="-1.763631"><ele>299</ele><time>2020-01-31T12:40:45Z</time><name>PT8141</name></trkpt>
<trkpt lat="53.205659" lon="-1.763625"><ele>299</ele><time>2020-01-31T12:40:46Z</time><name>PT8142</name></trkpt>
<trkpt lat="53.205665" lon="-1.763622"><ele>299</ele><time>2020-01-31T12:40:48Z</time><name>PT8143</name></trkpt>
<trkpt lat="53.205669" lon="-1.763621"><ele>299</ele><time>2020-01-31T12:40:48Z</time><name>PT8144</name></trkpt>
<trkpt lat="53.205682" lon="-1.763612"><ele>299</ele><time>2020-01-31T12:40:49Z</time><name>PT8145</name></trkpt>
<trkpt lat="53.205699" lon="-1.763596"><ele>299</ele><time>2020-01-31T12:40:51Z</time><name>PT8146</name></trkpt>
<trkpt lat="53.205717" lon="-1.763579"><ele>299</ele><time>2020-01-31T12:40:51Z</time><name>PT8147</name></trkpt>
<trkpt lat="53.205729" lon="-1.763569"><ele>299</ele><time>2020-01-31T12:40:52Z</time><name>PT8148</name></trkpt>
<trkpt lat="53.205734" lon="-1.763567"><ele>299</ele><time>2020-01-31T12:40:54Z</time><name>PT8149</name></trkpt>
<trkpt lat="53.205738" lon="-1.763565"><ele>299</ele><time>2020-01-31T12:40:54Z</time><name>PT8150</name></trkpt>
<trkpt lat="53.205747" lon="-1.763556"><ele>299</ele><time>2020-01-31T12:40:55Z</time><name>PT8151</name></trkpt>
<trkpt lat="53.205758" lon="-1.763543"><ele>299</ele><time>2020-01-31T12:40:57Z</time><name>PT8152</name></trkpt>
<trkpt lat="53.205768" lon="-1.763530"><ele>299</ele><time>2020-01-31T12:40:57Z</time><name>PT8153</name></trkpt>
<trkpt lat="53.205776" lon="-1.763520"><ele>299</ele><time>2020-01-31T12:40:58Z</time><name>PT8154</name></trkpt>
<trkpt lat="53.205786" lon="-1.763506"><ele>299</ele><time>2020-01-31T12:41:00Z</time><name>PT8155</name></trkpt>
<trkpt lat="53.205797" lon="-1.763494"><ele>299</ele><time>2020-01-31T12:41:00Z</time><name>PT8156</name></trkpt>
<trkpt lat="53.205806" lon="-1.763485"><ele>299</ele><time>2020-01-31T12:41:01Z</time><name>PT8157</name></trkpt>
<trkpt lat="53.205813" lon="-1.763481"><ele>299</ele><time>2020-01-31T12:41:03Z</time><name>PT8158</name></trkpt>
<trkpt lat="53.205821" lon="-1.763475"><ele>299</ele><time>2020-01-31T12:41:03Z</time><name>PT8159</name></trkpt>
<trkpt lat="53.205834" lon="-1.763457"><ele>299</ele><time>2020-01-31T12:41:04Z</time><name>PT8160</name></trkpt>
<trkpt lat="53.205848" lon="-1.763436"><ele>299</ele><time>2020-01-31T12:41:06Z</time><name>PT8161</name></trkpt>
<trkpt lat="53.205858" lon="-1.763419"><ele>299</ele><time>2020-01-31T12:41:06Z</time><name>PT8162</name></trkpt>
<trkpt lat="53.205868" lon="-1.763405"><ele>299</ele><time>2020-01-31T12:41:07Z</time><name>PT8163</name></trkpt>
<trkpt lat="53.205874" lon="-1.763396"><ele>299</ele><time>2020-01-31T12:41:09Z</time><name>PT8164</name></trkpt>
<trkpt lat="53.205881" lon="-1.763390"><ele>300</ele><time>2020-01-31T12:41:09Z</time><name>PT8165</name></trkpt>
<trkpt lat="53.205892" lon="-1.763381"><ele>300</ele><time>2020-01-31T12:41:10Z</time><name>PT8166</name></trkpt>
<trkpt lat="53.205906" lon="-1.763365"><ele>300</ele><time>2020-01-31T12:41:12Z</time><name>PT8167</name></trkpt>
<trkpt lat="53.205920" lon="-1.763337"><ele>300</ele><time>2020-01-31T12:41:12Z</time><name>PT8168</name></trkpt>
<trkpt lat="53.205933" lon="-1.763315"><ele>300</ele><time>2020-01-31T12:41:13Z</time><name>PT8169</name></trkpt>
<trkpt lat="53.205942" lon="-1.763309"><ele>300</ele><time>2020-01-31T12:41:15Z</time><name>PT8170</name></trkpt>
<trkpt lat="53.205948" lon="-1.763307"><ele>300</ele><time>2020-01-31T12:41:15Z</time><name>PT8171</name></trkpt>
<trkpt lat="53.205955" lon="-1.763300"><ele>300</ele><time>2020-01-31T12:41:16Z</time><name>PT8172</name></trkpt>
<trkpt lat="53.205964" lon="-1.763284"><ele>300</ele><time>2020-01-31T12:41:18Z</time><name>PT8173</name></trkpt>
<trkpt lat="53.205975" lon="-1.763267"><ele>301</ele><time>2020-01-31T12:41:18Z</time><name>PT8174</name></trkpt>
<trkpt lat="53.205982" lon="-1.763261"><ele>300</ele><time>2020-01-31T12:41:19Z</time><name>PT8175</name></trkpt>
<trkpt lat="53.205989" lon="-1.763254"><ele>300</ele><time>2020-01-31T12:41:21Z</time><name>PT8176</name></trkpt>
<trkpt lat="53.205997" lon="-1.763244"><ele>300</ele><time>2020-01-31T12:41:21Z</time><name>PT8177</name></trkpt>
<trkpt lat="53.206006" lon="-1.763226"><ele>301</ele><time>2020-01-31T12:41:22Z</time><name>PT8178</name></trkpt>
<trkpt lat="53.206018" lon="-1.763207"><ele>301</ele><time>2020-01-31T12:41:24Z</time><name>PT8179</name></trkpt>
<trkpt lat="53.206028" lon="-1.763189"><ele>301</ele><time>2020-01-31T12:41:24Z</time><name>PT8180</name></trkpt>
<trkpt lat="53.206036" lon="-1.763178"><ele>301</ele><time>2020-01-31T12:41:25Z</time><name>PT8181</name></trkpt>
<trkpt lat="53.206043" lon="-1.763168"><ele>301</ele><time>2020-01-31T12:41:27Z</time><name>PT8182</name></trkpt>
<trkpt lat="53.206050" lon="-1.763155"><ele>301</ele><time>2020-01-31T12:41:27Z</time><name>PT8183</name></trkpt>
<trkpt lat="53.206060" lon="-1.763136"><ele>301</ele><time>2020-01-31T12:41:28Z</time><name>PT8184</name></trkpt>
<trkpt lat="53.206074" lon="-1.763114"><ele>301</ele><time>2020-01-31T12:41:30Z</time><name>PT8185</name></trkpt>
<trkpt lat="53.206086" lon="-1.763094"><ele>301</ele><time>2020-01-31T12:41:30Z</time><name>PT8186</name></trkpt>
<trkpt lat="53.206094" lon="-1.763084"><ele>301</ele><time>2020-01-31T12:41:31Z</time><name>PT8187</name></trkpt>
<trkpt lat="53.206104" lon="-1.763081"><ele>301</ele><time>2020-01-31T12:41:33Z</time><name>PT8188</name></trkpt>
<trkpt lat="53.206114" lon="-1.763075"><ele>302</ele><time>2020-01-31T12:41:33Z</time><name>PT8189</name></trkpt>
<trkpt lat="53.206125" lon="-1.763057"><ele>302</ele><time>2020-01-31T12:41:34Z</time><name>PT8190</name></trkpt>
<trkpt lat="53.206136" lon="-1.763036"><ele>302</ele><time>2020-01-31T12:41:36Z</time><name>PT8191</name></trkpt>
<trkpt lat="53.206147" lon="-1.763016"><ele>301</ele><time>2020-01-31T12:41:36Z</time><name>PT8192</name></trkpt>
<trkpt lat="53.206156" lon="-1.763001"><ele>301</ele><time>2020-01-31T12:41:37Z</time><name>PT8193</name></trkpt>
<trkpt lat="53.206163" lon="-1.762991"><ele>302</ele><time>2020-01-31T12:41:39Z</time><name>PT8194</name></trkpt>
<trkpt lat="53.206171" lon="-1.762982"><ele>302</ele><time>2020-01-31T12:41:39Z</time><name>PT8195</name></trkpt>
<trkpt lat="53.206180" lon="-1.762970"><ele>301</ele><time>2020-01-31T12:41:40Z</time><name>PT8196</name></trkpt>
<trkpt lat="53.206188" lon="-1.762947"><ele>302</ele><time>2020-01-31T12:41:42Z</time><name>PT8197</name></trkpt>
<trkpt lat="53.206199" lon="-1.762930"><ele>302</ele><time>2020-01-31T12:41:42Z</time><name>PT8198</name></trkpt>
<trkpt lat="53.206207" lon="-1.762910"><ele>302</ele><time>2020-01-31T12:41:43Z</time><name>PT8199</name></trkpt>
<trkpt lat="53.206215" lon="-1.762900"><ele>302</ele><time>2020-01-31T12:41:45Z</time><name>PT8200</name></trkpt>
<trkpt lat="53.206222" lon="-1.762890"><ele>303</ele><time>2020-01-31T12:41:45Z</time><name>PT8201</name></trkpt>
<trkpt lat="53.206229" lon="-1.762879"><ele>303</ele><time>2020-01-31T12:41:46Z</time><name>PT8202</name></trkpt>
<trkpt lat="53.206239" lon="-1.762864"><ele>303</ele><time>2020-01-31T12:41:48Z</time><name>PT8203</name></trkpt>
<trkpt lat="53.206252" lon="-1.762846"><ele>303</ele><time>2020-01-31T12:41:48Z</time><name>PT8204</name></trkpt>
<trkpt lat="53.206263" lon="-1.762829"><ele>303</ele><time>2020-01-31T12:41:49Z</time><name>PT8205</name></trkpt>
<trkpt lat="53.206272" lon="-1.762813"><ele>303</ele><time>2020-01-31T12:41:51Z</time><name>PT8206</name></trkpt>
<trkpt lat="53.206279" lon="-1.762803"><ele>303</ele><time>2020-01-31T12:41:51Z</time><name>PT8207</name></trkpt>
<trkpt lat="53.206287" lon="-1.762796"><ele>303</ele><time>2020-01-31T12:41:52Z</time><name>PT8208</name></trkpt>
<trkpt lat="53.206296" lon="-1.762785"><ele>303</ele><time>2020-01-31T12:41:54Z</time><name>PT8209</name></trkpt>
<trkpt lat="53.206311" lon="-1.762773"><ele>302</ele><time>2020-01-31T12:41:54Z</time><name>PT8210</name></trkpt>
<trkpt lat="53.206324" lon="-1.762758"><ele>301</ele><time>2020-01-31T12:41:55Z</time><name>PT8211</name></trkpt>
<trkpt lat="53.206334" lon="-1.762744"><ele>301</ele><time>2020-01-31T12:41:57Z</time><name>PT8212</name></trkpt>
<trkpt lat="53.206343" lon="-1.762732"><ele>301</ele><time>2020-01-31T12:41:57Z</time><name>PT8213</name></trkpt>
<trkpt lat="53.206352" lon="-1.762720"><ele>301</ele><time>2020-01-31T12:41:58Z</time><name>PT8214</name></trkpt>
<trkpt lat="53.206362" lon="-1.762708"><ele>301</ele><time>2020-01-31T12:42:00Z</time><name>PT8215</name></trkpt>
<trkpt lat="53.206373" lon="-1.762691"><ele>301</ele><time>2020-01-31T12:42:00Z</time><name>PT8216</name></trkpt>
<trkpt lat="53.206385" lon="-1.762670"><ele>301</ele><time>2020-01-31T12:42:01Z</time><name>PT8217</name></trkpt>
<trkpt lat="53.206395" lon="-1.762653"><ele>301</ele><time>2020-01-31T12:42:03Z</time><name>PT8218</name></trkpt>
<trkpt lat="53.206405" lon="-1.762643"><ele>301</ele><time>2020-01-31T12:42:03Z</time><name>PT8219</name></trkpt>
<trkpt lat="53.206413" lon="-1.762641"><ele>301</ele><time>2020-01-31T12:42:04Z</time><name>PT8220</name></trkpt>
<trkpt lat="53.206421" lon="-1.762637"><ele>301</ele><time>2020-01-31T12:42:06Z</time><name>PT8221</name></trkpt>
<trkpt lat="53.206427" lon="-1.762622"><ele>301</ele><time>2020-01-31T12:42:06Z</time><name>PT8222</name></trkpt>
<trkpt lat="53.206437" lon="-1.762594"><ele>301</ele><time>2020-01-31T12:42:07Z</time><name>PT8223</name></trkpt>
<trkpt lat="53.206450" lon="-1.762567"><ele>301</ele><time>2020-01-31T12:42:09Z</time><name>PT8224</name></trkpt>
<trkpt lat="53.206463" lon="-1.762537"><ele>302</ele><time>2020-01-31T12:42:09Z</time><name>PT8225</name></trkpt>
<trkpt lat="53.206474" lon="-1.762510"><ele>303</ele><time>2020-01-31T12:42:10Z</time><name>PT8226</name></trkpt>
<trkpt lat="53.206480" lon="-1.762491"><ele>303</ele><time>2020-01-31T12:42:12Z</time><name>PT8227</name></trkpt>
<trkpt lat="53.206485" lon="-1.762484"><ele>303</ele><time>2020-01-31T12:42:12Z</time><name>PT8228</name></trkpt>
<trkpt lat="53.206490" lon="-1.762479"><ele>303</ele><time>2020-01-31T12:42:13Z</time><name>PT8229</name></trkpt>
<trkpt lat="53.206495" lon="-1.762476"><ele>302</ele><time>2020-01-31T12:42:15Z</time><name>PT8230</name></trkpt>
<trkpt lat="53.206507" lon="-1.762457"><ele>303</ele><time>2020-01-31T12:42:15Z</time><name>PT8231</name></trkpt>
<trkpt lat="53.206521" lon="-1.762434"><ele>303</ele><time>2020-01-31T12:42:16Z</time><name>PT8232</name></trkpt>
<trkpt lat="53.206533" lon="-1.762411"><ele>303</ele><time>2020-01-31T12:42:18Z</time><name>PT8233</name></trkpt>
<trkpt lat="53.206540" lon="-1.762397"><ele>302</ele><time>2020-01-31T12:42:18Z</time><name>PT8234</name></trkpt>
<trkpt lat="53.206545" lon="-1.762389"><ele>302</ele><time>2020-01-31T12:42:19Z</time><name>PT8235</name></trkpt>
<trkpt lat="53.206552" lon="-1.762385"><ele>302</ele><time>2020-01-31T12:42:21Z</time><name>PT8236</name></trkpt>
<trkpt lat="53.206564" lon="-1.762376"><ele>302</ele><time>2020-01-31T12:42:21Z</time><name>PT8237</name></trkpt>
<trkpt lat="53.206576" lon="-1.762353"><ele>303</ele><time>2020-01-31T12:42:22Z</time><name>PT8238</name></trkpt>
<trkpt lat="53.206591" lon="-1.762324"><ele>305</ele><time>2020-01-31T12:42:24Z</time><name>PT8239</name></trkpt>
<trkpt lat="53.206604" lon="-1.762318"><ele>305</ele><time>2020-01-31T12:42:24Z</time><name>PT8240</name></trkpt>
<trkpt lat="53.206614" lon="-1.762314"><ele>305</ele><time>2020-01-31T12:42:25Z</time><name>PT8241</name></trkpt>
<trkpt lat="53.206622" lon="-1.762310"><ele>305</ele><time>2020-01-31T12:42:27Z</time><name>PT8242</name></trkpt>
<trkpt lat="53.206630" lon="-1.762303"><ele>305</ele><time>2020-01-31T12:42:27Z</time><name>PT8243</name></trkpt>
<trkpt lat="53.206637" lon="-1.762290"><ele>304</ele><time>2020-01-31T12:42:28Z</time><name>PT8244</name></trkpt>
<trkpt lat="53.206646" lon="-1.762278"><ele>304</ele><time>2020-01-31T12:42:30Z</time><name>PT8245</name></trkpt>
<trkpt lat="53.206659" lon="-1.762262"><ele>304</ele><time>2020-01-31T12:42:30Z</time><name>PT8246</name></trkpt>
<trkpt lat="53.206668" lon="-1.762248"><ele>304</ele><time>2020-01-31T12:42:31Z</time><name>PT8247</name></trkpt>
<trkpt lat="53.206674" lon="-1.762241"><ele>304</ele><time>2020-01-31T12:42:33Z</time><name>PT8248</name></trkpt>
<trkpt lat="53.206679" lon="-1.762236"><ele>304</ele><time>2020-01-31T12:42:33Z</time><name>PT8249</name></trkpt>
<trkpt lat="53.206686" lon="-1.762228"><ele>304</ele><time>2020-01-31T12:42:34Z</time><name>PT8250</name></trkpt>
<trkpt lat="53.206698" lon="-1.762211"><ele>304</ele><time>2020-01-31T12:42:36Z</time><name>PT8251</name></trkpt>
<trkpt lat="53.206715" lon="-1.762192"><ele>304</ele><time>2020-01-31T12:42:36Z</time><name>PT8252</name></trkpt>
<trkpt lat="53.206728" lon="-1.762179"><ele>304</ele><time>2020-01-31T12:42:37Z</time><name>PT8253</name></trkpt>
<trkpt lat="53.206735" lon="-1.762165"><ele>304</ele><time>2020-01-31T12:42:39Z</time><name>PT8254</name></trkpt>
<trkpt lat="53.206740" lon="-1.762159"><ele>304</ele><time>2020-01-31T12:42:39Z</time><name>PT8255</name></trkpt>
<trkpt lat="53.206744" lon="-1.762152"><ele>304</ele><time>2020-01-31T12:42:40Z</time><name>PT8256</name></trkpt>
<trkpt lat="53.206754" lon="-1.762137"><ele>304</ele><time>2020-01-31T12:42:42Z</time><name>PT8257</name></trkpt>
<trkpt lat="53.206767" lon="-1.762115"><ele>304</ele><time>2020-01-31T12:42:42Z</time><name>PT8258</name></trkpt>
<trkpt lat="53.206780" lon="-1.762093"><ele>304</ele><time>2020-01-31T12:42:43Z</time><name>PT8259</name></trkpt>
<trkpt lat="53.206789" lon="-1.762078"><ele>304</ele><time>2020-01-31T12:42:45Z</time><name>PT8260</name></trkpt>
<trkpt lat="53.206795" lon="-1.762069"><ele>304</ele><time>2020-01-31T12:42:45Z</time><name>PT8261</name></trkpt>
<trkpt lat="53.206801" lon="-1.762063"><ele>304</ele><time>2020-01-31T12:42:46Z</time><name>PT8262</name></trkpt>
<trkpt lat="53.206808" lon="-1.762056"><ele>304</ele><time>2020-01-31T12:42:48Z</time><name>PT8263</name></trkpt>
<trkpt lat="53.206820" lon="-1.762037"><ele>304</ele><time>2020-01-31T12:42:48Z</time><name>PT8264</name></trkpt>
<trkpt lat="53.206836" lon="-1.762016"><ele>304</ele><time>2020-01-31T12:42:49Z</time><name>PT8265</name></trkpt>
<trkpt lat="53.206850" lon="-1.762001"><ele>304</ele><time>2020-01-31T12:42:51Z</time><name>PT8266</name></trkpt>
<trkpt lat="53.206860" lon="-1.761989"><ele>304</ele><time>2020-01-31T12:42:51Z</time><name>PT8267</name></trkpt>
<trkpt lat="53.206865" lon="-1.761982"><ele>303</ele><time>2020-01-31T12:42:52Z</time><name>PT8268</name></trkpt>
<trkpt lat="53.206871" lon="-1.761978"><ele>303</ele><time>2020-01-31T12:42:54Z</time><name>PT8269</name></trkpt>
<trkpt lat="53.206879" lon="-1.761967"><ele>303</ele><time>2020-01-31T12:42:54Z</time><name>PT8270</name></trkpt>
<trkpt lat="53.206892" lon="-1.761948"><ele>303</ele><time>2020-01-31T12:42:55Z</time><name>PT8271</name></trkpt>
<trkpt lat="53.206907" lon="-1.761926"><ele>304</ele><time>2020-01-31T12:42:57Z</time><name>PT8272</name></trkpt>
<trkpt lat="53.206919" lon="-1.761909"><ele>303</ele><time>2020-01-31T12:42:57Z</time><name>PT8273</name></trkpt>
<trkpt lat="53.206926" lon="-1.761900"><ele>304</ele><time>2020-01-31T12:42:58Z</time><name>PT8274</name></trkpt>
<trkpt lat="53.206931" lon="-1.761895"><ele>304</ele><time>2020-01-31T12:43:00Z</time><name>PT8275</name></trkpt>
<trkpt lat="53.206936" lon="-1.761887"><ele>303</ele><time>2020-01-31T12:43:00Z</time><name>PT8276</name></trkpt>
<trkpt lat="53.206947" lon="-1.761872"><ele>303</ele><time>2020-01-31T12:43:01Z</time><name>PT8277</name></trkpt>
<trkpt lat="53.206961" lon="-1.761857"><ele>303</ele><time>2020-01-31T12:43:03Z</time><name>PT8278</name></trkpt>
<trkpt lat="53.206972" lon="-1.761844"><ele>303</ele><time>2020-01-31T12:43:03Z</time><name>PT8279</name></trkpt>
<trkpt lat="53.206980" lon="-1.761834"><ele>303</ele><time>2020-01-31T12:43:04Z</time><name>PT8280</name></trkpt>
<trkpt lat="53.206987" lon="-1.761825"><ele>303</ele><time>2020-01-31T12:43:06Z</time><name>PT8281</name></trkpt>
<trkpt lat="53.206997" lon="-1.761815"><ele>303</ele><time>2020-01-31T12:43:06Z</time><name>PT8282</name></trkpt>
<trkpt lat="53.207009" lon="-1.761796"><ele>303</ele><time>2020-01-31T12:43:07Z</time><name>PT8283</name></trkpt>
<trkpt lat="53.207021" lon="-1.761776"><ele>303</ele><time>2020-01-31T12:43:09Z</time><name>PT8284</name></trkpt>
<trkpt lat="53.207032" lon="-1.761759"><ele>302</ele><time>2020-01-31T12:43:09Z</time><name>PT8285</name></trkpt>
<trkpt lat="53.207038" lon="-1.761748"><ele>302</ele><time>2020-01-31T12:43:10Z</time><name>PT8286</name></trkpt>
<trkpt lat="53.207043" lon="-1.761741"><ele>302</ele><time>2020-01-31T12:43:12Z</time><name>PT8287</name></trkpt>
<trkpt lat="53.207048" lon="-1.761734"><ele>302</ele><time>2020-01-31T12:43:12Z</time><name>PT8288</name></trkpt>
<trkpt lat="53.207060" lon="-1.761725"><ele>302</ele><time>2020-01-31T12:43:13Z</time><name>PT8289</name></trkpt>
<trkpt lat="53.207075" lon="-1.761711"><ele>302</ele><time>2020-01-31T12:43:15Z</time><name>PT8290</name></trkpt>
<trkpt lat="53.207093" lon="-1.761693"><ele>302</ele><time>2020-01-31T12:43:15Z</time><name>PT8291</name></trkpt>
<trkpt lat="53.207105" lon="-1.761678"><ele>302</ele><time>2020-01-31T12:43:16Z</time><name>PT8292</name></trkpt>
<trkpt lat="53.207112" lon="-1.761667"><ele>302</ele><time>2020-01-31T12:43:18Z</time><name>PT8293</name></trkpt>
<trkpt lat="53.207118" lon="-1.761658"><ele>302</ele><time>2020-01-31T12:43:18Z</time><name>PT8294</name></trkpt>
<trkpt lat="53.207123" lon="-1.761650"><ele>302</ele><time>2020-01-31T12:43:19Z</time><name>PT8295</name></trkpt>
<trkpt lat="53.207134" lon="-1.761644"><ele>302</ele><time>2020-01-31T12:43:21Z</time><name>PT8296</name></trkpt>
<trkpt lat="53.207148" lon="-1.761626"><ele>302</ele><time>2020-01-31T12:43:21Z</time><name>PT8297</name></trkpt>
<trkpt lat="53.207163" lon="-1.761613"><ele>301</ele><time>2020-01-31T12:43:22Z</time><name>PT8298</name></trkpt>
<trkpt lat="53.207171" lon="-1.761601"><ele>301</ele><time>2020-01-31T12:43:24Z</time><name>PT8299</name></trkpt>
<trkpt lat="53.207176" lon="-1.761593"><ele>301</ele><time>2020-01-31T12:43:24Z</time><name>PT8300</name></trkpt>
<trkpt lat="53.207180" lon="-1.761589"><ele>301</ele><time>2020-01-31T12:43:25Z</time><name>PT8301</name></trkpt>
<trkpt lat="53.207188" lon="-1.761578"><ele>301</ele><time>2020-01-31T12:43:27Z</time><name>PT8302</name></trkpt>
<trkpt lat="53.207200" lon="-1.761560"><ele>301</ele><time>2020-01-31T12:43:27Z</time><name>PT8303</name></trkpt>
<trkpt lat="53.207213" lon="-1.761538"><ele>301</ele><time>2020-01-31T12:43:28Z</time><name>PT8304</name></trkpt>
<trkpt lat="53.207221" lon="-1.761518"><ele>301</ele><time>2020-01-31T12:43:30Z</time><name>PT8305</name></trkpt>
<trkpt lat="53.207229" lon="-1.761506"><ele>301</ele><time>2020-01-31T12:43:30Z</time><name>PT8306</name></trkpt>
<trkpt lat="53.207235" lon="-1.761501"><ele>301</ele><time>2020-01-31T12:43:31Z</time><name>PT8307</name></trkpt>
<trkpt lat="53.207242" lon="-1.761495"><ele>301</ele><time>2020-01-31T12:43:33Z</time><name>PT8308</name></trkpt>
<trkpt lat="53.207249" lon="-1.761484"><ele>301</ele><time>2020-01-31T12:43:33Z</time><name>PT8309</name></trkpt>
<trkpt lat="53.207259" lon="-1.761464"><ele>301</ele><time>2020-01-31T12:43:34Z</time><name>PT8310</name></trkpt>
<trkpt lat="53.207272" lon="-1.761441"><ele>301</ele><time>2020-01-31T12:43:36Z</time><name>PT8311</name></trkpt>
<trkpt lat="53.207282" lon="-1.761425"><ele>301</ele><time>2020-01-31T12:43:36Z</time><name>PT8312</name></trkpt>
<trkpt lat="53.207290" lon="-1.761415"><ele>301</ele><time>2020-01-31T12:43:37Z</time><name>PT8313</name></trkpt>
<trkpt lat="53.207297" lon="-1.761413"><ele>301</ele><time>2020-01-31T12:43:39Z</time><name>PT8314</name></trkpt>
<trkpt lat="53.207305" lon="-1.761408"><ele>301</ele><time>2020-01-31T12:43:39Z</time><name>PT8315</name></trkpt>
<trkpt lat="53.207315" lon="-1.761393"><ele>301</ele><time>2020-01-31T12:43:40Z</time><name>PT8316</name></trkpt>
<trkpt lat="53.207331" lon="-1.761367"><ele>301</ele><time>2020-01-31T12:43:42Z</time><name>PT8317</name></trkpt>
<trkpt lat="53.207346" lon="-1.761342"><ele>302</ele><time>2020-01-31T12:43:42Z</time><name>PT8318</name></trkpt>
<trkpt lat="53.207357" lon="-1.761328"><ele>302</ele><time>2020-01-31T12:43:43Z</time><name>PT8319</name></trkpt>
<trkpt lat="53.207364" lon="-1.761321"><ele>302</ele><time>2020-01-31T12:43:45Z</time><name>PT8320</name></trkpt>
<trkpt lat="53.207369" lon="-1.761317"><ele>302</ele><time>2020-01-31T12:43:45Z</time><name>PT8321</name></trkpt>
<trkpt lat="53.207375" lon="-1.761308"><ele>302</ele><time>2020-01-31T12:43:46Z</time><name>PT8322</name></trkpt>
<trkpt lat="53.207386" lon="-1.761291"><ele>302</ele><time>2020-01-31T12:43:48Z</time><name>PT8323</name></trkpt>
<trkpt lat="53.207401" lon="-1.761266"><ele>302</ele><time>2020-01-31T12:43:48Z</time><name>PT8324</name></trkpt>
<trkpt lat="53.207414" lon="-1.761245"><ele>302</ele><time>2020-01-31T12:43:49Z</time><name>PT8325</name></trkpt>
<trkpt lat="53.207421" lon="-1.761233"><ele>302</ele><time>2020-01-31T12:43:51Z</time><name>PT8326</name></trkpt>
<trkpt lat="53.207424" lon="-1.761227"><ele>302</ele><time>2020-01-31T12:43:51Z</time><name>PT8327</name></trkpt>
<trkpt lat="53.207430" lon="-1.761222"><ele>302</ele><time>2020-01-31T12:43:52Z</time><name>PT8328</name></trkpt>
<trkpt lat="53.207440" lon="-1.761208"><ele>301</ele><time>2020-01-31T12:43:54Z</time><name>PT8329</name></trkpt>
<trkpt lat="53.207455" lon="-1.761187"><ele>301</ele><time>2020-01-31T12:43:54Z</time><name>PT8330</name></trkpt>
<trkpt lat="53.207469" lon="-1.761168"><ele>301</ele><time>2020-01-31T12:43:55Z</time><name>PT8331</name></trkpt>
<trkpt lat="53.207476" lon="-1.761153"><ele>301</ele><time>2020-01-31T12:43:57Z</time><name>PT8332</name></trkpt>
<trkpt lat="53.207485" lon="-1.761141"><ele>301</ele><time>2020-01-31T12:43:57Z</time><name>PT8333</name></trkpt>
<trkpt lat="53.207492" lon="-1.761133"><ele>301</ele><time>2020-01-31T12:43:58Z</time><name>PT8334</name></trkpt>
<trkpt lat="53.207499" lon="-1.761124"><ele>301</ele><time>2020-01-31T12:44:00Z</time><name>PT8335</name></trkpt>
<trkpt lat="53.207509" lon="-1.761108"><ele>301</ele><time>2020-01-31T12:44:00Z</time><name>PT8336</name></trkpt>
<trkpt lat="53.207521" lon="-1.761090"><ele>301</ele><time>2020-01-31T12:44:01Z</time><name>PT8337</name></trkpt>
<trkpt lat="53.207532" lon="-1.761074"><ele>301</ele><time>2020-01-31T12:44:03Z</time><name>PT8338</name></trkpt>
<trkpt lat="53.207541" lon="-1.761060"><ele>301</ele><time>2020-01-31T12:44:03Z</time><name>PT8339</name></trkpt>
<trkpt lat="53.207547" lon="-1.761055"><ele>301</ele><time>2020-01-31T12:44:04Z</time><name>PT8340</name></trkpt>
<trkpt lat="53.207555" lon="-1.761047"><ele>301</ele><time>2020-01-31T12:44:06Z</time><name>PT8341</name></trkpt>
<trkpt lat="53.207564" lon="-1.761036"><ele>301</ele><time>2020-01-31T12:44:06Z</time><name>PT8342</name></trkpt>
<trkpt lat="53.207575" lon="-1.761017"><ele>301</ele><time>2020-01-31T12:44:07Z</time><name>PT8343</name></trkpt>
<trkpt lat="53.207587" lon="-1.760996"><ele>300</ele><time>2020-01-31T12:44:09Z</time><name>PT8344</name></trkpt>
<trkpt lat="53.207595" lon="-1.760980"><ele>301</ele><time>2020-01-31T12:44:09Z</time><name>PT8345</name></trkpt>
<trkpt lat="53.207599" lon="-1.760974"><ele>301</ele><time>2020-01-31T12:44:10Z</time><name>PT8346</name></trkpt>
<trkpt lat="53.207605" lon="-1.760969"><ele>301</ele><time>2020-01-31T12:44:12Z</time><name>PT8347</name></trkpt>
<trkpt lat="53.207613" lon="-1.760957"><ele>301</ele><time>2020-01-31T12:44:12Z</time><name>PT8348</name></trkpt>
<trkpt lat="53.207626" lon="-1.760938"><ele>301</ele><time>2020-01-31T12:44:13Z</time><name>PT8349</name></trkpt>
<trkpt lat="53.207641" lon="-1.760918"><ele>301</ele><time>2020-01-31T12:44:15Z</time><name>PT8350</name></trkpt>
<trkpt lat="53.207651" lon="-1.760902"><ele>301</ele><time>2020-01-31T12:44:15Z</time><name>PT8351</name></trkpt>
<trkpt lat="53.207656" lon="-1.760894"><ele>301</ele><time>2020-01-31T12:44:16Z</time><name>PT8352</name></trkpt>
<trkpt lat="53.207660" lon="-1.760890"><ele>301</ele><time>2020-01-31T12:44:18Z</time><name>PT8353</name></trkpt>
<trkpt lat="53.207666" lon="-1.760886"><ele>301</ele><time>2020-01-31T12:44:18Z</time><name>PT8354</name></trkpt>
<trkpt lat="53.207674" lon="-1.760876"><ele>301</ele><time>2020-01-31T12:44:20Z</time><name>PT8355</name></trkpt>
<trkpt lat="53.207684" lon="-1.760857"><ele>301</ele><time>2020-01-31T12:44:21Z</time><name>PT8356</name></trkpt>
<trkpt lat="53.207696" lon="-1.760837"><ele>301</ele><time>2020-01-31T12:44:21Z</time><name>PT8357</name></trkpt>
<trkpt lat="53.207707" lon="-1.760823"><ele>301</ele><time>2020-01-31T12:44:22Z</time><name>PT8358</name></trkpt>
<trkpt lat="53.207713" lon="-1.760815"><ele>301</ele><time>2020-01-31T12:44:24Z</time><name>PT8359</name></trkpt>
<trkpt lat="53.207718" lon="-1.760809"><ele>301</ele><time>2020-01-31T12:44:24Z</time><name>PT8360</name></trkpt>
<trkpt lat="53.207723" lon="-1.760803"><ele>301</ele><time>2020-01-31T12:44:25Z</time><name>PT8361</name></trkpt>
<trkpt lat="53.207732" lon="-1.760793"><ele>301</ele><time>2020-01-31T12:44:27Z</time><name>PT8362</name></trkpt>
<trkpt lat="53.207746" lon="-1.760776"><ele>301</ele><time>2020-01-31T12:44:27Z</time><name>PT8363</name></trkpt>
<trkpt lat="53.207762" lon="-1.760759"><ele>302</ele><time>2020-01-31T12:44:28Z</time><name>PT8364</name></trkpt>
<trkpt lat="53.207775" lon="-1.760740"><ele>302</ele><time>2020-01-31T12:44:30Z</time><name>PT8365</name></trkpt>
<trkpt lat="53.207783" lon="-1.760729"><ele>302</ele><time>2020-01-31T12:44:30Z</time><name>PT8366</name></trkpt>
<trkpt lat="53.207787" lon="-1.760724"><ele>302</ele><time>2020-01-31T12:44:31Z</time><name>PT8367</name></trkpt>
<trkpt lat="53.207793" lon="-1.760721"><ele>302</ele><time>2020-01-31T12:44:33Z</time><name>PT8368</name></trkpt>
<trkpt lat="53.207801" lon="-1.760710"><ele>302</ele><time>2020-01-31T12:44:33Z</time><name>PT8369</name></trkpt>
<trkpt lat="53.207806" lon="-1.760695"><ele>302</ele><time>2020-01-31T12:44:34Z</time><name>PT8370</name></trkpt>
<trkpt lat="53.207818" lon="-1.760679"><ele>302</ele><time>2020-01-31T12:44:36Z</time><name>PT8371</name></trkpt>
<trkpt lat="53.207828" lon="-1.760667"><ele>302</ele><time>2020-01-31T12:44:36Z</time><name>PT8372</name></trkpt>
<trkpt lat="53.207835" lon="-1.760662"><ele>303</ele><time>2020-01-31T12:44:37Z</time><name>PT8373</name></trkpt>
<trkpt lat="53.207840" lon="-1.760653"><ele>303</ele><time>2020-01-31T12:44:39Z</time><name>PT8374</name></trkpt>
<trkpt lat="53.207847" lon="-1.760645"><ele>303</ele><time>2020-01-31T12:44:39Z</time><name>PT8375</name></trkpt>
<trkpt lat="53.207859" lon="-1.760632"><ele>302</ele><time>2020-01-31T12:44:40Z</time><name>PT8376</name></trkpt>
<trkpt lat="53.207874" lon="-1.760615"><ele>302</ele><time>2020-01-31T12:44:42Z</time><name>PT8377</name></trkpt>
<trkpt lat="53.207886" lon="-1.760598"><ele>303</ele><time>2020-01-31T12:44:42Z</time><name>PT8378</name></trkpt>
<trkpt lat="53.207895" lon="-1.760587"><ele>303</ele><time>2020-01-31T12:44:43Z</time><name>PT8379</name></trkpt>
<trkpt lat="53.207900" lon="-1.760583"><ele>303</ele><time>2020-01-31T12:44:45Z</time><name>PT8380</name></trkpt>
<trkpt lat="53.207908" lon="-1.760577"><ele>303</ele><time>2020-01-31T12:44:45Z</time><name>PT8381</name></trkpt>
<trkpt lat="53.207917" lon="-1.760566"><ele>303</ele><time>2020-01-31T12:44:46Z</time><name>PT8382</name></trkpt>
<trkpt lat="53.207929" lon="-1.760548"><ele>303</ele><time>2020-01-31T12:44:48Z</time><name>PT8383</name></trkpt>
<trkpt lat="53.207946" lon="-1.760532"><ele>303</ele><time>2020-01-31T12:44:48Z</time><name>PT8384</name></trkpt>
<trkpt lat="53.207961" lon="-1.760520"><ele>303</ele><time>2020-01-31T12:44:49Z</time><name>PT8385</name></trkpt>
<trkpt lat="53.207970" lon="-1.760511"><ele>303</ele><time>2020-01-31T12:44:51Z</time><name>PT8386</name></trkpt>
<trkpt lat="53.207976" lon="-1.760507"><ele>303</ele><time>2020-01-31T12:44:51Z</time><name>PT8387</name></trkpt>
<trkpt lat="53.207979" lon="-1.760504"><ele>303</ele><time>2020-01-31T12:44:52Z</time><name>PT8388</name></trkpt>
<trkpt lat="53.207985" lon="-1.760499"><ele>303</ele><time>2020-01-31T12:44:54Z</time><name>PT8389</name></trkpt>
<trkpt lat="53.207994" lon="-1.760484"><ele>303</ele><time>2020-01-31T12:44:54Z</time><name>PT8390</name></trkpt>
<trkpt lat="53.208008" lon="-1.760476"><ele>303</ele><time>2020-01-31T12:44:55Z</time><name>PT8391</name></trkpt>
<trkpt lat="53.208016" lon="-1.760463"><ele>303</ele><time>2020-01-31T12:44:57Z</time><name>PT8392</name></trkpt>
<trkpt lat="53.208023" lon="-1.760455"><ele>303</ele><time>2020-01-31T12:44:57Z</time><name>PT8393</name></trkpt>
<trkpt lat="53.208028" lon="-1.760448"><ele>303</ele><time>2020-01-31T12:44:58Z</time><name>PT8394</name></trkpt>
<trkpt lat="53.208030" lon="-1.760444"><ele>303</ele><time>2020-01-31T12:45:00Z</time><name>PT8395</name></trkpt>
<trkpt lat="53.208033" lon="-1.760443"><ele>303</ele><time>2020-01-31T12:45:00Z</time><name>PT8396</name></trkpt>
<trkpt lat="53.208038" lon="-1.760436"><ele>302</ele><time>2020-01-31T12:45:01Z</time><name>PT8397</name></trkpt>
<trkpt lat="53.208043" lon="-1.760428"><ele>303</ele><time>2020-01-31T12:45:03Z</time><name>PT8398</name></trkpt>
<trkpt lat="53.208046" lon="-1.760419"><ele>303</ele><time>2020-01-31T12:45:03Z</time><name>PT8399</name></trkpt>
<trkpt lat="53.208047" lon="-1.760420"><ele>303</ele><time>2020-01-31T12:45:04Z</time><name>PT8400</name></trkpt>
<trkpt lat="53.208050" lon="-1.760417"><ele>303</ele><time>2020-01-31T12:45:06Z</time><name>PT8401</name></trkpt>
<trkpt lat="53.208056" lon="-1.760417"><ele>303</ele><time>2020-01-31T12:45:06Z</time><name>PT8402</name></trkpt>
<trkpt lat="53.208062" lon="-1.760406"><ele>304</ele><time>2020-01-31T12:45:07Z</time><name>PT8403</name></trkpt>
<trkpt lat="53.208070" lon="-1.760391"><ele>303</ele><time>2020-01-31T12:45:09Z</time><name>PT8404</name></trkpt>
<trkpt lat="53.208080" lon="-1.760370"><ele>304</ele><time>2020-01-31T12:45:09Z</time><name>PT8405</name></trkpt>
<trkpt lat="53.208087" lon="-1.760352"><ele>304</ele><time>2020-01-31T12:45:10Z</time><name>PT8406</name></trkpt>
<trkpt lat="53.208098" lon="-1.760327"><ele>304</ele><time>2020-01-31T12:45:12Z</time><name>PT8407</name></trkpt>
<trkpt lat="53.208108" lon="-1.760300"><ele>304</ele><time>2020-01-31T12:45:12Z</time><name>PT8408</name></trkpt>
<trkpt lat="53.208116" lon="-1.760281"><ele>304</ele><time>2020-01-31T12:45:13Z</time><name>PT8409</name></trkpt>
<trkpt lat="53.208127" lon="-1.760265"><ele>305</ele><time>2020-01-31T12:45:15Z</time><name>PT8410</name></trkpt>
<trkpt lat="53.208137" lon="-1.760254"><ele>304</ele><time>2020-01-31T12:45:15Z</time><name>PT8411</name></trkpt>
<trkpt lat="53.208147" lon="-1.760245"><ele>304</ele><time>2020-01-31T12:45:16Z</time><name>PT8412</name></trkpt>
<trkpt lat="53.208156" lon="-1.760235"><ele>305</ele><time>2020-01-31T12:45:18Z</time><name>PT8413</name></trkpt>
<trkpt lat="53.208166" lon="-1.760224"><ele>305</ele><time>2020-01-31T12:45:18Z</time><name>PT8414</name></trkpt>
<trkpt lat="53.208177" lon="-1.760212"><ele>305</ele><time>2020-01-31T12:45:19Z</time><name>PT8415</name></trkpt>
<trkpt lat="53.208186" lon="-1.760206"><ele>305</ele><time>2020-01-31T12:45:21Z</time><name>PT8416</name></trkpt>
<trkpt lat="53.208193" lon="-1.760201"><ele>305</ele><time>2020-01-31T12:45:21Z</time><name>PT8417</name></trkpt>
<trkpt lat="53.208198" lon="-1.760193"><ele>305</ele><time>2020-01-31T12:45:22Z</time><name>PT8418</name></trkpt>
<trkpt lat="53.208206" lon="-1.760178"><ele>305</ele><time>2020-01-31T12:45:24Z</time><name>PT8419</name></trkpt>
<trkpt lat="53.208220" lon="-1.760157"><ele>306</ele><time>2020-01-31T12:45:24Z</time><name>PT8420</name></trkpt>
<trkpt lat="53.208231" lon="-1.760144"><ele>306</ele><time>2020-01-31T12:45:25Z</time><name>PT8421</name></trkpt>
<trkpt lat="53.208240" lon="-1.760132"><ele>306</ele><time>2020-01-31T12:45:27Z</time><name>PT8422</name></trkpt>
<trkpt lat="53.208251" lon="-1.760119"><ele>306</ele><time>2020-01-31T12:45:27Z</time><name>PT8423</name></trkpt>
<trkpt lat="53.208258" lon="-1.760108"><ele>305</ele><time>2020-01-31T12:45:29Z</time><name>PT8424</name></trkpt>
<trkpt lat="53.208266" lon="-1.760098"><ele>305</ele><time>2020-01-31T12:45:30Z</time><name>PT8425</name></trkpt>
<trkpt lat="53.208276" lon="-1.760086"><ele>305</ele><time>2020-01-31T12:45:30Z</time><name>PT8426</name></trkpt>
<trkpt lat="53.208291" lon="-1.760071"><ele>305</ele><time>2020-01-31T12:45:31Z</time><name>PT8427</name></trkpt>
<trkpt lat="53.208306" lon="-1.760051"><ele>305</ele><time>2020-01-31T12:45:33Z</time><name>PT8428</name></trkpt>
<trkpt lat="53.208317" lon="-1.760034"><ele>305</ele><time>2020-01-31T12:45:33Z</time><name>PT8429</name></trkpt>
<trkpt lat="53.208325" lon="-1.760021"><ele>306</ele><time>2020-01-31T12:45:34Z</time><name>PT8430</name></trkpt>
<trkpt lat="53.208329" lon="-1.760010"><ele>306</ele><time>2020-01-31T12:45:36Z</time><name>PT8431</name></trkpt>
<trkpt lat="53.208335" lon="-1.759999"><ele>306</ele><time>2020-01-31T12:45:36Z</time><name>PT8432</name></trkpt>
<trkpt lat="53.208343" lon="-1.759988"><ele>306</ele><time>2020-01-31T12:45:37Z</time><name>PT8433</name></trkpt>
<trkpt lat="53.208356" lon="-1.759971"><ele>306</ele><time>2020-01-31T12:45:39Z</time><name>PT8434</name></trkpt>
<trkpt lat="53.208370" lon="-1.759956"><ele>306</ele><time>2020-01-31T12:45:39Z</time><name>PT8435</name></trkpt>
<trkpt lat="53.208381" lon="-1.759945"><ele>306</ele><time>2020-01-31T12:45:40Z</time><name>PT8436</name></trkpt>
<trkpt lat="53.208389" lon="-1.759936"><ele>306</ele><time>2020-01-31T12:45:42Z</time><name>PT8437</name></trkpt>
<trkpt lat="53.208396" lon="-1.759922"><ele>307</ele><time>2020-01-31T12:45:42Z</time><name>PT8438</name></trkpt>
<trkpt lat="53.208407" lon="-1.759909"><ele>306</ele><time>2020-01-31T12:45:43Z</time><name>PT8439</name></trkpt>
<trkpt lat="53.208416" lon="-1.759893"><ele>306</ele><time>2020-01-31T12:45:45Z</time><name>PT8440</name></trkpt>
<trkpt lat="53.208427" lon="-1.759873"><ele>307</ele><time>2020-01-31T12:45:45Z</time><name>PT8441</name></trkpt>
<trkpt lat="53.208438" lon="-1.759857"><ele>307</ele><time>2020-01-31T12:45:46Z</time><name>PT8442</name></trkpt>
<trkpt lat="53.208447" lon="-1.759855"><ele>307</ele><time>2020-01-31T12:45:48Z</time><name>PT8443</name></trkpt>
<trkpt lat="53.208451" lon="-1.759851"><ele>306</ele><time>2020-01-31T12:45:48Z</time><name>PT8444</name></trkpt>
<trkpt lat="53.208455" lon="-1.759845"><ele>306</ele><time>2020-01-31T12:45:49Z</time><name>PT8445</name></trkpt>
<trkpt lat="53.208464" lon="-1.759832"><ele>306</ele><time>2020-01-31T12:45:51Z</time><name>PT8446</name></trkpt>
<trkpt lat="53.208478" lon="-1.759811"><ele>306</ele><time>2020-01-31T12:45:51Z</time><name>PT8447</name></trkpt>
<trkpt lat="53.208492" lon="-1.759789"><ele>306</ele><time>2020-01-31T12:45:52Z</time><name>PT8448</name></trkpt>
<trkpt lat="53.208503" lon="-1.759773"><ele>306</ele><time>2020-01-31T12:45:54Z</time><name>PT8449</name></trkpt>
<trkpt lat="53.208511" lon="-1.759764"><ele>305</ele><time>2020-01-31T12:45:54Z</time><name>PT8450</name></trkpt>
<trkpt lat="53.208516" lon="-1.759759"><ele>305</ele><time>2020-01-31T12:45:55Z</time><name>PT8451</name></trkpt>
<trkpt lat="53.208525" lon="-1.759748"><ele>305</ele><time>2020-01-31T12:45:57Z</time><name>PT8452</name></trkpt>
<trkpt lat="53.208538" lon="-1.759730"><ele>305</ele><time>2020-01-31T12:45:57Z</time><name>PT8453</name></trkpt>
<trkpt lat="53.208552" lon="-1.759713"><ele>305</ele><time>2020-01-31T12:45:58Z</time><name>PT8454</name></trkpt>
<trkpt lat="53.208564" lon="-1.759700"><ele>305</ele><time>2020-01-31T12:46:00Z</time><name>PT8455</name></trkpt>
<trkpt lat="53.208573" lon="-1.759687"><ele>305</ele><time>2020-01-31T12:46:00Z</time><name>PT8456</name></trkpt>
<trkpt lat="53.208578" lon="-1.759680"><ele>305</ele><time>2020-01-31T12:46:01Z</time><name>PT8457</name></trkpt>
<trkpt lat="53.208583" lon="-1.759673"><ele>304</ele><time>2020-01-31T12:46:03Z</time><name>PT8458</name></trkpt>
<trkpt lat="53.208594" lon="-1.759657"><ele>305</ele><time>2020-01-31T12:46:03Z</time><name>PT8459</name></trkpt>
<trkpt lat="53.208610" lon="-1.759638"><ele>305</ele><time>2020-01-31T12:46:04Z</time><name>PT8460</name></trkpt>
<trkpt lat="53.208628" lon="-1.759622"><ele>304</ele><time>2020-01-31T12:46:06Z</time><name>PT8461</name></trkpt>
<trkpt lat="53.208638" lon="-1.759608"><ele>304</ele><time>2020-01-31T12:46:06Z</time><name>PT8462</name></trkpt>
<trkpt lat="53.208646" lon="-1.759596"><ele>305</ele><time>2020-01-31T12:46:07Z</time><name>PT8463</name></trkpt>
<trkpt lat="53.208653" lon="-1.759590"><ele>305</ele><time>2020-01-31T12:46:09Z</time><name>PT8464</name></trkpt>
<trkpt lat="53.208661" lon="-1.759581"><ele>304</ele><time>2020-01-31T12:46:09Z</time><name>PT8465</name></trkpt>
<trkpt lat="53.208672" lon="-1.759563"><ele>304</ele><time>2020-01-31T12:46:10Z</time><name>PT8466</name></trkpt>
<trkpt lat="53.208685" lon="-1.759538"><ele>304</ele><time>2020-01-31T12:46:12Z</time><name>PT8467</name></trkpt>
<trkpt lat="53.208696" lon="-1.759517"><ele>304</ele><time>2020-01-31T12:46:12Z</time><name>PT8468</name></trkpt>
<trkpt lat="53.208705" lon="-1.759502"><ele>304</ele><time>2020-01-31T12:46:13Z</time><name>PT8469</name></trkpt>
<trkpt lat="53.208713" lon="-1.759492"><ele>304</ele><time>2020-01-31T12:46:15Z</time><name>PT8470</name></trkpt>
<trkpt lat="53.208719" lon="-1.759483"><ele>304</ele><time>2020-01-31T12:46:15Z</time><name>PT8471</name></trkpt>
<trkpt lat="53.208727" lon="-1.759468"><ele>304</ele><time>2020-01-31T12:46:16Z</time><name>PT8472</name></trkpt>
<trkpt lat="53.208740" lon="-1.759446"><ele>304</ele><time>2020-01-31T12:46:18Z</time><name>PT8473</name></trkpt>
<trkpt lat="53.208752" lon="-1.759429"><ele>304</ele><time>2020-01-31T12:46:18Z</time><name>PT8474</name></trkpt>
<trkpt lat="53.208761" lon="-1.759413"><ele>303</ele><time>2020-01-31T12:46:19Z</time><name>PT8475</name></trkpt>
<trkpt lat="53.208768" lon="-1.759401"><ele>303</ele><time>2020-01-31T12:46:21Z</time><name>PT8476</name></trkpt>
<trkpt lat="53.208772" lon="-1.759390"><ele>303</ele><time>2020-01-31T12:46:21Z</time><name>PT8477</name></trkpt>
<trkpt lat="53.208777" lon="-1.759381"><ele>302</ele><time>2020-01-31T12:46:22Z</time><name>PT8478</name></trkpt>
<trkpt lat="53.208789" lon="-1.759363"><ele>302</ele><time>2020-01-31T12:46:24Z</time><name>PT8479</name></trkpt>
<trkpt lat="53.208799" lon="-1.759343"><ele>302</ele><time>2020-01-31T12:46:24Z</time><name>PT8480</name></trkpt>
<trkpt lat="53.208812" lon="-1.759322"><ele>302</ele><time>2020-01-31T12:46:25Z</time><name>PT8481</name></trkpt>
<trkpt lat="53.208824" lon="-1.759305"><ele>301</ele><time>2020-01-31T12:46:27Z</time><name>PT8482</name></trkpt>
<trkpt lat="53.208833" lon="-1.759293"><ele>301</ele><time>2020-01-31T12:46:27Z</time><name>PT8483</name></trkpt>
<trkpt lat="53.208839" lon="-1.759286"><ele>301</ele><time>2020-01-31T12:46:28Z</time><name>PT8484</name></trkpt>
<trkpt lat="53.208845" lon="-1.759282"><ele>301</ele><time>2020-01-31T12:46:30Z</time><name>PT8485</name></trkpt>
<trkpt lat="53.208858" lon="-1.759260"><ele>301</ele><time>2020-01-31T12:46:30Z</time><name>PT8486</name></trkpt>
<trkpt lat="53.208873" lon="-1.759234"><ele>300</ele><time>2020-01-31T12:46:31Z</time><name>PT8487</name></trkpt>
<trkpt lat="53.208885" lon="-1.759209"><ele>299</ele><time>2020-01-31T12:46:33Z</time><name>PT8488</name></trkpt>
<trkpt lat="53.208895" lon="-1.759192"><ele>299</ele><time>2020-01-31T12:46:33Z</time><name>PT8489</name></trkpt>
<trkpt lat="53.208897" lon="-1.759173"><ele>300</ele><time>2020-01-31T12:46:34Z</time><name>PT8490</name></trkpt>
<trkpt lat="53.208898" lon="-1.759167"><ele>299</ele><time>2020-01-31T12:46:36Z</time><name>PT8491</name></trkpt>
<trkpt lat="53.208903" lon="-1.759164"><ele>299</ele><time>2020-01-31T12:46:36Z</time><name>PT8492</name></trkpt>
<trkpt lat="53.208914" lon="-1.759155"><ele>299</ele><time>2020-01-31T12:46:37Z</time><name>PT8493</name></trkpt>
<trkpt lat="53.208931" lon="-1.759132"><ele>299</ele><time>2020-01-31T12:46:39Z</time><name>PT8494</name></trkpt>
<trkpt lat="53.208948" lon="-1.759109"><ele>299</ele><time>2020-01-31T12:46:39Z</time><name>PT8495</name></trkpt>
<trkpt lat="53.208961" lon="-1.759088"><ele>299</ele><time>2020-01-31T12:46:40Z</time><name>PT8496</name></trkpt>
<trkpt lat="53.208969" lon="-1.759075"><ele>299</ele><time>2020-01-31T12:46:42Z</time><name>PT8497</name></trkpt>
<trkpt lat="53.208976" lon="-1.759067"><ele>299</ele><time>2020-01-31T12:46:42Z</time><name>PT8498</name></trkpt>
<trkpt lat="53.208982" lon="-1.759061"><ele>299</ele><time>2020-01-31T12:46:43Z</time><name>PT8499</name></trkpt>
<trkpt lat="53.208992" lon="-1.759045"><ele>299</ele><time>2020-01-31T12:46:45Z</time><name>PT8500</name></trkpt>
<trkpt lat="53.209006" lon="-1.759024"><ele>299</ele><time>2020-01-31T12:46:45Z</time><name>PT8501</name></trkpt>
<trkpt lat="53.209020" lon="-1.759001"><ele>299</ele><time>2020-01-31T12:46:46Z</time><name>PT8502</name></trkpt>
<trkpt lat="53.209030" lon="-1.758985"><ele>299</ele><time>2020-01-31T12:46:48Z</time><name>PT8503</name></trkpt>
<trkpt lat="53.209034" lon="-1.758971"><ele>299</ele><time>2020-01-31T12:46:48Z</time><name>PT8504</name></trkpt>
<trkpt lat="53.209039" lon="-1.758964"><ele>299</ele><time>2020-01-31T12:46:49Z</time><name>PT8505</name></trkpt>
<trkpt lat="53.209048" lon="-1.758952"><ele>299</ele><time>2020-01-31T12:46:51Z</time><name>PT8506</name></trkpt>
<trkpt lat="53.209059" lon="-1.758934"><ele>299</ele><time>2020-01-31T12:46:51Z</time><name>PT8507</name></trkpt>
<trkpt lat="53.209070" lon="-1.758917"><ele>299</ele><time>2020-01-31T12:46:52Z</time><name>PT8508</name></trkpt>
<trkpt lat="53.209078" lon="-1.758906"><ele>298</ele><time>2020-01-31T12:46:54Z</time><name>PT8509</name></trkpt>
<trkpt lat="53.209085" lon="-1.758899"><ele>299</ele><time>2020-01-31T12:46:54Z</time><name>PT8510</name></trkpt>
<trkpt lat="53.209092" lon="-1.758891"><ele>299</ele><time>2020-01-31T12:46:55Z</time><name>PT8511</name></trkpt>
<trkpt lat="53.209103" lon="-1.758873"><ele>299</ele><time>2020-01-31T12:46:57Z</time><name>PT8512</name></trkpt>
<trkpt lat="53.209115" lon="-1.758851"><ele>299</ele><time>2020-01-31T12:46:57Z</time><name>PT8513</name></trkpt>
<trkpt lat="53.209124" lon="-1.758835"><ele>299</ele><time>2020-01-31T12:46:58Z</time><name>PT8514</name></trkpt>
<trkpt lat="53.209127" lon="-1.758826"><ele>299</ele><time>2020-01-31T12:47:00Z</time><name>PT8515</name></trkpt>
<trkpt lat="53.209129" lon="-1.758820"><ele>298</ele><time>2020-01-31T12:47:00Z</time><name>PT8516</name></trkpt>
<trkpt lat="53.209134" lon="-1.758805"><ele>299</ele><time>2020-01-31T12:47:01Z</time><name>PT8517</name></trkpt>
<trkpt lat="53.209144" lon="-1.758782"><ele>299</ele><time>2020-01-31T12:47:03Z</time><name>PT8518</name></trkpt>
<trkpt lat="53.209157" lon="-1.758751"><ele>299</ele><time>2020-01-31T12:47:03Z</time><name>PT8519</name></trkpt>
<trkpt lat="53.209166" lon="-1.758724"><ele>299</ele><time>2020-01-31T12:47:04Z</time><name>PT8520</name></trkpt>
<trkpt lat="53.209171" lon="-1.758709"><ele>299</ele><time>2020-01-31T12:47:06Z</time><name>PT8521</name></trkpt>
<trkpt lat="53.209174" lon="-1.758702"><ele>299</ele><time>2020-01-31T12:47:06Z</time><name>PT8522</name></trkpt>
<trkpt lat="53.209172" lon="-1.758703"><ele>299</ele><time>2020-01-31T12:47:07Z</time><name>PT8523</name></trkpt>
<trkpt lat="53.209174" lon="-1.758696"><ele>298</ele><time>2020-01-31T12:47:09Z</time><name>PT8524</name></trkpt>
<trkpt lat="53.209180" lon="-1.758681"><ele>299</ele><time>2020-01-31T12:47:09Z</time><name>PT8525</name></trkpt>
<trkpt lat="53.209185" lon="-1.758659"><ele>299</ele><time>2020-01-31T12:47:10Z</time><name>PT8526</name></trkpt>
<trkpt lat="53.209189" lon="-1.758630"><ele>300</ele><time>2020-01-31T12:47:12Z</time><name>PT8527</name></trkpt>
<trkpt lat="53.209196" lon="-1.758604"><ele>301</ele><time>2020-01-31T12:47:12Z</time><name>PT8528</name></trkpt>
<trkpt lat="53.209202" lon="-1.758588"><ele>301</ele><time>2020-01-31T12:47:13Z</time><name>PT8529</name></trkpt>
<trkpt lat="53.209207" lon="-1.758573"><ele>301</ele><time>2020-01-31T12:47:15Z</time><name>PT8530</name></trkpt>
<trkpt lat="53.209211" lon="-1.758561"><ele>302</ele><time>2020-01-31T12:47:15Z</time><name>PT8531</name></trkpt>
<trkpt lat="53.209211" lon="-1.758549"><ele>302</ele><time>2020-01-31T12:47:16Z</time><name>PT8532</name></trkpt>
<trkpt lat="53.209217" lon="-1.758529"><ele>301</ele><time>2020-01-31T12:47:18Z</time><name>PT8533</name></trkpt>
<trkpt lat="53.209223" lon="-1.758504"><ele>301</ele><time>2020-01-31T12:47:18Z</time><name>PT8534</name></trkpt>
<trkpt lat="53.209228" lon="-1.758478"><ele>301</ele><time>2020-01-31T12:47:19Z</time><name>PT8535</name></trkpt>
<trkpt lat="53.209235" lon="-1.758460"><ele>301</ele><time>2020-01-31T12:47:21Z</time><name>PT8536</name></trkpt>
<trkpt lat="53.209239" lon="-1.758450"><ele>301</ele><time>2020-01-31T12:47:21Z</time><name>PT8537</name></trkpt>
<trkpt lat="53.209243" lon="-1.758438"><ele>301</ele><time>2020-01-31T12:47:22Z</time><name>PT8538</name></trkpt>
<trkpt lat="53.209248" lon="-1.758419"><ele>302</ele><time>2020-01-31T12:47:24Z</time><name>PT8539</name></trkpt>
<trkpt lat="53.209254" lon="-1.758396"><ele>302</ele><time>2020-01-31T12:47:24Z</time><name>PT8540</name></trkpt>
<trkpt lat="53.209261" lon="-1.758374"><ele>302</ele><time>2020-01-31T12:47:25Z</time><name>PT8541</name></trkpt>
<trkpt lat="53.209267" lon="-1.758358"><ele>302</ele><time>2020-01-31T12:47:27Z</time><name>PT8542</name></trkpt>
<trkpt lat="53.209271" lon="-1.758349"><ele>303</ele><time>2020-01-31T12:47:27Z</time><name>PT8543</name></trkpt>
<trkpt lat="53.209276" lon="-1.758340"><ele>303</ele><time>2020-01-31T12:47:28Z</time><name>PT8544</name></trkpt>
<trkpt lat="53.209280" lon="-1.758318"><ele>303</ele><time>2020-01-31T12:47:30Z</time><name>PT8545</name></trkpt>
<trkpt lat="53.209286" lon="-1.758288"><ele>303</ele><time>2020-01-31T12:47:30Z</time><name>PT8546</name></trkpt>
<trkpt lat="53.209293" lon="-1.758266"><ele>303</ele><time>2020-01-31T12:47:31Z</time><name>PT8547</name></trkpt>
<trkpt lat="53.209299" lon="-1.758252"><ele>303</ele><time>2020-01-31T12:47:33Z</time><name>PT8548</name></trkpt>
<trkpt lat="53.209306" lon="-1.758238"><ele>304</ele><time>2020-01-31T12:47:33Z</time><name>PT8549</name></trkpt>
<trkpt lat="53.209312" lon="-1.758226"><ele>304</ele><time>2020-01-31T12:47:34Z</time><name>PT8550</name></trkpt>
<trkpt lat="53.209318" lon="-1.758211"><ele>305</ele><time>2020-01-31T12:47:36Z</time><name>PT8551</name></trkpt>
<trkpt lat="53.209325" lon="-1.758187"><ele>306</ele><time>2020-01-31T12:47:36Z</time><name>PT8552</name></trkpt>
<trkpt lat="53.209329" lon="-1.758172"><ele>306</ele><time>2020-01-31T12:47:37Z</time><name>PT8553</name></trkpt>
<trkpt lat="53.209335" lon="-1.758164"><ele>306</ele><time>2020-01-31T12:47:39Z</time><name>PT8554</name></trkpt>
<trkpt lat="53.209338" lon="-1.758155"><ele>306</ele><time>2020-01-31T12:47:39Z</time><name>PT8555</name></trkpt>
<trkpt lat="53.209344" lon="-1.758144"><ele>306</ele><time>2020-01-31T12:47:40Z</time><name>PT8556</name></trkpt>
<trkpt lat="53.209354" lon="-1.758124"><ele>306</ele><time>2020-01-31T12:47:42Z</time><name>PT8557</name></trkpt>
<trkpt lat="53.209362" lon="-1.758102"><ele>306</ele><time>2020-01-31T12:47:42Z</time><name>PT8558</name></trkpt>
<trkpt lat="53.209367" lon="-1.758089"><ele>306</ele><time>2020-01-31T12:47:43Z</time><name>PT8559</name></trkpt>
<trkpt lat="53.209370" lon="-1.758084"><ele>306</ele><time>2020-01-31T12:47:45Z</time><name>PT8560</name></trkpt>
<trkpt lat="53.209372" lon="-1.758078"><ele>306</ele><time>2020-01-31T12:47:45Z</time><name>PT8561</name></trkpt>
<trkpt lat="53.209374" lon="-1.758074"><ele>306</ele><time>2020-01-31T12:47:46Z</time><name>PT8562</name></trkpt>
<trkpt lat="53.209375" lon="-1.758074"><ele>306</ele><time>2020-01-31T12:47:48Z</time><name>PT8563</name></trkpt>
<trkpt lat="53.209374" lon="-1.758074"><ele>306</ele><time>2020-01-31T12:47:48Z</time><name>PT8564</name></trkpt>
<trkpt lat="53.209373" lon="-1.758067"><ele>306</ele><time>2020-01-31T12:47:49Z</time><name>PT8565</name></trkpt>
<trkpt lat="53.209372" lon="-1.758061"><ele>306</ele><time>2020-01-31T12:47:51Z</time><name>PT8566</name></trkpt>
<trkpt lat="53.209371" lon="-1.758058"><ele>306</ele><time>2020-01-31T12:47:51Z</time><name>PT8567</name></trkpt>
<trkpt lat="53.209373" lon="-1.758054"><ele>306</ele><time>2020-01-31T12:47:52Z</time><name>PT8568</name></trkpt>
<trkpt lat="53.209373" lon="-1.758061"><ele>306</ele><time>2020-01-31T12:47:54Z</time><name>PT8569</name></trkpt>
<trkpt lat="53.209379" lon="-1.758059"><ele>306</ele><time>2020-01-31T12:47:54Z</time><name>PT8570</name></trkpt>
<trkpt lat="53.209379" lon="-1.758058"><ele>306</ele><time>2020-01-31T12:47:55Z</time><name>PT8571</name></trkpt>
<trkpt lat="53.209378" lon="-1.758058"><ele>306</ele><time>2020-01-31T12:47:57Z</time><name>PT8572</name></trkpt>
<trkpt lat="53.209381" lon="-1.758058"><ele>306</ele><time>2020-01-31T12:47:57Z</time><name>PT8573</name></trkpt>
<trkpt lat="53.209380" lon="-1.758048"><ele>306</ele><time>2020-01-31T12:47:58Z</time><name>PT8574</name></trkpt>
<trkpt lat="53.209382" lon="-1.758028"><ele>306</ele><time>2020-01-31T12:48:00Z</time><name>PT8575</name></trkpt>
<trkpt lat="53.209383" lon="-1.758004"><ele>306</ele><time>2020-01-31T12:48:00Z</time><name>PT8576</name></trkpt>
<trkpt lat="53.209385" lon="-1.757981"><ele>306</ele><time>2020-01-31T12:48:01Z</time><name>PT8577</name></trkpt>
<trkpt lat="53.209391" lon="-1.757967"><ele>306</ele><time>2020-01-31T12:48:03Z</time><name>PT8578</name></trkpt>
<trkpt lat="53.209393" lon="-1.757947"><ele>307</ele><time>2020-01-31T12:48:03Z</time><name>PT8579</name></trkpt>
<trkpt lat="53.209396" lon="-1.757926"><ele>307</ele><time>2020-01-31T12:48:05Z</time><name>PT8580</name></trkpt>
<trkpt lat="53.209399" lon="-1.757908"><ele>307</ele><time>2020-01-31T12:48:06Z</time><name>PT8581</name></trkpt>
<trkpt lat="53.209406" lon="-1.757876"><ele>307</ele><time>2020-01-31T12:48:06Z</time><name>PT8582</name></trkpt>
<trkpt lat="53.209408" lon="-1.757853"><ele>307</ele><time>2020-01-31T12:48:07Z</time><name>PT8583</name></trkpt>
<trkpt lat="53.209410" lon="-1.757838"><ele>307</ele><time>2020-01-31T12:48:09Z</time><name>PT8584</name></trkpt>
<trkpt lat="53.209415" lon="-1.757824"><ele>307</ele><time>2020-01-31T12:48:09Z</time><name>PT8585</name></trkpt>
<trkpt lat="53.209421" lon="-1.757811"><ele>307</ele><time>2020-01-31T12:48:10Z</time><name>PT8586</name></trkpt>
<trkpt lat="53.209426" lon="-1.757792"><ele>307</ele><time>2020-01-31T12:48:12Z</time><name>PT8587</name></trkpt>
<trkpt lat="53.209430" lon="-1.757776"><ele>307</ele><time>2020-01-31T12:48:12Z</time><name>PT8588</name></trkpt>
<trkpt lat="53.209428" lon="-1.757762"><ele>306</ele><time>2020-01-31T12:48:13Z</time><name>PT8589</name></trkpt>
<trkpt lat="53.209429" lon="-1.757753"><ele>306</ele><time>2020-01-31T12:48:15Z</time><name>PT8590</name></trkpt>
<trkpt lat="53.209433" lon="-1.757735"><ele>306</ele><time>2020-01-31T12:48:15Z</time><name>PT8591</name></trkpt>
<trkpt lat="53.209439" lon="-1.757712"><ele>306</ele><time>2020-01-31T12:48:16Z</time><name>PT8592</name></trkpt>
<trkpt lat="53.209444" lon="-1.757695"><ele>306</ele><time>2020-01-31T12:48:18Z</time><name>PT8593</name></trkpt>
<trkpt lat="53.209447" lon="-1.757684"><ele>306</ele><time>2020-01-31T12:48:18Z</time><name>PT8594</name></trkpt>
<trkpt lat="53.209449" lon="-1.757671"><ele>306</ele><time>2020-01-31T12:48:19Z</time><name>PT8595</name></trkpt>
<trkpt lat="53.209452" lon="-1.757661"><ele>305</ele><time>2020-01-31T12:48:21Z</time><name>PT8596</name></trkpt>
<trkpt lat="53.209458" lon="-1.757650"><ele>305</ele><time>2020-01-31T12:48:21Z</time><name>PT8597</name></trkpt>
<trkpt lat="53.209459" lon="-1.757645"><ele>305</ele><time>2020-01-31T12:48:22Z</time><name>PT8598</name></trkpt>
<trkpt lat="53.209461" lon="-1.757639"><ele>306</ele><time>2020-01-31T12:48:24Z</time><name>PT8599</name></trkpt>
<trkpt lat="53.209460" lon="-1.757630"><ele>306</ele><time>2020-01-31T12:48:24Z</time><name>PT8600</name></trkpt>
<trkpt lat="53.209465" lon="-1.757627"><ele>306</ele><time>2020-01-31T12:48:25Z</time><name>PT8601</name></trkpt>
<trkpt lat="53.209476" lon="-1.757626"><ele>306</ele><time>2020-01-31T12:48:27Z</time><name>PT8602</name></trkpt>
<trkpt lat="53.209479" lon="-1.757631"><ele>307</ele><time>2020-01-31T12:48:27Z</time><name>PT8603</name></trkpt>
<trkpt lat="53.209484" lon="-1.757629"><ele>308</ele><time>2020-01-31T12:48:28Z</time><name>PT8604</name></trkpt>
<trkpt lat="53.209487" lon="-1.757616"><ele>308</ele><time>2020-01-31T12:48:30Z</time><name>PT8605</name></trkpt>
<trkpt lat="53.209489" lon="-1.757617"><ele>308</ele><time>2020-01-31T12:48:30Z</time><name>PT8606</name></trkpt>
<trkpt lat="53.209492" lon="-1.757620"><ele>308</ele><time>2020-01-31T12:48:31Z</time><name>PT8607</name></trkpt>
<trkpt lat="53.209489" lon="-1.757619"><ele>308</ele><time>2020-01-31T12:48:33Z</time><name>PT8608</name></trkpt>
<trkpt lat="53.209495" lon="-1.757615"><ele>308</ele><time>2020-01-31T12:48:33Z</time><name>PT8609</name></trkpt>
<trkpt lat="53.209507" lon="-1.757610"><ele>309</ele><time>2020-01-31T12:48:34Z</time><name>PT8610</name></trkpt>
<trkpt lat="53.209517" lon="-1.757603"><ele>310</ele><time>2020-01-31T12:48:36Z</time><name>PT8611</name></trkpt>
<trkpt lat="53.209524" lon="-1.757598"><ele>310</ele><time>2020-01-31T12:48:36Z</time><name>PT8612</name></trkpt>
<trkpt lat="53.209530" lon="-1.757597"><ele>311</ele><time>2020-01-31T12:48:37Z</time><name>PT8613</name></trkpt>
<trkpt lat="53.209537" lon="-1.757591"><ele>311</ele><time>2020-01-31T12:48:39Z</time><name>PT8614</name></trkpt>
<trkpt lat="53.209541" lon="-1.757588"><ele>311</ele><time>2020-01-31T12:48:39Z</time><name>PT8615</name></trkpt>
<trkpt lat="53.209547" lon="-1.757587"><ele>311</ele><time>2020-01-31T12:48:40Z</time><name>PT8616</name></trkpt>
<trkpt lat="53.209552" lon="-1.757584"><ele>311</ele><time>2020-01-31T12:48:42Z</time><name>PT8617</name></trkpt>
<trkpt lat="53.209565" lon="-1.757576"><ele>311</ele><time>2020-01-31T12:48:42Z</time><name>PT8618</name></trkpt>
<trkpt lat="53.209579" lon="-1.757561"><ele>311</ele><time>2020-01-31T12:48:43Z</time><name>PT8619</name></trkpt>
<trkpt lat="53.209590" lon="-1.757547"><ele>311</ele><time>2020-01-31T12:48:45Z</time><name>PT8620</name></trkpt>
<trkpt lat="53.209597" lon="-1.757537"><ele>311</ele><time>2020-01-31T12:48:45Z</time><name>PT8621</name></trkpt>
<trkpt lat="53.209602" lon="-1.757528"><ele>311</ele><time>2020-01-31T12:48:46Z</time><name>PT8622</name></trkpt>
<trkpt lat="53.209606" lon="-1.757516"><ele>311</ele><time>2020-01-31T12:48:48Z</time><name>PT8623</name></trkpt>
<trkpt lat="53.209613" lon="-1.757502"><ele>310</ele><time>2020-01-31T12:48:48Z</time><name>PT8624</name></trkpt>
<trkpt lat="53.209624" lon="-1.757488"><ele>310</ele><time>2020-01-31T12:48:49Z</time><name>PT8625</name></trkpt>
<trkpt lat="53.209632" lon="-1.757477"><ele>310</ele><time>2020-01-31T12:48:51Z</time><name>PT8626</name></trkpt>
<trkpt lat="53.209636" lon="-1.757469"><ele>310</ele><time>2020-01-31T12:48:51Z</time><name>PT8627</name></trkpt>
<trkpt lat="53.209640" lon="-1.757464"><ele>310</ele><time>2020-01-31T12:48:52Z</time><name>PT8628</name></trkpt>
<trkpt lat="53.209645" lon="-1.757453"><ele>310</ele><time>2020-01-31T12:48:54Z</time><name>PT8629</name></trkpt>
<trkpt lat="53.209657" lon="-1.757437"><ele>310</ele><time>2020-01-31T12:48:54Z</time><name>PT8630</name></trkpt>
<trkpt lat="53.209665" lon="-1.757421"><ele>309</ele><time>2020-01-31T12:48:55Z</time><name>PT8631</name></trkpt>
<trkpt lat="53.209667" lon="-1.757409"><ele>310</ele><time>2020-01-31T12:48:57Z</time><name>PT8632</name></trkpt>
<trkpt lat="53.209671" lon="-1.757396"><ele>309</ele><time>2020-01-31T12:48:57Z</time><name>PT8633</name></trkpt>
<trkpt lat="53.209683" lon="-1.757381"><ele>310</ele><time>2020-01-31T12:48:58Z</time><name>PT8634</name></trkpt>
<trkpt lat="53.209689" lon="-1.757360"><ele>309</ele><time>2020-01-31T12:49:00Z</time><name>PT8635</name></trkpt>
<trkpt lat="53.209697" lon="-1.757344"><ele>309</ele><time>2020-01-31T12:49:00Z</time><name>PT8636</name></trkpt>
<trkpt lat="53.209701" lon="-1.757327"><ele>309</ele><time>2020-01-31T12:49:01Z</time><name>PT8637</name></trkpt>
<trkpt lat="53.209710" lon="-1.757309"><ele>308</ele><time>2020-01-31T12:49:03Z</time><name>PT8638</name></trkpt>
<trkpt lat="53.209717" lon="-1.757293"><ele>308</ele><time>2020-01-31T12:49:03Z</time><name>PT8639</name></trkpt>
<trkpt lat="53.209721" lon="-1.757281"><ele>308</ele><time>2020-01-31T12:49:04Z</time><name>PT8640</name></trkpt>
<trkpt lat="53.209727" lon="-1.757268"><ele>309</ele><time>2020-01-31T12:49:06Z</time><name>PT8641</name></trkpt>
<trkpt lat="53.209729" lon="-1.757257"><ele>309</ele><time>2020-01-31T12:49:06Z</time><name>PT8642</name></trkpt>
<trkpt lat="53.209733" lon="-1.757251"><ele>309</ele><time>2020-01-31T12:49:07Z</time><name>PT8643</name></trkpt>
<trkpt lat="53.209738" lon="-1.757247"><ele>309</ele><time>2020-01-31T12:49:09Z</time><name>PT8644</name></trkpt>
<trkpt lat="53.209741" lon="-1.757247"><ele>309</ele><time>2020-01-31T12:49:09Z</time><name>PT8645</name></trkpt>
<trkpt lat="53.209744" lon="-1.757241"><ele>310</ele><time>2020-01-31T12:49:10Z</time><name>PT8646</name></trkpt>
<trkpt lat="53.209745" lon="-1.757232"><ele>310</ele><time>2020-01-31T12:49:12Z</time><name>PT8647</name></trkpt>
<trkpt lat="53.209747" lon="-1.757230"><ele>310</ele><time>2020-01-31T12:49:12Z</time><name>PT8648</name></trkpt>
<trkpt lat="53.209751" lon="-1.757226"><ele>310</ele><time>2020-01-31T12:49:13Z</time><name>PT8649</name></trkpt>
<trkpt lat="53.209753" lon="-1.757227"><ele>310</ele><time>2020-01-31T12:49:15Z</time><name>PT8650</name></trkpt>
<trkpt lat="53.209756" lon="-1.757230"><ele>309</ele><time>2020-01-31T12:49:15Z</time><name>PT8651</name></trkpt>
<trkpt lat="53.209755" lon="-1.757230"><ele>309</ele><time>2020-01-31T12:49:16Z</time><name>PT8652</name></trkpt>
<trkpt lat="53.209757" lon="-1.757218"><ele>311</ele><time>2020-01-31T12:49:18Z</time><name>PT8653</name></trkpt>
<trkpt lat="53.209756" lon="-1.757215"><ele>312</ele><time>2020-01-31T12:49:18Z</time><name>PT8654</name></trkpt>
<trkpt lat="53.209755" lon="-1.757215"><ele>312</ele><time>2020-01-31T12:49:19Z</time><name>PT8655</name></trkpt>
<trkpt lat="53.209755" lon="-1.757213"><ele>312</ele><time>2020-01-31T12:49:21Z</time><name>PT8656</name></trkpt>
<trkpt lat="53.209757" lon="-1.757210"><ele>311</ele><time>2020-01-31T12:49:21Z</time><name>PT8657</name></trkpt>
<trkpt lat="53.209759" lon="-1.757209"><ele>312</ele><time>2020-01-31T12:49:22Z</time><name>PT8658</name></trkpt>
<trkpt lat="53.209760" lon="-1.757210"><ele>311</ele><time>2020-01-31T12:49:24Z</time><name>PT8659</name></trkpt>
<trkpt lat="53.209760" lon="-1.757208"><ele>311</ele><time>2020-01-31T12:49:24Z</time><name>PT8660</name></trkpt>
<trkpt lat="53.209762" lon="-1.757205"><ele>311</ele><time>2020-01-31T12:49:25Z</time><name>PT8661</name></trkpt>
<trkpt lat="53.209762" lon="-1.757205"><ele>311</ele><time>2020-01-31T12:49:27Z</time><name>PT8662</name></trkpt>
<trkpt lat="53.209761" lon="-1.757206"><ele>311</ele><time>2020-01-31T12:49:27Z</time><name>PT8663</name></trkpt>
<trkpt lat="53.209764" lon="-1.757204"><ele>311</ele><time>2020-01-31T12:49:28Z</time><name>PT8664</name></trkpt>
<trkpt lat="53.209767" lon="-1.757209"><ele>311</ele><time>2020-01-31T12:49:30Z</time><name>PT8665</name></trkpt>
<trkpt lat="53.209777" lon="-1.757213"><ele>312</ele><time>2020-01-31T12:49:30Z</time><name>PT8666</name></trkpt>
<trkpt lat="53.209787" lon="-1.757218"><ele>312</ele><time>2020-01-31T12:49:31Z</time><name>PT8667</name></trkpt>
<trkpt lat="53.209790" lon="-1.757232"><ele>311</ele><time>2020-01-31T12:49:33Z</time><name>PT8668</name></trkpt>
<trkpt lat="53.209799" lon="-1.757244"><ele>311</ele><time>2020-01-31T12:49:33Z</time><name>PT8669</name></trkpt>
<trkpt lat="53.209808" lon="-1.757257"><ele>311</ele><time>2020-01-31T12:49:34Z</time><name>PT8670</name></trkpt>
<trkpt lat="53.209816" lon="-1.757270"><ele>311</ele><time>2020-01-31T12:49:36Z</time><name>PT8671</name></trkpt>
<trkpt lat="53.209823" lon="-1.757280"><ele>311</ele><time>2020-01-31T12:49:36Z</time><name>PT8672</name></trkpt>
<trkpt lat="53.209830" lon="-1.757284"><ele>311</ele><time>2020-01-31T12:49:37Z</time><name>PT8673</name></trkpt>
<trkpt lat="53.209848" lon="-1.757288"><ele>312</ele><time>2020-01-31T12:49:39Z</time><name>PT8674</name></trkpt>
<trkpt lat="53.209859" lon="-1.757289"><ele>313</ele><time>2020-01-31T12:49:39Z</time><name>PT8675</name></trkpt>
<trkpt lat="53.209864" lon="-1.757293"><ele>312</ele><time>2020-01-31T12:49:40Z</time><name>PT8676</name></trkpt>
<trkpt lat="53.209869" lon="-1.757297"><ele>313</ele><time>2020-01-31T12:49:42Z</time><name>PT8677</name></trkpt>
<trkpt lat="53.209874" lon="-1.757294"><ele>312</ele><time>2020-01-31T12:49:42Z</time><name>PT8678</name></trkpt>
<trkpt lat="53.209876" lon="-1.757288"><ele>312</ele><time>2020-01-31T12:49:43Z</time><name>PT8679</name></trkpt>
<trkpt lat="53.209873" lon="-1.757291"><ele>312</ele><time>2020-01-31T12:49:45Z</time><name>PT8680</name></trkpt>
<trkpt lat="53.209867" lon="-1.757292"><ele>311</ele><time>2020-01-31T12:49:45Z</time><name>PT8681</name></trkpt>
<trkpt lat="53.209866" lon="-1.757306"><ele>311</ele><time>2020-01-31T12:49:46Z</time><name>PT8682</name></trkpt>
<trkpt lat="53.209871" lon="-1.757316"><ele>311</ele><time>2020-01-31T12:49:48Z</time><name>PT8683</name></trkpt>
<trkpt lat="53.209874" lon="-1.757324"><ele>311</ele><time>2020-01-31T12:49:48Z</time><name>PT8684</name></trkpt>
<trkpt lat="53.209881" lon="-1.757335"><ele>311</ele><time>2020-01-31T12:49:49Z</time><name>PT8685</name></trkpt>
<trkpt lat="53.209885" lon="-1.757339"><ele>311</ele><time>2020-01-31T12:49:51Z</time><name>PT8686</name></trkpt>
<trkpt lat="53.209895" lon="-1.757340"><ele>311</ele><time>2020-01-31T12:49:51Z</time><name>PT8687</name></trkpt>
<trkpt lat="53.209899" lon="-1.757342"><ele>311</ele><time>2020-01-31T12:49:52Z</time><name>PT8688</name></trkpt>
<trkpt lat="53.209901" lon="-1.757338"><ele>311</ele><time>2020-01-31T12:49:54Z</time><name>PT8689</name></trkpt>
<trkpt lat="53.209906" lon="-1.757331"><ele>311</ele><time>2020-01-31T12:49:54Z</time><name>PT8690</name></trkpt>
<trkpt lat="53.209920" lon="-1.757329"><ele>312</ele><time>2020-01-31T12:49:55Z</time><name>PT8691</name></trkpt>
<trkpt lat="53.209925" lon="-1.757318"><ele>311</ele><time>2020-01-31T12:49:57Z</time><name>PT8692</name></trkpt>
<trkpt lat="53.209931" lon="-1.757316"><ele>312</ele><time>2020-01-31T12:49:57Z</time><name>PT8693</name></trkpt>
<trkpt lat="53.209930" lon="-1.757318"><ele>311</ele><time>2020-01-31T12:49:58Z</time><name>PT8694</name></trkpt>
<trkpt lat="53.209928" lon="-1.757317"><ele>311</ele><time>2020-01-31T12:50:00Z</time><name>PT8695</name></trkpt>
<trkpt lat="53.209928" lon="-1.757313"><ele>311</ele><time>2020-01-31T12:50:00Z</time><name>PT8696</name></trkpt>
<trkpt lat="53.209930" lon="-1.757312"><ele>311</ele><time>2020-01-31T12:50:01Z</time><name>PT8697</name></trkpt>
<trkpt lat="53.209928" lon="-1.757316"><ele>311</ele><time>2020-01-31T12:50:03Z</time><name>PT8698</name></trkpt>
<trkpt lat="53.209924" lon="-1.757314"><ele>311</ele><time>2020-01-31T12:50:03Z</time><name>PT8699</name></trkpt>
<trkpt lat="53.209926" lon="-1.757304"><ele>311</ele><time>2020-01-31T12:50:04Z</time><name>PT8700</name></trkpt>
<trkpt lat="53.209928" lon="-1.757287"><ele>311</ele><time>2020-01-31T12:50:06Z</time><name>PT8701</name></trkpt>
<trkpt lat="53.209929" lon="-1.757277"><ele>311</ele><time>2020-01-31T12:50:06Z</time><name>PT8702</name></trkpt>
<trkpt lat="53.209934" lon="-1.757267"><ele>311</ele><time>2020-01-31T12:50:07Z</time><name>PT8703</name></trkpt>
<trkpt lat="53.209935" lon="-1.757268"><ele>311</ele><time>2020-01-31T12:50:09Z</time><name>PT8704</name></trkpt>
<trkpt lat="53.209934" lon="-1.757268"><ele>310</ele><time>2020-01-31T12:50:09Z</time><name>PT8705</name></trkpt>
<trkpt lat="53.209935" lon="-1.757266"><ele>310</ele><time>2020-01-31T12:50:10Z</time><name>PT8706</name></trkpt>
<trkpt lat="53.209944" lon="-1.757247"><ele>311</ele><time>2020-01-31T12:50:12Z</time><name>PT8707</name></trkpt>
<trkpt lat="53.209959" lon="-1.757230"><ele>311</ele><time>2020-01-31T12:50:12Z</time><name>PT8708</name></trkpt>
<trkpt lat="53.209964" lon="-1.757226"><ele>311</ele><time>2020-01-31T12:50:13Z</time><name>PT8709</name></trkpt>
<trkpt lat="53.209961" lon="-1.757230"><ele>310</ele><time>2020-01-31T12:50:15Z</time><name>PT8710</name></trkpt>
<trkpt lat="53.209960" lon="-1.757232"><ele>310</ele><time>2020-01-31T12:50:15Z</time><name>PT8711</name></trkpt>
<trkpt lat="53.209960" lon="-1.757232"><ele>310</ele><time>2020-01-31T12:50:16Z</time><name>PT8712</name></trkpt>
<trkpt lat="53.209960" lon="-1.757238"><ele>310</ele><time>2020-01-31T12:50:18Z</time><name>PT8713</name></trkpt>
<trkpt lat="53.209960" lon="-1.757241"><ele>310</ele><time>2020-01-31T12:50:18Z</time><name>PT8714</name></trkpt>
<trkpt lat="53.209958" lon="-1.757239"><ele>310</ele><time>2020-01-31T12:50:19Z</time><name>PT8715</name></trkpt>
<trkpt lat="53.209959" lon="-1.757226"><ele>310</ele><time>2020-01-31T12:50:21Z</time><name>PT8716</name></trkpt>
<trkpt lat="53.209956" lon="-1.757216"><ele>310</ele><time>2020-01-31T12:50:21Z</time><name>PT8717</name></trkpt>
<trkpt lat="53.209954" lon="-1.757205"><ele>310</ele><time>2020-01-31T12:50:22Z</time><name>PT8718</name></trkpt>
<trkpt lat="53.209955" lon="-1.757185"><ele>309</ele><time>2020-01-31T12:50:24Z</time><name>PT8719</name></trkpt>
<trkpt lat="53.209958" lon="-1.757175"><ele>309</ele><time>2020-01-31T12:50:24Z</time><name>PT8720</name></trkpt>
<trkpt lat="53.209957" lon="-1.757173"><ele>309</ele><time>2020-01-31T12:50:25Z</time><name>PT8721</name></trkpt>
<trkpt lat="53.209956" lon="-1.757174"><ele>309</ele><time>2020-01-31T12:50:27Z</time><name>PT8722</name></trkpt>
<trkpt lat="53.209952" lon="-1.757176"><ele>309</ele><time>2020-01-31T12:50:27Z</time><name>PT8723</name></trkpt>
<trkpt lat="53.209953" lon="-1.757175"><ele>309</ele><time>2020-01-31T12:50:28Z</time><name>PT8724</name></trkpt>
<trkpt lat="53.209953" lon="-1.757179"><ele>309</ele><time>2020-01-31T12:50:30Z</time><name>PT8725</name></trkpt>
<trkpt lat="53.209958" lon="-1.757169"><ele>309</ele><time>2020-01-31T12:50:30Z</time><name>PT8726</name></trkpt>
<trkpt lat="53.209964" lon="-1.757164"><ele>308</ele><time>2020-01-31T12:50:31Z</time><name>PT8727</name></trkpt>
<trkpt lat="53.209966" lon="-1.757164"><ele>308</ele><time>2020-01-31T12:50:33Z</time><name>PT8728</name></trkpt>
<trkpt lat="53.209963" lon="-1.757155"><ele>308</ele><time>2020-01-31T12:50:33Z</time><name>PT8729</name></trkpt>
<trkpt lat="53.209965" lon="-1.757146"><ele>308</ele><time>2020-01-31T12:50:34Z</time><name>PT8730</name></trkpt>
<trkpt lat="53.209965" lon="-1.757142"><ele>308</ele><time>2020-01-31T12:50:36Z</time><name>PT8731</name></trkpt>
<trkpt lat="53.209968" lon="-1.757137"><ele>308</ele><time>2020-01-31T12:50:36Z</time><name>PT8732</name></trkpt>
<trkpt lat="53.209969" lon="-1.757131"><ele>308</ele><time>2020-01-31T12:50:37Z</time><name>PT8733</name></trkpt>
<trkpt lat="53.209969" lon="-1.757125"><ele>308</ele><time>2020-01-31T12:50:39Z</time><name>PT8734</name></trkpt>
<trkpt lat="53.209967" lon="-1.757108"><ele>309</ele><time>2020-01-31T12:50:39Z</time><name>PT8735</name></trkpt>
<trkpt lat="53.209963" lon="-1.757094"><ele>309</ele><time>2020-01-31T12:50:40Z</time><name>PT8736</name></trkpt>
<trkpt lat="53.209963" lon="-1.757081"><ele>309</ele><time>2020-01-31T12:50:42Z</time><name>PT8737</name></trkpt>
<trkpt lat="53.209958" lon="-1.757063"><ele>309</ele><time>2020-01-31T12:50:42Z</time><name>PT8738</name></trkpt>
<trkpt lat="53.209951" lon="-1.757045"><ele>309</ele><time>2020-01-31T12:50:43Z</time><name>PT8739</name></trkpt>
<trkpt lat="53.209948" lon="-1.757036"><ele>310</ele><time>2020-01-31T12:50:45Z</time><name>PT8740</name></trkpt>
<trkpt lat="53.209947" lon="-1.757030"><ele>310</ele><time>2020-01-31T12:50:45Z</time><name>PT8741</name></trkpt>
<trkpt lat="53.209946" lon="-1.757028"><ele>310</ele><time>2020-01-31T12:50:46Z</time><name>PT8742</name></trkpt>
<trkpt lat="53.209946" lon="-1.757028"><ele>311</ele><time>2020-01-31T12:50:48Z</time><name>PT8743</name></trkpt>
<trkpt lat="53.209944" lon="-1.757026"><ele>311</ele><time>2020-01-31T12:50:48Z</time><name>PT8744</name></trkpt>
<trkpt lat="53.209944" lon="-1.757022"><ele>311</ele><time>2020-01-31T12:50:49Z</time><name>PT8745</name></trkpt>
<trkpt lat="53.209942" lon="-1.757023"><ele>311</ele><time>2020-01-31T12:50:51Z</time><name>PT8746</name></trkpt>
<trkpt lat="53.209938" lon="-1.757024"><ele>311</ele><time>2020-01-31T12:50:51Z</time><name>PT8747</name></trkpt>
<trkpt lat="53.209937" lon="-1.757025"><ele>310</ele><time>2020-01-31T12:50:52Z</time><name>PT8748</name></trkpt>
<trkpt lat="53.209938" lon="-1.757025"><ele>310</ele><time>2020-01-31T12:50:54Z</time><name>PT8749</name></trkpt>
<trkpt lat="53.209937" lon="-1.757025"><ele>310</ele><time>2020-01-31T12:50:54Z</time><name>PT8750</name></trkpt>
<trkpt lat="53.209936" lon="-1.757031"><ele>311</ele><time>2020-01-31T12:50:55Z</time><name>PT8751</name></trkpt>
<trkpt lat="53.209936" lon="-1.757031"><ele>310</ele><time>2020-01-31T12:50:57Z</time><name>PT8752</name></trkpt>
<trkpt lat="53.209938" lon="-1.757029"><ele>310</ele><time>2020-01-31T12:50:57Z</time><name>PT8753</name></trkpt>
<trkpt lat="53.209936" lon="-1.757030"><ele>310</ele><time>2020-01-31T12:50:58Z</time><name>PT8754</name></trkpt>
<trkpt lat="53.209931" lon="-1.757035"><ele>310</ele><time>2020-01-31T12:51:00Z</time><name>PT8755</name></trkpt>
<trkpt lat="53.209928" lon="-1.757037"><ele>310</ele><time>2020-01-31T12:51:00Z</time><name>PT8756</name></trkpt>
<trkpt lat="53.209926" lon="-1.757041"><ele>310</ele><time>2020-01-31T12:51:01Z</time><name>PT8757</name></trkpt>
<trkpt lat="53.209928" lon="-1.757034"><ele>311</ele><time>2020-01-31T12:51:03Z</time><name>PT8758</name></trkpt>
<trkpt lat="53.209929" lon="-1.757029"><ele>311</ele><time>2020-01-31T12:51:03Z</time><name>PT8759</name></trkpt>
<trkpt lat="53.209928" lon="-1.757031"><ele>312</ele><time>2020-01-31T12:51:04Z</time><name>PT8760</name></trkpt>
<trkpt lat="53.209927" lon="-1.757030"><ele>311</ele><time>2020-01-31T12:51:06Z</time><name>PT8761</name></trkpt>
<trkpt lat="53.209923" lon="-1.757029"><ele>311</ele><time>2020-01-31T12:51:06Z</time><name>PT8762</name></trkpt>
<trkpt lat="53.209921" lon="-1.757031"><ele>311</ele><time>2020-01-31T12:51:07Z</time><name>PT8763</name></trkpt>
<trkpt lat="53.209923" lon="-1.757033"><ele>311</ele><time>2020-01-31T12:51:09Z</time><name>PT8764</name></trkpt>
<trkpt lat="53.209921" lon="-1.757038"><ele>311</ele><time>2020-01-31T12:51:09Z</time><name>PT8765</name></trkpt>
<trkpt lat="53.209918" lon="-1.757043"><ele>311</ele><time>2020-01-31T12:51:10Z</time><name>PT8766</name></trkpt>
<trkpt lat="53.209913" lon="-1.757053"><ele>311</ele><time>2020-01-31T12:51:12Z</time><name>PT8767</name></trkpt>
<trkpt lat="53.209910" lon="-1.757057"><ele>311</ele><time>2020-01-31T12:51:12Z</time><name>PT8768</name></trkpt>
<trkpt lat="53.209908" lon="-1.757060"><ele>310</ele><time>2020-01-31T12:51:13Z</time><name>PT8769</name></trkpt>
<trkpt lat="53.209908" lon="-1.757063"><ele>310</ele><time>2020-01-31T12:51:15Z</time><name>PT8770</name></trkpt>
<trkpt lat="53.209911" lon="-1.757066"><ele>311</ele><time>2020-01-31T12:51:15Z</time><name>PT8771</name></trkpt>
<trkpt lat="53.209911" lon="-1.757066"><ele>311</ele><time>2020-01-31T12:51:16Z</time><name>PT8772</name></trkpt>
<trkpt lat="53.209911" lon="-1.757062"><ele>311</ele><time>2020-01-31T12:51:18Z</time><name>PT8773</name></trkpt>
<trkpt lat="53.209909" lon="-1.757061"><ele>311</ele><time>2020-01-31T12:51:18Z</time><name>PT8774</name></trkpt>
<trkpt lat="53.209911" lon="-1.757054"><ele>311</ele><time>2020-01-31T12:51:19Z</time><name>PT8775</name></trkpt>
<trkpt lat="53.209911" lon="-1.757050"><ele>312</ele><time>2020-01-31T12:51:21Z</time><name>PT8776</name></trkpt>
<trkpt lat="53.209909" lon="-1.757047"><ele>311</ele><time>2020-01-31T12:51:21Z</time><name>PT8777</name></trkpt>
<trkpt lat="53.209908" lon="-1.757046"><ele>312</ele><time>2020-01-31T12:51:22Z</time><name>PT8778</name></trkpt>
<trkpt lat="53.209905" lon="-1.757048"><ele>311</ele><time>2020-01-31T12:51:34Z</time><name>PT8779</name></trkpt>
<trkpt lat="53.209908" lon="-1.757043"><ele>311</ele><time>2020-01-31T12:51:36Z</time><name>PT8780</name></trkpt>
<trkpt lat="53.209906" lon="-1.757047"><ele>312</ele><time>2020-01-31T12:51:36Z</time><name>PT8781</name></trkpt>
<trkpt lat="53.209906" lon="-1.757040"><ele>311</ele><time>2020-01-31T12:51:40Z</time><name>PT8782</name></trkpt>
<trkpt lat="53.209904" lon="-1.757035"><ele>311</ele><time>2020-01-31T12:51:42Z</time><name>PT8783</name></trkpt>
<trkpt lat="53.209904" lon="-1.757045"><ele>311</ele><time>2020-01-31T12:51:42Z</time><name>PT8784</name></trkpt>
<trkpt lat="53.209906" lon="-1.757044"><ele>311</ele><time>2020-01-31T12:51:45Z</time><name>PT8785</name></trkpt>
<trkpt lat="53.209911" lon="-1.757047"><ele>310</ele><time>2020-01-31T12:51:45Z</time><name>PT8786</name></trkpt>
<trkpt lat="53.209916" lon="-1.757052"><ele>311</ele><time>2020-01-31T12:51:46Z</time><name>PT8787</name></trkpt>
<trkpt lat="53.209919" lon="-1.757050"><ele>311</ele><time>2020-01-31T12:51:48Z</time><name>PT8788</name></trkpt>
<trkpt lat="53.209915" lon="-1.757056"><ele>311</ele><time>2020-01-31T12:51:48Z</time><name>PT8789</name></trkpt>
<trkpt lat="53.209921" lon="-1.757056"><ele>311</ele><time>2020-01-31T12:51:49Z</time><name>PT8790</name></trkpt>
<trkpt lat="53.209924" lon="-1.757043"><ele>311</ele><time>2020-01-31T12:51:51Z</time><name>PT8791</name></trkpt>
<trkpt lat="53.209924" lon="-1.757038"><ele>311</ele><time>2020-01-31T12:51:51Z</time><name>PT8792</name></trkpt>
<trkpt lat="53.209923" lon="-1.757037"><ele>311</ele><time>2020-01-31T12:51:52Z</time><name>PT8793</name></trkpt>
<trkpt lat="53.209919" lon="-1.757036"><ele>312</ele><time>2020-01-31T12:51:54Z</time><name>PT8794</name></trkpt>
<trkpt lat="53.209918" lon="-1.757034"><ele>310</ele><time>2020-01-31T12:51:54Z</time><name>PT8795</name></trkpt>
<trkpt lat="53.209925" lon="-1.757015"><ele>309</ele><time>2020-01-31T12:51:55Z</time><name>PT8796</name></trkpt>
<trkpt lat="53.209932" lon="-1.757000"><ele>309</ele><time>2020-01-31T12:51:57Z</time><name>PT8797</name></trkpt>
<trkpt lat="53.209936" lon="-1.756997"><ele>309</ele><time>2020-01-31T12:51:57Z</time><name>PT8798</name></trkpt>
<trkpt lat="53.209946" lon="-1.756990"><ele>309</ele><time>2020-01-31T12:51:58Z</time><name>PT8799</name></trkpt>
<trkpt lat="53.209958" lon="-1.756978"><ele>309</ele><time>2020-01-31T12:52:00Z</time><name>PT8800</name></trkpt>
<trkpt lat="53.209971" lon="-1.756971"><ele>309</ele><time>2020-01-31T12:52:00Z</time><name>PT8801</name></trkpt>
<trkpt lat="53.209979" lon="-1.756968"><ele>310</ele><time>2020-01-31T12:52:01Z</time><name>PT8802</name></trkpt>
<trkpt lat="53.209983" lon="-1.756965"><ele>310</ele><time>2020-01-31T12:52:03Z</time><name>PT8803</name></trkpt>
<trkpt lat="53.209986" lon="-1.756964"><ele>310</ele><time>2020-01-31T12:52:03Z</time><name>PT8804</name></trkpt>
<trkpt lat="53.209994" lon="-1.756951"><ele>309</ele><time>2020-01-31T12:52:04Z</time><name>PT8805</name></trkpt>
<trkpt lat="53.210004" lon="-1.756934"><ele>309</ele><time>2020-01-31T12:52:06Z</time><name>PT8806</name></trkpt>
<trkpt lat="53.210010" lon="-1.756920"><ele>309</ele><time>2020-01-31T12:52:06Z</time><name>PT8807</name></trkpt>
<trkpt lat="53.210014" lon="-1.756917"><ele>309</ele><time>2020-01-31T12:52:07Z</time><name>PT8808</name></trkpt>
<trkpt lat="53.210019" lon="-1.756912"><ele>309</ele><time>2020-01-31T12:52:09Z</time><name>PT8809</name></trkpt>
<trkpt lat="53.210029" lon="-1.756902"><ele>309</ele><time>2020-01-31T12:52:09Z</time><name>PT8810</name></trkpt>
<trkpt lat="53.210037" lon="-1.756893"><ele>308</ele><time>2020-01-31T12:52:11Z</time><name>PT8811</name></trkpt>
<trkpt lat="53.210042" lon="-1.756890"><ele>309</ele><time>2020-01-31T12:52:12Z</time><name>PT8812</name></trkpt>
<trkpt lat="53.210049" lon="-1.756887"><ele>309</ele><time>2020-01-31T12:52:12Z</time><name>PT8813</name></trkpt>
<trkpt lat="53.210062" lon="-1.756879"><ele>309</ele><time>2020-01-31T12:52:13Z</time><name>PT8814</name></trkpt>
<trkpt lat="53.210075" lon="-1.756866"><ele>309</ele><time>2020-01-31T12:52:15Z</time><name>PT8815</name></trkpt>
<trkpt lat="53.210083" lon="-1.756856"><ele>309</ele><time>2020-01-31T12:52:15Z</time><name>PT8816</name></trkpt>
<trkpt lat="53.210090" lon="-1.756849"><ele>309</ele><time>2020-01-31T12:52:16Z</time><name>PT8817</name></trkpt>
<trkpt lat="53.210095" lon="-1.756847"><ele>309</ele><time>2020-01-31T12:52:18Z</time><name>PT8818</name></trkpt>
<trkpt lat="53.210102" lon="-1.756840"><ele>309</ele><time>2020-01-31T12:52:18Z</time><name>PT8819</name></trkpt>
<trkpt lat="53.210113" lon="-1.756825"><ele>310</ele><time>2020-01-31T12:52:19Z</time><name>PT8820</name></trkpt>
<trkpt lat="53.210124" lon="-1.756814"><ele>310</ele><time>2020-01-31T12:52:21Z</time><name>PT8821</name></trkpt>
<trkpt lat="53.210133" lon="-1.756804"><ele>310</ele><time>2020-01-31T12:52:21Z</time><name>PT8822</name></trkpt>
<trkpt lat="53.210140" lon="-1.756792"><ele>310</ele><time>2020-01-31T12:52:22Z</time><name>PT8823</name></trkpt>
<trkpt lat="53.210145" lon="-1.756782"><ele>310</ele><time>2020-01-31T12:52:24Z</time><name>PT8824</name></trkpt>
<trkpt lat="53.210152" lon="-1.756768"><ele>309</ele><time>2020-01-31T12:52:24Z</time><name>PT8825</name></trkpt>
<trkpt lat="53.210163" lon="-1.756756"><ele>308</ele><time>2020-01-31T12:52:25Z</time><name>PT8826</name></trkpt>
<trkpt lat="53.210171" lon="-1.756747"><ele>308</ele><time>2020-01-31T12:52:27Z</time><name>PT8827</name></trkpt>
<trkpt lat="53.210181" lon="-1.756737"><ele>309</ele><time>2020-01-31T12:52:27Z</time><name>PT8828</name></trkpt>
<trkpt lat="53.210192" lon="-1.756732"><ele>309</ele><time>2020-01-31T12:52:28Z</time><name>PT8829</name></trkpt>
<trkpt lat="53.210201" lon="-1.756720"><ele>308</ele><time>2020-01-31T12:52:30Z</time><name>PT8830</name></trkpt>
<trkpt lat="53.210206" lon="-1.756707"><ele>308</ele><time>2020-01-31T12:52:30Z</time><name>PT8831</name></trkpt>
<trkpt lat="53.210209" lon="-1.756701"><ele>309</ele><time>2020-01-31T12:52:31Z</time><name>PT8832</name></trkpt>
<trkpt lat="53.210213" lon="-1.756699"><ele>308</ele><time>2020-01-31T12:52:33Z</time><name>PT8833</name></trkpt>
<trkpt lat="53.210221" lon="-1.756686"><ele>308</ele><time>2020-01-31T12:52:33Z</time><name>PT8834</name></trkpt>
<trkpt lat="53.210236" lon="-1.756666"><ele>309</ele><time>2020-01-31T12:52:35Z</time><name>PT8835</name></trkpt>
<trkpt lat="53.210249" lon="-1.756653"><ele>309</ele><time>2020-01-31T12:52:36Z</time><name>PT8836</name></trkpt>
<trkpt lat="53.210257" lon="-1.756644"><ele>308</ele><time>2020-01-31T12:52:36Z</time><name>PT8837</name></trkpt>
<trkpt lat="53.210264" lon="-1.756638"><ele>308</ele><time>2020-01-31T12:52:37Z</time><name>PT8838</name></trkpt>
<trkpt lat="53.210272" lon="-1.756630"><ele>308</ele><time>2020-01-31T12:52:39Z</time><name>PT8839</name></trkpt>
<trkpt lat="53.210281" lon="-1.756616"><ele>308</ele><time>2020-01-31T12:52:39Z</time><name>PT8840</name></trkpt>
<trkpt lat="53.210292" lon="-1.756599"><ele>308</ele><time>2020-01-31T12:52:40Z</time><name>PT8841</name></trkpt>
<trkpt lat="53.210299" lon="-1.756590"><ele>308</ele><time>2020-01-31T12:52:42Z</time><name>PT8842</name></trkpt>
<trkpt lat="53.210304" lon="-1.756582"><ele>308</ele><time>2020-01-31T12:52:42Z</time><name>PT8843</name></trkpt>
<trkpt lat="53.210309" lon="-1.756579"><ele>308</ele><time>2020-01-31T12:52:43Z</time><name>PT8844</name></trkpt>
<trkpt lat="53.210316" lon="-1.756572"><ele>308</ele><time>2020-01-31T12:52:45Z</time><name>PT8845</name></trkpt>
<trkpt lat="53.210327" lon="-1.756559"><ele>308</ele><time>2020-01-31T12:52:45Z</time><name>PT8846</name></trkpt>
<trkpt lat="53.210340" lon="-1.756543"><ele>308</ele><time>2020-01-31T12:52:46Z</time><name>PT8847</name></trkpt>
<trkpt lat="53.210351" lon="-1.756530"><ele>307</ele><time>2020-01-31T12:52:48Z</time><name>PT8848</name></trkpt>
<trkpt lat="53.210357" lon="-1.756519"><ele>307</ele><time>2020-01-31T12:52:48Z</time><name>PT8849</name></trkpt>
<trkpt lat="53.210359" lon="-1.756512"><ele>307</ele><time>2020-01-31T12:52:49Z</time><name>PT8850</name></trkpt>
<trkpt lat="53.210366" lon="-1.756504"><ele>306</ele><time>2020-01-31T12:52:51Z</time><name>PT8851</name></trkpt>
<trkpt lat="53.210375" lon="-1.756495"><ele>305</ele><time>2020-01-31T12:52:51Z</time><name>PT8852</name></trkpt>
<trkpt lat="53.210387" lon="-1.756482"><ele>305</ele><time>2020-01-31T12:52:52Z</time><name>PT8853</name></trkpt>
<trkpt lat="53.210397" lon="-1.756465"><ele>306</ele><time>2020-01-31T12:52:54Z</time><name>PT8854</name></trkpt>
<trkpt lat="53.210404" lon="-1.756453"><ele>306</ele><time>2020-01-31T12:52:54Z</time><name>PT8855</name></trkpt>
<trkpt lat="53.210412" lon="-1.756441"><ele>307</ele><time>2020-01-31T12:52:55Z</time><name>PT8856</name></trkpt>
<trkpt lat="53.210428" lon="-1.756424"><ele>309</ele><time>2020-01-31T12:52:57Z</time><name>PT8857</name></trkpt>
<trkpt lat="53.210448" lon="-1.756407"><ele>309</ele><time>2020-01-31T12:52:57Z</time><name>PT8858</name></trkpt>
<trkpt lat="53.210467" lon="-1.756392"><ele>309</ele><time>2020-01-31T12:52:58Z</time><name>PT8859</name></trkpt>
<trkpt lat="53.210475" lon="-1.756381"><ele>309</ele><time>2020-01-31T12:53:00Z</time><name>PT8860</name></trkpt>
<trkpt lat="53.210484" lon="-1.756379"><ele>309</ele><time>2020-01-31T12:53:00Z</time><name>PT8861</name></trkpt>
<trkpt lat="53.210491" lon="-1.756368"><ele>308</ele><time>2020-01-31T12:53:01Z</time><name>PT8862</name></trkpt>
<trkpt lat="53.210503" lon="-1.756355"><ele>308</ele><time>2020-01-31T12:53:03Z</time><name>PT8863</name></trkpt>
<trkpt lat="53.210518" lon="-1.756341"><ele>308</ele><time>2020-01-31T12:53:03Z</time><name>PT8864</name></trkpt>
<trkpt lat="53.210531" lon="-1.756330"><ele>308</ele><time>2020-01-31T12:53:04Z</time><name>PT8865</name></trkpt>
<trkpt lat="53.210539" lon="-1.756321"><ele>307</ele><time>2020-01-31T12:53:06Z</time><name>PT8866</name></trkpt>
<trkpt lat="53.210544" lon="-1.756316"><ele>308</ele><time>2020-01-31T12:53:06Z</time><name>PT8867</name></trkpt>
<trkpt lat="53.210551" lon="-1.756310"><ele>308</ele><time>2020-01-31T12:53:07Z</time><name>PT8868</name></trkpt>
<trkpt lat="53.210564" lon="-1.756297"><ele>307</ele><time>2020-01-31T12:53:09Z</time><name>PT8869</name></trkpt>
<trkpt lat="53.210579" lon="-1.756278"><ele>307</ele><time>2020-01-31T12:53:09Z</time><name>PT8870</name></trkpt>
<trkpt lat="53.210598" lon="-1.756266"><ele>307</ele><time>2020-01-31T12:53:10Z</time><name>PT8871</name></trkpt>
<trkpt lat="53.210613" lon="-1.756257"><ele>307</ele><time>2020-01-31T12:53:12Z</time><name>PT8872</name></trkpt>
<trkpt lat="53.210620" lon="-1.756249"><ele>308</ele><time>2020-01-31T12:53:12Z</time><name>PT8873</name></trkpt>
<trkpt lat="53.210629" lon="-1.756244"><ele>308</ele><time>2020-01-31T12:53:13Z</time><name>PT8874</name></trkpt>
<trkpt lat="53.210639" lon="-1.756234"><ele>308</ele><time>2020-01-31T12:53:15Z</time><name>PT8875</name></trkpt>
<trkpt lat="53.210647" lon="-1.756225"><ele>308</ele><time>2020-01-31T12:53:15Z</time><name>PT8876</name></trkpt>
<trkpt lat="53.210656" lon="-1.756210"><ele>308</ele><time>2020-01-31T12:53:16Z</time><name>PT8877</name></trkpt>
<trkpt lat="53.210665" lon="-1.756193"><ele>308</ele><time>2020-01-31T12:53:18Z</time><name>PT8878</name></trkpt>
<trkpt lat="53.210674" lon="-1.756181"><ele>308</ele><time>2020-01-31T12:53:18Z</time><name>PT8879</name></trkpt>
<trkpt lat="53.210686" lon="-1.756169"><ele>309</ele><time>2020-01-31T12:53:19Z</time><name>PT8880</name></trkpt>
<trkpt lat="53.210697" lon="-1.756157"><ele>309</ele><time>2020-01-31T12:53:21Z</time><name>PT8881</name></trkpt>
<trkpt lat="53.210710" lon="-1.756146"><ele>310</ele><time>2020-01-31T12:53:21Z</time><name>PT8882</name></trkpt>
<trkpt lat="53.210723" lon="-1.756128"><ele>310</ele><time>2020-01-31T12:53:22Z</time><name>PT8883</name></trkpt>
<trkpt lat="53.210734" lon="-1.756113"><ele>310</ele><time>2020-01-31T12:53:24Z</time><name>PT8884</name></trkpt>
<trkpt lat="53.210741" lon="-1.756102"><ele>310</ele><time>2020-01-31T12:53:24Z</time><name>PT8885</name></trkpt>
<trkpt lat="53.210745" lon="-1.756091"><ele>310</ele><time>2020-01-31T12:53:25Z</time><name>PT8886</name></trkpt>
<trkpt lat="53.210752" lon="-1.756082"><ele>310</ele><time>2020-01-31T12:53:27Z</time><name>PT8887</name></trkpt>
<trkpt lat="53.210763" lon="-1.756066"><ele>310</ele><time>2020-01-31T12:53:27Z</time><name>PT8888</name></trkpt>
<trkpt lat="53.210776" lon="-1.756047"><ele>310</ele><time>2020-01-31T12:53:28Z</time><name>PT8889</name></trkpt>
<trkpt lat="53.210788" lon="-1.756033"><ele>310</ele><time>2020-01-31T12:53:30Z</time><name>PT8890</name></trkpt>
<trkpt lat="53.210796" lon="-1.756023"><ele>310</ele><time>2020-01-31T12:53:30Z</time><name>PT8891</name></trkpt>
<trkpt lat="53.210802" lon="-1.756020"><ele>311</ele><time>2020-01-31T12:53:31Z</time><name>PT8892</name></trkpt>
<trkpt lat="53.210811" lon="-1.756012"><ele>311</ele><time>2020-01-31T12:53:33Z</time><name>PT8893</name></trkpt>
<trkpt lat="53.210821" lon="-1.756000"><ele>312</ele><time>2020-01-31T12:53:33Z</time><name>PT8894</name></trkpt>
<trkpt lat="53.210832" lon="-1.755999"><ele>312</ele><time>2020-01-31T12:53:34Z</time><name>PT8895</name></trkpt>
<trkpt lat="53.210839" lon="-1.755993"><ele>311</ele><time>2020-01-31T12:53:36Z</time><name>PT8896</name></trkpt>
<trkpt lat="53.210841" lon="-1.755990"><ele>311</ele><time>2020-01-31T12:53:36Z</time><name>PT8897</name></trkpt>
<trkpt lat="53.210847" lon="-1.755987"><ele>311</ele><time>2020-01-31T12:53:37Z</time><name>PT8898</name></trkpt>
<trkpt lat="53.210858" lon="-1.755976"><ele>311</ele><time>2020-01-31T12:53:39Z</time><name>PT8899</name></trkpt>
<trkpt lat="53.210871" lon="-1.755961"><ele>311</ele><time>2020-01-31T12:53:39Z</time><name>PT8900</name></trkpt>
<trkpt lat="53.210882" lon="-1.755952"><ele>311</ele><time>2020-01-31T12:53:40Z</time><name>PT8901</name></trkpt>
<trkpt lat="53.210888" lon="-1.755944"><ele>311</ele><time>2020-01-31T12:53:42Z</time><name>PT8902</name></trkpt>
<trkpt lat="53.210896" lon="-1.755937"><ele>310</ele><time>2020-01-31T12:53:42Z</time><name>PT8903</name></trkpt>
<trkpt lat="53.210905" lon="-1.755923"><ele>310</ele><time>2020-01-31T12:53:43Z</time><name>PT8904</name></trkpt>
<trkpt lat="53.210918" lon="-1.755907"><ele>311</ele><time>2020-01-31T12:53:45Z</time><name>PT8905</name></trkpt>
<trkpt lat="53.210930" lon="-1.755893"><ele>311</ele><time>2020-01-31T12:53:45Z</time><name>PT8906</name></trkpt>
<trkpt lat="53.210937" lon="-1.755881"><ele>310</ele><time>2020-01-31T12:53:46Z</time><name>PT8907</name></trkpt>
<trkpt lat="53.210945" lon="-1.755874"><ele>310</ele><time>2020-01-31T12:53:48Z</time><name>PT8908</name></trkpt>
<trkpt lat="53.210955" lon="-1.755865"><ele>311</ele><time>2020-01-31T12:53:48Z</time><name>PT8909</name></trkpt>
<trkpt lat="53.210967" lon="-1.755851"><ele>310</ele><time>2020-01-31T12:53:49Z</time><name>PT8910</name></trkpt>
<trkpt lat="53.210976" lon="-1.755836"><ele>310</ele><time>2020-01-31T12:53:51Z</time><name>PT8911</name></trkpt>
<trkpt lat="53.210986" lon="-1.755825"><ele>310</ele><time>2020-01-31T12:53:51Z</time><name>PT8912</name></trkpt>
<trkpt lat="53.210997" lon="-1.755815"><ele>311</ele><time>2020-01-31T12:53:52Z</time><name>PT8913</name></trkpt>
<trkpt lat="53.211008" lon="-1.755799"><ele>310</ele><time>2020-01-31T12:53:54Z</time><name>PT8914</name></trkpt>
<trkpt lat="53.211018" lon="-1.755786"><ele>309</ele><time>2020-01-31T12:53:54Z</time><name>PT8915</name></trkpt>
<trkpt lat="53.211030" lon="-1.755774"><ele>309</ele><time>2020-01-31T12:53:55Z</time><name>PT8916</name></trkpt>
<trkpt lat="53.211040" lon="-1.755765"><ele>310</ele><time>2020-01-31T12:53:57Z</time><name>PT8917</name></trkpt>
<trkpt lat="53.211048" lon="-1.755755"><ele>310</ele><time>2020-01-31T12:53:57Z</time><name>PT8918</name></trkpt>
<trkpt lat="53.211061" lon="-1.755745"><ele>309</ele><time>2020-01-31T12:53:58Z</time><name>PT8919</name></trkpt>
<trkpt lat="53.211076" lon="-1.755726"><ele>309</ele><time>2020-01-31T12:54:00Z</time><name>PT8920</name></trkpt>
<trkpt lat="53.211088" lon="-1.755706"><ele>309</ele><time>2020-01-31T12:54:00Z</time><name>PT8921</name></trkpt>
<trkpt lat="53.211097" lon="-1.755696"><ele>309</ele><time>2020-01-31T12:54:01Z</time><name>PT8922</name></trkpt>
<trkpt lat="53.211104" lon="-1.755690"><ele>310</ele><time>2020-01-31T12:54:03Z</time><name>PT8923</name></trkpt>
<trkpt lat="53.211112" lon="-1.755676"><ele>310</ele><time>2020-01-31T12:54:03Z</time><name>PT8924</name></trkpt>
<trkpt lat="53.211127" lon="-1.755657"><ele>311</ele><time>2020-01-31T12:54:04Z</time><name>PT8925</name></trkpt>
<trkpt lat="53.211141" lon="-1.755640"><ele>311</ele><time>2020-01-31T12:54:06Z</time><name>PT8926</name></trkpt>
<trkpt lat="53.211152" lon="-1.755627"><ele>311</ele><time>2020-01-31T12:54:06Z</time><name>PT8927</name></trkpt>
<trkpt lat="53.211158" lon="-1.755619"><ele>311</ele><time>2020-01-31T12:54:07Z</time><name>PT8928</name></trkpt>
<trkpt lat="53.211165" lon="-1.755613"><ele>311</ele><time>2020-01-31T12:54:09Z</time><name>PT8929</name></trkpt>
<trkpt lat="53.211176" lon="-1.755603"><ele>312</ele><time>2020-01-31T12:54:09Z</time><name>PT8930</name></trkpt>
<trkpt lat="53.211191" lon="-1.755598"><ele>312</ele><time>2020-01-31T12:54:10Z</time><name>PT8931</name></trkpt>
<trkpt lat="53.211200" lon="-1.755591"><ele>312</ele><time>2020-01-31T12:54:12Z</time><name>PT8932</name></trkpt>
<trkpt lat="53.211210" lon="-1.755580"><ele>312</ele><time>2020-01-31T12:54:12Z</time><name>PT8933</name></trkpt>
<trkpt lat="53.211220" lon="-1.755570"><ele>312</ele><time>2020-01-31T12:54:13Z</time><name>PT8934</name></trkpt>
<trkpt lat="53.211228" lon="-1.755557"><ele>312</ele><time>2020-01-31T12:54:15Z</time><name>PT8935</name></trkpt>
<trkpt lat="53.211238" lon="-1.755544"><ele>312</ele><time>2020-01-31T12:54:15Z</time><name>PT8936</name></trkpt>
<trkpt lat="53.211246" lon="-1.755533"><ele>312</ele><time>2020-01-31T12:54:16Z</time><name>PT8937</name></trkpt>
<trkpt lat="53.211254" lon="-1.755526"><ele>312</ele><time>2020-01-31T12:54:18Z</time><name>PT8938</name></trkpt>
<trkpt lat="53.211262" lon="-1.755519"><ele>312</ele><time>2020-01-31T12:54:18Z</time><name>PT8939</name></trkpt>
<trkpt lat="53.211270" lon="-1.755506"><ele>312</ele><time>2020-01-31T12:54:19Z</time><name>PT8940</name></trkpt>
<trkpt lat="53.211277" lon="-1.755493"><ele>311</ele><time>2020-01-31T12:54:21Z</time><name>PT8941</name></trkpt>
<trkpt lat="53.211287" lon="-1.755483"><ele>311</ele><time>2020-01-31T12:54:21Z</time><name>PT8942</name></trkpt>
<trkpt lat="53.211296" lon="-1.755479"><ele>311</ele><time>2020-01-31T12:54:22Z</time><name>PT8943</name></trkpt>
<trkpt lat="53.211307" lon="-1.755473"><ele>310</ele><time>2020-01-31T12:54:24Z</time><name>PT8944</name></trkpt>
<trkpt lat="53.211320" lon="-1.755458"><ele>311</ele><time>2020-01-31T12:54:24Z</time><name>PT8945</name></trkpt>
<trkpt lat="53.211331" lon="-1.755448"><ele>311</ele><time>2020-01-31T12:54:25Z</time><name>PT8946</name></trkpt>
<trkpt lat="53.211339" lon="-1.755436"><ele>312</ele><time>2020-01-31T12:54:27Z</time><name>PT8947</name></trkpt>
<trkpt lat="53.211350" lon="-1.755428"><ele>312</ele><time>2020-01-31T12:54:27Z</time><name>PT8948</name></trkpt>
<trkpt lat="53.211362" lon="-1.755407"><ele>312</ele><time>2020-01-31T12:54:28Z</time><name>PT8949</name></trkpt>
<trkpt lat="53.211373" lon="-1.755393"><ele>312</ele><time>2020-01-31T12:54:30Z</time><name>PT8950</name></trkpt>
<trkpt lat="53.211379" lon="-1.755383"><ele>311</ele><time>2020-01-31T12:54:30Z</time><name>PT8951</name></trkpt>
<trkpt lat="53.211384" lon="-1.755375"><ele>311</ele><time>2020-01-31T12:54:31Z</time><name>PT8952</name></trkpt>
<trkpt lat="53.211388" lon="-1.755365"><ele>311</ele><time>2020-01-31T12:54:33Z</time><name>PT8953</name></trkpt>
<trkpt lat="53.211395" lon="-1.755356"><ele>311</ele><time>2020-01-31T12:54:33Z</time><name>PT8954</name></trkpt>
<trkpt lat="53.211400" lon="-1.755348"><ele>311</ele><time>2020-01-31T12:54:34Z</time><name>PT8955</name></trkpt>
<trkpt lat="53.211402" lon="-1.755343"><ele>311</ele><time>2020-01-31T12:54:36Z</time><name>PT8956</name></trkpt>
<trkpt lat="53.211404" lon="-1.755341"><ele>311</ele><time>2020-01-31T12:54:36Z</time><name>PT8957</name></trkpt>
<trkpt lat="53.211405" lon="-1.755336"><ele>310</ele><time>2020-01-31T12:54:37Z</time><name>PT8958</name></trkpt>
<trkpt lat="53.211408" lon="-1.755336"><ele>311</ele><time>2020-01-31T12:54:39Z</time><name>PT8959</name></trkpt>
<trkpt lat="53.211408" lon="-1.755342"><ele>311</ele><time>2020-01-31T12:54:39Z</time><name>PT8960</name></trkpt>
<trkpt lat="53.211413" lon="-1.755346"><ele>311</ele><time>2020-01-31T12:54:41Z</time><name>PT8961</name></trkpt>
<trkpt lat="53.211419" lon="-1.755340"><ele>311</ele><time>2020-01-31T12:54:42Z</time><name>PT8962</name></trkpt>
<trkpt lat="53.211427" lon="-1.755326"><ele>312</ele><time>2020-01-31T12:54:42Z</time><name>PT8963</name></trkpt>
<trkpt lat="53.211431" lon="-1.755323"><ele>313</ele><time>2020-01-31T12:54:43Z</time><name>PT8964</name></trkpt>
<trkpt lat="53.211439" lon="-1.755316"><ele>313</ele><time>2020-01-31T12:54:45Z</time><name>PT8965</name></trkpt>
<trkpt lat="53.211442" lon="-1.755306"><ele>314</ele><time>2020-01-31T12:54:45Z</time><name>PT8966</name></trkpt>
<trkpt lat="53.211442" lon="-1.755298"><ele>313</ele><time>2020-01-31T12:54:46Z</time><name>PT8967</name></trkpt>
<trkpt lat="53.211444" lon="-1.755288"><ele>314</ele><time>2020-01-31T12:54:48Z</time><name>PT8968</name></trkpt>
<trkpt lat="53.211441" lon="-1.755281"><ele>313</ele><time>2020-01-31T12:54:48Z</time><name>PT8969</name></trkpt>
<trkpt lat="53.211439" lon="-1.755271"><ele>313</ele><time>2020-01-31T12:54:49Z</time><name>PT8970</name></trkpt>
<trkpt lat="53.211435" lon="-1.755257"><ele>313</ele><time>2020-01-31T12:54:51Z</time><name>PT8971</name></trkpt>
<trkpt lat="53.211432" lon="-1.755245"><ele>313</ele><time>2020-01-31T12:54:51Z</time><name>PT8972</name></trkpt>
<trkpt lat="53.211428" lon="-1.755232"><ele>313</ele><time>2020-01-31T12:54:52Z</time><name>PT8973</name></trkpt>
<trkpt lat="53.211423" lon="-1.755217"><ele>313</ele><time>2020-01-31T12:54:54Z</time><name>PT8974</name></trkpt>
<trkpt lat="53.211420" lon="-1.755199"><ele>313</ele><time>2020-01-31T12:54:54Z</time><name>PT8975</name></trkpt>
<trkpt lat="53.211415" lon="-1.755184"><ele>313</ele><time>2020-01-31T12:54:55Z</time><name>PT8976</name></trkpt>
<trkpt lat="53.211414" lon="-1.755176"><ele>313</ele><time>2020-01-31T12:54:57Z</time><name>PT8977</name></trkpt>
<trkpt lat="53.211411" lon="-1.755157"><ele>313</ele><time>2020-01-31T12:54:57Z</time><name>PT8978</name></trkpt>
<trkpt lat="53.211407" lon="-1.755137"><ele>312</ele><time>2020-01-31T12:54:58Z</time><name>PT8979</name></trkpt>
<trkpt lat="53.211405" lon="-1.755124"><ele>312</ele><time>2020-01-31T12:55:00Z</time><name>PT8980</name></trkpt>
<trkpt lat="53.211401" lon="-1.755111"><ele>312</ele><time>2020-01-31T12:55:00Z</time><name>PT8981</name></trkpt>
<trkpt lat="53.211399" lon="-1.755101"><ele>312</ele><time>2020-01-31T12:55:01Z</time><name>PT8982</name></trkpt>
<trkpt lat="53.211395" lon="-1.755093"><ele>312</ele><time>2020-01-31T12:55:03Z</time><name>PT8983</name></trkpt>
<trkpt lat="53.211390" lon="-1.755082"><ele>312</ele><time>2020-01-31T12:55:03Z</time><name>PT8984</name></trkpt>
<trkpt lat="53.211385" lon="-1.755071"><ele>312</ele><time>2020-01-31T12:55:04Z</time><name>PT8985</name></trkpt>
<trkpt lat="53.211386" lon="-1.755059"><ele>312</ele><time>2020-01-31T12:55:06Z</time><name>PT8986</name></trkpt>
<trkpt lat="53.211384" lon="-1.755046"><ele>312</ele><time>2020-01-31T12:55:06Z</time><name>PT8987</name></trkpt>
<trkpt lat="53.211379" lon="-1.755026"><ele>312</ele><time>2020-01-31T12:55:07Z</time><name>PT8988</name></trkpt>
<trkpt lat="53.211376" lon="-1.755005"><ele>312</ele><time>2020-01-31T12:55:09Z</time><name>PT8989</name></trkpt>
<trkpt lat="53.211372" lon="-1.754991"><ele>312</ele><time>2020-01-31T12:55:09Z</time><name>PT8990</name></trkpt>
<trkpt lat="53.211368" lon="-1.754979"><ele>312</ele><time>2020-01-31T12:55:10Z</time><name>PT8991</name></trkpt>
<trkpt lat="53.211364" lon="-1.754960"><ele>312</ele><time>2020-01-31T12:55:12Z</time><name>PT8992</name></trkpt>
<trkpt lat="53.211358" lon="-1.754936"><ele>312</ele><time>2020-01-31T12:55:12Z</time><name>PT8993</name></trkpt>
<trkpt lat="53.211354" lon="-1.754916"><ele>312</ele><time>2020-01-31T12:55:13Z</time><name>PT8994</name></trkpt>
<trkpt lat="53.211353" lon="-1.754898"><ele>311</ele><time>2020-01-31T12:55:15Z</time><name>PT8995</name></trkpt>
<trkpt lat="53.211349" lon="-1.754882"><ele>311</ele><time>2020-01-31T12:55:15Z</time><name>PT8996</name></trkpt>
<trkpt lat="53.211347" lon="-1.754868"><ele>311</ele><time>2020-01-31T12:55:16Z</time><name>PT8997</name></trkpt>
<trkpt lat="53.211342" lon="-1.754849"><ele>311</ele><time>2020-01-31T12:55:18Z</time><name>PT8998</name></trkpt>
<trkpt lat="53.211339" lon="-1.754824"><ele>312</ele><time>2020-01-31T12:55:18Z</time><name>PT8999</name></trkpt>
<trkpt lat="53.211336" lon="-1.754798"><ele>311</ele><time>2020-01-31T12:55:19Z</time><name>PT9000</name></trkpt>
<trkpt lat="53.211333" lon="-1.754777"><ele>311</ele><time>2020-01-31T12:55:21Z</time><name>PT9001</name></trkpt>
<trkpt lat="53.211329" lon="-1.754761"><ele>312</ele><time>2020-01-31T12:55:21Z</time><name>PT9002</name></trkpt>
<trkpt lat="53.211325" lon="-1.754748"><ele>311</ele><time>2020-01-31T12:55:22Z</time><name>PT9003</name></trkpt>
<trkpt lat="53.211320" lon="-1.754732"><ele>312</ele><time>2020-01-31T12:55:24Z</time><name>PT9004</name></trkpt>
<trkpt lat="53.211316" lon="-1.754710"><ele>312</ele><time>2020-01-31T12:55:24Z</time><name>PT9005</name></trkpt>
<trkpt lat="53.211313" lon="-1.754689"><ele>312</ele><time>2020-01-31T12:55:25Z</time><name>PT9006</name></trkpt>
<trkpt lat="53.211309" lon="-1.754669"><ele>312</ele><time>2020-01-31T12:55:27Z</time><name>PT9007</name></trkpt>
<trkpt lat="53.211307" lon="-1.754651"><ele>312</ele><time>2020-01-31T12:55:27Z</time><name>PT9008</name></trkpt>
<trkpt lat="53.211307" lon="-1.754636"><ele>311</ele><time>2020-01-31T12:55:28Z</time><name>PT9009</name></trkpt>
<trkpt lat="53.211307" lon="-1.754610"><ele>311</ele><time>2020-01-31T12:55:30Z</time><name>PT9010</name></trkpt>
<trkpt lat="53.211302" lon="-1.754591"><ele>311</ele><time>2020-01-31T12:55:30Z</time><name>PT9011</name></trkpt>
<trkpt lat="53.211298" lon="-1.754570"><ele>311</ele><time>2020-01-31T12:55:32Z</time><name>PT9012</name></trkpt>
<trkpt lat="53.211294" lon="-1.754556"><ele>311</ele><time>2020-01-31T12:55:33Z</time><name>PT9013</name></trkpt>
<trkpt lat="53.211290" lon="-1.754541"><ele>311</ele><time>2020-01-31T12:55:33Z</time><name>PT9014</name></trkpt>
<trkpt lat="53.211285" lon="-1.754524"><ele>311</ele><time>2020-01-31T12:55:34Z</time><name>PT9015</name></trkpt>
<trkpt lat="53.211280" lon="-1.754501"><ele>311</ele><time>2020-01-31T12:55:36Z</time><name>PT9016</name></trkpt>
<trkpt lat="53.211276" lon="-1.754475"><ele>311</ele><time>2020-01-31T12:55:36Z</time><name>PT9017</name></trkpt>
<trkpt lat="53.211272" lon="-1.754456"><ele>311</ele><time>2020-01-31T12:55:37Z</time><name>PT9018</name></trkpt>
<trkpt lat="53.211269" lon="-1.754439"><ele>311</ele><time>2020-01-31T12:55:39Z</time><name>PT9019</name></trkpt>
<trkpt lat="53.211265" lon="-1.754424"><ele>311</ele><time>2020-01-31T12:55:39Z</time><name>PT9020</name></trkpt>
<trkpt lat="53.211261" lon="-1.754409"><ele>311</ele><time>2020-01-31T12:55:40Z</time><name>PT9021</name></trkpt>
<trkpt lat="53.211259" lon="-1.754389"><ele>310</ele><time>2020-01-31T12:55:42Z</time><name>PT9022</name></trkpt>
<trkpt lat="53.211255" lon="-1.754364"><ele>310</ele><time>2020-01-31T12:55:42Z</time><name>PT9023</name></trkpt>
<trkpt lat="53.211249" lon="-1.754343"><ele>310</ele><time>2020-01-31T12:55:43Z</time><name>PT9024</name></trkpt>
<trkpt lat="53.211243" lon="-1.754327"><ele>310</ele><time>2020-01-31T12:55:45Z</time><name>PT9025</name></trkpt>
<trkpt lat="53.211238" lon="-1.754315"><ele>310</ele><time>2020-01-31T12:55:45Z</time><name>PT9026</name></trkpt>
<trkpt lat="53.211235" lon="-1.754306"><ele>309</ele><time>2020-01-31T12:55:46Z</time><name>PT9027</name></trkpt>
<trkpt lat="53.211230" lon="-1.754291"><ele>309</ele><time>2020-01-31T12:55:48Z</time><name>PT9028</name></trkpt>
<trkpt lat="53.211224" lon="-1.754266"><ele>309</ele><time>2020-01-31T12:55:48Z</time><name>PT9029</name></trkpt>
<trkpt lat="53.211219" lon="-1.754239"><ele>309</ele><time>2020-01-31T12:55:49Z</time><name>PT9030</name></trkpt>
<trkpt lat="53.211214" lon="-1.754219"><ele>309</ele><time>2020-01-31T12:55:51Z</time><name>PT9031</name></trkpt>
<trkpt lat="53.211208" lon="-1.754206"><ele>308</ele><time>2020-01-31T12:55:51Z</time><name>PT9032</name></trkpt>
<trkpt lat="53.211203" lon="-1.754193"><ele>308</ele><time>2020-01-31T12:55:52Z</time><name>PT9033</name></trkpt>
<trkpt lat="53.211199" lon="-1.754178"><ele>308</ele><time>2020-01-31T12:55:54Z</time><name>PT9034</name></trkpt>
<trkpt lat="53.211196" lon="-1.754154"><ele>309</ele><time>2020-01-31T12:55:54Z</time><name>PT9035</name></trkpt>
<trkpt lat="53.211190" lon="-1.754133"><ele>309</ele><time>2020-01-31T12:55:55Z</time><name>PT9036</name></trkpt>
<trkpt lat="53.211187" lon="-1.754114"><ele>309</ele><time>2020-01-31T12:55:57Z</time><name>PT9037</name></trkpt>
<trkpt lat="53.211183" lon="-1.754095"><ele>309</ele><time>2020-01-31T12:55:57Z</time><name>PT9038</name></trkpt>
<trkpt lat="53.211178" lon="-1.754080"><ele>309</ele><time>2020-01-31T12:55:58Z</time><name>PT9039</name></trkpt>
<trkpt lat="53.211176" lon="-1.754067"><ele>308</ele><time>2020-01-31T12:56:00Z</time><name>PT9040</name></trkpt>
<trkpt lat="53.211169" lon="-1.754049"><ele>308</ele><time>2020-01-31T12:56:00Z</time><name>PT9041</name></trkpt>
<trkpt lat="53.211161" lon="-1.754024"><ele>308</ele><time>2020-01-31T12:56:01Z</time><name>PT9042</name></trkpt>
<trkpt lat="53.211154" lon="-1.754000"><ele>308</ele><time>2020-01-31T12:56:03Z</time><name>PT9043</name></trkpt>
<trkpt lat="53.211149" lon="-1.753978"><ele>308</ele><time>2020-01-31T12:56:03Z</time><name>PT9044</name></trkpt>
<trkpt lat="53.211142" lon="-1.753965"><ele>308</ele><time>2020-01-31T12:56:04Z</time><name>PT9045</name></trkpt>
<trkpt lat="53.211139" lon="-1.753954"><ele>308</ele><time>2020-01-31T12:56:06Z</time><name>PT9046</name></trkpt>
<trkpt lat="53.211133" lon="-1.753941"><ele>308</ele><time>2020-01-31T12:56:06Z</time><name>PT9047</name></trkpt>
<trkpt lat="53.211123" lon="-1.753924"><ele>308</ele><time>2020-01-31T12:56:07Z</time><name>PT9048</name></trkpt>
<trkpt lat="53.211113" lon="-1.753904"><ele>308</ele><time>2020-01-31T12:56:09Z</time><name>PT9049</name></trkpt>
<trkpt lat="53.211105" lon="-1.753886"><ele>308</ele><time>2020-01-31T12:56:09Z</time><name>PT9050</name></trkpt>
<trkpt lat="53.211097" lon="-1.753868"><ele>307</ele><time>2020-01-31T12:56:10Z</time><name>PT9051</name></trkpt>
<trkpt lat="53.211088" lon="-1.753855"><ele>307</ele><time>2020-01-31T12:56:12Z</time><name>PT9052</name></trkpt>
<trkpt lat="53.211077" lon="-1.753844"><ele>308</ele><time>2020-01-31T12:56:12Z</time><name>PT9053</name></trkpt>
<trkpt lat="53.211068" lon="-1.753831"><ele>308</ele><time>2020-01-31T12:56:13Z</time><name>PT9054</name></trkpt>
<trkpt lat="53.211055" lon="-1.753815"><ele>307</ele><time>2020-01-31T12:56:15Z</time><name>PT9055</name></trkpt>
<trkpt lat="53.211042" lon="-1.753794"><ele>307</ele><time>2020-01-31T12:56:15Z</time><name>PT9056</name></trkpt>
<trkpt lat="53.211030" lon="-1.753776"><ele>307</ele><time>2020-01-31T12:56:16Z</time><name>PT9057</name></trkpt>
<trkpt lat="53.211020" lon="-1.753757"><ele>307</ele><time>2020-01-31T12:56:18Z</time><name>PT9058</name></trkpt>
<trkpt lat="53.211011" lon="-1.753741"><ele>307</ele><time>2020-01-31T12:56:18Z</time><name>PT9059</name></trkpt>
<trkpt lat="53.211003" lon="-1.753727"><ele>306</ele><time>2020-01-31T12:56:19Z</time><name>PT9060</name></trkpt>
<trkpt lat="53.210996" lon="-1.753717"><ele>306</ele><time>2020-01-31T12:56:21Z</time><name>PT9061</name></trkpt>
<trkpt lat="53.210988" lon="-1.753703"><ele>306</ele><time>2020-01-31T12:56:21Z</time><name>PT9062</name></trkpt>
<trkpt lat="53.210975" lon="-1.753686"><ele>306</ele><time>2020-01-31T12:56:22Z</time><name>PT9063</name></trkpt>
<trkpt lat="53.210963" lon="-1.753667"><ele>306</ele><time>2020-01-31T12:56:24Z</time><name>PT9064</name></trkpt>
<trkpt lat="53.210952" lon="-1.753652"><ele>306</ele><time>2020-01-31T12:56:24Z</time><name>PT9065</name></trkpt>
<trkpt lat="53.210942" lon="-1.753641"><ele>306</ele><time>2020-01-31T12:56:25Z</time><name>PT9066</name></trkpt>
<trkpt lat="53.210934" lon="-1.753632"><ele>306</ele><time>2020-01-31T12:56:27Z</time><name>PT9067</name></trkpt>
<trkpt lat="53.210928" lon="-1.753620"><ele>306</ele><time>2020-01-31T12:56:27Z</time><name>PT9068</name></trkpt>
<trkpt lat="53.210920" lon="-1.753608"><ele>306</ele><time>2020-01-31T12:56:28Z</time><name>PT9069</name></trkpt>
<trkpt lat="53.210910" lon="-1.753593"><ele>306</ele><time>2020-01-31T12:56:30Z</time><name>PT9070</name></trkpt>
<trkpt lat="53.210901" lon="-1.753579"><ele>306</ele><time>2020-01-31T12:56:30Z</time><name>PT9071</name></trkpt>
<trkpt lat="53.210896" lon="-1.753567"><ele>306</ele><time>2020-01-31T12:56:31Z</time><name>PT9072</name></trkpt>
<trkpt lat="53.210890" lon="-1.753555"><ele>305</ele><time>2020-01-31T12:56:33Z</time><name>PT9073</name></trkpt>
<trkpt lat="53.210882" lon="-1.753545"><ele>305</ele><time>2020-01-31T12:56:33Z</time><name>PT9074</name></trkpt>
<trkpt lat="53.210872" lon="-1.753533"><ele>305</ele><time>2020-01-31T12:56:34Z</time><name>PT9075</name></trkpt>
<trkpt lat="53.210860" lon="-1.753523"><ele>305</ele><time>2020-01-31T12:56:36Z</time><name>PT9076</name></trkpt>
<trkpt lat="53.210850" lon="-1.753507"><ele>305</ele><time>2020-01-31T12:56:36Z</time><name>PT9077</name></trkpt>
<trkpt lat="53.210838" lon="-1.753487"><ele>304</ele><time>2020-01-31T12:56:37Z</time><name>PT9078</name></trkpt>
<trkpt lat="53.210825" lon="-1.753471"><ele>303</ele><time>2020-01-31T12:56:39Z</time><name>PT9079</name></trkpt>
<trkpt lat="53.210815" lon="-1.753459"><ele>303</ele><time>2020-01-31T12:56:39Z</time><name>PT9080</name></trkpt>
<trkpt lat="53.210805" lon="-1.753449"><ele>303</ele><time>2020-01-31T12:56:40Z</time><name>PT9081</name></trkpt>
<trkpt lat="53.210798" lon="-1.753443"><ele>303</ele><time>2020-01-31T12:56:42Z</time><name>PT9082</name></trkpt>
<trkpt lat="53.210791" lon="-1.753436"><ele>303</ele><time>2020-01-31T12:56:42Z</time><name>PT9083</name></trkpt>
<trkpt lat="53.210782" lon="-1.753424"><ele>303</ele><time>2020-01-31T12:56:43Z</time><name>PT9084</name></trkpt>
<trkpt lat="53.210770" lon="-1.753405"><ele>303</ele><time>2020-01-31T12:56:45Z</time><name>PT9085</name></trkpt>
<trkpt lat="53.210757" lon="-1.753380"><ele>304</ele><time>2020-01-31T12:56:45Z</time><name>PT9086</name></trkpt>
<trkpt lat="53.210747" lon="-1.753361"><ele>304</ele><time>2020-01-31T12:56:46Z</time><name>PT9087</name></trkpt>
<trkpt lat="53.210741" lon="-1.753351"><ele>304</ele><time>2020-01-31T12:56:48Z</time><name>PT9088</name></trkpt>
<trkpt lat="53.210733" lon="-1.753338"><ele>304</ele><time>2020-01-31T12:56:48Z</time><name>PT9089</name></trkpt>
<trkpt lat="53.210724" lon="-1.753326"><ele>304</ele><time>2020-01-31T12:56:49Z</time><name>PT9090</name></trkpt>
<trkpt lat="53.210715" lon="-1.753314"><ele>304</ele><time>2020-01-31T12:56:51Z</time><name>PT9091</name></trkpt>
<trkpt lat="53.210705" lon="-1.753302"><ele>304</ele><time>2020-01-31T12:56:51Z</time><name>PT9092</name></trkpt>
<trkpt lat="53.210692" lon="-1.753289"><ele>304</ele><time>2020-01-31T12:56:52Z</time><name>PT9093</name></trkpt>
<trkpt lat="53.210680" lon="-1.753284"><ele>304</ele><time>2020-01-31T12:56:54Z</time><name>PT9094</name></trkpt>
<trkpt lat="53.210672" lon="-1.753270"><ele>304</ele><time>2020-01-31T12:56:54Z</time><name>PT9095</name></trkpt>
<trkpt lat="53.210664" lon="-1.753257"><ele>304</ele><time>2020-01-31T12:56:55Z</time><name>PT9096</name></trkpt>
<trkpt lat="53.210656" lon="-1.753244"><ele>304</ele><time>2020-01-31T12:56:57Z</time><name>PT9097</name></trkpt>
<trkpt lat="53.210646" lon="-1.753236"><ele>304</ele><time>2020-01-31T12:56:57Z</time><name>PT9098</name></trkpt>
<trkpt lat="53.210635" lon="-1.753226"><ele>304</ele><time>2020-01-31T12:56:58Z</time><name>PT9099</name></trkpt>
<trkpt lat="53.210624" lon="-1.753215"><ele>303</ele><time>2020-01-31T12:57:00Z</time><name>PT9100</name></trkpt>
<trkpt lat="53.210614" lon="-1.753200"><ele>303</ele><time>2020-01-31T12:57:00Z</time><name>PT9101</name></trkpt>
<trkpt lat="53.210602" lon="-1.753182"><ele>303</ele><time>2020-01-31T12:57:01Z</time><name>PT9102</name></trkpt>
<trkpt lat="53.210590" lon="-1.753168"><ele>303</ele><time>2020-01-31T12:57:03Z</time><name>PT9103</name></trkpt>
<trkpt lat="53.210580" lon="-1.753152"><ele>303</ele><time>2020-01-31T12:57:03Z</time><name>PT9104</name></trkpt>
<trkpt lat="53.210573" lon="-1.753135"><ele>302</ele><time>2020-01-31T12:57:04Z</time><name>PT9105</name></trkpt>
<trkpt lat="53.210566" lon="-1.753129"><ele>302</ele><time>2020-01-31T12:57:06Z</time><name>PT9106</name></trkpt>
<trkpt lat="53.210556" lon="-1.753119"><ele>303</ele><time>2020-01-31T12:57:06Z</time><name>PT9107</name></trkpt>
<trkpt lat="53.210549" lon="-1.753105"><ele>302</ele><time>2020-01-31T12:57:07Z</time><name>PT9108</name></trkpt>
<trkpt lat="53.210537" lon="-1.753088"><ele>302</ele><time>2020-01-31T12:57:09Z</time><name>PT9109</name></trkpt>
<trkpt lat="53.210523" lon="-1.753070"><ele>302</ele><time>2020-01-31T12:57:09Z</time><name>PT9110</name></trkpt>
<trkpt lat="53.210508" lon="-1.753052"><ele>302</ele><time>2020-01-31T12:57:10Z</time><name>PT9111</name></trkpt>
<trkpt lat="53.210497" lon="-1.753035"><ele>302</ele><time>2020-01-31T12:57:12Z</time><name>PT9112</name></trkpt>
<trkpt lat="53.210493" lon="-1.753029"><ele>301</ele><time>2020-01-31T12:57:12Z</time><name>PT9113</name></trkpt>
<trkpt lat="53.210486" lon="-1.753022"><ele>301</ele><time>2020-01-31T12:57:13Z</time><name>PT9114</name></trkpt>
<trkpt lat="53.210480" lon="-1.753010"><ele>301</ele><time>2020-01-31T12:57:15Z</time><name>PT9115</name></trkpt>
<trkpt lat="53.210470" lon="-1.752995"><ele>301</ele><time>2020-01-31T12:57:15Z</time><name>PT9116</name></trkpt>
<trkpt lat="53.210458" lon="-1.752982"><ele>300</ele><time>2020-01-31T12:57:16Z</time><name>PT9117</name></trkpt>
<trkpt lat="53.210444" lon="-1.752968"><ele>300</ele><time>2020-01-31T12:57:18Z</time><name>PT9118</name></trkpt>
<trkpt lat="53.210434" lon="-1.752953"><ele>300</ele><time>2020-01-31T12:57:18Z</time><name>PT9119</name></trkpt>
<trkpt lat="53.210424" lon="-1.752940"><ele>300</ele><time>2020-01-31T12:57:19Z</time><name>PT9120</name></trkpt>
<trkpt lat="53.210416" lon="-1.752931"><ele>300</ele><time>2020-01-31T12:57:21Z</time><name>PT9121</name></trkpt>
<trkpt lat="53.210410" lon="-1.752920"><ele>299</ele><time>2020-01-31T12:57:21Z</time><name>PT9122</name></trkpt>
<trkpt lat="53.210401" lon="-1.752911"><ele>299</ele><time>2020-01-31T12:57:22Z</time><name>PT9123</name></trkpt>
<trkpt lat="53.210388" lon="-1.752892"><ele>299</ele><time>2020-01-31T12:57:24Z</time><name>PT9124</name></trkpt>
<trkpt lat="53.210375" lon="-1.752875"><ele>299</ele><time>2020-01-31T12:57:24Z</time><name>PT9125</name></trkpt>
<trkpt lat="53.210364" lon="-1.752862"><ele>299</ele><time>2020-01-31T12:57:25Z</time><name>PT9126</name></trkpt>
<trkpt lat="53.210353" lon="-1.752849"><ele>299</ele><time>2020-01-31T12:57:27Z</time><name>PT9127</name></trkpt>
<trkpt lat="53.210342" lon="-1.752840"><ele>299</ele><time>2020-01-31T12:57:27Z</time><name>PT9128</name></trkpt>
<trkpt lat="53.210334" lon="-1.752829"><ele>299</ele><time>2020-01-31T12:57:28Z</time><name>PT9129</name></trkpt>
<trkpt lat="53.210323" lon="-1.752814"><ele>298</ele><time>2020-01-31T12:57:30Z</time><name>PT9130</name></trkpt>
<trkpt lat="53.210306" lon="-1.752800"><ele>299</ele><time>2020-01-31T12:57:30Z</time><name>PT9131</name></trkpt>
<trkpt lat="53.210290" lon="-1.752788"><ele>300</ele><time>2020-01-31T12:57:31Z</time><name>PT9132</name></trkpt>
<trkpt lat="53.210280" lon="-1.752772"><ele>299</ele><time>2020-01-31T12:57:33Z</time><name>PT9133</name></trkpt>
<trkpt lat="53.210270" lon="-1.752758"><ele>300</ele><time>2020-01-31T12:57:33Z</time><name>PT9134</name></trkpt>
<trkpt lat="53.210264" lon="-1.752744"><ele>300</ele><time>2020-01-31T12:57:34Z</time><name>PT9135</name></trkpt>
<trkpt lat="53.210256" lon="-1.752731"><ele>299</ele><time>2020-01-31T12:57:36Z</time><name>PT9136</name></trkpt>
<trkpt lat="53.210246" lon="-1.752715"><ele>299</ele><time>2020-01-31T12:57:36Z</time><name>PT9137</name></trkpt>
<trkpt lat="53.210235" lon="-1.752695"><ele>299</ele><time>2020-01-31T12:57:37Z</time><name>PT9138</name></trkpt>
<trkpt lat="53.210225" lon="-1.752678"><ele>299</ele><time>2020-01-31T12:57:39Z</time><name>PT9139</name></trkpt>
<trkpt lat="53.210215" lon="-1.752665"><ele>299</ele><time>2020-01-31T12:57:39Z</time><name>PT9140</name></trkpt>
<trkpt lat="53.210206" lon="-1.752655"><ele>298</ele><time>2020-01-31T12:57:40Z</time><name>PT9141</name></trkpt>
<trkpt lat="53.210198" lon="-1.752644"><ele>298</ele><time>2020-01-31T12:57:42Z</time><name>PT9142</name></trkpt>
<trkpt lat="53.210188" lon="-1.752632"><ele>298</ele><time>2020-01-31T12:57:42Z</time><name>PT9143</name></trkpt>
<trkpt lat="53.210175" lon="-1.752618"><ele>299</ele><time>2020-01-31T12:57:43Z</time><name>PT9144</name></trkpt>
<trkpt lat="53.210165" lon="-1.752602"><ele>300</ele><time>2020-01-31T12:57:45Z</time><name>PT9145</name></trkpt>
<trkpt lat="53.210157" lon="-1.752593"><ele>299</ele><time>2020-01-31T12:57:45Z</time><name>PT9146</name></trkpt>
<trkpt lat="53.210146" lon="-1.752578"><ele>299</ele><time>2020-01-31T12:57:46Z</time><name>PT9147</name></trkpt>
<trkpt lat="53.210136" lon="-1.752564"><ele>299</ele><time>2020-01-31T12:57:48Z</time><name>PT9148</name></trkpt>
<trkpt lat="53.210127" lon="-1.752553"><ele>299</ele><time>2020-01-31T12:57:48Z</time><name>PT9149</name></trkpt>
<trkpt lat="53.210117" lon="-1.752544"><ele>299</ele><time>2020-01-31T12:57:49Z</time><name>PT9150</name></trkpt>
<trkpt lat="53.210103" lon="-1.752527"><ele>300</ele><time>2020-01-31T12:57:51Z</time><name>PT9151</name></trkpt>
<trkpt lat="53.210092" lon="-1.752512"><ele>301</ele><time>2020-01-31T12:57:51Z</time><name>PT9152</name></trkpt>
<trkpt lat="53.210084" lon="-1.752500"><ele>300</ele><time>2020-01-31T12:57:52Z</time><name>PT9153</name></trkpt>
<trkpt lat="53.210077" lon="-1.752487"><ele>300</ele><time>2020-01-31T12:57:54Z</time><name>PT9154</name></trkpt>
<trkpt lat="53.210068" lon="-1.752475"><ele>301</ele><time>2020-01-31T12:57:54Z</time><name>PT9155</name></trkpt>
<trkpt lat="53.210060" lon="-1.752461"><ele>301</ele><time>2020-01-31T12:57:55Z</time><name>PT9156</name></trkpt>
<trkpt lat="53.210055" lon="-1.752441"><ele>302</ele><time>2020-01-31T12:57:57Z</time><name>PT9157</name></trkpt>
<trkpt lat="53.210050" lon="-1.752432"><ele>302</ele><time>2020-01-31T12:57:57Z</time><name>PT9158</name></trkpt>
<trkpt lat="53.210042" lon="-1.752419"><ele>302</ele><time>2020-01-31T12:57:58Z</time><name>PT9159</name></trkpt>
<trkpt lat="53.210031" lon="-1.752406"><ele>301</ele><time>2020-01-31T12:58:00Z</time><name>PT9160</name></trkpt>
<trkpt lat="53.210019" lon="-1.752392"><ele>301</ele><time>2020-01-31T12:58:00Z</time><name>PT9161</name></trkpt>
<trkpt lat="53.210013" lon="-1.752382"><ele>301</ele><time>2020-01-31T12:58:02Z</time><name>PT9162</name></trkpt>
<trkpt lat="53.210012" lon="-1.752375"><ele>301</ele><time>2020-01-31T12:58:03Z</time><name>PT9163</name></trkpt>
<trkpt lat="53.210011" lon="-1.752362"><ele>301</ele><time>2020-01-31T12:58:03Z</time><name>PT9164</name></trkpt>
<trkpt lat="53.210009" lon="-1.752350"><ele>301</ele><time>2020-01-31T12:58:04Z</time><name>PT9165</name></trkpt>
<trkpt lat="53.210007" lon="-1.752339"><ele>301</ele><time>2020-01-31T12:58:06Z</time><name>PT9166</name></trkpt>
<trkpt lat="53.210008" lon="-1.752338"><ele>301</ele><time>2020-01-31T12:58:06Z</time><name>PT9167</name></trkpt>
<trkpt lat="53.210010" lon="-1.752337"><ele>301</ele><time>2020-01-31T12:58:07Z</time><name>PT9168</name></trkpt>
<trkpt lat="53.210011" lon="-1.752335"><ele>300</ele><time>2020-01-31T12:58:09Z</time><name>PT9169</name></trkpt>
<trkpt lat="53.210016" lon="-1.752333"><ele>301</ele><time>2020-01-31T12:58:18Z</time><name>PT9170</name></trkpt>
<trkpt lat="53.210018" lon="-1.752321"><ele>300</ele><time>2020-01-31T12:58:18Z</time><name>PT9171</name></trkpt>
<trkpt lat="53.210018" lon="-1.752315"><ele>300</ele><time>2020-01-31T12:58:19Z</time><name>PT9172</name></trkpt>
<trkpt lat="53.210017" lon="-1.752315"><ele>300</ele><time>2020-01-31T12:58:21Z</time><name>PT9173</name></trkpt>
<trkpt lat="53.210017" lon="-1.752315"><ele>300</ele><time>2020-01-31T12:58:21Z</time><name>PT9174</name></trkpt>
<trkpt lat="53.210019" lon="-1.752313"><ele>300</ele><time>2020-01-31T12:58:22Z</time><name>PT9175</name></trkpt>
<trkpt lat="53.210025" lon="-1.752306"><ele>301</ele><time>2020-01-31T12:58:24Z</time><name>PT9176</name></trkpt>
<trkpt lat="53.210027" lon="-1.752291"><ele>301</ele><time>2020-01-31T12:58:24Z</time><name>PT9177</name></trkpt>
<trkpt lat="53.210026" lon="-1.752271"><ele>301</ele><time>2020-01-31T12:58:25Z</time><name>PT9178</name></trkpt>
<trkpt lat="53.210027" lon="-1.752254"><ele>301</ele><time>2020-01-31T12:58:27Z</time><name>PT9179</name></trkpt>
<trkpt lat="53.210031" lon="-1.752239"><ele>301</ele><time>2020-01-31T12:58:27Z</time><name>PT9180</name></trkpt>
<trkpt lat="53.210035" lon="-1.752224"><ele>301</ele><time>2020-01-31T12:58:28Z</time><name>PT9181</name></trkpt>
<trkpt lat="53.210034" lon="-1.752217"><ele>300</ele><time>2020-01-31T12:58:30Z</time><name>PT9182</name></trkpt>
<trkpt lat="53.210038" lon="-1.752206"><ele>300</ele><time>2020-01-31T12:58:30Z</time><name>PT9183</name></trkpt>
<trkpt lat="53.210041" lon="-1.752198"><ele>300</ele><time>2020-01-31T12:58:31Z</time><name>PT9184</name></trkpt>
<trkpt lat="53.210042" lon="-1.752182"><ele>300</ele><time>2020-01-31T12:58:33Z</time><name>PT9185</name></trkpt>
<trkpt lat="53.210041" lon="-1.752160"><ele>300</ele><time>2020-01-31T12:58:33Z</time><name>PT9186</name></trkpt>
<trkpt lat="53.210040" lon="-1.752136"><ele>300</ele><time>2020-01-31T12:58:34Z</time><name>PT9187</name></trkpt>
<trkpt lat="53.210044" lon="-1.752113"><ele>301</ele><time>2020-01-31T12:58:36Z</time><name>PT9188</name></trkpt>
<trkpt lat="53.210046" lon="-1.752100"><ele>301</ele><time>2020-01-31T12:58:36Z</time><name>PT9189</name></trkpt>
<trkpt lat="53.210050" lon="-1.752088"><ele>301</ele><time>2020-01-31T12:58:37Z</time><name>PT9190</name></trkpt>
<trkpt lat="53.210055" lon="-1.752071"><ele>301</ele><time>2020-01-31T12:58:39Z</time><name>PT9191</name></trkpt>
<trkpt lat="53.210056" lon="-1.752050"><ele>301</ele><time>2020-01-31T12:58:39Z</time><name>PT9192</name></trkpt>
<trkpt lat="53.210056" lon="-1.752029"><ele>301</ele><time>2020-01-31T12:58:40Z</time><name>PT9193</name></trkpt>
<trkpt lat="53.210059" lon="-1.752006"><ele>301</ele><time>2020-01-31T12:58:42Z</time><name>PT9194</name></trkpt>
<trkpt lat="53.210062" lon="-1.751987"><ele>300</ele><time>2020-01-31T12:58:42Z</time><name>PT9195</name></trkpt>
<trkpt lat="53.210065" lon="-1.751966"><ele>301</ele><time>2020-01-31T12:58:43Z</time><name>PT9196</name></trkpt>
<trkpt lat="53.210068" lon="-1.751947"><ele>300</ele><time>2020-01-31T12:58:45Z</time><name>PT9197</name></trkpt>
<trkpt lat="53.210069" lon="-1.751932"><ele>300</ele><time>2020-01-31T12:58:45Z</time><name>PT9198</name></trkpt>
<trkpt lat="53.210072" lon="-1.751910"><ele>301</ele><time>2020-01-31T12:58:46Z</time><name>PT9199</name></trkpt>
<trkpt lat="53.210073" lon="-1.751889"><ele>300</ele><time>2020-01-31T12:58:48Z</time><name>PT9200</name></trkpt>
<trkpt lat="53.210075" lon="-1.751875"><ele>300</ele><time>2020-01-31T12:58:48Z</time><name>PT9201</name></trkpt>
<trkpt lat="53.210075" lon="-1.751855"><ele>301</ele><time>2020-01-31T12:58:49Z</time><name>PT9202</name></trkpt>
<trkpt lat="53.210073" lon="-1.751831"><ele>301</ele><time>2020-01-31T12:58:51Z</time><name>PT9203</name></trkpt>
<trkpt lat="53.210072" lon="-1.751800"><ele>301</ele><time>2020-01-31T12:58:51Z</time><name>PT9204</name></trkpt>
<trkpt lat="53.210070" lon="-1.751769"><ele>301</ele><time>2020-01-31T12:58:52Z</time><name>PT9205</name></trkpt>
<trkpt lat="53.210064" lon="-1.751746"><ele>301</ele><time>2020-01-31T12:58:54Z</time><name>PT9206</name></trkpt>
<trkpt lat="53.210060" lon="-1.751726"><ele>301</ele><time>2020-01-31T12:58:54Z</time><name>PT9207</name></trkpt>
<trkpt lat="53.210062" lon="-1.751701"><ele>301</ele><time>2020-01-31T12:58:55Z</time><name>PT9208</name></trkpt>
<trkpt lat="53.210063" lon="-1.751682"><ele>301</ele><time>2020-01-31T12:58:57Z</time><name>PT9209</name></trkpt>
<trkpt lat="53.210064" lon="-1.751673"><ele>301</ele><time>2020-01-31T12:58:57Z</time><name>PT9210</name></trkpt>
<trkpt lat="53.210068" lon="-1.751664"><ele>301</ele><time>2020-01-31T12:58:58Z</time><name>PT9211</name></trkpt>
<trkpt lat="53.210069" lon="-1.751650"><ele>301</ele><time>2020-01-31T12:59:00Z</time><name>PT9212</name></trkpt>
<trkpt lat="53.210068" lon="-1.751628"><ele>301</ele><time>2020-01-31T12:59:00Z</time><name>PT9213</name></trkpt>
<trkpt lat="53.210068" lon="-1.751594"><ele>300</ele><time>2020-01-31T12:59:01Z</time><name>PT9214</name></trkpt>
<trkpt lat="53.210064" lon="-1.751559"><ele>300</ele><time>2020-01-31T12:59:03Z</time><name>PT9215</name></trkpt>
<trkpt lat="53.210059" lon="-1.751531"><ele>300</ele><time>2020-01-31T12:59:03Z</time><name>PT9216</name></trkpt>
<trkpt lat="53.210055" lon="-1.751516"><ele>299</ele><time>2020-01-31T12:59:04Z</time><name>PT9217</name></trkpt>
<trkpt lat="53.210052" lon="-1.751511"><ele>300</ele><time>2020-01-31T12:59:06Z</time><name>PT9218</name></trkpt>
<trkpt lat="53.210048" lon="-1.751502"><ele>300</ele><time>2020-01-31T12:59:06Z</time><name>PT9219</name></trkpt>
<trkpt lat="53.210045" lon="-1.751495"><ele>300</ele><time>2020-01-31T12:59:07Z</time><name>PT9220</name></trkpt>
<trkpt lat="53.210042" lon="-1.751485"><ele>300</ele><time>2020-01-31T12:59:09Z</time><name>PT9221</name></trkpt>
<trkpt lat="53.210034" lon="-1.751472"><ele>300</ele><time>2020-01-31T12:59:09Z</time><name>PT9222</name></trkpt>
<trkpt lat="53.210027" lon="-1.751446"><ele>301</ele><time>2020-01-31T12:59:10Z</time><name>PT9223</name></trkpt>
<trkpt lat="53.210018" lon="-1.751424"><ele>301</ele><time>2020-01-31T12:59:12Z</time><name>PT9224</name></trkpt>
<trkpt lat="53.210011" lon="-1.751395"><ele>302</ele><time>2020-01-31T12:59:12Z</time><name>PT9225</name></trkpt>
<trkpt lat="53.210005" lon="-1.751376"><ele>302</ele><time>2020-01-31T12:59:13Z</time><name>PT9226</name></trkpt>
<trkpt lat="53.210001" lon="-1.751363"><ele>302</ele><time>2020-01-31T12:59:15Z</time><name>PT9227</name></trkpt>
<trkpt lat="53.209996" lon="-1.751349"><ele>302</ele><time>2020-01-31T12:59:15Z</time><name>PT9228</name></trkpt>
<trkpt lat="53.209988" lon="-1.751329"><ele>302</ele><time>2020-01-31T12:59:16Z</time><name>PT9229</name></trkpt>
<trkpt lat="53.209980" lon="-1.751305"><ele>302</ele><time>2020-01-31T12:59:18Z</time><name>PT9230</name></trkpt>
<trkpt lat="53.209976" lon="-1.751290"><ele>303</ele><time>2020-01-31T12:59:18Z</time><name>PT9231</name></trkpt>
<trkpt lat="53.209976" lon="-1.751279"><ele>303</ele><time>2020-01-31T12:59:19Z</time><name>PT9232</name></trkpt>
<trkpt lat="53.209980" lon="-1.751269"><ele>303</ele><time>2020-01-31T12:59:21Z</time><name>PT9233</name></trkpt>
<trkpt lat="53.209976" lon="-1.751255"><ele>303</ele><time>2020-01-31T12:59:21Z</time><name>PT9234</name></trkpt>
<trkpt lat="53.209973" lon="-1.751232"><ele>303</ele><time>2020-01-31T12:59:22Z</time><name>PT9235</name></trkpt>
<trkpt lat="53.209969" lon="-1.751209"><ele>303</ele><time>2020-01-31T12:59:24Z</time><name>PT9236</name></trkpt>
<trkpt lat="53.209967" lon="-1.751193"><ele>303</ele><time>2020-01-31T12:59:24Z</time><name>PT9237</name></trkpt>
<trkpt lat="53.209964" lon="-1.751182"><ele>303</ele><time>2020-01-31T12:59:26Z</time><name>PT9238</name></trkpt>
<trkpt lat="53.209959" lon="-1.751164"><ele>303</ele><time>2020-01-31T12:59:27Z</time><name>PT9239</name></trkpt>
<trkpt lat="53.209954" lon="-1.751140"><ele>303</ele><time>2020-01-31T12:59:27Z</time><name>PT9240</name></trkpt>
<trkpt lat="53.209950" lon="-1.751116"><ele>303</ele><time>2020-01-31T12:59:28Z</time><name>PT9241</name></trkpt>
<trkpt lat="53.209946" lon="-1.751098"><ele>303</ele><time>2020-01-31T12:59:30Z</time><name>PT9242</name></trkpt>
<trkpt lat="53.209943" lon="-1.751082"><ele>303</ele><time>2020-01-31T12:59:30Z</time><name>PT9243</name></trkpt>
<trkpt lat="53.209942" lon="-1.751071"><ele>303</ele><time>2020-01-31T12:59:31Z</time><name>PT9244</name></trkpt>
<trkpt lat="53.209938" lon="-1.751053"><ele>303</ele><time>2020-01-31T12:59:33Z</time><name>PT9245</name></trkpt>
<trkpt lat="53.209935" lon="-1.751026"><ele>304</ele><time>2020-01-31T12:59:33Z</time><name>PT9246</name></trkpt>
<trkpt lat="53.209932" lon="-1.751006"><ele>304</ele><time>2020-01-31T12:59:34Z</time><name>PT9247</name></trkpt>
<trkpt lat="53.209937" lon="-1.750995"><ele>304</ele><time>2020-01-31T12:59:36Z</time><name>PT9248</name></trkpt>
<trkpt lat="53.209939" lon="-1.750988"><ele>303</ele><time>2020-01-31T12:59:36Z</time><name>PT9249</name></trkpt>
<trkpt lat="53.209940" lon="-1.750984"><ele>303</ele><time>2020-01-31T12:59:37Z</time><name>PT9250</name></trkpt>
<trkpt lat="53.209935" lon="-1.750969"><ele>303</ele><time>2020-01-31T12:59:39Z</time><name>PT9251</name></trkpt>
<trkpt lat="53.209931" lon="-1.750937"><ele>303</ele><time>2020-01-31T12:59:39Z</time><name>PT9252</name></trkpt>
<trkpt lat="53.209928" lon="-1.750909"><ele>303</ele><time>2020-01-31T12:59:40Z</time><name>PT9253</name></trkpt>
<trkpt lat="53.209926" lon="-1.750892"><ele>303</ele><time>2020-01-31T12:59:42Z</time><name>PT9254</name></trkpt>
<trkpt lat="53.209926" lon="-1.750878"><ele>303</ele><time>2020-01-31T12:59:42Z</time><name>PT9255</name></trkpt>
<trkpt lat="53.209929" lon="-1.750862"><ele>303</ele><time>2020-01-31T12:59:43Z</time><name>PT9256</name></trkpt>
<trkpt lat="53.209937" lon="-1.750839"><ele>304</ele><time>2020-01-31T12:59:45Z</time><name>PT9257</name></trkpt>
<trkpt lat="53.209947" lon="-1.750817"><ele>304</ele><time>2020-01-31T12:59:45Z</time><name>PT9258</name></trkpt>
<trkpt lat="53.209957" lon="-1.750806"><ele>303</ele><time>2020-01-31T12:59:46Z</time><name>PT9259</name></trkpt>
<trkpt lat="53.209963" lon="-1.750801"><ele>304</ele><time>2020-01-31T12:59:48Z</time><name>PT9260</name></trkpt>
<trkpt lat="53.209968" lon="-1.750802"><ele>304</ele><time>2020-01-31T12:59:48Z</time><name>PT9261</name></trkpt>
<trkpt lat="53.209976" lon="-1.750797"><ele>304</ele><time>2020-01-31T12:59:49Z</time><name>PT9262</name></trkpt>
<trkpt lat="53.209984" lon="-1.750776"><ele>304</ele><time>2020-01-31T12:59:51Z</time><name>PT9263</name></trkpt>
<trkpt lat="53.209988" lon="-1.750749"><ele>304</ele><time>2020-01-31T12:59:51Z</time><name>PT9264</name></trkpt>
<trkpt lat="53.209993" lon="-1.750727"><ele>304</ele><time>2020-01-31T12:59:52Z</time><name>PT9265</name></trkpt>
<trkpt lat="53.209997" lon="-1.750714"><ele>304</ele><time>2020-01-31T12:59:54Z</time><name>PT9266</name></trkpt>
<trkpt lat="53.210001" lon="-1.750706"><ele>304</ele><time>2020-01-31T12:59:54Z</time><name>PT9267</name></trkpt>
<trkpt lat="53.210004" lon="-1.750690"><ele>304</ele><time>2020-01-31T12:59:55Z</time><name>PT9268</name></trkpt>
<trkpt lat="53.210011" lon="-1.750669"><ele>304</ele><time>2020-01-31T12:59:57Z</time><name>PT9269</name></trkpt>
<trkpt lat="53.210017" lon="-1.750654"><ele>304</ele><time>2020-01-31T12:59:57Z</time><name>PT9270</name></trkpt>
<trkpt lat="53.210024" lon="-1.750648"><ele>304</ele><time>2020-01-31T12:59:58Z</time><name>PT9271</name></trkpt>
<trkpt lat="53.210028" lon="-1.750643"><ele>304</ele><time>2020-01-31T13:00:00Z</time><name>PT9272</name></trkpt>
<trkpt lat="53.210036" lon="-1.750633"><ele>304</ele><time>2020-01-31T13:00:00Z</time><name>PT9273</name></trkpt>
<trkpt lat="53.210047" lon="-1.750621"><ele>304</ele><time>2020-01-31T13:00:01Z</time><name>PT9274</name></trkpt>
<trkpt lat="53.210059" lon="-1.750613"><ele>304</ele><time>2020-01-31T13:00:03Z</time><name>PT9275</name></trkpt>
<trkpt lat="53.210073" lon="-1.750606"><ele>303</ele><time>2020-01-31T13:00:03Z</time><name>PT9276</name></trkpt>
<trkpt lat="53.210084" lon="-1.750597"><ele>304</ele><time>2020-01-31T13:00:04Z</time><name>PT9277</name></trkpt>
<trkpt lat="53.210091" lon="-1.750592"><ele>304</ele><time>2020-01-31T13:00:06Z</time><name>PT9278</name></trkpt>
<trkpt lat="53.210098" lon="-1.750589"><ele>304</ele><time>2020-01-31T13:00:06Z</time><name>PT9279</name></trkpt>
<trkpt lat="53.210109" lon="-1.750567"><ele>305</ele><time>2020-01-31T13:00:07Z</time><name>PT9280</name></trkpt>
<trkpt lat="53.210126" lon="-1.750535"><ele>306</ele><time>2020-01-31T13:00:09Z</time><name>PT9281</name></trkpt>
<trkpt lat="53.210139" lon="-1.750512"><ele>306</ele><time>2020-01-31T13:00:09Z</time><name>PT9282</name></trkpt>
<trkpt lat="53.210143" lon="-1.750500"><ele>306</ele><time>2020-01-31T13:00:10Z</time><name>PT9283</name></trkpt>
<trkpt lat="53.210146" lon="-1.750490"><ele>306</ele><time>2020-01-31T13:00:12Z</time><name>PT9284</name></trkpt>
<trkpt lat="53.210150" lon="-1.750484"><ele>305</ele><time>2020-01-31T13:00:12Z</time><name>PT9285</name></trkpt>
<trkpt lat="53.210158" lon="-1.750467"><ele>306</ele><time>2020-01-31T13:00:13Z</time><name>PT9286</name></trkpt>
<trkpt lat="53.210168" lon="-1.750447"><ele>305</ele><time>2020-01-31T13:00:15Z</time><name>PT9287</name></trkpt>
<trkpt lat="53.210176" lon="-1.750424"><ele>305</ele><time>2020-01-31T13:00:15Z</time><name>PT9288</name></trkpt>
<trkpt lat="53.210182" lon="-1.750410"><ele>305</ele><time>2020-01-31T13:00:16Z</time><name>PT9289</name></trkpt>
<trkpt lat="53.210192" lon="-1.750400"><ele>306</ele><time>2020-01-31T13:00:18Z</time><name>PT9290</name></trkpt>
<trkpt lat="53.210198" lon="-1.750394"><ele>306</ele><time>2020-01-31T13:00:18Z</time><name>PT9291</name></trkpt>
<trkpt lat="53.210201" lon="-1.750372"><ele>307</ele><time>2020-01-31T13:00:19Z</time><name>PT9292</name></trkpt>
<trkpt lat="53.210204" lon="-1.750353"><ele>307</ele><time>2020-01-31T13:00:21Z</time><name>PT9293</name></trkpt>
<trkpt lat="53.210208" lon="-1.750334"><ele>307</ele><time>2020-01-31T13:00:21Z</time><name>PT9294</name></trkpt>
<trkpt lat="53.210207" lon="-1.750324"><ele>307</ele><time>2020-01-31T13:00:22Z</time><name>PT9295</name></trkpt>
<trkpt lat="53.210204" lon="-1.750316"><ele>306</ele><time>2020-01-31T13:00:24Z</time><name>PT9296</name></trkpt>
<trkpt lat="53.210204" lon="-1.750302"><ele>306</ele><time>2020-01-31T13:00:24Z</time><name>PT9297</name></trkpt>
<trkpt lat="53.210208" lon="-1.750279"><ele>306</ele><time>2020-01-31T13:00:25Z</time><name>PT9298</name></trkpt>
<trkpt lat="53.210212" lon="-1.750253"><ele>306</ele><time>2020-01-31T13:00:27Z</time><name>PT9299</name></trkpt>
<trkpt lat="53.210213" lon="-1.750233"><ele>305</ele><time>2020-01-31T13:00:27Z</time><name>PT9300</name></trkpt>
<trkpt lat="53.210216" lon="-1.750220"><ele>305</ele><time>2020-01-31T13:00:28Z</time><name>PT9301</name></trkpt>
<trkpt lat="53.210220" lon="-1.750212"><ele>305</ele><time>2020-01-31T13:00:30Z</time><name>PT9302</name></trkpt>
<trkpt lat="53.210221" lon="-1.750196"><ele>304</ele><time>2020-01-31T13:00:30Z</time><name>PT9303</name></trkpt>
<trkpt lat="53.210220" lon="-1.750172"><ele>304</ele><time>2020-01-31T13:00:31Z</time><name>PT9304</name></trkpt>
<trkpt lat="53.210227" lon="-1.750133"><ele>306</ele><time>2020-01-31T13:00:33Z</time><name>PT9305</name></trkpt>
<trkpt lat="53.210232" lon="-1.750107"><ele>306</ele><time>2020-01-31T13:00:33Z</time><name>PT9306</name></trkpt>
<trkpt lat="53.210238" lon="-1.750103"><ele>305</ele><time>2020-01-31T13:00:34Z</time><name>PT9307</name></trkpt>
<trkpt lat="53.210244" lon="-1.750097"><ele>305</ele><time>2020-01-31T13:00:36Z</time><name>PT9308</name></trkpt>
<trkpt lat="53.210248" lon="-1.750077"><ele>304</ele><time>2020-01-31T13:00:36Z</time><name>PT9309</name></trkpt>
<trkpt lat="53.210255" lon="-1.750050"><ele>304</ele><time>2020-01-31T13:00:37Z</time><name>PT9310</name></trkpt>
<trkpt lat="53.210262" lon="-1.750023"><ele>304</ele><time>2020-01-31T13:00:39Z</time><name>PT9311</name></trkpt>
<trkpt lat="53.210266" lon="-1.750006"><ele>304</ele><time>2020-01-31T13:00:39Z</time><name>PT9312</name></trkpt>
<trkpt lat="53.210269" lon="-1.749993"><ele>304</ele><time>2020-01-31T13:00:40Z</time><name>PT9313</name></trkpt>
<trkpt lat="53.210273" lon="-1.749976"><ele>305</ele><time>2020-01-31T13:00:42Z</time><name>PT9314</name></trkpt>
<trkpt lat="53.210280" lon="-1.749956"><ele>305</ele><time>2020-01-31T13:00:42Z</time><name>PT9315</name></trkpt>
<trkpt lat="53.210286" lon="-1.749937"><ele>305</ele><time>2020-01-31T13:00:43Z</time><name>PT9316</name></trkpt>
<trkpt lat="53.210292" lon="-1.749922"><ele>305</ele><time>2020-01-31T13:00:45Z</time><name>PT9317</name></trkpt>
<trkpt lat="53.210299" lon="-1.749905"><ele>306</ele><time>2020-01-31T13:00:45Z</time><name>PT9318</name></trkpt>
<trkpt lat="53.210305" lon="-1.749887"><ele>305</ele><time>2020-01-31T13:00:46Z</time><name>PT9319</name></trkpt>
<trkpt lat="53.210308" lon="-1.749868"><ele>306</ele><time>2020-01-31T13:00:48Z</time><name>PT9320</name></trkpt>
<trkpt lat="53.210315" lon="-1.749842"><ele>306</ele><time>2020-01-31T13:00:48Z</time><name>PT9321</name></trkpt>
<trkpt lat="53.210322" lon="-1.749823"><ele>306</ele><time>2020-01-31T13:00:49Z</time><name>PT9322</name></trkpt>
<trkpt lat="53.210324" lon="-1.749816"><ele>306</ele><time>2020-01-31T13:00:51Z</time><name>PT9323</name></trkpt>
<trkpt lat="53.210328" lon="-1.749808"><ele>306</ele><time>2020-01-31T13:00:51Z</time><name>PT9324</name></trkpt>
<trkpt lat="53.210334" lon="-1.749794"><ele>306</ele><time>2020-01-31T13:00:52Z</time><name>PT9325</name></trkpt>
<trkpt lat="53.210339" lon="-1.749769"><ele>306</ele><time>2020-01-31T13:00:54Z</time><name>PT9326</name></trkpt>
<trkpt lat="53.210345" lon="-1.749742"><ele>305</ele><time>2020-01-31T13:00:54Z</time><name>PT9327</name></trkpt>
<trkpt lat="53.210349" lon="-1.749722"><ele>305</ele><time>2020-01-31T13:00:55Z</time><name>PT9328</name></trkpt>
<trkpt lat="53.210353" lon="-1.749713"><ele>305</ele><time>2020-01-31T13:00:57Z</time><name>PT9329</name></trkpt>
<trkpt lat="53.210361" lon="-1.749696"><ele>305</ele><time>2020-01-31T13:00:57Z</time><name>PT9330</name></trkpt>
<trkpt lat="53.210368" lon="-1.749670"><ele>305</ele><time>2020-01-31T13:00:58Z</time><name>PT9331</name></trkpt>
<trkpt lat="53.210373" lon="-1.749645"><ele>305</ele><time>2020-01-31T13:01:00Z</time><name>PT9332</name></trkpt>
<trkpt lat="53.210377" lon="-1.749634"><ele>305</ele><time>2020-01-31T13:01:00Z</time><name>PT9333</name></trkpt>
<trkpt lat="53.210379" lon="-1.749631"><ele>304</ele><time>2020-01-31T13:01:01Z</time><name>PT9334</name></trkpt>
<trkpt lat="53.210382" lon="-1.749623"><ele>304</ele><time>2020-01-31T13:01:03Z</time><name>PT9335</name></trkpt>
<trkpt lat="53.210385" lon="-1.749611"><ele>304</ele><time>2020-01-31T13:01:03Z</time><name>PT9336</name></trkpt>
<trkpt lat="53.210390" lon="-1.749596"><ele>304</ele><time>2020-01-31T13:01:04Z</time><name>PT9337</name></trkpt>
<trkpt lat="53.210396" lon="-1.749580"><ele>304</ele><time>2020-01-31T13:01:06Z</time><name>PT9338</name></trkpt>
<trkpt lat="53.210399" lon="-1.749564"><ele>304</ele><time>2020-01-31T13:01:06Z</time><name>PT9339</name></trkpt>
<trkpt lat="53.210403" lon="-1.749555"><ele>304</ele><time>2020-01-31T13:01:07Z</time><name>PT9340</name></trkpt>
<trkpt lat="53.210399" lon="-1.749540"><ele>304</ele><time>2020-01-31T13:01:09Z</time><name>PT9341</name></trkpt>
<trkpt lat="53.210399" lon="-1.749524"><ele>304</ele><time>2020-01-31T13:01:09Z</time><name>PT9342</name></trkpt>
<trkpt lat="53.210405" lon="-1.749516"><ele>304</ele><time>2020-01-31T13:01:10Z</time><name>PT9343</name></trkpt>
<trkpt lat="53.210411" lon="-1.749497"><ele>304</ele><time>2020-01-31T13:01:12Z</time><name>PT9344</name></trkpt>
<trkpt lat="53.210422" lon="-1.749481"><ele>304</ele><time>2020-01-31T13:01:12Z</time><name>PT9345</name></trkpt>
<trkpt lat="53.210426" lon="-1.749474"><ele>304</ele><time>2020-01-31T13:01:13Z</time><name>PT9346</name></trkpt>
<trkpt lat="53.210426" lon="-1.749466"><ele>304</ele><time>2020-01-31T13:01:15Z</time><name>PT9347</name></trkpt>
<trkpt lat="53.210431" lon="-1.749446"><ele>305</ele><time>2020-01-31T13:01:15Z</time><name>PT9348</name></trkpt>
<trkpt lat="53.210438" lon="-1.749418"><ele>305</ele><time>2020-01-31T13:01:16Z</time><name>PT9349</name></trkpt>
<trkpt lat="53.210444" lon="-1.749397"><ele>305</ele><time>2020-01-31T13:01:18Z</time><name>PT9350</name></trkpt>
<trkpt lat="53.210447" lon="-1.749397"><ele>305</ele><time>2020-01-31T13:01:18Z</time><name>PT9351</name></trkpt>
<trkpt lat="53.210447" lon="-1.749388"><ele>306</ele><time>2020-01-31T13:01:19Z</time><name>PT9352</name></trkpt>
<trkpt lat="53.210450" lon="-1.749389"><ele>306</ele><time>2020-01-31T13:01:21Z</time><name>PT9353</name></trkpt>
<trkpt lat="53.210450" lon="-1.749373"><ele>306</ele><time>2020-01-31T13:01:21Z</time><name>PT9354</name></trkpt>
<trkpt lat="53.210450" lon="-1.749348"><ele>306</ele><time>2020-01-31T13:01:22Z</time><name>PT9355</name></trkpt>
<trkpt lat="53.210451" lon="-1.749343"><ele>305</ele><time>2020-01-31T13:01:24Z</time><name>PT9356</name></trkpt>
<trkpt lat="53.210449" lon="-1.749329"><ele>306</ele><time>2020-01-31T13:01:24Z</time><name>PT9357</name></trkpt>
<trkpt lat="53.210447" lon="-1.749314"><ele>307</ele><time>2020-01-31T13:01:25Z</time><name>PT9358</name></trkpt>
<trkpt lat="53.210443" lon="-1.749289"><ele>307</ele><time>2020-01-31T13:01:27Z</time><name>PT9359</name></trkpt>
<trkpt lat="53.210438" lon="-1.749274"><ele>307</ele><time>2020-01-31T13:01:27Z</time><name>PT9360</name></trkpt>
<trkpt lat="53.210436" lon="-1.749265"><ele>307</ele><time>2020-01-31T13:01:28Z</time><name>PT9361</name></trkpt>
<trkpt lat="53.210433" lon="-1.749253"><ele>307</ele><time>2020-01-31T13:01:30Z</time><name>PT9362</name></trkpt>
<trkpt lat="53.210424" lon="-1.749232"><ele>306</ele><time>2020-01-31T13:01:30Z</time><name>PT9363</name></trkpt>
<trkpt lat="53.210418" lon="-1.749206"><ele>306</ele><time>2020-01-31T13:01:32Z</time><name>PT9364</name></trkpt>
<trkpt lat="53.210415" lon="-1.749186"><ele>305</ele><time>2020-01-31T13:01:33Z</time><name>PT9365</name></trkpt>
<trkpt lat="53.210417" lon="-1.749177"><ele>306</ele><time>2020-01-31T13:01:33Z</time><name>PT9366</name></trkpt>
<trkpt lat="53.210416" lon="-1.749167"><ele>305</ele><time>2020-01-31T13:01:34Z</time><name>PT9367</name></trkpt>
<trkpt lat="53.210421" lon="-1.749143"><ele>305</ele><time>2020-01-31T13:01:36Z</time><name>PT9368</name></trkpt>
<trkpt lat="53.210427" lon="-1.749118"><ele>305</ele><time>2020-01-31T13:01:36Z</time><name>PT9369</name></trkpt>
<trkpt lat="53.210430" lon="-1.749102"><ele>305</ele><time>2020-01-31T13:01:38Z</time><name>PT9370</name></trkpt>
<trkpt lat="53.210434" lon="-1.749096"><ele>305</ele><time>2020-01-31T13:01:39Z</time><name>PT9371</name></trkpt>
<trkpt lat="53.210429" lon="-1.749076"><ele>305</ele><time>2020-01-31T13:01:39Z</time><name>PT9372</name></trkpt>
<trkpt lat="53.210420" lon="-1.749048"><ele>305</ele><time>2020-01-31T13:01:40Z</time><name>PT9373</name></trkpt>
<trkpt lat="53.210413" lon="-1.749026"><ele>305</ele><time>2020-01-31T13:01:42Z</time><name>PT9374</name></trkpt>
<trkpt lat="53.210412" lon="-1.749005"><ele>306</ele><time>2020-01-31T13:01:42Z</time><name>PT9375</name></trkpt>
<trkpt lat="53.210414" lon="-1.748992"><ele>306</ele><time>2020-01-31T13:01:43Z</time><name>PT9376</name></trkpt>
<trkpt lat="53.210416" lon="-1.748980"><ele>306</ele><time>2020-01-31T13:01:45Z</time><name>PT9377</name></trkpt>
<trkpt lat="53.210422" lon="-1.748950"><ele>306</ele><time>2020-01-31T13:01:45Z</time><name>PT9378</name></trkpt>
<trkpt lat="53.210427" lon="-1.748918"><ele>307</ele><time>2020-01-31T13:01:47Z</time><name>PT9379</name></trkpt>
<trkpt lat="53.210430" lon="-1.748899"><ele>307</ele><time>2020-01-31T13:01:48Z</time><name>PT9380</name></trkpt>
<trkpt lat="53.210432" lon="-1.748897"><ele>307</ele><time>2020-01-31T13:01:48Z</time><name>PT9381</name></trkpt>
<trkpt lat="53.210434" lon="-1.748899"><ele>307</ele><time>2020-01-31T13:01:49Z</time><name>PT9382</name></trkpt>
<trkpt lat="53.210437" lon="-1.748892"><ele>307</ele><time>2020-01-31T13:01:51Z</time><name>PT9383</name></trkpt>
<trkpt lat="53.210440" lon="-1.748882"><ele>307</ele><time>2020-01-31T13:01:51Z</time><name>PT9384</name></trkpt>
<trkpt lat="53.210450" lon="-1.748863"><ele>307</ele><time>2020-01-31T13:01:53Z</time><name>PT9385</name></trkpt>
<trkpt lat="53.210460" lon="-1.748842"><ele>306</ele><time>2020-01-31T13:01:54Z</time><name>PT9386</name></trkpt>
<trkpt lat="53.210469" lon="-1.748822"><ele>307</ele><time>2020-01-31T13:01:54Z</time><name>PT9387</name></trkpt>
<trkpt lat="53.210474" lon="-1.748807"><ele>307</ele><time>2020-01-31T13:01:55Z</time><name>PT9388</name></trkpt>
<trkpt lat="53.210479" lon="-1.748798"><ele>306</ele><time>2020-01-31T13:01:57Z</time><name>PT9389</name></trkpt>
<trkpt lat="53.210479" lon="-1.748785"><ele>306</ele><time>2020-01-31T13:01:57Z</time><name>PT9390</name></trkpt>
<trkpt lat="53.210480" lon="-1.748757"><ele>306</ele><time>2020-01-31T13:01:58Z</time><name>PT9391</name></trkpt>
<trkpt lat="53.210485" lon="-1.748726"><ele>307</ele><time>2020-01-31T13:02:00Z</time><name>PT9392</name></trkpt>
<trkpt lat="53.210490" lon="-1.748707"><ele>306</ele><time>2020-01-31T13:02:00Z</time><name>PT9393</name></trkpt>
<trkpt lat="53.210492" lon="-1.748700"><ele>306</ele><time>2020-01-31T13:02:01Z</time><name>PT9394</name></trkpt>
<trkpt lat="53.210493" lon="-1.748698"><ele>307</ele><time>2020-01-31T13:02:03Z</time><name>PT9395</name></trkpt>
<trkpt lat="53.210496" lon="-1.748689"><ele>307</ele><time>2020-01-31T13:02:03Z</time><name>PT9396</name></trkpt>
<trkpt lat="53.210499" lon="-1.748671"><ele>307</ele><time>2020-01-31T13:02:04Z</time><name>PT9397</name></trkpt>
<trkpt lat="53.210503" lon="-1.748643"><ele>306</ele><time>2020-01-31T13:02:06Z</time><name>PT9398</name></trkpt>
<trkpt lat="53.210508" lon="-1.748614"><ele>306</ele><time>2020-01-31T13:02:06Z</time><name>PT9399</name></trkpt>
<trkpt lat="53.210514" lon="-1.748586"><ele>306</ele><time>2020-01-31T13:02:08Z</time><name>PT9400</name></trkpt>
<trkpt lat="53.210520" lon="-1.748565"><ele>306</ele><time>2020-01-31T13:02:09Z</time><name>PT9401</name></trkpt>
<trkpt lat="53.210518" lon="-1.748552"><ele>305</ele><time>2020-01-31T13:02:09Z</time><name>PT9402</name></trkpt>
<trkpt lat="53.210518" lon="-1.748546"><ele>304</ele><time>2020-01-31T13:02:10Z</time><name>PT9403</name></trkpt>
<trkpt lat="53.210522" lon="-1.748540"><ele>305</ele><time>2020-01-31T13:02:12Z</time><name>PT9404</name></trkpt>
<trkpt lat="53.210526" lon="-1.748526"><ele>305</ele><time>2020-01-31T13:02:12Z</time><name>PT9405</name></trkpt>
<trkpt lat="53.210531" lon="-1.748501"><ele>305</ele><time>2020-01-31T13:02:13Z</time><name>PT9406</name></trkpt>
<trkpt lat="53.210537" lon="-1.748470"><ele>305</ele><time>2020-01-31T13:02:15Z</time><name>PT9407</name></trkpt>
<trkpt lat="53.210543" lon="-1.748439"><ele>305</ele><time>2020-01-31T13:02:15Z</time><name>PT9408</name></trkpt>
<trkpt lat="53.210548" lon="-1.748413"><ele>305</ele><time>2020-01-31T13:02:16Z</time><name>PT9409</name></trkpt>
<trkpt lat="53.210549" lon="-1.748390"><ele>305</ele><time>2020-01-31T13:02:18Z</time><name>PT9410</name></trkpt>
<trkpt lat="53.210548" lon="-1.748372"><ele>305</ele><time>2020-01-31T13:02:18Z</time><name>PT9411</name></trkpt>
<trkpt lat="53.210551" lon="-1.748360"><ele>306</ele><time>2020-01-31T13:02:19Z</time><name>PT9412</name></trkpt>
<trkpt lat="53.210554" lon="-1.748350"><ele>306</ele><time>2020-01-31T13:02:21Z</time><name>PT9413</name></trkpt>
<trkpt lat="53.210560" lon="-1.748344"><ele>307</ele><time>2020-01-31T13:02:21Z</time><name>PT9414</name></trkpt>
<trkpt lat="53.210566" lon="-1.748335"><ele>307</ele><time>2020-01-31T13:02:23Z</time><name>PT9415</name></trkpt>
<trkpt lat="53.210571" lon="-1.748310"><ele>308</ele><time>2020-01-31T13:02:24Z</time><name>PT9416</name></trkpt>
<trkpt lat="53.210575" lon="-1.748275"><ele>308</ele><time>2020-01-31T13:02:24Z</time><name>PT9417</name></trkpt>
<trkpt lat="53.210581" lon="-1.748242"><ele>308</ele><time>2020-01-31T13:02:25Z</time><name>PT9418</name></trkpt>
<trkpt lat="53.210583" lon="-1.748222"><ele>308</ele><time>2020-01-31T13:02:27Z</time><name>PT9419</name></trkpt>
<trkpt lat="53.210581" lon="-1.748211"><ele>308</ele><time>2020-01-31T13:02:27Z</time><name>PT9420</name></trkpt>
<trkpt lat="53.210577" lon="-1.748190"><ele>308</ele><time>2020-01-31T13:02:28Z</time><name>PT9421</name></trkpt>
<trkpt lat="53.210574" lon="-1.748171"><ele>308</ele><time>2020-01-31T13:02:30Z</time><name>PT9422</name></trkpt>
<trkpt lat="53.210573" lon="-1.748160"><ele>308</ele><time>2020-01-31T13:02:30Z</time><name>PT9423</name></trkpt>
<trkpt lat="53.210572" lon="-1.748158"><ele>308</ele><time>2020-01-31T13:02:31Z</time><name>PT9424</name></trkpt>
<trkpt lat="53.210573" lon="-1.748156"><ele>307</ele><time>2020-01-31T13:02:33Z</time><name>PT9425</name></trkpt>
<trkpt lat="53.210579" lon="-1.748146"><ele>308</ele><time>2020-01-31T13:02:33Z</time><name>PT9426</name></trkpt>
<trkpt lat="53.210582" lon="-1.748126"><ele>308</ele><time>2020-01-31T13:02:34Z</time><name>PT9427</name></trkpt>
<trkpt lat="53.210587" lon="-1.748099"><ele>308</ele><time>2020-01-31T13:02:36Z</time><name>PT9428</name></trkpt>
<trkpt lat="53.210590" lon="-1.748078"><ele>308</ele><time>2020-01-31T13:02:36Z</time><name>PT9429</name></trkpt>
<trkpt lat="53.210594" lon="-1.748055"><ele>308</ele><time>2020-01-31T13:02:37Z</time><name>PT9430</name></trkpt>
<trkpt lat="53.210598" lon="-1.748039"><ele>309</ele><time>2020-01-31T13:02:39Z</time><name>PT9431</name></trkpt>
<trkpt lat="53.210600" lon="-1.748032"><ele>309</ele><time>2020-01-31T13:02:39Z</time><name>PT9432</name></trkpt>
<trkpt lat="53.210600" lon="-1.748016"><ele>308</ele><time>2020-01-31T13:02:40Z</time><name>PT9433</name></trkpt>
<trkpt lat="53.210601" lon="-1.747987"><ele>308</ele><time>2020-01-31T13:02:42Z</time><name>PT9434</name></trkpt>
<trkpt lat="53.210603" lon="-1.747964"><ele>308</ele><time>2020-01-31T13:02:42Z</time><name>PT9435</name></trkpt>
<trkpt lat="53.210605" lon="-1.747952"><ele>308</ele><time>2020-01-31T13:02:43Z</time><name>PT9436</name></trkpt>
<trkpt lat="53.210609" lon="-1.747944"><ele>309</ele><time>2020-01-31T13:02:45Z</time><name>PT9437</name></trkpt>
<trkpt lat="53.210612" lon="-1.747934"><ele>309</ele><time>2020-01-31T13:02:45Z</time><name>PT9438</name></trkpt>
<trkpt lat="53.210612" lon="-1.747913"><ele>309</ele><time>2020-01-31T13:02:46Z</time><name>PT9439</name></trkpt>
<trkpt lat="53.210613" lon="-1.747883"><ele>309</ele><time>2020-01-31T13:02:48Z</time><name>PT9440</name></trkpt>
<trkpt lat="53.210612" lon="-1.747854"><ele>309</ele><time>2020-01-31T13:02:48Z</time><name>PT9441</name></trkpt>
<trkpt lat="53.210613" lon="-1.747832"><ele>309</ele><time>2020-01-31T13:02:49Z</time><name>PT9442</name></trkpt>
<trkpt lat="53.210615" lon="-1.747818"><ele>310</ele><time>2020-01-31T13:02:51Z</time><name>PT9443</name></trkpt>
<trkpt lat="53.210615" lon="-1.747800"><ele>310</ele><time>2020-01-31T13:02:51Z</time><name>PT9444</name></trkpt>
<trkpt lat="53.210614" lon="-1.747779"><ele>311</ele><time>2020-01-31T13:02:52Z</time><name>PT9445</name></trkpt>
<trkpt lat="53.210615" lon="-1.747761"><ele>312</ele><time>2020-01-31T13:02:54Z</time><name>PT9446</name></trkpt>
<trkpt lat="53.210617" lon="-1.747741"><ele>312</ele><time>2020-01-31T13:02:54Z</time><name>PT9447</name></trkpt>
<trkpt lat="53.210616" lon="-1.747720"><ele>311</ele><time>2020-01-31T13:02:55Z</time><name>PT9448</name></trkpt>
<trkpt lat="53.210619" lon="-1.747711"><ele>311</ele><time>2020-01-31T13:02:57Z</time><name>PT9449</name></trkpt>
<trkpt lat="53.210624" lon="-1.747709"><ele>311</ele><time>2020-01-31T13:02:57Z</time><name>PT9450</name></trkpt>
<trkpt lat="53.210625" lon="-1.747698"><ele>311</ele><time>2020-01-31T13:02:58Z</time><name>PT9451</name></trkpt>
<trkpt lat="53.210624" lon="-1.747673"><ele>312</ele><time>2020-01-31T13:03:00Z</time><name>PT9452</name></trkpt>
<trkpt lat="53.210619" lon="-1.747643"><ele>312</ele><time>2020-01-31T13:03:00Z</time><name>PT9453</name></trkpt>
<trkpt lat="53.210617" lon="-1.747613"><ele>312</ele><time>2020-01-31T13:03:01Z</time><name>PT9454</name></trkpt>
<trkpt lat="53.210616" lon="-1.747594"><ele>312</ele><time>2020-01-31T13:03:03Z</time><name>PT9455</name></trkpt>
<trkpt lat="53.210616" lon="-1.747583"><ele>312</ele><time>2020-01-31T13:03:03Z</time><name>PT9456</name></trkpt>
<trkpt lat="53.210616" lon="-1.747576"><ele>312</ele><time>2020-01-31T13:03:04Z</time><name>PT9457</name></trkpt>
<trkpt lat="53.210617" lon="-1.747558"><ele>313</ele><time>2020-01-31T13:03:06Z</time><name>PT9458</name></trkpt>
<trkpt lat="53.210617" lon="-1.747531"><ele>312</ele><time>2020-01-31T13:03:06Z</time><name>PT9459</name></trkpt>
<trkpt lat="53.210618" lon="-1.747495"><ele>313</ele><time>2020-01-31T13:03:07Z</time><name>PT9460</name></trkpt>
<trkpt lat="53.210619" lon="-1.747467"><ele>313</ele><time>2020-01-31T13:03:09Z</time><name>PT9461</name></trkpt>
<trkpt lat="53.210619" lon="-1.747447"><ele>313</ele><time>2020-01-31T13:03:09Z</time><name>PT9462</name></trkpt>
<trkpt lat="53.210618" lon="-1.747440"><ele>313</ele><time>2020-01-31T13:03:10Z</time><name>PT9463</name></trkpt>
<trkpt lat="53.210621" lon="-1.747431"><ele>313</ele><time>2020-01-31T13:03:12Z</time><name>PT9464</name></trkpt>
<trkpt lat="53.210621" lon="-1.747417"><ele>313</ele><time>2020-01-31T13:03:12Z</time><name>PT9465</name></trkpt>
<trkpt lat="53.210622" lon="-1.747390"><ele>312</ele><time>2020-01-31T13:03:13Z</time><name>PT9466</name></trkpt>
<trkpt lat="53.210623" lon="-1.747360"><ele>312</ele><time>2020-01-31T13:03:15Z</time><name>PT9467</name></trkpt>
<trkpt lat="53.210625" lon="-1.747332"><ele>312</ele><time>2020-01-31T13:03:15Z</time><name>PT9468</name></trkpt>
<trkpt lat="53.210625" lon="-1.747313"><ele>311</ele><time>2020-01-31T13:03:16Z</time><name>PT9469</name></trkpt>
<trkpt lat="53.210624" lon="-1.747297"><ele>312</ele><time>2020-01-31T13:03:18Z</time><name>PT9470</name></trkpt>
<trkpt lat="53.210623" lon="-1.747283"><ele>311</ele><time>2020-01-31T13:03:18Z</time><name>PT9471</name></trkpt>
<trkpt lat="53.210623" lon="-1.747264"><ele>312</ele><time>2020-01-31T13:03:19Z</time><name>PT9472</name></trkpt>
<trkpt lat="53.210626" lon="-1.747231"><ele>312</ele><time>2020-01-31T13:03:21Z</time><name>PT9473</name></trkpt>
<trkpt lat="53.210625" lon="-1.747203"><ele>312</ele><time>2020-01-31T13:03:21Z</time><name>PT9474</name></trkpt>
<trkpt lat="53.210624" lon="-1.747184"><ele>312</ele><time>2020-01-31T13:03:22Z</time><name>PT9475</name></trkpt>
<trkpt lat="53.210622" lon="-1.747173"><ele>312</ele><time>2020-01-31T13:03:24Z</time><name>PT9476</name></trkpt>
<trkpt lat="53.210622" lon="-1.747166"><ele>312</ele><time>2020-01-31T13:03:24Z</time><name>PT9477</name></trkpt>
<trkpt lat="53.210622" lon="-1.747154"><ele>312</ele><time>2020-01-31T13:03:25Z</time><name>PT9478</name></trkpt>
<trkpt lat="53.210621" lon="-1.747129"><ele>312</ele><time>2020-01-31T13:03:27Z</time><name>PT9479</name></trkpt>
<trkpt lat="53.210620" lon="-1.747098"><ele>312</ele><time>2020-01-31T13:03:27Z</time><name>PT9480</name></trkpt>
<trkpt lat="53.210620" lon="-1.747076"><ele>312</ele><time>2020-01-31T13:03:28Z</time><name>PT9481</name></trkpt>
<trkpt lat="53.210620" lon="-1.747062"><ele>312</ele><time>2020-01-31T13:03:30Z</time><name>PT9482</name></trkpt>
<trkpt lat="53.210622" lon="-1.747053"><ele>312</ele><time>2020-01-31T13:03:30Z</time><name>PT9483</name></trkpt>
<trkpt lat="53.210625" lon="-1.747036"><ele>312</ele><time>2020-01-31T13:03:31Z</time><name>PT9484</name></trkpt>
<trkpt lat="53.210624" lon="-1.747008"><ele>313</ele><time>2020-01-31T13:03:33Z</time><name>PT9485</name></trkpt>
<trkpt lat="53.210626" lon="-1.746979"><ele>313</ele><time>2020-01-31T13:03:33Z</time><name>PT9486</name></trkpt>
<trkpt lat="53.210626" lon="-1.746958"><ele>314</ele><time>2020-01-31T13:03:34Z</time><name>PT9487</name></trkpt>
<trkpt lat="53.210627" lon="-1.746947"><ele>314</ele><time>2020-01-31T13:03:36Z</time><name>PT9488</name></trkpt>
<trkpt lat="53.210627" lon="-1.746942"><ele>314</ele><time>2020-01-31T13:03:36Z</time><name>PT9489</name></trkpt>
<trkpt lat="53.210630" lon="-1.746939"><ele>314</ele><time>2020-01-31T13:03:37Z</time><name>PT9490</name></trkpt>
<trkpt lat="53.210627" lon="-1.746929"><ele>315</ele><time>2020-01-31T13:03:39Z</time><name>PT9491</name></trkpt>
<trkpt lat="53.210624" lon="-1.746924"><ele>315</ele><time>2020-01-31T13:03:39Z</time><name>PT9492</name></trkpt>
<trkpt lat="53.210624" lon="-1.746914"><ele>315</ele><time>2020-01-31T13:03:40Z</time><name>PT9493</name></trkpt>
<trkpt lat="53.210625" lon="-1.746909"><ele>316</ele><time>2020-01-31T13:03:42Z</time><name>PT9494</name></trkpt>
<trkpt lat="53.210626" lon="-1.746909"><ele>315</ele><time>2020-01-31T13:03:42Z</time><name>PT9495</name></trkpt>
<trkpt lat="53.210624" lon="-1.746909"><ele>315</ele><time>2020-01-31T13:03:43Z</time><name>PT9496</name></trkpt>
<trkpt lat="53.210624" lon="-1.746906"><ele>315</ele><time>2020-01-31T13:03:45Z</time><name>PT9497</name></trkpt>
<trkpt lat="53.210624" lon="-1.746900"><ele>315</ele><time>2020-01-31T13:03:45Z</time><name>PT9498</name></trkpt>
<trkpt lat="53.210625" lon="-1.746890"><ele>315</ele><time>2020-01-31T13:03:46Z</time><name>PT9499</name></trkpt>
<trkpt lat="53.210625" lon="-1.746888"><ele>315</ele><time>2020-01-31T13:03:48Z</time><name>PT9500</name></trkpt>
<trkpt lat="53.210623" lon="-1.746878"><ele>315</ele><time>2020-01-31T13:03:48Z</time><name>PT9501</name></trkpt>
<trkpt lat="53.210622" lon="-1.746862"><ele>315</ele><time>2020-01-31T13:03:49Z</time><name>PT9502</name></trkpt>
<trkpt lat="53.210622" lon="-1.746844"><ele>315</ele><time>2020-01-31T13:03:51Z</time><name>PT9503</name></trkpt>
<trkpt lat="53.210622" lon="-1.746825"><ele>315</ele><time>2020-01-31T13:03:51Z</time><name>PT9504</name></trkpt>
<trkpt lat="53.210624" lon="-1.746808"><ele>314</ele><time>2020-01-31T13:03:52Z</time><name>PT9505</name></trkpt>
<trkpt lat="53.210624" lon="-1.746793"><ele>314</ele><time>2020-01-31T13:03:54Z</time><name>PT9506</name></trkpt>
<trkpt lat="53.210615" lon="-1.746772"><ele>315</ele><time>2020-01-31T13:03:54Z</time><name>PT9507</name></trkpt>
<trkpt lat="53.210610" lon="-1.746752"><ele>315</ele><time>2020-01-31T13:03:55Z</time><name>PT9508</name></trkpt>
<trkpt lat="53.210608" lon="-1.746733"><ele>315</ele><time>2020-01-31T13:03:57Z</time><name>PT9509</name></trkpt>
<trkpt lat="53.210608" lon="-1.746711"><ele>315</ele><time>2020-01-31T13:03:57Z</time><name>PT9510</name></trkpt>
<trkpt lat="53.210608" lon="-1.746692"><ele>316</ele><time>2020-01-31T13:03:58Z</time><name>PT9511</name></trkpt>
<trkpt lat="53.210606" lon="-1.746676"><ele>316</ele><time>2020-01-31T13:04:00Z</time><name>PT9512</name></trkpt>
<trkpt lat="53.210603" lon="-1.746660"><ele>316</ele><time>2020-01-31T13:04:00Z</time><name>PT9513</name></trkpt>
<trkpt lat="53.210600" lon="-1.746641"><ele>316</ele><time>2020-01-31T13:04:01Z</time><name>PT9514</name></trkpt>
<trkpt lat="53.210598" lon="-1.746621"><ele>316</ele><time>2020-01-31T13:04:03Z</time><name>PT9515</name></trkpt>
<trkpt lat="53.210597" lon="-1.746601"><ele>316</ele><time>2020-01-31T13:04:03Z</time><name>PT9516</name></trkpt>
<trkpt lat="53.210594" lon="-1.746583"><ele>316</ele><time>2020-01-31T13:04:04Z</time><name>PT9517</name></trkpt>
<trkpt lat="53.210589" lon="-1.746563"><ele>316</ele><time>2020-01-31T13:04:06Z</time><name>PT9518</name></trkpt>
<trkpt lat="53.210585" lon="-1.746545"><ele>316</ele><time>2020-01-31T13:04:06Z</time><name>PT9519</name></trkpt>
<trkpt lat="53.210582" lon="-1.746525"><ele>316</ele><time>2020-01-31T13:04:07Z</time><name>PT9520</name></trkpt>
<trkpt lat="53.210578" lon="-1.746506"><ele>316</ele><time>2020-01-31T13:04:09Z</time><name>PT9521</name></trkpt>
<trkpt lat="53.210573" lon="-1.746490"><ele>316</ele><time>2020-01-31T13:04:09Z</time><name>PT9522</name></trkpt>
<trkpt lat="53.210566" lon="-1.746473"><ele>316</ele><time>2020-01-31T13:04:10Z</time><name>PT9523</name></trkpt>
<trkpt lat="53.210562" lon="-1.746455"><ele>316</ele><time>2020-01-31T13:04:12Z</time><name>PT9524</name></trkpt>
<trkpt lat="53.210560" lon="-1.746437"><ele>316</ele><time>2020-01-31T13:04:12Z</time><name>PT9525</name></trkpt>
<trkpt lat="53.210557" lon="-1.746417"><ele>316</ele><time>2020-01-31T13:04:13Z</time><name>PT9526</name></trkpt>
<trkpt lat="53.210553" lon="-1.746396"><ele>316</ele><time>2020-01-31T13:04:15Z</time><name>PT9527</name></trkpt>
<trkpt lat="53.210551" lon="-1.746378"><ele>316</ele><time>2020-01-31T13:04:15Z</time><name>PT9528</name></trkpt>
<trkpt lat="53.210548" lon="-1.746358"><ele>316</ele><time>2020-01-31T13:04:16Z</time><name>PT9529</name></trkpt>
<trkpt lat="53.210545" lon="-1.746336"><ele>316</ele><time>2020-01-31T13:04:18Z</time><name>PT9530</name></trkpt>
<trkpt lat="53.210543" lon="-1.746314"><ele>316</ele><time>2020-01-31T13:04:18Z</time><name>PT9531</name></trkpt>
<trkpt lat="53.210541" lon="-1.746295"><ele>316</ele><time>2020-01-31T13:04:19Z</time><name>PT9532</name></trkpt>
<trkpt lat="53.210539" lon="-1.746276"><ele>317</ele><time>2020-01-31T13:04:21Z</time><name>PT9533</name></trkpt>
<trkpt lat="53.210539" lon="-1.746260"><ele>317</ele><time>2020-01-31T13:04:21Z</time><name>PT9534</name></trkpt>
<trkpt lat="53.210538" lon="-1.746250"><ele>317</ele><time>2020-01-31T13:04:22Z</time><name>PT9535</name></trkpt>
<trkpt lat="53.210540" lon="-1.746245"><ele>317</ele><time>2020-01-31T13:04:24Z</time><name>PT9536</name></trkpt>
<trkpt lat="53.210541" lon="-1.746245"><ele>317</ele><time>2020-01-31T13:04:24Z</time><name>PT9537</name></trkpt>
<trkpt lat="53.210541" lon="-1.746245"><ele>317</ele><time>2020-01-31T13:04:25Z</time><name>PT9538</name></trkpt>
<trkpt lat="53.210542" lon="-1.746244"><ele>317</ele><time>2020-01-31T13:04:27Z</time><name>PT9539</name></trkpt>
<trkpt lat="53.210539" lon="-1.746238"><ele>318</ele><time>2020-01-31T13:04:33Z</time><name>PT9540</name></trkpt>
<trkpt lat="53.210536" lon="-1.746212"><ele>318</ele><time>2020-01-31T13:04:33Z</time><name>PT9541</name></trkpt>
<trkpt lat="53.210531" lon="-1.746192"><ele>318</ele><time>2020-01-31T13:04:34Z</time><name>PT9542</name></trkpt>
<trkpt lat="53.210527" lon="-1.746168"><ele>317</ele><time>2020-01-31T13:04:36Z</time><name>PT9543</name></trkpt>
<trkpt lat="53.210524" lon="-1.746144"><ele>317</ele><time>2020-01-31T13:04:36Z</time><name>PT9544</name></trkpt>
<trkpt lat="53.210522" lon="-1.746121"><ele>317</ele><time>2020-01-31T13:04:37Z</time><name>PT9545</name></trkpt>
<trkpt lat="53.210518" lon="-1.746096"><ele>317</ele><time>2020-01-31T13:04:39Z</time><name>PT9546</name></trkpt>
<trkpt lat="53.210513" lon="-1.746076"><ele>317</ele><time>2020-01-31T13:04:39Z</time><name>PT9547</name></trkpt>
<trkpt lat="53.210508" lon="-1.746058"><ele>317</ele><time>2020-01-31T13:04:40Z</time><name>PT9548</name></trkpt>
<trkpt lat="53.210505" lon="-1.746035"><ele>317</ele><time>2020-01-31T13:04:42Z</time><name>PT9549</name></trkpt>
<trkpt lat="53.210500" lon="-1.746011"><ele>317</ele><time>2020-01-31T13:04:42Z</time><name>PT9550</name></trkpt>
<trkpt lat="53.210494" lon="-1.745990"><ele>317</ele><time>2020-01-31T13:04:43Z</time><name>PT9551</name></trkpt>
<trkpt lat="53.210489" lon="-1.745967"><ele>317</ele><time>2020-01-31T13:04:45Z</time><name>PT9552</name></trkpt>
<trkpt lat="53.210486" lon="-1.745943"><ele>317</ele><time>2020-01-31T13:04:45Z</time><name>PT9553</name></trkpt>
<trkpt lat="53.210482" lon="-1.745919"><ele>317</ele><time>2020-01-31T13:04:46Z</time><name>PT9554</name></trkpt>
<trkpt lat="53.210476" lon="-1.745899"><ele>316</ele><time>2020-01-31T13:04:48Z</time><name>PT9555</name></trkpt>
<trkpt lat="53.210471" lon="-1.745876"><ele>316</ele><time>2020-01-31T13:04:48Z</time><name>PT9556</name></trkpt>
<trkpt lat="53.210467" lon="-1.745853"><ele>316</ele><time>2020-01-31T13:04:49Z</time><name>PT9557</name></trkpt>
<trkpt lat="53.210462" lon="-1.745830"><ele>316</ele><time>2020-01-31T13:04:51Z</time><name>PT9558</name></trkpt>
<trkpt lat="53.210459" lon="-1.745808"><ele>316</ele><time>2020-01-31T13:04:51Z</time><name>PT9559</name></trkpt>
<trkpt lat="53.210457" lon="-1.745784"><ele>316</ele><time>2020-01-31T13:04:52Z</time><name>PT9560</name></trkpt>
<trkpt lat="53.210456" lon="-1.745763"><ele>316</ele><time>2020-01-31T13:04:54Z</time><name>PT9561</name></trkpt>
<trkpt lat="53.210451" lon="-1.745742"><ele>316</ele><time>2020-01-31T13:04:54Z</time><name>PT9562</name></trkpt>
<trkpt lat="53.210445" lon="-1.745719"><ele>316</ele><time>2020-01-31T13:04:55Z</time><name>PT9563</name></trkpt>
<trkpt lat="53.210441" lon="-1.745698"><ele>316</ele><time>2020-01-31T13:04:57Z</time><name>PT9564</name></trkpt>
<trkpt lat="53.210436" lon="-1.745678"><ele>316</ele><time>2020-01-31T13:04:57Z</time><name>PT9565</name></trkpt>
<trkpt lat="53.210431" lon="-1.745657"><ele>316</ele><time>2020-01-31T13:04:58Z</time><name>PT9566</name></trkpt>
<trkpt lat="53.210427" lon="-1.745637"><ele>316</ele><time>2020-01-31T13:05:00Z</time><name>PT9567</name></trkpt>
<trkpt lat="53.210425" lon="-1.745617"><ele>316</ele><time>2020-01-31T13:05:00Z</time><name>PT9568</name></trkpt>
<trkpt lat="53.210421" lon="-1.745596"><ele>316</ele><time>2020-01-31T13:05:01Z</time><name>PT9569</name></trkpt>
<trkpt lat="53.210417" lon="-1.745575"><ele>315</ele><time>2020-01-31T13:05:03Z</time><name>PT9570</name></trkpt>
<trkpt lat="53.210410" lon="-1.745552"><ele>315</ele><time>2020-01-31T13:05:03Z</time><name>PT9571</name></trkpt>
<trkpt lat="53.210405" lon="-1.745531"><ele>315</ele><time>2020-01-31T13:05:04Z</time><name>PT9572</name></trkpt>
<trkpt lat="53.210399" lon="-1.745513"><ele>315</ele><time>2020-01-31T13:05:06Z</time><name>PT9573</name></trkpt>
<trkpt lat="53.210393" lon="-1.745492"><ele>315</ele><time>2020-01-31T13:05:06Z</time><name>PT9574</name></trkpt>
<trkpt lat="53.210389" lon="-1.745475"><ele>315</ele><time>2020-01-31T13:05:07Z</time><name>PT9575</name></trkpt>
<trkpt lat="53.210385" lon="-1.745450"><ele>315</ele><time>2020-01-31T13:05:09Z</time><name>PT9576</name></trkpt>
<trkpt lat="53.210382" lon="-1.745426"><ele>315</ele><time>2020-01-31T13:05:09Z</time><name>PT9577</name></trkpt>
<trkpt lat="53.210377" lon="-1.745405"><ele>315</ele><time>2020-01-31T13:05:10Z</time><name>PT9578</name></trkpt>
<trkpt lat="53.210372" lon="-1.745382"><ele>315</ele><time>2020-01-31T13:05:12Z</time><name>PT9579</name></trkpt>
<trkpt lat="53.210368" lon="-1.745362"><ele>315</ele><time>2020-01-31T13:05:12Z</time><name>PT9580</name></trkpt>
<trkpt lat="53.210363" lon="-1.745346"><ele>315</ele><time>2020-01-31T13:05:13Z</time><name>PT9581</name></trkpt>
<trkpt lat="53.210360" lon="-1.745327"><ele>315</ele><time>2020-01-31T13:05:15Z</time><name>PT9582</name></trkpt>
<trkpt lat="53.210358" lon="-1.745304"><ele>315</ele><time>2020-01-31T13:05:15Z</time><name>PT9583</name></trkpt>
<trkpt lat="53.210354" lon="-1.745283"><ele>315</ele><time>2020-01-31T13:05:16Z</time><name>PT9584</name></trkpt>
<trkpt lat="53.210352" lon="-1.745266"><ele>316</ele><time>2020-01-31T13:05:18Z</time><name>PT9585</name></trkpt>
<trkpt lat="53.210348" lon="-1.745249"><ele>316</ele><time>2020-01-31T13:05:18Z</time><name>PT9586</name></trkpt>
<trkpt lat="53.210343" lon="-1.745227"><ele>316</ele><time>2020-01-31T13:05:19Z</time><name>PT9587</name></trkpt>
<trkpt lat="53.210341" lon="-1.745203"><ele>317</ele><time>2020-01-31T13:05:21Z</time><name>PT9588</name></trkpt>
<trkpt lat="53.210340" lon="-1.745187"><ele>317</ele><time>2020-01-31T13:05:21Z</time><name>PT9589</name></trkpt>
<trkpt lat="53.210337" lon="-1.745174"><ele>317</ele><time>2020-01-31T13:05:22Z</time><name>PT9590</name></trkpt>
<trkpt lat="53.210335" lon="-1.745154"><ele>317</ele><time>2020-01-31T13:05:24Z</time><name>PT9591</name></trkpt>
<trkpt lat="53.210330" lon="-1.745138"><ele>317</ele><time>2020-01-31T13:05:24Z</time><name>PT9592</name></trkpt>
<trkpt lat="53.210329" lon="-1.745120"><ele>317</ele><time>2020-01-31T13:05:25Z</time><name>PT9593</name></trkpt>
<trkpt lat="53.210325" lon="-1.745092"><ele>317</ele><time>2020-01-31T13:05:27Z</time><name>PT9594</name></trkpt>
<trkpt lat="53.210322" lon="-1.745067"><ele>317</ele><time>2020-01-31T13:05:27Z</time><name>PT9595</name></trkpt>
<trkpt lat="53.210319" lon="-1.745044"><ele>317</ele><time>2020-01-31T13:05:28Z</time><name>PT9596</name></trkpt>
<trkpt lat="53.210313" lon="-1.745026"><ele>317</ele><time>2020-01-31T13:05:30Z</time><name>PT9597</name></trkpt>
<trkpt lat="53.210306" lon="-1.745003"><ele>317</ele><time>2020-01-31T13:05:30Z</time><name>PT9598</name></trkpt>
<trkpt lat="53.210298" lon="-1.744983"><ele>317</ele><time>2020-01-31T13:05:31Z</time><name>PT9599</name></trkpt>
<trkpt lat="53.210293" lon="-1.744959"><ele>317</ele><time>2020-01-31T13:05:33Z</time><name>PT9600</name></trkpt>
<trkpt lat="53.210289" lon="-1.744941"><ele>317</ele><time>2020-01-31T13:05:33Z</time><name>PT9601</name></trkpt>
<trkpt lat="53.210285" lon="-1.744924"><ele>317</ele><time>2020-01-31T13:05:34Z</time><name>PT9602</name></trkpt>
<trkpt lat="53.210283" lon="-1.744904"><ele>317</ele><time>2020-01-31T13:05:36Z</time><name>PT9603</name></trkpt>
<trkpt lat="53.210279" lon="-1.744884"><ele>318</ele><time>2020-01-31T13:05:36Z</time><name>PT9604</name></trkpt>
<trkpt lat="53.210275" lon="-1.744864"><ele>318</ele><time>2020-01-31T13:05:37Z</time><name>PT9605</name></trkpt>
<trkpt lat="53.210268" lon="-1.744844"><ele>318</ele><time>2020-01-31T13:05:39Z</time><name>PT9606</name></trkpt>
<trkpt lat="53.210261" lon="-1.744826"><ele>318</ele><time>2020-01-31T13:05:39Z</time><name>PT9607</name></trkpt>
<trkpt lat="53.210256" lon="-1.744806"><ele>318</ele><time>2020-01-31T13:05:40Z</time><name>PT9608</name></trkpt>
<trkpt lat="53.210252" lon="-1.744787"><ele>318</ele><time>2020-01-31T13:05:42Z</time><name>PT9609</name></trkpt>
<trkpt lat="53.210247" lon="-1.744773"><ele>318</ele><time>2020-01-31T13:05:42Z</time><name>PT9610</name></trkpt>
<trkpt lat="53.210242" lon="-1.744760"><ele>319</ele><time>2020-01-31T13:05:43Z</time><name>PT9611</name></trkpt>
<trkpt lat="53.210239" lon="-1.744743"><ele>319</ele><time>2020-01-31T13:05:45Z</time><name>PT9612</name></trkpt>
<trkpt lat="53.210235" lon="-1.744725"><ele>319</ele><time>2020-01-31T13:05:45Z</time><name>PT9613</name></trkpt>
<trkpt lat="53.210233" lon="-1.744706"><ele>320</ele><time>2020-01-31T13:05:46Z</time><name>PT9614</name></trkpt>
<trkpt lat="53.210232" lon="-1.744685"><ele>320</ele><time>2020-01-31T13:05:48Z</time><name>PT9615</name></trkpt>
<trkpt lat="53.210233" lon="-1.744668"><ele>320</ele><time>2020-01-31T13:05:48Z</time><name>PT9616</name></trkpt>
<trkpt lat="53.210232" lon="-1.744651"><ele>321</ele><time>2020-01-31T13:05:49Z</time><name>PT9617</name></trkpt>
<trkpt lat="53.210231" lon="-1.744638"><ele>321</ele><time>2020-01-31T13:05:51Z</time><name>PT9618</name></trkpt>
<trkpt lat="53.210234" lon="-1.744628"><ele>321</ele><time>2020-01-31T13:05:51Z</time><name>PT9619</name></trkpt>
<trkpt lat="53.210235" lon="-1.744623"><ele>321</ele><time>2020-01-31T13:05:53Z</time><name>PT9620</name></trkpt>
<trkpt lat="53.210234" lon="-1.744619"><ele>321</ele><time>2020-01-31T13:05:54Z</time><name>PT9621</name></trkpt>
<trkpt lat="53.210232" lon="-1.744616"><ele>321</ele><time>2020-01-31T13:05:54Z</time><name>PT9622</name></trkpt>
<trkpt lat="53.210233" lon="-1.744610"><ele>321</ele><time>2020-01-31T13:05:55Z</time><name>PT9623</name></trkpt>
<trkpt lat="53.210234" lon="-1.744608"><ele>321</ele><time>2020-01-31T13:06:00Z</time><name>PT9624</name></trkpt>
<trkpt lat="53.210233" lon="-1.744601"><ele>322</ele><time>2020-01-31T13:06:00Z</time><name>PT9625</name></trkpt>
<trkpt lat="53.210233" lon="-1.744598"><ele>322</ele><time>2020-01-31T13:06:01Z</time><name>PT9626</name></trkpt>
<trkpt lat="53.210232" lon="-1.744596"><ele>322</ele><time>2020-01-31T13:06:03Z</time><name>PT9627</name></trkpt>
<trkpt lat="53.210232" lon="-1.744589"><ele>322</ele><time>2020-01-31T13:06:21Z</time><name>PT9628</name></trkpt>
<trkpt lat="53.210230" lon="-1.744577"><ele>322</ele><time>2020-01-31T13:06:21Z</time><name>PT9629</name></trkpt>
<trkpt lat="53.210229" lon="-1.744565"><ele>322</ele><time>2020-01-31T13:06:22Z</time><name>PT9630</name></trkpt>
<trkpt lat="53.210227" lon="-1.744546"><ele>321</ele><time>2020-01-31T13:06:24Z</time><name>PT9631</name></trkpt>
<trkpt lat="53.210222" lon="-1.744524"><ele>321</ele><time>2020-01-31T13:06:24Z</time><name>PT9632</name></trkpt>
<trkpt lat="53.210217" lon="-1.744503"><ele>321</ele><time>2020-01-31T13:06:25Z</time><name>PT9633</name></trkpt>
<trkpt lat="53.210214" lon="-1.744482"><ele>321</ele><time>2020-01-31T13:06:27Z</time><name>PT9634</name></trkpt>
<trkpt lat="53.210213" lon="-1.744462"><ele>321</ele><time>2020-01-31T13:06:27Z</time><name>PT9635</name></trkpt>
<trkpt lat="53.210213" lon="-1.744442"><ele>320</ele><time>2020-01-31T13:06:28Z</time><name>PT9636</name></trkpt>
<trkpt lat="53.210215" lon="-1.744421"><ele>320</ele><time>2020-01-31T13:06:30Z</time><name>PT9637</name></trkpt>
<trkpt lat="53.210216" lon="-1.744397"><ele>320</ele><time>2020-01-31T13:06:30Z</time><name>PT9638</name></trkpt>
<trkpt lat="53.210215" lon="-1.744377"><ele>320</ele><time>2020-01-31T13:06:31Z</time><name>PT9639</name></trkpt>
<trkpt lat="53.210217" lon="-1.744363"><ele>321</ele><time>2020-01-31T13:06:33Z</time><name>PT9640</name></trkpt>
<trkpt lat="53.210215" lon="-1.744345"><ele>320</ele><time>2020-01-31T13:06:33Z</time><name>PT9641</name></trkpt>
<trkpt lat="53.210214" lon="-1.744326"><ele>320</ele><time>2020-01-31T13:06:34Z</time><name>PT9642</name></trkpt>
<trkpt lat="53.210214" lon="-1.744306"><ele>320</ele><time>2020-01-31T13:06:36Z</time><name>PT9643</name></trkpt>
<trkpt lat="53.210214" lon="-1.744285"><ele>320</ele><time>2020-01-31T13:06:36Z</time><name>PT9644</name></trkpt>
<trkpt lat="53.210216" lon="-1.744265"><ele>319</ele><time>2020-01-31T13:06:37Z</time><name>PT9645</name></trkpt>
<trkpt lat="53.210215" lon="-1.744245"><ele>319</ele><time>2020-01-31T13:06:39Z</time><name>PT9646</name></trkpt>
<trkpt lat="53.210218" lon="-1.744226"><ele>319</ele><time>2020-01-31T13:06:39Z</time><name>PT9647</name></trkpt>
<trkpt lat="53.210217" lon="-1.744211"><ele>319</ele><time>2020-01-31T13:06:40Z</time><name>PT9648</name></trkpt>
<trkpt lat="53.210218" lon="-1.744196"><ele>319</ele><time>2020-01-31T13:06:42Z</time><name>PT9649</name></trkpt>
<trkpt lat="53.210219" lon="-1.744178"><ele>319</ele><time>2020-01-31T13:06:42Z</time><name>PT9650</name></trkpt>
<trkpt lat="53.210225" lon="-1.744165"><ele>319</ele><time>2020-01-31T13:06:43Z</time><name>PT9651</name></trkpt>
<trkpt lat="53.210228" lon="-1.744150"><ele>319</ele><time>2020-01-31T13:06:45Z</time><name>PT9652</name></trkpt>
<trkpt lat="53.210227" lon="-1.744136"><ele>319</ele><time>2020-01-31T13:06:45Z</time><name>PT9653</name></trkpt>
<trkpt lat="53.210223" lon="-1.744120"><ele>319</ele><time>2020-01-31T13:06:46Z</time><name>PT9654</name></trkpt>
<trkpt lat="53.210220" lon="-1.744104"><ele>319</ele><time>2020-01-31T13:06:48Z</time><name>PT9655</name></trkpt>
<trkpt lat="53.210220" lon="-1.744085"><ele>319</ele><time>2020-01-31T13:06:48Z</time><name>PT9656</name></trkpt>
<trkpt lat="53.210220" lon="-1.744063"><ele>319</ele><time>2020-01-31T13:06:49Z</time><name>PT9657</name></trkpt>
<trkpt lat="53.210218" lon="-1.744039"><ele>319</ele><time>2020-01-31T13:06:51Z</time><name>PT9658</name></trkpt>
<trkpt lat="53.210211" lon="-1.744018"><ele>319</ele><time>2020-01-31T13:06:51Z</time><name>PT9659</name></trkpt>
<trkpt lat="53.210205" lon="-1.743998"><ele>319</ele><time>2020-01-31T13:06:52Z</time><name>PT9660</name></trkpt>
<trkpt lat="53.210199" lon="-1.743977"><ele>319</ele><time>2020-01-31T13:06:54Z</time><name>PT9661</name></trkpt>
<trkpt lat="53.210193" lon="-1.743962"><ele>318</ele><time>2020-01-31T13:06:54Z</time><name>PT9662</name></trkpt>
<trkpt lat="53.210187" lon="-1.743943"><ele>318</ele><time>2020-01-31T13:06:55Z</time><name>PT9663</name></trkpt>
<trkpt lat="53.210180" lon="-1.743924"><ele>319</ele><time>2020-01-31T13:06:57Z</time><name>PT9664</name></trkpt>
<trkpt lat="53.210175" lon="-1.743910"><ele>319</ele><time>2020-01-31T13:06:57Z</time><name>PT9665</name></trkpt>
<trkpt lat="53.210169" lon="-1.743899"><ele>319</ele><time>2020-01-31T13:06:58Z</time><name>PT9666</name></trkpt>
<trkpt lat="53.210164" lon="-1.743889"><ele>318</ele><time>2020-01-31T13:07:00Z</time><name>PT9667</name></trkpt>
<trkpt lat="53.210160" lon="-1.743877"><ele>319</ele><time>2020-01-31T13:07:00Z</time><name>PT9668</name></trkpt>
<trkpt lat="53.210157" lon="-1.743863"><ele>319</ele><time>2020-01-31T13:07:01Z</time><name>PT9669</name></trkpt>
<trkpt lat="53.210152" lon="-1.743852"><ele>318</ele><time>2020-01-31T13:07:03Z</time><name>PT9670</name></trkpt>
<trkpt lat="53.210147" lon="-1.743837"><ele>319</ele><time>2020-01-31T13:07:03Z</time><name>PT9671</name></trkpt>
<trkpt lat="53.210143" lon="-1.743821"><ele>319</ele><time>2020-01-31T13:07:04Z</time><name>PT9672</name></trkpt>
<trkpt lat="53.210140" lon="-1.743803"><ele>319</ele><time>2020-01-31T13:07:06Z</time><name>PT9673</name></trkpt>
<trkpt lat="53.210138" lon="-1.743789"><ele>319</ele><time>2020-01-31T13:07:06Z</time><name>PT9674</name></trkpt>
<trkpt lat="53.210136" lon="-1.743775"><ele>319</ele><time>2020-01-31T13:07:07Z</time><name>PT9675</name></trkpt>
<trkpt lat="53.210135" lon="-1.743760"><ele>319</ele><time>2020-01-31T13:07:09Z</time><name>PT9676</name></trkpt>
<trkpt lat="53.210134" lon="-1.743742"><ele>319</ele><time>2020-01-31T13:07:09Z</time><name>PT9677</name></trkpt>
<trkpt lat="53.210131" lon="-1.743729"><ele>319</ele><time>2020-01-31T13:07:10Z</time><name>PT9678</name></trkpt>
<trkpt lat="53.210130" lon="-1.743716"><ele>319</ele><time>2020-01-31T13:07:12Z</time><name>PT9679</name></trkpt>
<trkpt lat="53.210132" lon="-1.743703"><ele>319</ele><time>2020-01-31T13:07:12Z</time><name>PT9680</name></trkpt>
<trkpt lat="53.210131" lon="-1.743694"><ele>319</ele><time>2020-01-31T13:07:13Z</time><name>PT9681</name></trkpt>
<trkpt lat="53.210132" lon="-1.743689"><ele>319</ele><time>2020-01-31T13:07:15Z</time><name>PT9682</name></trkpt>
<trkpt lat="53.210133" lon="-1.743688"><ele>320</ele><time>2020-01-31T13:07:15Z</time><name>PT9683</name></trkpt>
<trkpt lat="53.210132" lon="-1.743686"><ele>320</ele><time>2020-01-31T13:07:16Z</time><name>PT9684</name></trkpt>
<trkpt lat="53.210133" lon="-1.743676"><ele>320</ele><time>2020-01-31T13:07:24Z</time><name>PT9685</name></trkpt>
<trkpt lat="53.210134" lon="-1.743658"><ele>320</ele><time>2020-01-31T13:07:25Z</time><name>PT9686</name></trkpt>
<trkpt lat="53.210134" lon="-1.743642"><ele>320</ele><time>2020-01-31T13:07:27Z</time><name>PT9687</name></trkpt>
<trkpt lat="53.210136" lon="-1.743624"><ele>320</ele><time>2020-01-31T13:07:27Z</time><name>PT9688</name></trkpt>
<trkpt lat="53.210140" lon="-1.743605"><ele>320</ele><time>2020-01-31T13:07:28Z</time><name>PT9689</name></trkpt>
<trkpt lat="53.210145" lon="-1.743589"><ele>320</ele><time>2020-01-31T13:07:30Z</time><name>PT9690</name></trkpt>
<trkpt lat="53.210153" lon="-1.743574"><ele>320</ele><time>2020-01-31T13:07:30Z</time><name>PT9691</name></trkpt>
<trkpt lat="53.210160" lon="-1.743567"><ele>320</ele><time>2020-01-31T13:07:31Z</time><name>PT9692</name></trkpt>
<trkpt lat="53.210163" lon="-1.743557"><ele>320</ele><time>2020-01-31T13:07:33Z</time><name>PT9693</name></trkpt>
<trkpt lat="53.210171" lon="-1.743554"><ele>320</ele><time>2020-01-31T13:07:33Z</time><name>PT9694</name></trkpt>
<trkpt lat="53.210179" lon="-1.743552"><ele>320</ele><time>2020-01-31T13:07:34Z</time><name>PT9695</name></trkpt>
<trkpt lat="53.210188" lon="-1.743560"><ele>320</ele><time>2020-01-31T13:07:36Z</time><name>PT9696</name></trkpt>
<trkpt lat="53.210197" lon="-1.743558"><ele>320</ele><time>2020-01-31T13:07:36Z</time><name>PT9697</name></trkpt>
<trkpt lat="53.210208" lon="-1.743555"><ele>320</ele><time>2020-01-31T13:07:37Z</time><name>PT9698</name></trkpt>
<trkpt lat="53.210217" lon="-1.743545"><ele>321</ele><time>2020-01-31T13:07:39Z</time><name>PT9699</name></trkpt>
<trkpt lat="53.210225" lon="-1.743530"><ele>321</ele><time>2020-01-31T13:07:39Z</time><name>PT9700</name></trkpt>
<trkpt lat="53.210229" lon="-1.743517"><ele>321</ele><time>2020-01-31T13:07:40Z</time><name>PT9701</name></trkpt>
<trkpt lat="53.210235" lon="-1.743504"><ele>322</ele><time>2020-01-31T13:07:42Z</time><name>PT9702</name></trkpt>
<trkpt lat="53.210239" lon="-1.743494"><ele>322</ele><time>2020-01-31T13:07:42Z</time><name>PT9703</name></trkpt>
<trkpt lat="53.210241" lon="-1.743480"><ele>323</ele><time>2020-01-31T13:07:43Z</time><name>PT9704</name></trkpt>
<trkpt lat="53.210242" lon="-1.743466"><ele>323</ele><time>2020-01-31T13:07:45Z</time><name>PT9705</name></trkpt>
<trkpt lat="53.210243" lon="-1.743451"><ele>323</ele><time>2020-01-31T13:07:45Z</time><name>PT9706</name></trkpt>
<trkpt lat="53.210244" lon="-1.743443"><ele>324</ele><time>2020-01-31T13:07:46Z</time><name>PT9707</name></trkpt>
<trkpt lat="53.210245" lon="-1.743434"><ele>324</ele><time>2020-01-31T13:07:48Z</time><name>PT9708</name></trkpt>
<trkpt lat="53.210245" lon="-1.743423"><ele>323</ele><time>2020-01-31T13:07:48Z</time><name>PT9709</name></trkpt>
<trkpt lat="53.210246" lon="-1.743414"><ele>324</ele><time>2020-01-31T13:07:49Z</time><name>PT9710</name></trkpt>
<trkpt lat="53.210248" lon="-1.743403"><ele>324</ele><time>2020-01-31T13:07:51Z</time><name>PT9711</name></trkpt>
<trkpt lat="53.210254" lon="-1.743393"><ele>324</ele><time>2020-01-31T13:07:51Z</time><name>PT9712</name></trkpt>
<trkpt lat="53.210256" lon="-1.743391"><ele>325</ele><time>2020-01-31T13:07:52Z</time><name>PT9713</name></trkpt>
<trkpt lat="53.210257" lon="-1.743392"><ele>326</ele><time>2020-01-31T13:07:54Z</time><name>PT9714</name></trkpt>
<trkpt lat="53.210258" lon="-1.743392"><ele>326</ele><time>2020-01-31T13:07:54Z</time><name>PT9715</name></trkpt>
<trkpt lat="53.210256" lon="-1.743384"><ele>326</ele><time>2020-01-31T13:07:57Z</time><name>PT9716</name></trkpt>
<trkpt lat="53.210254" lon="-1.743372"><ele>326</ele><time>2020-01-31T13:07:58Z</time><name>PT9717</name></trkpt>
<trkpt lat="53.210250" lon="-1.743362"><ele>326</ele><time>2020-01-31T13:08:00Z</time><name>PT9718</name></trkpt>
<trkpt lat="53.210249" lon="-1.743348"><ele>325</ele><time>2020-01-31T13:08:00Z</time><name>PT9719</name></trkpt>
<trkpt lat="53.210247" lon="-1.743336"><ele>325</ele><time>2020-01-31T13:08:01Z</time><name>PT9720</name></trkpt>
<trkpt lat="53.210247" lon="-1.743324"><ele>325</ele><time>2020-01-31T13:08:03Z</time><name>PT9721</name></trkpt>
<trkpt lat="53.210248" lon="-1.743314"><ele>325</ele><time>2020-01-31T13:08:03Z</time><name>PT9722</name></trkpt>
<trkpt lat="53.210247" lon="-1.743307"><ele>325</ele><time>2020-01-31T13:08:04Z</time><name>PT9723</name></trkpt>
<trkpt lat="53.210246" lon="-1.743300"><ele>325</ele><time>2020-01-31T13:08:06Z</time><name>PT9724</name></trkpt>
<trkpt lat="53.210247" lon="-1.743295"><ele>324</ele><time>2020-01-31T13:08:06Z</time><name>PT9725</name></trkpt>
<trkpt lat="53.210249" lon="-1.743290"><ele>324</ele><time>2020-01-31T13:08:07Z</time><name>PT9726</name></trkpt>
<trkpt lat="53.210250" lon="-1.743277"><ele>324</ele><time>2020-01-31T13:08:09Z</time><name>PT9727</name></trkpt>
<trkpt lat="53.210251" lon="-1.743271"><ele>324</ele><time>2020-01-31T13:08:09Z</time><name>PT9728</name></trkpt>
<trkpt lat="53.210249" lon="-1.743265"><ele>324</ele><time>2020-01-31T13:08:10Z</time><name>PT9729</name></trkpt>
<trkpt lat="53.210248" lon="-1.743257"><ele>324</ele><time>2020-01-31T13:08:13Z</time><name>PT9730</name></trkpt>
<trkpt lat="53.210247" lon="-1.743248"><ele>323</ele><time>2020-01-31T13:08:15Z</time><name>PT9731</name></trkpt>
<trkpt lat="53.210247" lon="-1.743230"><ele>323</ele><time>2020-01-31T13:08:15Z</time><name>PT9732</name></trkpt>
<trkpt lat="53.210244" lon="-1.743227"><ele>323</ele><time>2020-01-31T13:08:16Z</time><name>PT9733</name></trkpt>
<trkpt lat="53.210248" lon="-1.743224"><ele>323</ele><time>2020-01-31T13:08:18Z</time><name>PT9734</name></trkpt>
<trkpt lat="53.210252" lon="-1.743220"><ele>323</ele><time>2020-01-31T13:08:18Z</time><name>PT9735</name></trkpt>
<trkpt lat="53.210249" lon="-1.743213"><ele>323</ele><time>2020-01-31T13:08:19Z</time><name>PT9736</name></trkpt>
<trkpt lat="53.210247" lon="-1.743209"><ele>323</ele><time>2020-01-31T13:08:27Z</time><name>PT9737</name></trkpt>
<trkpt lat="53.210248" lon="-1.743207"><ele>323</ele><time>2020-01-31T13:08:27Z</time><name>PT9738</name></trkpt>
<trkpt lat="53.210250" lon="-1.743209"><ele>324</ele><time>2020-01-31T13:08:28Z</time><name>PT9739</name></trkpt>
<trkpt lat="53.210251" lon="-1.743211"><ele>323</ele><time>2020-01-31T13:08:30Z</time><name>PT9740</name></trkpt>
<trkpt lat="53.210252" lon="-1.743209"><ele>323</ele><time>2020-01-31T13:08:30Z</time><name>PT9741</name></trkpt>
<trkpt lat="53.210251" lon="-1.743207"><ele>323</ele><time>2020-01-31T13:08:31Z</time><name>PT9742</name></trkpt>
<trkpt lat="53.210249" lon="-1.743207"><ele>323</ele><time>2020-01-31T13:08:36Z</time><name>PT9743</name></trkpt>
<trkpt lat="53.210250" lon="-1.743202"><ele>323</ele><time>2020-01-31T13:08:36Z</time><name>PT9744</name></trkpt>
<trkpt lat="53.210254" lon="-1.743206"><ele>323</ele><time>2020-01-31T13:08:37Z</time><name>PT9745</name></trkpt>
<trkpt lat="53.210257" lon="-1.743215"><ele>323</ele><time>2020-01-31T13:08:39Z</time><name>PT9746</name></trkpt>
<trkpt lat="53.210260" lon="-1.743223"><ele>323</ele><time>2020-01-31T13:08:39Z</time><name>PT9747</name></trkpt>
<trkpt lat="53.210262" lon="-1.743237"><ele>323</ele><time>2020-01-31T13:08:40Z</time><name>PT9748</name></trkpt>
<trkpt lat="53.210270" lon="-1.743246"><ele>322</ele><time>2020-01-31T13:08:42Z</time><name>PT9749</name></trkpt>
<trkpt lat="53.210279" lon="-1.743263"><ele>322</ele><time>2020-01-31T13:08:42Z</time><name>PT9750</name></trkpt>
<trkpt lat="53.210287" lon="-1.743277"><ele>322</ele><time>2020-01-31T13:08:43Z</time><name>PT9751</name></trkpt>
<trkpt lat="53.210296" lon="-1.743285"><ele>322</ele><time>2020-01-31T13:08:45Z</time><name>PT9752</name></trkpt>
<trkpt lat="53.210303" lon="-1.743289"><ele>321</ele><time>2020-01-31T13:08:45Z</time><name>PT9753</name></trkpt>
<trkpt lat="53.210310" lon="-1.743288"><ele>321</ele><time>2020-01-31T13:08:46Z</time><name>PT9754</name></trkpt>
<trkpt lat="53.210317" lon="-1.743290"><ele>321</ele><time>2020-01-31T13:08:48Z</time><name>PT9755</name></trkpt>
<trkpt lat="53.210324" lon="-1.743291"><ele>321</ele><time>2020-01-31T13:08:48Z</time><name>PT9756</name></trkpt>
<trkpt lat="53.210329" lon="-1.743296"><ele>320</ele><time>2020-01-31T13:08:49Z</time><name>PT9757</name></trkpt>
<trkpt lat="53.210334" lon="-1.743302"><ele>321</ele><time>2020-01-31T13:08:51Z</time><name>PT9758</name></trkpt>
<trkpt lat="53.210340" lon="-1.743308"><ele>321</ele><time>2020-01-31T13:08:51Z</time><name>PT9759</name></trkpt>
<trkpt lat="53.210345" lon="-1.743306"><ele>321</ele><time>2020-01-31T13:08:52Z</time><name>PT9760</name></trkpt>
<trkpt lat="53.210348" lon="-1.743309"><ele>321</ele><time>2020-01-31T13:08:54Z</time><name>PT9761</name></trkpt>
<trkpt lat="53.210349" lon="-1.743307"><ele>322</ele><time>2020-01-31T13:08:54Z</time><name>PT9762</name></trkpt>
<trkpt lat="53.210350" lon="-1.743308"><ele>322</ele><time>2020-01-31T13:08:55Z</time><name>PT9763</name></trkpt>
<trkpt lat="53.210354" lon="-1.743307"><ele>322</ele><time>2020-01-31T13:08:57Z</time><name>PT9764</name></trkpt>
<trkpt lat="53.210359" lon="-1.743306"><ele>322</ele><time>2020-01-31T13:08:57Z</time><name>PT9765</name></trkpt>
<trkpt lat="53.210364" lon="-1.743309"><ele>322</ele><time>2020-01-31T13:08:58Z</time><name>PT9766</name></trkpt>
<trkpt lat="53.210370" lon="-1.743318"><ele>322</ele><time>2020-01-31T13:09:00Z</time><name>PT9767</name></trkpt>
<trkpt lat="53.210371" lon="-1.743324"><ele>322</ele><time>2020-01-31T13:09:00Z</time><name>PT9768</name></trkpt>
<trkpt lat="53.210372" lon="-1.743327"><ele>322</ele><time>2020-01-31T13:09:01Z</time><name>PT9769</name></trkpt>
<trkpt lat="53.210376" lon="-1.743327"><ele>322</ele><time>2020-01-31T13:09:03Z</time><name>PT9770</name></trkpt>
<trkpt lat="53.210383" lon="-1.743330"><ele>322</ele><time>2020-01-31T13:09:03Z</time><name>PT9771</name></trkpt>
<trkpt lat="53.210389" lon="-1.743336"><ele>323</ele><time>2020-01-31T13:09:04Z</time><name>PT9772</name></trkpt>
<trkpt lat="53.210394" lon="-1.743339"><ele>323</ele><time>2020-01-31T13:09:06Z</time><name>PT9773</name></trkpt>
<trkpt lat="53.210397" lon="-1.743343"><ele>323</ele><time>2020-01-31T13:09:06Z</time><name>PT9774</name></trkpt>
<trkpt lat="53.210396" lon="-1.743345"><ele>323</ele><time>2020-01-31T13:09:07Z</time><name>PT9775</name></trkpt>
<trkpt lat="53.210396" lon="-1.743348"><ele>323</ele><time>2020-01-31T13:09:09Z</time><name>PT9776</name></trkpt>
<trkpt lat="53.210391" lon="-1.743354"><ele>323</ele><time>2020-01-31T13:09:09Z</time><name>PT9777</name></trkpt>
<trkpt lat="53.210388" lon="-1.743356"><ele>322</ele><time>2020-01-31T13:09:10Z</time><name>PT9778</name></trkpt>
<trkpt lat="53.210385" lon="-1.743366"><ele>322</ele><time>2020-01-31T13:09:12Z</time><name>PT9779</name></trkpt>
<trkpt lat="53.210382" lon="-1.743372"><ele>321</ele><time>2020-01-31T13:09:12Z</time><name>PT9780</name></trkpt>
<trkpt lat="53.210380" lon="-1.743380"><ele>321</ele><time>2020-01-31T13:09:13Z</time><name>PT9781</name></trkpt>
<trkpt lat="53.210378" lon="-1.743389"><ele>320</ele><time>2020-01-31T13:09:15Z</time><name>PT9782</name></trkpt>
<trkpt lat="53.210376" lon="-1.743393"><ele>319</ele><time>2020-01-31T13:09:15Z</time><name>PT9783</name></trkpt>
<trkpt lat="53.210375" lon="-1.743393"><ele>319</ele><time>2020-01-31T13:09:16Z</time><name>PT9784</name></trkpt>
<trkpt lat="53.210374" lon="-1.743393"><ele>319</ele><time>2020-01-31T13:09:18Z</time><name>PT9785</name></trkpt>
<trkpt lat="53.210373" lon="-1.743395"><ele>319</ele><time>2020-01-31T13:09:18Z</time><name>PT9786</name></trkpt>
<trkpt lat="53.210375" lon="-1.743385"><ele>319</ele><time>2020-01-31T13:09:34Z</time><name>PT9787</name></trkpt>
<trkpt lat="53.210369" lon="-1.743396"><ele>320</ele><time>2020-01-31T13:09:36Z</time><name>PT9788</name></trkpt>
<trkpt lat="53.210368" lon="-1.743398"><ele>320</ele><time>2020-01-31T13:09:36Z</time><name>PT9789</name></trkpt>
<trkpt lat="53.210369" lon="-1.743396"><ele>320</ele><time>2020-01-31T13:09:37Z</time><name>PT9790</name></trkpt>
<trkpt lat="53.210366" lon="-1.743388"><ele>320</ele><time>2020-01-31T13:09:39Z</time><name>PT9791</name></trkpt>
<trkpt lat="53.210366" lon="-1.743377"><ele>320</ele><time>2020-01-31T13:10:24Z</time><name>PT9792</name></trkpt>
<trkpt lat="53.210361" lon="-1.743382"><ele>320</ele><time>2020-01-31T13:10:25Z</time><name>PT9793</name></trkpt>
<trkpt lat="53.210351" lon="-1.743383"><ele>320</ele><time>2020-01-31T13:10:33Z</time><name>PT9794</name></trkpt>
<trkpt lat="53.210350" lon="-1.743375"><ele>321</ele><time>2020-01-31T13:10:33Z</time><name>PT9795</name></trkpt>
<trkpt lat="53.210352" lon="-1.743380"><ele>321</ele><time>2020-01-31T13:10:34Z</time><name>PT9796</name></trkpt>
<trkpt lat="53.210353" lon="-1.743380"><ele>322</ele><time>2020-01-31T13:10:36Z</time><name>PT9797</name></trkpt>
<trkpt lat="53.210351" lon="-1.743379"><ele>321</ele><time>2020-01-31T13:10:36Z</time><name>PT9798</name></trkpt>
<trkpt lat="53.210351" lon="-1.743386"><ele>321</ele><time>2020-01-31T13:10:37Z</time><name>PT9799</name></trkpt>
<trkpt lat="53.210350" lon="-1.743389"><ele>321</ele><time>2020-01-31T13:10:39Z</time><name>PT9800</name></trkpt>
<trkpt lat="53.210349" lon="-1.743389"><ele>321</ele><time>2020-01-31T13:10:39Z</time><name>PT9801</name></trkpt>
<trkpt lat="53.210350" lon="-1.743388"><ele>321</ele><time>2020-01-31T13:10:40Z</time><name>PT9802</name></trkpt>
<trkpt lat="53.210351" lon="-1.743388"><ele>322</ele><time>2020-01-31T13:10:42Z</time><name>PT9803</name></trkpt>
<trkpt lat="53.210352" lon="-1.743388"><ele>322</ele><time>2020-01-31T13:10:42Z</time><name>PT9804</name></trkpt>
<trkpt lat="53.210354" lon="-1.743390"><ele>322</ele><time>2020-01-31T13:11:24Z</time><name>PT9805</name></trkpt>
<trkpt lat="53.210352" lon="-1.743390"><ele>322</ele><time>2020-01-31T13:11:25Z</time><name>PT9806</name></trkpt>
<trkpt lat="53.210355" lon="-1.743394"><ele>322</ele><time>2020-01-31T13:11:27Z</time><name>PT9807</name></trkpt>
<trkpt lat="53.210359" lon="-1.743396"><ele>322</ele><time>2020-01-31T13:11:27Z</time><name>PT9808</name></trkpt>
<trkpt lat="53.210365" lon="-1.743400"><ele>323</ele><time>2020-01-31T13:12:33Z</time><name>PT9809</name></trkpt>
<trkpt lat="53.210371" lon="-1.743406"><ele>323</ele><time>2020-01-31T13:12:34Z</time><name>PT9810</name></trkpt>
<trkpt lat="53.210370" lon="-1.743401"><ele>323</ele><time>2020-01-31T13:12:36Z</time><name>PT9811</name></trkpt>
<trkpt lat="53.210373" lon="-1.743401"><ele>323</ele><time>2020-01-31T13:12:54Z</time><name>PT9812</name></trkpt>
<trkpt lat="53.210369" lon="-1.743400"><ele>323</ele><time>2020-01-31T13:12:55Z</time><name>PT9813</name></trkpt>
<trkpt lat="53.210362" lon="-1.743393"><ele>323</ele><time>2020-01-31T13:12:57Z</time><name>PT9814</name></trkpt>
<trkpt lat="53.210362" lon="-1.743390"><ele>324</ele><time>2020-01-31T13:12:57Z</time><name>PT9815</name></trkpt>
<trkpt lat="53.210362" lon="-1.743390"><ele>324</ele><time>2020-01-31T13:12:58Z</time><name>PT9816</name></trkpt>
<trkpt lat="53.210362" lon="-1.743389"><ele>324</ele><time>2020-01-31T13:13:00Z</time><name>PT9817</name></trkpt>
<trkpt lat="53.210361" lon="-1.743388"><ele>324</ele><time>2020-01-31T13:13:00Z</time><name>PT9818</name></trkpt>
<trkpt lat="53.210361" lon="-1.743388"><ele>324</ele><time>2020-01-31T13:14:24Z</time><name>PT9819</name></trkpt>
<trkpt lat="53.210361" lon="-1.743389"><ele>324</ele><time>2020-01-31T13:14:25Z</time><name>PT9820</name></trkpt>
<trkpt lat="53.210363" lon="-1.743387"><ele>324</ele><time>2020-01-31T13:14:54Z</time><name>PT9821</name></trkpt>
<trkpt lat="53.210362" lon="-1.743386"><ele>324</ele><time>2020-01-31T13:14:55Z</time><name>PT9822</name></trkpt>
<trkpt lat="53.210362" lon="-1.743396"><ele>324</ele><time>2020-01-31T13:16:10Z</time><name>PT9823</name></trkpt>
<trkpt lat="53.210365" lon="-1.743400"><ele>324</ele><time>2020-01-31T13:16:12Z</time><name>PT9824</name></trkpt>
<trkpt lat="53.210364" lon="-1.743400"><ele>324</ele><time>2020-01-31T13:16:12Z</time><name>PT9825</name></trkpt>
<trkpt lat="53.210363" lon="-1.743405"><ele>323</ele><time>2020-01-31T13:16:24Z</time><name>PT9826</name></trkpt>
<trkpt lat="53.210361" lon="-1.743403"><ele>323</ele><time>2020-01-31T13:16:24Z</time><name>PT9827</name></trkpt>
<trkpt lat="53.210360" lon="-1.743402"><ele>323</ele><time>2020-01-31T13:16:25Z</time><name>PT9828</name></trkpt>
<trkpt lat="53.210356" lon="-1.743399"><ele>323</ele><time>2020-01-31T13:16:27Z</time><name>PT9829</name></trkpt>
<trkpt lat="53.210354" lon="-1.743388"><ele>323</ele><time>2020-01-31T13:16:34Z</time><name>PT9830</name></trkpt>
<trkpt lat="53.210351" lon="-1.743381"><ele>324</ele><time>2020-01-31T13:16:36Z</time><name>PT9831</name></trkpt>
<trkpt lat="53.210359" lon="-1.743384"><ele>324</ele><time>2020-01-31T13:16:36Z</time><name>PT9832</name></trkpt>
<trkpt lat="53.210360" lon="-1.743384"><ele>324</ele><time>2020-01-31T13:17:07Z</time><name>PT9833</name></trkpt>
<trkpt lat="53.210357" lon="-1.743381"><ele>324</ele><time>2020-01-31T13:17:09Z</time><name>PT9834</name></trkpt>
<trkpt lat="53.210356" lon="-1.743380"><ele>324</ele><time>2020-01-31T13:17:09Z</time><name>PT9835</name></trkpt>
<trkpt lat="53.210355" lon="-1.743380"><ele>324</ele><time>2020-01-31T13:17:10Z</time><name>PT9836</name></trkpt>
<trkpt lat="53.210348" lon="-1.743369"><ele>324</ele><time>2020-01-31T13:17:57Z</time><name>PT9837</name></trkpt>
<trkpt lat="53.210349" lon="-1.743374"><ele>324</ele><time>2020-01-31T13:17:57Z</time><name>PT9838</name></trkpt>
<trkpt lat="53.210352" lon="-1.743374"><ele>324</ele><time>2020-01-31T13:17:58Z</time><name>PT9839</name></trkpt>
<trkpt lat="53.210350" lon="-1.743379"><ele>324</ele><time>2020-01-31T13:18:00Z</time><name>PT9840</name></trkpt>
<trkpt lat="53.210349" lon="-1.743378"><ele>324</ele><time>2020-01-31T13:18:00Z</time><name>PT9841</name></trkpt>
<trkpt lat="53.210349" lon="-1.743378"><ele>324</ele><time>2020-01-31T13:18:01Z</time><name>PT9842</name></trkpt>
<trkpt lat="53.210353" lon="-1.743388"><ele>324</ele><time>2020-01-31T13:19:57Z</time><name>PT9843</name></trkpt>
<trkpt lat="53.210351" lon="-1.743388"><ele>324</ele><time>2020-01-31T13:19:58Z</time><name>PT9844</name></trkpt>
<trkpt lat="53.210351" lon="-1.743389"><ele>324</ele><time>2020-01-31T13:20:00Z</time><name>PT9845</name></trkpt>
<trkpt lat="53.210353" lon="-1.743386"><ele>324</ele><time>2020-01-31T13:20:15Z</time><name>PT9846</name></trkpt>
<trkpt lat="53.210352" lon="-1.743381"><ele>324</ele><time>2020-01-31T13:20:16Z</time><name>PT9847</name></trkpt>
<trkpt lat="53.210354" lon="-1.743378"><ele>323</ele><time>2020-01-31T13:20:36Z</time><name>PT9848</name></trkpt>
<trkpt lat="53.210355" lon="-1.743380"><ele>323</ele><time>2020-01-31T13:20:37Z</time><name>PT9849</name></trkpt>
<trkpt lat="53.210354" lon="-1.743380"><ele>323</ele><time>2020-01-31T13:20:39Z</time><name>PT9850</name></trkpt>
<trkpt lat="53.210352" lon="-1.743377"><ele>323</ele><time>2020-01-31T13:20:42Z</time><name>PT9851</name></trkpt>
<trkpt lat="53.210352" lon="-1.743375"><ele>323</ele><time>2020-01-31T13:20:42Z</time><name>PT9852</name></trkpt>
<trkpt lat="53.210350" lon="-1.743376"><ele>323</ele><time>2020-01-31T13:20:43Z</time><name>PT9853</name></trkpt>
<trkpt lat="53.210349" lon="-1.743373"><ele>323</ele><time>2020-01-31T13:20:45Z</time><name>PT9854</name></trkpt>
<trkpt lat="53.210349" lon="-1.743373"><ele>323</ele><time>2020-01-31T13:20:45Z</time><name>PT9855</name></trkpt>
<trkpt lat="53.210349" lon="-1.743373"><ele>323</ele><time>2020-01-31T13:20:46Z</time><name>PT9856</name></trkpt>
<trkpt lat="53.210354" lon="-1.743379"><ele>323</ele><time>2020-01-31T13:20:58Z</time><name>PT9857</name></trkpt>
<trkpt lat="53.210354" lon="-1.743372"><ele>323</ele><time>2020-01-31T13:21:00Z</time><name>PT9858</name></trkpt>
<trkpt lat="53.210357" lon="-1.743375"><ele>323</ele><time>2020-01-31T13:21:00Z</time><name>PT9859</name></trkpt>
<trkpt lat="53.210353" lon="-1.743375"><ele>323</ele><time>2020-01-31T13:21:01Z</time><name>PT9860</name></trkpt>
<trkpt lat="53.210358" lon="-1.743374"><ele>323</ele><time>2020-01-31T13:21:43Z</time><name>PT9861</name></trkpt>
<trkpt lat="53.210359" lon="-1.743372"><ele>323</ele><time>2020-01-31T13:21:45Z</time><name>PT9862</name></trkpt>
<trkpt lat="53.210360" lon="-1.743373"><ele>324</ele><time>2020-01-31T13:21:45Z</time><name>PT9863</name></trkpt>
<trkpt lat="53.210370" lon="-1.743358"><ele>325</ele><time>2020-01-31T13:22:55Z</time><name>PT9864</name></trkpt>
<trkpt lat="53.210371" lon="-1.743363"><ele>326</ele><time>2020-01-31T13:22:57Z</time><name>PT9865</name></trkpt>
<trkpt lat="53.210376" lon="-1.743376"><ele>326</ele><time>2020-01-31T13:22:57Z</time><name>PT9866</name></trkpt>
<trkpt lat="53.210376" lon="-1.743374"><ele>326</ele><time>2020-01-31T13:22:58Z</time><name>PT9867</name></trkpt>
<trkpt lat="53.210373" lon="-1.743369"><ele>326</ele><time>2020-01-31T13:23:09Z</time><name>PT9868</name></trkpt>
<trkpt lat="53.210370" lon="-1.743369"><ele>326</ele><time>2020-01-31T13:23:10Z</time><name>PT9869</name></trkpt>
<trkpt lat="53.210366" lon="-1.743368"><ele>326</ele><time>2020-01-31T13:23:12Z</time><name>PT9870</name></trkpt>
<trkpt lat="53.210374" lon="-1.743368"><ele>326</ele><time>2020-01-31T13:23:12Z</time><name>PT9871</name></trkpt>
<trkpt lat="53.210377" lon="-1.743369"><ele>326</ele><time>2020-01-31T13:23:13Z</time><name>PT9872</name></trkpt>
<trkpt lat="53.210374" lon="-1.743369"><ele>326</ele><time>2020-01-31T13:23:15Z</time><name>PT9873</name></trkpt>
<trkpt lat="53.210373" lon="-1.743367"><ele>326</ele><time>2020-01-31T13:23:15Z</time><name>PT9874</name></trkpt>
<trkpt lat="53.210373" lon="-1.743365"><ele>326</ele><time>2020-01-31T13:23:16Z</time><name>PT9875</name></trkpt>
<trkpt lat="53.210373" lon="-1.743362"><ele>326</ele><time>2020-01-31T13:23:18Z</time><name>PT9876</name></trkpt>
<trkpt lat="53.210369" lon="-1.743365"><ele>326</ele><time>2020-01-31T13:23:42Z</time><name>PT9877</name></trkpt>
<trkpt lat="53.210368" lon="-1.743372"><ele>325</ele><time>2020-01-31T13:23:43Z</time><name>PT9878</name></trkpt>
<trkpt lat="53.210368" lon="-1.743378"><ele>325</ele><time>2020-01-31T13:23:45Z</time><name>PT9879</name></trkpt>
<trkpt lat="53.210366" lon="-1.743375"><ele>325</ele><time>2020-01-31T13:23:51Z</time><name>PT9880</name></trkpt>
<trkpt lat="53.210366" lon="-1.743375"><ele>326</ele><time>2020-01-31T13:23:51Z</time><name>PT9881</name></trkpt>
<trkpt lat="53.210369" lon="-1.743377"><ele>326</ele><time>2020-01-31T13:23:52Z</time><name>PT9882</name></trkpt>
<trkpt lat="53.210370" lon="-1.743376"><ele>326</ele><time>2020-01-31T13:23:54Z</time><name>PT9883</name></trkpt>
<trkpt lat="53.210370" lon="-1.743370"><ele>326</ele><time>2020-01-31T13:23:54Z</time><name>PT9884</name></trkpt>
<trkpt lat="53.210369" lon="-1.743371"><ele>326</ele><time>2020-01-31T13:23:55Z</time><name>PT9885</name></trkpt>
<trkpt lat="53.210357" lon="-1.743375"><ele>326</ele><time>2020-01-31T13:24:09Z</time><name>PT9886</name></trkpt>
<trkpt lat="53.210355" lon="-1.743384"><ele>326</ele><time>2020-01-31T13:24:09Z</time><name>PT9887</name></trkpt>
<trkpt lat="53.210352" lon="-1.743383"><ele>326</ele><time>2020-01-31T13:24:10Z</time><name>PT9888</name></trkpt>
<trkpt lat="53.210353" lon="-1.743385"><ele>326</ele><time>2020-01-31T13:24:12Z</time><name>PT9889</name></trkpt>
<trkpt lat="53.210353" lon="-1.743395"><ele>326</ele><time>2020-01-31T13:24:12Z</time><name>PT9890</name></trkpt>
<trkpt lat="53.210352" lon="-1.743391"><ele>327</ele><time>2020-01-31T13:24:13Z</time><name>PT9891</name></trkpt>
<trkpt lat="53.210355" lon="-1.743386"><ele>327</ele><time>2020-01-31T13:24:15Z</time><name>PT9892</name></trkpt>
<trkpt lat="53.210356" lon="-1.743382"><ele>327</ele><time>2020-01-31T13:24:15Z</time><name>PT9893</name></trkpt>
<trkpt lat="53.210359" lon="-1.743375"><ele>327</ele><time>2020-01-31T13:24:16Z</time><name>PT9894</name></trkpt>
<trkpt lat="53.210362" lon="-1.743369"><ele>327</ele><time>2020-01-31T13:24:18Z</time><name>PT9895</name></trkpt>
<trkpt lat="53.210361" lon="-1.743370"><ele>326</ele><time>2020-01-31T13:24:18Z</time><name>PT9896</name></trkpt>
<trkpt lat="53.210360" lon="-1.743369"><ele>326</ele><time>2020-01-31T13:24:19Z</time><name>PT9897</name></trkpt>
<trkpt lat="53.210359" lon="-1.743369"><ele>326</ele><time>2020-01-31T13:24:21Z</time><name>PT9898</name></trkpt>
<trkpt lat="53.210359" lon="-1.743366"><ele>326</ele><time>2020-01-31T13:24:21Z</time><name>PT9899</name></trkpt>
<trkpt lat="53.210358" lon="-1.743367"><ele>326</ele><time>2020-01-31T13:24:22Z</time><name>PT9900</name></trkpt>
<trkpt lat="53.210358" lon="-1.743366"><ele>326</ele><time>2020-01-31T13:24:24Z</time><name>PT9901</name></trkpt>
<trkpt lat="53.210358" lon="-1.743365"><ele>326</ele><time>2020-01-31T13:24:24Z</time><name>PT9902</name></trkpt>
<trkpt lat="53.210359" lon="-1.743365"><ele>326</ele><time>2020-01-31T13:24:25Z</time><name>PT9903</name></trkpt>
<trkpt lat="53.210359" lon="-1.743365"><ele>326</ele><time>2020-01-31T13:24:27Z</time><name>PT9904</name></trkpt>
<trkpt lat="53.210362" lon="-1.743364"><ele>326</ele><time>2020-01-31T13:24:27Z</time><name>PT9905</name></trkpt>
<trkpt lat="53.210364" lon="-1.743368"><ele>326</ele><time>2020-01-31T13:24:30Z</time><name>PT9906</name></trkpt>
<trkpt lat="53.210366" lon="-1.743362"><ele>326</ele><time>2020-01-31T13:24:30Z</time><name>PT9907</name></trkpt>
<trkpt lat="53.210367" lon="-1.743361"><ele>327</ele><time>2020-01-31T13:24:31Z</time><name>PT9908</name></trkpt>
<trkpt lat="53.210368" lon="-1.743360"><ele>327</ele><time>2020-01-31T13:24:33Z</time><name>PT9909</name></trkpt>
<trkpt lat="53.210370" lon="-1.743360"><ele>327</ele><time>2020-01-31T13:24:33Z</time><name>PT9910</name></trkpt>
<trkpt lat="53.210372" lon="-1.743360"><ele>327</ele><time>2020-01-31T13:24:34Z</time><name>PT9911</name></trkpt>
<trkpt lat="53.210373" lon="-1.743361"><ele>327</ele><time>2020-01-31T13:24:36Z</time><name>PT9912</name></trkpt>
<trkpt lat="53.210378" lon="-1.743368"><ele>327</ele><time>2020-01-31T13:24:39Z</time><name>PT9913</name></trkpt>
<trkpt lat="53.210379" lon="-1.743363"><ele>327</ele><time>2020-01-31T13:24:40Z</time><name>PT9914</name></trkpt>
<trkpt lat="53.210382" lon="-1.743357"><ele>327</ele><time>2020-01-31T13:24:42Z</time><name>PT9915</name></trkpt>
<trkpt lat="53.210385" lon="-1.743350"><ele>327</ele><time>2020-01-31T13:24:42Z</time><name>PT9916</name></trkpt>
<trkpt lat="53.210388" lon="-1.743346"><ele>326</ele><time>2020-01-31T13:24:43Z</time><name>PT9917</name></trkpt>
<trkpt lat="53.210390" lon="-1.743347"><ele>326</ele><time>2020-01-31T13:24:45Z</time><name>PT9918</name></trkpt>
<trkpt lat="53.210392" lon="-1.743341"><ele>326</ele><time>2020-01-31T13:24:45Z</time><name>PT9919</name></trkpt>
<trkpt lat="53.210393" lon="-1.743336"><ele>326</ele><time>2020-01-31T13:24:46Z</time><name>PT9920</name></trkpt>
<trkpt lat="53.210392" lon="-1.743338"><ele>326</ele><time>2020-01-31T13:24:48Z</time><name>PT9921</name></trkpt>
<trkpt lat="53.210393" lon="-1.743341"><ele>326</ele><time>2020-01-31T13:25:48Z</time><name>PT9922</name></trkpt>
<trkpt lat="53.210393" lon="-1.743334"><ele>326</ele><time>2020-01-31T13:25:49Z</time><name>PT9923</name></trkpt>
<trkpt lat="53.210387" lon="-1.743330"><ele>327</ele><time>2020-01-31T13:26:03Z</time><name>PT9924</name></trkpt>
<trkpt lat="53.210384" lon="-1.743343"><ele>326</ele><time>2020-01-31T13:26:04Z</time><name>PT9925</name></trkpt>
<trkpt lat="53.210379" lon="-1.743349"><ele>326</ele><time>2020-01-31T13:26:06Z</time><name>PT9926</name></trkpt>
<trkpt lat="53.210380" lon="-1.743360"><ele>325</ele><time>2020-01-31T13:26:06Z</time><name>PT9927</name></trkpt>
<trkpt lat="53.210380" lon="-1.743364"><ele>325</ele><time>2020-01-31T13:26:07Z</time><name>PT9928</name></trkpt>
<trkpt lat="53.210378" lon="-1.743369"><ele>325</ele><time>2020-01-31T13:26:09Z</time><name>PT9929</name></trkpt>
<trkpt lat="53.210377" lon="-1.743370"><ele>325</ele><time>2020-01-31T13:26:09Z</time><name>PT9930</name></trkpt>
<trkpt lat="53.210375" lon="-1.743368"><ele>325</ele><time>2020-01-31T13:26:13Z</time><name>PT9931</name></trkpt>
<trkpt lat="53.210380" lon="-1.743371"><ele>325</ele><time>2020-01-31T13:26:15Z</time><name>PT9932</name></trkpt>
<trkpt lat="53.210382" lon="-1.743371"><ele>325</ele><time>2020-01-31T13:26:15Z</time><name>PT9933</name></trkpt>
<trkpt lat="53.210386" lon="-1.743370"><ele>325</ele><time>2020-01-31T13:26:16Z</time><name>PT9934</name></trkpt>
<trkpt lat="53.210386" lon="-1.743370"><ele>326</ele><time>2020-01-31T13:26:18Z</time><name>PT9935</name></trkpt>
<trkpt lat="53.210385" lon="-1.743373"><ele>326</ele><time>2020-01-31T13:26:18Z</time><name>PT9936</name></trkpt>
<trkpt lat="53.210385" lon="-1.743375"><ele>326</ele><time>2020-01-31T13:26:19Z</time><name>PT9937</name></trkpt>
<trkpt lat="53.210385" lon="-1.743366"><ele>326</ele><time>2020-01-31T13:26:28Z</time><name>PT9938</name></trkpt>
<trkpt lat="53.210386" lon="-1.743359"><ele>325</ele><time>2020-01-31T13:26:30Z</time><name>PT9939</name></trkpt>
<trkpt lat="53.210385" lon="-1.743354"><ele>325</ele><time>2020-01-31T13:26:30Z</time><name>PT9940</name></trkpt>
<trkpt lat="53.210385" lon="-1.743353"><ele>325</ele><time>2020-01-31T13:26:31Z</time><name>PT9941</name></trkpt>
<trkpt lat="53.210385" lon="-1.743351"><ele>325</ele><time>2020-01-31T13:26:33Z</time><name>PT9942</name></trkpt>
<trkpt lat="53.210385" lon="-1.743345"><ele>324</ele><time>2020-01-31T13:26:33Z</time><name>PT9943</name></trkpt>
<trkpt lat="53.210387" lon="-1.743339"><ele>325</ele><time>2020-01-31T13:27:21Z</time><name>PT9944</name></trkpt>
<trkpt lat="53.210387" lon="-1.743334"><ele>325</ele><time>2020-01-31T13:27:21Z</time><name>PT9945</name></trkpt>
<trkpt lat="53.210386" lon="-1.743333"><ele>325</ele><time>2020-01-31T13:27:22Z</time><name>PT9946</name></trkpt>
<trkpt lat="53.210387" lon="-1.743334"><ele>325</ele><time>2020-01-31T13:27:24Z</time><name>PT9947</name></trkpt>
<trkpt lat="53.210385" lon="-1.743337"><ele>325</ele><time>2020-01-31T13:27:24Z</time><name>PT9948</name></trkpt>
<trkpt lat="53.210385" lon="-1.743339"><ele>325</ele><time>2020-01-31T13:27:25Z</time><name>PT9949</name></trkpt>
<trkpt lat="53.210384" lon="-1.743340"><ele>324</ele><time>2020-01-31T13:27:27Z</time><name>PT9950</name></trkpt>
<trkpt lat="53.210380" lon="-1.743337"><ele>324</ele><time>2020-01-31T13:27:27Z</time><name>PT9951</name></trkpt>
<trkpt lat="53.210377" lon="-1.743332"><ele>324</ele><time>2020-01-31T13:27:28Z</time><name>PT9952</name></trkpt>
<trkpt lat="53.210374" lon="-1.743330"><ele>324</ele><time>2020-01-31T13:27:30Z</time><name>PT9953</name></trkpt>
<trkpt lat="53.210373" lon="-1.743327"><ele>324</ele><time>2020-01-31T13:27:30Z</time><name>PT9954</name></trkpt>
<trkpt lat="53.210371" lon="-1.743325"><ele>324</ele><time>2020-01-31T13:27:31Z</time><name>PT9955</name></trkpt>
<trkpt lat="53.210371" lon="-1.743320"><ele>324</ele><time>2020-01-31T13:27:42Z</time><name>PT9956</name></trkpt>
<trkpt lat="53.210370" lon="-1.743314"><ele>324</ele><time>2020-01-31T13:27:42Z</time><name>PT9957</name></trkpt>
<trkpt lat="53.210371" lon="-1.743305"><ele>325</ele><time>2020-01-31T13:27:45Z</time><name>PT9958</name></trkpt>
<trkpt lat="53.210367" lon="-1.743284"><ele>324</ele><time>2020-01-31T13:27:45Z</time><name>PT9959</name></trkpt>
<trkpt lat="53.210368" lon="-1.743272"><ele>324</ele><time>2020-01-31T13:27:46Z</time><name>PT9960</name></trkpt>
<trkpt lat="53.210366" lon="-1.743262"><ele>324</ele><time>2020-01-31T13:27:48Z</time><name>PT9961</name></trkpt>
<trkpt lat="53.210362" lon="-1.743249"><ele>323</ele><time>2020-01-31T13:27:48Z</time><name>PT9962</name></trkpt>
<trkpt lat="53.210359" lon="-1.743243"><ele>323</ele><time>2020-01-31T13:27:49Z</time><name>PT9963</name></trkpt>
<trkpt lat="53.210361" lon="-1.743229"><ele>324</ele><time>2020-01-31T13:27:51Z</time><name>PT9964</name></trkpt>
<trkpt lat="53.210362" lon="-1.743219"><ele>324</ele><time>2020-01-31T13:27:51Z</time><name>PT9965</name></trkpt>
<trkpt lat="53.210357" lon="-1.743203"><ele>324</ele><time>2020-01-31T13:27:52Z</time><name>PT9966</name></trkpt>
<trkpt lat="53.210353" lon="-1.743201"><ele>325</ele><time>2020-01-31T13:27:54Z</time><name>PT9967</name></trkpt>
<trkpt lat="53.210352" lon="-1.743198"><ele>325</ele><time>2020-01-31T13:27:54Z</time><name>PT9968</name></trkpt>
<trkpt lat="53.210346" lon="-1.743193"><ele>326</ele><time>2020-01-31T13:27:55Z</time><name>PT9969</name></trkpt>
<trkpt lat="53.210345" lon="-1.743187"><ele>326</ele><time>2020-01-31T13:27:57Z</time><name>PT9970</name></trkpt>
<trkpt lat="53.210342" lon="-1.743181"><ele>326</ele><time>2020-01-31T13:27:57Z</time><name>PT9971</name></trkpt>
<trkpt lat="53.210334" lon="-1.743176"><ele>327</ele><time>2020-01-31T13:27:58Z</time><name>PT9972</name></trkpt>
<trkpt lat="53.210328" lon="-1.743168"><ele>327</ele><time>2020-01-31T13:28:00Z</time><name>PT9973</name></trkpt>
<trkpt lat="53.210321" lon="-1.743161"><ele>328</ele><time>2020-01-31T13:28:00Z</time><name>PT9974</name></trkpt>
<trkpt lat="53.210315" lon="-1.743159"><ele>328</ele><time>2020-01-31T13:28:01Z</time><name>PT9975</name></trkpt>
<trkpt lat="53.210310" lon="-1.743160"><ele>328</ele><time>2020-01-31T13:28:03Z</time><name>PT9976</name></trkpt>
<trkpt lat="53.210306" lon="-1.743157"><ele>327</ele><time>2020-01-31T13:28:03Z</time><name>PT9977</name></trkpt>
<trkpt lat="53.210301" lon="-1.743158"><ele>327</ele><time>2020-01-31T13:28:04Z</time><name>PT9978</name></trkpt>
<trkpt lat="53.210292" lon="-1.743159"><ele>327</ele><time>2020-01-31T13:28:06Z</time><name>PT9979</name></trkpt>
<trkpt lat="53.210284" lon="-1.743157"><ele>326</ele><time>2020-01-31T13:28:06Z</time><name>PT9980</name></trkpt>
<trkpt lat="53.210279" lon="-1.743150"><ele>326</ele><time>2020-01-31T13:28:07Z</time><name>PT9981</name></trkpt>
<trkpt lat="53.210276" lon="-1.743144"><ele>326</ele><time>2020-01-31T13:28:09Z</time><name>PT9982</name></trkpt>
<trkpt lat="53.210273" lon="-1.743139"><ele>326</ele><time>2020-01-31T13:28:09Z</time><name>PT9983</name></trkpt>
<trkpt lat="53.210271" lon="-1.743135"><ele>326</ele><time>2020-01-31T13:28:10Z</time><name>PT9984</name></trkpt>
<trkpt lat="53.210267" lon="-1.743129"><ele>326</ele><time>2020-01-31T13:28:12Z</time><name>PT9985</name></trkpt>
<trkpt lat="53.210262" lon="-1.743124"><ele>326</ele><time>2020-01-31T13:28:12Z</time><name>PT9986</name></trkpt>
<trkpt lat="53.210257" lon="-1.743119"><ele>326</ele><time>2020-01-31T13:28:13Z</time><name>PT9987</name></trkpt>
<trkpt lat="53.210254" lon="-1.743111"><ele>326</ele><time>2020-01-31T13:28:15Z</time><name>PT9988</name></trkpt>
<trkpt lat="53.210258" lon="-1.743102"><ele>325</ele><time>2020-01-31T13:28:15Z</time><name>PT9989</name></trkpt>
<trkpt lat="53.210262" lon="-1.743105"><ele>325</ele><time>2020-01-31T13:28:16Z</time><name>PT9990</name></trkpt>
<trkpt lat="53.210264" lon="-1.743110"><ele>325</ele><time>2020-01-31T13:28:18Z</time><name>PT9991</name></trkpt>
<trkpt lat="53.210268" lon="-1.743114"><ele>325</ele><time>2020-01-31T13:28:18Z</time><name>PT9992</name></trkpt>
<trkpt lat="53.210288" lon="-1.743122"><ele>327</ele><time>2020-01-31T13:28:19Z</time><name>PT9993</name></trkpt>
<trkpt lat="53.210292" lon="-1.743137"><ele>327</ele><time>2020-01-31T13:28:21Z</time><name>PT9994</name></trkpt>
<trkpt lat="53.210291" lon="-1.743143"><ele>327</ele><time>2020-01-31T13:28:21Z</time><name>PT9995</name></trkpt>
<trkpt lat="53.210289" lon="-1.743139"><ele>326</ele><time>2020-01-31T13:28:22Z</time><name>PT9996</name></trkpt>
<trkpt lat="53.210287" lon="-1.743137"><ele>326</ele><time>2020-01-31T13:28:24Z</time><name>PT9997</name></trkpt>
<trkpt lat="53.210283" lon="-1.743141"><ele>326</ele><time>2020-01-31T13:28:24Z</time><name>PT9998</name></trkpt>
<trkpt lat="53.210278" lon="-1.743132"><ele>326</ele><time>2020-01-31T13:28:25Z</time><name>PT9999</name></trkpt>
<trkpt lat="53.210252" lon="-1.743100"><ele>325</ele><time>2020-01-31T13:28:27Z</time><name>PT10000</name></trkpt>
<trkpt lat="53.210247" lon="-1.743090"><ele>327</ele><time>2020-01-31T13:28:27Z</time><name>PT10001</name></trkpt>
<trkpt lat="53.210244" lon="-1.743085"><ele>327</ele><time>2020-01-31T13:28:28Z</time><name>PT10002</name></trkpt>
<trkpt lat="53.210239" lon="-1.743086"><ele>327</ele><time>2020-01-31T13:28:37Z</time><name>PT10003</name></trkpt>
<trkpt lat="53.210232" lon="-1.743090"><ele>326</ele><time>2020-01-31T13:28:39Z</time><name>PT10004</name></trkpt>
<trkpt lat="53.210227" lon="-1.743098"><ele>326</ele><time>2020-01-31T13:28:39Z</time><name>PT10005</name></trkpt>
<trkpt lat="53.210227" lon="-1.743107"><ele>326</ele><time>2020-01-31T13:28:40Z</time><name>PT10006</name></trkpt>
<trkpt lat="53.210227" lon="-1.743106"><ele>327</ele><time>2020-01-31T13:28:42Z</time><name>PT10007</name></trkpt>
<trkpt lat="53.210213" lon="-1.743097"><ele>328</ele><time>2020-01-31T13:28:42Z</time><name>PT10008</name></trkpt>
<trkpt lat="53.210212" lon="-1.743097"><ele>328</ele><time>2020-01-31T13:28:43Z</time><name>PT10009</name></trkpt>
<trkpt lat="53.210213" lon="-1.743109"><ele>327</ele><time>2020-01-31T13:28:51Z</time><name>PT10010</name></trkpt>
<trkpt lat="53.210208" lon="-1.743109"><ele>327</ele><time>2020-01-31T13:28:52Z</time><name>PT10011</name></trkpt>
<trkpt lat="53.210203" lon="-1.743110"><ele>327</ele><time>2020-01-31T13:28:54Z</time><name>PT10012</name></trkpt>
<trkpt lat="53.210195" lon="-1.743103"><ele>328</ele><time>2020-01-31T13:28:54Z</time><name>PT10013</name></trkpt>
<trkpt lat="53.210187" lon="-1.743093"><ele>328</ele><time>2020-01-31T13:28:55Z</time><name>PT10014</name></trkpt>
<trkpt lat="53.210184" lon="-1.743085"><ele>328</ele><time>2020-01-31T13:28:57Z</time><name>PT10015</name></trkpt>
<trkpt lat="53.210179" lon="-1.743080"><ele>327</ele><time>2020-01-31T13:28:57Z</time><name>PT10016</name></trkpt>
<trkpt lat="53.210174" lon="-1.743072"><ele>327</ele><time>2020-01-31T13:28:58Z</time><name>PT10017</name></trkpt>
<trkpt lat="53.210169" lon="-1.743065"><ele>327</ele><time>2020-01-31T13:29:00Z</time><name>PT10018</name></trkpt>
<trkpt lat="53.210164" lon="-1.743055"><ele>327</ele><time>2020-01-31T13:29:00Z</time><name>PT10019</name></trkpt>
<trkpt lat="53.210159" lon="-1.743047"><ele>327</ele><time>2020-01-31T13:29:01Z</time><name>PT10020</name></trkpt>
<trkpt lat="53.210150" lon="-1.743043"><ele>327</ele><time>2020-01-31T13:29:03Z</time><name>PT10021</name></trkpt>
<trkpt lat="53.210143" lon="-1.743039"><ele>327</ele><time>2020-01-31T13:29:03Z</time><name>PT10022</name></trkpt>
<trkpt lat="53.210137" lon="-1.743036"><ele>327</ele><time>2020-01-31T13:29:04Z</time><name>PT10023</name></trkpt>
<trkpt lat="53.210133" lon="-1.743034"><ele>327</ele><time>2020-01-31T13:29:06Z</time><name>PT10024</name></trkpt>
<trkpt lat="53.210132" lon="-1.743035"><ele>327</ele><time>2020-01-31T13:29:06Z</time><name>PT10025</name></trkpt>
<trkpt lat="53.210124" lon="-1.743025"><ele>326</ele><time>2020-01-31T13:29:07Z</time><name>PT10026</name></trkpt>
<trkpt lat="53.210118" lon="-1.743021"><ele>326</ele><time>2020-01-31T13:29:09Z</time><name>PT10027</name></trkpt>
<trkpt lat="53.210118" lon="-1.743024"><ele>326</ele><time>2020-01-31T13:29:13Z</time><name>PT10028</name></trkpt>
<trkpt lat="53.210116" lon="-1.743029"><ele>325</ele><time>2020-01-31T13:29:15Z</time><name>PT10029</name></trkpt>
<trkpt lat="53.210119" lon="-1.743033"><ele>326</ele><time>2020-01-31T13:29:15Z</time><name>PT10030</name></trkpt>
<trkpt lat="53.210117" lon="-1.743022"><ele>326</ele><time>2020-01-31T13:29:21Z</time><name>PT10031</name></trkpt>
<trkpt lat="53.210113" lon="-1.743015"><ele>326</ele><time>2020-01-31T13:29:21Z</time><name>PT10032</name></trkpt>
<trkpt lat="53.210112" lon="-1.743003"><ele>326</ele><time>2020-01-31T13:29:22Z</time><name>PT10033</name></trkpt>
<trkpt lat="53.210116" lon="-1.742992"><ele>326</ele><time>2020-01-31T13:29:24Z</time><name>PT10034</name></trkpt>
<trkpt lat="53.210123" lon="-1.742981"><ele>326</ele><time>2020-01-31T13:29:24Z</time><name>PT10035</name></trkpt>
<trkpt lat="53.210128" lon="-1.742966"><ele>325</ele><time>2020-01-31T13:29:25Z</time><name>PT10036</name></trkpt>
<trkpt lat="53.210131" lon="-1.742954"><ele>325</ele><time>2020-01-31T13:29:27Z</time><name>PT10037</name></trkpt>
<trkpt lat="53.210130" lon="-1.742948"><ele>326</ele><time>2020-01-31T13:29:27Z</time><name>PT10038</name></trkpt>
<trkpt lat="53.210130" lon="-1.742944"><ele>326</ele><time>2020-01-31T13:29:28Z</time><name>PT10039</name></trkpt>
<trkpt lat="53.210130" lon="-1.742943"><ele>326</ele><time>2020-01-31T13:29:30Z</time><name>PT10040</name></trkpt>
<trkpt lat="53.210129" lon="-1.742942"><ele>326</ele><time>2020-01-31T13:29:30Z</time><name>PT10041</name></trkpt>
<trkpt lat="53.210130" lon="-1.742928"><ele>326</ele><time>2020-01-31T13:29:37Z</time><name>PT10042</name></trkpt>
<trkpt lat="53.210125" lon="-1.742930"><ele>326</ele><time>2020-01-31T13:29:39Z</time><name>PT10043</name></trkpt>
<trkpt lat="53.210122" lon="-1.742934"><ele>326</ele><time>2020-01-31T13:29:39Z</time><name>PT10044</name></trkpt>
<trkpt lat="53.210120" lon="-1.742937"><ele>326</ele><time>2020-01-31T13:29:40Z</time><name>PT10045</name></trkpt>
<trkpt lat="53.210120" lon="-1.742922"><ele>327</ele><time>2020-01-31T13:29:45Z</time><name>PT10046</name></trkpt>
<trkpt lat="53.210118" lon="-1.742903"><ele>327</ele><time>2020-01-31T13:29:45Z</time><name>PT10047</name></trkpt>
<trkpt lat="53.210115" lon="-1.742882"><ele>327</ele><time>2020-01-31T13:29:46Z</time><name>PT10048</name></trkpt>
<trkpt lat="53.210112" lon="-1.742860"><ele>326</ele><time>2020-01-31T13:29:48Z</time><name>PT10049</name></trkpt>
<trkpt lat="53.210106" lon="-1.742841"><ele>326</ele><time>2020-01-31T13:29:48Z</time><name>PT10050</name></trkpt>
<trkpt lat="53.210100" lon="-1.742825"><ele>326</ele><time>2020-01-31T13:29:49Z</time><name>PT10051</name></trkpt>
<trkpt lat="53.210095" lon="-1.742810"><ele>326</ele><time>2020-01-31T13:29:51Z</time><name>PT10052</name></trkpt>
<trkpt lat="53.210089" lon="-1.742790"><ele>326</ele><time>2020-01-31T13:29:51Z</time><name>PT10053</name></trkpt>
<trkpt lat="53.210083" lon="-1.742774"><ele>326</ele><time>2020-01-31T13:29:52Z</time><name>PT10054</name></trkpt>
<trkpt lat="53.210078" lon="-1.742760"><ele>325</ele><time>2020-01-31T13:29:54Z</time><name>PT10055</name></trkpt>
<trkpt lat="53.210073" lon="-1.742740"><ele>325</ele><time>2020-01-31T13:29:54Z</time><name>PT10056</name></trkpt>
<trkpt lat="53.210067" lon="-1.742723"><ele>325</ele><time>2020-01-31T13:29:55Z</time><name>PT10057</name></trkpt>
<trkpt lat="53.210059" lon="-1.742706"><ele>325</ele><time>2020-01-31T13:29:57Z</time><name>PT10058</name></trkpt>
<trkpt lat="53.210049" lon="-1.742694"><ele>325</ele><time>2020-01-31T13:29:57Z</time><name>PT10059</name></trkpt>
<trkpt lat="53.210036" lon="-1.742679"><ele>325</ele><time>2020-01-31T13:29:58Z</time><name>PT10060</name></trkpt>
<trkpt lat="53.210028" lon="-1.742674"><ele>325</ele><time>2020-01-31T13:30:00Z</time><name>PT10061</name></trkpt>
<trkpt lat="53.210019" lon="-1.742667"><ele>325</ele><time>2020-01-31T13:30:00Z</time><name>PT10062</name></trkpt>
<trkpt lat="53.210013" lon="-1.742662"><ele>325</ele><time>2020-01-31T13:30:01Z</time><name>PT10063</name></trkpt>
<trkpt lat="53.210005" lon="-1.742653"><ele>325</ele><time>2020-01-31T13:30:03Z</time><name>PT10064</name></trkpt>
<trkpt lat="53.210002" lon="-1.742652"><ele>325</ele><time>2020-01-31T13:30:03Z</time><name>PT10065</name></trkpt>
<trkpt lat="53.209998" lon="-1.742654"><ele>325</ele><time>2020-01-31T13:30:04Z</time><name>PT10066</name></trkpt>
<trkpt lat="53.209997" lon="-1.742648"><ele>324</ele><time>2020-01-31T13:30:06Z</time><name>PT10067</name></trkpt>
<trkpt lat="53.209993" lon="-1.742640"><ele>325</ele><time>2020-01-31T13:30:06Z</time><name>PT10068</name></trkpt>
<trkpt lat="53.209995" lon="-1.742643"><ele>324</ele><time>2020-01-31T13:30:07Z</time><name>PT10069</name></trkpt>
<trkpt lat="53.209993" lon="-1.742642"><ele>324</ele><time>2020-01-31T13:30:09Z</time><name>PT10070</name></trkpt>
<trkpt lat="53.210004" lon="-1.742623"><ele>323</ele><time>2020-01-31T13:31:00Z</time><name>PT10071</name></trkpt>
<trkpt lat="53.210021" lon="-1.742607"><ele>323</ele><time>2020-01-31T13:31:00Z</time><name>PT10072</name></trkpt>
<trkpt lat="53.210039" lon="-1.742592"><ele>323</ele><time>2020-01-31T13:31:01Z</time><name>PT10073</name></trkpt>
<trkpt lat="53.210058" lon="-1.742580"><ele>322</ele><time>2020-01-31T13:31:03Z</time><name>PT10074</name></trkpt>
<trkpt lat="53.210075" lon="-1.742572"><ele>322</ele><time>2020-01-31T13:31:03Z</time><name>PT10075</name></trkpt>
<trkpt lat="53.210092" lon="-1.742564"><ele>322</ele><time>2020-01-31T13:31:04Z</time><name>PT10076</name></trkpt>
<trkpt lat="53.210108" lon="-1.742557"><ele>322</ele><time>2020-01-31T13:31:06Z</time><name>PT10077</name></trkpt>
<trkpt lat="53.210123" lon="-1.742550"><ele>322</ele><time>2020-01-31T13:31:06Z</time><name>PT10078</name></trkpt>
<trkpt lat="53.210141" lon="-1.742542"><ele>322</ele><time>2020-01-31T13:31:07Z</time><name>PT10079</name></trkpt>
<trkpt lat="53.210154" lon="-1.742534"><ele>321</ele><time>2020-01-31T13:31:09Z</time><name>PT10080</name></trkpt>
<trkpt lat="53.210167" lon="-1.742525"><ele>321</ele><time>2020-01-31T13:31:09Z</time><name>PT10081</name></trkpt>
<trkpt lat="53.210180" lon="-1.742518"><ele>321</ele><time>2020-01-31T13:31:10Z</time><name>PT10082</name></trkpt>
<trkpt lat="53.210193" lon="-1.742513"><ele>321</ele><time>2020-01-31T13:31:12Z</time><name>PT10083</name></trkpt>
<trkpt lat="53.210206" lon="-1.742508"><ele>321</ele><time>2020-01-31T13:31:12Z</time><name>PT10084</name></trkpt>
<trkpt lat="53.210220" lon="-1.742502"><ele>321</ele><time>2020-01-31T13:31:13Z</time><name>PT10085</name></trkpt>
<trkpt lat="53.210233" lon="-1.742493"><ele>321</ele><time>2020-01-31T13:31:15Z</time><name>PT10086</name></trkpt>
<trkpt lat="53.210246" lon="-1.742489"><ele>321</ele><time>2020-01-31T13:31:15Z</time><name>PT10087</name></trkpt>
<trkpt lat="53.210261" lon="-1.742485"><ele>321</ele><time>2020-01-31T13:31:16Z</time><name>PT10088</name></trkpt>
<trkpt lat="53.210274" lon="-1.742478"><ele>321</ele><time>2020-01-31T13:31:18Z</time><name>PT10089</name></trkpt>
<trkpt lat="53.210287" lon="-1.742473"><ele>321</ele><time>2020-01-31T13:31:18Z</time><name>PT10090</name></trkpt>
<trkpt lat="53.210301" lon="-1.742467"><ele>321</ele><time>2020-01-31T13:31:19Z</time><name>PT10091</name></trkpt>
<trkpt lat="53.210313" lon="-1.742459"><ele>321</ele><time>2020-01-31T13:31:21Z</time><name>PT10092</name></trkpt>
<trkpt lat="53.210324" lon="-1.742449"><ele>321</ele><time>2020-01-31T13:31:21Z</time><name>PT10093</name></trkpt>
<trkpt lat="53.210334" lon="-1.742440"><ele>321</ele><time>2020-01-31T13:31:22Z</time><name>PT10094</name></trkpt>
<trkpt lat="53.210345" lon="-1.742430"><ele>321</ele><time>2020-01-31T13:31:24Z</time><name>PT10095</name></trkpt>
<trkpt lat="53.210355" lon="-1.742423"><ele>321</ele><time>2020-01-31T13:31:24Z</time><name>PT10096</name></trkpt>
<trkpt lat="53.210365" lon="-1.742422"><ele>321</ele><time>2020-01-31T13:31:25Z</time><name>PT10097</name></trkpt>
<trkpt lat="53.210372" lon="-1.742424"><ele>321</ele><time>2020-01-31T13:31:27Z</time><name>PT10098</name></trkpt>
<trkpt lat="53.210381" lon="-1.742432"><ele>321</ele><time>2020-01-31T13:31:27Z</time><name>PT10099</name></trkpt>
<trkpt lat="53.210391" lon="-1.742444"><ele>321</ele><time>2020-01-31T13:31:28Z</time><name>PT10100</name></trkpt>
<trkpt lat="53.210401" lon="-1.742451"><ele>321</ele><time>2020-01-31T13:31:30Z</time><name>PT10101</name></trkpt>
<trkpt lat="53.210412" lon="-1.742453"><ele>321</ele><time>2020-01-31T13:31:30Z</time><name>PT10102</name></trkpt>
<trkpt lat="53.210424" lon="-1.742452"><ele>321</ele><time>2020-01-31T13:31:31Z</time><name>PT10103</name></trkpt>
<trkpt lat="53.210437" lon="-1.742447"><ele>321</ele><time>2020-01-31T13:31:33Z</time><name>PT10104</name></trkpt>
<trkpt lat="53.210450" lon="-1.742460"><ele>321</ele><time>2020-01-31T13:31:33Z</time><name>PT10105</name></trkpt>
<trkpt lat="53.210466" lon="-1.742443"><ele>321</ele><time>2020-01-31T13:31:34Z</time><name>PT10106</name></trkpt>
<trkpt lat="53.210479" lon="-1.742431"><ele>321</ele><time>2020-01-31T13:31:36Z</time><name>PT10107</name></trkpt>
<trkpt lat="53.210491" lon="-1.742424"><ele>321</ele><time>2020-01-31T13:31:36Z</time><name>PT10108</name></trkpt>
<trkpt lat="53.210502" lon="-1.742413"><ele>322</ele><time>2020-01-31T13:31:37Z</time><name>PT10109</name></trkpt>
<trkpt lat="53.210514" lon="-1.742402"><ele>322</ele><time>2020-01-31T13:31:39Z</time><name>PT10110</name></trkpt>
<trkpt lat="53.210525" lon="-1.742392"><ele>322</ele><time>2020-01-31T13:31:39Z</time><name>PT10111</name></trkpt>
<trkpt lat="53.210536" lon="-1.742383"><ele>322</ele><time>2020-01-31T13:31:40Z</time><name>PT10112</name></trkpt>
<trkpt lat="53.210548" lon="-1.742374"><ele>322</ele><time>2020-01-31T13:31:42Z</time><name>PT10113</name></trkpt>
<trkpt lat="53.210558" lon="-1.742364"><ele>322</ele><time>2020-01-31T13:31:42Z</time><name>PT10114</name></trkpt>
<trkpt lat="53.210568" lon="-1.742358"><ele>321</ele><time>2020-01-31T13:31:43Z</time><name>PT10115</name></trkpt>
<trkpt lat="53.210581" lon="-1.742351"><ele>321</ele><time>2020-01-31T13:31:45Z</time><name>PT10116</name></trkpt>
<trkpt lat="53.210593" lon="-1.742343"><ele>321</ele><time>2020-01-31T13:31:45Z</time><name>PT10117</name></trkpt>
<trkpt lat="53.210606" lon="-1.742333"><ele>321</ele><time>2020-01-31T13:31:46Z</time><name>PT10118</name></trkpt>
<trkpt lat="53.210617" lon="-1.742322"><ele>321</ele><time>2020-01-31T13:31:48Z</time><name>PT10119</name></trkpt>
<trkpt lat="53.210627" lon="-1.742309"><ele>321</ele><time>2020-01-31T13:31:48Z</time><name>PT10120</name></trkpt>
<trkpt lat="53.210638" lon="-1.742294"><ele>321</ele><time>2020-01-31T13:31:49Z</time><name>PT10121</name></trkpt>
<trkpt lat="53.210647" lon="-1.742278"><ele>321</ele><time>2020-01-31T13:31:51Z</time><name>PT10122</name></trkpt>
<trkpt lat="53.210656" lon="-1.742263"><ele>321</ele><time>2020-01-31T13:31:51Z</time><name>PT10123</name></trkpt>
<trkpt lat="53.210665" lon="-1.742248"><ele>322</ele><time>2020-01-31T13:31:52Z</time><name>PT10124</name></trkpt>
<trkpt lat="53.210675" lon="-1.742236"><ele>321</ele><time>2020-01-31T13:31:54Z</time><name>PT10125</name></trkpt>
<trkpt lat="53.210684" lon="-1.742222"><ele>322</ele><time>2020-01-31T13:31:54Z</time><name>PT10126</name></trkpt>
<trkpt lat="53.210693" lon="-1.742208"><ele>322</ele><time>2020-01-31T13:31:55Z</time><name>PT10127</name></trkpt>
<trkpt lat="53.210697" lon="-1.742196"><ele>322</ele><time>2020-01-31T13:31:57Z</time><name>PT10128</name></trkpt>
<trkpt lat="53.210704" lon="-1.742184"><ele>322</ele><time>2020-01-31T13:31:57Z</time><name>PT10129</name></trkpt>
<trkpt lat="53.210712" lon="-1.742168"><ele>322</ele><time>2020-01-31T13:31:58Z</time><name>PT10130</name></trkpt>
<trkpt lat="53.210719" lon="-1.742152"><ele>322</ele><time>2020-01-31T13:32:00Z</time><name>PT10131</name></trkpt>
<trkpt lat="53.210726" lon="-1.742137"><ele>322</ele><time>2020-01-31T13:32:00Z</time><name>PT10132</name></trkpt>
<trkpt lat="53.210733" lon="-1.742120"><ele>322</ele><time>2020-01-31T13:32:01Z</time><name>PT10133</name></trkpt>
<trkpt lat="53.210741" lon="-1.742104"><ele>322</ele><time>2020-01-31T13:32:03Z</time><name>PT10134</name></trkpt>
<trkpt lat="53.210748" lon="-1.742092"><ele>322</ele><time>2020-01-31T13:32:03Z</time><name>PT10135</name></trkpt>
<trkpt lat="53.210754" lon="-1.742078"><ele>322</ele><time>2020-01-31T13:32:04Z</time><name>PT10136</name></trkpt>
<trkpt lat="53.210760" lon="-1.742064"><ele>322</ele><time>2020-01-31T13:32:06Z</time><name>PT10137</name></trkpt>
<trkpt lat="53.210766" lon="-1.742048"><ele>322</ele><time>2020-01-31T13:32:06Z</time><name>PT10138</name></trkpt>
<trkpt lat="53.210774" lon="-1.742038"><ele>322</ele><time>2020-01-31T13:32:07Z</time><name>PT10139</name></trkpt>
<trkpt lat="53.210783" lon="-1.742030"><ele>322</ele><time>2020-01-31T13:32:09Z</time><name>PT10140</name></trkpt>
<trkpt lat="53.210795" lon="-1.742025"><ele>322</ele><time>2020-01-31T13:32:09Z</time><name>PT10141</name></trkpt>
<trkpt lat="53.210805" lon="-1.742026"><ele>322</ele><time>2020-01-31T13:32:10Z</time><name>PT10142</name></trkpt>
<trkpt lat="53.210816" lon="-1.742024"><ele>322</ele><time>2020-01-31T13:32:12Z</time><name>PT10143</name></trkpt>
<trkpt lat="53.210827" lon="-1.742016"><ele>322</ele><time>2020-01-31T13:32:12Z</time><name>PT10144</name></trkpt>
<trkpt lat="53.210837" lon="-1.742009"><ele>322</ele><time>2020-01-31T13:32:13Z</time><name>PT10145</name></trkpt>
<trkpt lat="53.210846" lon="-1.742000"><ele>322</ele><time>2020-01-31T13:32:15Z</time><name>PT10146</name></trkpt>
<trkpt lat="53.210856" lon="-1.741993"><ele>322</ele><time>2020-01-31T13:32:15Z</time><name>PT10147</name></trkpt>
<trkpt lat="53.210864" lon="-1.741984"><ele>322</ele><time>2020-01-31T13:32:16Z</time><name>PT10148</name></trkpt>
<trkpt lat="53.210872" lon="-1.741971"><ele>322</ele><time>2020-01-31T13:32:18Z</time><name>PT10149</name></trkpt>
<trkpt lat="53.210880" lon="-1.741955"><ele>322</ele><time>2020-01-31T13:32:18Z</time><name>PT10150</name></trkpt>
<trkpt lat="53.210883" lon="-1.741939"><ele>322</ele><time>2020-01-31T13:32:19Z</time><name>PT10151</name></trkpt>
<trkpt lat="53.210886" lon="-1.741926"><ele>322</ele><time>2020-01-31T13:32:21Z</time><name>PT10152</name></trkpt>
<trkpt lat="53.210889" lon="-1.741908"><ele>322</ele><time>2020-01-31T13:32:21Z</time><name>PT10153</name></trkpt>
<trkpt lat="53.210893" lon="-1.741893"><ele>323</ele><time>2020-01-31T13:32:22Z</time><name>PT10154</name></trkpt>
<trkpt lat="53.210898" lon="-1.741879"><ele>323</ele><time>2020-01-31T13:32:24Z</time><name>PT10155</name></trkpt>
<trkpt lat="53.210903" lon="-1.741868"><ele>323</ele><time>2020-01-31T13:32:24Z</time><name>PT10156</name></trkpt>
<trkpt lat="53.210907" lon="-1.741859"><ele>323</ele><time>2020-01-31T13:32:25Z</time><name>PT10157</name></trkpt>
<trkpt lat="53.210911" lon="-1.741844"><ele>323</ele><time>2020-01-31T13:32:27Z</time><name>PT10158</name></trkpt>
<trkpt lat="53.210915" lon="-1.741829"><ele>324</ele><time>2020-01-31T13:32:27Z</time><name>PT10159</name></trkpt>
<trkpt lat="53.210921" lon="-1.741816"><ele>324</ele><time>2020-01-31T13:32:28Z</time><name>PT10160</name></trkpt>
<trkpt lat="53.210930" lon="-1.741803"><ele>324</ele><time>2020-01-31T13:32:30Z</time><name>PT10161</name></trkpt>
<trkpt lat="53.210937" lon="-1.741791"><ele>324</ele><time>2020-01-31T13:32:30Z</time><name>PT10162</name></trkpt>
<trkpt lat="53.210943" lon="-1.741780"><ele>324</ele><time>2020-01-31T13:32:31Z</time><name>PT10163</name></trkpt>
<trkpt lat="53.210950" lon="-1.741765"><ele>324</ele><time>2020-01-31T13:32:33Z</time><name>PT10164</name></trkpt>
<trkpt lat="53.210956" lon="-1.741750"><ele>324</ele><time>2020-01-31T13:32:33Z</time><name>PT10165</name></trkpt>
<trkpt lat="53.210964" lon="-1.741737"><ele>324</ele><time>2020-01-31T13:32:34Z</time><name>PT10166</name></trkpt>
<trkpt lat="53.210971" lon="-1.741722"><ele>324</ele><time>2020-01-31T13:32:36Z</time><name>PT10167</name></trkpt>
<trkpt lat="53.210977" lon="-1.741708"><ele>323</ele><time>2020-01-31T13:32:36Z</time><name>PT10168</name></trkpt>
<trkpt lat="53.210982" lon="-1.741696"><ele>324</ele><time>2020-01-31T13:32:37Z</time><name>PT10169</name></trkpt>
<trkpt lat="53.210987" lon="-1.741685"><ele>324</ele><time>2020-01-31T13:32:39Z</time><name>PT10170</name></trkpt>
<trkpt lat="53.210991" lon="-1.741678"><ele>324</ele><time>2020-01-31T13:32:39Z</time><name>PT10171</name></trkpt>
<trkpt lat="53.210996" lon="-1.741674"><ele>323</ele><time>2020-01-31T13:32:40Z</time><name>PT10172</name></trkpt>
<trkpt lat="53.211000" lon="-1.741663"><ele>323</ele><time>2020-01-31T13:32:42Z</time><name>PT10173</name></trkpt>
<trkpt lat="53.211004" lon="-1.741652"><ele>323</ele><time>2020-01-31T13:32:42Z</time><name>PT10174</name></trkpt>
<trkpt lat="53.211003" lon="-1.741642"><ele>323</ele><time>2020-01-31T13:32:43Z</time><name>PT10175</name></trkpt>
<trkpt lat="53.211000" lon="-1.741638"><ele>324</ele><time>2020-01-31T13:32:45Z</time><name>PT10176</name></trkpt>
<trkpt lat="53.210998" lon="-1.741635"><ele>323</ele><time>2020-01-31T13:32:45Z</time><name>PT10177</name></trkpt>
<trkpt lat="53.210999" lon="-1.741629"><ele>324</ele><time>2020-01-31T13:32:46Z</time><name>PT10178</name></trkpt>
<trkpt lat="53.210997" lon="-1.741619"><ele>324</ele><time>2020-01-31T13:32:48Z</time><name>PT10179</name></trkpt>
<trkpt lat="53.210993" lon="-1.741624"><ele>324</ele><time>2020-01-31T13:32:48Z</time><name>PT10180</name></trkpt>
<trkpt lat="53.210988" lon="-1.741630"><ele>323</ele><time>2020-01-31T13:32:49Z</time><name>PT10181</name></trkpt>
<trkpt lat="53.210989" lon="-1.741623"><ele>323</ele><time>2020-01-31T13:32:51Z</time><name>PT10182</name></trkpt>
<trkpt lat="53.210991" lon="-1.741614"><ele>323</ele><time>2020-01-31T13:32:51Z</time><name>PT10183</name></trkpt>
<trkpt lat="53.210990" lon="-1.741604"><ele>323</ele><time>2020-01-31T13:32:52Z</time><name>PT10184</name></trkpt>
<trkpt lat="53.210988" lon="-1.741594"><ele>323</ele><time>2020-01-31T13:32:54Z</time><name>PT10185</name></trkpt>
<trkpt lat="53.210988" lon="-1.741587"><ele>323</ele><time>2020-01-31T13:32:54Z</time><name>PT10186</name></trkpt>
<trkpt lat="53.210988" lon="-1.741584"><ele>324</ele><time>2020-01-31T13:32:55Z</time><name>PT10187</name></trkpt>
<trkpt lat="53.210989" lon="-1.741583"><ele>324</ele><time>2020-01-31T13:32:57Z</time><name>PT10188</name></trkpt>
<trkpt lat="53.210987" lon="-1.741580"><ele>323</ele><time>2020-01-31T13:32:57Z</time><name>PT10189</name></trkpt>
<trkpt lat="53.210984" lon="-1.741573"><ele>323</ele><time>2020-01-31T13:32:58Z</time><name>PT10190</name></trkpt>
<trkpt lat="53.210981" lon="-1.741563"><ele>324</ele><time>2020-01-31T13:33:00Z</time><name>PT10191</name></trkpt>
<trkpt lat="53.210981" lon="-1.741552"><ele>324</ele><time>2020-01-31T13:33:00Z</time><name>PT10192</name></trkpt>
<trkpt lat="53.210980" lon="-1.741541"><ele>324</ele><time>2020-01-31T13:33:01Z</time><name>PT10193</name></trkpt>
<trkpt lat="53.210976" lon="-1.741530"><ele>324</ele><time>2020-01-31T13:33:03Z</time><name>PT10194</name></trkpt>
<trkpt lat="53.210972" lon="-1.741516"><ele>324</ele><time>2020-01-31T13:33:03Z</time><name>PT10195</name></trkpt>
<trkpt lat="53.210966" lon="-1.741501"><ele>324</ele><time>2020-01-31T13:33:04Z</time><name>PT10196</name></trkpt>
<trkpt lat="53.210960" lon="-1.741487"><ele>324</ele><time>2020-01-31T13:33:06Z</time><name>PT10197</name></trkpt>
<trkpt lat="53.210957" lon="-1.741470"><ele>324</ele><time>2020-01-31T13:33:06Z</time><name>PT10198</name></trkpt>
<trkpt lat="53.210954" lon="-1.741453"><ele>324</ele><time>2020-01-31T13:33:07Z</time><name>PT10199</name></trkpt>
<trkpt lat="53.210953" lon="-1.741436"><ele>324</ele><time>2020-01-31T13:33:09Z</time><name>PT10200</name></trkpt>
<trkpt lat="53.210949" lon="-1.741423"><ele>325</ele><time>2020-01-31T13:33:09Z</time><name>PT10201</name></trkpt>
<trkpt lat="53.210945" lon="-1.741407"><ele>325</ele><time>2020-01-31T13:33:10Z</time><name>PT10202</name></trkpt>
<trkpt lat="53.210941" lon="-1.741388"><ele>325</ele><time>2020-01-31T13:33:12Z</time><name>PT10203</name></trkpt>
<trkpt lat="53.210937" lon="-1.741368"><ele>325</ele><time>2020-01-31T13:33:12Z</time><name>PT10204</name></trkpt>
<trkpt lat="53.210935" lon="-1.741347"><ele>325</ele><time>2020-01-31T13:33:13Z</time><name>PT10205</name></trkpt>
<trkpt lat="53.210931" lon="-1.741329"><ele>325</ele><time>2020-01-31T13:33:15Z</time><name>PT10206</name></trkpt>
<trkpt lat="53.210925" lon="-1.741310"><ele>325</ele><time>2020-01-31T13:33:15Z</time><name>PT10207</name></trkpt>
<trkpt lat="53.210918" lon="-1.741292"><ele>325</ele><time>2020-01-31T13:33:16Z</time><name>PT10208</name></trkpt>
<trkpt lat="53.210913" lon="-1.741273"><ele>325</ele><time>2020-01-31T13:33:18Z</time><name>PT10209</name></trkpt>
<trkpt lat="53.210908" lon="-1.741253"><ele>325</ele><time>2020-01-31T13:33:18Z</time><name>PT10210</name></trkpt>
<trkpt lat="53.210902" lon="-1.741233"><ele>325</ele><time>2020-01-31T13:33:19Z</time><name>PT10211</name></trkpt>
<trkpt lat="53.210895" lon="-1.741214"><ele>325</ele><time>2020-01-31T13:33:21Z</time><name>PT10212</name></trkpt>
<trkpt lat="53.210889" lon="-1.741196"><ele>325</ele><time>2020-01-31T13:33:21Z</time><name>PT10213</name></trkpt>
<trkpt lat="53.210883" lon="-1.741176"><ele>325</ele><time>2020-01-31T13:33:22Z</time><name>PT10214</name></trkpt>
<trkpt lat="53.210878" lon="-1.741157"><ele>325</ele><time>2020-01-31T13:33:24Z</time><name>PT10215</name></trkpt>
<trkpt lat="53.210873" lon="-1.741137"><ele>326</ele><time>2020-01-31T13:33:24Z</time><name>PT10216</name></trkpt>
<trkpt lat="53.210867" lon="-1.741117"><ele>326</ele><time>2020-01-31T13:33:25Z</time><name>PT10217</name></trkpt>
<trkpt lat="53.210863" lon="-1.741098"><ele>326</ele><time>2020-01-31T13:33:27Z</time><name>PT10218</name></trkpt>
<trkpt lat="53.210857" lon="-1.741082"><ele>326</ele><time>2020-01-31T13:33:27Z</time><name>PT10219</name></trkpt>
<trkpt lat="53.210853" lon="-1.741065"><ele>326</ele><time>2020-01-31T13:33:28Z</time><name>PT10220</name></trkpt>
<trkpt lat="53.210849" lon="-1.741048"><ele>326</ele><time>2020-01-31T13:33:30Z</time><name>PT10221</name></trkpt>
<trkpt lat="53.210845" lon="-1.741031"><ele>326</ele><time>2020-01-31T13:33:30Z</time><name>PT10222</name></trkpt>
<trkpt lat="53.210842" lon="-1.741016"><ele>326</ele><time>2020-01-31T13:33:31Z</time><name>PT10223</name></trkpt>
<trkpt lat="53.210839" lon="-1.741000"><ele>326</ele><time>2020-01-31T13:33:33Z</time><name>PT10224</name></trkpt>
<trkpt lat="53.210834" lon="-1.740982"><ele>326</ele><time>2020-01-31T13:33:33Z</time><name>PT10225</name></trkpt>
<trkpt lat="53.210830" lon="-1.740966"><ele>326</ele><time>2020-01-31T13:33:34Z</time><name>PT10226</name></trkpt>
<trkpt lat="53.210828" lon="-1.740949"><ele>326</ele><time>2020-01-31T13:33:36Z</time><name>PT10227</name></trkpt>
<trkpt lat="53.210824" lon="-1.740939"><ele>326</ele><time>2020-01-31T13:33:36Z</time><name>PT10228</name></trkpt>
<trkpt lat="53.210824" lon="-1.740935"><ele>326</ele><time>2020-01-31T13:33:37Z</time><name>PT10229</name></trkpt>
<trkpt lat="53.210825" lon="-1.740933"><ele>326</ele><time>2020-01-31T13:33:39Z</time><name>PT10230</name></trkpt>
<trkpt lat="53.210825" lon="-1.740931"><ele>327</ele><time>2020-01-31T13:33:39Z</time><name>PT10231</name></trkpt>
<trkpt lat="53.210824" lon="-1.740930"><ele>327</ele><time>2020-01-31T13:33:40Z</time><name>PT10232</name></trkpt>
<trkpt lat="53.210825" lon="-1.740922"><ele>327</ele><time>2020-01-31T13:33:45Z</time><name>PT10233</name></trkpt>
<trkpt lat="53.210820" lon="-1.740904"><ele>327</ele><time>2020-01-31T13:33:46Z</time><name>PT10234</name></trkpt>
<trkpt lat="53.210814" lon="-1.740888"><ele>326</ele><time>2020-01-31T13:33:48Z</time><name>PT10235</name></trkpt>
<trkpt lat="53.210808" lon="-1.740870"><ele>327</ele><time>2020-01-31T13:33:48Z</time><name>PT10236</name></trkpt>
<trkpt lat="53.210802" lon="-1.740850"><ele>327</ele><time>2020-01-31T13:33:49Z</time><name>PT10237</name></trkpt>
<trkpt lat="53.210796" lon="-1.740830"><ele>327</ele><time>2020-01-31T13:33:51Z</time><name>PT10238</name></trkpt>
<trkpt lat="53.210792" lon="-1.740810"><ele>327</ele><time>2020-01-31T13:33:51Z</time><name>PT10239</name></trkpt>
<trkpt lat="53.210788" lon="-1.740790"><ele>326</ele><time>2020-01-31T13:33:52Z</time><name>PT10240</name></trkpt>
<trkpt lat="53.210783" lon="-1.740773"><ele>326</ele><time>2020-01-31T13:33:54Z</time><name>PT10241</name></trkpt>
<trkpt lat="53.210777" lon="-1.740756"><ele>327</ele><time>2020-01-31T13:33:54Z</time><name>PT10242</name></trkpt>
<trkpt lat="53.210770" lon="-1.740736"><ele>326</ele><time>2020-01-31T13:33:55Z</time><name>PT10243</name></trkpt>
<trkpt lat="53.210764" lon="-1.740717"><ele>326</ele><time>2020-01-31T13:33:57Z</time><name>PT10244</name></trkpt>
<trkpt lat="53.210759" lon="-1.740699"><ele>327</ele><time>2020-01-31T13:33:57Z</time><name>PT10245</name></trkpt>
<trkpt lat="53.210754" lon="-1.740678"><ele>326</ele><time>2020-01-31T13:33:58Z</time><name>PT10246</name></trkpt>
<trkpt lat="53.210749" lon="-1.740658"><ele>326</ele><time>2020-01-31T13:34:00Z</time><name>PT10247</name></trkpt>
<trkpt lat="53.210742" lon="-1.740640"><ele>327</ele><time>2020-01-31T13:34:00Z</time><name>PT10248</name></trkpt>
<trkpt lat="53.210736" lon="-1.740619"><ele>327</ele><time>2020-01-31T13:34:01Z</time><name>PT10249</name></trkpt>
<trkpt lat="53.210732" lon="-1.740600"><ele>327</ele><time>2020-01-31T13:34:03Z</time><name>PT10250</name></trkpt>
<trkpt lat="53.210727" lon="-1.740580"><ele>327</ele><time>2020-01-31T13:34:03Z</time><name>PT10251</name></trkpt>
<trkpt lat="53.210721" lon="-1.740562"><ele>327</ele><time>2020-01-31T13:34:04Z</time><name>PT10252</name></trkpt>
<trkpt lat="53.210717" lon="-1.740543"><ele>327</ele><time>2020-01-31T13:34:06Z</time><name>PT10253</name></trkpt>
<trkpt lat="53.210711" lon="-1.740525"><ele>328</ele><time>2020-01-31T13:34:06Z</time><name>PT10254</name></trkpt>
<trkpt lat="53.210709" lon="-1.740509"><ele>327</ele><time>2020-01-31T13:34:07Z</time><name>PT10255</name></trkpt>
<trkpt lat="53.210705" lon="-1.740486"><ele>326</ele><time>2020-01-31T13:34:09Z</time><name>PT10256</name></trkpt>
<trkpt lat="53.210696" lon="-1.740459"><ele>326</ele><time>2020-01-31T13:34:09Z</time><name>PT10257</name></trkpt>
<trkpt lat="53.210689" lon="-1.740438"><ele>326</ele><time>2020-01-31T13:34:10Z</time><name>PT10258</name></trkpt>
<trkpt lat="53.210687" lon="-1.740419"><ele>326</ele><time>2020-01-31T13:34:12Z</time><name>PT10259</name></trkpt>
<trkpt lat="53.210686" lon="-1.740406"><ele>326</ele><time>2020-01-31T13:34:12Z</time><name>PT10260</name></trkpt>
<trkpt lat="53.210683" lon="-1.740394"><ele>326</ele><time>2020-01-31T13:34:13Z</time><name>PT10261</name></trkpt>
<trkpt lat="53.210677" lon="-1.740376"><ele>327</ele><time>2020-01-31T13:34:15Z</time><name>PT10262</name></trkpt>
<trkpt lat="53.210670" lon="-1.740354"><ele>327</ele><time>2020-01-31T13:34:15Z</time><name>PT10263</name></trkpt>
<trkpt lat="53.210664" lon="-1.740332"><ele>326</ele><time>2020-01-31T13:34:16Z</time><name>PT10264</name></trkpt>
<trkpt lat="53.210657" lon="-1.740313"><ele>326</ele><time>2020-01-31T13:34:18Z</time><name>PT10265</name></trkpt>
<trkpt lat="53.210653" lon="-1.740297"><ele>326</ele><time>2020-01-31T13:34:18Z</time><name>PT10266</name></trkpt>
<trkpt lat="53.210651" lon="-1.740282"><ele>326</ele><time>2020-01-31T13:34:19Z</time><name>PT10267</name></trkpt>
<trkpt lat="53.210647" lon="-1.740265"><ele>326</ele><time>2020-01-31T13:34:21Z</time><name>PT10268</name></trkpt>
<trkpt lat="53.210639" lon="-1.740246"><ele>326</ele><time>2020-01-31T13:34:21Z</time><name>PT10269</name></trkpt>
<trkpt lat="53.210632" lon="-1.740223"><ele>326</ele><time>2020-01-31T13:34:22Z</time><name>PT10270</name></trkpt>
<trkpt lat="53.210625" lon="-1.740205"><ele>326</ele><time>2020-01-31T13:34:24Z</time><name>PT10271</name></trkpt>
<trkpt lat="53.210620" lon="-1.740192"><ele>326</ele><time>2020-01-31T13:34:24Z</time><name>PT10272</name></trkpt>
<trkpt lat="53.210618" lon="-1.740179"><ele>326</ele><time>2020-01-31T13:34:25Z</time><name>PT10273</name></trkpt>
<trkpt lat="53.210613" lon="-1.740159"><ele>326</ele><time>2020-01-31T13:34:27Z</time><name>PT10274</name></trkpt>
<trkpt lat="53.210608" lon="-1.740134"><ele>327</ele><time>2020-01-31T13:34:27Z</time><name>PT10275</name></trkpt>
<trkpt lat="53.210603" lon="-1.740113"><ele>327</ele><time>2020-01-31T13:34:28Z</time><name>PT10276</name></trkpt>
<trkpt lat="53.210600" lon="-1.740096"><ele>326</ele><time>2020-01-31T13:34:30Z</time><name>PT10277</name></trkpt>
<trkpt lat="53.210596" lon="-1.740082"><ele>327</ele><time>2020-01-31T13:34:30Z</time><name>PT10278</name></trkpt>
<trkpt lat="53.210594" lon="-1.740067"><ele>327</ele><time>2020-01-31T13:34:31Z</time><name>PT10279</name></trkpt>
<trkpt lat="53.210589" lon="-1.740053"><ele>327</ele><time>2020-01-31T13:34:33Z</time><name>PT10280</name></trkpt>
<trkpt lat="53.210583" lon="-1.740033"><ele>328</ele><time>2020-01-31T13:34:33Z</time><name>PT10281</name></trkpt>
<trkpt lat="53.210576" lon="-1.740010"><ele>328</ele><time>2020-01-31T13:34:34Z</time><name>PT10282</name></trkpt>
<trkpt lat="53.210569" lon="-1.739990"><ele>328</ele><time>2020-01-31T13:34:36Z</time><name>PT10283</name></trkpt>
<trkpt lat="53.210563" lon="-1.739974"><ele>328</ele><time>2020-01-31T13:34:36Z</time><name>PT10284</name></trkpt>
<trkpt lat="53.210557" lon="-1.739958"><ele>329</ele><time>2020-01-31T13:34:37Z</time><name>PT10285</name></trkpt>
<trkpt lat="53.210552" lon="-1.739943"><ele>329</ele><time>2020-01-31T13:34:39Z</time><name>PT10286</name></trkpt>
<trkpt lat="53.210550" lon="-1.739927"><ele>329</ele><time>2020-01-31T13:34:39Z</time><name>PT10287</name></trkpt>
<trkpt lat="53.210545" lon="-1.739910"><ele>329</ele><time>2020-01-31T13:34:40Z</time><name>PT10288</name></trkpt>
<trkpt lat="53.210543" lon="-1.739900"><ele>329</ele><time>2020-01-31T13:34:42Z</time><name>PT10289</name></trkpt>
<trkpt lat="53.210540" lon="-1.739888"><ele>328</ele><time>2020-01-31T13:34:42Z</time><name>PT10290</name></trkpt>
<trkpt lat="53.210532" lon="-1.739869"><ele>328</ele><time>2020-01-31T13:34:43Z</time><name>PT10291</name></trkpt>
<trkpt lat="53.210525" lon="-1.739845"><ele>329</ele><time>2020-01-31T13:34:45Z</time><name>PT10292</name></trkpt>
<trkpt lat="53.210519" lon="-1.739826"><ele>328</ele><time>2020-01-31T13:34:45Z</time><name>PT10293</name></trkpt>
<trkpt lat="53.210514" lon="-1.739809"><ele>329</ele><time>2020-01-31T13:34:46Z</time><name>PT10294</name></trkpt>
<trkpt lat="53.210511" lon="-1.739795"><ele>329</ele><time>2020-01-31T13:34:48Z</time><name>PT10295</name></trkpt>
<trkpt lat="53.210507" lon="-1.739775"><ele>329</ele><time>2020-01-31T13:34:48Z</time><name>PT10296</name></trkpt>
<trkpt lat="53.210498" lon="-1.739753"><ele>329</ele><time>2020-01-31T13:34:49Z</time><name>PT10297</name></trkpt>
<trkpt lat="53.210489" lon="-1.739727"><ele>329</ele><time>2020-01-31T13:34:51Z</time><name>PT10298</name></trkpt>
<trkpt lat="53.210483" lon="-1.739707"><ele>329</ele><time>2020-01-31T13:34:51Z</time><name>PT10299</name></trkpt>
<trkpt lat="53.210476" lon="-1.739686"><ele>330</ele><time>2020-01-31T13:34:52Z</time><name>PT10300</name></trkpt>
<trkpt lat="53.210471" lon="-1.739666"><ele>330</ele><time>2020-01-31T13:34:54Z</time><name>PT10301</name></trkpt>
<trkpt lat="53.210472" lon="-1.739652"><ele>330</ele><time>2020-01-31T13:34:54Z</time><name>PT10302</name></trkpt>
<trkpt lat="53.210468" lon="-1.739631"><ele>330</ele><time>2020-01-31T13:34:55Z</time><name>PT10303</name></trkpt>
<trkpt lat="53.210460" lon="-1.739611"><ele>330</ele><time>2020-01-31T13:34:57Z</time><name>PT10304</name></trkpt>
<trkpt lat="53.210454" lon="-1.739592"><ele>330</ele><time>2020-01-31T13:34:57Z</time><name>PT10305</name></trkpt>
<trkpt lat="53.210450" lon="-1.739571"><ele>331</ele><time>2020-01-31T13:34:58Z</time><name>PT10306</name></trkpt>
<trkpt lat="53.210445" lon="-1.739553"><ele>331</ele><time>2020-01-31T13:35:00Z</time><name>PT10307</name></trkpt>
<trkpt lat="53.210441" lon="-1.739530"><ele>331</ele><time>2020-01-31T13:35:00Z</time><name>PT10308</name></trkpt>
<trkpt lat="53.210434" lon="-1.739499"><ele>331</ele><time>2020-01-31T13:35:01Z</time><name>PT10309</name></trkpt>
<trkpt lat="53.210427" lon="-1.739475"><ele>331</ele><time>2020-01-31T13:35:03Z</time><name>PT10310</name></trkpt>
<trkpt lat="53.210422" lon="-1.739460"><ele>331</ele><time>2020-01-31T13:35:03Z</time><name>PT10311</name></trkpt>
<trkpt lat="53.210419" lon="-1.739447"><ele>331</ele><time>2020-01-31T13:35:04Z</time><name>PT10312</name></trkpt>
<trkpt lat="53.210416" lon="-1.739432"><ele>331</ele><time>2020-01-31T13:35:06Z</time><name>PT10313</name></trkpt>
<trkpt lat="53.210410" lon="-1.739415"><ele>332</ele><time>2020-01-31T13:35:06Z</time><name>PT10314</name></trkpt>
<trkpt lat="53.210405" lon="-1.739397"><ele>332</ele><time>2020-01-31T13:35:07Z</time><name>PT10315</name></trkpt>
<trkpt lat="53.210401" lon="-1.739381"><ele>332</ele><time>2020-01-31T13:35:09Z</time><name>PT10316</name></trkpt>
<trkpt lat="53.210397" lon="-1.739365"><ele>332</ele><time>2020-01-31T13:35:09Z</time><name>PT10317</name></trkpt>
<trkpt lat="53.210394" lon="-1.739343"><ele>331</ele><time>2020-01-31T13:35:10Z</time><name>PT10318</name></trkpt>
<trkpt lat="53.210390" lon="-1.739319"><ele>331</ele><time>2020-01-31T13:35:12Z</time><name>PT10319</name></trkpt>
<trkpt lat="53.210383" lon="-1.739298"><ele>332</ele><time>2020-01-31T13:35:12Z</time><name>PT10320</name></trkpt>
<trkpt lat="53.210375" lon="-1.739272"><ele>332</ele><time>2020-01-31T13:35:13Z</time><name>PT10321</name></trkpt>
<trkpt lat="53.210366" lon="-1.739251"><ele>332</ele><time>2020-01-31T13:35:15Z</time><name>PT10322</name></trkpt>
<trkpt lat="53.210362" lon="-1.739237"><ele>332</ele><time>2020-01-31T13:35:15Z</time><name>PT10323</name></trkpt>
<trkpt lat="53.210360" lon="-1.739225"><ele>332</ele><time>2020-01-31T13:35:16Z</time><name>PT10324</name></trkpt>
<trkpt lat="53.210358" lon="-1.739210"><ele>332</ele><time>2020-01-31T13:35:18Z</time><name>PT10325</name></trkpt>
<trkpt lat="53.210351" lon="-1.739185"><ele>331</ele><time>2020-01-31T13:35:18Z</time><name>PT10326</name></trkpt>
<trkpt lat="53.210344" lon="-1.739155"><ele>331</ele><time>2020-01-31T13:35:19Z</time><name>PT10327</name></trkpt>
<trkpt lat="53.210340" lon="-1.739129"><ele>331</ele><time>2020-01-31T13:35:21Z</time><name>PT10328</name></trkpt>
<trkpt lat="53.210337" lon="-1.739109"><ele>332</ele><time>2020-01-31T13:35:21Z</time><name>PT10329</name></trkpt>
<trkpt lat="53.210334" lon="-1.739096"><ele>332</ele><time>2020-01-31T13:35:22Z</time><name>PT10330</name></trkpt>
<trkpt lat="53.210332" lon="-1.739083"><ele>332</ele><time>2020-01-31T13:35:24Z</time><name>PT10331</name></trkpt>
<trkpt lat="53.210327" lon="-1.739061"><ele>332</ele><time>2020-01-31T13:35:24Z</time><name>PT10332</name></trkpt>
<trkpt lat="53.210321" lon="-1.739032"><ele>332</ele><time>2020-01-31T13:35:25Z</time><name>PT10333</name></trkpt>
<trkpt lat="53.210316" lon="-1.739007"><ele>332</ele><time>2020-01-31T13:35:27Z</time><name>PT10334</name></trkpt>
<trkpt lat="53.210311" lon="-1.738989"><ele>331</ele><time>2020-01-31T13:35:27Z</time><name>PT10335</name></trkpt>
<trkpt lat="53.210307" lon="-1.738971"><ele>332</ele><time>2020-01-31T13:35:28Z</time><name>PT10336</name></trkpt>
<trkpt lat="53.210302" lon="-1.738951"><ele>332</ele><time>2020-01-31T13:35:30Z</time><name>PT10337</name></trkpt>
<trkpt lat="53.210297" lon="-1.738933"><ele>332</ele><time>2020-01-31T13:35:30Z</time><name>PT10338</name></trkpt>
<trkpt lat="53.210294" lon="-1.738914"><ele>332</ele><time>2020-01-31T13:35:31Z</time><name>PT10339</name></trkpt>
<trkpt lat="53.210291" lon="-1.738895"><ele>331</ele><time>2020-01-31T13:35:33Z</time><name>PT10340</name></trkpt>
<trkpt lat="53.210287" lon="-1.738878"><ele>331</ele><time>2020-01-31T13:35:33Z</time><name>PT10341</name></trkpt>
<trkpt lat="53.210285" lon="-1.738863"><ele>331</ele><time>2020-01-31T13:35:34Z</time><name>PT10342</name></trkpt>
<trkpt lat="53.210281" lon="-1.738841"><ele>332</ele><time>2020-01-31T13:35:36Z</time><name>PT10343</name></trkpt>
<trkpt lat="53.210274" lon="-1.738816"><ele>332</ele><time>2020-01-31T13:35:36Z</time><name>PT10344</name></trkpt>
<trkpt lat="53.210269" lon="-1.738790"><ele>332</ele><time>2020-01-31T13:35:37Z</time><name>PT10345</name></trkpt>
<trkpt lat="53.210265" lon="-1.738772"><ele>332</ele><time>2020-01-31T13:35:39Z</time><name>PT10346</name></trkpt>
<trkpt lat="53.210263" lon="-1.738759"><ele>332</ele><time>2020-01-31T13:35:39Z</time><name>PT10347</name></trkpt>
<trkpt lat="53.210260" lon="-1.738745"><ele>332</ele><time>2020-01-31T13:35:40Z</time><name>PT10348</name></trkpt>
<trkpt lat="53.210254" lon="-1.738723"><ele>332</ele><time>2020-01-31T13:35:42Z</time><name>PT10349</name></trkpt>
<trkpt lat="53.210249" lon="-1.738702"><ele>333</ele><time>2020-01-31T13:35:42Z</time><name>PT10350</name></trkpt>
<trkpt lat="53.210243" lon="-1.738677"><ele>332</ele><time>2020-01-31T13:35:43Z</time><name>PT10351</name></trkpt>
<trkpt lat="53.210237" lon="-1.738669"><ele>333</ele><time>2020-01-31T13:35:45Z</time><name>PT10352</name></trkpt>
<trkpt lat="53.210234" lon="-1.738667"><ele>332</ele><time>2020-01-31T13:35:45Z</time><name>PT10353</name></trkpt>
<trkpt lat="53.210233" lon="-1.738661"><ele>332</ele><time>2020-01-31T13:35:46Z</time><name>PT10354</name></trkpt>
<trkpt lat="53.210232" lon="-1.738654"><ele>332</ele><time>2020-01-31T13:35:48Z</time><name>PT10355</name></trkpt>
<trkpt lat="53.210232" lon="-1.738651"><ele>332</ele><time>2020-01-31T13:35:48Z</time><name>PT10356</name></trkpt>
<trkpt lat="53.210231" lon="-1.738649"><ele>332</ele><time>2020-01-31T13:35:49Z</time><name>PT10357</name></trkpt>
<trkpt lat="53.210232" lon="-1.738645"><ele>332</ele><time>2020-01-31T13:35:51Z</time><name>PT10358</name></trkpt>
<trkpt lat="53.210232" lon="-1.738638"><ele>331</ele><time>2020-01-31T13:35:51Z</time><name>PT10359</name></trkpt>
<trkpt lat="53.210232" lon="-1.738628"><ele>332</ele><time>2020-01-31T13:35:52Z</time><name>PT10360</name></trkpt>
<trkpt lat="53.210232" lon="-1.738615"><ele>332</ele><time>2020-01-31T13:35:54Z</time><name>PT10361</name></trkpt>
<trkpt lat="53.210228" lon="-1.738603"><ele>332</ele><time>2020-01-31T13:35:54Z</time><name>PT10362</name></trkpt>
<trkpt lat="53.210223" lon="-1.738594"><ele>332</ele><time>2020-01-31T13:35:55Z</time><name>PT10363</name></trkpt>
<trkpt lat="53.210219" lon="-1.738581"><ele>332</ele><time>2020-01-31T13:35:57Z</time><name>PT10364</name></trkpt>
<trkpt lat="53.210218" lon="-1.738574"><ele>332</ele><time>2020-01-31T13:35:57Z</time><name>PT10365</name></trkpt>
<trkpt lat="53.210214" lon="-1.738563"><ele>332</ele><time>2020-01-31T13:35:58Z</time><name>PT10366</name></trkpt>
<trkpt lat="53.210209" lon="-1.738546"><ele>332</ele><time>2020-01-31T13:36:00Z</time><name>PT10367</name></trkpt>
<trkpt lat="53.210205" lon="-1.738528"><ele>333</ele><time>2020-01-31T13:36:00Z</time><name>PT10368</name></trkpt>
<trkpt lat="53.210202" lon="-1.738510"><ele>333</ele><time>2020-01-31T13:36:01Z</time><name>PT10369</name></trkpt>
<trkpt lat="53.210199" lon="-1.738495"><ele>332</ele><time>2020-01-31T13:36:03Z</time><name>PT10370</name></trkpt>
<trkpt lat="53.210193" lon="-1.738478"><ele>333</ele><time>2020-01-31T13:36:03Z</time><name>PT10371</name></trkpt>
<trkpt lat="53.210187" lon="-1.738459"><ele>333</ele><time>2020-01-31T13:36:04Z</time><name>PT10372</name></trkpt>
<trkpt lat="53.210182" lon="-1.738443"><ele>333</ele><time>2020-01-31T13:36:06Z</time><name>PT10373</name></trkpt>
<trkpt lat="53.210176" lon="-1.738426"><ele>333</ele><time>2020-01-31T13:36:06Z</time><name>PT10374</name></trkpt>
<trkpt lat="53.210171" lon="-1.738411"><ele>332</ele><time>2020-01-31T13:36:07Z</time><name>PT10375</name></trkpt>
<trkpt lat="53.210166" lon="-1.738394"><ele>333</ele><time>2020-01-31T13:36:09Z</time><name>PT10376</name></trkpt>
<trkpt lat="53.210162" lon="-1.738379"><ele>333</ele><time>2020-01-31T13:36:09Z</time><name>PT10377</name></trkpt>
<trkpt lat="53.210157" lon="-1.738363"><ele>333</ele><time>2020-01-31T13:36:10Z</time><name>PT10378</name></trkpt>
<trkpt lat="53.210152" lon="-1.738346"><ele>332</ele><time>2020-01-31T13:36:12Z</time><name>PT10379</name></trkpt>
<trkpt lat="53.210148" lon="-1.738329"><ele>333</ele><time>2020-01-31T13:36:12Z</time><name>PT10380</name></trkpt>
<trkpt lat="53.210143" lon="-1.738310"><ele>333</ele><time>2020-01-31T13:36:13Z</time><name>PT10381</name></trkpt>
<trkpt lat="53.210139" lon="-1.738293"><ele>333</ele><time>2020-01-31T13:36:15Z</time><name>PT10382</name></trkpt>
<trkpt lat="53.210136" lon="-1.738284"><ele>333</ele><time>2020-01-31T13:36:15Z</time><name>PT10383</name></trkpt>
<trkpt lat="53.210136" lon="-1.738281"><ele>333</ele><time>2020-01-31T13:36:16Z</time><name>PT10384</name></trkpt>
<trkpt lat="53.210135" lon="-1.738279"><ele>333</ele><time>2020-01-31T13:36:18Z</time><name>PT10385</name></trkpt>
<trkpt lat="53.210134" lon="-1.738278"><ele>333</ele><time>2020-01-31T13:36:18Z</time><name>PT10386</name></trkpt>
<trkpt lat="53.210136" lon="-1.738281"><ele>333</ele><time>2020-01-31T13:36:21Z</time><name>PT10387</name></trkpt>
<trkpt lat="53.210141" lon="-1.738307"><ele>332</ele><time>2020-01-31T13:36:21Z</time><name>PT10388</name></trkpt>
<trkpt lat="53.210146" lon="-1.738326"><ele>332</ele><time>2020-01-31T13:36:22Z</time><name>PT10389</name></trkpt>
<trkpt lat="53.210150" lon="-1.738343"><ele>332</ele><time>2020-01-31T13:36:24Z</time><name>PT10390</name></trkpt>
<trkpt lat="53.210154" lon="-1.738361"><ele>332</ele><time>2020-01-31T13:36:24Z</time><name>PT10391</name></trkpt>
<trkpt lat="53.210159" lon="-1.738375"><ele>332</ele><time>2020-01-31T13:36:25Z</time><name>PT10392</name></trkpt>
<trkpt lat="53.210161" lon="-1.738390"><ele>331</ele><time>2020-01-31T13:36:27Z</time><name>PT10393</name></trkpt>
<trkpt lat="53.210163" lon="-1.738409"><ele>331</ele><time>2020-01-31T13:36:27Z</time><name>PT10394</name></trkpt>
<trkpt lat="53.210165" lon="-1.738428"><ele>331</ele><time>2020-01-31T13:36:28Z</time><name>PT10395</name></trkpt>
<trkpt lat="53.210168" lon="-1.738446"><ele>331</ele><time>2020-01-31T13:36:30Z</time><name>PT10396</name></trkpt>
<trkpt lat="53.210172" lon="-1.738465"><ele>331</ele><time>2020-01-31T13:36:30Z</time><name>PT10397</name></trkpt>
<trkpt lat="53.210175" lon="-1.738485"><ele>331</ele><time>2020-01-31T13:36:31Z</time><name>PT10398</name></trkpt>
<trkpt lat="53.210181" lon="-1.738500"><ele>331</ele><time>2020-01-31T13:36:33Z</time><name>PT10399</name></trkpt>
<trkpt lat="53.210186" lon="-1.738512"><ele>331</ele><time>2020-01-31T13:36:33Z</time><name>PT10400</name></trkpt>
<trkpt lat="53.210189" lon="-1.738534"><ele>331</ele><time>2020-01-31T13:36:34Z</time><name>PT10401</name></trkpt>
<trkpt lat="53.210189" lon="-1.738563"><ele>331</ele><time>2020-01-31T13:36:36Z</time><name>PT10402</name></trkpt>
<trkpt lat="53.210189" lon="-1.738587"><ele>331</ele><time>2020-01-31T13:36:36Z</time><name>PT10403</name></trkpt>
<trkpt lat="53.210186" lon="-1.738605"><ele>331</ele><time>2020-01-31T13:36:37Z</time><name>PT10404</name></trkpt>
<trkpt lat="53.210184" lon="-1.738614"><ele>331</ele><time>2020-01-31T13:36:39Z</time><name>PT10405</name></trkpt>
<trkpt lat="53.210184" lon="-1.738618"><ele>331</ele><time>2020-01-31T13:36:39Z</time><name>PT10406</name></trkpt>
<trkpt lat="53.210184" lon="-1.738621"><ele>331</ele><time>2020-01-31T13:36:40Z</time><name>PT10407</name></trkpt>
<trkpt lat="53.210181" lon="-1.738624"><ele>331</ele><time>2020-01-31T13:36:42Z</time><name>PT10408</name></trkpt>
<trkpt lat="53.210177" lon="-1.738630"><ele>331</ele><time>2020-01-31T13:36:42Z</time><name>PT10409</name></trkpt>
<trkpt lat="53.210172" lon="-1.738634"><ele>331</ele><time>2020-01-31T13:36:43Z</time><name>PT10410</name></trkpt>
<trkpt lat="53.210166" lon="-1.738640"><ele>331</ele><time>2020-01-31T13:36:45Z</time><name>PT10411</name></trkpt>
<trkpt lat="53.210161" lon="-1.738641"><ele>331</ele><time>2020-01-31T13:36:45Z</time><name>PT10412</name></trkpt>
<trkpt lat="53.210159" lon="-1.738641"><ele>331</ele><time>2020-01-31T13:36:46Z</time><name>PT10413</name></trkpt>
<trkpt lat="53.210154" lon="-1.738644"><ele>332</ele><time>2020-01-31T13:36:48Z</time><name>PT10414</name></trkpt>
<trkpt lat="53.210147" lon="-1.738647"><ele>332</ele><time>2020-01-31T13:36:48Z</time><name>PT10415</name></trkpt>
<trkpt lat="53.210147" lon="-1.738648"><ele>332</ele><time>2020-01-31T13:36:49Z</time><name>PT10416</name></trkpt>
<trkpt lat="53.210141" lon="-1.738645"><ele>332</ele><time>2020-01-31T13:36:51Z</time><name>PT10417</name></trkpt>
<trkpt lat="53.210135" lon="-1.738642"><ele>332</ele><time>2020-01-31T13:36:51Z</time><name>PT10418</name></trkpt>
<trkpt lat="53.210129" lon="-1.738636"><ele>332</ele><time>2020-01-31T13:36:52Z</time><name>PT10419</name></trkpt>
<trkpt lat="53.210122" lon="-1.738628"><ele>332</ele><time>2020-01-31T13:36:54Z</time><name>PT10420</name></trkpt>
<trkpt lat="53.210116" lon="-1.738621"><ele>332</ele><time>2020-01-31T13:36:54Z</time><name>PT10421</name></trkpt>
<trkpt lat="53.210111" lon="-1.738619"><ele>332</ele><time>2020-01-31T13:36:55Z</time><name>PT10422</name></trkpt>
<trkpt lat="53.210105" lon="-1.738616"><ele>332</ele><time>2020-01-31T13:36:57Z</time><name>PT10423</name></trkpt>
<trkpt lat="53.210098" lon="-1.738609"><ele>332</ele><time>2020-01-31T13:36:57Z</time><name>PT10424</name></trkpt>
<trkpt lat="53.210090" lon="-1.738602"><ele>332</ele><time>2020-01-31T13:36:58Z</time><name>PT10425</name></trkpt>
<trkpt lat="53.210080" lon="-1.738594"><ele>332</ele><time>2020-01-31T13:37:00Z</time><name>PT10426</name></trkpt>
<trkpt lat="53.210069" lon="-1.738587"><ele>331</ele><time>2020-01-31T13:37:00Z</time><name>PT10427</name></trkpt>
<trkpt lat="53.210061" lon="-1.738576"><ele>331</ele><time>2020-01-31T13:37:01Z</time><name>PT10428</name></trkpt>
<trkpt lat="53.210052" lon="-1.738562"><ele>331</ele><time>2020-01-31T13:37:03Z</time><name>PT10429</name></trkpt>
<trkpt lat="53.210044" lon="-1.738552"><ele>331</ele><time>2020-01-31T13:37:03Z</time><name>PT10430</name></trkpt>
<trkpt lat="53.210034" lon="-1.738543"><ele>331</ele><time>2020-01-31T13:37:04Z</time><name>PT10431</name></trkpt>
<trkpt lat="53.210022" lon="-1.738532"><ele>331</ele><time>2020-01-31T13:37:06Z</time><name>PT10432</name></trkpt>
<trkpt lat="53.210010" lon="-1.738522"><ele>331</ele><time>2020-01-31T13:37:06Z</time><name>PT10433</name></trkpt>
<trkpt lat="53.209997" lon="-1.738512"><ele>331</ele><time>2020-01-31T13:37:07Z</time><name>PT10434</name></trkpt>
<trkpt lat="53.209988" lon="-1.738498"><ele>331</ele><time>2020-01-31T13:37:09Z</time><name>PT10435</name></trkpt>
<trkpt lat="53.209979" lon="-1.738485"><ele>331</ele><time>2020-01-31T13:37:09Z</time><name>PT10436</name></trkpt>
<trkpt lat="53.209976" lon="-1.738470"><ele>331</ele><time>2020-01-31T13:37:10Z</time><name>PT10437</name></trkpt>
<trkpt lat="53.209968" lon="-1.738454"><ele>331</ele><time>2020-01-31T13:37:12Z</time><name>PT10438</name></trkpt>
<trkpt lat="53.209957" lon="-1.738438"><ele>330</ele><time>2020-01-31T13:37:12Z</time><name>PT10439</name></trkpt>
<trkpt lat="53.209947" lon="-1.738422"><ele>330</ele><time>2020-01-31T13:37:13Z</time><name>PT10440</name></trkpt>
<trkpt lat="53.209938" lon="-1.738411"><ele>330</ele><time>2020-01-31T13:37:15Z</time><name>PT10441</name></trkpt>
<trkpt lat="53.209932" lon="-1.738403"><ele>331</ele><time>2020-01-31T13:37:15Z</time><name>PT10442</name></trkpt>
<trkpt lat="53.209927" lon="-1.738394"><ele>331</ele><time>2020-01-31T13:37:16Z</time><name>PT10443</name></trkpt>
<trkpt lat="53.209920" lon="-1.738380"><ele>331</ele><time>2020-01-31T13:37:18Z</time><name>PT10444</name></trkpt>
<trkpt lat="53.209907" lon="-1.738364"><ele>332</ele><time>2020-01-31T13:37:18Z</time><name>PT10445</name></trkpt>
<trkpt lat="53.209896" lon="-1.738347"><ele>332</ele><time>2020-01-31T13:37:19Z</time><name>PT10446</name></trkpt>
<trkpt lat="53.209888" lon="-1.738333"><ele>332</ele><time>2020-01-31T13:37:21Z</time><name>PT10447</name></trkpt>
<trkpt lat="53.209881" lon="-1.738320"><ele>331</ele><time>2020-01-31T13:37:21Z</time><name>PT10448</name></trkpt>
<trkpt lat="53.209874" lon="-1.738304"><ele>332</ele><time>2020-01-31T13:37:22Z</time><name>PT10449</name></trkpt>
<trkpt lat="53.209864" lon="-1.738291"><ele>332</ele><time>2020-01-31T13:37:24Z</time><name>PT10450</name></trkpt>
<trkpt lat="53.209855" lon="-1.738279"><ele>332</ele><time>2020-01-31T13:37:24Z</time><name>PT10451</name></trkpt>
<trkpt lat="53.209845" lon="-1.738261"><ele>333</ele><time>2020-01-31T13:37:25Z</time><name>PT10452</name></trkpt>
<trkpt lat="53.209837" lon="-1.738245"><ele>332</ele><time>2020-01-31T13:37:27Z</time><name>PT10453</name></trkpt>
<trkpt lat="53.209830" lon="-1.738232"><ele>332</ele><time>2020-01-31T13:37:27Z</time><name>PT10454</name></trkpt>
<trkpt lat="53.209824" lon="-1.738219"><ele>333</ele><time>2020-01-31T13:37:28Z</time><name>PT10455</name></trkpt>
<trkpt lat="53.209818" lon="-1.738205"><ele>333</ele><time>2020-01-31T13:37:30Z</time><name>PT10456</name></trkpt>
<trkpt lat="53.209808" lon="-1.738183"><ele>333</ele><time>2020-01-31T13:37:30Z</time><name>PT10457</name></trkpt>
<trkpt lat="53.209798" lon="-1.738166"><ele>333</ele><time>2020-01-31T13:37:31Z</time><name>PT10458</name></trkpt>
<trkpt lat="53.209790" lon="-1.738152"><ele>333</ele><time>2020-01-31T13:37:33Z</time><name>PT10459</name></trkpt>
<trkpt lat="53.209783" lon="-1.738137"><ele>334</ele><time>2020-01-31T13:37:33Z</time><name>PT10460</name></trkpt>
<trkpt lat="53.209776" lon="-1.738123"><ele>334</ele><time>2020-01-31T13:37:34Z</time><name>PT10461</name></trkpt>
<trkpt lat="53.209764" lon="-1.738108"><ele>334</ele><time>2020-01-31T13:37:36Z</time><name>PT10462</name></trkpt>
<trkpt lat="53.209751" lon="-1.738091"><ele>333</ele><time>2020-01-31T13:37:36Z</time><name>PT10463</name></trkpt>
<trkpt lat="53.209738" lon="-1.738074"><ele>334</ele><time>2020-01-31T13:37:37Z</time><name>PT10464</name></trkpt>
<trkpt lat="53.209726" lon="-1.738055"><ele>333</ele><time>2020-01-31T13:37:39Z</time><name>PT10465</name></trkpt>
<trkpt lat="53.209718" lon="-1.738038"><ele>334</ele><time>2020-01-31T13:37:39Z</time><name>PT10466</name></trkpt>
<trkpt lat="53.209712" lon="-1.738027"><ele>334</ele><time>2020-01-31T13:37:40Z</time><name>PT10467</name></trkpt>
<trkpt lat="53.209707" lon="-1.738015"><ele>334</ele><time>2020-01-31T13:37:42Z</time><name>PT10468</name></trkpt>
<trkpt lat="53.209700" lon="-1.738004"><ele>334</ele><time>2020-01-31T13:37:42Z</time><name>PT10469</name></trkpt>
<trkpt lat="53.209690" lon="-1.737986"><ele>334</ele><time>2020-01-31T13:37:43Z</time><name>PT10470</name></trkpt>
<trkpt lat="53.209681" lon="-1.737972"><ele>334</ele><time>2020-01-31T13:37:45Z</time><name>PT10471</name></trkpt>
<trkpt lat="53.209670" lon="-1.737955"><ele>334</ele><time>2020-01-31T13:37:45Z</time><name>PT10472</name></trkpt>
<trkpt lat="53.209663" lon="-1.737938"><ele>334</ele><time>2020-01-31T13:37:46Z</time><name>PT10473</name></trkpt>
<trkpt lat="53.209657" lon="-1.737924"><ele>334</ele><time>2020-01-31T13:37:48Z</time><name>PT10474</name></trkpt>
<trkpt lat="53.209649" lon="-1.737910"><ele>334</ele><time>2020-01-31T13:37:48Z</time><name>PT10475</name></trkpt>
<trkpt lat="53.209642" lon="-1.737896"><ele>334</ele><time>2020-01-31T13:37:49Z</time><name>PT10476</name></trkpt>
<trkpt lat="53.209635" lon="-1.737882"><ele>334</ele><time>2020-01-31T13:37:51Z</time><name>PT10477</name></trkpt>
<trkpt lat="53.209630" lon="-1.737869"><ele>335</ele><time>2020-01-31T13:37:51Z</time><name>PT10478</name></trkpt>
<trkpt lat="53.209624" lon="-1.737852"><ele>336</ele><time>2020-01-31T13:37:52Z</time><name>PT10479</name></trkpt>
<trkpt lat="53.209617" lon="-1.737837"><ele>336</ele><time>2020-01-31T13:37:54Z</time><name>PT10480</name></trkpt>
<trkpt lat="53.209609" lon="-1.737827"><ele>336</ele><time>2020-01-31T13:37:54Z</time><name>PT10481</name></trkpt>
<trkpt lat="53.209605" lon="-1.737823"><ele>336</ele><time>2020-01-31T13:37:55Z</time><name>PT10482</name></trkpt>
<trkpt lat="53.209600" lon="-1.737808"><ele>337</ele><time>2020-01-31T13:37:57Z</time><name>PT10483</name></trkpt>
<trkpt lat="53.209595" lon="-1.737798"><ele>336</ele><time>2020-01-31T13:37:57Z</time><name>PT10484</name></trkpt>
<trkpt lat="53.209589" lon="-1.737785"><ele>337</ele><time>2020-01-31T13:37:58Z</time><name>PT10485</name></trkpt>
<trkpt lat="53.209582" lon="-1.737773"><ele>336</ele><time>2020-01-31T13:38:00Z</time><name>PT10486</name></trkpt>
<trkpt lat="53.209575" lon="-1.737761"><ele>336</ele><time>2020-01-31T13:38:00Z</time><name>PT10487</name></trkpt>
<trkpt lat="53.209568" lon="-1.737751"><ele>336</ele><time>2020-01-31T13:38:02Z</time><name>PT10488</name></trkpt>
<trkpt lat="53.209564" lon="-1.737739"><ele>336</ele><time>2020-01-31T13:38:03Z</time><name>PT10489</name></trkpt>
<trkpt lat="53.209556" lon="-1.737725"><ele>336</ele><time>2020-01-31T13:38:03Z</time><name>PT10490</name></trkpt>
<trkpt lat="53.209543" lon="-1.737703"><ele>337</ele><time>2020-01-31T13:38:04Z</time><name>PT10491</name></trkpt>
<trkpt lat="53.209531" lon="-1.737682"><ele>336</ele><time>2020-01-31T13:38:06Z</time><name>PT10492</name></trkpt>
<trkpt lat="53.209521" lon="-1.737663"><ele>336</ele><time>2020-01-31T13:38:06Z</time><name>PT10493</name></trkpt>
<trkpt lat="53.209511" lon="-1.737645"><ele>336</ele><time>2020-01-31T13:38:07Z</time><name>PT10494</name></trkpt>
<trkpt lat="53.209503" lon="-1.737635"><ele>335</ele><time>2020-01-31T13:38:09Z</time><name>PT10495</name></trkpt>
<trkpt lat="53.209496" lon="-1.737622"><ele>335</ele><time>2020-01-31T13:38:09Z</time><name>PT10496</name></trkpt>
<trkpt lat="53.209490" lon="-1.737608"><ele>335</ele><time>2020-01-31T13:38:10Z</time><name>PT10497</name></trkpt>
<trkpt lat="53.209485" lon="-1.737596"><ele>335</ele><time>2020-01-31T13:38:12Z</time><name>PT10498</name></trkpt>
<trkpt lat="53.209484" lon="-1.737591"><ele>335</ele><time>2020-01-31T13:38:12Z</time><name>PT10499</name></trkpt>
<trkpt lat="53.209485" lon="-1.737589"><ele>335</ele><time>2020-01-31T13:38:13Z</time><name>PT10500</name></trkpt>
<trkpt lat="53.209485" lon="-1.737589"><ele>335</ele><time>2020-01-31T13:38:15Z</time><name>PT10501</name></trkpt>
<trkpt lat="53.209479" lon="-1.737587"><ele>335</ele><time>2020-01-31T13:38:16Z</time><name>PT10502</name></trkpt>
<trkpt lat="53.209476" lon="-1.737573"><ele>335</ele><time>2020-01-31T13:38:18Z</time><name>PT10503</name></trkpt>
<trkpt lat="53.209469" lon="-1.737558"><ele>335</ele><time>2020-01-31T13:38:18Z</time><name>PT10504</name></trkpt>
<trkpt lat="53.209464" lon="-1.737538"><ele>335</ele><time>2020-01-31T13:38:19Z</time><name>PT10505</name></trkpt>
<trkpt lat="53.209460" lon="-1.737519"><ele>335</ele><time>2020-01-31T13:38:21Z</time><name>PT10506</name></trkpt>
<trkpt lat="53.209457" lon="-1.737499"><ele>335</ele><time>2020-01-31T13:38:21Z</time><name>PT10507</name></trkpt>
<trkpt lat="53.209455" lon="-1.737477"><ele>335</ele><time>2020-01-31T13:38:22Z</time><name>PT10508</name></trkpt>
<trkpt lat="53.209451" lon="-1.737456"><ele>335</ele><time>2020-01-31T13:38:24Z</time><name>PT10509</name></trkpt>
<trkpt lat="53.209451" lon="-1.737442"><ele>335</ele><time>2020-01-31T13:38:24Z</time><name>PT10510</name></trkpt>
<trkpt lat="53.209448" lon="-1.737422"><ele>335</ele><time>2020-01-31T13:38:25Z</time><name>PT10511</name></trkpt>
<trkpt lat="53.209445" lon="-1.737402"><ele>335</ele><time>2020-01-31T13:38:27Z</time><name>PT10512</name></trkpt>
<trkpt lat="53.209443" lon="-1.737386"><ele>335</ele><time>2020-01-31T13:38:27Z</time><name>PT10513</name></trkpt>
<trkpt lat="53.209440" lon="-1.737371"><ele>335</ele><time>2020-01-31T13:38:28Z</time><name>PT10514</name></trkpt>
<trkpt lat="53.209438" lon="-1.737349"><ele>335</ele><time>2020-01-31T13:38:30Z</time><name>PT10515</name></trkpt>
<trkpt lat="53.209436" lon="-1.737319"><ele>334</ele><time>2020-01-31T13:38:30Z</time><name>PT10516</name></trkpt>
<trkpt lat="53.209433" lon="-1.737283"><ele>335</ele><time>2020-01-31T13:38:31Z</time><name>PT10517</name></trkpt>
<trkpt lat="53.209429" lon="-1.737264"><ele>335</ele><time>2020-01-31T13:38:33Z</time><name>PT10518</name></trkpt>
<trkpt lat="53.209429" lon="-1.737248"><ele>335</ele><time>2020-01-31T13:38:33Z</time><name>PT10519</name></trkpt>
<trkpt lat="53.209426" lon="-1.737232"><ele>335</ele><time>2020-01-31T13:38:34Z</time><name>PT10520</name></trkpt>
<trkpt lat="53.209423" lon="-1.737212"><ele>335</ele><time>2020-01-31T13:38:36Z</time><name>PT10521</name></trkpt>
<trkpt lat="53.209421" lon="-1.737192"><ele>335</ele><time>2020-01-31T13:38:36Z</time><name>PT10522</name></trkpt>
<trkpt lat="53.209421" lon="-1.737173"><ele>335</ele><time>2020-01-31T13:38:37Z</time><name>PT10523</name></trkpt>
<trkpt lat="53.209419" lon="-1.737156"><ele>335</ele><time>2020-01-31T13:38:39Z</time><name>PT10524</name></trkpt>
<trkpt lat="53.209418" lon="-1.737139"><ele>335</ele><time>2020-01-31T13:38:39Z</time><name>PT10525</name></trkpt>
<trkpt lat="53.209417" lon="-1.737121"><ele>335</ele><time>2020-01-31T13:38:40Z</time><name>PT10526</name></trkpt>
<trkpt lat="53.209416" lon="-1.737103"><ele>335</ele><time>2020-01-31T13:38:42Z</time><name>PT10527</name></trkpt>
<trkpt lat="53.209414" lon="-1.737086"><ele>336</ele><time>2020-01-31T13:38:42Z</time><name>PT10528</name></trkpt>
<trkpt lat="53.209409" lon="-1.737066"><ele>336</ele><time>2020-01-31T13:38:43Z</time><name>PT10529</name></trkpt>
<trkpt lat="53.209407" lon="-1.737045"><ele>336</ele><time>2020-01-31T13:38:45Z</time><name>PT10530</name></trkpt>
<trkpt lat="53.209405" lon="-1.737024"><ele>336</ele><time>2020-01-31T13:38:45Z</time><name>PT10531</name></trkpt>
<trkpt lat="53.209403" lon="-1.737002"><ele>336</ele><time>2020-01-31T13:38:46Z</time><name>PT10532</name></trkpt>
<trkpt lat="53.209401" lon="-1.736981"><ele>336</ele><time>2020-01-31T13:38:48Z</time><name>PT10533</name></trkpt>
<trkpt lat="53.209399" lon="-1.736964"><ele>336</ele><time>2020-01-31T13:38:48Z</time><name>PT10534</name></trkpt>
<trkpt lat="53.209396" lon="-1.736946"><ele>336</ele><time>2020-01-31T13:38:49Z</time><name>PT10535</name></trkpt>
<trkpt lat="53.209393" lon="-1.736927"><ele>336</ele><time>2020-01-31T13:38:51Z</time><name>PT10536</name></trkpt>
<trkpt lat="53.209391" lon="-1.736910"><ele>336</ele><time>2020-01-31T13:38:51Z</time><name>PT10537</name></trkpt>
<trkpt lat="53.209390" lon="-1.736891"><ele>336</ele><time>2020-01-31T13:38:52Z</time><name>PT10538</name></trkpt>
<trkpt lat="53.209388" lon="-1.736870"><ele>336</ele><time>2020-01-31T13:38:54Z</time><name>PT10539</name></trkpt>
<trkpt lat="53.209386" lon="-1.736853"><ele>336</ele><time>2020-01-31T13:38:54Z</time><name>PT10540</name></trkpt>
<trkpt lat="53.209385" lon="-1.736834"><ele>336</ele><time>2020-01-31T13:38:55Z</time><name>PT10541</name></trkpt>
<trkpt lat="53.209380" lon="-1.736815"><ele>336</ele><time>2020-01-31T13:38:57Z</time><name>PT10542</name></trkpt>
<trkpt lat="53.209378" lon="-1.736794"><ele>336</ele><time>2020-01-31T13:38:57Z</time><name>PT10543</name></trkpt>
<trkpt lat="53.209377" lon="-1.736776"><ele>337</ele><time>2020-01-31T13:38:58Z</time><name>PT10544</name></trkpt>
<trkpt lat="53.209376" lon="-1.736757"><ele>336</ele><time>2020-01-31T13:39:00Z</time><name>PT10545</name></trkpt>
<trkpt lat="53.209375" lon="-1.736737"><ele>336</ele><time>2020-01-31T13:39:00Z</time><name>PT10546</name></trkpt>
<trkpt lat="53.209372" lon="-1.736718"><ele>336</ele><time>2020-01-31T13:39:01Z</time><name>PT10547</name></trkpt>
<trkpt lat="53.209369" lon="-1.736698"><ele>336</ele><time>2020-01-31T13:39:03Z</time><name>PT10548</name></trkpt>
<trkpt lat="53.209365" lon="-1.736676"><ele>336</ele><time>2020-01-31T13:39:03Z</time><name>PT10549</name></trkpt>
<trkpt lat="53.209364" lon="-1.736656"><ele>336</ele><time>2020-01-31T13:39:04Z</time><name>PT10550</name></trkpt>
<trkpt lat="53.209363" lon="-1.736633"><ele>336</ele><time>2020-01-31T13:39:06Z</time><name>PT10551</name></trkpt>
<trkpt lat="53.209362" lon="-1.736611"><ele>336</ele><time>2020-01-31T13:39:06Z</time><name>PT10552</name></trkpt>
<trkpt lat="53.209360" lon="-1.736591"><ele>336</ele><time>2020-01-31T13:39:07Z</time><name>PT10553</name></trkpt>
<trkpt lat="53.209358" lon="-1.736573"><ele>336</ele><time>2020-01-31T13:39:09Z</time><name>PT10554</name></trkpt>
<trkpt lat="53.209354" lon="-1.736556"><ele>335</ele><time>2020-01-31T13:39:09Z</time><name>PT10555</name></trkpt>
<trkpt lat="53.209351" lon="-1.736537"><ele>335</ele><time>2020-01-31T13:39:10Z</time><name>PT10556</name></trkpt>
<trkpt lat="53.209351" lon="-1.736517"><ele>335</ele><time>2020-01-31T13:39:12Z</time><name>PT10557</name></trkpt>
<trkpt lat="53.209351" lon="-1.736501"><ele>335</ele><time>2020-01-31T13:39:12Z</time><name>PT10558</name></trkpt>
<trkpt lat="53.209350" lon="-1.736483"><ele>335</ele><time>2020-01-31T13:39:13Z</time><name>PT10559</name></trkpt>
<trkpt lat="53.209349" lon="-1.736465"><ele>335</ele><time>2020-01-31T13:39:15Z</time><name>PT10560</name></trkpt>
<trkpt lat="53.209345" lon="-1.736449"><ele>335</ele><time>2020-01-31T13:39:15Z</time><name>PT10561</name></trkpt>
<trkpt lat="53.209341" lon="-1.736433"><ele>335</ele><time>2020-01-31T13:39:16Z</time><name>PT10562</name></trkpt>
<trkpt lat="53.209338" lon="-1.736414"><ele>335</ele><time>2020-01-31T13:39:18Z</time><name>PT10563</name></trkpt>
<trkpt lat="53.209338" lon="-1.736396"><ele>336</ele><time>2020-01-31T13:39:18Z</time><name>PT10564</name></trkpt>
<trkpt lat="53.209336" lon="-1.736376"><ele>335</ele><time>2020-01-31T13:39:19Z</time><name>PT10565</name></trkpt>
<trkpt lat="53.209336" lon="-1.736358"><ele>335</ele><time>2020-01-31T13:39:21Z</time><name>PT10566</name></trkpt>
<trkpt lat="53.209338" lon="-1.736337"><ele>335</ele><time>2020-01-31T13:39:21Z</time><name>PT10567</name></trkpt>
<trkpt lat="53.209339" lon="-1.736317"><ele>335</ele><time>2020-01-31T13:39:22Z</time><name>PT10568</name></trkpt>
<trkpt lat="53.209338" lon="-1.736299"><ele>335</ele><time>2020-01-31T13:39:24Z</time><name>PT10569</name></trkpt>
<trkpt lat="53.209335" lon="-1.736282"><ele>334</ele><time>2020-01-31T13:39:24Z</time><name>PT10570</name></trkpt>
<trkpt lat="53.209333" lon="-1.736264"><ele>334</ele><time>2020-01-31T13:39:25Z</time><name>PT10571</name></trkpt>
<trkpt lat="53.209329" lon="-1.736244"><ele>334</ele><time>2020-01-31T13:39:27Z</time><name>PT10572</name></trkpt>
<trkpt lat="53.209328" lon="-1.736225"><ele>334</ele><time>2020-01-31T13:39:27Z</time><name>PT10573</name></trkpt>
<trkpt lat="53.209327" lon="-1.736203"><ele>334</ele><time>2020-01-31T13:39:28Z</time><name>PT10574</name></trkpt>
<trkpt lat="53.209327" lon="-1.736180"><ele>334</ele><time>2020-01-31T13:39:30Z</time><name>PT10575</name></trkpt>
<trkpt lat="53.209327" lon="-1.736156"><ele>334</ele><time>2020-01-31T13:39:30Z</time><name>PT10576</name></trkpt>
<trkpt lat="53.209327" lon="-1.736135"><ele>334</ele><time>2020-01-31T13:39:31Z</time><name>PT10577</name></trkpt>
<trkpt lat="53.209327" lon="-1.736116"><ele>333</ele><time>2020-01-31T13:39:33Z</time><name>PT10578</name></trkpt>
<trkpt lat="53.209326" lon="-1.736102"><ele>333</ele><time>2020-01-31T13:39:33Z</time><name>PT10579</name></trkpt>
<trkpt lat="53.209325" lon="-1.736084"><ele>333</ele><time>2020-01-31T13:39:34Z</time><name>PT10580</name></trkpt>
<trkpt lat="53.209322" lon="-1.736068"><ele>333</ele><time>2020-01-31T13:39:36Z</time><name>PT10581</name></trkpt>
<trkpt lat="53.209321" lon="-1.736050"><ele>332</ele><time>2020-01-31T13:39:36Z</time><name>PT10582</name></trkpt>
<trkpt lat="53.209321" lon="-1.736033"><ele>332</ele><time>2020-01-31T13:39:37Z</time><name>PT10583</name></trkpt>
<trkpt lat="53.209318" lon="-1.736016"><ele>332</ele><time>2020-01-31T13:39:39Z</time><name>PT10584</name></trkpt>
<trkpt lat="53.209315" lon="-1.735996"><ele>332</ele><time>2020-01-31T13:39:39Z</time><name>PT10585</name></trkpt>
<trkpt lat="53.209313" lon="-1.735973"><ele>332</ele><time>2020-01-31T13:39:40Z</time><name>PT10586</name></trkpt>
<trkpt lat="53.209310" lon="-1.735950"><ele>332</ele><time>2020-01-31T13:39:42Z</time><name>PT10587</name></trkpt>
<trkpt lat="53.209307" lon="-1.735930"><ele>332</ele><time>2020-01-31T13:39:42Z</time><name>PT10588</name></trkpt>
<trkpt lat="53.209306" lon="-1.735912"><ele>332</ele><time>2020-01-31T13:39:43Z</time><name>PT10589</name></trkpt>
<trkpt lat="53.209303" lon="-1.735894"><ele>332</ele><time>2020-01-31T13:39:45Z</time><name>PT10590</name></trkpt>
<trkpt lat="53.209301" lon="-1.735876"><ele>332</ele><time>2020-01-31T13:39:45Z</time><name>PT10591</name></trkpt>
<trkpt lat="53.209300" lon="-1.735857"><ele>332</ele><time>2020-01-31T13:39:46Z</time><name>PT10592</name></trkpt>
<trkpt lat="53.209301" lon="-1.735838"><ele>332</ele><time>2020-01-31T13:39:48Z</time><name>PT10593</name></trkpt>
<trkpt lat="53.209298" lon="-1.735816"><ele>333</ele><time>2020-01-31T13:39:48Z</time><name>PT10594</name></trkpt>
<trkpt lat="53.209295" lon="-1.735799"><ele>333</ele><time>2020-01-31T13:39:49Z</time><name>PT10595</name></trkpt>
<trkpt lat="53.209293" lon="-1.735781"><ele>333</ele><time>2020-01-31T13:39:51Z</time><name>PT10596</name></trkpt>
<trkpt lat="53.209291" lon="-1.735759"><ele>333</ele><time>2020-01-31T13:39:51Z</time><name>PT10597</name></trkpt>
<trkpt lat="53.209288" lon="-1.735741"><ele>333</ele><time>2020-01-31T13:39:52Z</time><name>PT10598</name></trkpt>
<trkpt lat="53.209287" lon="-1.735723"><ele>333</ele><time>2020-01-31T13:39:54Z</time><name>PT10599</name></trkpt>
<trkpt lat="53.209285" lon="-1.735709"><ele>334</ele><time>2020-01-31T13:39:54Z</time><name>PT10600</name></trkpt>
<trkpt lat="53.209283" lon="-1.735690"><ele>334</ele><time>2020-01-31T13:39:55Z</time><name>PT10601</name></trkpt>
<trkpt lat="53.209280" lon="-1.735674"><ele>334</ele><time>2020-01-31T13:39:57Z</time><name>PT10602</name></trkpt>
<trkpt lat="53.209279" lon="-1.735654"><ele>334</ele><time>2020-01-31T13:39:57Z</time><name>PT10603</name></trkpt>
<trkpt lat="53.209278" lon="-1.735632"><ele>334</ele><time>2020-01-31T13:39:58Z</time><name>PT10604</name></trkpt>
<trkpt lat="53.209277" lon="-1.735611"><ele>334</ele><time>2020-01-31T13:40:00Z</time><name>PT10605</name></trkpt>
<trkpt lat="53.209278" lon="-1.735590"><ele>334</ele><time>2020-01-31T13:40:00Z</time><name>PT10606</name></trkpt>
<trkpt lat="53.209274" lon="-1.735568"><ele>334</ele><time>2020-01-31T13:40:01Z</time><name>PT10607</name></trkpt>
<trkpt lat="53.209270" lon="-1.735550"><ele>333</ele><time>2020-01-31T13:40:03Z</time><name>PT10608</name></trkpt>
<trkpt lat="53.209268" lon="-1.735531"><ele>333</ele><time>2020-01-31T13:40:03Z</time><name>PT10609</name></trkpt>
<trkpt lat="53.209263" lon="-1.735510"><ele>333</ele><time>2020-01-31T13:40:04Z</time><name>PT10610</name></trkpt>
<trkpt lat="53.209259" lon="-1.735489"><ele>333</ele><time>2020-01-31T13:40:06Z</time><name>PT10611</name></trkpt>
<trkpt lat="53.209252" lon="-1.735469"><ele>333</ele><time>2020-01-31T13:40:06Z</time><name>PT10612</name></trkpt>
<trkpt lat="53.209249" lon="-1.735449"><ele>333</ele><time>2020-01-31T13:40:07Z</time><name>PT10613</name></trkpt>
<trkpt lat="53.209247" lon="-1.735429"><ele>334</ele><time>2020-01-31T13:40:09Z</time><name>PT10614</name></trkpt>
<trkpt lat="53.209245" lon="-1.735410"><ele>334</ele><time>2020-01-31T13:40:09Z</time><name>PT10615</name></trkpt>
<trkpt lat="53.209245" lon="-1.735391"><ele>334</ele><time>2020-01-31T13:40:10Z</time><name>PT10616</name></trkpt>
<trkpt lat="53.209245" lon="-1.735372"><ele>333</ele><time>2020-01-31T13:40:12Z</time><name>PT10617</name></trkpt>
<trkpt lat="53.209244" lon="-1.735352"><ele>334</ele><time>2020-01-31T13:40:12Z</time><name>PT10618</name></trkpt>
<trkpt lat="53.209245" lon="-1.735328"><ele>334</ele><time>2020-01-31T13:40:13Z</time><name>PT10619</name></trkpt>
<trkpt lat="53.209243" lon="-1.735304"><ele>335</ele><time>2020-01-31T13:40:15Z</time><name>PT10620</name></trkpt>
<trkpt lat="53.209240" lon="-1.735280"><ele>334</ele><time>2020-01-31T13:40:15Z</time><name>PT10621</name></trkpt>
<trkpt lat="53.209236" lon="-1.735257"><ele>335</ele><time>2020-01-31T13:40:16Z</time><name>PT10622</name></trkpt>
<trkpt lat="53.209234" lon="-1.735238"><ele>335</ele><time>2020-01-31T13:40:18Z</time><name>PT10623</name></trkpt>
<trkpt lat="53.209234" lon="-1.735218"><ele>334</ele><time>2020-01-31T13:40:18Z</time><name>PT10624</name></trkpt>
<trkpt lat="53.209231" lon="-1.735195"><ele>334</ele><time>2020-01-31T13:40:19Z</time><name>PT10625</name></trkpt>
<trkpt lat="53.209228" lon="-1.735174"><ele>335</ele><time>2020-01-31T13:40:21Z</time><name>PT10626</name></trkpt>
<trkpt lat="53.209227" lon="-1.735151"><ele>335</ele><time>2020-01-31T13:40:21Z</time><name>PT10627</name></trkpt>
<trkpt lat="53.209226" lon="-1.735129"><ele>335</ele><time>2020-01-31T13:40:22Z</time><name>PT10628</name></trkpt>
<trkpt lat="53.209224" lon="-1.735108"><ele>334</ele><time>2020-01-31T13:40:24Z</time><name>PT10629</name></trkpt>
<trkpt lat="53.209223" lon="-1.735092"><ele>333</ele><time>2020-01-31T13:40:24Z</time><name>PT10630</name></trkpt>
<trkpt lat="53.209222" lon="-1.735075"><ele>333</ele><time>2020-01-31T13:40:25Z</time><name>PT10631</name></trkpt>
<trkpt lat="53.209221" lon="-1.735057"><ele>333</ele><time>2020-01-31T13:40:27Z</time><name>PT10632</name></trkpt>
<trkpt lat="53.209219" lon="-1.735039"><ele>333</ele><time>2020-01-31T13:40:27Z</time><name>PT10633</name></trkpt>
<trkpt lat="53.209217" lon="-1.735020"><ele>333</ele><time>2020-01-31T13:40:29Z</time><name>PT10634</name></trkpt>
<trkpt lat="53.209216" lon="-1.734996"><ele>333</ele><time>2020-01-31T13:40:30Z</time><name>PT10635</name></trkpt>
<trkpt lat="53.209213" lon="-1.734973"><ele>333</ele><time>2020-01-31T13:40:30Z</time><name>PT10636</name></trkpt>
<trkpt lat="53.209210" lon="-1.734951"><ele>333</ele><time>2020-01-31T13:40:31Z</time><name>PT10637</name></trkpt>
<trkpt lat="53.209208" lon="-1.734930"><ele>333</ele><time>2020-01-31T13:40:33Z</time><name>PT10638</name></trkpt>
<trkpt lat="53.209206" lon="-1.734910"><ele>332</ele><time>2020-01-31T13:40:33Z</time><name>PT10639</name></trkpt>
<trkpt lat="53.209201" lon="-1.734890"><ele>332</ele><time>2020-01-31T13:40:34Z</time><name>PT10640</name></trkpt>
<trkpt lat="53.209199" lon="-1.734871"><ele>331</ele><time>2020-01-31T13:40:36Z</time><name>PT10641</name></trkpt>
<trkpt lat="53.209199" lon="-1.734850"><ele>331</ele><time>2020-01-31T13:40:36Z</time><name>PT10642</name></trkpt>
<trkpt lat="53.209198" lon="-1.734828"><ele>330</ele><time>2020-01-31T13:40:37Z</time><name>PT10643</name></trkpt>
<trkpt lat="53.209196" lon="-1.734805"><ele>330</ele><time>2020-01-31T13:40:39Z</time><name>PT10644</name></trkpt>
<trkpt lat="53.209194" lon="-1.734787"><ele>330</ele><time>2020-01-31T13:40:39Z</time><name>PT10645</name></trkpt>
<trkpt lat="53.209193" lon="-1.734773"><ele>329</ele><time>2020-01-31T13:40:40Z</time><name>PT10646</name></trkpt>
<trkpt lat="53.209190" lon="-1.734755"><ele>329</ele><time>2020-01-31T13:40:42Z</time><name>PT10647</name></trkpt>
<trkpt lat="53.209189" lon="-1.734732"><ele>329</ele><time>2020-01-31T13:40:42Z</time><name>PT10648</name></trkpt>
<trkpt lat="53.209184" lon="-1.734711"><ele>329</ele><time>2020-01-31T13:40:43Z</time><name>PT10649</name></trkpt>
<trkpt lat="53.209181" lon="-1.734692"><ele>328</ele><time>2020-01-31T13:40:45Z</time><name>PT10650</name></trkpt>
<trkpt lat="53.209178" lon="-1.734671"><ele>328</ele><time>2020-01-31T13:40:45Z</time><name>PT10651</name></trkpt>
<trkpt lat="53.209177" lon="-1.734655"><ele>328</ele><time>2020-01-31T13:40:46Z</time><name>PT10652</name></trkpt>
<trkpt lat="53.209175" lon="-1.734636"><ele>327</ele><time>2020-01-31T13:40:48Z</time><name>PT10653</name></trkpt>
<trkpt lat="53.209170" lon="-1.734619"><ele>327</ele><time>2020-01-31T13:40:48Z</time><name>PT10654</name></trkpt>
<trkpt lat="53.209165" lon="-1.734598"><ele>327</ele><time>2020-01-31T13:40:49Z</time><name>PT10655</name></trkpt>
<trkpt lat="53.209163" lon="-1.734581"><ele>327</ele><time>2020-01-31T13:40:51Z</time><name>PT10656</name></trkpt>
<trkpt lat="53.209162" lon="-1.734560"><ele>326</ele><time>2020-01-31T13:40:51Z</time><name>PT10657</name></trkpt>
<trkpt lat="53.209160" lon="-1.734541"><ele>326</ele><time>2020-01-31T13:40:52Z</time><name>PT10658</name></trkpt>
<trkpt lat="53.209158" lon="-1.734519"><ele>326</ele><time>2020-01-31T13:40:54Z</time><name>PT10659</name></trkpt>
<trkpt lat="53.209155" lon="-1.734497"><ele>326</ele><time>2020-01-31T13:40:54Z</time><name>PT10660</name></trkpt>
<trkpt lat="53.209154" lon="-1.734476"><ele>326</ele><time>2020-01-31T13:40:55Z</time><name>PT10661</name></trkpt>
<trkpt lat="53.209153" lon="-1.734453"><ele>326</ele><time>2020-01-31T13:40:57Z</time><name>PT10662</name></trkpt>
<trkpt lat="53.209151" lon="-1.734431"><ele>327</ele><time>2020-01-31T13:40:57Z</time><name>PT10663</name></trkpt>
<trkpt lat="53.209149" lon="-1.734414"><ele>327</ele><time>2020-01-31T13:40:58Z</time><name>PT10664</name></trkpt>
<trkpt lat="53.209147" lon="-1.734395"><ele>327</ele><time>2020-01-31T13:41:00Z</time><name>PT10665</name></trkpt>
<trkpt lat="53.209147" lon="-1.734378"><ele>327</ele><time>2020-01-31T13:41:00Z</time><name>PT10666</name></trkpt>
<trkpt lat="53.209146" lon="-1.734359"><ele>327</ele><time>2020-01-31T13:41:01Z</time><name>PT10667</name></trkpt>
<trkpt lat="53.209144" lon="-1.734341"><ele>327</ele><time>2020-01-31T13:41:03Z</time><name>PT10668</name></trkpt>
<trkpt lat="53.209141" lon="-1.734321"><ele>327</ele><time>2020-01-31T13:41:03Z</time><name>PT10669</name></trkpt>
<trkpt lat="53.209141" lon="-1.734298"><ele>327</ele><time>2020-01-31T13:41:04Z</time><name>PT10670</name></trkpt>
<trkpt lat="53.209140" lon="-1.734274"><ele>327</ele><time>2020-01-31T13:41:06Z</time><name>PT10671</name></trkpt>
<trkpt lat="53.209140" lon="-1.734252"><ele>327</ele><time>2020-01-31T13:41:06Z</time><name>PT10672</name></trkpt>
<trkpt lat="53.209137" lon="-1.734232"><ele>327</ele><time>2020-01-31T13:41:07Z</time><name>PT10673</name></trkpt>
<trkpt lat="53.209134" lon="-1.734216"><ele>327</ele><time>2020-01-31T13:41:09Z</time><name>PT10674</name></trkpt>
<trkpt lat="53.209130" lon="-1.734199"><ele>327</ele><time>2020-01-31T13:41:09Z</time><name>PT10675</name></trkpt>
<trkpt lat="53.209127" lon="-1.734179"><ele>327</ele><time>2020-01-31T13:41:10Z</time><name>PT10676</name></trkpt>
<trkpt lat="53.209127" lon="-1.734160"><ele>326</ele><time>2020-01-31T13:41:12Z</time><name>PT10677</name></trkpt>
<trkpt lat="53.209126" lon="-1.734137"><ele>326</ele><time>2020-01-31T13:41:12Z</time><name>PT10678</name></trkpt>
<trkpt lat="53.209126" lon="-1.734114"><ele>326</ele><time>2020-01-31T13:41:13Z</time><name>PT10679</name></trkpt>
<trkpt lat="53.209125" lon="-1.734092"><ele>326</ele><time>2020-01-31T13:41:15Z</time><name>PT10680</name></trkpt>
<trkpt lat="53.209123" lon="-1.734073"><ele>326</ele><time>2020-01-31T13:41:15Z</time><name>PT10681</name></trkpt>
<trkpt lat="53.209120" lon="-1.734051"><ele>326</ele><time>2020-01-31T13:41:16Z</time><name>PT10682</name></trkpt>
<trkpt lat="53.209121" lon="-1.734029"><ele>326</ele><time>2020-01-31T13:41:18Z</time><name>PT10683</name></trkpt>
<trkpt lat="53.209123" lon="-1.734010"><ele>327</ele><time>2020-01-31T13:41:18Z</time><name>PT10684</name></trkpt>
<trkpt lat="53.209120" lon="-1.733989"><ele>327</ele><time>2020-01-31T13:41:19Z</time><name>PT10685</name></trkpt>
<trkpt lat="53.209119" lon="-1.733968"><ele>327</ele><time>2020-01-31T13:41:21Z</time><name>PT10686</name></trkpt>
<trkpt lat="53.209118" lon="-1.733946"><ele>327</ele><time>2020-01-31T13:41:21Z</time><name>PT10687</name></trkpt>
<trkpt lat="53.209117" lon="-1.733923"><ele>327</ele><time>2020-01-31T13:41:22Z</time><name>PT10688</name></trkpt>
<trkpt lat="53.209116" lon="-1.733901"><ele>327</ele><time>2020-01-31T13:41:24Z</time><name>PT10689</name></trkpt>
<trkpt lat="53.209114" lon="-1.733880"><ele>327</ele><time>2020-01-31T13:41:24Z</time><name>PT10690</name></trkpt>
<trkpt lat="53.209111" lon="-1.733859"><ele>326</ele><time>2020-01-31T13:41:25Z</time><name>PT10691</name></trkpt>
<trkpt lat="53.209107" lon="-1.733842"><ele>327</ele><time>2020-01-31T13:41:27Z</time><name>PT10692</name></trkpt>
<trkpt lat="53.209105" lon="-1.733823"><ele>327</ele><time>2020-01-31T13:41:27Z</time><name>PT10693</name></trkpt>
<trkpt lat="53.209100" lon="-1.733802"><ele>327</ele><time>2020-01-31T13:41:28Z</time><name>PT10694</name></trkpt>
<trkpt lat="53.209098" lon="-1.733780"><ele>327</ele><time>2020-01-31T13:41:30Z</time><name>PT10695</name></trkpt>
<trkpt lat="53.209095" lon="-1.733759"><ele>327</ele><time>2020-01-31T13:41:30Z</time><name>PT10696</name></trkpt>
<trkpt lat="53.209093" lon="-1.733745"><ele>327</ele><time>2020-01-31T13:41:31Z</time><name>PT10697</name></trkpt>
<trkpt lat="53.209091" lon="-1.733730"><ele>327</ele><time>2020-01-31T13:41:33Z</time><name>PT10698</name></trkpt>
<trkpt lat="53.209089" lon="-1.733713"><ele>327</ele><time>2020-01-31T13:41:33Z</time><name>PT10699</name></trkpt>
<trkpt lat="53.209088" lon="-1.733695"><ele>327</ele><time>2020-01-31T13:41:34Z</time><name>PT10700</name></trkpt>
<trkpt lat="53.209089" lon="-1.733676"><ele>327</ele><time>2020-01-31T13:41:36Z</time><name>PT10701</name></trkpt>
<trkpt lat="53.209086" lon="-1.733661"><ele>326</ele><time>2020-01-31T13:41:36Z</time><name>PT10702</name></trkpt>
<trkpt lat="53.209084" lon="-1.733642"><ele>326</ele><time>2020-01-31T13:41:37Z</time><name>PT10703</name></trkpt>
<trkpt lat="53.209082" lon="-1.733622"><ele>326</ele><time>2020-01-31T13:41:39Z</time><name>PT10704</name></trkpt>
<trkpt lat="53.209082" lon="-1.733600"><ele>326</ele><time>2020-01-31T13:41:39Z</time><name>PT10705</name></trkpt>
<trkpt lat="53.209082" lon="-1.733581"><ele>326</ele><time>2020-01-31T13:41:40Z</time><name>PT10706</name></trkpt>
<trkpt lat="53.209081" lon="-1.733562"><ele>325</ele><time>2020-01-31T13:41:42Z</time><name>PT10707</name></trkpt>
<trkpt lat="53.209082" lon="-1.733542"><ele>325</ele><time>2020-01-31T13:41:42Z</time><name>PT10708</name></trkpt>
<trkpt lat="53.209081" lon="-1.733516"><ele>325</ele><time>2020-01-31T13:41:43Z</time><name>PT10709</name></trkpt>
<trkpt lat="53.209081" lon="-1.733497"><ele>324</ele><time>2020-01-31T13:41:45Z</time><name>PT10710</name></trkpt>
<trkpt lat="53.209080" lon="-1.733478"><ele>324</ele><time>2020-01-31T13:41:45Z</time><name>PT10711</name></trkpt>
<trkpt lat="53.209079" lon="-1.733464"><ele>324</ele><time>2020-01-31T13:41:46Z</time><name>PT10712</name></trkpt>
<trkpt lat="53.209076" lon="-1.733445"><ele>324</ele><time>2020-01-31T13:41:48Z</time><name>PT10713</name></trkpt>
<trkpt lat="53.209075" lon="-1.733431"><ele>324</ele><time>2020-01-31T13:41:48Z</time><name>PT10714</name></trkpt>
<trkpt lat="53.209078" lon="-1.733426"><ele>324</ele><time>2020-01-31T13:41:49Z</time><name>PT10715</name></trkpt>
<trkpt lat="53.209080" lon="-1.733419"><ele>324</ele><time>2020-01-31T13:41:51Z</time><name>PT10716</name></trkpt>
<trkpt lat="53.209079" lon="-1.733414"><ele>325</ele><time>2020-01-31T13:41:51Z</time><name>PT10717</name></trkpt>
<trkpt lat="53.209079" lon="-1.733409"><ele>325</ele><time>2020-01-31T13:41:52Z</time><name>PT10718</name></trkpt>
<trkpt lat="53.209082" lon="-1.733406"><ele>325</ele><time>2020-01-31T13:41:54Z</time><name>PT10719</name></trkpt>
<trkpt lat="53.209083" lon="-1.733403"><ele>326</ele><time>2020-01-31T13:41:54Z</time><name>PT10720</name></trkpt>
<trkpt lat="53.209084" lon="-1.733401"><ele>326</ele><time>2020-01-31T13:41:55Z</time><name>PT10721</name></trkpt>
<trkpt lat="53.209088" lon="-1.733400"><ele>326</ele><time>2020-01-31T13:41:57Z</time><name>PT10722</name></trkpt>
<trkpt lat="53.209092" lon="-1.733385"><ele>326</ele><time>2020-01-31T13:42:09Z</time><name>PT10723</name></trkpt>
<trkpt lat="53.209089" lon="-1.733361"><ele>327</ele><time>2020-01-31T13:42:10Z</time><name>PT10724</name></trkpt>
<trkpt lat="53.209086" lon="-1.733336"><ele>326</ele><time>2020-01-31T13:42:12Z</time><name>PT10725</name></trkpt>
<trkpt lat="53.209083" lon="-1.733305"><ele>326</ele><time>2020-01-31T13:42:12Z</time><name>PT10726</name></trkpt>
<trkpt lat="53.209080" lon="-1.733280"><ele>326</ele><time>2020-01-31T13:42:13Z</time><name>PT10727</name></trkpt>
<trkpt lat="53.209076" lon="-1.733255"><ele>326</ele><time>2020-01-31T13:42:15Z</time><name>PT10728</name></trkpt>
<trkpt lat="53.209071" lon="-1.733234"><ele>326</ele><time>2020-01-31T13:42:15Z</time><name>PT10729</name></trkpt>
<trkpt lat="53.209068" lon="-1.733211"><ele>326</ele><time>2020-01-31T13:42:16Z</time><name>PT10730</name></trkpt>
<trkpt lat="53.209064" lon="-1.733184"><ele>326</ele><time>2020-01-31T13:42:18Z</time><name>PT10731</name></trkpt>
<trkpt lat="53.209060" lon="-1.733164"><ele>326</ele><time>2020-01-31T13:42:18Z</time><name>PT10732</name></trkpt>
<trkpt lat="53.209055" lon="-1.733143"><ele>326</ele><time>2020-01-31T13:42:19Z</time><name>PT10733</name></trkpt>
<trkpt lat="53.209053" lon="-1.733124"><ele>325</ele><time>2020-01-31T13:42:21Z</time><name>PT10734</name></trkpt>
<trkpt lat="53.209049" lon="-1.733104"><ele>325</ele><time>2020-01-31T13:42:21Z</time><name>PT10735</name></trkpt>
<trkpt lat="53.209045" lon="-1.733084"><ele>325</ele><time>2020-01-31T13:42:22Z</time><name>PT10736</name></trkpt>
<trkpt lat="53.209042" lon="-1.733063"><ele>325</ele><time>2020-01-31T13:42:24Z</time><name>PT10737</name></trkpt>
<trkpt lat="53.209041" lon="-1.733039"><ele>324</ele><time>2020-01-31T13:42:24Z</time><name>PT10738</name></trkpt>
<trkpt lat="53.209042" lon="-1.733024"><ele>324</ele><time>2020-01-31T13:42:25Z</time><name>PT10739</name></trkpt>
<trkpt lat="53.209046" lon="-1.733008"><ele>324</ele><time>2020-01-31T13:42:27Z</time><name>PT10740</name></trkpt>
<trkpt lat="53.209048" lon="-1.732991"><ele>323</ele><time>2020-01-31T13:42:27Z</time><name>PT10741</name></trkpt>
<trkpt lat="53.209044" lon="-1.732970"><ele>323</ele><time>2020-01-31T13:42:28Z</time><name>PT10742</name></trkpt>
<trkpt lat="53.209039" lon="-1.732948"><ele>324</ele><time>2020-01-31T13:42:30Z</time><name>PT10743</name></trkpt>
<trkpt lat="53.209038" lon="-1.732925"><ele>324</ele><time>2020-01-31T13:42:30Z</time><name>PT10744</name></trkpt>
<trkpt lat="53.209038" lon="-1.732903"><ele>324</ele><time>2020-01-31T13:42:31Z</time><name>PT10745</name></trkpt>
<trkpt lat="53.209036" lon="-1.732879"><ele>324</ele><time>2020-01-31T13:42:33Z</time><name>PT10746</name></trkpt>
<trkpt lat="53.209032" lon="-1.732859"><ele>324</ele><time>2020-01-31T13:42:33Z</time><name>PT10747</name></trkpt>
<trkpt lat="53.209030" lon="-1.732842"><ele>323</ele><time>2020-01-31T13:42:34Z</time><name>PT10748</name></trkpt>
<trkpt lat="53.209030" lon="-1.732825"><ele>323</ele><time>2020-01-31T13:42:36Z</time><name>PT10749</name></trkpt>
<trkpt lat="53.209027" lon="-1.732806"><ele>323</ele><time>2020-01-31T13:42:36Z</time><name>PT10750</name></trkpt>
<trkpt lat="53.209024" lon="-1.732787"><ele>322</ele><time>2020-01-31T13:42:37Z</time><name>PT10751</name></trkpt>
<trkpt lat="53.209020" lon="-1.732770"><ele>322</ele><time>2020-01-31T13:42:39Z</time><name>PT10752</name></trkpt>
<trkpt lat="53.209017" lon="-1.732751"><ele>321</ele><time>2020-01-31T13:42:39Z</time><name>PT10753</name></trkpt>
<trkpt lat="53.209015" lon="-1.732731"><ele>321</ele><time>2020-01-31T13:42:40Z</time><name>PT10754</name></trkpt>
<trkpt lat="53.209013" lon="-1.732709"><ele>321</ele><time>2020-01-31T13:42:42Z</time><name>PT10755</name></trkpt>
<trkpt lat="53.209013" lon="-1.732691"><ele>320</ele><time>2020-01-31T13:42:42Z</time><name>PT10756</name></trkpt>
<trkpt lat="53.209012" lon="-1.732677"><ele>320</ele><time>2020-01-31T13:42:43Z</time><name>PT10757</name></trkpt>
<trkpt lat="53.209010" lon="-1.732660"><ele>320</ele><time>2020-01-31T13:42:45Z</time><name>PT10758</name></trkpt>
<trkpt lat="53.209008" lon="-1.732638"><ele>320</ele><time>2020-01-31T13:42:45Z</time><name>PT10759</name></trkpt>
<trkpt lat="53.209006" lon="-1.732616"><ele>320</ele><time>2020-01-31T13:42:46Z</time><name>PT10760</name></trkpt>
<trkpt lat="53.209003" lon="-1.732596"><ele>319</ele><time>2020-01-31T13:42:48Z</time><name>PT10761</name></trkpt>
<trkpt lat="53.209003" lon="-1.732578"><ele>319</ele><time>2020-01-31T13:42:48Z</time><name>PT10762</name></trkpt>
<trkpt lat="53.209000" lon="-1.732567"><ele>319</ele><time>2020-01-31T13:42:49Z</time><name>PT10763</name></trkpt>
<trkpt lat="53.208999" lon="-1.732549"><ele>319</ele><time>2020-01-31T13:42:51Z</time><name>PT10764</name></trkpt>
<trkpt lat="53.208999" lon="-1.732531"><ele>319</ele><time>2020-01-31T13:42:51Z</time><name>PT10765</name></trkpt>
<trkpt lat="53.208998" lon="-1.732515"><ele>319</ele><time>2020-01-31T13:42:52Z</time><name>PT10766</name></trkpt>
<trkpt lat="53.208999" lon="-1.732502"><ele>319</ele><time>2020-01-31T13:42:54Z</time><name>PT10767</name></trkpt>
<trkpt lat="53.208998" lon="-1.732484"><ele>319</ele><time>2020-01-31T13:42:54Z</time><name>PT10768</name></trkpt>
<trkpt lat="53.209001" lon="-1.732468"><ele>319</ele><time>2020-01-31T13:42:55Z</time><name>PT10769</name></trkpt>
<trkpt lat="53.209001" lon="-1.732452"><ele>319</ele><time>2020-01-31T13:42:57Z</time><name>PT10770</name></trkpt>
<trkpt lat="53.209000" lon="-1.732434"><ele>319</ele><time>2020-01-31T13:42:57Z</time><name>PT10771</name></trkpt>
<trkpt lat="53.208999" lon="-1.732416"><ele>319</ele><time>2020-01-31T13:42:58Z</time><name>PT10772</name></trkpt>
<trkpt lat="53.208997" lon="-1.732398"><ele>318</ele><time>2020-01-31T13:43:00Z</time><name>PT10773</name></trkpt>
<trkpt lat="53.208998" lon="-1.732378"><ele>319</ele><time>2020-01-31T13:43:00Z</time><name>PT10774</name></trkpt>
<trkpt lat="53.209000" lon="-1.732360"><ele>318</ele><time>2020-01-31T13:43:01Z</time><name>PT10775</name></trkpt>
<trkpt lat="53.209000" lon="-1.732339"><ele>318</ele><time>2020-01-31T13:43:03Z</time><name>PT10776</name></trkpt>
<trkpt lat="53.209002" lon="-1.732320"><ele>317</ele><time>2020-01-31T13:43:03Z</time><name>PT10777</name></trkpt>
<trkpt lat="53.209001" lon="-1.732302"><ele>317</ele><time>2020-01-31T13:43:04Z</time><name>PT10778</name></trkpt>
<trkpt lat="53.209002" lon="-1.732285"><ele>316</ele><time>2020-01-31T13:43:06Z</time><name>PT10779</name></trkpt>
<trkpt lat="53.209002" lon="-1.732266"><ele>316</ele><time>2020-01-31T13:43:06Z</time><name>PT10780</name></trkpt>
<trkpt lat="53.209001" lon="-1.732247"><ele>316</ele><time>2020-01-31T13:43:07Z</time><name>PT10781</name></trkpt>
<trkpt lat="53.209000" lon="-1.732228"><ele>316</ele><time>2020-01-31T13:43:09Z</time><name>PT10782</name></trkpt>
<trkpt lat="53.208997" lon="-1.732209"><ele>315</ele><time>2020-01-31T13:43:09Z</time><name>PT10783</name></trkpt>
<trkpt lat="53.208994" lon="-1.732189"><ele>315</ele><time>2020-01-31T13:43:10Z</time><name>PT10784</name></trkpt>
<trkpt lat="53.208994" lon="-1.732173"><ele>314</ele><time>2020-01-31T13:43:12Z</time><name>PT10785</name></trkpt>
<trkpt lat="53.208995" lon="-1.732156"><ele>315</ele><time>2020-01-31T13:43:12Z</time><name>PT10786</name></trkpt>
<trkpt lat="53.208996" lon="-1.732136"><ele>315</ele><time>2020-01-31T13:43:13Z</time><name>PT10787</name></trkpt>
<trkpt lat="53.208996" lon="-1.732117"><ele>315</ele><time>2020-01-31T13:43:15Z</time><name>PT10788</name></trkpt>
<trkpt lat="53.208995" lon="-1.732101"><ele>314</ele><time>2020-01-31T13:43:15Z</time><name>PT10789</name></trkpt>
<trkpt lat="53.208998" lon="-1.732084"><ele>314</ele><time>2020-01-31T13:43:16Z</time><name>PT10790</name></trkpt>
<trkpt lat="53.209005" lon="-1.732067"><ele>314</ele><time>2020-01-31T13:43:18Z</time><name>PT10791</name></trkpt>
<trkpt lat="53.209005" lon="-1.732050"><ele>312</ele><time>2020-01-31T13:43:18Z</time><name>PT10792</name></trkpt>
<trkpt lat="53.209005" lon="-1.732031"><ele>312</ele><time>2020-01-31T13:43:19Z</time><name>PT10793</name></trkpt>
<trkpt lat="53.209007" lon="-1.732013"><ele>312</ele><time>2020-01-31T13:43:21Z</time><name>PT10794</name></trkpt>
<trkpt lat="53.209007" lon="-1.731991"><ele>312</ele><time>2020-01-31T13:43:21Z</time><name>PT10795</name></trkpt>
<trkpt lat="53.209008" lon="-1.731971"><ele>312</ele><time>2020-01-31T13:43:22Z</time><name>PT10796</name></trkpt>
<trkpt lat="53.209010" lon="-1.731951"><ele>313</ele><time>2020-01-31T13:43:24Z</time><name>PT10797</name></trkpt>
<trkpt lat="53.209013" lon="-1.731937"><ele>312</ele><time>2020-01-31T13:43:24Z</time><name>PT10798</name></trkpt>
<trkpt lat="53.209017" lon="-1.731914"><ele>313</ele><time>2020-01-31T13:43:25Z</time><name>PT10799</name></trkpt>
<trkpt lat="53.209019" lon="-1.731894"><ele>313</ele><time>2020-01-31T13:43:27Z</time><name>PT10800</name></trkpt>
<trkpt lat="53.209020" lon="-1.731879"><ele>313</ele><time>2020-01-31T13:43:27Z</time><name>PT10801</name></trkpt>
<trkpt lat="53.209020" lon="-1.731862"><ele>313</ele><time>2020-01-31T13:43:28Z</time><name>PT10802</name></trkpt>
<trkpt lat="53.209019" lon="-1.731842"><ele>313</ele><time>2020-01-31T13:43:30Z</time><name>PT10803</name></trkpt>
<trkpt lat="53.209019" lon="-1.731824"><ele>313</ele><time>2020-01-31T13:43:30Z</time><name>PT10804</name></trkpt>
<trkpt lat="53.209021" lon="-1.731806"><ele>313</ele><time>2020-01-31T13:43:31Z</time><name>PT10805</name></trkpt>
<trkpt lat="53.209023" lon="-1.731786"><ele>313</ele><time>2020-01-31T13:43:33Z</time><name>PT10806</name></trkpt>
<trkpt lat="53.209024" lon="-1.731771"><ele>312</ele><time>2020-01-31T13:43:33Z</time><name>PT10807</name></trkpt>
<trkpt lat="53.209024" lon="-1.731753"><ele>312</ele><time>2020-01-31T13:43:34Z</time><name>PT10808</name></trkpt>
<trkpt lat="53.209025" lon="-1.731736"><ele>312</ele><time>2020-01-31T13:43:36Z</time><name>PT10809</name></trkpt>
<trkpt lat="53.209027" lon="-1.731718"><ele>312</ele><time>2020-01-31T13:43:36Z</time><name>PT10810</name></trkpt>
<trkpt lat="53.209027" lon="-1.731698"><ele>312</ele><time>2020-01-31T13:43:37Z</time><name>PT10811</name></trkpt>
<trkpt lat="53.209028" lon="-1.731675"><ele>313</ele><time>2020-01-31T13:43:39Z</time><name>PT10812</name></trkpt>
<trkpt lat="53.209032" lon="-1.731657"><ele>313</ele><time>2020-01-31T13:43:39Z</time><name>PT10813</name></trkpt>
<trkpt lat="53.209034" lon="-1.731635"><ele>313</ele><time>2020-01-31T13:43:40Z</time><name>PT10814</name></trkpt>
<trkpt lat="53.209036" lon="-1.731618"><ele>313</ele><time>2020-01-31T13:43:42Z</time><name>PT10815</name></trkpt>
<trkpt lat="53.209037" lon="-1.731602"><ele>312</ele><time>2020-01-31T13:43:42Z</time><name>PT10816</name></trkpt>
<trkpt lat="53.209039" lon="-1.731590"><ele>312</ele><time>2020-01-31T13:43:43Z</time><name>PT10817</name></trkpt>
<trkpt lat="53.209037" lon="-1.731574"><ele>312</ele><time>2020-01-31T13:43:45Z</time><name>PT10818</name></trkpt>
<trkpt lat="53.209036" lon="-1.731557"><ele>312</ele><time>2020-01-31T13:43:45Z</time><name>PT10819</name></trkpt>
<trkpt lat="53.209039" lon="-1.731542"><ele>312</ele><time>2020-01-31T13:43:46Z</time><name>PT10820</name></trkpt>
<trkpt lat="53.209042" lon="-1.731527"><ele>313</ele><time>2020-01-31T13:43:48Z</time><name>PT10821</name></trkpt>
<trkpt lat="53.209045" lon="-1.731506"><ele>313</ele><time>2020-01-31T13:43:48Z</time><name>PT10822</name></trkpt>
<trkpt lat="53.209047" lon="-1.731489"><ele>312</ele><time>2020-01-31T13:43:49Z</time><name>PT10823</name></trkpt>
<trkpt lat="53.209047" lon="-1.731469"><ele>312</ele><time>2020-01-31T13:43:51Z</time><name>PT10824</name></trkpt>
<trkpt lat="53.209049" lon="-1.731450"><ele>311</ele><time>2020-01-31T13:43:51Z</time><name>PT10825</name></trkpt>
<trkpt lat="53.209049" lon="-1.731432"><ele>311</ele><time>2020-01-31T13:43:52Z</time><name>PT10826</name></trkpt>
<trkpt lat="53.209050" lon="-1.731416"><ele>312</ele><time>2020-01-31T13:43:54Z</time><name>PT10827</name></trkpt>
<trkpt lat="53.209048" lon="-1.731399"><ele>311</ele><time>2020-01-31T13:43:54Z</time><name>PT10828</name></trkpt>
<trkpt lat="53.209048" lon="-1.731378"><ele>311</ele><time>2020-01-31T13:43:55Z</time><name>PT10829</name></trkpt>
<trkpt lat="53.209045" lon="-1.731359"><ele>310</ele><time>2020-01-31T13:43:57Z</time><name>PT10830</name></trkpt>
<trkpt lat="53.209046" lon="-1.731336"><ele>311</ele><time>2020-01-31T13:43:57Z</time><name>PT10831</name></trkpt>
<trkpt lat="53.209047" lon="-1.731314"><ele>310</ele><time>2020-01-31T13:43:58Z</time><name>PT10832</name></trkpt>
<trkpt lat="53.209048" lon="-1.731296"><ele>310</ele><time>2020-01-31T13:44:00Z</time><name>PT10833</name></trkpt>
<trkpt lat="53.209049" lon="-1.731280"><ele>310</ele><time>2020-01-31T13:44:00Z</time><name>PT10834</name></trkpt>
<trkpt lat="53.209047" lon="-1.731263"><ele>310</ele><time>2020-01-31T13:44:01Z</time><name>PT10835</name></trkpt>
<trkpt lat="53.209046" lon="-1.731244"><ele>310</ele><time>2020-01-31T13:44:03Z</time><name>PT10836</name></trkpt>
<trkpt lat="53.209044" lon="-1.731231"><ele>310</ele><time>2020-01-31T13:44:03Z</time><name>PT10837</name></trkpt>
<trkpt lat="53.209045" lon="-1.731212"><ele>310</ele><time>2020-01-31T13:44:04Z</time><name>PT10838</name></trkpt>
<trkpt lat="53.209046" lon="-1.731194"><ele>309</ele><time>2020-01-31T13:44:06Z</time><name>PT10839</name></trkpt>
<trkpt lat="53.209047" lon="-1.731175"><ele>309</ele><time>2020-01-31T13:44:06Z</time><name>PT10840</name></trkpt>
<trkpt lat="53.209048" lon="-1.731156"><ele>309</ele><time>2020-01-31T13:44:07Z</time><name>PT10841</name></trkpt>
<trkpt lat="53.209049" lon="-1.731140"><ele>309</ele><time>2020-01-31T13:44:09Z</time><name>PT10842</name></trkpt>
<trkpt lat="53.209049" lon="-1.731120"><ele>309</ele><time>2020-01-31T13:44:09Z</time><name>PT10843</name></trkpt>
<trkpt lat="53.209052" lon="-1.731105"><ele>309</ele><time>2020-01-31T13:44:10Z</time><name>PT10844</name></trkpt>
<trkpt lat="53.209053" lon="-1.731084"><ele>309</ele><time>2020-01-31T13:44:12Z</time><name>PT10845</name></trkpt>
<trkpt lat="53.209055" lon="-1.731065"><ele>309</ele><time>2020-01-31T13:44:12Z</time><name>PT10846</name></trkpt>
<trkpt lat="53.209055" lon="-1.731048"><ele>309</ele><time>2020-01-31T13:44:13Z</time><name>PT10847</name></trkpt>
<trkpt lat="53.209057" lon="-1.731030"><ele>309</ele><time>2020-01-31T13:44:15Z</time><name>PT10848</name></trkpt>
<trkpt lat="53.209056" lon="-1.731009"><ele>308</ele><time>2020-01-31T13:44:15Z</time><name>PT10849</name></trkpt>
<trkpt lat="53.209059" lon="-1.730987"><ele>308</ele><time>2020-01-31T13:44:16Z</time><name>PT10850</name></trkpt>
<trkpt lat="53.209061" lon="-1.730972"><ele>308</ele><time>2020-01-31T13:44:18Z</time><name>PT10851</name></trkpt>
<trkpt lat="53.209062" lon="-1.730957"><ele>308</ele><time>2020-01-31T13:44:18Z</time><name>PT10852</name></trkpt>
<trkpt lat="53.209063" lon="-1.730942"><ele>308</ele><time>2020-01-31T13:44:19Z</time><name>PT10853</name></trkpt>
<trkpt lat="53.209061" lon="-1.730926"><ele>308</ele><time>2020-01-31T13:44:21Z</time><name>PT10854</name></trkpt>
<trkpt lat="53.209057" lon="-1.730908"><ele>307</ele><time>2020-01-31T13:44:21Z</time><name>PT10855</name></trkpt>
<trkpt lat="53.209058" lon="-1.730890"><ele>307</ele><time>2020-01-31T13:44:22Z</time><name>PT10856</name></trkpt>
<trkpt lat="53.209058" lon="-1.730876"><ele>307</ele><time>2020-01-31T13:44:24Z</time><name>PT10857</name></trkpt>
<trkpt lat="53.209058" lon="-1.730856"><ele>307</ele><time>2020-01-31T13:44:24Z</time><name>PT10858</name></trkpt>
<trkpt lat="53.209057" lon="-1.730838"><ele>307</ele><time>2020-01-31T13:44:25Z</time><name>PT10859</name></trkpt>
<trkpt lat="53.209057" lon="-1.730823"><ele>307</ele><time>2020-01-31T13:44:27Z</time><name>PT10860</name></trkpt>
<trkpt lat="53.209060" lon="-1.730810"><ele>307</ele><time>2020-01-31T13:44:27Z</time><name>PT10861</name></trkpt>
<trkpt lat="53.209062" lon="-1.730798"><ele>306</ele><time>2020-01-31T13:44:28Z</time><name>PT10862</name></trkpt>
<trkpt lat="53.209062" lon="-1.730785"><ele>307</ele><time>2020-01-31T13:44:30Z</time><name>PT10863</name></trkpt>
<trkpt lat="53.209064" lon="-1.730781"><ele>307</ele><time>2020-01-31T13:44:30Z</time><name>PT10864</name></trkpt>
<trkpt lat="53.209067" lon="-1.730776"><ele>307</ele><time>2020-01-31T13:44:31Z</time><name>PT10865</name></trkpt>
<trkpt lat="53.209065" lon="-1.730772"><ele>307</ele><time>2020-01-31T13:44:33Z</time><name>PT10866</name></trkpt>
<trkpt lat="53.209062" lon="-1.730767"><ele>307</ele><time>2020-01-31T13:44:33Z</time><name>PT10867</name></trkpt>
<trkpt lat="53.209062" lon="-1.730761"><ele>307</ele><time>2020-01-31T13:44:34Z</time><name>PT10868</name></trkpt>
<trkpt lat="53.209063" lon="-1.730758"><ele>308</ele><time>2020-01-31T13:44:36Z</time><name>PT10869</name></trkpt>
<trkpt lat="53.209062" lon="-1.730752"><ele>308</ele><time>2020-01-31T13:44:36Z</time><name>PT10870</name></trkpt>
<trkpt lat="53.209062" lon="-1.730747"><ele>309</ele><time>2020-01-31T13:44:37Z</time><name>PT10871</name></trkpt>
<trkpt lat="53.209061" lon="-1.730743"><ele>309</ele><time>2020-01-31T13:44:39Z</time><name>PT10872</name></trkpt>
<trkpt lat="53.209064" lon="-1.730727"><ele>308</ele><time>2020-01-31T13:44:44Z</time><name>PT10873</name></trkpt>
<trkpt lat="53.209067" lon="-1.730694"><ele>308</ele><time>2020-01-31T13:44:45Z</time><name>PT10874</name></trkpt>
<trkpt lat="53.209068" lon="-1.730672"><ele>307</ele><time>2020-01-31T13:44:45Z</time><name>PT10875</name></trkpt>
<trkpt lat="53.209071" lon="-1.730651"><ele>307</ele><time>2020-01-31T13:44:46Z</time><name>PT10876</name></trkpt>
<trkpt lat="53.209072" lon="-1.730630"><ele>306</ele><time>2020-01-31T13:44:48Z</time><name>PT10877</name></trkpt>
<trkpt lat="53.209069" lon="-1.730612"><ele>306</ele><time>2020-01-31T13:44:48Z</time><name>PT10878</name></trkpt>
<trkpt lat="53.209065" lon="-1.730598"><ele>305</ele><time>2020-01-31T13:44:50Z</time><name>PT10879</name></trkpt>
<trkpt lat="53.209060" lon="-1.730586"><ele>305</ele><time>2020-01-31T13:44:51Z</time><name>PT10880</name></trkpt>
<trkpt lat="53.209053" lon="-1.730573"><ele>304</ele><time>2020-01-31T13:44:51Z</time><name>PT10881</name></trkpt>
<trkpt lat="53.209052" lon="-1.730551"><ele>304</ele><time>2020-01-31T13:44:52Z</time><name>PT10882</name></trkpt>
<trkpt lat="53.209047" lon="-1.730533"><ele>304</ele><time>2020-01-31T13:44:54Z</time><name>PT10883</name></trkpt>
<trkpt lat="53.209042" lon="-1.730525"><ele>304</ele><time>2020-01-31T13:44:54Z</time><name>PT10884</name></trkpt>
<trkpt lat="53.209035" lon="-1.730511"><ele>304</ele><time>2020-01-31T13:44:55Z</time><name>PT10885</name></trkpt>
<trkpt lat="53.209032" lon="-1.730501"><ele>304</ele><time>2020-01-31T13:44:57Z</time><name>PT10886</name></trkpt>
<trkpt lat="53.209040" lon="-1.730481"><ele>305</ele><time>2020-01-31T13:44:57Z</time><name>PT10887</name></trkpt>
<trkpt lat="53.209038" lon="-1.730466"><ele>306</ele><time>2020-01-31T13:44:58Z</time><name>PT10888</name></trkpt>
<trkpt lat="53.209034" lon="-1.730458"><ele>306</ele><time>2020-01-31T13:45:00Z</time><name>PT10889</name></trkpt>
<trkpt lat="53.209031" lon="-1.730445"><ele>306</ele><time>2020-01-31T13:45:00Z</time><name>PT10890</name></trkpt>
<trkpt lat="53.209024" lon="-1.730430"><ele>305</ele><time>2020-01-31T13:45:01Z</time><name>PT10891</name></trkpt>
<trkpt lat="53.209019" lon="-1.730420"><ele>305</ele><time>2020-01-31T13:45:03Z</time><name>PT10892</name></trkpt>
<trkpt lat="53.209015" lon="-1.730411"><ele>305</ele><time>2020-01-31T13:45:03Z</time><name>PT10893</name></trkpt>
<trkpt lat="53.209013" lon="-1.730402"><ele>305</ele><time>2020-01-31T13:45:04Z</time><name>PT10894</name></trkpt>
<trkpt lat="53.209012" lon="-1.730402"><ele>305</ele><time>2020-01-31T13:45:06Z</time><name>PT10895</name></trkpt>
<trkpt lat="53.209018" lon="-1.730397"><ele>306</ele><time>2020-01-31T13:45:06Z</time><name>PT10896</name></trkpt>
<trkpt lat="53.209020" lon="-1.730397"><ele>307</ele><time>2020-01-31T13:45:07Z</time><name>PT10897</name></trkpt>
<trkpt lat="53.209035" lon="-1.730381"><ele>308</ele><time>2020-01-31T13:45:10Z</time><name>PT10898</name></trkpt>
<trkpt lat="53.209033" lon="-1.730375"><ele>308</ele><time>2020-01-31T13:45:12Z</time><name>PT10899</name></trkpt>
<trkpt lat="53.209031" lon="-1.730367"><ele>308</ele><time>2020-01-31T13:45:12Z</time><name>PT10900</name></trkpt>
<trkpt lat="53.209028" lon="-1.730367"><ele>308</ele><time>2020-01-31T13:45:13Z</time><name>PT10901</name></trkpt>
<trkpt lat="53.209028" lon="-1.730358"><ele>308</ele><time>2020-01-31T13:45:15Z</time><name>PT10902</name></trkpt>
<trkpt lat="53.209023" lon="-1.730346"><ele>308</ele><time>2020-01-31T13:45:15Z</time><name>PT10903</name></trkpt>
<trkpt lat="53.209016" lon="-1.730328"><ele>308</ele><time>2020-01-31T13:45:16Z</time><name>PT10904</name></trkpt>
<trkpt lat="53.209007" lon="-1.730313"><ele>309</ele><time>2020-01-31T13:45:18Z</time><name>PT10905</name></trkpt>
<trkpt lat="53.208995" lon="-1.730295"><ele>310</ele><time>2020-01-31T13:45:18Z</time><name>PT10906</name></trkpt>
<trkpt lat="53.208984" lon="-1.730279"><ele>310</ele><time>2020-01-31T13:45:19Z</time><name>PT10907</name></trkpt>
<trkpt lat="53.208974" lon="-1.730262"><ele>310</ele><time>2020-01-31T13:45:21Z</time><name>PT10908</name></trkpt>
<trkpt lat="53.208967" lon="-1.730247"><ele>310</ele><time>2020-01-31T13:45:21Z</time><name>PT10909</name></trkpt>
<trkpt lat="53.208959" lon="-1.730227"><ele>310</ele><time>2020-01-31T13:45:22Z</time><name>PT10910</name></trkpt>
<trkpt lat="53.208949" lon="-1.730209"><ele>310</ele><time>2020-01-31T13:45:24Z</time><name>PT10911</name></trkpt>
<trkpt lat="53.208942" lon="-1.730190"><ele>310</ele><time>2020-01-31T13:45:24Z</time><name>PT10912</name></trkpt>
<trkpt lat="53.208934" lon="-1.730175"><ele>310</ele><time>2020-01-31T13:45:25Z</time><name>PT10913</name></trkpt>
<trkpt lat="53.208927" lon="-1.730158"><ele>309</ele><time>2020-01-31T13:45:27Z</time><name>PT10914</name></trkpt>
<trkpt lat="53.208924" lon="-1.730138"><ele>310</ele><time>2020-01-31T13:45:27Z</time><name>PT10915</name></trkpt>
<trkpt lat="53.208918" lon="-1.730127"><ele>310</ele><time>2020-01-31T13:45:28Z</time><name>PT10916</name></trkpt>
<trkpt lat="53.208913" lon="-1.730112"><ele>310</ele><time>2020-01-31T13:45:30Z</time><name>PT10917</name></trkpt>
<trkpt lat="53.208907" lon="-1.730097"><ele>310</ele><time>2020-01-31T13:45:30Z</time><name>PT10918</name></trkpt>
<trkpt lat="53.208900" lon="-1.730086"><ele>310</ele><time>2020-01-31T13:45:31Z</time><name>PT10919</name></trkpt>
<trkpt lat="53.208895" lon="-1.730073"><ele>311</ele><time>2020-01-31T13:45:33Z</time><name>PT10920</name></trkpt>
<trkpt lat="53.208891" lon="-1.730060"><ele>311</ele><time>2020-01-31T13:45:33Z</time><name>PT10921</name></trkpt>
<trkpt lat="53.208889" lon="-1.730047"><ele>311</ele><time>2020-01-31T13:45:34Z</time><name>PT10922</name></trkpt>
<trkpt lat="53.208885" lon="-1.730034"><ele>312</ele><time>2020-01-31T13:45:36Z</time><name>PT10923</name></trkpt>
<trkpt lat="53.208880" lon="-1.730022"><ele>312</ele><time>2020-01-31T13:45:36Z</time><name>PT10924</name></trkpt>
<trkpt lat="53.208875" lon="-1.730008"><ele>313</ele><time>2020-01-31T13:45:37Z</time><name>PT10925</name></trkpt>
<trkpt lat="53.208872" lon="-1.729993"><ele>314</ele><time>2020-01-31T13:45:39Z</time><name>PT10926</name></trkpt>
<trkpt lat="53.208866" lon="-1.729977"><ele>313</ele><time>2020-01-31T13:45:39Z</time><name>PT10927</name></trkpt>
<trkpt lat="53.208864" lon="-1.729963"><ele>314</ele><time>2020-01-31T13:45:40Z</time><name>PT10928</name></trkpt>
<trkpt lat="53.208861" lon="-1.729954"><ele>314</ele><time>2020-01-31T13:45:42Z</time><name>PT10929</name></trkpt>
<trkpt lat="53.208857" lon="-1.729943"><ele>314</ele><time>2020-01-31T13:45:42Z</time><name>PT10930</name></trkpt>
<trkpt lat="53.208849" lon="-1.729934"><ele>313</ele><time>2020-01-31T13:45:43Z</time><name>PT10931</name></trkpt>
<trkpt lat="53.208842" lon="-1.729922"><ele>314</ele><time>2020-01-31T13:45:45Z</time><name>PT10932</name></trkpt>
<trkpt lat="53.208836" lon="-1.729911"><ele>314</ele><time>2020-01-31T13:45:45Z</time><name>PT10933</name></trkpt>
<trkpt lat="53.208830" lon="-1.729900"><ele>314</ele><time>2020-01-31T13:45:46Z</time><name>PT10934</name></trkpt>
<trkpt lat="53.208826" lon="-1.729891"><ele>314</ele><time>2020-01-31T13:45:48Z</time><name>PT10935</name></trkpt>
<trkpt lat="53.208821" lon="-1.729878"><ele>314</ele><time>2020-01-31T13:45:48Z</time><name>PT10936</name></trkpt>
<trkpt lat="53.208816" lon="-1.729869"><ele>315</ele><time>2020-01-31T13:45:49Z</time><name>PT10937</name></trkpt>
<trkpt lat="53.208811" lon="-1.729857"><ele>315</ele><time>2020-01-31T13:45:51Z</time><name>PT10938</name></trkpt>
<trkpt lat="53.208808" lon="-1.729845"><ele>315</ele><time>2020-01-31T13:45:51Z</time><name>PT10939</name></trkpt>
<trkpt lat="53.208803" lon="-1.729833"><ele>316</ele><time>2020-01-31T13:45:52Z</time><name>PT10940</name></trkpt>
<trkpt lat="53.208799" lon="-1.729824"><ele>316</ele><time>2020-01-31T13:45:54Z</time><name>PT10941</name></trkpt>
<trkpt lat="53.208795" lon="-1.729816"><ele>316</ele><time>2020-01-31T13:45:54Z</time><name>PT10942</name></trkpt>
<trkpt lat="53.208789" lon="-1.729810"><ele>316</ele><time>2020-01-31T13:45:55Z</time><name>PT10943</name></trkpt>
<trkpt lat="53.208786" lon="-1.729806"><ele>317</ele><time>2020-01-31T13:45:57Z</time><name>PT10944</name></trkpt>
<trkpt lat="53.208783" lon="-1.729800"><ele>317</ele><time>2020-01-31T13:45:57Z</time><name>PT10945</name></trkpt>
<trkpt lat="53.208779" lon="-1.729789"><ele>317</ele><time>2020-01-31T13:45:58Z</time><name>PT10946</name></trkpt>
<trkpt lat="53.208775" lon="-1.729778"><ele>317</ele><time>2020-01-31T13:46:00Z</time><name>PT10947</name></trkpt>
<trkpt lat="53.208770" lon="-1.729768"><ele>317</ele><time>2020-01-31T13:46:00Z</time><name>PT10948</name></trkpt>
<trkpt lat="53.208767" lon="-1.729762"><ele>317</ele><time>2020-01-31T13:46:01Z</time><name>PT10949</name></trkpt>
<trkpt lat="53.208762" lon="-1.729751"><ele>317</ele><time>2020-01-31T13:46:03Z</time><name>PT10950</name></trkpt>
<trkpt lat="53.208756" lon="-1.729740"><ele>317</ele><time>2020-01-31T13:46:03Z</time><name>PT10951</name></trkpt>
<trkpt lat="53.208751" lon="-1.729730"><ele>317</ele><time>2020-01-31T13:46:04Z</time><name>PT10952</name></trkpt>
<trkpt lat="53.208747" lon="-1.729718"><ele>317</ele><time>2020-01-31T13:46:06Z</time><name>PT10953</name></trkpt>
<trkpt lat="53.208743" lon="-1.729707"><ele>317</ele><time>2020-01-31T13:46:06Z</time><name>PT10954</name></trkpt>
<trkpt lat="53.208739" lon="-1.729697"><ele>318</ele><time>2020-01-31T13:46:07Z</time><name>PT10955</name></trkpt>
<trkpt lat="53.208733" lon="-1.729691"><ele>317</ele><time>2020-01-31T13:46:09Z</time><name>PT10956</name></trkpt>
<trkpt lat="53.208727" lon="-1.729684"><ele>318</ele><time>2020-01-31T13:46:09Z</time><name>PT10957</name></trkpt>
<trkpt lat="53.208721" lon="-1.729672"><ele>318</ele><time>2020-01-31T13:46:10Z</time><name>PT10958</name></trkpt>
<trkpt lat="53.208717" lon="-1.729660"><ele>318</ele><time>2020-01-31T13:46:12Z</time><name>PT10959</name></trkpt>
<trkpt lat="53.208714" lon="-1.729649"><ele>319</ele><time>2020-01-31T13:46:12Z</time><name>PT10960</name></trkpt>
<trkpt lat="53.208710" lon="-1.729638"><ele>319</ele><time>2020-01-31T13:46:13Z</time><name>PT10961</name></trkpt>
<trkpt lat="53.208706" lon="-1.729626"><ele>319</ele><time>2020-01-31T13:46:15Z</time><name>PT10962</name></trkpt>
<trkpt lat="53.208703" lon="-1.729613"><ele>320</ele><time>2020-01-31T13:46:15Z</time><name>PT10963</name></trkpt>
<trkpt lat="53.208702" lon="-1.729602"><ele>320</ele><time>2020-01-31T13:46:16Z</time><name>PT10964</name></trkpt>
<trkpt lat="53.208703" lon="-1.729595"><ele>321</ele><time>2020-01-31T13:46:18Z</time><name>PT10965</name></trkpt>
<trkpt lat="53.208704" lon="-1.729588"><ele>323</ele><time>2020-01-31T13:46:18Z</time><name>PT10966</name></trkpt>
<trkpt lat="53.208704" lon="-1.729578"><ele>324</ele><time>2020-01-31T13:46:19Z</time><name>PT10967</name></trkpt>
<trkpt lat="53.208699" lon="-1.729568"><ele>324</ele><time>2020-01-31T13:46:21Z</time><name>PT10968</name></trkpt>
<trkpt lat="53.208692" lon="-1.729556"><ele>323</ele><time>2020-01-31T13:46:21Z</time><name>PT10969</name></trkpt>
<trkpt lat="53.208685" lon="-1.729545"><ele>323</ele><time>2020-01-31T13:46:22Z</time><name>PT10970</name></trkpt>
<trkpt lat="53.208677" lon="-1.729537"><ele>324</ele><time>2020-01-31T13:46:24Z</time><name>PT10971</name></trkpt>
<trkpt lat="53.208672" lon="-1.729522"><ele>324</ele><time>2020-01-31T13:46:24Z</time><name>PT10972</name></trkpt>
<trkpt lat="53.208669" lon="-1.729508"><ele>324</ele><time>2020-01-31T13:46:25Z</time><name>PT10973</name></trkpt>
<trkpt lat="53.208666" lon="-1.729504"><ele>324</ele><time>2020-01-31T13:46:27Z</time><name>PT10974</name></trkpt>
<trkpt lat="53.208662" lon="-1.729504"><ele>325</ele><time>2020-01-31T13:46:27Z</time><name>PT10975</name></trkpt>
<trkpt lat="53.208659" lon="-1.729500"><ele>325</ele><time>2020-01-31T13:46:28Z</time><name>PT10976</name></trkpt>
<trkpt lat="53.208658" lon="-1.729500"><ele>325</ele><time>2020-01-31T13:46:30Z</time><name>PT10977</name></trkpt>
<trkpt lat="53.208656" lon="-1.729500"><ele>325</ele><time>2020-01-31T13:46:30Z</time><name>PT10978</name></trkpt>
<trkpt lat="53.208652" lon="-1.729498"><ele>325</ele><time>2020-01-31T13:46:36Z</time><name>PT10979</name></trkpt>
<trkpt lat="53.208646" lon="-1.729490"><ele>325</ele><time>2020-01-31T13:46:37Z</time><name>PT10980</name></trkpt>
<trkpt lat="53.208645" lon="-1.729473"><ele>325</ele><time>2020-01-31T13:46:39Z</time><name>PT10981</name></trkpt>
<trkpt lat="53.208642" lon="-1.729461"><ele>325</ele><time>2020-01-31T13:46:39Z</time><name>PT10982</name></trkpt>
<trkpt lat="53.208639" lon="-1.729443"><ele>326</ele><time>2020-01-31T13:46:40Z</time><name>PT10983</name></trkpt>
<trkpt lat="53.208635" lon="-1.729423"><ele>326</ele><time>2020-01-31T13:46:42Z</time><name>PT10984</name></trkpt>
<trkpt lat="53.208631" lon="-1.729410"><ele>326</ele><time>2020-01-31T13:46:42Z</time><name>PT10985</name></trkpt>
<trkpt lat="53.208626" lon="-1.729395"><ele>326</ele><time>2020-01-31T13:46:43Z</time><name>PT10986</name></trkpt>
<trkpt lat="53.208624" lon="-1.729381"><ele>326</ele><time>2020-01-31T13:46:45Z</time><name>PT10987</name></trkpt>
<trkpt lat="53.208620" lon="-1.729367"><ele>326</ele><time>2020-01-31T13:46:45Z</time><name>PT10988</name></trkpt>
<trkpt lat="53.208613" lon="-1.729351"><ele>326</ele><time>2020-01-31T13:46:46Z</time><name>PT10989</name></trkpt>
<trkpt lat="53.208606" lon="-1.729335"><ele>326</ele><time>2020-01-31T13:46:48Z</time><name>PT10990</name></trkpt>
<trkpt lat="53.208602" lon="-1.729321"><ele>327</ele><time>2020-01-31T13:46:48Z</time><name>PT10991</name></trkpt>
<trkpt lat="53.208597" lon="-1.729304"><ele>327</ele><time>2020-01-31T13:46:49Z</time><name>PT10992</name></trkpt>
<trkpt lat="53.208593" lon="-1.729287"><ele>327</ele><time>2020-01-31T13:46:51Z</time><name>PT10993</name></trkpt>
<trkpt lat="53.208589" lon="-1.729276"><ele>327</ele><time>2020-01-31T13:46:51Z</time><name>PT10994</name></trkpt>
<trkpt lat="53.208586" lon="-1.729262"><ele>327</ele><time>2020-01-31T13:46:52Z</time><name>PT10995</name></trkpt>
<trkpt lat="53.208582" lon="-1.729248"><ele>327</ele><time>2020-01-31T13:46:54Z</time><name>PT10996</name></trkpt>
<trkpt lat="53.208577" lon="-1.729236"><ele>328</ele><time>2020-01-31T13:46:54Z</time><name>PT10997</name></trkpt>
<trkpt lat="53.208573" lon="-1.729221"><ele>328</ele><time>2020-01-31T13:46:55Z</time><name>PT10998</name></trkpt>
<trkpt lat="53.208567" lon="-1.729204"><ele>328</ele><time>2020-01-31T13:46:57Z</time><name>PT10999</name></trkpt>
<trkpt lat="53.208562" lon="-1.729191"><ele>328</ele><time>2020-01-31T13:46:57Z</time><name>PT11000</name></trkpt>
<trkpt lat="53.208557" lon="-1.729177"><ele>328</ele><time>2020-01-31T13:46:58Z</time><name>PT11001</name></trkpt>
<trkpt lat="53.208553" lon="-1.729164"><ele>329</ele><time>2020-01-31T13:47:00Z</time><name>PT11002</name></trkpt>
<trkpt lat="53.208549" lon="-1.729150"><ele>329</ele><time>2020-01-31T13:47:00Z</time><name>PT11003</name></trkpt>
<trkpt lat="53.208546" lon="-1.729135"><ele>329</ele><time>2020-01-31T13:47:01Z</time><name>PT11004</name></trkpt>
<trkpt lat="53.208541" lon="-1.729121"><ele>329</ele><time>2020-01-31T13:47:03Z</time><name>PT11005</name></trkpt>
<trkpt lat="53.208536" lon="-1.729110"><ele>330</ele><time>2020-01-31T13:47:03Z</time><name>PT11006</name></trkpt>
<trkpt lat="53.208529" lon="-1.729096"><ele>330</ele><time>2020-01-31T13:47:04Z</time><name>PT11007</name></trkpt>
<trkpt lat="53.208523" lon="-1.729082"><ele>330</ele><time>2020-01-31T13:47:06Z</time><name>PT11008</name></trkpt>
<trkpt lat="53.208518" lon="-1.729069"><ele>330</ele><time>2020-01-31T13:47:06Z</time><name>PT11009</name></trkpt>
<trkpt lat="53.208513" lon="-1.729057"><ele>331</ele><time>2020-01-31T13:47:07Z</time><name>PT11010</name></trkpt>
<trkpt lat="53.208508" lon="-1.729042"><ele>331</ele><time>2020-01-31T13:47:09Z</time><name>PT11011</name></trkpt>
<trkpt lat="53.208507" lon="-1.729031"><ele>331</ele><time>2020-01-31T13:47:09Z</time><name>PT11012</name></trkpt>
<trkpt lat="53.208504" lon="-1.729021"><ele>331</ele><time>2020-01-31T13:47:10Z</time><name>PT11013</name></trkpt>
<trkpt lat="53.208497" lon="-1.729006"><ele>332</ele><time>2020-01-31T13:47:12Z</time><name>PT11014</name></trkpt>
<trkpt lat="53.208491" lon="-1.728992"><ele>332</ele><time>2020-01-31T13:47:12Z</time><name>PT11015</name></trkpt>
<trkpt lat="53.208484" lon="-1.728981"><ele>332</ele><time>2020-01-31T13:47:13Z</time><name>PT11016</name></trkpt>
<trkpt lat="53.208477" lon="-1.728967"><ele>332</ele><time>2020-01-31T13:47:15Z</time><name>PT11017</name></trkpt>
<trkpt lat="53.208472" lon="-1.728953"><ele>332</ele><time>2020-01-31T13:47:15Z</time><name>PT11018</name></trkpt>
<trkpt lat="53.208468" lon="-1.728941"><ele>332</ele><time>2020-01-31T13:47:16Z</time><name>PT11019</name></trkpt>
<trkpt lat="53.208463" lon="-1.728936"><ele>332</ele><time>2020-01-31T13:47:18Z</time><name>PT11020</name></trkpt>
<trkpt lat="53.208461" lon="-1.728927"><ele>331</ele><time>2020-01-31T13:47:18Z</time><name>PT11021</name></trkpt>
<trkpt lat="53.208457" lon="-1.728918"><ele>332</ele><time>2020-01-31T13:47:19Z</time><name>PT11022</name></trkpt>
<trkpt lat="53.208455" lon="-1.728905"><ele>332</ele><time>2020-01-31T13:47:21Z</time><name>PT11023</name></trkpt>
<trkpt lat="53.208451" lon="-1.728889"><ele>332</ele><time>2020-01-31T13:47:21Z</time><name>PT11024</name></trkpt>
<trkpt lat="53.208445" lon="-1.728879"><ele>332</ele><time>2020-01-31T13:47:22Z</time><name>PT11025</name></trkpt>
<trkpt lat="53.208440" lon="-1.728866"><ele>332</ele><time>2020-01-31T13:47:24Z</time><name>PT11026</name></trkpt>
<trkpt lat="53.208435" lon="-1.728852"><ele>333</ele><time>2020-01-31T13:47:24Z</time><name>PT11027</name></trkpt>
<trkpt lat="53.208431" lon="-1.728837"><ele>333</ele><time>2020-01-31T13:47:25Z</time><name>PT11028</name></trkpt>
<trkpt lat="53.208428" lon="-1.728824"><ele>333</ele><time>2020-01-31T13:47:27Z</time><name>PT11029</name></trkpt>
<trkpt lat="53.208427" lon="-1.728810"><ele>334</ele><time>2020-01-31T13:47:27Z</time><name>PT11030</name></trkpt>
<trkpt lat="53.208427" lon="-1.728797"><ele>334</ele><time>2020-01-31T13:47:28Z</time><name>PT11031</name></trkpt>
<trkpt lat="53.208428" lon="-1.728790"><ele>334</ele><time>2020-01-31T13:47:30Z</time><name>PT11032</name></trkpt>
<trkpt lat="53.208424" lon="-1.728779"><ele>334</ele><time>2020-01-31T13:47:30Z</time><name>PT11033</name></trkpt>
<trkpt lat="53.208418" lon="-1.728766"><ele>334</ele><time>2020-01-31T13:47:31Z</time><name>PT11034</name></trkpt>
<trkpt lat="53.208416" lon="-1.728753"><ele>335</ele><time>2020-01-31T13:47:33Z</time><name>PT11035</name></trkpt>
<trkpt lat="53.208415" lon="-1.728738"><ele>335</ele><time>2020-01-31T13:47:33Z</time><name>PT11036</name></trkpt>
<trkpt lat="53.208411" lon="-1.728724"><ele>336</ele><time>2020-01-31T13:47:34Z</time><name>PT11037</name></trkpt>
<trkpt lat="53.208408" lon="-1.728713"><ele>336</ele><time>2020-01-31T13:47:36Z</time><name>PT11038</name></trkpt>
<trkpt lat="53.208406" lon="-1.728701"><ele>336</ele><time>2020-01-31T13:47:36Z</time><name>PT11039</name></trkpt>
<trkpt lat="53.208402" lon="-1.728688"><ele>336</ele><time>2020-01-31T13:47:37Z</time><name>PT11040</name></trkpt>
<trkpt lat="53.208401" lon="-1.728676"><ele>337</ele><time>2020-01-31T13:47:39Z</time><name>PT11041</name></trkpt>
<trkpt lat="53.208400" lon="-1.728663"><ele>337</ele><time>2020-01-31T13:47:39Z</time><name>PT11042</name></trkpt>
<trkpt lat="53.208400" lon="-1.728651"><ele>337</ele><time>2020-01-31T13:47:40Z</time><name>PT11043</name></trkpt>
<trkpt lat="53.208399" lon="-1.728641"><ele>337</ele><time>2020-01-31T13:47:42Z</time><name>PT11044</name></trkpt>
<trkpt lat="53.208400" lon="-1.728629"><ele>337</ele><time>2020-01-31T13:47:42Z</time><name>PT11045</name></trkpt>
<trkpt lat="53.208398" lon="-1.728614"><ele>337</ele><time>2020-01-31T13:47:43Z</time><name>PT11046</name></trkpt>
<trkpt lat="53.208393" lon="-1.728600"><ele>337</ele><time>2020-01-31T13:47:45Z</time><name>PT11047</name></trkpt>
<trkpt lat="53.208390" lon="-1.728584"><ele>337</ele><time>2020-01-31T13:47:45Z</time><name>PT11048</name></trkpt>
<trkpt lat="53.208388" lon="-1.728565"><ele>337</ele><time>2020-01-31T13:47:46Z</time><name>PT11049</name></trkpt>
<trkpt lat="53.208386" lon="-1.728550"><ele>337</ele><time>2020-01-31T13:47:48Z</time><name>PT11050</name></trkpt>
<trkpt lat="53.208385" lon="-1.728542"><ele>338</ele><time>2020-01-31T13:47:48Z</time><name>PT11051</name></trkpt>
<trkpt lat="53.208384" lon="-1.728531"><ele>338</ele><time>2020-01-31T13:47:49Z</time><name>PT11052</name></trkpt>
<trkpt lat="53.208383" lon="-1.728521"><ele>338</ele><time>2020-01-31T13:47:51Z</time><name>PT11053</name></trkpt>
<trkpt lat="53.208383" lon="-1.728511"><ele>338</ele><time>2020-01-31T13:47:51Z</time><name>PT11054</name></trkpt>
<trkpt lat="53.208379" lon="-1.728501"><ele>338</ele><time>2020-01-31T13:47:52Z</time><name>PT11055</name></trkpt>
<trkpt lat="53.208375" lon="-1.728493"><ele>338</ele><time>2020-01-31T13:47:54Z</time><name>PT11056</name></trkpt>
<trkpt lat="53.208373" lon="-1.728483"><ele>338</ele><time>2020-01-31T13:47:54Z</time><name>PT11057</name></trkpt>
<trkpt lat="53.208370" lon="-1.728473"><ele>338</ele><time>2020-01-31T13:47:55Z</time><name>PT11058</name></trkpt>
<trkpt lat="53.208367" lon="-1.728462"><ele>338</ele><time>2020-01-31T13:47:57Z</time><name>PT11059</name></trkpt>
<trkpt lat="53.208363" lon="-1.728454"><ele>338</ele><time>2020-01-31T13:47:57Z</time><name>PT11060</name></trkpt>
<trkpt lat="53.208360" lon="-1.728444"><ele>338</ele><time>2020-01-31T13:47:58Z</time><name>PT11061</name></trkpt>
<trkpt lat="53.208358" lon="-1.728432"><ele>338</ele><time>2020-01-31T13:48:00Z</time><name>PT11062</name></trkpt>
<trkpt lat="53.208354" lon="-1.728424"><ele>338</ele><time>2020-01-31T13:48:00Z</time><name>PT11063</name></trkpt>
<trkpt lat="53.208349" lon="-1.728412"><ele>337</ele><time>2020-01-31T13:48:01Z</time><name>PT11064</name></trkpt>
<trkpt lat="53.208345" lon="-1.728402"><ele>338</ele><time>2020-01-31T13:48:03Z</time><name>PT11065</name></trkpt>
<trkpt lat="53.208343" lon="-1.728392"><ele>338</ele><time>2020-01-31T13:48:03Z</time><name>PT11066</name></trkpt>
<trkpt lat="53.208340" lon="-1.728383"><ele>338</ele><time>2020-01-31T13:48:04Z</time><name>PT11067</name></trkpt>
<trkpt lat="53.208336" lon="-1.728375"><ele>338</ele><time>2020-01-31T13:48:06Z</time><name>PT11068</name></trkpt>
<trkpt lat="53.208333" lon="-1.728367"><ele>338</ele><time>2020-01-31T13:48:06Z</time><name>PT11069</name></trkpt>
<trkpt lat="53.208330" lon="-1.728355"><ele>338</ele><time>2020-01-31T13:48:07Z</time><name>PT11070</name></trkpt>
<trkpt lat="53.208328" lon="-1.728343"><ele>338</ele><time>2020-01-31T13:48:09Z</time><name>PT11071</name></trkpt>
<trkpt lat="53.208326" lon="-1.728332"><ele>338</ele><time>2020-01-31T13:48:09Z</time><name>PT11072</name></trkpt>
<trkpt lat="53.208323" lon="-1.728321"><ele>339</ele><time>2020-01-31T13:48:10Z</time><name>PT11073</name></trkpt>
<trkpt lat="53.208325" lon="-1.728318"><ele>338</ele><time>2020-01-31T13:48:12Z</time><name>PT11074</name></trkpt>
<trkpt lat="53.208327" lon="-1.728309"><ele>338</ele><time>2020-01-31T13:48:12Z</time><name>PT11075</name></trkpt>
<trkpt lat="53.208323" lon="-1.728301"><ele>338</ele><time>2020-01-31T13:48:13Z</time><name>PT11076</name></trkpt>
<trkpt lat="53.208322" lon="-1.728294"><ele>337</ele><time>2020-01-31T13:48:15Z</time><name>PT11077</name></trkpt>
<trkpt lat="53.208319" lon="-1.728284"><ele>338</ele><time>2020-01-31T13:48:15Z</time><name>PT11078</name></trkpt>
<trkpt lat="53.208315" lon="-1.728274"><ele>338</ele><time>2020-01-31T13:48:16Z</time><name>PT11079</name></trkpt>
<trkpt lat="53.208313" lon="-1.728264"><ele>338</ele><time>2020-01-31T13:48:18Z</time><name>PT11080</name></trkpt>
<trkpt lat="53.208309" lon="-1.728252"><ele>338</ele><time>2020-01-31T13:48:18Z</time><name>PT11081</name></trkpt>
<trkpt lat="53.208304" lon="-1.728243"><ele>339</ele><time>2020-01-31T13:48:19Z</time><name>PT11082</name></trkpt>
<trkpt lat="53.208300" lon="-1.728233"><ele>338</ele><time>2020-01-31T13:48:21Z</time><name>PT11083</name></trkpt>
<trkpt lat="53.208295" lon="-1.728223"><ele>338</ele><time>2020-01-31T13:48:21Z</time><name>PT11084</name></trkpt>
<trkpt lat="53.208292" lon="-1.728215"><ele>339</ele><time>2020-01-31T13:48:22Z</time><name>PT11085</name></trkpt>
<trkpt lat="53.208291" lon="-1.728207"><ele>339</ele><time>2020-01-31T13:48:24Z</time><name>PT11086</name></trkpt>
<trkpt lat="53.208288" lon="-1.728197"><ele>338</ele><time>2020-01-31T13:48:24Z</time><name>PT11087</name></trkpt>
<trkpt lat="53.208282" lon="-1.728186"><ele>338</ele><time>2020-01-31T13:48:25Z</time><name>PT11088</name></trkpt>
<trkpt lat="53.208278" lon="-1.728174"><ele>338</ele><time>2020-01-31T13:48:27Z</time><name>PT11089</name></trkpt>
<trkpt lat="53.208273" lon="-1.728162"><ele>338</ele><time>2020-01-31T13:48:27Z</time><name>PT11090</name></trkpt>
<trkpt lat="53.208266" lon="-1.728150"><ele>339</ele><time>2020-01-31T13:48:28Z</time><name>PT11091</name></trkpt>
<trkpt lat="53.208259" lon="-1.728138"><ele>338</ele><time>2020-01-31T13:48:30Z</time><name>PT11092</name></trkpt>
<trkpt lat="53.208251" lon="-1.728125"><ele>339</ele><time>2020-01-31T13:48:30Z</time><name>PT11093</name></trkpt>
<trkpt lat="53.208245" lon="-1.728112"><ele>339</ele><time>2020-01-31T13:48:31Z</time><name>PT11094</name></trkpt>
<trkpt lat="53.208240" lon="-1.728099"><ele>340</ele><time>2020-01-31T13:48:33Z</time><name>PT11095</name></trkpt>
<trkpt lat="53.208236" lon="-1.728088"><ele>341</ele><time>2020-01-31T13:48:33Z</time><name>PT11096</name></trkpt>
<trkpt lat="53.208228" lon="-1.728075"><ele>341</ele><time>2020-01-31T13:48:34Z</time><name>PT11097</name></trkpt>
<trkpt lat="53.208222" lon="-1.728062"><ele>341</ele><time>2020-01-31T13:48:36Z</time><name>PT11098</name></trkpt>
<trkpt lat="53.208218" lon="-1.728048"><ele>341</ele><time>2020-01-31T13:48:36Z</time><name>PT11099</name></trkpt>
<trkpt lat="53.208215" lon="-1.728035"><ele>341</ele><time>2020-01-31T13:48:37Z</time><name>PT11100</name></trkpt>
<trkpt lat="53.208211" lon="-1.728027"><ele>342</ele><time>2020-01-31T13:48:39Z</time><name>PT11101</name></trkpt>
<trkpt lat="53.208206" lon="-1.728015"><ele>341</ele><time>2020-01-31T13:48:39Z</time><name>PT11102</name></trkpt>
<trkpt lat="53.208200" lon="-1.728002"><ele>342</ele><time>2020-01-31T13:48:40Z</time><name>PT11103</name></trkpt>
<trkpt lat="53.208197" lon="-1.727989"><ele>342</ele><time>2020-01-31T13:48:42Z</time><name>PT11104</name></trkpt>
<trkpt lat="53.208194" lon="-1.727976"><ele>342</ele><time>2020-01-31T13:48:42Z</time><name>PT11105</name></trkpt>
<trkpt lat="53.208192" lon="-1.727966"><ele>342</ele><time>2020-01-31T13:48:43Z</time><name>PT11106</name></trkpt>
<trkpt lat="53.208187" lon="-1.727953"><ele>343</ele><time>2020-01-31T13:48:45Z</time><name>PT11107</name></trkpt>
<trkpt lat="53.208185" lon="-1.727940"><ele>342</ele><time>2020-01-31T13:48:45Z</time><name>PT11108</name></trkpt>
<trkpt lat="53.208181" lon="-1.727923"><ele>342</ele><time>2020-01-31T13:48:46Z</time><name>PT11109</name></trkpt>
<trkpt lat="53.208175" lon="-1.727906"><ele>343</ele><time>2020-01-31T13:48:48Z</time><name>PT11110</name></trkpt>
<trkpt lat="53.208168" lon="-1.727890"><ele>342</ele><time>2020-01-31T13:48:48Z</time><name>PT11111</name></trkpt>
<trkpt lat="53.208161" lon="-1.727876"><ele>342</ele><time>2020-01-31T13:48:49Z</time><name>PT11112</name></trkpt>
<trkpt lat="53.208154" lon="-1.727863"><ele>343</ele><time>2020-01-31T13:48:51Z</time><name>PT11113</name></trkpt>
<trkpt lat="53.208150" lon="-1.727851"><ele>344</ele><time>2020-01-31T13:48:51Z</time><name>PT11114</name></trkpt>
<trkpt lat="53.208153" lon="-1.727836"><ele>344</ele><time>2020-01-31T13:48:52Z</time><name>PT11115</name></trkpt>
<trkpt lat="53.208150" lon="-1.727825"><ele>344</ele><time>2020-01-31T13:48:54Z</time><name>PT11116</name></trkpt>
<trkpt lat="53.208145" lon="-1.727813"><ele>344</ele><time>2020-01-31T13:48:54Z</time><name>PT11117</name></trkpt>
<trkpt lat="53.208140" lon="-1.727806"><ele>344</ele><time>2020-01-31T13:48:55Z</time><name>PT11118</name></trkpt>
<trkpt lat="53.208134" lon="-1.727790"><ele>345</ele><time>2020-01-31T13:48:57Z</time><name>PT11119</name></trkpt>
<trkpt lat="53.208129" lon="-1.727776"><ele>345</ele><time>2020-01-31T13:48:57Z</time><name>PT11120</name></trkpt>
<trkpt lat="53.208125" lon="-1.727760"><ele>345</ele><time>2020-01-31T13:48:58Z</time><name>PT11121</name></trkpt>
<trkpt lat="53.208121" lon="-1.727747"><ele>345</ele><time>2020-01-31T13:49:00Z</time><name>PT11122</name></trkpt>
<trkpt lat="53.208117" lon="-1.727737"><ele>344</ele><time>2020-01-31T13:49:00Z</time><name>PT11123</name></trkpt>
<trkpt lat="53.208112" lon="-1.727726"><ele>344</ele><time>2020-01-31T13:49:01Z</time><name>PT11124</name></trkpt>
<trkpt lat="53.208107" lon="-1.727714"><ele>344</ele><time>2020-01-31T13:49:03Z</time><name>PT11125</name></trkpt>
<trkpt lat="53.208104" lon="-1.727701"><ele>343</ele><time>2020-01-31T13:49:03Z</time><name>PT11126</name></trkpt>
<trkpt lat="53.208103" lon="-1.727686"><ele>342</ele><time>2020-01-31T13:49:04Z</time><name>PT11127</name></trkpt>
<trkpt lat="53.208099" lon="-1.727677"><ele>342</ele><time>2020-01-31T13:49:06Z</time><name>PT11128</name></trkpt>
<trkpt lat="53.208096" lon="-1.727671"><ele>342</ele><time>2020-01-31T13:49:06Z</time><name>PT11129</name></trkpt>
<trkpt lat="53.208094" lon="-1.727656"><ele>342</ele><time>2020-01-31T13:49:07Z</time><name>PT11130</name></trkpt>
<trkpt lat="53.208092" lon="-1.727646"><ele>342</ele><time>2020-01-31T13:49:09Z</time><name>PT11131</name></trkpt>
<trkpt lat="53.208091" lon="-1.727639"><ele>343</ele><time>2020-01-31T13:49:09Z</time><name>PT11132</name></trkpt>
<trkpt lat="53.208087" lon="-1.727627"><ele>342</ele><time>2020-01-31T13:49:10Z</time><name>PT11133</name></trkpt>
<trkpt lat="53.208086" lon="-1.727617"><ele>342</ele><time>2020-01-31T13:49:12Z</time><name>PT11134</name></trkpt>
<trkpt lat="53.208084" lon="-1.727607"><ele>342</ele><time>2020-01-31T13:49:12Z</time><name>PT11135</name></trkpt>
<trkpt lat="53.208080" lon="-1.727597"><ele>343</ele><time>2020-01-31T13:49:13Z</time><name>PT11136</name></trkpt>
<trkpt lat="53.208077" lon="-1.727593"><ele>342</ele><time>2020-01-31T13:49:18Z</time><name>PT11137</name></trkpt>
<trkpt lat="53.208072" lon="-1.727581"><ele>342</ele><time>2020-01-31T13:49:18Z</time><name>PT11138</name></trkpt>
<trkpt lat="53.208070" lon="-1.727577"><ele>342</ele><time>2020-01-31T13:49:19Z</time><name>PT11139</name></trkpt>
<trkpt lat="53.208069" lon="-1.727573"><ele>341</ele><time>2020-01-31T13:49:21Z</time><name>PT11140</name></trkpt>
<trkpt lat="53.208068" lon="-1.727573"><ele>341</ele><time>2020-01-31T13:49:21Z</time><name>PT11141</name></trkpt>
<trkpt lat="53.208069" lon="-1.727571"><ele>341</ele><time>2020-01-31T13:49:22Z</time><name>PT11142</name></trkpt>
<trkpt lat="53.208068" lon="-1.727563"><ele>342</ele><time>2020-01-31T13:49:24Z</time><name>PT11143</name></trkpt>
<trkpt lat="53.208067" lon="-1.727549"><ele>342</ele><time>2020-01-31T13:49:24Z</time><name>PT11144</name></trkpt>
<trkpt lat="53.208064" lon="-1.727543"><ele>342</ele><time>2020-01-31T13:49:25Z</time><name>PT11145</name></trkpt>
<trkpt lat="53.208063" lon="-1.727541"><ele>342</ele><time>2020-01-31T13:49:27Z</time><name>PT11146</name></trkpt>
<trkpt lat="53.208061" lon="-1.727541"><ele>342</ele><time>2020-01-31T13:49:27Z</time><name>PT11147</name></trkpt>
<trkpt lat="53.208059" lon="-1.727539"><ele>342</ele><time>2020-01-31T13:49:28Z</time><name>PT11148</name></trkpt>
<trkpt lat="53.208058" lon="-1.727536"><ele>343</ele><time>2020-01-31T13:49:30Z</time><name>PT11149</name></trkpt>
<trkpt lat="53.208055" lon="-1.727535"><ele>343</ele><time>2020-01-31T13:49:30Z</time><name>PT11150</name></trkpt>
<trkpt lat="53.208055" lon="-1.727532"><ele>342</ele><time>2020-01-31T13:49:31Z</time><name>PT11151</name></trkpt>
<trkpt lat="53.208054" lon="-1.727531"><ele>342</ele><time>2020-01-31T13:49:33Z</time><name>PT11152</name></trkpt>
<trkpt lat="53.208051" lon="-1.727535"><ele>341</ele><time>2020-01-31T13:49:37Z</time><name>PT11153</name></trkpt>
<trkpt lat="53.208047" lon="-1.727536"><ele>342</ele><time>2020-01-31T13:49:39Z</time><name>PT11154</name></trkpt>
<trkpt lat="53.208044" lon="-1.727535"><ele>342</ele><time>2020-01-31T13:49:39Z</time><name>PT11155</name></trkpt>
<trkpt lat="53.208039" lon="-1.727531"><ele>341</ele><time>2020-01-31T13:49:40Z</time><name>PT11156</name></trkpt>
<trkpt lat="53.208030" lon="-1.727535"><ele>341</ele><time>2020-01-31T13:49:42Z</time><name>PT11157</name></trkpt>
<trkpt lat="53.208024" lon="-1.727538"><ele>340</ele><time>2020-01-31T13:49:42Z</time><name>PT11158</name></trkpt>
<trkpt lat="53.208018" lon="-1.727537"><ele>341</ele><time>2020-01-31T13:49:43Z</time><name>PT11159</name></trkpt>
<trkpt lat="53.208014" lon="-1.727536"><ele>340</ele><time>2020-01-31T13:49:45Z</time><name>PT11160</name></trkpt>
<trkpt lat="53.208012" lon="-1.727530"><ele>340</ele><time>2020-01-31T13:49:45Z</time><name>PT11161</name></trkpt>
<trkpt lat="53.208011" lon="-1.727525"><ele>341</ele><time>2020-01-31T13:49:46Z</time><name>PT11162</name></trkpt>
<trkpt lat="53.208003" lon="-1.727513"><ele>340</ele><time>2020-01-31T13:49:48Z</time><name>PT11163</name></trkpt>
<trkpt lat="53.207996" lon="-1.727502"><ele>340</ele><time>2020-01-31T13:49:48Z</time><name>PT11164</name></trkpt>
<trkpt lat="53.207994" lon="-1.727496"><ele>340</ele><time>2020-01-31T13:49:49Z</time><name>PT11165</name></trkpt>
<trkpt lat="53.207983" lon="-1.727491"><ele>340</ele><time>2020-01-31T13:49:51Z</time><name>PT11166</name></trkpt>
<trkpt lat="53.207974" lon="-1.727495"><ele>339</ele><time>2020-01-31T13:49:51Z</time><name>PT11167</name></trkpt>
<trkpt lat="53.207967" lon="-1.727495"><ele>340</ele><time>2020-01-31T13:49:52Z</time><name>PT11168</name></trkpt>
<trkpt lat="53.207962" lon="-1.727492"><ele>340</ele><time>2020-01-31T13:49:54Z</time><name>PT11169</name></trkpt>
<trkpt lat="53.207956" lon="-1.727480"><ele>341</ele><time>2020-01-31T13:49:54Z</time><name>PT11170</name></trkpt>
<trkpt lat="53.207945" lon="-1.727472"><ele>342</ele><time>2020-01-31T13:49:55Z</time><name>PT11171</name></trkpt>
<trkpt lat="53.207939" lon="-1.727464"><ele>343</ele><time>2020-01-31T13:49:57Z</time><name>PT11172</name></trkpt>
<trkpt lat="53.207936" lon="-1.727457"><ele>343</ele><time>2020-01-31T13:49:57Z</time><name>PT11173</name></trkpt>
<trkpt lat="53.207937" lon="-1.727458"><ele>343</ele><time>2020-01-31T13:49:58Z</time><name>PT11174</name></trkpt>
<trkpt lat="53.207939" lon="-1.727466"><ele>343</ele><time>2020-01-31T13:50:00Z</time><name>PT11175</name></trkpt>
<trkpt lat="53.207942" lon="-1.727471"><ele>344</ele><time>2020-01-31T13:50:01Z</time><name>PT11176</name></trkpt>
<trkpt lat="53.207939" lon="-1.727475"><ele>344</ele><time>2020-01-31T13:50:03Z</time><name>PT11177</name></trkpt>
<trkpt lat="53.207938" lon="-1.727474"><ele>344</ele><time>2020-01-31T13:50:03Z</time><name>PT11178</name></trkpt>
<trkpt lat="53.207938" lon="-1.727471"><ele>344</ele><time>2020-01-31T13:50:04Z</time><name>PT11179</name></trkpt>
<trkpt lat="53.207936" lon="-1.727473"><ele>344</ele><time>2020-01-31T13:50:06Z</time><name>PT11180</name></trkpt>
<trkpt lat="53.207938" lon="-1.727471"><ele>344</ele><time>2020-01-31T13:50:06Z</time><name>PT11181</name></trkpt>
<trkpt lat="53.207937" lon="-1.727471"><ele>344</ele><time>2020-01-31T13:50:07Z</time><name>PT11182</name></trkpt>
<trkpt lat="53.207931" lon="-1.727473"><ele>344</ele><time>2020-01-31T13:50:16Z</time><name>PT11183</name></trkpt>
<trkpt lat="53.207926" lon="-1.727474"><ele>344</ele><time>2020-01-31T13:50:18Z</time><name>PT11184</name></trkpt>
<trkpt lat="53.207930" lon="-1.727477"><ele>344</ele><time>2020-01-31T13:50:18Z</time><name>PT11185</name></trkpt>
<trkpt lat="53.207928" lon="-1.727477"><ele>344</ele><time>2020-01-31T13:50:19Z</time><name>PT11186</name></trkpt>
<trkpt lat="53.207927" lon="-1.727477"><ele>344</ele><time>2020-01-31T13:50:21Z</time><name>PT11187</name></trkpt>
<trkpt lat="53.207926" lon="-1.727480"><ele>344</ele><time>2020-01-31T13:50:21Z</time><name>PT11188</name></trkpt>
<trkpt lat="53.207926" lon="-1.727479"><ele>344</ele><time>2020-01-31T13:50:28Z</time><name>PT11189</name></trkpt>
<trkpt lat="53.207924" lon="-1.727481"><ele>344</ele><time>2020-01-31T13:50:30Z</time><name>PT11190</name></trkpt>
<trkpt lat="53.207917" lon="-1.727479"><ele>345</ele><time>2020-01-31T13:50:30Z</time><name>PT11191</name></trkpt>
<trkpt lat="53.207909" lon="-1.727484"><ele>345</ele><time>2020-01-31T13:50:31Z</time><name>PT11192</name></trkpt>
<trkpt lat="53.207901" lon="-1.727491"><ele>346</ele><time>2020-01-31T13:50:33Z</time><name>PT11193</name></trkpt>
<trkpt lat="53.207901" lon="-1.727489"><ele>346</ele><time>2020-01-31T13:50:37Z</time><name>PT11194</name></trkpt>
<trkpt lat="53.207891" lon="-1.727476"><ele>346</ele><time>2020-01-31T13:50:39Z</time><name>PT11195</name></trkpt>
<trkpt lat="53.207882" lon="-1.727460"><ele>346</ele><time>2020-01-31T13:50:39Z</time><name>PT11196</name></trkpt>
<trkpt lat="53.207871" lon="-1.727448"><ele>346</ele><time>2020-01-31T13:50:40Z</time><name>PT11197</name></trkpt>
<trkpt lat="53.207861" lon="-1.727435"><ele>346</ele><time>2020-01-31T13:50:42Z</time><name>PT11198</name></trkpt>
<trkpt lat="53.207855" lon="-1.727431"><ele>346</ele><time>2020-01-31T13:50:42Z</time><name>PT11199</name></trkpt>
<trkpt lat="53.207852" lon="-1.727420"><ele>346</ele><time>2020-01-31T13:50:43Z</time><name>PT11200</name></trkpt>
<trkpt lat="53.207848" lon="-1.727408"><ele>346</ele><time>2020-01-31T13:50:45Z</time><name>PT11201</name></trkpt>
<trkpt lat="53.207842" lon="-1.727397"><ele>346</ele><time>2020-01-31T13:50:45Z</time><name>PT11202</name></trkpt>
<trkpt lat="53.207838" lon="-1.727387"><ele>346</ele><time>2020-01-31T13:50:46Z</time><name>PT11203</name></trkpt>
<trkpt lat="53.207833" lon="-1.727373"><ele>347</ele><time>2020-01-31T13:50:48Z</time><name>PT11204</name></trkpt>
<trkpt lat="53.207827" lon="-1.727358"><ele>347</ele><time>2020-01-31T13:50:48Z</time><name>PT11205</name></trkpt>
<trkpt lat="53.207821" lon="-1.727348"><ele>347</ele><time>2020-01-31T13:50:49Z</time><name>PT11206</name></trkpt>
<trkpt lat="53.207807" lon="-1.727335"><ele>347</ele><time>2020-01-31T13:50:51Z</time><name>PT11207</name></trkpt>
<trkpt lat="53.207794" lon="-1.727316"><ele>347</ele><time>2020-01-31T13:50:51Z</time><name>PT11208</name></trkpt>
<trkpt lat="53.207786" lon="-1.727304"><ele>347</ele><time>2020-01-31T13:50:52Z</time><name>PT11209</name></trkpt>
<trkpt lat="53.207778" lon="-1.727288"><ele>346</ele><time>2020-01-31T13:50:54Z</time><name>PT11210</name></trkpt>
<trkpt lat="53.207767" lon="-1.727278"><ele>346</ele><time>2020-01-31T13:50:54Z</time><name>PT11211</name></trkpt>
<trkpt lat="53.207760" lon="-1.727264"><ele>346</ele><time>2020-01-31T13:50:55Z</time><name>PT11212</name></trkpt>
<trkpt lat="53.207750" lon="-1.727250"><ele>346</ele><time>2020-01-31T13:50:57Z</time><name>PT11213</name></trkpt>
<trkpt lat="53.207741" lon="-1.727238"><ele>346</ele><time>2020-01-31T13:50:57Z</time><name>PT11214</name></trkpt>
<trkpt lat="53.207733" lon="-1.727224"><ele>346</ele><time>2020-01-31T13:50:58Z</time><name>PT11215</name></trkpt>
<trkpt lat="53.207724" lon="-1.727212"><ele>346</ele><time>2020-01-31T13:51:00Z</time><name>PT11216</name></trkpt>
<trkpt lat="53.207717" lon="-1.727201"><ele>346</ele><time>2020-01-31T13:51:00Z</time><name>PT11217</name></trkpt>
<trkpt lat="53.207712" lon="-1.727187"><ele>346</ele><time>2020-01-31T13:51:01Z</time><name>PT11218</name></trkpt>
<trkpt lat="53.207708" lon="-1.727170"><ele>346</ele><time>2020-01-31T13:51:03Z</time><name>PT11219</name></trkpt>
<trkpt lat="53.207701" lon="-1.727150"><ele>346</ele><time>2020-01-31T13:51:03Z</time><name>PT11220</name></trkpt>
<trkpt lat="53.207695" lon="-1.727136"><ele>346</ele><time>2020-01-31T13:51:04Z</time><name>PT11221</name></trkpt>
<trkpt lat="53.207687" lon="-1.727123"><ele>346</ele><time>2020-01-31T13:51:06Z</time><name>PT11222</name></trkpt>
<trkpt lat="53.207679" lon="-1.727110"><ele>345</ele><time>2020-01-31T13:51:06Z</time><name>PT11223</name></trkpt>
<trkpt lat="53.207670" lon="-1.727096"><ele>346</ele><time>2020-01-31T13:51:07Z</time><name>PT11224</name></trkpt>
<trkpt lat="53.207662" lon="-1.727077"><ele>346</ele><time>2020-01-31T13:51:09Z</time><name>PT11225</name></trkpt>
<trkpt lat="53.207655" lon="-1.727059"><ele>346</ele><time>2020-01-31T13:51:09Z</time><name>PT11226</name></trkpt>
<trkpt lat="53.207648" lon="-1.727048"><ele>346</ele><time>2020-01-31T13:51:10Z</time><name>PT11227</name></trkpt>
<trkpt lat="53.207641" lon="-1.727036"><ele>346</ele><time>2020-01-31T13:51:12Z</time><name>PT11228</name></trkpt>
<trkpt lat="53.207633" lon="-1.727021"><ele>346</ele><time>2020-01-31T13:51:12Z</time><name>PT11229</name></trkpt>
<trkpt lat="53.207624" lon="-1.727005"><ele>346</ele><time>2020-01-31T13:51:13Z</time><name>PT11230</name></trkpt>
<trkpt lat="53.207617" lon="-1.726991"><ele>346</ele><time>2020-01-31T13:51:15Z</time><name>PT11231</name></trkpt>
<trkpt lat="53.207609" lon="-1.726973"><ele>346</ele><time>2020-01-31T13:51:15Z</time><name>PT11232</name></trkpt>
<trkpt lat="53.207598" lon="-1.726960"><ele>346</ele><time>2020-01-31T13:51:16Z</time><name>PT11233</name></trkpt>
<trkpt lat="53.207589" lon="-1.726945"><ele>346</ele><time>2020-01-31T13:51:18Z</time><name>PT11234</name></trkpt>
<trkpt lat="53.207580" lon="-1.726934"><ele>346</ele><time>2020-01-31T13:51:18Z</time><name>PT11235</name></trkpt>
<trkpt lat="53.207573" lon="-1.726925"><ele>345</ele><time>2020-01-31T13:51:19Z</time><name>PT11236</name></trkpt>
<trkpt lat="53.207565" lon="-1.726911"><ele>345</ele><time>2020-01-31T13:51:21Z</time><name>PT11237</name></trkpt>
<trkpt lat="53.207562" lon="-1.726899"><ele>344</ele><time>2020-01-31T13:51:21Z</time><name>PT11238</name></trkpt>
<trkpt lat="53.207554" lon="-1.726880"><ele>345</ele><time>2020-01-31T13:51:22Z</time><name>PT11239</name></trkpt>
<trkpt lat="53.207547" lon="-1.726865"><ele>345</ele><time>2020-01-31T13:51:24Z</time><name>PT11240</name></trkpt>
<trkpt lat="53.207540" lon="-1.726852"><ele>345</ele><time>2020-01-31T13:51:24Z</time><name>PT11241</name></trkpt>
<trkpt lat="53.207532" lon="-1.726837"><ele>345</ele><time>2020-01-31T13:51:25Z</time><name>PT11242</name></trkpt>
<trkpt lat="53.207525" lon="-1.726822"><ele>345</ele><time>2020-01-31T13:51:27Z</time><name>PT11243</name></trkpt>
<trkpt lat="53.207519" lon="-1.726806"><ele>344</ele><time>2020-01-31T13:51:27Z</time><name>PT11244</name></trkpt>
<trkpt lat="53.207513" lon="-1.726790"><ele>344</ele><time>2020-01-31T13:51:28Z</time><name>PT11245</name></trkpt>
<trkpt lat="53.207505" lon="-1.726772"><ele>344</ele><time>2020-01-31T13:51:30Z</time><name>PT11246</name></trkpt>
<trkpt lat="53.207496" lon="-1.726757"><ele>345</ele><time>2020-01-31T13:51:30Z</time><name>PT11247</name></trkpt>
<trkpt lat="53.207488" lon="-1.726738"><ele>344</ele><time>2020-01-31T13:51:31Z</time><name>PT11248</name></trkpt>
<trkpt lat="53.207480" lon="-1.726724"><ele>344</ele><time>2020-01-31T13:51:33Z</time><name>PT11249</name></trkpt>
<trkpt lat="53.207471" lon="-1.726705"><ele>344</ele><time>2020-01-31T13:51:33Z</time><name>PT11250</name></trkpt>
<trkpt lat="53.207464" lon="-1.726687"><ele>344</ele><time>2020-01-31T13:51:34Z</time><name>PT11251</name></trkpt>
<trkpt lat="53.207457" lon="-1.726675"><ele>345</ele><time>2020-01-31T13:51:36Z</time><name>PT11252</name></trkpt>
<trkpt lat="53.207449" lon="-1.726662"><ele>344</ele><time>2020-01-31T13:51:36Z</time><name>PT11253</name></trkpt>
<trkpt lat="53.207442" lon="-1.726649"><ele>343</ele><time>2020-01-31T13:51:37Z</time><name>PT11254</name></trkpt>
<trkpt lat="53.207435" lon="-1.726630"><ele>344</ele><time>2020-01-31T13:51:39Z</time><name>PT11255</name></trkpt>
<trkpt lat="53.207427" lon="-1.726613"><ele>343</ele><time>2020-01-31T13:51:39Z</time><name>PT11256</name></trkpt>
<trkpt lat="53.207419" lon="-1.726592"><ele>344</ele><time>2020-01-31T13:51:40Z</time><name>PT11257</name></trkpt>
<trkpt lat="53.207412" lon="-1.726571"><ele>344</ele><time>2020-01-31T13:51:42Z</time><name>PT11258</name></trkpt>
<trkpt lat="53.207405" lon="-1.726561"><ele>344</ele><time>2020-01-31T13:51:42Z</time><name>PT11259</name></trkpt>
<trkpt lat="53.207397" lon="-1.726544"><ele>344</ele><time>2020-01-31T13:51:43Z</time><name>PT11260</name></trkpt>
<trkpt lat="53.207388" lon="-1.726525"><ele>344</ele><time>2020-01-31T13:51:45Z</time><name>PT11261</name></trkpt>
<trkpt lat="53.207379" lon="-1.726508"><ele>344</ele><time>2020-01-31T13:51:45Z</time><name>PT11262</name></trkpt>
<trkpt lat="53.207371" lon="-1.726488"><ele>344</ele><time>2020-01-31T13:51:46Z</time><name>PT11263</name></trkpt>
<trkpt lat="53.207364" lon="-1.726470"><ele>344</ele><time>2020-01-31T13:51:48Z</time><name>PT11264</name></trkpt>
<trkpt lat="53.207358" lon="-1.726450"><ele>344</ele><time>2020-01-31T13:51:48Z</time><name>PT11265</name></trkpt>
<trkpt lat="53.207351" lon="-1.726425"><ele>344</ele><time>2020-01-31T13:51:49Z</time><name>PT11266</name></trkpt>
<trkpt lat="53.207346" lon="-1.726405"><ele>344</ele><time>2020-01-31T13:51:51Z</time><name>PT11267</name></trkpt>
<trkpt lat="53.207338" lon="-1.726394"><ele>344</ele><time>2020-01-31T13:51:51Z</time><name>PT11268</name></trkpt>
<trkpt lat="53.207329" lon="-1.726380"><ele>344</ele><time>2020-01-31T13:51:52Z</time><name>PT11269</name></trkpt>
<trkpt lat="53.207320" lon="-1.726360"><ele>344</ele><time>2020-01-31T13:51:54Z</time><name>PT11270</name></trkpt>
<trkpt lat="53.207312" lon="-1.726342"><ele>344</ele><time>2020-01-31T13:51:54Z</time><name>PT11271</name></trkpt>
<trkpt lat="53.207307" lon="-1.726323"><ele>344</ele><time>2020-01-31T13:51:55Z</time><name>PT11272</name></trkpt>
<trkpt lat="53.207300" lon="-1.726303"><ele>344</ele><time>2020-01-31T13:51:57Z</time><name>PT11273</name></trkpt>
<trkpt lat="53.207294" lon="-1.726282"><ele>344</ele><time>2020-01-31T13:51:57Z</time><name>PT11274</name></trkpt>
<trkpt lat="53.207287" lon="-1.726268"><ele>344</ele><time>2020-01-31T13:51:58Z</time><name>PT11275</name></trkpt>
<trkpt lat="53.207277" lon="-1.726254"><ele>344</ele><time>2020-01-31T13:52:00Z</time><name>PT11276</name></trkpt>
<trkpt lat="53.207269" lon="-1.726234"><ele>344</ele><time>2020-01-31T13:52:00Z</time><name>PT11277</name></trkpt>
<trkpt lat="53.207260" lon="-1.726217"><ele>343</ele><time>2020-01-31T13:52:01Z</time><name>PT11278</name></trkpt>
<trkpt lat="53.207251" lon="-1.726202"><ele>343</ele><time>2020-01-31T13:52:03Z</time><name>PT11279</name></trkpt>
<trkpt lat="53.207246" lon="-1.726189"><ele>343</ele><time>2020-01-31T13:52:03Z</time><name>PT11280</name></trkpt>
<trkpt lat="53.207241" lon="-1.726174"><ele>343</ele><time>2020-01-31T13:52:04Z</time><name>PT11281</name></trkpt>
<trkpt lat="53.207234" lon="-1.726149"><ele>343</ele><time>2020-01-31T13:52:06Z</time><name>PT11282</name></trkpt>
<trkpt lat="53.207228" lon="-1.726129"><ele>343</ele><time>2020-01-31T13:52:06Z</time><name>PT11283</name></trkpt>
<trkpt lat="53.207221" lon="-1.726109"><ele>343</ele><time>2020-01-31T13:52:07Z</time><name>PT11284</name></trkpt>
<trkpt lat="53.207217" lon="-1.726092"><ele>343</ele><time>2020-01-31T13:52:09Z</time><name>PT11285</name></trkpt>
<trkpt lat="53.207212" lon="-1.726076"><ele>344</ele><time>2020-01-31T13:52:09Z</time><name>PT11286</name></trkpt>
<trkpt lat="53.207204" lon="-1.726057"><ele>344</ele><time>2020-01-31T13:52:10Z</time><name>PT11287</name></trkpt>
<trkpt lat="53.207199" lon="-1.726038"><ele>344</ele><time>2020-01-31T13:52:12Z</time><name>PT11288</name></trkpt>
<trkpt lat="53.207192" lon="-1.726016"><ele>345</ele><time>2020-01-31T13:52:12Z</time><name>PT11289</name></trkpt>
<trkpt lat="53.207183" lon="-1.725996"><ele>345</ele><time>2020-01-31T13:52:13Z</time><name>PT11290</name></trkpt>
<trkpt lat="53.207178" lon="-1.725976"><ele>345</ele><time>2020-01-31T13:52:15Z</time><name>PT11291</name></trkpt>
<trkpt lat="53.207176" lon="-1.725959"><ele>344</ele><time>2020-01-31T13:52:15Z</time><name>PT11292</name></trkpt>
<trkpt lat="53.207171" lon="-1.725945"><ele>344</ele><time>2020-01-31T13:52:16Z</time><name>PT11293</name></trkpt>
<trkpt lat="53.207165" lon="-1.725928"><ele>344</ele><time>2020-01-31T13:52:18Z</time><name>PT11294</name></trkpt>
<trkpt lat="53.207162" lon="-1.725914"><ele>343</ele><time>2020-01-31T13:52:18Z</time><name>PT11295</name></trkpt>
<trkpt lat="53.207156" lon="-1.725894"><ele>344</ele><time>2020-01-31T13:52:19Z</time><name>PT11296</name></trkpt>
<trkpt lat="53.207150" lon="-1.725872"><ele>343</ele><time>2020-01-31T13:52:21Z</time><name>PT11297</name></trkpt>
<trkpt lat="53.207143" lon="-1.725849"><ele>343</ele><time>2020-01-31T13:52:21Z</time><name>PT11298</name></trkpt>
<trkpt lat="53.207139" lon="-1.725832"><ele>343</ele><time>2020-01-31T13:52:22Z</time><name>PT11299</name></trkpt>
<trkpt lat="53.207135" lon="-1.725818"><ele>343</ele><time>2020-01-31T13:52:24Z</time><name>PT11300</name></trkpt>
<trkpt lat="53.207130" lon="-1.725796"><ele>343</ele><time>2020-01-31T13:52:24Z</time><name>PT11301</name></trkpt>
<trkpt lat="53.207125" lon="-1.725775"><ele>343</ele><time>2020-01-31T13:52:25Z</time><name>PT11302</name></trkpt>
<trkpt lat="53.207120" lon="-1.725757"><ele>342</ele><time>2020-01-31T13:52:27Z</time><name>PT11303</name></trkpt>
<trkpt lat="53.207114" lon="-1.725741"><ele>342</ele><time>2020-01-31T13:52:27Z</time><name>PT11304</name></trkpt>
<trkpt lat="53.207111" lon="-1.725723"><ele>342</ele><time>2020-01-31T13:52:28Z</time><name>PT11305</name></trkpt>
<trkpt lat="53.207107" lon="-1.725703"><ele>342</ele><time>2020-01-31T13:52:30Z</time><name>PT11306</name></trkpt>
<trkpt lat="53.207104" lon="-1.725686"><ele>342</ele><time>2020-01-31T13:52:30Z</time><name>PT11307</name></trkpt>
<trkpt lat="53.207098" lon="-1.725667"><ele>342</ele><time>2020-01-31T13:52:31Z</time><name>PT11308</name></trkpt>
<trkpt lat="53.207096" lon="-1.725644"><ele>342</ele><time>2020-01-31T13:52:33Z</time><name>PT11309</name></trkpt>
<trkpt lat="53.207092" lon="-1.725623"><ele>341</ele><time>2020-01-31T13:52:33Z</time><name>PT11310</name></trkpt>
<trkpt lat="53.207088" lon="-1.725601"><ele>341</ele><time>2020-01-31T13:52:34Z</time><name>PT11311</name></trkpt>
<trkpt lat="53.207085" lon="-1.725580"><ele>341</ele><time>2020-01-31T13:52:36Z</time><name>PT11312</name></trkpt>
<trkpt lat="53.207082" lon="-1.725552"><ele>341</ele><time>2020-01-31T13:52:36Z</time><name>PT11313</name></trkpt>
<trkpt lat="53.207080" lon="-1.725532"><ele>341</ele><time>2020-01-31T13:52:37Z</time><name>PT11314</name></trkpt>
<trkpt lat="53.207073" lon="-1.725514"><ele>342</ele><time>2020-01-31T13:52:39Z</time><name>PT11315</name></trkpt>
<trkpt lat="53.207071" lon="-1.725494"><ele>342</ele><time>2020-01-31T13:52:39Z</time><name>PT11316</name></trkpt>
<trkpt lat="53.207070" lon="-1.725474"><ele>342</ele><time>2020-01-31T13:52:40Z</time><name>PT11317</name></trkpt>
<trkpt lat="53.207068" lon="-1.725454"><ele>342</ele><time>2020-01-31T13:52:42Z</time><name>PT11318</name></trkpt>
<trkpt lat="53.207066" lon="-1.725431"><ele>342</ele><time>2020-01-31T13:52:42Z</time><name>PT11319</name></trkpt>
<trkpt lat="53.207063" lon="-1.725410"><ele>342</ele><time>2020-01-31T13:52:43Z</time><name>PT11320</name></trkpt>
<trkpt lat="53.207058" lon="-1.725386"><ele>342</ele><time>2020-01-31T13:52:45Z</time><name>PT11321</name></trkpt>
<trkpt lat="53.207054" lon="-1.725364"><ele>341</ele><time>2020-01-31T13:52:45Z</time><name>PT11322</name></trkpt>
<trkpt lat="53.207049" lon="-1.725349"><ele>341</ele><time>2020-01-31T13:52:46Z</time><name>PT11323</name></trkpt>
<trkpt lat="53.207047" lon="-1.725330"><ele>340</ele><time>2020-01-31T13:52:48Z</time><name>PT11324</name></trkpt>
<trkpt lat="53.207042" lon="-1.725309"><ele>340</ele><time>2020-01-31T13:52:48Z</time><name>PT11325</name></trkpt>
<trkpt lat="53.207037" lon="-1.725288"><ele>340</ele><time>2020-01-31T13:52:49Z</time><name>PT11326</name></trkpt>
<trkpt lat="53.207036" lon="-1.725264"><ele>340</ele><time>2020-01-31T13:52:51Z</time><name>PT11327</name></trkpt>
<trkpt lat="53.207034" lon="-1.725239"><ele>340</ele><time>2020-01-31T13:52:51Z</time><name>PT11328</name></trkpt>
<trkpt lat="53.207033" lon="-1.725217"><ele>340</ele><time>2020-01-31T13:52:52Z</time><name>PT11329</name></trkpt>
<trkpt lat="53.207031" lon="-1.725200"><ele>339</ele><time>2020-01-31T13:52:54Z</time><name>PT11330</name></trkpt>
<trkpt lat="53.207029" lon="-1.725183"><ele>339</ele><time>2020-01-31T13:52:54Z</time><name>PT11331</name></trkpt>
<trkpt lat="53.207028" lon="-1.725156"><ele>339</ele><time>2020-01-31T13:52:55Z</time><name>PT11332</name></trkpt>
<trkpt lat="53.207029" lon="-1.725144"><ele>339</ele><time>2020-01-31T13:52:57Z</time><name>PT11333</name></trkpt>
<trkpt lat="53.207027" lon="-1.725127"><ele>339</ele><time>2020-01-31T13:52:57Z</time><name>PT11334</name></trkpt>
<trkpt lat="53.207023" lon="-1.725107"><ele>339</ele><time>2020-01-31T13:52:58Z</time><name>PT11335</name></trkpt>
<trkpt lat="53.207019" lon="-1.725086"><ele>338</ele><time>2020-01-31T13:53:00Z</time><name>PT11336</name></trkpt>
<trkpt lat="53.207017" lon="-1.725061"><ele>338</ele><time>2020-01-31T13:53:00Z</time><name>PT11337</name></trkpt>
<trkpt lat="53.207016" lon="-1.725037"><ele>338</ele><time>2020-01-31T13:53:01Z</time><name>PT11338</name></trkpt>
<trkpt lat="53.207012" lon="-1.725017"><ele>337</ele><time>2020-01-31T13:53:03Z</time><name>PT11339</name></trkpt>
<trkpt lat="53.207011" lon="-1.724998"><ele>337</ele><time>2020-01-31T13:53:03Z</time><name>PT11340</name></trkpt>
<trkpt lat="53.207009" lon="-1.724980"><ele>337</ele><time>2020-01-31T13:53:04Z</time><name>PT11341</name></trkpt>
<trkpt lat="53.207006" lon="-1.724958"><ele>337</ele><time>2020-01-31T13:53:06Z</time><name>PT11342</name></trkpt>
<trkpt lat="53.207003" lon="-1.724935"><ele>337</ele><time>2020-01-31T13:53:06Z</time><name>PT11343</name></trkpt>
<trkpt lat="53.207002" lon="-1.724918"><ele>337</ele><time>2020-01-31T13:53:07Z</time><name>PT11344</name></trkpt>
<trkpt lat="53.207000" lon="-1.724898"><ele>336</ele><time>2020-01-31T13:53:09Z</time><name>PT11345</name></trkpt>
<trkpt lat="53.206998" lon="-1.724876"><ele>336</ele><time>2020-01-31T13:53:09Z</time><name>PT11346</name></trkpt>
<trkpt lat="53.206997" lon="-1.724854"><ele>336</ele><time>2020-01-31T13:53:10Z</time><name>PT11347</name></trkpt>
<trkpt lat="53.206996" lon="-1.724834"><ele>336</ele><time>2020-01-31T13:53:12Z</time><name>PT11348</name></trkpt>
<trkpt lat="53.206993" lon="-1.724807"><ele>335</ele><time>2020-01-31T13:53:12Z</time><name>PT11349</name></trkpt>
<trkpt lat="53.206989" lon="-1.724780"><ele>335</ele><time>2020-01-31T13:53:13Z</time><name>PT11350</name></trkpt>
<trkpt lat="53.206983" lon="-1.724755"><ele>335</ele><time>2020-01-31T13:53:15Z</time><name>PT11351</name></trkpt>
<trkpt lat="53.206981" lon="-1.724734"><ele>335</ele><time>2020-01-31T13:53:15Z</time><name>PT11352</name></trkpt>
<trkpt lat="53.206981" lon="-1.724718"><ele>335</ele><time>2020-01-31T13:53:16Z</time><name>PT11353</name></trkpt>
<trkpt lat="53.206982" lon="-1.724701"><ele>334</ele><time>2020-01-31T13:53:18Z</time><name>PT11354</name></trkpt>
<trkpt lat="53.206981" lon="-1.724680"><ele>334</ele><time>2020-01-31T13:53:18Z</time><name>PT11355</name></trkpt>
<trkpt lat="53.206979" lon="-1.724654"><ele>334</ele><time>2020-01-31T13:53:19Z</time><name>PT11356</name></trkpt>
<trkpt lat="53.206977" lon="-1.724632"><ele>334</ele><time>2020-01-31T13:53:21Z</time><name>PT11357</name></trkpt>
<trkpt lat="53.206970" lon="-1.724610"><ele>334</ele><time>2020-01-31T13:53:21Z</time><name>PT11358</name></trkpt>
<trkpt lat="53.206968" lon="-1.724589"><ele>334</ele><time>2020-01-31T13:53:22Z</time><name>PT11359</name></trkpt>
<trkpt lat="53.206967" lon="-1.724570"><ele>334</ele><time>2020-01-31T13:53:24Z</time><name>PT11360</name></trkpt>
<trkpt lat="53.206965" lon="-1.724553"><ele>334</ele><time>2020-01-31T13:53:24Z</time><name>PT11361</name></trkpt>
<trkpt lat="53.206963" lon="-1.724535"><ele>334</ele><time>2020-01-31T13:53:25Z</time><name>PT11362</name></trkpt>
<trkpt lat="53.206963" lon="-1.724520"><ele>334</ele><time>2020-01-31T13:53:27Z</time><name>PT11363</name></trkpt>
<trkpt lat="53.206963" lon="-1.724499"><ele>334</ele><time>2020-01-31T13:53:27Z</time><name>PT11364</name></trkpt>
<trkpt lat="53.206960" lon="-1.724475"><ele>334</ele><time>2020-01-31T13:53:28Z</time><name>PT11365</name></trkpt>
<trkpt lat="53.206957" lon="-1.724451"><ele>334</ele><time>2020-01-31T13:53:30Z</time><name>PT11366</name></trkpt>
<trkpt lat="53.206954" lon="-1.724426"><ele>334</ele><time>2020-01-31T13:53:30Z</time><name>PT11367</name></trkpt>
<trkpt lat="53.206954" lon="-1.724413"><ele>334</ele><time>2020-01-31T13:53:31Z</time><name>PT11368</name></trkpt>
<trkpt lat="53.206956" lon="-1.724403"><ele>333</ele><time>2020-01-31T13:53:33Z</time><name>PT11369</name></trkpt>
<trkpt lat="53.206957" lon="-1.724387"><ele>334</ele><time>2020-01-31T13:53:33Z</time><name>PT11370</name></trkpt>
<trkpt lat="53.206956" lon="-1.724373"><ele>334</ele><time>2020-01-31T13:53:34Z</time><name>PT11371</name></trkpt>
<trkpt lat="53.206955" lon="-1.724359"><ele>334</ele><time>2020-01-31T13:53:36Z</time><name>PT11372</name></trkpt>
<trkpt lat="53.206954" lon="-1.724346"><ele>333</ele><time>2020-01-31T13:53:36Z</time><name>PT11373</name></trkpt>
<trkpt lat="53.206951" lon="-1.724325"><ele>333</ele><time>2020-01-31T13:53:37Z</time><name>PT11374</name></trkpt>
<trkpt lat="53.206949" lon="-1.724304"><ele>334</ele><time>2020-01-31T13:53:39Z</time><name>PT11375</name></trkpt>
<trkpt lat="53.206948" lon="-1.724289"><ele>334</ele><time>2020-01-31T13:53:39Z</time><name>PT11376</name></trkpt>
<trkpt lat="53.206943" lon="-1.724264"><ele>334</ele><time>2020-01-31T13:53:40Z</time><name>PT11377</name></trkpt>
<trkpt lat="53.206942" lon="-1.724244"><ele>334</ele><time>2020-01-31T13:53:42Z</time><name>PT11378</name></trkpt>
<trkpt lat="53.206941" lon="-1.724225"><ele>334</ele><time>2020-01-31T13:53:42Z</time><name>PT11379</name></trkpt>
<trkpt lat="53.206939" lon="-1.724204"><ele>334</ele><time>2020-01-31T13:53:43Z</time><name>PT11380</name></trkpt>
<trkpt lat="53.206936" lon="-1.724182"><ele>334</ele><time>2020-01-31T13:53:45Z</time><name>PT11381</name></trkpt>
<trkpt lat="53.206932" lon="-1.724160"><ele>334</ele><time>2020-01-31T13:53:45Z</time><name>PT11382</name></trkpt>
<trkpt lat="53.206928" lon="-1.724130"><ele>333</ele><time>2020-01-31T13:53:46Z</time><name>PT11383</name></trkpt>
<trkpt lat="53.206926" lon="-1.724101"><ele>334</ele><time>2020-01-31T13:53:48Z</time><name>PT11384</name></trkpt>
<trkpt lat="53.206924" lon="-1.724074"><ele>334</ele><time>2020-01-31T13:53:48Z</time><name>PT11385</name></trkpt>
<trkpt lat="53.206920" lon="-1.724055"><ele>333</ele><time>2020-01-31T13:53:49Z</time><name>PT11386</name></trkpt>
<trkpt lat="53.206919" lon="-1.724035"><ele>332</ele><time>2020-01-31T13:53:51Z</time><name>PT11387</name></trkpt>
<trkpt lat="53.206923" lon="-1.723967"><ele>332</ele><time>2020-01-31T13:53:51Z</time><name>PT11388</name></trkpt>
<trkpt lat="53.206921" lon="-1.723903"><ele>332</ele><time>2020-01-31T13:53:52Z</time><name>PT11389</name></trkpt>
<trkpt lat="53.206912" lon="-1.723854"><ele>333</ele><time>2020-01-31T13:53:54Z</time><name>PT11390</name></trkpt>
<trkpt lat="53.206908" lon="-1.723823"><ele>332</ele><time>2020-01-31T13:53:54Z</time><name>PT11391</name></trkpt>
<trkpt lat="53.206903" lon="-1.723797"><ele>332</ele><time>2020-01-31T13:53:55Z</time><name>PT11392</name></trkpt>
<trkpt lat="53.206897" lon="-1.723771"><ele>332</ele><time>2020-01-31T13:53:57Z</time><name>PT11393</name></trkpt>
<trkpt lat="53.206895" lon="-1.723745"><ele>332</ele><time>2020-01-31T13:53:57Z</time><name>PT11394</name></trkpt>
<trkpt lat="53.206893" lon="-1.723718"><ele>332</ele><time>2020-01-31T13:53:58Z</time><name>PT11395</name></trkpt>
<trkpt lat="53.206892" lon="-1.723691"><ele>332</ele><time>2020-01-31T13:54:00Z</time><name>PT11396</name></trkpt>
<trkpt lat="53.206893" lon="-1.723668"><ele>332</ele><time>2020-01-31T13:54:00Z</time><name>PT11397</name></trkpt>
<trkpt lat="53.206891" lon="-1.723644"><ele>333</ele><time>2020-01-31T13:54:01Z</time><name>PT11398</name></trkpt>
<trkpt lat="53.206890" lon="-1.723621"><ele>333</ele><time>2020-01-31T13:54:03Z</time><name>PT11399</name></trkpt>
<trkpt lat="53.206889" lon="-1.723600"><ele>333</ele><time>2020-01-31T13:54:03Z</time><name>PT11400</name></trkpt>
<trkpt lat="53.206889" lon="-1.723578"><ele>333</ele><time>2020-01-31T13:54:04Z</time><name>PT11401</name></trkpt>
<trkpt lat="53.206889" lon="-1.723557"><ele>333</ele><time>2020-01-31T13:54:06Z</time><name>PT11402</name></trkpt>
<trkpt lat="53.206889" lon="-1.723539"><ele>333</ele><time>2020-01-31T13:54:06Z</time><name>PT11403</name></trkpt>
<trkpt lat="53.206892" lon="-1.723523"><ele>333</ele><time>2020-01-31T13:54:07Z</time><name>PT11404</name></trkpt>
<trkpt lat="53.206899" lon="-1.723506"><ele>333</ele><time>2020-01-31T13:54:09Z</time><name>PT11405</name></trkpt>
<trkpt lat="53.206903" lon="-1.723491"><ele>332</ele><time>2020-01-31T13:54:09Z</time><name>PT11406</name></trkpt>
<trkpt lat="53.206905" lon="-1.723476"><ele>332</ele><time>2020-01-31T13:54:10Z</time><name>PT11407</name></trkpt>
<trkpt lat="53.206902" lon="-1.723459"><ele>333</ele><time>2020-01-31T13:54:12Z</time><name>PT11408</name></trkpt>
<trkpt lat="53.206905" lon="-1.723446"><ele>333</ele><time>2020-01-31T13:54:12Z</time><name>PT11409</name></trkpt>
<trkpt lat="53.206906" lon="-1.723430"><ele>333</ele><time>2020-01-31T13:54:13Z</time><name>PT11410</name></trkpt>
<trkpt lat="53.206906" lon="-1.723413"><ele>333</ele><time>2020-01-31T13:54:15Z</time><name>PT11411</name></trkpt>
<trkpt lat="53.206905" lon="-1.723395"><ele>333</ele><time>2020-01-31T13:54:15Z</time><name>PT11412</name></trkpt>
<trkpt lat="53.206904" lon="-1.723376"><ele>333</ele><time>2020-01-31T13:54:16Z</time><name>PT11413</name></trkpt>
<trkpt lat="53.206902" lon="-1.723362"><ele>333</ele><time>2020-01-31T13:54:18Z</time><name>PT11414</name></trkpt>
<trkpt lat="53.206899" lon="-1.723344"><ele>332</ele><time>2020-01-31T13:54:18Z</time><name>PT11415</name></trkpt>
<trkpt lat="53.206896" lon="-1.723321"><ele>333</ele><time>2020-01-31T13:54:19Z</time><name>PT11416</name></trkpt>
<trkpt lat="53.206897" lon="-1.723310"><ele>333</ele><time>2020-01-31T13:54:21Z</time><name>PT11417</name></trkpt>
<trkpt lat="53.206895" lon="-1.723300"><ele>332</ele><time>2020-01-31T13:54:21Z</time><name>PT11418</name></trkpt>
<trkpt lat="53.206892" lon="-1.723287"><ele>333</ele><time>2020-01-31T13:54:22Z</time><name>PT11419</name></trkpt>
<trkpt lat="53.206889" lon="-1.723272"><ele>333</ele><time>2020-01-31T13:54:24Z</time><name>PT11420</name></trkpt>
<trkpt lat="53.206887" lon="-1.723258"><ele>333</ele><time>2020-01-31T13:54:24Z</time><name>PT11421</name></trkpt>
<trkpt lat="53.206888" lon="-1.723246"><ele>333</ele><time>2020-01-31T13:54:25Z</time><name>PT11422</name></trkpt>
<trkpt lat="53.206888" lon="-1.723234"><ele>333</ele><time>2020-01-31T13:54:27Z</time><name>PT11423</name></trkpt>
<trkpt lat="53.206886" lon="-1.723219"><ele>333</ele><time>2020-01-31T13:54:27Z</time><name>PT11424</name></trkpt>
<trkpt lat="53.206882" lon="-1.723201"><ele>332</ele><time>2020-01-31T13:54:28Z</time><name>PT11425</name></trkpt>
<trkpt lat="53.206883" lon="-1.723186"><ele>332</ele><time>2020-01-31T13:54:30Z</time><name>PT11426</name></trkpt>
<trkpt lat="53.206883" lon="-1.723173"><ele>332</ele><time>2020-01-31T13:54:30Z</time><name>PT11427</name></trkpt>
<trkpt lat="53.206885" lon="-1.723161"><ele>332</ele><time>2020-01-31T13:54:31Z</time><name>PT11428</name></trkpt>
<trkpt lat="53.206885" lon="-1.723150"><ele>331</ele><time>2020-01-31T13:54:33Z</time><name>PT11429</name></trkpt>
<trkpt lat="53.206883" lon="-1.723144"><ele>331</ele><time>2020-01-31T13:54:33Z</time><name>PT11430</name></trkpt>
<trkpt lat="53.206881" lon="-1.723139"><ele>331</ele><time>2020-01-31T13:54:34Z</time><name>PT11431</name></trkpt>
<trkpt lat="53.206880" lon="-1.723132"><ele>331</ele><time>2020-01-31T13:54:36Z</time><name>PT11432</name></trkpt>
<trkpt lat="53.206881" lon="-1.723127"><ele>332</ele><time>2020-01-31T13:54:36Z</time><name>PT11433</name></trkpt>
<trkpt lat="53.206881" lon="-1.723118"><ele>332</ele><time>2020-01-31T13:54:37Z</time><name>PT11434</name></trkpt>
<trkpt lat="53.206882" lon="-1.723111"><ele>332</ele><time>2020-01-31T13:54:39Z</time><name>PT11435</name></trkpt>
<trkpt lat="53.206881" lon="-1.723107"><ele>332</ele><time>2020-01-31T13:54:39Z</time><name>PT11436</name></trkpt>
<trkpt lat="53.206881" lon="-1.723099"><ele>332</ele><time>2020-01-31T13:54:40Z</time><name>PT11437</name></trkpt>
<trkpt lat="53.206882" lon="-1.723094"><ele>332</ele><time>2020-01-31T13:54:42Z</time><name>PT11438</name></trkpt>
<trkpt lat="53.206882" lon="-1.723090"><ele>332</ele><time>2020-01-31T13:54:42Z</time><name>PT11439</name></trkpt>
<trkpt lat="53.206880" lon="-1.723081"><ele>332</ele><time>2020-01-31T13:54:43Z</time><name>PT11440</name></trkpt>
<trkpt lat="53.206881" lon="-1.723075"><ele>332</ele><time>2020-01-31T13:54:45Z</time><name>PT11441</name></trkpt>
<trkpt lat="53.206880" lon="-1.723070"><ele>332</ele><time>2020-01-31T13:54:45Z</time><name>PT11442</name></trkpt>
<trkpt lat="53.206879" lon="-1.723067"><ele>331</ele><time>2020-01-31T13:54:46Z</time><name>PT11443</name></trkpt>
<trkpt lat="53.206875" lon="-1.723057"><ele>332</ele><time>2020-01-31T13:54:48Z</time><name>PT11444</name></trkpt>
<trkpt lat="53.206867" lon="-1.723048"><ele>332</ele><time>2020-01-31T13:54:48Z</time><name>PT11445</name></trkpt>
<trkpt lat="53.206862" lon="-1.723043"><ele>332</ele><time>2020-01-31T13:54:49Z</time><name>PT11446</name></trkpt>
<trkpt lat="53.206861" lon="-1.723046"><ele>332</ele><time>2020-01-31T13:54:51Z</time><name>PT11447</name></trkpt>
<trkpt lat="53.206855" lon="-1.723041"><ele>332</ele><time>2020-01-31T13:54:51Z</time><name>PT11448</name></trkpt>
<trkpt lat="53.206852" lon="-1.723039"><ele>332</ele><time>2020-01-31T13:54:52Z</time><name>PT11449</name></trkpt>
<trkpt lat="53.206850" lon="-1.723032"><ele>332</ele><time>2020-01-31T13:54:54Z</time><name>PT11450</name></trkpt>
<trkpt lat="53.206851" lon="-1.723030"><ele>332</ele><time>2020-01-31T13:54:54Z</time><name>PT11451</name></trkpt>
<trkpt lat="53.206850" lon="-1.723027"><ele>332</ele><time>2020-01-31T13:54:55Z</time><name>PT11452</name></trkpt>
<trkpt lat="53.206844" lon="-1.723022"><ele>331</ele><time>2020-01-31T13:54:57Z</time><name>PT11453</name></trkpt>
<trkpt lat="53.206835" lon="-1.723012"><ele>331</ele><time>2020-01-31T13:54:57Z</time><name>PT11454</name></trkpt>
<trkpt lat="53.206826" lon="-1.723000"><ele>331</ele><time>2020-01-31T13:54:58Z</time><name>PT11455</name></trkpt>
<trkpt lat="53.206816" lon="-1.722990"><ele>331</ele><time>2020-01-31T13:55:00Z</time><name>PT11456</name></trkpt>
<trkpt lat="53.206813" lon="-1.722990"><ele>331</ele><time>2020-01-31T13:55:00Z</time><name>PT11457</name></trkpt>
<trkpt lat="53.206809" lon="-1.722978"><ele>331</ele><time>2020-01-31T13:55:01Z</time><name>PT11458</name></trkpt>
<trkpt lat="53.206803" lon="-1.722968"><ele>332</ele><time>2020-01-31T13:55:03Z</time><name>PT11459</name></trkpt>
<trkpt lat="53.206796" lon="-1.722959"><ele>331</ele><time>2020-01-31T13:55:03Z</time><name>PT11460</name></trkpt>
<trkpt lat="53.206785" lon="-1.722948"><ele>332</ele><time>2020-01-31T13:55:04Z</time><name>PT11461</name></trkpt>
<trkpt lat="53.206774" lon="-1.722932"><ele>332</ele><time>2020-01-31T13:55:06Z</time><name>PT11462</name></trkpt>
<trkpt lat="53.206766" lon="-1.722923"><ele>332</ele><time>2020-01-31T13:55:06Z</time><name>PT11463</name></trkpt>
<trkpt lat="53.206756" lon="-1.722914"><ele>333</ele><time>2020-01-31T13:55:07Z</time><name>PT11464</name></trkpt>
<trkpt lat="53.206745" lon="-1.722902"><ele>333</ele><time>2020-01-31T13:55:09Z</time><name>PT11465</name></trkpt>
<trkpt lat="53.206735" lon="-1.722883"><ele>333</ele><time>2020-01-31T13:55:09Z</time><name>PT11466</name></trkpt>
<trkpt lat="53.206725" lon="-1.722874"><ele>333</ele><time>2020-01-31T13:55:10Z</time><name>PT11467</name></trkpt>
<trkpt lat="53.206720" lon="-1.722865"><ele>332</ele><time>2020-01-31T13:55:12Z</time><name>PT11468</name></trkpt>
<trkpt lat="53.206713" lon="-1.722851"><ele>332</ele><time>2020-01-31T13:55:12Z</time><name>PT11469</name></trkpt>
<trkpt lat="53.206702" lon="-1.722838"><ele>332</ele><time>2020-01-31T13:55:13Z</time><name>PT11470</name></trkpt>
<trkpt lat="53.206692" lon="-1.722824"><ele>332</ele><time>2020-01-31T13:55:15Z</time><name>PT11471</name></trkpt>
<trkpt lat="53.206680" lon="-1.722809"><ele>332</ele><time>2020-01-31T13:55:15Z</time><name>PT11472</name></trkpt>
<trkpt lat="53.206669" lon="-1.722796"><ele>333</ele><time>2020-01-31T13:55:16Z</time><name>PT11473</name></trkpt>
<trkpt lat="53.206658" lon="-1.722773"><ele>333</ele><time>2020-01-31T13:55:18Z</time><name>PT11474</name></trkpt>
<trkpt lat="53.206648" lon="-1.722757"><ele>332</ele><time>2020-01-31T13:55:18Z</time><name>PT11475</name></trkpt>
<trkpt lat="53.206637" lon="-1.722742"><ele>332</ele><time>2020-01-31T13:55:19Z</time><name>PT11476</name></trkpt>
<trkpt lat="53.206625" lon="-1.722733"><ele>333</ele><time>2020-01-31T13:55:21Z</time><name>PT11477</name></trkpt>
<trkpt lat="53.206617" lon="-1.722722"><ele>332</ele><time>2020-01-31T13:55:21Z</time><name>PT11478</name></trkpt>
<trkpt lat="53.206607" lon="-1.722707"><ele>332</ele><time>2020-01-31T13:55:22Z</time><name>PT11479</name></trkpt>
<trkpt lat="53.206600" lon="-1.722693"><ele>332</ele><time>2020-01-31T13:55:24Z</time><name>PT11480</name></trkpt>
<trkpt lat="53.206593" lon="-1.722674"><ele>332</ele><time>2020-01-31T13:55:24Z</time><name>PT11481</name></trkpt>
<trkpt lat="53.206583" lon="-1.722654"><ele>332</ele><time>2020-01-31T13:55:25Z</time><name>PT11482</name></trkpt>
<trkpt lat="53.206575" lon="-1.722642"><ele>331</ele><time>2020-01-31T13:55:27Z</time><name>PT11483</name></trkpt>
<trkpt lat="53.206569" lon="-1.722627"><ele>331</ele><time>2020-01-31T13:55:27Z</time><name>PT11484</name></trkpt>
<trkpt lat="53.206564" lon="-1.722615"><ele>330</ele><time>2020-01-31T13:55:28Z</time><name>PT11485</name></trkpt>
<trkpt lat="53.206556" lon="-1.722600"><ele>330</ele><time>2020-01-31T13:55:30Z</time><name>PT11486</name></trkpt>
<trkpt lat="53.206552" lon="-1.722588"><ele>331</ele><time>2020-01-31T13:55:30Z</time><name>PT11487</name></trkpt>
<trkpt lat="53.206549" lon="-1.722578"><ele>330</ele><time>2020-01-31T13:55:31Z</time><name>PT11488</name></trkpt>
<trkpt lat="53.206539" lon="-1.722563"><ele>331</ele><time>2020-01-31T13:55:33Z</time><name>PT11489</name></trkpt>
<trkpt lat="53.206533" lon="-1.722550"><ele>331</ele><time>2020-01-31T13:55:33Z</time><name>PT11490</name></trkpt>
<trkpt lat="53.206528" lon="-1.722541"><ele>331</ele><time>2020-01-31T13:55:34Z</time><name>PT11491</name></trkpt>
<trkpt lat="53.206522" lon="-1.722535"><ele>330</ele><time>2020-01-31T13:55:36Z</time><name>PT11492</name></trkpt>
<trkpt lat="53.206514" lon="-1.722529"><ele>331</ele><time>2020-01-31T13:55:36Z</time><name>PT11493</name></trkpt>
<trkpt lat="53.206506" lon="-1.722523"><ele>331</ele><time>2020-01-31T13:55:37Z</time><name>PT11494</name></trkpt>
<trkpt lat="53.206502" lon="-1.722522"><ele>330</ele><time>2020-01-31T13:55:39Z</time><name>PT11495</name></trkpt>
<trkpt lat="53.206496" lon="-1.722522"><ele>330</ele><time>2020-01-31T13:55:39Z</time><name>PT11496</name></trkpt>
<trkpt lat="53.206489" lon="-1.722521"><ele>330</ele><time>2020-01-31T13:55:40Z</time><name>PT11497</name></trkpt>
<trkpt lat="53.206490" lon="-1.722517"><ele>330</ele><time>2020-01-31T13:55:45Z</time><name>PT11498</name></trkpt>
<trkpt lat="53.206476" lon="-1.722499"><ele>331</ele><time>2020-01-31T13:55:45Z</time><name>PT11499</name></trkpt>
<trkpt lat="53.206467" lon="-1.722490"><ele>331</ele><time>2020-01-31T13:55:47Z</time><name>PT11500</name></trkpt>
<trkpt lat="53.206457" lon="-1.722481"><ele>331</ele><time>2020-01-31T13:55:48Z</time><name>PT11501</name></trkpt>
<trkpt lat="53.206451" lon="-1.722480"><ele>331</ele><time>2020-01-31T13:55:48Z</time><name>PT11502</name></trkpt>
<trkpt lat="53.206441" lon="-1.722476"><ele>330</ele><time>2020-01-31T13:55:49Z</time><name>PT11503</name></trkpt>
<trkpt lat="53.206433" lon="-1.722465"><ele>331</ele><time>2020-01-31T13:55:51Z</time><name>PT11504</name></trkpt>
<trkpt lat="53.206426" lon="-1.722455"><ele>330</ele><time>2020-01-31T13:55:51Z</time><name>PT11505</name></trkpt>
<trkpt lat="53.206419" lon="-1.722439"><ele>331</ele><time>2020-01-31T13:55:52Z</time><name>PT11506</name></trkpt>
<trkpt lat="53.206414" lon="-1.722425"><ele>331</ele><time>2020-01-31T13:55:54Z</time><name>PT11507</name></trkpt>
<trkpt lat="53.206410" lon="-1.722414"><ele>330</ele><time>2020-01-31T13:55:54Z</time><name>PT11508</name></trkpt>
<trkpt lat="53.206405" lon="-1.722406"><ele>330</ele><time>2020-01-31T13:55:55Z</time><name>PT11509</name></trkpt>
<trkpt lat="53.206402" lon="-1.722396"><ele>330</ele><time>2020-01-31T13:55:57Z</time><name>PT11510</name></trkpt>
<trkpt lat="53.206399" lon="-1.722381"><ele>329</ele><time>2020-01-31T13:55:57Z</time><name>PT11511</name></trkpt>
<trkpt lat="53.206396" lon="-1.722367"><ele>329</ele><time>2020-01-31T13:55:58Z</time><name>PT11512</name></trkpt>
<trkpt lat="53.206390" lon="-1.722352"><ele>328</ele><time>2020-01-31T13:56:00Z</time><name>PT11513</name></trkpt>
<trkpt lat="53.206383" lon="-1.722335"><ele>328</ele><time>2020-01-31T13:56:00Z</time><name>PT11514</name></trkpt>
<trkpt lat="53.206374" lon="-1.722318"><ele>328</ele><time>2020-01-31T13:56:01Z</time><name>PT11515</name></trkpt>
<trkpt lat="53.206364" lon="-1.722297"><ele>329</ele><time>2020-01-31T13:56:03Z</time><name>PT11516</name></trkpt>
<trkpt lat="53.206354" lon="-1.722278"><ele>329</ele><time>2020-01-31T13:56:03Z</time><name>PT11517</name></trkpt>
<trkpt lat="53.206347" lon="-1.722260"><ele>329</ele><time>2020-01-31T13:56:04Z</time><name>PT11518</name></trkpt>
<trkpt lat="53.206338" lon="-1.722244"><ele>329</ele><time>2020-01-31T13:56:06Z</time><name>PT11519</name></trkpt>
<trkpt lat="53.206328" lon="-1.722226"><ele>329</ele><time>2020-01-31T13:56:06Z</time><name>PT11520</name></trkpt>
<trkpt lat="53.206320" lon="-1.722208"><ele>329</ele><time>2020-01-31T13:56:07Z</time><name>PT11521</name></trkpt>
<trkpt lat="53.206316" lon="-1.722193"><ele>329</ele><time>2020-01-31T13:56:09Z</time><name>PT11522</name></trkpt>
<trkpt lat="53.206309" lon="-1.722173"><ele>329</ele><time>2020-01-31T13:56:09Z</time><name>PT11523</name></trkpt>
<trkpt lat="53.206303" lon="-1.722155"><ele>329</ele><time>2020-01-31T13:56:10Z</time><name>PT11524</name></trkpt>
<trkpt lat="53.206295" lon="-1.722138"><ele>329</ele><time>2020-01-31T13:56:12Z</time><name>PT11525</name></trkpt>
<trkpt lat="53.206285" lon="-1.722118"><ele>329</ele><time>2020-01-31T13:56:12Z</time><name>PT11526</name></trkpt>
<trkpt lat="53.206277" lon="-1.722101"><ele>329</ele><time>2020-01-31T13:56:13Z</time><name>PT11527</name></trkpt>
<trkpt lat="53.206271" lon="-1.722083"><ele>329</ele><time>2020-01-31T13:56:15Z</time><name>PT11528</name></trkpt>
<trkpt lat="53.206263" lon="-1.722061"><ele>329</ele><time>2020-01-31T13:56:15Z</time><name>PT11529</name></trkpt>
<trkpt lat="53.206254" lon="-1.722041"><ele>329</ele><time>2020-01-31T13:56:16Z</time><name>PT11530</name></trkpt>
<trkpt lat="53.206245" lon="-1.722028"><ele>329</ele><time>2020-01-31T13:56:18Z</time><name>PT11531</name></trkpt>
<trkpt lat="53.206236" lon="-1.722011"><ele>329</ele><time>2020-01-31T13:56:18Z</time><name>PT11532</name></trkpt>
<trkpt lat="53.206228" lon="-1.721989"><ele>329</ele><time>2020-01-31T13:56:19Z</time><name>PT11533</name></trkpt>
<trkpt lat="53.206220" lon="-1.721969"><ele>329</ele><time>2020-01-31T13:56:21Z</time><name>PT11534</name></trkpt>
<trkpt lat="53.206212" lon="-1.721946"><ele>329</ele><time>2020-01-31T13:56:21Z</time><name>PT11535</name></trkpt>
<trkpt lat="53.206204" lon="-1.721925"><ele>330</ele><time>2020-01-31T13:56:22Z</time><name>PT11536</name></trkpt>
<trkpt lat="53.206199" lon="-1.721909"><ele>330</ele><time>2020-01-31T13:56:24Z</time><name>PT11537</name></trkpt>
<trkpt lat="53.206191" lon="-1.721893"><ele>330</ele><time>2020-01-31T13:56:24Z</time><name>PT11538</name></trkpt>
<trkpt lat="53.206183" lon="-1.721875"><ele>330</ele><time>2020-01-31T13:56:25Z</time><name>PT11539</name></trkpt>
<trkpt lat="53.206176" lon="-1.721857"><ele>330</ele><time>2020-01-31T13:56:27Z</time><name>PT11540</name></trkpt>
<trkpt lat="53.206171" lon="-1.721840"><ele>330</ele><time>2020-01-31T13:56:27Z</time><name>PT11541</name></trkpt>
<trkpt lat="53.206165" lon="-1.721821"><ele>331</ele><time>2020-01-31T13:56:28Z</time><name>PT11542</name></trkpt>
<trkpt lat="53.206157" lon="-1.721803"><ele>331</ele><time>2020-01-31T13:56:30Z</time><name>PT11543</name></trkpt>
<trkpt lat="53.206148" lon="-1.721787"><ele>331</ele><time>2020-01-31T13:56:30Z</time><name>PT11544</name></trkpt>
<trkpt lat="53.206140" lon="-1.721771"><ele>331</ele><time>2020-01-31T13:56:31Z</time><name>PT11545</name></trkpt>
<trkpt lat="53.206133" lon="-1.721753"><ele>330</ele><time>2020-01-31T13:56:33Z</time><name>PT11546</name></trkpt>
<trkpt lat="53.206127" lon="-1.721735"><ele>330</ele><time>2020-01-31T13:56:33Z</time><name>PT11547</name></trkpt>
<trkpt lat="53.206119" lon="-1.721715"><ele>331</ele><time>2020-01-31T13:56:34Z</time><name>PT11548</name></trkpt>
<trkpt lat="53.206112" lon="-1.721693"><ele>331</ele><time>2020-01-31T13:56:36Z</time><name>PT11549</name></trkpt>
<trkpt lat="53.206105" lon="-1.721676"><ele>331</ele><time>2020-01-31T13:56:36Z</time><name>PT11550</name></trkpt>
<trkpt lat="53.206096" lon="-1.721658"><ele>332</ele><time>2020-01-31T13:56:37Z</time><name>PT11551</name></trkpt>
<trkpt lat="53.206088" lon="-1.721640"><ele>332</ele><time>2020-01-31T13:56:39Z</time><name>PT11552</name></trkpt>
<trkpt lat="53.206080" lon="-1.721623"><ele>332</ele><time>2020-01-31T13:56:39Z</time><name>PT11553</name></trkpt>
<trkpt lat="53.206072" lon="-1.721601"><ele>332</ele><time>2020-01-31T13:56:40Z</time><name>PT11554</name></trkpt>
<trkpt lat="53.206066" lon="-1.721581"><ele>332</ele><time>2020-01-31T13:56:42Z</time><name>PT11555</name></trkpt>
<trkpt lat="53.206059" lon="-1.721560"><ele>333</ele><time>2020-01-31T13:56:42Z</time><name>PT11556</name></trkpt>
<trkpt lat="53.206050" lon="-1.721546"><ele>333</ele><time>2020-01-31T13:56:43Z</time><name>PT11557</name></trkpt>
<trkpt lat="53.206042" lon="-1.721532"><ele>333</ele><time>2020-01-31T13:56:45Z</time><name>PT11558</name></trkpt>
<trkpt lat="53.206035" lon="-1.721516"><ele>333</ele><time>2020-01-31T13:56:45Z</time><name>PT11559</name></trkpt>
<trkpt lat="53.206030" lon="-1.721499"><ele>333</ele><time>2020-01-31T13:56:46Z</time><name>PT11560</name></trkpt>
<trkpt lat="53.206023" lon="-1.721480"><ele>333</ele><time>2020-01-31T13:56:48Z</time><name>PT11561</name></trkpt>
<trkpt lat="53.206014" lon="-1.721457"><ele>334</ele><time>2020-01-31T13:56:48Z</time><name>PT11562</name></trkpt>
<trkpt lat="53.206006" lon="-1.721438"><ele>334</ele><time>2020-01-31T13:56:49Z</time><name>PT11563</name></trkpt>
<trkpt lat="53.205999" lon="-1.721421"><ele>334</ele><time>2020-01-31T13:56:51Z</time><name>PT11564</name></trkpt>
<trkpt lat="53.205990" lon="-1.721402"><ele>334</ele><time>2020-01-31T13:56:51Z</time><name>PT11565</name></trkpt>
<trkpt lat="53.205981" lon="-1.721384"><ele>334</ele><time>2020-01-31T13:56:52Z</time><name>PT11566</name></trkpt>
<trkpt lat="53.205974" lon="-1.721367"><ele>334</ele><time>2020-01-31T13:56:54Z</time><name>PT11567</name></trkpt>
<trkpt lat="53.205968" lon="-1.721348"><ele>334</ele><time>2020-01-31T13:56:54Z</time><name>PT11568</name></trkpt>
<trkpt lat="53.205961" lon="-1.721330"><ele>334</ele><time>2020-01-31T13:56:55Z</time><name>PT11569</name></trkpt>
<trkpt lat="53.205954" lon="-1.721309"><ele>334</ele><time>2020-01-31T13:56:57Z</time><name>PT11570</name></trkpt>
<trkpt lat="53.205948" lon="-1.721291"><ele>334</ele><time>2020-01-31T13:56:57Z</time><name>PT11571</name></trkpt>
<trkpt lat="53.205940" lon="-1.721273"><ele>334</ele><time>2020-01-31T13:56:58Z</time><name>PT11572</name></trkpt>
<trkpt lat="53.205932" lon="-1.721254"><ele>334</ele><time>2020-01-31T13:57:00Z</time><name>PT11573</name></trkpt>
<trkpt lat="53.205925" lon="-1.721236"><ele>334</ele><time>2020-01-31T13:57:00Z</time><name>PT11574</name></trkpt>
<trkpt lat="53.205918" lon="-1.721218"><ele>334</ele><time>2020-01-31T13:57:01Z</time><name>PT11575</name></trkpt>
<trkpt lat="53.205911" lon="-1.721199"><ele>334</ele><time>2020-01-31T13:57:03Z</time><name>PT11576</name></trkpt>
<trkpt lat="53.205903" lon="-1.721178"><ele>334</ele><time>2020-01-31T13:57:03Z</time><name>PT11577</name></trkpt>
<trkpt lat="53.205896" lon="-1.721157"><ele>334</ele><time>2020-01-31T13:57:04Z</time><name>PT11578</name></trkpt>
<trkpt lat="53.205888" lon="-1.721138"><ele>334</ele><time>2020-01-31T13:57:06Z</time><name>PT11579</name></trkpt>
<trkpt lat="53.205882" lon="-1.721123"><ele>334</ele><time>2020-01-31T13:57:06Z</time><name>PT11580</name></trkpt>
<trkpt lat="53.205874" lon="-1.721103"><ele>334</ele><time>2020-01-31T13:57:07Z</time><name>PT11581</name></trkpt>
<trkpt lat="53.205865" lon="-1.721084"><ele>335</ele><time>2020-01-31T13:57:09Z</time><name>PT11582</name></trkpt>
<trkpt lat="53.205858" lon="-1.721066"><ele>335</ele><time>2020-01-31T13:57:09Z</time><name>PT11583</name></trkpt>
<trkpt lat="53.205851" lon="-1.721049"><ele>335</ele><time>2020-01-31T13:57:10Z</time><name>PT11584</name></trkpt>
<trkpt lat="53.205842" lon="-1.721029"><ele>335</ele><time>2020-01-31T13:57:12Z</time><name>PT11585</name></trkpt>
<trkpt lat="53.205835" lon="-1.721010"><ele>335</ele><time>2020-01-31T13:57:12Z</time><name>PT11586</name></trkpt>
<trkpt lat="53.205828" lon="-1.720996"><ele>335</ele><time>2020-01-31T13:57:13Z</time><name>PT11587</name></trkpt>
<trkpt lat="53.205821" lon="-1.720979"><ele>335</ele><time>2020-01-31T13:57:15Z</time><name>PT11588</name></trkpt>
<trkpt lat="53.205813" lon="-1.720958"><ele>335</ele><time>2020-01-31T13:57:15Z</time><name>PT11589</name></trkpt>
<trkpt lat="53.205805" lon="-1.720941"><ele>335</ele><time>2020-01-31T13:57:16Z</time><name>PT11590</name></trkpt>
<trkpt lat="53.205797" lon="-1.720923"><ele>335</ele><time>2020-01-31T13:57:18Z</time><name>PT11591</name></trkpt>
<trkpt lat="53.205791" lon="-1.720900"><ele>335</ele><time>2020-01-31T13:57:18Z</time><name>PT11592</name></trkpt>
<trkpt lat="53.205785" lon="-1.720878"><ele>335</ele><time>2020-01-31T13:57:19Z</time><name>PT11593</name></trkpt>
<trkpt lat="53.205779" lon="-1.720862"><ele>335</ele><time>2020-01-31T13:57:21Z</time><name>PT11594</name></trkpt>
<trkpt lat="53.205772" lon="-1.720845"><ele>335</ele><time>2020-01-31T13:57:21Z</time><name>PT11595</name></trkpt>
<trkpt lat="53.205764" lon="-1.720828"><ele>335</ele><time>2020-01-31T13:57:22Z</time><name>PT11596</name></trkpt>
<trkpt lat="53.205756" lon="-1.720812"><ele>334</ele><time>2020-01-31T13:57:24Z</time><name>PT11597</name></trkpt>
<trkpt lat="53.205748" lon="-1.720795"><ele>334</ele><time>2020-01-31T13:57:24Z</time><name>PT11598</name></trkpt>
<trkpt lat="53.205740" lon="-1.720776"><ele>335</ele><time>2020-01-31T13:57:25Z</time><name>PT11599</name></trkpt>
<trkpt lat="53.205731" lon="-1.720759"><ele>335</ele><time>2020-01-31T13:57:27Z</time><name>PT11600</name></trkpt>
<trkpt lat="53.205724" lon="-1.720743"><ele>335</ele><time>2020-01-31T13:57:27Z</time><name>PT11601</name></trkpt>
<trkpt lat="53.205717" lon="-1.720726"><ele>335</ele><time>2020-01-31T13:57:28Z</time><name>PT11602</name></trkpt>
<trkpt lat="53.205710" lon="-1.720709"><ele>334</ele><time>2020-01-31T13:57:30Z</time><name>PT11603</name></trkpt>
<trkpt lat="53.205702" lon="-1.720688"><ele>335</ele><time>2020-01-31T13:57:30Z</time><name>PT11604</name></trkpt>
<trkpt lat="53.205695" lon="-1.720669"><ele>335</ele><time>2020-01-31T13:57:31Z</time><name>PT11605</name></trkpt>
<trkpt lat="53.205689" lon="-1.720650"><ele>335</ele><time>2020-01-31T13:57:33Z</time><name>PT11606</name></trkpt>
<trkpt lat="53.205682" lon="-1.720630"><ele>334</ele><time>2020-01-31T13:57:33Z</time><name>PT11607</name></trkpt>
<trkpt lat="53.205674" lon="-1.720612"><ele>335</ele><time>2020-01-31T13:57:34Z</time><name>PT11608</name></trkpt>
<trkpt lat="53.205669" lon="-1.720595"><ele>334</ele><time>2020-01-31T13:57:36Z</time><name>PT11609</name></trkpt>
<trkpt lat="53.205663" lon="-1.720577"><ele>334</ele><time>2020-01-31T13:57:36Z</time><name>PT11610</name></trkpt>
<trkpt lat="53.205653" lon="-1.720556"><ele>334</ele><time>2020-01-31T13:57:37Z</time><name>PT11611</name></trkpt>
<trkpt lat="53.205645" lon="-1.720538"><ele>334</ele><time>2020-01-31T13:57:39Z</time><name>PT11612</name></trkpt>
<trkpt lat="53.205638" lon="-1.720518"><ele>334</ele><time>2020-01-31T13:57:39Z</time><name>PT11613</name></trkpt>
<trkpt lat="53.205632" lon="-1.720497"><ele>334</ele><time>2020-01-31T13:57:40Z</time><name>PT11614</name></trkpt>
<trkpt lat="53.205627" lon="-1.720478"><ele>334</ele><time>2020-01-31T13:57:42Z</time><name>PT11615</name></trkpt>
<trkpt lat="53.205622" lon="-1.720460"><ele>335</ele><time>2020-01-31T13:57:42Z</time><name>PT11616</name></trkpt>
<trkpt lat="53.205615" lon="-1.720439"><ele>335</ele><time>2020-01-31T13:57:43Z</time><name>PT11617</name></trkpt>
<trkpt lat="53.205608" lon="-1.720420"><ele>335</ele><time>2020-01-31T13:57:45Z</time><name>PT11618</name></trkpt>
<trkpt lat="53.205602" lon="-1.720405"><ele>335</ele><time>2020-01-31T13:57:45Z</time><name>PT11619</name></trkpt>
<trkpt lat="53.205596" lon="-1.720385"><ele>335</ele><time>2020-01-31T13:57:46Z</time><name>PT11620</name></trkpt>
<trkpt lat="53.205590" lon="-1.720366"><ele>335</ele><time>2020-01-31T13:57:48Z</time><name>PT11621</name></trkpt>
<trkpt lat="53.205582" lon="-1.720349"><ele>335</ele><time>2020-01-31T13:57:48Z</time><name>PT11622</name></trkpt>
<trkpt lat="53.205574" lon="-1.720334"><ele>335</ele><time>2020-01-31T13:57:49Z</time><name>PT11623</name></trkpt>
<trkpt lat="53.205567" lon="-1.720318"><ele>335</ele><time>2020-01-31T13:57:51Z</time><name>PT11624</name></trkpt>
<trkpt lat="53.205560" lon="-1.720304"><ele>335</ele><time>2020-01-31T13:57:51Z</time><name>PT11625</name></trkpt>
<trkpt lat="53.205554" lon="-1.720288"><ele>335</ele><time>2020-01-31T13:57:52Z</time><name>PT11626</name></trkpt>
<trkpt lat="53.205551" lon="-1.720273"><ele>335</ele><time>2020-01-31T13:57:54Z</time><name>PT11627</name></trkpt>
<trkpt lat="53.205545" lon="-1.720253"><ele>335</ele><time>2020-01-31T13:57:54Z</time><name>PT11628</name></trkpt>
<trkpt lat="53.205538" lon="-1.720232"><ele>335</ele><time>2020-01-31T13:57:55Z</time><name>PT11629</name></trkpt>
<trkpt lat="53.205531" lon="-1.720215"><ele>335</ele><time>2020-01-31T13:57:57Z</time><name>PT11630</name></trkpt>
<trkpt lat="53.205525" lon="-1.720198"><ele>335</ele><time>2020-01-31T13:57:57Z</time><name>PT11631</name></trkpt>
<trkpt lat="53.205519" lon="-1.720180"><ele>335</ele><time>2020-01-31T13:57:58Z</time><name>PT11632</name></trkpt>
<trkpt lat="53.205516" lon="-1.720162"><ele>335</ele><time>2020-01-31T13:58:00Z</time><name>PT11633</name></trkpt>
<trkpt lat="53.205514" lon="-1.720143"><ele>334</ele><time>2020-01-31T13:58:00Z</time><name>PT11634</name></trkpt>
<trkpt lat="53.205511" lon="-1.720126"><ele>334</ele><time>2020-01-31T13:58:01Z</time><name>PT11635</name></trkpt>
<trkpt lat="53.205508" lon="-1.720112"><ele>334</ele><time>2020-01-31T13:58:03Z</time><name>PT11636</name></trkpt>
<trkpt lat="53.205503" lon="-1.720099"><ele>334</ele><time>2020-01-31T13:58:03Z</time><name>PT11637</name></trkpt>
<trkpt lat="53.205498" lon="-1.720085"><ele>334</ele><time>2020-01-31T13:58:04Z</time><name>PT11638</name></trkpt>
<trkpt lat="53.205491" lon="-1.720067"><ele>334</ele><time>2020-01-31T13:58:06Z</time><name>PT11639</name></trkpt>
<trkpt lat="53.205487" lon="-1.720054"><ele>334</ele><time>2020-01-31T13:58:06Z</time><name>PT11640</name></trkpt>
<trkpt lat="53.205485" lon="-1.720047"><ele>333</ele><time>2020-01-31T13:58:07Z</time><name>PT11641</name></trkpt>
<trkpt lat="53.205482" lon="-1.720041"><ele>333</ele><time>2020-01-31T13:58:09Z</time><name>PT11642</name></trkpt>
<trkpt lat="53.205482" lon="-1.720040"><ele>333</ele><time>2020-01-31T13:58:09Z</time><name>PT11643</name></trkpt>
<trkpt lat="53.205483" lon="-1.720035"><ele>333</ele><time>2020-01-31T13:58:10Z</time><name>PT11644</name></trkpt>
<trkpt lat="53.205482" lon="-1.720030"><ele>333</ele><time>2020-01-31T13:58:12Z</time><name>PT11645</name></trkpt>
<trkpt lat="53.205481" lon="-1.720028"><ele>333</ele><time>2020-01-31T13:58:12Z</time><name>PT11646</name></trkpt>
<trkpt lat="53.205480" lon="-1.720028"><ele>333</ele><time>2020-01-31T13:58:13Z</time><name>PT11647</name></trkpt>
<trkpt lat="53.205477" lon="-1.720027"><ele>333</ele><time>2020-01-31T13:58:15Z</time><name>PT11648</name></trkpt>
<trkpt lat="53.205470" lon="-1.720018"><ele>333</ele><time>2020-01-31T13:58:16Z</time><name>PT11649</name></trkpt>
<trkpt lat="53.205462" lon="-1.720010"><ele>334</ele><time>2020-01-31T13:58:18Z</time><name>PT11650</name></trkpt>
<trkpt lat="53.205460" lon="-1.720001"><ele>334</ele><time>2020-01-31T13:58:18Z</time><name>PT11651</name></trkpt>
<trkpt lat="53.205451" lon="-1.719987"><ele>333</ele><time>2020-01-31T13:58:19Z</time><name>PT11652</name></trkpt>
<trkpt lat="53.205442" lon="-1.719974"><ele>333</ele><time>2020-01-31T13:58:21Z</time><name>PT11653</name></trkpt>
<trkpt lat="53.205436" lon="-1.719959"><ele>333</ele><time>2020-01-31T13:58:21Z</time><name>PT11654</name></trkpt>
<trkpt lat="53.205431" lon="-1.719945"><ele>333</ele><time>2020-01-31T13:58:22Z</time><name>PT11655</name></trkpt>
<trkpt lat="53.205425" lon="-1.719932"><ele>333</ele><time>2020-01-31T13:58:24Z</time><name>PT11656</name></trkpt>
<trkpt lat="53.205417" lon="-1.719917"><ele>333</ele><time>2020-01-31T13:58:24Z</time><name>PT11657</name></trkpt>
<trkpt lat="53.205409" lon="-1.719897"><ele>333</ele><time>2020-01-31T13:58:25Z</time><name>PT11658</name></trkpt>
<trkpt lat="53.205402" lon="-1.719879"><ele>333</ele><time>2020-01-31T13:58:27Z</time><name>PT11659</name></trkpt>
<trkpt lat="53.205396" lon="-1.719859"><ele>333</ele><time>2020-01-31T13:58:27Z</time><name>PT11660</name></trkpt>
<trkpt lat="53.205391" lon="-1.719840"><ele>333</ele><time>2020-01-31T13:58:28Z</time><name>PT11661</name></trkpt>
<trkpt lat="53.205384" lon="-1.719824"><ele>334</ele><time>2020-01-31T13:58:30Z</time><name>PT11662</name></trkpt>
<trkpt lat="53.205378" lon="-1.719806"><ele>334</ele><time>2020-01-31T13:58:30Z</time><name>PT11663</name></trkpt>
<trkpt lat="53.205369" lon="-1.719788"><ele>334</ele><time>2020-01-31T13:58:31Z</time><name>PT11664</name></trkpt>
<trkpt lat="53.205362" lon="-1.719772"><ele>334</ele><time>2020-01-31T13:58:33Z</time><name>PT11665</name></trkpt>
<trkpt lat="53.205355" lon="-1.719756"><ele>334</ele><time>2020-01-31T13:58:33Z</time><name>PT11666</name></trkpt>
<trkpt lat="53.205349" lon="-1.719738"><ele>334</ele><time>2020-01-31T13:58:34Z</time><name>PT11667</name></trkpt>
<trkpt lat="53.205342" lon="-1.719719"><ele>334</ele><time>2020-01-31T13:58:36Z</time><name>PT11668</name></trkpt>
<trkpt lat="53.205336" lon="-1.719702"><ele>334</ele><time>2020-01-31T13:58:36Z</time><name>PT11669</name></trkpt>
<trkpt lat="53.205328" lon="-1.719683"><ele>334</ele><time>2020-01-31T13:58:37Z</time><name>PT11670</name></trkpt>
<trkpt lat="53.205321" lon="-1.719666"><ele>334</ele><time>2020-01-31T13:58:39Z</time><name>PT11671</name></trkpt>
<trkpt lat="53.205312" lon="-1.719647"><ele>334</ele><time>2020-01-31T13:58:39Z</time><name>PT11672</name></trkpt>
<trkpt lat="53.205304" lon="-1.719629"><ele>334</ele><time>2020-01-31T13:58:40Z</time><name>PT11673</name></trkpt>
<trkpt lat="53.205300" lon="-1.719610"><ele>334</ele><time>2020-01-31T13:58:42Z</time><name>PT11674</name></trkpt>
<trkpt lat="53.205292" lon="-1.719587"><ele>334</ele><time>2020-01-31T13:58:42Z</time><name>PT11675</name></trkpt>
<trkpt lat="53.205285" lon="-1.719564"><ele>334</ele><time>2020-01-31T13:58:43Z</time><name>PT11676</name></trkpt>
<trkpt lat="53.205280" lon="-1.719544"><ele>334</ele><time>2020-01-31T13:58:45Z</time><name>PT11677</name></trkpt>
<trkpt lat="53.205274" lon="-1.719524"><ele>334</ele><time>2020-01-31T13:58:45Z</time><name>PT11678</name></trkpt>
<trkpt lat="53.205268" lon="-1.719505"><ele>334</ele><time>2020-01-31T13:58:46Z</time><name>PT11679</name></trkpt>
<trkpt lat="53.205260" lon="-1.719485"><ele>334</ele><time>2020-01-31T13:58:48Z</time><name>PT11680</name></trkpt>
<trkpt lat="53.205252" lon="-1.719464"><ele>334</ele><time>2020-01-31T13:58:48Z</time><name>PT11681</name></trkpt>
<trkpt lat="53.205245" lon="-1.719443"><ele>335</ele><time>2020-01-31T13:58:49Z</time><name>PT11682</name></trkpt>
<trkpt lat="53.205240" lon="-1.719425"><ele>334</ele><time>2020-01-31T13:58:51Z</time><name>PT11683</name></trkpt>
<trkpt lat="53.205233" lon="-1.719404"><ele>334</ele><time>2020-01-31T13:58:51Z</time><name>PT11684</name></trkpt>
<trkpt lat="53.205222" lon="-1.719380"><ele>334</ele><time>2020-01-31T13:58:52Z</time><name>PT11685</name></trkpt>
<trkpt lat="53.205214" lon="-1.719363"><ele>334</ele><time>2020-01-31T13:58:54Z</time><name>PT11686</name></trkpt>
<trkpt lat="53.205208" lon="-1.719347"><ele>334</ele><time>2020-01-31T13:58:54Z</time><name>PT11687</name></trkpt>
<trkpt lat="53.205202" lon="-1.719331"><ele>334</ele><time>2020-01-31T13:58:55Z</time><name>PT11688</name></trkpt>
<trkpt lat="53.205195" lon="-1.719312"><ele>334</ele><time>2020-01-31T13:58:57Z</time><name>PT11689</name></trkpt>
<trkpt lat="53.205187" lon="-1.719296"><ele>334</ele><time>2020-01-31T13:58:57Z</time><name>PT11690</name></trkpt>
<trkpt lat="53.205178" lon="-1.719275"><ele>334</ele><time>2020-01-31T13:58:58Z</time><name>PT11691</name></trkpt>
<trkpt lat="53.205172" lon="-1.719257"><ele>334</ele><time>2020-01-31T13:59:00Z</time><name>PT11692</name></trkpt>
<trkpt lat="53.205165" lon="-1.719236"><ele>334</ele><time>2020-01-31T13:59:00Z</time><name>PT11693</name></trkpt>
<trkpt lat="53.205158" lon="-1.719219"><ele>334</ele><time>2020-01-31T13:59:01Z</time><name>PT11694</name></trkpt>
<trkpt lat="53.205152" lon="-1.719203"><ele>333</ele><time>2020-01-31T13:59:03Z</time><name>PT11695</name></trkpt>
<trkpt lat="53.205144" lon="-1.719184"><ele>334</ele><time>2020-01-31T13:59:03Z</time><name>PT11696</name></trkpt>
<trkpt lat="53.205138" lon="-1.719166"><ele>334</ele><time>2020-01-31T13:59:04Z</time><name>PT11697</name></trkpt>
<trkpt lat="53.205131" lon="-1.719149"><ele>334</ele><time>2020-01-31T13:59:06Z</time><name>PT11698</name></trkpt>
<trkpt lat="53.205124" lon="-1.719132"><ele>334</ele><time>2020-01-31T13:59:06Z</time><name>PT11699</name></trkpt>
<trkpt lat="53.205116" lon="-1.719115"><ele>334</ele><time>2020-01-31T13:59:07Z</time><name>PT11700</name></trkpt>
<trkpt lat="53.205109" lon="-1.719097"><ele>334</ele><time>2020-01-31T13:59:09Z</time><name>PT11701</name></trkpt>
<trkpt lat="53.205102" lon="-1.719076"><ele>333</ele><time>2020-01-31T13:59:09Z</time><name>PT11702</name></trkpt>
<trkpt lat="53.205095" lon="-1.719056"><ele>333</ele><time>2020-01-31T13:59:10Z</time><name>PT11703</name></trkpt>
<trkpt lat="53.205088" lon="-1.719032"><ele>333</ele><time>2020-01-31T13:59:12Z</time><name>PT11704</name></trkpt>
<trkpt lat="53.205079" lon="-1.719012"><ele>333</ele><time>2020-01-31T13:59:12Z</time><name>PT11705</name></trkpt>
<trkpt lat="53.205070" lon="-1.718992"><ele>333</ele><time>2020-01-31T13:59:13Z</time><name>PT11706</name></trkpt>
<trkpt lat="53.205062" lon="-1.718974"><ele>333</ele><time>2020-01-31T13:59:15Z</time><name>PT11707</name></trkpt>
<trkpt lat="53.205054" lon="-1.718955"><ele>333</ele><time>2020-01-31T13:59:15Z</time><name>PT11708</name></trkpt>
<trkpt lat="53.205045" lon="-1.718936"><ele>333</ele><time>2020-01-31T13:59:16Z</time><name>PT11709</name></trkpt>
<trkpt lat="53.205036" lon="-1.718919"><ele>333</ele><time>2020-01-31T13:59:18Z</time><name>PT11710</name></trkpt>
<trkpt lat="53.205028" lon="-1.718900"><ele>334</ele><time>2020-01-31T13:59:18Z</time><name>PT11711</name></trkpt>
<trkpt lat="53.205021" lon="-1.718882"><ele>333</ele><time>2020-01-31T13:59:19Z</time><name>PT11712</name></trkpt>
<trkpt lat="53.205014" lon="-1.718862"><ele>333</ele><time>2020-01-31T13:59:21Z</time><name>PT11713</name></trkpt>
<trkpt lat="53.205007" lon="-1.718844"><ele>333</ele><time>2020-01-31T13:59:21Z</time><name>PT11714</name></trkpt>
<trkpt lat="53.205000" lon="-1.718827"><ele>333</ele><time>2020-01-31T13:59:22Z</time><name>PT11715</name></trkpt>
<trkpt lat="53.204993" lon="-1.718807"><ele>333</ele><time>2020-01-31T13:59:24Z</time><name>PT11716</name></trkpt>
<trkpt lat="53.204985" lon="-1.718787"><ele>333</ele><time>2020-01-31T13:59:24Z</time><name>PT11717</name></trkpt>
<trkpt lat="53.204978" lon="-1.718767"><ele>333</ele><time>2020-01-31T13:59:25Z</time><name>PT11718</name></trkpt>
<trkpt lat="53.204970" lon="-1.718744"><ele>332</ele><time>2020-01-31T13:59:27Z</time><name>PT11719</name></trkpt>
<trkpt lat="53.204963" lon="-1.718722"><ele>332</ele><time>2020-01-31T13:59:27Z</time><name>PT11720</name></trkpt>
<trkpt lat="53.204955" lon="-1.718702"><ele>332</ele><time>2020-01-31T13:59:28Z</time><name>PT11721</name></trkpt>
<trkpt lat="53.204949" lon="-1.718683"><ele>332</ele><time>2020-01-31T13:59:30Z</time><name>PT11722</name></trkpt>
<trkpt lat="53.204941" lon="-1.718665"><ele>332</ele><time>2020-01-31T13:59:30Z</time><name>PT11723</name></trkpt>
<trkpt lat="53.204935" lon="-1.718647"><ele>331</ele><time>2020-01-31T13:59:31Z</time><name>PT11724</name></trkpt>
<trkpt lat="53.204930" lon="-1.718629"><ele>331</ele><time>2020-01-31T13:59:33Z</time><name>PT11725</name></trkpt>
<trkpt lat="53.204923" lon="-1.718614"><ele>331</ele><time>2020-01-31T13:59:33Z</time><name>PT11726</name></trkpt>
<trkpt lat="53.204917" lon="-1.718600"><ele>331</ele><time>2020-01-31T13:59:34Z</time><name>PT11727</name></trkpt>
<trkpt lat="53.204912" lon="-1.718585"><ele>331</ele><time>2020-01-31T13:59:36Z</time><name>PT11728</name></trkpt>
<trkpt lat="53.204906" lon="-1.718570"><ele>331</ele><time>2020-01-31T13:59:36Z</time><name>PT11729</name></trkpt>
<trkpt lat="53.204899" lon="-1.718553"><ele>331</ele><time>2020-01-31T13:59:37Z</time><name>PT11730</name></trkpt>
<trkpt lat="53.204893" lon="-1.718538"><ele>331</ele><time>2020-01-31T13:59:39Z</time><name>PT11731</name></trkpt>
<trkpt lat="53.204890" lon="-1.718525"><ele>330</ele><time>2020-01-31T13:59:39Z</time><name>PT11732</name></trkpt>
<trkpt lat="53.204885" lon="-1.718516"><ele>330</ele><time>2020-01-31T13:59:40Z</time><name>PT11733</name></trkpt>
<trkpt lat="53.204878" lon="-1.718508"><ele>330</ele><time>2020-01-31T13:59:42Z</time><name>PT11734</name></trkpt>
<trkpt lat="53.204872" lon="-1.718501"><ele>330</ele><time>2020-01-31T13:59:42Z</time><name>PT11735</name></trkpt>
<trkpt lat="53.204869" lon="-1.718495"><ele>329</ele><time>2020-01-31T13:59:43Z</time><name>PT11736</name></trkpt>
<trkpt lat="53.204869" lon="-1.718487"><ele>329</ele><time>2020-01-31T13:59:45Z</time><name>PT11737</name></trkpt>
<trkpt lat="53.204870" lon="-1.718475"><ele>329</ele><time>2020-01-31T13:59:45Z</time><name>PT11738</name></trkpt>
<trkpt lat="53.204871" lon="-1.718472"><ele>329</ele><time>2020-01-31T13:59:46Z</time><name>PT11739</name></trkpt>
<trkpt lat="53.204875" lon="-1.718481"><ele>328</ele><time>2020-01-31T13:59:48Z</time><name>PT11740</name></trkpt>
<trkpt lat="53.204882" lon="-1.718480"><ele>328</ele><time>2020-01-31T13:59:48Z</time><name>PT11741</name></trkpt>
<trkpt lat="53.204890" lon="-1.718479"><ele>329</ele><time>2020-01-31T13:59:49Z</time><name>PT11742</name></trkpt>
<trkpt lat="53.204891" lon="-1.718479"><ele>329</ele><time>2020-01-31T13:59:51Z</time><name>PT11743</name></trkpt>
<trkpt lat="53.204892" lon="-1.718477"><ele>329</ele><time>2020-01-31T13:59:51Z</time><name>PT11744</name></trkpt>
<trkpt lat="53.204892" lon="-1.718474"><ele>329</ele><time>2020-01-31T13:59:53Z</time><name>PT11745</name></trkpt>
<trkpt lat="53.204890" lon="-1.718473"><ele>329</ele><time>2020-01-31T13:59:54Z</time><name>PT11746</name></trkpt>
<trkpt lat="53.204888" lon="-1.718470"><ele>329</ele><time>2020-01-31T13:59:54Z</time><name>PT11747</name></trkpt>
<trkpt lat="53.204883" lon="-1.718469"><ele>329</ele><time>2020-01-31T13:59:55Z</time><name>PT11748</name></trkpt>
<trkpt lat="53.204881" lon="-1.718470"><ele>329</ele><time>2020-01-31T13:59:57Z</time><name>PT11749</name></trkpt>
<trkpt lat="53.204881" lon="-1.718465"><ele>328</ele><time>2020-01-31T13:59:57Z</time><name>PT11750</name></trkpt>
<trkpt lat="53.204877" lon="-1.718452"><ele>328</ele><time>2020-01-31T13:59:58Z</time><name>PT11751</name></trkpt>
<trkpt lat="53.204872" lon="-1.718435"><ele>328</ele><time>2020-01-31T14:00:00Z</time><name>PT11752</name></trkpt>
<trkpt lat="53.204867" lon="-1.718415"><ele>328</ele><time>2020-01-31T14:00:00Z</time><name>PT11753</name></trkpt>
<trkpt lat="53.204861" lon="-1.718395"><ele>328</ele><time>2020-01-31T14:00:01Z</time><name>PT11754</name></trkpt>
<trkpt lat="53.204854" lon="-1.718374"><ele>328</ele><time>2020-01-31T14:00:03Z</time><name>PT11755</name></trkpt>
<trkpt lat="53.204845" lon="-1.718357"><ele>328</ele><time>2020-01-31T14:00:03Z</time><name>PT11756</name></trkpt>
<trkpt lat="53.204836" lon="-1.718338"><ele>328</ele><time>2020-01-31T14:00:04Z</time><name>PT11757</name></trkpt>
<trkpt lat="53.204827" lon="-1.718318"><ele>328</ele><time>2020-01-31T14:00:06Z</time><name>PT11758</name></trkpt>
<trkpt lat="53.204822" lon="-1.718297"><ele>328</ele><time>2020-01-31T14:00:06Z</time><name>PT11759</name></trkpt>
<trkpt lat="53.204816" lon="-1.718272"><ele>329</ele><time>2020-01-31T14:00:07Z</time><name>PT11760</name></trkpt>
<trkpt lat="53.204809" lon="-1.718253"><ele>329</ele><time>2020-01-31T14:00:09Z</time><name>PT11761</name></trkpt>
<trkpt lat="53.204801" lon="-1.718235"><ele>327</ele><time>2020-01-31T14:00:09Z</time><name>PT11762</name></trkpt>
<trkpt lat="53.204791" lon="-1.718203"><ele>328</ele><time>2020-01-31T14:00:10Z</time><name>PT11763</name></trkpt>
<trkpt lat="53.204780" lon="-1.718176"><ele>328</ele><time>2020-01-31T14:00:12Z</time><name>PT11764</name></trkpt>
<trkpt lat="53.204772" lon="-1.718153"><ele>327</ele><time>2020-01-31T14:00:12Z</time><name>PT11765</name></trkpt>
<trkpt lat="53.204767" lon="-1.718134"><ele>327</ele><time>2020-01-31T14:00:13Z</time><name>PT11766</name></trkpt>
<trkpt lat="53.204760" lon="-1.718116"><ele>326</ele><time>2020-01-31T14:00:15Z</time><name>PT11767</name></trkpt>
<trkpt lat="53.204751" lon="-1.718098"><ele>326</ele><time>2020-01-31T14:00:15Z</time><name>PT11768</name></trkpt>
<trkpt lat="53.204741" lon="-1.718082"><ele>326</ele><time>2020-01-31T14:00:16Z</time><name>PT11769</name></trkpt>
<trkpt lat="53.204732" lon="-1.718066"><ele>326</ele><time>2020-01-31T14:00:18Z</time><name>PT11770</name></trkpt>
<trkpt lat="53.204723" lon="-1.718050"><ele>325</ele><time>2020-01-31T14:00:18Z</time><name>PT11771</name></trkpt>
<trkpt lat="53.204714" lon="-1.718031"><ele>325</ele><time>2020-01-31T14:00:19Z</time><name>PT11772</name></trkpt>
<trkpt lat="53.204707" lon="-1.718011"><ele>325</ele><time>2020-01-31T14:00:21Z</time><name>PT11773</name></trkpt>
<trkpt lat="53.204699" lon="-1.717993"><ele>325</ele><time>2020-01-31T14:00:21Z</time><name>PT11774</name></trkpt>
<trkpt lat="53.204691" lon="-1.717973"><ele>325</ele><time>2020-01-31T14:00:22Z</time><name>PT11775</name></trkpt>
<trkpt lat="53.204683" lon="-1.717953"><ele>325</ele><time>2020-01-31T14:00:24Z</time><name>PT11776</name></trkpt>
<trkpt lat="53.204676" lon="-1.717935"><ele>325</ele><time>2020-01-31T14:00:24Z</time><name>PT11777</name></trkpt>
<trkpt lat="53.204670" lon="-1.717918"><ele>324</ele><time>2020-01-31T14:00:25Z</time><name>PT11778</name></trkpt>
<trkpt lat="53.204663" lon="-1.717901"><ele>324</ele><time>2020-01-31T14:00:27Z</time><name>PT11779</name></trkpt>
<trkpt lat="53.204655" lon="-1.717884"><ele>324</ele><time>2020-01-31T14:00:27Z</time><name>PT11780</name></trkpt>
<trkpt lat="53.204647" lon="-1.717867"><ele>324</ele><time>2020-01-31T14:00:28Z</time><name>PT11781</name></trkpt>
<trkpt lat="53.204638" lon="-1.717850"><ele>324</ele><time>2020-01-31T14:00:30Z</time><name>PT11782</name></trkpt>
<trkpt lat="53.204629" lon="-1.717830"><ele>324</ele><time>2020-01-31T14:00:30Z</time><name>PT11783</name></trkpt>
<trkpt lat="53.204622" lon="-1.717809"><ele>324</ele><time>2020-01-31T14:00:31Z</time><name>PT11784</name></trkpt>
<trkpt lat="53.204615" lon="-1.717791"><ele>324</ele><time>2020-01-31T14:00:33Z</time><name>PT11785</name></trkpt>
<trkpt lat="53.204608" lon="-1.717776"><ele>324</ele><time>2020-01-31T14:00:33Z</time><name>PT11786</name></trkpt>
<trkpt lat="53.204600" lon="-1.717763"><ele>324</ele><time>2020-01-31T14:00:34Z</time><name>PT11787</name></trkpt>
<trkpt lat="53.204593" lon="-1.717748"><ele>324</ele><time>2020-01-31T14:00:36Z</time><name>PT11788</name></trkpt>
<trkpt lat="53.204585" lon="-1.717734"><ele>324</ele><time>2020-01-31T14:00:36Z</time><name>PT11789</name></trkpt>
<trkpt lat="53.204578" lon="-1.717720"><ele>324</ele><time>2020-01-31T14:00:37Z</time><name>PT11790</name></trkpt>
<trkpt lat="53.204570" lon="-1.717701"><ele>324</ele><time>2020-01-31T14:00:39Z</time><name>PT11791</name></trkpt>
<trkpt lat="53.204562" lon="-1.717683"><ele>323</ele><time>2020-01-31T14:00:39Z</time><name>PT11792</name></trkpt>
<trkpt lat="53.204554" lon="-1.717664"><ele>323</ele><time>2020-01-31T14:00:40Z</time><name>PT11793</name></trkpt>
<trkpt lat="53.204547" lon="-1.717646"><ele>323</ele><time>2020-01-31T14:00:42Z</time><name>PT11794</name></trkpt>
<trkpt lat="53.204539" lon="-1.717631"><ele>323</ele><time>2020-01-31T14:00:42Z</time><name>PT11795</name></trkpt>
<trkpt lat="53.204532" lon="-1.717616"><ele>323</ele><time>2020-01-31T14:00:43Z</time><name>PT11796</name></trkpt>
<trkpt lat="53.204523" lon="-1.717603"><ele>323</ele><time>2020-01-31T14:00:45Z</time><name>PT11797</name></trkpt>
<trkpt lat="53.204515" lon="-1.717586"><ele>323</ele><time>2020-01-31T14:00:45Z</time><name>PT11798</name></trkpt>
<trkpt lat="53.204506" lon="-1.717570"><ele>323</ele><time>2020-01-31T14:00:46Z</time><name>PT11799</name></trkpt>
<trkpt lat="53.204496" lon="-1.717552"><ele>323</ele><time>2020-01-31T14:00:48Z</time><name>PT11800</name></trkpt>
<trkpt lat="53.204487" lon="-1.717532"><ele>323</ele><time>2020-01-31T14:00:48Z</time><name>PT11801</name></trkpt>
<trkpt lat="53.204478" lon="-1.717514"><ele>323</ele><time>2020-01-31T14:00:49Z</time><name>PT11802</name></trkpt>
<trkpt lat="53.204469" lon="-1.717500"><ele>323</ele><time>2020-01-31T14:00:51Z</time><name>PT11803</name></trkpt>
<trkpt lat="53.204461" lon="-1.717486"><ele>323</ele><time>2020-01-31T14:00:51Z</time><name>PT11804</name></trkpt>
<trkpt lat="53.204453" lon="-1.717476"><ele>322</ele><time>2020-01-31T14:00:52Z</time><name>PT11805</name></trkpt>
<trkpt lat="53.204444" lon="-1.717462"><ele>322</ele><time>2020-01-31T14:00:54Z</time><name>PT11806</name></trkpt>
<trkpt lat="53.204435" lon="-1.717447"><ele>322</ele><time>2020-01-31T14:00:54Z</time><name>PT11807</name></trkpt>
<trkpt lat="53.204426" lon="-1.717434"><ele>322</ele><time>2020-01-31T14:00:55Z</time><name>PT11808</name></trkpt>
<trkpt lat="53.204418" lon="-1.717419"><ele>321</ele><time>2020-01-31T14:00:57Z</time><name>PT11809</name></trkpt>
<trkpt lat="53.204411" lon="-1.717400"><ele>321</ele><time>2020-01-31T14:00:57Z</time><name>PT11810</name></trkpt>
<trkpt lat="53.204402" lon="-1.717379"><ele>321</ele><time>2020-01-31T14:00:58Z</time><name>PT11811</name></trkpt>
<trkpt lat="53.204394" lon="-1.717362"><ele>321</ele><time>2020-01-31T14:01:00Z</time><name>PT11812</name></trkpt>
<trkpt lat="53.204385" lon="-1.717347"><ele>321</ele><time>2020-01-31T14:01:00Z</time><name>PT11813</name></trkpt>
<trkpt lat="53.204376" lon="-1.717333"><ele>321</ele><time>2020-01-31T14:01:01Z</time><name>PT11814</name></trkpt>
<trkpt lat="53.204369" lon="-1.717317"><ele>321</ele><time>2020-01-31T14:01:03Z</time><name>PT11815</name></trkpt>
<trkpt lat="53.204360" lon="-1.717301"><ele>321</ele><time>2020-01-31T14:01:03Z</time><name>PT11816</name></trkpt>
<trkpt lat="53.204353" lon="-1.717286"><ele>321</ele><time>2020-01-31T14:01:04Z</time><name>PT11817</name></trkpt>
<trkpt lat="53.204344" lon="-1.717267"><ele>320</ele><time>2020-01-31T14:01:06Z</time><name>PT11818</name></trkpt>
<trkpt lat="53.204336" lon="-1.717246"><ele>320</ele><time>2020-01-31T14:01:06Z</time><name>PT11819</name></trkpt>
<trkpt lat="53.204327" lon="-1.717229"><ele>320</ele><time>2020-01-31T14:01:07Z</time><name>PT11820</name></trkpt>
<trkpt lat="53.204319" lon="-1.717216"><ele>320</ele><time>2020-01-31T14:01:09Z</time><name>PT11821</name></trkpt>
<trkpt lat="53.204312" lon="-1.717198"><ele>320</ele><time>2020-01-31T14:01:09Z</time><name>PT11822</name></trkpt>
<trkpt lat="53.204304" lon="-1.717185"><ele>320</ele><time>2020-01-31T14:01:10Z</time><name>PT11823</name></trkpt>
<trkpt lat="53.204300" lon="-1.717168"><ele>320</ele><time>2020-01-31T14:01:12Z</time><name>PT11824</name></trkpt>
<trkpt lat="53.204293" lon="-1.717153"><ele>320</ele><time>2020-01-31T14:01:12Z</time><name>PT11825</name></trkpt>
<trkpt lat="53.204285" lon="-1.717135"><ele>320</ele><time>2020-01-31T14:01:13Z</time><name>PT11826</name></trkpt>
<trkpt lat="53.204276" lon="-1.717112"><ele>320</ele><time>2020-01-31T14:01:15Z</time><name>PT11827</name></trkpt>
<trkpt lat="53.204269" lon="-1.717088"><ele>320</ele><time>2020-01-31T14:01:15Z</time><name>PT11828</name></trkpt>
<trkpt lat="53.204263" lon="-1.717068"><ele>320</ele><time>2020-01-31T14:01:16Z</time><name>PT11829</name></trkpt>
<trkpt lat="53.204255" lon="-1.717049"><ele>320</ele><time>2020-01-31T14:01:18Z</time><name>PT11830</name></trkpt>
<trkpt lat="53.204247" lon="-1.717031"><ele>320</ele><time>2020-01-31T14:01:18Z</time><name>PT11831</name></trkpt>
<trkpt lat="53.204236" lon="-1.717012"><ele>320</ele><time>2020-01-31T14:01:19Z</time><name>PT11832</name></trkpt>
<trkpt lat="53.204228" lon="-1.716995"><ele>320</ele><time>2020-01-31T14:01:21Z</time><name>PT11833</name></trkpt>
<trkpt lat="53.204219" lon="-1.716979"><ele>320</ele><time>2020-01-31T14:01:21Z</time><name>PT11834</name></trkpt>
<trkpt lat="53.204211" lon="-1.716961"><ele>320</ele><time>2020-01-31T14:01:22Z</time><name>PT11835</name></trkpt>
<trkpt lat="53.204203" lon="-1.716943"><ele>320</ele><time>2020-01-31T14:01:24Z</time><name>PT11836</name></trkpt>
<trkpt lat="53.204196" lon="-1.716927"><ele>320</ele><time>2020-01-31T14:01:24Z</time><name>PT11837</name></trkpt>
<trkpt lat="53.204188" lon="-1.716910"><ele>320</ele><time>2020-01-31T14:01:25Z</time><name>PT11838</name></trkpt>
<trkpt lat="53.204179" lon="-1.716896"><ele>320</ele><time>2020-01-31T14:01:27Z</time><name>PT11839</name></trkpt>
<trkpt lat="53.204171" lon="-1.716880"><ele>320</ele><time>2020-01-31T14:01:27Z</time><name>PT11840</name></trkpt>
<trkpt lat="53.204161" lon="-1.716867"><ele>320</ele><time>2020-01-31T14:01:28Z</time><name>PT11841</name></trkpt>
<trkpt lat="53.204153" lon="-1.716855"><ele>320</ele><time>2020-01-31T14:01:30Z</time><name>PT11842</name></trkpt>
<trkpt lat="53.204149" lon="-1.716839"><ele>320</ele><time>2020-01-31T14:01:30Z</time><name>PT11843</name></trkpt>
<trkpt lat="53.204145" lon="-1.716821"><ele>320</ele><time>2020-01-31T14:01:31Z</time><name>PT11844</name></trkpt>
<trkpt lat="53.204138" lon="-1.716803"><ele>320</ele><time>2020-01-31T14:01:33Z</time><name>PT11845</name></trkpt>
<trkpt lat="53.204129" lon="-1.716788"><ele>320</ele><time>2020-01-31T14:01:33Z</time><name>PT11846</name></trkpt>
<trkpt lat="53.204122" lon="-1.716776"><ele>320</ele><time>2020-01-31T14:01:34Z</time><name>PT11847</name></trkpt>
<trkpt lat="53.204112" lon="-1.716761"><ele>320</ele><time>2020-01-31T14:01:36Z</time><name>PT11848</name></trkpt>
<trkpt lat="53.204103" lon="-1.716745"><ele>320</ele><time>2020-01-31T14:01:36Z</time><name>PT11849</name></trkpt>
<trkpt lat="53.204096" lon="-1.716729"><ele>320</ele><time>2020-01-31T14:01:37Z</time><name>PT11850</name></trkpt>
<trkpt lat="53.204090" lon="-1.716712"><ele>320</ele><time>2020-01-31T14:01:39Z</time><name>PT11851</name></trkpt>
<trkpt lat="53.204084" lon="-1.716694"><ele>319</ele><time>2020-01-31T14:01:39Z</time><name>PT11852</name></trkpt>
<trkpt lat="53.204077" lon="-1.716677"><ele>319</ele><time>2020-01-31T14:01:40Z</time><name>PT11853</name></trkpt>
<trkpt lat="53.204069" lon="-1.716662"><ele>319</ele><time>2020-01-31T14:01:42Z</time><name>PT11854</name></trkpt>
<trkpt lat="53.204060" lon="-1.716647"><ele>319</ele><time>2020-01-31T14:01:42Z</time><name>PT11855</name></trkpt>
<trkpt lat="53.204052" lon="-1.716633"><ele>319</ele><time>2020-01-31T14:01:43Z</time><name>PT11856</name></trkpt>
<trkpt lat="53.204044" lon="-1.716615"><ele>319</ele><time>2020-01-31T14:01:45Z</time><name>PT11857</name></trkpt>
<trkpt lat="53.204036" lon="-1.716597"><ele>319</ele><time>2020-01-31T14:01:45Z</time><name>PT11858</name></trkpt>
<trkpt lat="53.204029" lon="-1.716577"><ele>320</ele><time>2020-01-31T14:01:46Z</time><name>PT11859</name></trkpt>
<trkpt lat="53.204021" lon="-1.716558"><ele>320</ele><time>2020-01-31T14:01:48Z</time><name>PT11860</name></trkpt>
<trkpt lat="53.204013" lon="-1.716542"><ele>320</ele><time>2020-01-31T14:01:48Z</time><name>PT11861</name></trkpt>
<trkpt lat="53.204004" lon="-1.716528"><ele>320</ele><time>2020-01-31T14:01:49Z</time><name>PT11862</name></trkpt>
<trkpt lat="53.203994" lon="-1.716512"><ele>320</ele><time>2020-01-31T14:01:51Z</time><name>PT11863</name></trkpt>
<trkpt lat="53.203982" lon="-1.716493"><ele>320</ele><time>2020-01-31T14:01:51Z</time><name>PT11864</name></trkpt>
<trkpt lat="53.203970" lon="-1.716477"><ele>319</ele><time>2020-01-31T14:01:52Z</time><name>PT11865</name></trkpt>
<trkpt lat="53.203959" lon="-1.716459"><ele>319</ele><time>2020-01-31T14:01:54Z</time><name>PT11866</name></trkpt>
<trkpt lat="53.203948" lon="-1.716442"><ele>318</ele><time>2020-01-31T14:01:54Z</time><name>PT11867</name></trkpt>
<trkpt lat="53.203938" lon="-1.716425"><ele>318</ele><time>2020-01-31T14:01:55Z</time><name>PT11868</name></trkpt>
<trkpt lat="53.203928" lon="-1.716413"><ele>317</ele><time>2020-01-31T14:01:57Z</time><name>PT11869</name></trkpt>
<trkpt lat="53.203918" lon="-1.716396"><ele>317</ele><time>2020-01-31T14:01:57Z</time><name>PT11870</name></trkpt>
<trkpt lat="53.203908" lon="-1.716381"><ele>317</ele><time>2020-01-31T14:01:58Z</time><name>PT11871</name></trkpt>
<trkpt lat="53.203897" lon="-1.716365"><ele>316</ele><time>2020-01-31T14:02:00Z</time><name>PT11872</name></trkpt>
<trkpt lat="53.203888" lon="-1.716350"><ele>316</ele><time>2020-01-31T14:02:00Z</time><name>PT11873</name></trkpt>
<trkpt lat="53.203878" lon="-1.716334"><ele>316</ele><time>2020-01-31T14:02:01Z</time><name>PT11874</name></trkpt>
<trkpt lat="53.203869" lon="-1.716318"><ele>316</ele><time>2020-01-31T14:02:03Z</time><name>PT11875</name></trkpt>
<trkpt lat="53.203860" lon="-1.716299"><ele>316</ele><time>2020-01-31T14:02:03Z</time><name>PT11876</name></trkpt>
<trkpt lat="53.203851" lon="-1.716283"><ele>316</ele><time>2020-01-31T14:02:04Z</time><name>PT11877</name></trkpt>
<trkpt lat="53.203841" lon="-1.716267"><ele>316</ele><time>2020-01-31T14:02:06Z</time><name>PT11878</name></trkpt>
<trkpt lat="53.203832" lon="-1.716251"><ele>316</ele><time>2020-01-31T14:02:06Z</time><name>PT11879</name></trkpt>
<trkpt lat="53.203821" lon="-1.716233"><ele>316</ele><time>2020-01-31T14:02:07Z</time><name>PT11880</name></trkpt>
<trkpt lat="53.203812" lon="-1.716215"><ele>316</ele><time>2020-01-31T14:02:09Z</time><name>PT11881</name></trkpt>
<trkpt lat="53.203803" lon="-1.716198"><ele>316</ele><time>2020-01-31T14:02:09Z</time><name>PT11882</name></trkpt>
<trkpt lat="53.203792" lon="-1.716180"><ele>316</ele><time>2020-01-31T14:02:10Z</time><name>PT11883</name></trkpt>
<trkpt lat="53.203783" lon="-1.716159"><ele>315</ele><time>2020-01-31T14:02:12Z</time><name>PT11884</name></trkpt>
<trkpt lat="53.203773" lon="-1.716141"><ele>315</ele><time>2020-01-31T14:02:12Z</time><name>PT11885</name></trkpt>
<trkpt lat="53.203764" lon="-1.716125"><ele>315</ele><time>2020-01-31T14:02:13Z</time><name>PT11886</name></trkpt>
<trkpt lat="53.203757" lon="-1.716110"><ele>315</ele><time>2020-01-31T14:02:15Z</time><name>PT11887</name></trkpt>
<trkpt lat="53.203748" lon="-1.716094"><ele>315</ele><time>2020-01-31T14:02:15Z</time><name>PT11888</name></trkpt>
<trkpt lat="53.203739" lon="-1.716079"><ele>315</ele><time>2020-01-31T14:02:16Z</time><name>PT11889</name></trkpt>
<trkpt lat="53.203729" lon="-1.716063"><ele>315</ele><time>2020-01-31T14:02:18Z</time><name>PT11890</name></trkpt>
<trkpt lat="53.203720" lon="-1.716049"><ele>315</ele><time>2020-01-31T14:02:18Z</time><name>PT11891</name></trkpt>
<trkpt lat="53.203711" lon="-1.716035"><ele>315</ele><time>2020-01-31T14:02:19Z</time><name>PT11892</name></trkpt>
<trkpt lat="53.203701" lon="-1.716017"><ele>315</ele><time>2020-01-31T14:02:21Z</time><name>PT11893</name></trkpt>
<trkpt lat="53.203692" lon="-1.716005"><ele>315</ele><time>2020-01-31T14:02:21Z</time><name>PT11894</name></trkpt>
<trkpt lat="53.203684" lon="-1.715996"><ele>315</ele><time>2020-01-31T14:02:22Z</time><name>PT11895</name></trkpt>
<trkpt lat="53.203674" lon="-1.715984"><ele>314</ele><time>2020-01-31T14:02:24Z</time><name>PT11896</name></trkpt>
<trkpt lat="53.203664" lon="-1.715971"><ele>314</ele><time>2020-01-31T14:02:24Z</time><name>PT11897</name></trkpt>
<trkpt lat="53.203653" lon="-1.715957"><ele>314</ele><time>2020-01-31T14:02:25Z</time><name>PT11898</name></trkpt>
<trkpt lat="53.203641" lon="-1.715943"><ele>315</ele><time>2020-01-31T14:02:27Z</time><name>PT11899</name></trkpt>
<trkpt lat="53.203631" lon="-1.715926"><ele>315</ele><time>2020-01-31T14:02:27Z</time><name>PT11900</name></trkpt>
<trkpt lat="53.203621" lon="-1.715910"><ele>315</ele><time>2020-01-31T14:02:28Z</time><name>PT11901</name></trkpt>
<trkpt lat="53.203612" lon="-1.715897"><ele>315</ele><time>2020-01-31T14:02:30Z</time><name>PT11902</name></trkpt>
<trkpt lat="53.203602" lon="-1.715885"><ele>315</ele><time>2020-01-31T14:02:30Z</time><name>PT11903</name></trkpt>
<trkpt lat="53.203591" lon="-1.715873"><ele>315</ele><time>2020-01-31T14:02:31Z</time><name>PT11904</name></trkpt>
<trkpt lat="53.203579" lon="-1.715860"><ele>315</ele><time>2020-01-31T14:02:33Z</time><name>PT11905</name></trkpt>
<trkpt lat="53.203569" lon="-1.715845"><ele>315</ele><time>2020-01-31T14:02:33Z</time><name>PT11906</name></trkpt>
<trkpt lat="53.203559" lon="-1.715830"><ele>315</ele><time>2020-01-31T14:02:34Z</time><name>PT11907</name></trkpt>
<trkpt lat="53.203549" lon="-1.715813"><ele>315</ele><time>2020-01-31T14:02:36Z</time><name>PT11908</name></trkpt>
<trkpt lat="53.203539" lon="-1.715796"><ele>315</ele><time>2020-01-31T14:02:36Z</time><name>PT11909</name></trkpt>
<trkpt lat="53.203530" lon="-1.715780"><ele>315</ele><time>2020-01-31T14:02:37Z</time><name>PT11910</name></trkpt>
<trkpt lat="53.203520" lon="-1.715766"><ele>315</ele><time>2020-01-31T14:02:39Z</time><name>PT11911</name></trkpt>
<trkpt lat="53.203511" lon="-1.715752"><ele>315</ele><time>2020-01-31T14:02:39Z</time><name>PT11912</name></trkpt>
<trkpt lat="53.203503" lon="-1.715735"><ele>315</ele><time>2020-01-31T14:02:40Z</time><name>PT11913</name></trkpt>
<trkpt lat="53.203495" lon="-1.715717"><ele>314</ele><time>2020-01-31T14:02:42Z</time><name>PT11914</name></trkpt>
<trkpt lat="53.203489" lon="-1.715698"><ele>314</ele><time>2020-01-31T14:02:42Z</time><name>PT11915</name></trkpt>
<trkpt lat="53.203483" lon="-1.715677"><ele>315</ele><time>2020-01-31T14:02:43Z</time><name>PT11916</name></trkpt>
<trkpt lat="53.203477" lon="-1.715654"><ele>315</ele><time>2020-01-31T14:02:45Z</time><name>PT11917</name></trkpt>
<trkpt lat="53.203473" lon="-1.715633"><ele>314</ele><time>2020-01-31T14:02:45Z</time><name>PT11918</name></trkpt>
<trkpt lat="53.203470" lon="-1.715617"><ele>314</ele><time>2020-01-31T14:02:46Z</time><name>PT11919</name></trkpt>
<trkpt lat="53.203467" lon="-1.715598"><ele>314</ele><time>2020-01-31T14:02:48Z</time><name>PT11920</name></trkpt>
<trkpt lat="53.203464" lon="-1.715579"><ele>314</ele><time>2020-01-31T14:02:48Z</time><name>PT11921</name></trkpt>
<trkpt lat="53.203460" lon="-1.715559"><ele>314</ele><time>2020-01-31T14:02:49Z</time><name>PT11922</name></trkpt>
<trkpt lat="53.203455" lon="-1.715537"><ele>314</ele><time>2020-01-31T14:02:51Z</time><name>PT11923</name></trkpt>
<trkpt lat="53.203450" lon="-1.715516"><ele>314</ele><time>2020-01-31T14:02:51Z</time><name>PT11924</name></trkpt>
<trkpt lat="53.203446" lon="-1.715495"><ele>314</ele><time>2020-01-31T14:02:52Z</time><name>PT11925</name></trkpt>
<trkpt lat="53.203441" lon="-1.715475"><ele>313</ele><time>2020-01-31T14:02:54Z</time><name>PT11926</name></trkpt>
<trkpt lat="53.203437" lon="-1.715454"><ele>313</ele><time>2020-01-31T14:02:54Z</time><name>PT11927</name></trkpt>
<trkpt lat="53.203432" lon="-1.715435"><ele>313</ele><time>2020-01-31T14:02:55Z</time><name>PT11928</name></trkpt>
<trkpt lat="53.203427" lon="-1.715413"><ele>313</ele><time>2020-01-31T14:02:57Z</time><name>PT11929</name></trkpt>
<trkpt lat="53.203422" lon="-1.715395"><ele>313</ele><time>2020-01-31T14:02:57Z</time><name>PT11930</name></trkpt>
<trkpt lat="53.203417" lon="-1.715380"><ele>313</ele><time>2020-01-31T14:02:58Z</time><name>PT11931</name></trkpt>
<trkpt lat="53.203412" lon="-1.715360"><ele>313</ele><time>2020-01-31T14:03:00Z</time><name>PT11932</name></trkpt>
<trkpt lat="53.203407" lon="-1.715339"><ele>313</ele><time>2020-01-31T14:03:00Z</time><name>PT11933</name></trkpt>
<trkpt lat="53.203403" lon="-1.715319"><ele>313</ele><time>2020-01-31T14:03:01Z</time><name>PT11934</name></trkpt>
<trkpt lat="53.203399" lon="-1.715297"><ele>312</ele><time>2020-01-31T14:03:03Z</time><name>PT11935</name></trkpt>
<trkpt lat="53.203395" lon="-1.715275"><ele>312</ele><time>2020-01-31T14:03:03Z</time><name>PT11936</name></trkpt>
<trkpt lat="53.203392" lon="-1.715252"><ele>312</ele><time>2020-01-31T14:03:04Z</time><name>PT11937</name></trkpt>
<trkpt lat="53.203389" lon="-1.715231"><ele>312</ele><time>2020-01-31T14:03:06Z</time><name>PT11938</name></trkpt>
<trkpt lat="53.203385" lon="-1.715214"><ele>312</ele><time>2020-01-31T14:03:06Z</time><name>PT11939</name></trkpt>
<trkpt lat="53.203381" lon="-1.715195"><ele>312</ele><time>2020-01-31T14:03:07Z</time><name>PT11940</name></trkpt>
<trkpt lat="53.203376" lon="-1.715173"><ele>312</ele><time>2020-01-31T14:03:09Z</time><name>PT11941</name></trkpt>
<trkpt lat="53.203373" lon="-1.715152"><ele>312</ele><time>2020-01-31T14:03:09Z</time><name>PT11942</name></trkpt>
<trkpt lat="53.203372" lon="-1.715130"><ele>312</ele><time>2020-01-31T14:03:10Z</time><name>PT11943</name></trkpt>
<trkpt lat="53.203370" lon="-1.715106"><ele>312</ele><time>2020-01-31T14:03:12Z</time><name>PT11944</name></trkpt>
<trkpt lat="53.203368" lon="-1.715083"><ele>312</ele><time>2020-01-31T14:03:12Z</time><name>PT11945</name></trkpt>
<trkpt lat="53.203367" lon="-1.715064"><ele>312</ele><time>2020-01-31T14:03:13Z</time><name>PT11946</name></trkpt>
<trkpt lat="53.203365" lon="-1.715045"><ele>312</ele><time>2020-01-31T14:03:15Z</time><name>PT11947</name></trkpt>
<trkpt lat="53.203359" lon="-1.715023"><ele>312</ele><time>2020-01-31T14:03:15Z</time><name>PT11948</name></trkpt>
<trkpt lat="53.203354" lon="-1.715002"><ele>312</ele><time>2020-01-31T14:03:16Z</time><name>PT11949</name></trkpt>
<trkpt lat="53.203349" lon="-1.714976"><ele>312</ele><time>2020-01-31T14:03:18Z</time><name>PT11950</name></trkpt>
<trkpt lat="53.203345" lon="-1.714955"><ele>312</ele><time>2020-01-31T14:03:18Z</time><name>PT11951</name></trkpt>
<trkpt lat="53.203340" lon="-1.714933"><ele>312</ele><time>2020-01-31T14:03:19Z</time><name>PT11952</name></trkpt>
<trkpt lat="53.203335" lon="-1.714909"><ele>312</ele><time>2020-01-31T14:03:21Z</time><name>PT11953</name></trkpt>
<trkpt lat="53.203331" lon="-1.714891"><ele>312</ele><time>2020-01-31T14:03:21Z</time><name>PT11954</name></trkpt>
<trkpt lat="53.203329" lon="-1.714874"><ele>312</ele><time>2020-01-31T14:03:22Z</time><name>PT11955</name></trkpt>
<trkpt lat="53.203327" lon="-1.714858"><ele>312</ele><time>2020-01-31T14:03:24Z</time><name>PT11956</name></trkpt>
<trkpt lat="53.203324" lon="-1.714846"><ele>312</ele><time>2020-01-31T14:03:24Z</time><name>PT11957</name></trkpt>
<trkpt lat="53.203324" lon="-1.714835"><ele>311</ele><time>2020-01-31T14:03:25Z</time><name>PT11958</name></trkpt>
<trkpt lat="53.203323" lon="-1.714820"><ele>311</ele><time>2020-01-31T14:03:27Z</time><name>PT11959</name></trkpt>
<trkpt lat="53.203320" lon="-1.714812"><ele>311</ele><time>2020-01-31T14:03:27Z</time><name>PT11960</name></trkpt>
<trkpt lat="53.203317" lon="-1.714812"><ele>311</ele><time>2020-01-31T14:03:28Z</time><name>PT11961</name></trkpt>
<trkpt lat="53.203317" lon="-1.714804"><ele>311</ele><time>2020-01-31T14:03:30Z</time><name>PT11962</name></trkpt>
<trkpt lat="53.203316" lon="-1.714802"><ele>311</ele><time>2020-01-31T14:03:30Z</time><name>PT11963</name></trkpt>
<trkpt lat="53.203312" lon="-1.714802"><ele>311</ele><time>2020-01-31T14:03:31Z</time><name>PT11964</name></trkpt>
<trkpt lat="53.203309" lon="-1.714800"><ele>312</ele><time>2020-01-31T14:03:33Z</time><name>PT11965</name></trkpt>
<trkpt lat="53.203308" lon="-1.714794"><ele>312</ele><time>2020-01-31T14:03:33Z</time><name>PT11966</name></trkpt>
<trkpt lat="53.203309" lon="-1.714790"><ele>312</ele><time>2020-01-31T14:03:34Z</time><name>PT11967</name></trkpt>
<trkpt lat="53.203307" lon="-1.714790"><ele>312</ele><time>2020-01-31T14:03:36Z</time><name>PT11968</name></trkpt>
<trkpt lat="53.203306" lon="-1.714788"><ele>312</ele><time>2020-01-31T14:03:36Z</time><name>PT11969</name></trkpt>
<trkpt lat="53.203301" lon="-1.714782"><ele>312</ele><time>2020-01-31T14:03:37Z</time><name>PT11970</name></trkpt>
<trkpt lat="53.203292" lon="-1.714775"><ele>311</ele><time>2020-01-31T14:03:39Z</time><name>PT11971</name></trkpt>
<trkpt lat="53.203283" lon="-1.714769"><ele>311</ele><time>2020-01-31T14:03:39Z</time><name>PT11972</name></trkpt>
<trkpt lat="53.203273" lon="-1.714766"><ele>312</ele><time>2020-01-31T14:03:40Z</time><name>PT11973</name></trkpt>
<trkpt lat="53.203262" lon="-1.714763"><ele>312</ele><time>2020-01-31T14:03:42Z</time><name>PT11974</name></trkpt>
<trkpt lat="53.203254" lon="-1.714760"><ele>312</ele><time>2020-01-31T14:03:42Z</time><name>PT11975</name></trkpt>
<trkpt lat="53.203246" lon="-1.714759"><ele>311</ele><time>2020-01-31T14:03:43Z</time><name>PT11976</name></trkpt>
<trkpt lat="53.203243" lon="-1.714757"><ele>311</ele><time>2020-01-31T14:03:45Z</time><name>PT11977</name></trkpt>
<trkpt lat="53.203241" lon="-1.714753"><ele>311</ele><time>2020-01-31T14:03:45Z</time><name>PT11978</name></trkpt>
<trkpt lat="53.203239" lon="-1.714747"><ele>311</ele><time>2020-01-31T14:03:46Z</time><name>PT11979</name></trkpt>
<trkpt lat="53.203235" lon="-1.714734"><ele>311</ele><time>2020-01-31T14:03:48Z</time><name>PT11980</name></trkpt>
<trkpt lat="53.203228" lon="-1.714726"><ele>310</ele><time>2020-01-31T14:03:48Z</time><name>PT11981</name></trkpt>
<trkpt lat="53.203218" lon="-1.714717"><ele>310</ele><time>2020-01-31T14:03:49Z</time><name>PT11982</name></trkpt>
<trkpt lat="53.203209" lon="-1.714709"><ele>310</ele><time>2020-01-31T14:03:51Z</time><name>PT11983</name></trkpt>
<trkpt lat="53.203204" lon="-1.714704"><ele>309</ele><time>2020-01-31T14:03:51Z</time><name>PT11984</name></trkpt>
<trkpt lat="53.203202" lon="-1.714702"><ele>309</ele><time>2020-01-31T14:03:52Z</time><name>PT11985</name></trkpt>
<trkpt lat="53.203202" lon="-1.714695"><ele>309</ele><time>2020-01-31T14:03:54Z</time><name>PT11986</name></trkpt>
<trkpt lat="53.203198" lon="-1.714683"><ele>308</ele><time>2020-01-31T14:03:54Z</time><name>PT11987</name></trkpt>
<trkpt lat="53.203192" lon="-1.714669"><ele>309</ele><time>2020-01-31T14:03:55Z</time><name>PT11988</name></trkpt>
<trkpt lat="53.203186" lon="-1.714655"><ele>309</ele><time>2020-01-31T14:03:57Z</time><name>PT11989</name></trkpt>
<trkpt lat="53.203180" lon="-1.714638"><ele>308</ele><time>2020-01-31T14:03:57Z</time><name>PT11990</name></trkpt>
<trkpt lat="53.203173" lon="-1.714619"><ele>308</ele><time>2020-01-31T14:03:58Z</time><name>PT11991</name></trkpt>
<trkpt lat="53.203164" lon="-1.714603"><ele>308</ele><time>2020-01-31T14:04:00Z</time><name>PT11992</name></trkpt>
<trkpt lat="53.203156" lon="-1.714588"><ele>308</ele><time>2020-01-31T14:04:00Z</time><name>PT11993</name></trkpt>
<trkpt lat="53.203146" lon="-1.714573"><ele>308</ele><time>2020-01-31T14:04:01Z</time><name>PT11994</name></trkpt>
<trkpt lat="53.203136" lon="-1.714558"><ele>308</ele><time>2020-01-31T14:04:03Z</time><name>PT11995</name></trkpt>
<trkpt lat="53.203127" lon="-1.714545"><ele>308</ele><time>2020-01-31T14:04:03Z</time><name>PT11996</name></trkpt>
<trkpt lat="53.203119" lon="-1.714527"><ele>308</ele><time>2020-01-31T14:04:04Z</time><name>PT11997</name></trkpt>
<trkpt lat="53.203111" lon="-1.714507"><ele>308</ele><time>2020-01-31T14:04:06Z</time><name>PT11998</name></trkpt>
<trkpt lat="53.203103" lon="-1.714492"><ele>308</ele><time>2020-01-31T14:04:06Z</time><name>PT11999</name></trkpt>
<trkpt lat="53.203093" lon="-1.714479"><ele>308</ele><time>2020-01-31T14:04:07Z</time><name>PT12000</name></trkpt>
<trkpt lat="53.203083" lon="-1.714466"><ele>308</ele><time>2020-01-31T14:04:09Z</time><name>PT12001</name></trkpt>
<trkpt lat="53.203074" lon="-1.714456"><ele>307</ele><time>2020-01-31T14:04:09Z</time><name>PT12002</name></trkpt>
<trkpt lat="53.203065" lon="-1.714444"><ele>307</ele><time>2020-01-31T14:04:10Z</time><name>PT12003</name></trkpt>
<trkpt lat="53.203057" lon="-1.714429"><ele>307</ele><time>2020-01-31T14:04:12Z</time><name>PT12004</name></trkpt>
<trkpt lat="53.203048" lon="-1.714410"><ele>307</ele><time>2020-01-31T14:04:12Z</time><name>PT12005</name></trkpt>
<trkpt lat="53.203040" lon="-1.714395"><ele>307</ele><time>2020-01-31T14:04:13Z</time><name>PT12006</name></trkpt>
<trkpt lat="53.203031" lon="-1.714381"><ele>307</ele><time>2020-01-31T14:04:15Z</time><name>PT12007</name></trkpt>
<trkpt lat="53.203022" lon="-1.714366"><ele>307</ele><time>2020-01-31T14:04:15Z</time><name>PT12008</name></trkpt>
<trkpt lat="53.203012" lon="-1.714350"><ele>307</ele><time>2020-01-31T14:04:16Z</time><name>PT12009</name></trkpt>
<trkpt lat="53.203004" lon="-1.714335"><ele>307</ele><time>2020-01-31T14:04:18Z</time><name>PT12010</name></trkpt>
<trkpt lat="53.202996" lon="-1.714317"><ele>307</ele><time>2020-01-31T14:04:18Z</time><name>PT12011</name></trkpt>
<trkpt lat="53.202988" lon="-1.714298"><ele>307</ele><time>2020-01-31T14:04:19Z</time><name>PT12012</name></trkpt>
<trkpt lat="53.202980" lon="-1.714277"><ele>306</ele><time>2020-01-31T14:04:21Z</time><name>PT12013</name></trkpt>
<trkpt lat="53.202972" lon="-1.714258"><ele>306</ele><time>2020-01-31T14:04:21Z</time><name>PT12014</name></trkpt>
<trkpt lat="53.202963" lon="-1.714246"><ele>306</ele><time>2020-01-31T14:04:22Z</time><name>PT12015</name></trkpt>
<trkpt lat="53.202953" lon="-1.714233"><ele>306</ele><time>2020-01-31T14:04:24Z</time><name>PT12016</name></trkpt>
<trkpt lat="53.202944" lon="-1.714219"><ele>306</ele><time>2020-01-31T14:04:24Z</time><name>PT12017</name></trkpt>
<trkpt lat="53.202936" lon="-1.714205"><ele>305</ele><time>2020-01-31T14:04:25Z</time><name>PT12018</name></trkpt>
<trkpt lat="53.202927" lon="-1.714188"><ele>305</ele><time>2020-01-31T14:04:27Z</time><name>PT12019</name></trkpt>
<trkpt lat="53.202919" lon="-1.714171"><ele>305</ele><time>2020-01-31T14:04:27Z</time><name>PT12020</name></trkpt>
<trkpt lat="53.202914" lon="-1.714158"><ele>305</ele><time>2020-01-31T14:04:28Z</time><name>PT12021</name></trkpt>
<trkpt lat="53.202907" lon="-1.714142"><ele>305</ele><time>2020-01-31T14:04:30Z</time><name>PT12022</name></trkpt>
<trkpt lat="53.202898" lon="-1.714127"><ele>305</ele><time>2020-01-31T14:04:30Z</time><name>PT12023</name></trkpt>
<trkpt lat="53.202889" lon="-1.714114"><ele>305</ele><time>2020-01-31T14:04:31Z</time><name>PT12024</name></trkpt>
<trkpt lat="53.202880" lon="-1.714098"><ele>305</ele><time>2020-01-31T14:04:33Z</time><name>PT12025</name></trkpt>
<trkpt lat="53.202873" lon="-1.714082"><ele>305</ele><time>2020-01-31T14:04:33Z</time><name>PT12026</name></trkpt>
<trkpt lat="53.202864" lon="-1.714065"><ele>304</ele><time>2020-01-31T14:04:34Z</time><name>PT12027</name></trkpt>
<trkpt lat="53.202857" lon="-1.714048"><ele>304</ele><time>2020-01-31T14:04:36Z</time><name>PT12028</name></trkpt>
<trkpt lat="53.202848" lon="-1.714035"><ele>304</ele><time>2020-01-31T14:04:36Z</time><name>PT12029</name></trkpt>
<trkpt lat="53.202839" lon="-1.714023"><ele>304</ele><time>2020-01-31T14:04:37Z</time><name>PT12030</name></trkpt>
<trkpt lat="53.202830" lon="-1.714006"><ele>304</ele><time>2020-01-31T14:04:39Z</time><name>PT12031</name></trkpt>
<trkpt lat="53.202822" lon="-1.713991"><ele>304</ele><time>2020-01-31T14:04:39Z</time><name>PT12032</name></trkpt>
<trkpt lat="53.202813" lon="-1.713972"><ele>304</ele><time>2020-01-31T14:04:40Z</time><name>PT12033</name></trkpt>
<trkpt lat="53.202804" lon="-1.713949"><ele>304</ele><time>2020-01-31T14:04:42Z</time><name>PT12034</name></trkpt>
<trkpt lat="53.202795" lon="-1.713932"><ele>304</ele><time>2020-01-31T14:04:42Z</time><name>PT12035</name></trkpt>
<trkpt lat="53.202786" lon="-1.713918"><ele>304</ele><time>2020-01-31T14:04:43Z</time><name>PT12036</name></trkpt>
<trkpt lat="53.202776" lon="-1.713904"><ele>304</ele><time>2020-01-31T14:04:45Z</time><name>PT12037</name></trkpt>
<trkpt lat="53.202767" lon="-1.713890"><ele>303</ele><time>2020-01-31T14:04:45Z</time><name>PT12038</name></trkpt>
<trkpt lat="53.202759" lon="-1.713879"><ele>303</ele><time>2020-01-31T14:04:46Z</time><name>PT12039</name></trkpt>
<trkpt lat="53.202751" lon="-1.713868"><ele>303</ele><time>2020-01-31T14:04:48Z</time><name>PT12040</name></trkpt>
<trkpt lat="53.202744" lon="-1.713853"><ele>303</ele><time>2020-01-31T14:04:48Z</time><name>PT12041</name></trkpt>
<trkpt lat="53.202738" lon="-1.713838"><ele>302</ele><time>2020-01-31T14:04:49Z</time><name>PT12042</name></trkpt>
<trkpt lat="53.202730" lon="-1.713822"><ele>303</ele><time>2020-01-31T14:04:51Z</time><name>PT12043</name></trkpt>
<trkpt lat="53.202720" lon="-1.713807"><ele>303</ele><time>2020-01-31T14:04:51Z</time><name>PT12044</name></trkpt>
<trkpt lat="53.202712" lon="-1.713796"><ele>303</ele><time>2020-01-31T14:04:52Z</time><name>PT12045</name></trkpt>
<trkpt lat="53.202704" lon="-1.713780"><ele>303</ele><time>2020-01-31T14:04:54Z</time><name>PT12046</name></trkpt>
<trkpt lat="53.202695" lon="-1.713760"><ele>303</ele><time>2020-01-31T14:04:54Z</time><name>PT12047</name></trkpt>
<trkpt lat="53.202690" lon="-1.713744"><ele>302</ele><time>2020-01-31T14:04:55Z</time><name>PT12048</name></trkpt>
<trkpt lat="53.202682" lon="-1.713727"><ele>302</ele><time>2020-01-31T14:04:57Z</time><name>PT12049</name></trkpt>
<trkpt lat="53.202674" lon="-1.713713"><ele>302</ele><time>2020-01-31T14:04:57Z</time><name>PT12050</name></trkpt>
<trkpt lat="53.202665" lon="-1.713699"><ele>302</ele><time>2020-01-31T14:04:58Z</time><name>PT12051</name></trkpt>
<trkpt lat="53.202656" lon="-1.713684"><ele>302</ele><time>2020-01-31T14:05:00Z</time><name>PT12052</name></trkpt>
<trkpt lat="53.202649" lon="-1.713669"><ele>302</ele><time>2020-01-31T14:05:00Z</time><name>PT12053</name></trkpt>
<trkpt lat="53.202640" lon="-1.713652"><ele>302</ele><time>2020-01-31T14:05:01Z</time><name>PT12054</name></trkpt>
<trkpt lat="53.202632" lon="-1.713631"><ele>301</ele><time>2020-01-31T14:05:03Z</time><name>PT12055</name></trkpt>
<trkpt lat="53.202625" lon="-1.713610"><ele>302</ele><time>2020-01-31T14:05:03Z</time><name>PT12056</name></trkpt>
<trkpt lat="53.202618" lon="-1.713593"><ele>302</ele><time>2020-01-31T14:05:04Z</time><name>PT12057</name></trkpt>
<trkpt lat="53.202609" lon="-1.713575"><ele>302</ele><time>2020-01-31T14:05:06Z</time><name>PT12058</name></trkpt>
<trkpt lat="53.202600" lon="-1.713557"><ele>302</ele><time>2020-01-31T14:05:06Z</time><name>PT12059</name></trkpt>
<trkpt lat="53.202595" lon="-1.713543"><ele>302</ele><time>2020-01-31T14:05:07Z</time><name>PT12060</name></trkpt>
<trkpt lat="53.202587" lon="-1.713524"><ele>302</ele><time>2020-01-31T14:05:09Z</time><name>PT12061</name></trkpt>
<trkpt lat="53.202581" lon="-1.713499"><ele>302</ele><time>2020-01-31T14:05:09Z</time><name>PT12062</name></trkpt>
<trkpt lat="53.202576" lon="-1.713480"><ele>302</ele><time>2020-01-31T14:05:10Z</time><name>PT12063</name></trkpt>
<trkpt lat="53.202569" lon="-1.713463"><ele>302</ele><time>2020-01-31T14:05:12Z</time><name>PT12064</name></trkpt>
<trkpt lat="53.202561" lon="-1.713449"><ele>301</ele><time>2020-01-31T14:05:12Z</time><name>PT12065</name></trkpt>
<trkpt lat="53.202550" lon="-1.713432"><ele>301</ele><time>2020-01-31T14:05:13Z</time><name>PT12066</name></trkpt>
<trkpt lat="53.202542" lon="-1.713420"><ele>300</ele><time>2020-01-31T14:05:15Z</time><name>PT12067</name></trkpt>
<trkpt lat="53.202533" lon="-1.713400"><ele>300</ele><time>2020-01-31T14:05:15Z</time><name>PT12068</name></trkpt>
<trkpt lat="53.202525" lon="-1.713379"><ele>300</ele><time>2020-01-31T14:05:16Z</time><name>PT12069</name></trkpt>
<trkpt lat="53.202517" lon="-1.713361"><ele>300</ele><time>2020-01-31T14:05:18Z</time><name>PT12070</name></trkpt>
<trkpt lat="53.202509" lon="-1.713345"><ele>300</ele><time>2020-01-31T14:05:18Z</time><name>PT12071</name></trkpt>
<trkpt lat="53.202500" lon="-1.713328"><ele>300</ele><time>2020-01-31T14:05:19Z</time><name>PT12072</name></trkpt>
<trkpt lat="53.202491" lon="-1.713312"><ele>300</ele><time>2020-01-31T14:05:21Z</time><name>PT12073</name></trkpt>
<trkpt lat="53.202484" lon="-1.713297"><ele>300</ele><time>2020-01-31T14:05:21Z</time><name>PT12074</name></trkpt>
<trkpt lat="53.202476" lon="-1.713283"><ele>299</ele><time>2020-01-31T14:05:22Z</time><name>PT12075</name></trkpt>
<trkpt lat="53.202467" lon="-1.713268"><ele>299</ele><time>2020-01-31T14:05:24Z</time><name>PT12076</name></trkpt>
<trkpt lat="53.202459" lon="-1.713251"><ele>299</ele><time>2020-01-31T14:05:24Z</time><name>PT12077</name></trkpt>
<trkpt lat="53.202450" lon="-1.713234"><ele>298</ele><time>2020-01-31T14:05:25Z</time><name>PT12078</name></trkpt>
<trkpt lat="53.202441" lon="-1.713219"><ele>298</ele><time>2020-01-31T14:05:27Z</time><name>PT12079</name></trkpt>
<trkpt lat="53.202432" lon="-1.713202"><ele>298</ele><time>2020-01-31T14:05:27Z</time><name>PT12080</name></trkpt>
<trkpt lat="53.202421" lon="-1.713183"><ele>298</ele><time>2020-01-31T14:05:28Z</time><name>PT12081</name></trkpt>
<trkpt lat="53.202413" lon="-1.713165"><ele>298</ele><time>2020-01-31T14:05:30Z</time><name>PT12082</name></trkpt>
<trkpt lat="53.202405" lon="-1.713149"><ele>298</ele><time>2020-01-31T14:05:30Z</time><name>PT12083</name></trkpt>
<trkpt lat="53.202396" lon="-1.713129"><ele>298</ele><time>2020-01-31T14:05:31Z</time><name>PT12084</name></trkpt>
<trkpt lat="53.202388" lon="-1.713110"><ele>298</ele><time>2020-01-31T14:05:33Z</time><name>PT12085</name></trkpt>
<trkpt lat="53.202380" lon="-1.713092"><ele>298</ele><time>2020-01-31T14:05:33Z</time><name>PT12086</name></trkpt>
<trkpt lat="53.202372" lon="-1.713075"><ele>298</ele><time>2020-01-31T14:05:34Z</time><name>PT12087</name></trkpt>
<trkpt lat="53.202363" lon="-1.713062"><ele>298</ele><time>2020-01-31T14:05:36Z</time><name>PT12088</name></trkpt>
<trkpt lat="53.202353" lon="-1.713048"><ele>298</ele><time>2020-01-31T14:05:36Z</time><name>PT12089</name></trkpt>
<trkpt lat="53.202346" lon="-1.713033"><ele>298</ele><time>2020-01-31T14:05:37Z</time><name>PT12090</name></trkpt>
<trkpt lat="53.202338" lon="-1.713013"><ele>298</ele><time>2020-01-31T14:05:39Z</time><name>PT12091</name></trkpt>
<trkpt lat="53.202329" lon="-1.712992"><ele>299</ele><time>2020-01-31T14:05:39Z</time><name>PT12092</name></trkpt>
<trkpt lat="53.202321" lon="-1.712972"><ele>299</ele><time>2020-01-31T14:05:40Z</time><name>PT12093</name></trkpt>
<trkpt lat="53.202313" lon="-1.712958"><ele>298</ele><time>2020-01-31T14:05:42Z</time><name>PT12094</name></trkpt>
<trkpt lat="53.202304" lon="-1.712943"><ele>299</ele><time>2020-01-31T14:05:42Z</time><name>PT12095</name></trkpt>
<trkpt lat="53.202294" lon="-1.712924"><ele>299</ele><time>2020-01-31T14:05:43Z</time><name>PT12096</name></trkpt>
<trkpt lat="53.202284" lon="-1.712910"><ele>299</ele><time>2020-01-31T14:05:45Z</time><name>PT12097</name></trkpt>
<trkpt lat="53.202276" lon="-1.712894"><ele>299</ele><time>2020-01-31T14:05:45Z</time><name>PT12098</name></trkpt>
<trkpt lat="53.202268" lon="-1.712874"><ele>299</ele><time>2020-01-31T14:05:46Z</time><name>PT12099</name></trkpt>
<trkpt lat="53.202260" lon="-1.712853"><ele>299</ele><time>2020-01-31T14:05:48Z</time><name>PT12100</name></trkpt>
<trkpt lat="53.202252" lon="-1.712836"><ele>299</ele><time>2020-01-31T14:05:48Z</time><name>PT12101</name></trkpt>
<trkpt lat="53.202244" lon="-1.712821"><ele>299</ele><time>2020-01-31T14:05:49Z</time><name>PT12102</name></trkpt>
<trkpt lat="53.202236" lon="-1.712805"><ele>299</ele><time>2020-01-31T14:05:51Z</time><name>PT12103</name></trkpt>
<trkpt lat="53.202228" lon="-1.712787"><ele>299</ele><time>2020-01-31T14:05:51Z</time><name>PT12104</name></trkpt>
<trkpt lat="53.202220" lon="-1.712770"><ele>299</ele><time>2020-01-31T14:05:52Z</time><name>PT12105</name></trkpt>
<trkpt lat="53.202213" lon="-1.712755"><ele>299</ele><time>2020-01-31T14:05:53Z</time><name>PT12106</name></trkpt>
<trkpt lat="53.202206" lon="-1.712733"><ele>299</ele><time>2020-01-31T14:05:54Z</time><name>PT12107</name></trkpt>
<trkpt lat="53.202199" lon="-1.712715"><ele>299</ele><time>2020-01-31T14:05:55Z</time><name>PT12108</name></trkpt>
<trkpt lat="53.202192" lon="-1.712703"><ele>298</ele><time>2020-01-31T14:05:57Z</time><name>PT12109</name></trkpt>
<trkpt lat="53.202184" lon="-1.712689"><ele>298</ele><time>2020-01-31T14:05:57Z</time><name>PT12110</name></trkpt>
<trkpt lat="53.202176" lon="-1.712673"><ele>297</ele><time>2020-01-31T14:05:58Z</time><name>PT12111</name></trkpt>
<trkpt lat="53.202169" lon="-1.712656"><ele>297</ele><time>2020-01-31T14:06:00Z</time><name>PT12112</name></trkpt>
<trkpt lat="53.202162" lon="-1.712640"><ele>297</ele><time>2020-01-31T14:06:00Z</time><name>PT12113</name></trkpt>
<trkpt lat="53.202153" lon="-1.712616"><ele>297</ele><time>2020-01-31T14:06:01Z</time><name>PT12114</name></trkpt>
<trkpt lat="53.202144" lon="-1.712598"><ele>298</ele><time>2020-01-31T14:06:03Z</time><name>PT12115</name></trkpt>
<trkpt lat="53.202136" lon="-1.712584"><ele>297</ele><time>2020-01-31T14:06:03Z</time><name>PT12116</name></trkpt>
<trkpt lat="53.202127" lon="-1.712567"><ele>298</ele><time>2020-01-31T14:06:04Z</time><name>PT12117</name></trkpt>
<trkpt lat="53.202117" lon="-1.712551"><ele>298</ele><time>2020-01-31T14:06:06Z</time><name>PT12118</name></trkpt>
<trkpt lat="53.202109" lon="-1.712534"><ele>298</ele><time>2020-01-31T14:06:06Z</time><name>PT12119</name></trkpt>
<trkpt lat="53.202100" lon="-1.712517"><ele>298</ele><time>2020-01-31T14:06:07Z</time><name>PT12120</name></trkpt>
<trkpt lat="53.202090" lon="-1.712495"><ele>297</ele><time>2020-01-31T14:06:09Z</time><name>PT12121</name></trkpt>
<trkpt lat="53.202082" lon="-1.712474"><ele>297</ele><time>2020-01-31T14:06:09Z</time><name>PT12122</name></trkpt>
<trkpt lat="53.202074" lon="-1.712459"><ele>297</ele><time>2020-01-31T14:06:10Z</time><name>PT12123</name></trkpt>
<trkpt lat="53.202066" lon="-1.712443"><ele>297</ele><time>2020-01-31T14:06:12Z</time><name>PT12124</name></trkpt>
<trkpt lat="53.202059" lon="-1.712426"><ele>297</ele><time>2020-01-31T14:06:12Z</time><name>PT12125</name></trkpt>
<trkpt lat="53.202051" lon="-1.712409"><ele>297</ele><time>2020-01-31T14:06:13Z</time><name>PT12126</name></trkpt>
<trkpt lat="53.202044" lon="-1.712388"><ele>297</ele><time>2020-01-31T14:06:15Z</time><name>PT12127</name></trkpt>
<trkpt lat="53.202037" lon="-1.712366"><ele>298</ele><time>2020-01-31T14:06:15Z</time><name>PT12128</name></trkpt>
<trkpt lat="53.202030" lon="-1.712346"><ele>298</ele><time>2020-01-31T14:06:16Z</time><name>PT12129</name></trkpt>
<trkpt lat="53.202023" lon="-1.712333"><ele>298</ele><time>2020-01-31T14:06:18Z</time><name>PT12130</name></trkpt>
<trkpt lat="53.202014" lon="-1.712320"><ele>298</ele><time>2020-01-31T14:06:18Z</time><name>PT12131</name></trkpt>
<trkpt lat="53.202004" lon="-1.712304"><ele>298</ele><time>2020-01-31T14:06:19Z</time><name>PT12132</name></trkpt>
<trkpt lat="53.201995" lon="-1.712285"><ele>298</ele><time>2020-01-31T14:06:21Z</time><name>PT12133</name></trkpt>
<trkpt lat="53.201988" lon="-1.712263"><ele>298</ele><time>2020-01-31T14:06:21Z</time><name>PT12134</name></trkpt>
<trkpt lat="53.201979" lon="-1.712243"><ele>299</ele><time>2020-01-31T14:06:22Z</time><name>PT12135</name></trkpt>
<trkpt lat="53.201971" lon="-1.712225"><ele>298</ele><time>2020-01-31T14:06:24Z</time><name>PT12136</name></trkpt>
<trkpt lat="53.201963" lon="-1.712212"><ele>298</ele><time>2020-01-31T14:06:24Z</time><name>PT12137</name></trkpt>
<trkpt lat="53.201953" lon="-1.712201"><ele>298</ele><time>2020-01-31T14:06:25Z</time><name>PT12138</name></trkpt>
<trkpt lat="53.201943" lon="-1.712188"><ele>298</ele><time>2020-01-31T14:06:27Z</time><name>PT12139</name></trkpt>
<trkpt lat="53.201935" lon="-1.712174"><ele>298</ele><time>2020-01-31T14:06:27Z</time><name>PT12140</name></trkpt>
<trkpt lat="53.201928" lon="-1.712162"><ele>298</ele><time>2020-01-31T14:06:28Z</time><name>PT12141</name></trkpt>
<trkpt lat="53.201922" lon="-1.712145"><ele>298</ele><time>2020-01-31T14:06:30Z</time><name>PT12142</name></trkpt>
<trkpt lat="53.201917" lon="-1.712130"><ele>298</ele><time>2020-01-31T14:06:30Z</time><name>PT12143</name></trkpt>
<trkpt lat="53.201910" lon="-1.712120"><ele>297</ele><time>2020-01-31T14:06:31Z</time><name>PT12144</name></trkpt>
<trkpt lat="53.201901" lon="-1.712108"><ele>297</ele><time>2020-01-31T14:06:33Z</time><name>PT12145</name></trkpt>
<trkpt lat="53.201894" lon="-1.712094"><ele>297</ele><time>2020-01-31T14:06:33Z</time><name>PT12146</name></trkpt>
<trkpt lat="53.201885" lon="-1.712077"><ele>297</ele><time>2020-01-31T14:06:34Z</time><name>PT12147</name></trkpt>
<trkpt lat="53.201877" lon="-1.712061"><ele>297</ele><time>2020-01-31T14:06:36Z</time><name>PT12148</name></trkpt>
<trkpt lat="53.201871" lon="-1.712050"><ele>297</ele><time>2020-01-31T14:06:36Z</time><name>PT12149</name></trkpt>
<trkpt lat="53.201866" lon="-1.712046"><ele>296</ele><time>2020-01-31T14:06:37Z</time><name>PT12150</name></trkpt>
<trkpt lat="53.201860" lon="-1.712038"><ele>296</ele><time>2020-01-31T14:06:39Z</time><name>PT12151</name></trkpt>
<trkpt lat="53.201856" lon="-1.712029"><ele>296</ele><time>2020-01-31T14:06:39Z</time><name>PT12152</name></trkpt>
<trkpt lat="53.201853" lon="-1.712021"><ele>296</ele><time>2020-01-31T14:06:40Z</time><name>PT12153</name></trkpt>
<trkpt lat="53.201851" lon="-1.712004"><ele>296</ele><time>2020-01-31T14:06:42Z</time><name>PT12154</name></trkpt>
<trkpt lat="53.201853" lon="-1.711996"><ele>297</ele><time>2020-01-31T14:06:42Z</time><name>PT12155</name></trkpt>
<trkpt lat="53.201854" lon="-1.711993"><ele>297</ele><time>2020-01-31T14:06:43Z</time><name>PT12156</name></trkpt>
<trkpt lat="53.201854" lon="-1.711990"><ele>298</ele><time>2020-01-31T14:06:45Z</time><name>PT12157</name></trkpt>
<trkpt lat="53.201853" lon="-1.711983"><ele>298</ele><time>2020-01-31T14:06:45Z</time><name>PT12158</name></trkpt>
<trkpt lat="53.201853" lon="-1.711988"><ele>298</ele><time>2020-01-31T14:06:46Z</time><name>PT12159</name></trkpt>
<trkpt lat="53.201854" lon="-1.711982"><ele>297</ele><time>2020-01-31T14:06:51Z</time><name>PT12160</name></trkpt>
<trkpt lat="53.201854" lon="-1.711970"><ele>297</ele><time>2020-01-31T14:06:51Z</time><name>PT12161</name></trkpt>
<trkpt lat="53.201853" lon="-1.711961"><ele>297</ele><time>2020-01-31T14:06:52Z</time><name>PT12162</name></trkpt>
<trkpt lat="53.201853" lon="-1.711956"><ele>296</ele><time>2020-01-31T14:06:54Z</time><name>PT12163</name></trkpt>
<trkpt lat="53.201852" lon="-1.711949"><ele>296</ele><time>2020-01-31T14:06:54Z</time><name>PT12164</name></trkpt>
<trkpt lat="53.201847" lon="-1.711944"><ele>296</ele><time>2020-01-31T14:06:55Z</time><name>PT12165</name></trkpt>
<trkpt lat="53.201839" lon="-1.711939"><ele>296</ele><time>2020-01-31T14:06:56Z</time><name>PT12166</name></trkpt>
<trkpt lat="53.201831" lon="-1.711933"><ele>296</ele><time>2020-01-31T14:06:57Z</time><name>PT12167</name></trkpt>
<trkpt lat="53.201822" lon="-1.711914"><ele>297</ele><time>2020-01-31T14:06:58Z</time><name>PT12168</name></trkpt>
<trkpt lat="53.201817" lon="-1.711902"><ele>297</ele><time>2020-01-31T14:07:00Z</time><name>PT12169</name></trkpt>
<trkpt lat="53.201813" lon="-1.711891"><ele>297</ele><time>2020-01-31T14:07:00Z</time><name>PT12170</name></trkpt>
<trkpt lat="53.201808" lon="-1.711877"><ele>297</ele><time>2020-01-31T14:07:01Z</time><name>PT12171</name></trkpt>
<trkpt lat="53.201804" lon="-1.711864"><ele>297</ele><time>2020-01-31T14:07:03Z</time><name>PT12172</name></trkpt>
<trkpt lat="53.201797" lon="-1.711847"><ele>297</ele><time>2020-01-31T14:07:03Z</time><name>PT12173</name></trkpt>
<trkpt lat="53.201788" lon="-1.711834"><ele>297</ele><time>2020-01-31T14:07:04Z</time><name>PT12174</name></trkpt>
<trkpt lat="53.201778" lon="-1.711828"><ele>297</ele><time>2020-01-31T14:07:06Z</time><name>PT12175</name></trkpt>
<trkpt lat="53.201766" lon="-1.711810"><ele>298</ele><time>2020-01-31T14:07:06Z</time><name>PT12176</name></trkpt>
<trkpt lat="53.201761" lon="-1.711788"><ele>297</ele><time>2020-01-31T14:07:07Z</time><name>PT12177</name></trkpt>
<trkpt lat="53.201755" lon="-1.711767"><ele>297</ele><time>2020-01-31T14:07:09Z</time><name>PT12178</name></trkpt>
<trkpt lat="53.201748" lon="-1.711746"><ele>297</ele><time>2020-01-31T14:07:09Z</time><name>PT12179</name></trkpt>
<trkpt lat="53.201740" lon="-1.711726"><ele>297</ele><time>2020-01-31T14:07:10Z</time><name>PT12180</name></trkpt>
<trkpt lat="53.201732" lon="-1.711707"><ele>297</ele><time>2020-01-31T14:07:12Z</time><name>PT12181</name></trkpt>
<trkpt lat="53.201723" lon="-1.711691"><ele>297</ele><time>2020-01-31T14:07:12Z</time><name>PT12182</name></trkpt>
<trkpt lat="53.201715" lon="-1.711676"><ele>297</ele><time>2020-01-31T14:07:13Z</time><name>PT12183</name></trkpt>
<trkpt lat="53.201708" lon="-1.711660"><ele>297</ele><time>2020-01-31T14:07:15Z</time><name>PT12184</name></trkpt>
<trkpt lat="53.201701" lon="-1.711643"><ele>297</ele><time>2020-01-31T14:07:15Z</time><name>PT12185</name></trkpt>
<trkpt lat="53.201693" lon="-1.711628"><ele>297</ele><time>2020-01-31T14:07:16Z</time><name>PT12186</name></trkpt>
<trkpt lat="53.201684" lon="-1.711620"><ele>297</ele><time>2020-01-31T14:07:18Z</time><name>PT12187</name></trkpt>
<trkpt lat="53.201674" lon="-1.711604"><ele>297</ele><time>2020-01-31T14:07:18Z</time><name>PT12188</name></trkpt>
<trkpt lat="53.201666" lon="-1.711587"><ele>297</ele><time>2020-01-31T14:07:19Z</time><name>PT12189</name></trkpt>
<trkpt lat="53.201658" lon="-1.711567"><ele>297</ele><time>2020-01-31T14:07:21Z</time><name>PT12190</name></trkpt>
<trkpt lat="53.201650" lon="-1.711553"><ele>297</ele><time>2020-01-31T14:07:21Z</time><name>PT12191</name></trkpt>
<trkpt lat="53.201642" lon="-1.711542"><ele>297</ele><time>2020-01-31T14:07:22Z</time><name>PT12192</name></trkpt>
<trkpt lat="53.201634" lon="-1.711531"><ele>297</ele><time>2020-01-31T14:07:24Z</time><name>PT12193</name></trkpt>
<trkpt lat="53.201626" lon="-1.711519"><ele>297</ele><time>2020-01-31T14:07:24Z</time><name>PT12194</name></trkpt>
<trkpt lat="53.201616" lon="-1.711503"><ele>297</ele><time>2020-01-31T14:07:25Z</time><name>PT12195</name></trkpt>
<trkpt lat="53.201607" lon="-1.711485"><ele>297</ele><time>2020-01-31T14:07:27Z</time><name>PT12196</name></trkpt>
<trkpt lat="53.201598" lon="-1.711467"><ele>297</ele><time>2020-01-31T14:07:27Z</time><name>PT12197</name></trkpt>
<trkpt lat="53.201590" lon="-1.711449"><ele>298</ele><time>2020-01-31T14:07:28Z</time><name>PT12198</name></trkpt>
<trkpt lat="53.201584" lon="-1.711426"><ele>298</ele><time>2020-01-31T14:07:30Z</time><name>PT12199</name></trkpt>
<trkpt lat="53.201578" lon="-1.711406"><ele>298</ele><time>2020-01-31T14:07:30Z</time><name>PT12200</name></trkpt>
<trkpt lat="53.201570" lon="-1.711390"><ele>298</ele><time>2020-01-31T14:07:31Z</time><name>PT12201</name></trkpt>
<trkpt lat="53.201561" lon="-1.711376"><ele>298</ele><time>2020-01-31T14:07:33Z</time><name>PT12202</name></trkpt>
<trkpt lat="53.201550" lon="-1.711359"><ele>299</ele><time>2020-01-31T14:07:33Z</time><name>PT12203</name></trkpt>
<trkpt lat="53.201540" lon="-1.711347"><ele>299</ele><time>2020-01-31T14:07:34Z</time><name>PT12204</name></trkpt>
<trkpt lat="53.201531" lon="-1.711336"><ele>298</ele><time>2020-01-31T14:07:36Z</time><name>PT12205</name></trkpt>
<trkpt lat="53.201521" lon="-1.711321"><ele>299</ele><time>2020-01-31T14:07:36Z</time><name>PT12206</name></trkpt>
<trkpt lat="53.201513" lon="-1.711306"><ele>298</ele><time>2020-01-31T14:07:37Z</time><name>PT12207</name></trkpt>
<trkpt lat="53.201505" lon="-1.711297"><ele>298</ele><time>2020-01-31T14:07:39Z</time><name>PT12208</name></trkpt>
<trkpt lat="53.201495" lon="-1.711285"><ele>298</ele><time>2020-01-31T14:07:39Z</time><name>PT12209</name></trkpt>
<trkpt lat="53.201484" lon="-1.711273"><ele>298</ele><time>2020-01-31T14:07:40Z</time><name>PT12210</name></trkpt>
<trkpt lat="53.201476" lon="-1.711260"><ele>298</ele><time>2020-01-31T14:07:42Z</time><name>PT12211</name></trkpt>
<trkpt lat="53.201468" lon="-1.711242"><ele>298</ele><time>2020-01-31T14:07:42Z</time><name>PT12212</name></trkpt>
<trkpt lat="53.201461" lon="-1.711225"><ele>298</ele><time>2020-01-31T14:07:43Z</time><name>PT12213</name></trkpt>
<trkpt lat="53.201455" lon="-1.711209"><ele>298</ele><time>2020-01-31T14:07:45Z</time><name>PT12214</name></trkpt>
<trkpt lat="53.201448" lon="-1.711195"><ele>298</ele><time>2020-01-31T14:07:45Z</time><name>PT12215</name></trkpt>
<trkpt lat="53.201439" lon="-1.711185"><ele>298</ele><time>2020-01-31T14:07:46Z</time><name>PT12216</name></trkpt>
<trkpt lat="53.201431" lon="-1.711172"><ele>298</ele><time>2020-01-31T14:07:48Z</time><name>PT12217</name></trkpt>
<trkpt lat="53.201421" lon="-1.711160"><ele>298</ele><time>2020-01-31T14:07:48Z</time><name>PT12218</name></trkpt>
<trkpt lat="53.201412" lon="-1.711148"><ele>298</ele><time>2020-01-31T14:07:49Z</time><name>PT12219</name></trkpt>
<trkpt lat="53.201405" lon="-1.711133"><ele>297</ele><time>2020-01-31T14:07:51Z</time><name>PT12220</name></trkpt>
<trkpt lat="53.201397" lon="-1.711114"><ele>297</ele><time>2020-01-31T14:07:51Z</time><name>PT12221</name></trkpt>
<trkpt lat="53.201387" lon="-1.711093"><ele>297</ele><time>2020-01-31T14:07:52Z</time><name>PT12222</name></trkpt>
<trkpt lat="53.201377" lon="-1.711070"><ele>297</ele><time>2020-01-31T14:07:54Z</time><name>PT12223</name></trkpt>
<trkpt lat="53.201368" lon="-1.711055"><ele>297</ele><time>2020-01-31T14:07:54Z</time><name>PT12224</name></trkpt>
<trkpt lat="53.201358" lon="-1.711041"><ele>297</ele><time>2020-01-31T14:07:55Z</time><name>PT12225</name></trkpt>
<trkpt lat="53.201349" lon="-1.711024"><ele>297</ele><time>2020-01-31T14:07:57Z</time><name>PT12226</name></trkpt>
<trkpt lat="53.201341" lon="-1.711008"><ele>297</ele><time>2020-01-31T14:07:57Z</time><name>PT12227</name></trkpt>
<trkpt lat="53.201333" lon="-1.710990"><ele>297</ele><time>2020-01-31T14:07:58Z</time><name>PT12228</name></trkpt>
<trkpt lat="53.201326" lon="-1.710969"><ele>297</ele><time>2020-01-31T14:08:00Z</time><name>PT12229</name></trkpt>
<trkpt lat="53.201319" lon="-1.710949"><ele>297</ele><time>2020-01-31T14:08:00Z</time><name>PT12230</name></trkpt>
<trkpt lat="53.201311" lon="-1.710928"><ele>297</ele><time>2020-01-31T14:08:01Z</time><name>PT12231</name></trkpt>
<trkpt lat="53.201303" lon="-1.710914"><ele>297</ele><time>2020-01-31T14:08:03Z</time><name>PT12232</name></trkpt>
<trkpt lat="53.201294" lon="-1.710900"><ele>297</ele><time>2020-01-31T14:08:03Z</time><name>PT12233</name></trkpt>
<trkpt lat="53.201284" lon="-1.710882"><ele>297</ele><time>2020-01-31T14:08:04Z</time><name>PT12234</name></trkpt>
<trkpt lat="53.201275" lon="-1.710868"><ele>297</ele><time>2020-01-31T14:08:06Z</time><name>PT12235</name></trkpt>
<trkpt lat="53.201266" lon="-1.710851"><ele>297</ele><time>2020-01-31T14:08:06Z</time><name>PT12236</name></trkpt>
<trkpt lat="53.201257" lon="-1.710833"><ele>297</ele><time>2020-01-31T14:08:07Z</time><name>PT12237</name></trkpt>
<trkpt lat="53.201248" lon="-1.710816"><ele>297</ele><time>2020-01-31T14:08:09Z</time><name>PT12238</name></trkpt>
<trkpt lat="53.201240" lon="-1.710806"><ele>297</ele><time>2020-01-31T14:08:09Z</time><name>PT12239</name></trkpt>
<trkpt lat="53.201232" lon="-1.710793"><ele>297</ele><time>2020-01-31T14:08:10Z</time><name>PT12240</name></trkpt>
<trkpt lat="53.201224" lon="-1.710778"><ele>297</ele><time>2020-01-31T14:08:12Z</time><name>PT12241</name></trkpt>
<trkpt lat="53.201217" lon="-1.710763"><ele>297</ele><time>2020-01-31T14:08:12Z</time><name>PT12242</name></trkpt>
<trkpt lat="53.201210" lon="-1.710742"><ele>297</ele><time>2020-01-31T14:08:13Z</time><name>PT12243</name></trkpt>
<trkpt lat="53.201203" lon="-1.710722"><ele>297</ele><time>2020-01-31T14:08:15Z</time><name>PT12244</name></trkpt>
<trkpt lat="53.201196" lon="-1.710707"><ele>297</ele><time>2020-01-31T14:08:15Z</time><name>PT12245</name></trkpt>
<trkpt lat="53.201188" lon="-1.710696"><ele>297</ele><time>2020-01-31T14:08:16Z</time><name>PT12246</name></trkpt>
<trkpt lat="53.201179" lon="-1.710680"><ele>297</ele><time>2020-01-31T14:08:18Z</time><name>PT12247</name></trkpt>
<trkpt lat="53.201171" lon="-1.710666"><ele>297</ele><time>2020-01-31T14:08:18Z</time><name>PT12248</name></trkpt>
<trkpt lat="53.201164" lon="-1.710649"><ele>297</ele><time>2020-01-31T14:08:19Z</time><name>PT12249</name></trkpt>
<trkpt lat="53.201156" lon="-1.710627"><ele>297</ele><time>2020-01-31T14:08:21Z</time><name>PT12250</name></trkpt>
<trkpt lat="53.201149" lon="-1.710604"><ele>297</ele><time>2020-01-31T14:08:21Z</time><name>PT12251</name></trkpt>
<trkpt lat="53.201141" lon="-1.710587"><ele>297</ele><time>2020-01-31T14:08:22Z</time><name>PT12252</name></trkpt>
<trkpt lat="53.201132" lon="-1.710574"><ele>297</ele><time>2020-01-31T14:08:24Z</time><name>PT12253</name></trkpt>
<trkpt lat="53.201123" lon="-1.710560"><ele>297</ele><time>2020-01-31T14:08:24Z</time><name>PT12254</name></trkpt>
<trkpt lat="53.201115" lon="-1.710544"><ele>297</ele><time>2020-01-31T14:08:25Z</time><name>PT12255</name></trkpt>
<trkpt lat="53.201108" lon="-1.710527"><ele>297</ele><time>2020-01-31T14:08:27Z</time><name>PT12256</name></trkpt>
<trkpt lat="53.201101" lon="-1.710509"><ele>297</ele><time>2020-01-31T14:08:27Z</time><name>PT12257</name></trkpt>
<trkpt lat="53.201095" lon="-1.710493"><ele>297</ele><time>2020-01-31T14:08:28Z</time><name>PT12258</name></trkpt>
<trkpt lat="53.201090" lon="-1.710476"><ele>297</ele><time>2020-01-31T14:08:30Z</time><name>PT12259</name></trkpt>
<trkpt lat="53.201084" lon="-1.710464"><ele>297</ele><time>2020-01-31T14:08:30Z</time><name>PT12260</name></trkpt>
<trkpt lat="53.201076" lon="-1.710449"><ele>297</ele><time>2020-01-31T14:08:31Z</time><name>PT12261</name></trkpt>
<trkpt lat="53.201068" lon="-1.710433"><ele>297</ele><time>2020-01-31T14:08:33Z</time><name>PT12262</name></trkpt>
<trkpt lat="53.201060" lon="-1.710418"><ele>297</ele><time>2020-01-31T14:08:33Z</time><name>PT12263</name></trkpt>
<trkpt lat="53.201052" lon="-1.710399"><ele>297</ele><time>2020-01-31T14:08:34Z</time><name>PT12264</name></trkpt>
<trkpt lat="53.201047" lon="-1.710378"><ele>297</ele><time>2020-01-31T14:08:36Z</time><name>PT12265</name></trkpt>
<trkpt lat="53.201041" lon="-1.710361"><ele>297</ele><time>2020-01-31T14:08:36Z</time><name>PT12266</name></trkpt>
<trkpt lat="53.201032" lon="-1.710346"><ele>297</ele><time>2020-01-31T14:08:37Z</time><name>PT12267</name></trkpt>
<trkpt lat="53.201023" lon="-1.710332"><ele>297</ele><time>2020-01-31T14:08:39Z</time><name>PT12268</name></trkpt>
<trkpt lat="53.201014" lon="-1.710316"><ele>298</ele><time>2020-01-31T14:08:39Z</time><name>PT12269</name></trkpt>
<trkpt lat="53.201006" lon="-1.710300"><ele>297</ele><time>2020-01-31T14:08:40Z</time><name>PT12270</name></trkpt>
<trkpt lat="53.200998" lon="-1.710283"><ele>297</ele><time>2020-01-31T14:08:42Z</time><name>PT12271</name></trkpt>
<trkpt lat="53.200991" lon="-1.710262"><ele>297</ele><time>2020-01-31T14:08:42Z</time><name>PT12272</name></trkpt>
<trkpt lat="53.200983" lon="-1.710243"><ele>297</ele><time>2020-01-31T14:08:43Z</time><name>PT12273</name></trkpt>
<trkpt lat="53.200975" lon="-1.710228"><ele>297</ele><time>2020-01-31T14:08:44Z</time><name>PT12274</name></trkpt>
<trkpt lat="53.200966" lon="-1.710214"><ele>297</ele><time>2020-01-31T14:08:45Z</time><name>PT12275</name></trkpt>
<trkpt lat="53.200958" lon="-1.710197"><ele>297</ele><time>2020-01-31T14:08:46Z</time><name>PT12276</name></trkpt>
<trkpt lat="53.200950" lon="-1.710179"><ele>297</ele><time>2020-01-31T14:08:48Z</time><name>PT12277</name></trkpt>
<trkpt lat="53.200941" lon="-1.710159"><ele>297</ele><time>2020-01-31T14:08:48Z</time><name>PT12278</name></trkpt>
<trkpt lat="53.200934" lon="-1.710142"><ele>297</ele><time>2020-01-31T14:08:49Z</time><name>PT12279</name></trkpt>
<trkpt lat="53.200927" lon="-1.710127"><ele>297</ele><time>2020-01-31T14:08:51Z</time><name>PT12280</name></trkpt>
<trkpt lat="53.200918" lon="-1.710111"><ele>297</ele><time>2020-01-31T14:08:51Z</time><name>PT12281</name></trkpt>
<trkpt lat="53.200908" lon="-1.710093"><ele>298</ele><time>2020-01-31T14:08:52Z</time><name>PT12282</name></trkpt>
<trkpt lat="53.200900" lon="-1.710078"><ele>297</ele><time>2020-01-31T14:08:54Z</time><name>PT12283</name></trkpt>
<trkpt lat="53.200892" lon="-1.710061"><ele>297</ele><time>2020-01-31T14:08:54Z</time><name>PT12284</name></trkpt>
<trkpt lat="53.200883" lon="-1.710045"><ele>297</ele><time>2020-01-31T14:08:55Z</time><name>PT12285</name></trkpt>
<trkpt lat="53.200875" lon="-1.710025"><ele>297</ele><time>2020-01-31T14:08:57Z</time><name>PT12286</name></trkpt>
<trkpt lat="53.200867" lon="-1.710009"><ele>297</ele><time>2020-01-31T14:08:57Z</time><name>PT12287</name></trkpt>
<trkpt lat="53.200859" lon="-1.709995"><ele>297</ele><time>2020-01-31T14:08:58Z</time><name>PT12288</name></trkpt>
<trkpt lat="53.200849" lon="-1.709982"><ele>297</ele><time>2020-01-31T14:09:00Z</time><name>PT12289</name></trkpt>
<trkpt lat="53.200839" lon="-1.709964"><ele>297</ele><time>2020-01-31T14:09:00Z</time><name>PT12290</name></trkpt>
<trkpt lat="53.200829" lon="-1.709947"><ele>297</ele><time>2020-01-31T14:09:01Z</time><name>PT12291</name></trkpt>
<trkpt lat="53.200820" lon="-1.709930"><ele>297</ele><time>2020-01-31T14:09:03Z</time><name>PT12292</name></trkpt>
<trkpt lat="53.200811" lon="-1.709914"><ele>297</ele><time>2020-01-31T14:09:03Z</time><name>PT12293</name></trkpt>
<trkpt lat="53.200802" lon="-1.709897"><ele>297</ele><time>2020-01-31T14:09:04Z</time><name>PT12294</name></trkpt>
<trkpt lat="53.200793" lon="-1.709880"><ele>297</ele><time>2020-01-31T14:09:06Z</time><name>PT12295</name></trkpt>
<trkpt lat="53.200786" lon="-1.709864"><ele>297</ele><time>2020-01-31T14:09:06Z</time><name>PT12296</name></trkpt>
<trkpt lat="53.200777" lon="-1.709853"><ele>296</ele><time>2020-01-31T14:09:07Z</time><name>PT12297</name></trkpt>
<trkpt lat="53.200766" lon="-1.709836"><ele>297</ele><time>2020-01-31T14:09:09Z</time><name>PT12298</name></trkpt>
<trkpt lat="53.200756" lon="-1.709819"><ele>297</ele><time>2020-01-31T14:09:09Z</time><name>PT12299</name></trkpt>
<trkpt lat="53.200748" lon="-1.709799"><ele>297</ele><time>2020-01-31T14:09:10Z</time><name>PT12300</name></trkpt>
<trkpt lat="53.200741" lon="-1.709780"><ele>297</ele><time>2020-01-31T14:09:12Z</time><name>PT12301</name></trkpt>
<trkpt lat="53.200731" lon="-1.709760"><ele>297</ele><time>2020-01-31T14:09:12Z</time><name>PT12302</name></trkpt>
<trkpt lat="53.200723" lon="-1.709742"><ele>297</ele><time>2020-01-31T14:09:13Z</time><name>PT12303</name></trkpt>
<trkpt lat="53.200716" lon="-1.709727"><ele>297</ele><time>2020-01-31T14:09:15Z</time><name>PT12304</name></trkpt>
<trkpt lat="53.200707" lon="-1.709715"><ele>297</ele><time>2020-01-31T14:09:15Z</time><name>PT12305</name></trkpt>
<trkpt lat="53.200697" lon="-1.709699"><ele>297</ele><time>2020-01-31T14:09:16Z</time><name>PT12306</name></trkpt>
<trkpt lat="53.200689" lon="-1.709682"><ele>297</ele><time>2020-01-31T14:09:18Z</time><name>PT12307</name></trkpt>
<trkpt lat="53.200681" lon="-1.709669"><ele>298</ele><time>2020-01-31T14:09:18Z</time><name>PT12308</name></trkpt>
<trkpt lat="53.200672" lon="-1.709651"><ele>298</ele><time>2020-01-31T14:09:19Z</time><name>PT12309</name></trkpt>
<trkpt lat="53.200664" lon="-1.709628"><ele>298</ele><time>2020-01-31T14:09:21Z</time><name>PT12310</name></trkpt>
<trkpt lat="53.200657" lon="-1.709610"><ele>298</ele><time>2020-01-31T14:09:21Z</time><name>PT12311</name></trkpt>
<trkpt lat="53.200649" lon="-1.709597"><ele>298</ele><time>2020-01-31T14:09:22Z</time><name>PT12312</name></trkpt>
<trkpt lat="53.200641" lon="-1.709581"><ele>298</ele><time>2020-01-31T14:09:24Z</time><name>PT12313</name></trkpt>
<trkpt lat="53.200633" lon="-1.709566"><ele>298</ele><time>2020-01-31T14:09:24Z</time><name>PT12314</name></trkpt>
<trkpt lat="53.200625" lon="-1.709550"><ele>298</ele><time>2020-01-31T14:09:25Z</time><name>PT12315</name></trkpt>
<trkpt lat="53.200616" lon="-1.709530"><ele>297</ele><time>2020-01-31T14:09:27Z</time><name>PT12316</name></trkpt>
<trkpt lat="53.200606" lon="-1.709509"><ele>297</ele><time>2020-01-31T14:09:27Z</time><name>PT12317</name></trkpt>
<trkpt lat="53.200599" lon="-1.709493"><ele>297</ele><time>2020-01-31T14:09:28Z</time><name>PT12318</name></trkpt>
<trkpt lat="53.200591" lon="-1.709475"><ele>297</ele><time>2020-01-31T14:09:30Z</time><name>PT12319</name></trkpt>
<trkpt lat="53.200582" lon="-1.709460"><ele>297</ele><time>2020-01-31T14:09:30Z</time><name>PT12320</name></trkpt>
<trkpt lat="53.200572" lon="-1.709446"><ele>297</ele><time>2020-01-31T14:09:31Z</time><name>PT12321</name></trkpt>
<trkpt lat="53.200563" lon="-1.709429"><ele>297</ele><time>2020-01-31T14:09:33Z</time><name>PT12322</name></trkpt>
<trkpt lat="53.200555" lon="-1.709410"><ele>298</ele><time>2020-01-31T14:09:33Z</time><name>PT12323</name></trkpt>
<trkpt lat="53.200547" lon="-1.709394"><ele>298</ele><time>2020-01-31T14:09:34Z</time><name>PT12324</name></trkpt>
<trkpt lat="53.200539" lon="-1.709376"><ele>298</ele><time>2020-01-31T14:09:36Z</time><name>PT12325</name></trkpt>
<trkpt lat="53.200533" lon="-1.709359"><ele>298</ele><time>2020-01-31T14:09:36Z</time><name>PT12326</name></trkpt>
<trkpt lat="53.200526" lon="-1.709342"><ele>298</ele><time>2020-01-31T14:09:37Z</time><name>PT12327</name></trkpt>
<trkpt lat="53.200520" lon="-1.709333"><ele>298</ele><time>2020-01-31T14:09:39Z</time><name>PT12328</name></trkpt>
<trkpt lat="53.200512" lon="-1.709318"><ele>298</ele><time>2020-01-31T14:09:39Z</time><name>PT12329</name></trkpt>
<trkpt lat="53.200504" lon="-1.709297"><ele>298</ele><time>2020-01-31T14:09:40Z</time><name>PT12330</name></trkpt>
<trkpt lat="53.200498" lon="-1.709280"><ele>298</ele><time>2020-01-31T14:09:42Z</time><name>PT12331</name></trkpt>
<trkpt lat="53.200492" lon="-1.709262"><ele>298</ele><time>2020-01-31T14:09:42Z</time><name>PT12332</name></trkpt>
<trkpt lat="53.200484" lon="-1.709241"><ele>297</ele><time>2020-01-31T14:09:43Z</time><name>PT12333</name></trkpt>
<trkpt lat="53.200476" lon="-1.709225"><ele>297</ele><time>2020-01-31T14:09:45Z</time><name>PT12334</name></trkpt>
<trkpt lat="53.200467" lon="-1.709210"><ele>297</ele><time>2020-01-31T14:09:45Z</time><name>PT12335</name></trkpt>
<trkpt lat="53.200457" lon="-1.709196"><ele>297</ele><time>2020-01-31T14:09:46Z</time><name>PT12336</name></trkpt>
<trkpt lat="53.200449" lon="-1.709180"><ele>297</ele><time>2020-01-31T14:09:48Z</time><name>PT12337</name></trkpt>
<trkpt lat="53.200441" lon="-1.709164"><ele>297</ele><time>2020-01-31T14:09:48Z</time><name>PT12338</name></trkpt>
<trkpt lat="53.200432" lon="-1.709146"><ele>297</ele><time>2020-01-31T14:09:49Z</time><name>PT12339</name></trkpt>
<trkpt lat="53.200424" lon="-1.709127"><ele>297</ele><time>2020-01-31T14:09:51Z</time><name>PT12340</name></trkpt>
<trkpt lat="53.200416" lon="-1.709108"><ele>297</ele><time>2020-01-31T14:09:51Z</time><name>PT12341</name></trkpt>
<trkpt lat="53.200409" lon="-1.709093"><ele>297</ele><time>2020-01-31T14:09:52Z</time><name>PT12342</name></trkpt>
<trkpt lat="53.200399" lon="-1.709075"><ele>297</ele><time>2020-01-31T14:09:54Z</time><name>PT12343</name></trkpt>
<trkpt lat="53.200390" lon="-1.709058"><ele>296</ele><time>2020-01-31T14:09:54Z</time><name>PT12344</name></trkpt>
<trkpt lat="53.200382" lon="-1.709042"><ele>297</ele><time>2020-01-31T14:09:55Z</time><name>PT12345</name></trkpt>
<trkpt lat="53.200375" lon="-1.709023"><ele>297</ele><time>2020-01-31T14:09:57Z</time><name>PT12346</name></trkpt>
<trkpt lat="53.200368" lon="-1.709002"><ele>297</ele><time>2020-01-31T14:09:57Z</time><name>PT12347</name></trkpt>
<trkpt lat="53.200361" lon="-1.708988"><ele>297</ele><time>2020-01-31T14:09:58Z</time><name>PT12348</name></trkpt>
<trkpt lat="53.200354" lon="-1.708971"><ele>297</ele><time>2020-01-31T14:10:00Z</time><name>PT12349</name></trkpt>
<trkpt lat="53.200347" lon="-1.708956"><ele>297</ele><time>2020-01-31T14:10:00Z</time><name>PT12350</name></trkpt>
<trkpt lat="53.200337" lon="-1.708940"><ele>297</ele><time>2020-01-31T14:10:01Z</time><name>PT12351</name></trkpt>
<trkpt lat="53.200328" lon="-1.708922"><ele>297</ele><time>2020-01-31T14:10:03Z</time><name>PT12352</name></trkpt>
<trkpt lat="53.200321" lon="-1.708908"><ele>297</ele><time>2020-01-31T14:10:03Z</time><name>PT12353</name></trkpt>
<trkpt lat="53.200314" lon="-1.708889"><ele>297</ele><time>2020-01-31T14:10:04Z</time><name>PT12354</name></trkpt>
<trkpt lat="53.200308" lon="-1.708872"><ele>297</ele><time>2020-01-31T14:10:06Z</time><name>PT12355</name></trkpt>
<trkpt lat="53.200300" lon="-1.708858"><ele>297</ele><time>2020-01-31T14:10:06Z</time><name>PT12356</name></trkpt>
<trkpt lat="53.200291" lon="-1.708844"><ele>297</ele><time>2020-01-31T14:10:07Z</time><name>PT12357</name></trkpt>
<trkpt lat="53.200282" lon="-1.708828"><ele>297</ele><time>2020-01-31T14:10:09Z</time><name>PT12358</name></trkpt>
<trkpt lat="53.200274" lon="-1.708811"><ele>297</ele><time>2020-01-31T14:10:09Z</time><name>PT12359</name></trkpt>
<trkpt lat="53.200269" lon="-1.708799"><ele>297</ele><time>2020-01-31T14:10:10Z</time><name>PT12360</name></trkpt>
<trkpt lat="53.200263" lon="-1.708794"><ele>297</ele><time>2020-01-31T14:10:12Z</time><name>PT12361</name></trkpt>
<trkpt lat="53.200262" lon="-1.708786"><ele>298</ele><time>2020-01-31T14:10:12Z</time><name>PT12362</name></trkpt>
<trkpt lat="53.200261" lon="-1.708780"><ele>298</ele><time>2020-01-31T14:10:13Z</time><name>PT12363</name></trkpt>
<trkpt lat="53.200261" lon="-1.708778"><ele>298</ele><time>2020-01-31T14:10:15Z</time><name>PT12364</name></trkpt>
<trkpt lat="53.200256" lon="-1.708769"><ele>298</ele><time>2020-01-31T14:10:15Z</time><name>PT12365</name></trkpt>
<trkpt lat="53.200250" lon="-1.708751"><ele>297</ele><time>2020-01-31T14:10:16Z</time><name>PT12366</name></trkpt>
<trkpt lat="53.200243" lon="-1.708728"><ele>297</ele><time>2020-01-31T14:10:18Z</time><name>PT12367</name></trkpt>
<trkpt lat="53.200235" lon="-1.708708"><ele>298</ele><time>2020-01-31T14:10:18Z</time><name>PT12368</name></trkpt>
<trkpt lat="53.200226" lon="-1.708681"><ele>298</ele><time>2020-01-31T14:10:19Z</time><name>PT12369</name></trkpt>
<trkpt lat="53.200218" lon="-1.708664"><ele>298</ele><time>2020-01-31T14:10:21Z</time><name>PT12370</name></trkpt>
<trkpt lat="53.200210" lon="-1.708648"><ele>298</ele><time>2020-01-31T14:10:21Z</time><name>PT12371</name></trkpt>
<trkpt lat="53.200203" lon="-1.708636"><ele>298</ele><time>2020-01-31T14:10:22Z</time><name>PT12372</name></trkpt>
<trkpt lat="53.200199" lon="-1.708625"><ele>298</ele><time>2020-01-31T14:10:24Z</time><name>PT12373</name></trkpt>
<trkpt lat="53.200197" lon="-1.708618"><ele>298</ele><time>2020-01-31T14:10:24Z</time><name>PT12374</name></trkpt>
<trkpt lat="53.200196" lon="-1.708613"><ele>298</ele><time>2020-01-31T14:10:25Z</time><name>PT12375</name></trkpt>
<trkpt lat="53.200195" lon="-1.708611"><ele>299</ele><time>2020-01-31T14:10:27Z</time><name>PT12376</name></trkpt>
<trkpt lat="53.200195" lon="-1.708609"><ele>299</ele><time>2020-01-31T14:10:27Z</time><name>PT12377</name></trkpt>
<trkpt lat="53.200195" lon="-1.708609"><ele>299</ele><time>2020-01-31T14:10:28Z</time><name>PT12378</name></trkpt>
<trkpt lat="53.200194" lon="-1.708605"><ele>299</ele><time>2020-01-31T14:10:34Z</time><name>PT12379</name></trkpt>
<trkpt lat="53.200196" lon="-1.708598"><ele>298</ele><time>2020-01-31T14:10:36Z</time><name>PT12380</name></trkpt>
<trkpt lat="53.200195" lon="-1.708590"><ele>298</ele><time>2020-01-31T14:10:36Z</time><name>PT12381</name></trkpt>
<trkpt lat="53.200192" lon="-1.708579"><ele>298</ele><time>2020-01-31T14:10:37Z</time><name>PT12382</name></trkpt>
<trkpt lat="53.200192" lon="-1.708574"><ele>298</ele><time>2020-01-31T14:10:39Z</time><name>PT12383</name></trkpt>
<trkpt lat="53.200193" lon="-1.708573"><ele>298</ele><time>2020-01-31T14:10:39Z</time><name>PT12384</name></trkpt>
<trkpt lat="53.200193" lon="-1.708573"><ele>298</ele><time>2020-01-31T14:10:40Z</time><name>PT12385</name></trkpt>
<trkpt lat="53.200192" lon="-1.708566"><ele>298</ele><time>2020-01-31T14:10:42Z</time><name>PT12386</name></trkpt>
<trkpt lat="53.200186" lon="-1.708557"><ele>298</ele><time>2020-01-31T14:10:43Z</time><name>PT12387</name></trkpt>
<trkpt lat="53.200183" lon="-1.708556"><ele>297</ele><time>2020-01-31T14:10:45Z</time><name>PT12388</name></trkpt>
<trkpt lat="53.200179" lon="-1.708557"><ele>297</ele><time>2020-01-31T14:10:45Z</time><name>PT12389</name></trkpt>
<trkpt lat="53.200176" lon="-1.708550"><ele>298</ele><time>2020-01-31T14:10:46Z</time><name>PT12390</name></trkpt>
<trkpt lat="53.200175" lon="-1.708544"><ele>298</ele><time>2020-01-31T14:10:48Z</time><name>PT12391</name></trkpt>
<trkpt lat="53.200173" lon="-1.708532"><ele>297</ele><time>2020-01-31T14:10:48Z</time><name>PT12392</name></trkpt>
<trkpt lat="53.200170" lon="-1.708527"><ele>297</ele><time>2020-01-31T14:10:49Z</time><name>PT12393</name></trkpt>
<trkpt lat="53.200163" lon="-1.708518"><ele>297</ele><time>2020-01-31T14:10:51Z</time><name>PT12394</name></trkpt>
<trkpt lat="53.200158" lon="-1.708510"><ele>297</ele><time>2020-01-31T14:10:51Z</time><name>PT12395</name></trkpt>
<trkpt lat="53.200149" lon="-1.708504"><ele>298</ele><time>2020-01-31T14:10:52Z</time><name>PT12396</name></trkpt>
<trkpt lat="53.200139" lon="-1.708504"><ele>298</ele><time>2020-01-31T14:10:54Z</time><name>PT12397</name></trkpt>
<trkpt lat="53.200128" lon="-1.708501"><ele>298</ele><time>2020-01-31T14:10:54Z</time><name>PT12398</name></trkpt>
<trkpt lat="53.200117" lon="-1.708498"><ele>298</ele><time>2020-01-31T14:10:55Z</time><name>PT12399</name></trkpt>
<trkpt lat="53.200107" lon="-1.708494"><ele>298</ele><time>2020-01-31T14:10:57Z</time><name>PT12400</name></trkpt>
<trkpt lat="53.200097" lon="-1.708488"><ele>298</ele><time>2020-01-31T14:10:57Z</time><name>PT12401</name></trkpt>
<trkpt lat="53.200087" lon="-1.708483"><ele>298</ele><time>2020-01-31T14:10:58Z</time><name>PT12402</name></trkpt>
<trkpt lat="53.200075" lon="-1.708478"><ele>298</ele><time>2020-01-31T14:11:00Z</time><name>PT12403</name></trkpt>
<trkpt lat="53.200064" lon="-1.708474"><ele>298</ele><time>2020-01-31T14:11:00Z</time><name>PT12404</name></trkpt>
<trkpt lat="53.200052" lon="-1.708467"><ele>298</ele><time>2020-01-31T14:11:01Z</time><name>PT12405</name></trkpt>
<trkpt lat="53.200042" lon="-1.708458"><ele>298</ele><time>2020-01-31T14:11:03Z</time><name>PT12406</name></trkpt>
<trkpt lat="53.200032" lon="-1.708451"><ele>298</ele><time>2020-01-31T14:11:03Z</time><name>PT12407</name></trkpt>
<trkpt lat="53.200024" lon="-1.708443"><ele>297</ele><time>2020-01-31T14:11:04Z</time><name>PT12408</name></trkpt>
<trkpt lat="53.200016" lon="-1.708434"><ele>297</ele><time>2020-01-31T14:11:06Z</time><name>PT12409</name></trkpt>
<trkpt lat="53.200006" lon="-1.708429"><ele>298</ele><time>2020-01-31T14:11:06Z</time><name>PT12410</name></trkpt>
<trkpt lat="53.199995" lon="-1.708426"><ele>298</ele><time>2020-01-31T14:11:07Z</time><name>PT12411</name></trkpt>
<trkpt lat="53.199983" lon="-1.708420"><ele>298</ele><time>2020-01-31T14:11:09Z</time><name>PT12412</name></trkpt>
<trkpt lat="53.199972" lon="-1.708413"><ele>298</ele><time>2020-01-31T14:11:09Z</time><name>PT12413</name></trkpt>
<trkpt lat="53.199961" lon="-1.708407"><ele>297</ele><time>2020-01-31T14:11:10Z</time><name>PT12414</name></trkpt>
<trkpt lat="53.199950" lon="-1.708402"><ele>297</ele><time>2020-01-31T14:11:12Z</time><name>PT12415</name></trkpt>
<trkpt lat="53.199939" lon="-1.708398"><ele>297</ele><time>2020-01-31T14:11:12Z</time><name>PT12416</name></trkpt>
<trkpt lat="53.199928" lon="-1.708387"><ele>297</ele><time>2020-01-31T14:11:13Z</time><name>PT12417</name></trkpt>
<trkpt lat="53.199918" lon="-1.708374"><ele>298</ele><time>2020-01-31T14:11:15Z</time><name>PT12418</name></trkpt>
<trkpt lat="53.199906" lon="-1.708366"><ele>298</ele><time>2020-01-31T14:11:15Z</time><name>PT12419</name></trkpt>
<trkpt lat="53.199895" lon="-1.708362"><ele>298</ele><time>2020-01-31T14:11:16Z</time><name>PT12420</name></trkpt>
<trkpt lat="53.199883" lon="-1.708359"><ele>298</ele><time>2020-01-31T14:11:18Z</time><name>PT12421</name></trkpt>
<trkpt lat="53.199873" lon="-1.708354"><ele>297</ele><time>2020-01-31T14:11:18Z</time><name>PT12422</name></trkpt>
<trkpt lat="53.199863" lon="-1.708345"><ele>297</ele><time>2020-01-31T14:11:19Z</time><name>PT12423</name></trkpt>
<trkpt lat="53.199853" lon="-1.708336"><ele>297</ele><time>2020-01-31T14:11:21Z</time><name>PT12424</name></trkpt>
<trkpt lat="53.199844" lon="-1.708328"><ele>298</ele><time>2020-01-31T14:11:21Z</time><name>PT12425</name></trkpt>
<trkpt lat="53.199835" lon="-1.708323"><ele>297</ele><time>2020-01-31T14:11:22Z</time><name>PT12426</name></trkpt>
<trkpt lat="53.199824" lon="-1.708320"><ele>297</ele><time>2020-01-31T14:11:24Z</time><name>PT12427</name></trkpt>
<trkpt lat="53.199815" lon="-1.708315"><ele>297</ele><time>2020-01-31T14:11:24Z</time><name>PT12428</name></trkpt>
<trkpt lat="53.199797" lon="-1.708307"><ele>297</ele><time>2020-01-31T14:11:26Z</time><name>PT12429</name></trkpt>
<trkpt lat="53.199779" lon="-1.708297"><ele>297</ele><time>2020-01-31T14:11:27Z</time><name>PT12430</name></trkpt>
<trkpt lat="53.199767" lon="-1.708283"><ele>297</ele><time>2020-01-31T14:11:27Z</time><name>PT12431</name></trkpt>
<trkpt lat="53.199758" lon="-1.708274"><ele>298</ele><time>2020-01-31T14:11:28Z</time><name>PT12432</name></trkpt>
<trkpt lat="53.199749" lon="-1.708264"><ele>297</ele><time>2020-01-31T14:11:30Z</time><name>PT12433</name></trkpt>
<trkpt lat="53.199744" lon="-1.708259"><ele>297</ele><time>2020-01-31T14:11:30Z</time><name>PT12434</name></trkpt>
<trkpt lat="53.199734" lon="-1.708256"><ele>299</ele><time>2020-01-31T14:11:31Z</time><name>PT12435</name></trkpt>
<trkpt lat="53.199724" lon="-1.708249"><ele>299</ele><time>2020-01-31T14:11:33Z</time><name>PT12436</name></trkpt>
<trkpt lat="53.199714" lon="-1.708243"><ele>299</ele><time>2020-01-31T14:11:33Z</time><name>PT12437</name></trkpt>
<trkpt lat="53.199705" lon="-1.708240"><ele>298</ele><time>2020-01-31T14:11:34Z</time><name>PT12438</name></trkpt>
<trkpt lat="53.199696" lon="-1.708242"><ele>298</ele><time>2020-01-31T14:11:36Z</time><name>PT12439</name></trkpt>
<trkpt lat="53.199686" lon="-1.708240"><ele>298</ele><time>2020-01-31T14:11:36Z</time><name>PT12440</name></trkpt>
<trkpt lat="53.199677" lon="-1.708234"><ele>298</ele><time>2020-01-31T14:11:37Z</time><name>PT12441</name></trkpt>
<trkpt lat="53.199666" lon="-1.708228"><ele>298</ele><time>2020-01-31T14:11:39Z</time><name>PT12442</name></trkpt>
<trkpt lat="53.199655" lon="-1.708222"><ele>298</ele><time>2020-01-31T14:11:39Z</time><name>PT12443</name></trkpt>
<trkpt lat="53.199650" lon="-1.708219"><ele>298</ele><time>2020-01-31T14:11:41Z</time><name>PT12444</name></trkpt>
<trkpt lat="53.199646" lon="-1.708209"><ele>298</ele><time>2020-01-31T14:11:42Z</time><name>PT12445</name></trkpt>
<trkpt lat="53.199643" lon="-1.708202"><ele>298</ele><time>2020-01-31T14:11:42Z</time><name>PT12446</name></trkpt>
<trkpt lat="53.199639" lon="-1.708199"><ele>298</ele><time>2020-01-31T14:11:43Z</time><name>PT12447</name></trkpt>
<trkpt lat="53.199625" lon="-1.708199"><ele>299</ele><time>2020-01-31T14:11:45Z</time><name>PT12448</name></trkpt>
<trkpt lat="53.199611" lon="-1.708190"><ele>299</ele><time>2020-01-31T14:11:45Z</time><name>PT12449</name></trkpt>
<trkpt lat="53.199608" lon="-1.708178"><ele>299</ele><time>2020-01-31T14:11:46Z</time><name>PT12450</name></trkpt>
<trkpt lat="53.199607" lon="-1.708168"><ele>299</ele><time>2020-01-31T14:11:48Z</time><name>PT12451</name></trkpt>
<trkpt lat="53.199603" lon="-1.708161"><ele>299</ele><time>2020-01-31T14:11:48Z</time><name>PT12452</name></trkpt>
<trkpt lat="53.199599" lon="-1.708160"><ele>298</ele><time>2020-01-31T14:11:49Z</time><name>PT12453</name></trkpt>
<trkpt lat="53.199595" lon="-1.708156"><ele>298</ele><time>2020-01-31T14:11:51Z</time><name>PT12454</name></trkpt>
<trkpt lat="53.199588" lon="-1.708151"><ele>298</ele><time>2020-01-31T14:11:51Z</time><name>PT12455</name></trkpt>
<trkpt lat="53.199584" lon="-1.708144"><ele>297</ele><time>2020-01-31T14:11:52Z</time><name>PT12456</name></trkpt>
<trkpt lat="53.199582" lon="-1.708141"><ele>297</ele><time>2020-01-31T14:11:54Z</time><name>PT12457</name></trkpt>
<trkpt lat="53.199581" lon="-1.708139"><ele>297</ele><time>2020-01-31T14:11:54Z</time><name>PT12458</name></trkpt>
<trkpt lat="53.199580" lon="-1.708138"><ele>297</ele><time>2020-01-31T14:11:55Z</time><name>PT12459</name></trkpt>
<trkpt lat="53.199580" lon="-1.708136"><ele>297</ele><time>2020-01-31T14:11:57Z</time><name>PT12460</name></trkpt>
<trkpt lat="53.199582" lon="-1.708133"><ele>297</ele><time>2020-01-31T14:11:57Z</time><name>PT12461</name></trkpt>
<trkpt lat="53.199582" lon="-1.708128"><ele>297</ele><time>2020-01-31T14:11:58Z</time><name>PT12462</name></trkpt>
<trkpt lat="53.199580" lon="-1.708124"><ele>298</ele><time>2020-01-31T14:12:00Z</time><name>PT12463</name></trkpt>
<trkpt lat="53.199580" lon="-1.708123"><ele>298</ele><time>2020-01-31T14:12:00Z</time><name>PT12464</name></trkpt>
<trkpt lat="53.199577" lon="-1.708123"><ele>298</ele><time>2020-01-31T14:12:01Z</time><name>PT12465</name></trkpt>
<trkpt lat="53.199574" lon="-1.708122"><ele>298</ele><time>2020-01-31T14:12:03Z</time><name>PT12466</name></trkpt>
<trkpt lat="53.199570" lon="-1.708120"><ele>299</ele><time>2020-01-31T14:12:03Z</time><name>PT12467</name></trkpt>
<trkpt lat="53.199567" lon="-1.708120"><ele>299</ele><time>2020-01-31T14:12:04Z</time><name>PT12468</name></trkpt>
<trkpt lat="53.199566" lon="-1.708117"><ele>300</ele><time>2020-01-31T14:12:06Z</time><name>PT12469</name></trkpt>
<trkpt lat="53.199570" lon="-1.708101"><ele>299</ele><time>2020-01-31T14:12:06Z</time><name>PT12470</name></trkpt>
<trkpt lat="53.199568" lon="-1.708086"><ele>299</ele><time>2020-01-31T14:12:07Z</time><name>PT12471</name></trkpt>
<trkpt lat="53.199563" lon="-1.708066"><ele>299</ele><time>2020-01-31T14:12:09Z</time><name>PT12472</name></trkpt>
<trkpt lat="53.199567" lon="-1.708043"><ele>299</ele><time>2020-01-31T14:12:09Z</time><name>PT12473</name></trkpt>
<trkpt lat="53.199570" lon="-1.708016"><ele>298</ele><time>2020-01-31T14:12:10Z</time><name>PT12474</name></trkpt>
<trkpt lat="53.199570" lon="-1.707991"><ele>298</ele><time>2020-01-31T14:12:12Z</time><name>PT12475</name></trkpt>
<trkpt lat="53.199568" lon="-1.707968"><ele>298</ele><time>2020-01-31T14:12:12Z</time><name>PT12476</name></trkpt>
<trkpt lat="53.199566" lon="-1.707945"><ele>298</ele><time>2020-01-31T14:12:13Z</time><name>PT12477</name></trkpt>
<trkpt lat="53.199561" lon="-1.707924"><ele>298</ele><time>2020-01-31T14:12:15Z</time><name>PT12478</name></trkpt>
<trkpt lat="53.199556" lon="-1.707902"><ele>297</ele><time>2020-01-31T14:12:15Z</time><name>PT12479</name></trkpt>
<trkpt lat="53.199551" lon="-1.707880"><ele>297</ele><time>2020-01-31T14:12:16Z</time><name>PT12480</name></trkpt>
<trkpt lat="53.199545" lon="-1.707858"><ele>298</ele><time>2020-01-31T14:12:18Z</time><name>PT12481</name></trkpt>
<trkpt lat="53.199538" lon="-1.707836"><ele>298</ele><time>2020-01-31T14:12:18Z</time><name>PT12482</name></trkpt>
<trkpt lat="53.199532" lon="-1.707814"><ele>297</ele><time>2020-01-31T14:12:19Z</time><name>PT12483</name></trkpt>
<trkpt lat="53.199523" lon="-1.707788"><ele>297</ele><time>2020-01-31T14:12:21Z</time><name>PT12484</name></trkpt>
<trkpt lat="53.199517" lon="-1.707758"><ele>297</ele><time>2020-01-31T14:12:21Z</time><name>PT12485</name></trkpt>
<trkpt lat="53.199514" lon="-1.707735"><ele>296</ele><time>2020-01-31T14:12:22Z</time><name>PT12486</name></trkpt>
<trkpt lat="53.199511" lon="-1.707713"><ele>296</ele><time>2020-01-31T14:12:24Z</time><name>PT12487</name></trkpt>
<trkpt lat="53.199508" lon="-1.707696"><ele>296</ele><time>2020-01-31T14:12:24Z</time><name>PT12488</name></trkpt>
<trkpt lat="53.199508" lon="-1.707679"><ele>296</ele><time>2020-01-31T14:12:25Z</time><name>PT12489</name></trkpt>
<trkpt lat="53.199507" lon="-1.707664"><ele>296</ele><time>2020-01-31T14:12:27Z</time><name>PT12490</name></trkpt>
<trkpt lat="53.199506" lon="-1.707650"><ele>296</ele><time>2020-01-31T14:12:27Z</time><name>PT12491</name></trkpt>
<trkpt lat="53.199503" lon="-1.707630"><ele>296</ele><time>2020-01-31T14:12:28Z</time><name>PT12492</name></trkpt>
<trkpt lat="53.199499" lon="-1.707606"><ele>296</ele><time>2020-01-31T14:12:30Z</time><name>PT12493</name></trkpt>
<trkpt lat="53.199493" lon="-1.707578"><ele>296</ele><time>2020-01-31T14:12:30Z</time><name>PT12494</name></trkpt>
<trkpt lat="53.199486" lon="-1.707545"><ele>296</ele><time>2020-01-31T14:12:31Z</time><name>PT12495</name></trkpt>
<trkpt lat="53.199480" lon="-1.707512"><ele>297</ele><time>2020-01-31T14:12:33Z</time><name>PT12496</name></trkpt>
<trkpt lat="53.199476" lon="-1.707486"><ele>297</ele><time>2020-01-31T14:12:33Z</time><name>PT12497</name></trkpt>
<trkpt lat="53.199473" lon="-1.707469"><ele>297</ele><time>2020-01-31T14:12:34Z</time><name>PT12498</name></trkpt>
<trkpt lat="53.199472" lon="-1.707453"><ele>297</ele><time>2020-01-31T14:12:36Z</time><name>PT12499</name></trkpt>
<trkpt lat="53.199471" lon="-1.707436"><ele>297</ele><time>2020-01-31T14:12:36Z</time><name>PT12500</name></trkpt>
<trkpt lat="53.199472" lon="-1.707419"><ele>297</ele><time>2020-01-31T14:12:37Z</time><name>PT12501</name></trkpt>
<trkpt lat="53.199469" lon="-1.707396"><ele>297</ele><time>2020-01-31T14:12:39Z</time><name>PT12502</name></trkpt>
<trkpt lat="53.199464" lon="-1.707365"><ele>297</ele><time>2020-01-31T14:12:39Z</time><name>PT12503</name></trkpt>
<trkpt lat="53.199460" lon="-1.707332"><ele>297</ele><time>2020-01-31T14:12:40Z</time><name>PT12504</name></trkpt>
<trkpt lat="53.199454" lon="-1.707305"><ele>297</ele><time>2020-01-31T14:12:42Z</time><name>PT12505</name></trkpt>
<trkpt lat="53.199451" lon="-1.707284"><ele>297</ele><time>2020-01-31T14:12:42Z</time><name>PT12506</name></trkpt>
<trkpt lat="53.199451" lon="-1.707270"><ele>297</ele><time>2020-01-31T14:12:43Z</time><name>PT12507</name></trkpt>
<trkpt lat="53.199452" lon="-1.707264"><ele>297</ele><time>2020-01-31T14:12:45Z</time><name>PT12508</name></trkpt>
<trkpt lat="53.199454" lon="-1.707254"><ele>297</ele><time>2020-01-31T14:12:45Z</time><name>PT12509</name></trkpt>
<trkpt lat="53.199452" lon="-1.707230"><ele>297</ele><time>2020-01-31T14:12:46Z</time><name>PT12510</name></trkpt>
<trkpt lat="53.199447" lon="-1.707203"><ele>297</ele><time>2020-01-31T14:12:48Z</time><name>PT12511</name></trkpt>
<trkpt lat="53.199443" lon="-1.707180"><ele>298</ele><time>2020-01-31T14:12:48Z</time><name>PT12512</name></trkpt>
<trkpt lat="53.199440" lon="-1.707156"><ele>298</ele><time>2020-01-31T14:12:49Z</time><name>PT12513</name></trkpt>
<trkpt lat="53.199434" lon="-1.707136"><ele>298</ele><time>2020-01-31T14:12:50Z</time><name>PT12514</name></trkpt>
<trkpt lat="53.199429" lon="-1.707116"><ele>298</ele><time>2020-01-31T14:12:51Z</time><name>PT12515</name></trkpt>
<trkpt lat="53.199425" lon="-1.707097"><ele>298</ele><time>2020-01-31T14:12:52Z</time><name>PT12516</name></trkpt>
<trkpt lat="53.199420" lon="-1.707080"><ele>298</ele><time>2020-01-31T14:12:54Z</time><name>PT12517</name></trkpt>
<trkpt lat="53.199416" lon="-1.707062"><ele>298</ele><time>2020-01-31T14:12:54Z</time><name>PT12518</name></trkpt>
<trkpt lat="53.199410" lon="-1.707042"><ele>297</ele><time>2020-01-31T14:12:55Z</time><name>PT12519</name></trkpt>
<trkpt lat="53.199405" lon="-1.707022"><ele>297</ele><time>2020-01-31T14:12:57Z</time><name>PT12520</name></trkpt>
<trkpt lat="53.199399" lon="-1.707004"><ele>297</ele><time>2020-01-31T14:12:57Z</time><name>PT12521</name></trkpt>
<trkpt lat="53.199395" lon="-1.706983"><ele>297</ele><time>2020-01-31T14:12:58Z</time><name>PT12522</name></trkpt>
<trkpt lat="53.199389" lon="-1.706961"><ele>297</ele><time>2020-01-31T14:13:00Z</time><name>PT12523</name></trkpt>
<trkpt lat="53.199383" lon="-1.706946"><ele>297</ele><time>2020-01-31T14:13:00Z</time><name>PT12524</name></trkpt>
<trkpt lat="53.199379" lon="-1.706936"><ele>297</ele><time>2020-01-31T14:13:01Z</time><name>PT12525</name></trkpt>
<trkpt lat="53.199376" lon="-1.706922"><ele>297</ele><time>2020-01-31T14:13:03Z</time><name>PT12526</name></trkpt>
<trkpt lat="53.199366" lon="-1.706899"><ele>297</ele><time>2020-01-31T14:13:03Z</time><name>PT12527</name></trkpt>
<trkpt lat="53.199357" lon="-1.706880"><ele>298</ele><time>2020-01-31T14:13:04Z</time><name>PT12528</name></trkpt>
<trkpt lat="53.199352" lon="-1.706863"><ele>297</ele><time>2020-01-31T14:13:06Z</time><name>PT12529</name></trkpt>
<trkpt lat="53.199344" lon="-1.706838"><ele>297</ele><time>2020-01-31T14:13:06Z</time><name>PT12530</name></trkpt>
<trkpt lat="53.199338" lon="-1.706817"><ele>297</ele><time>2020-01-31T14:13:07Z</time><name>PT12531</name></trkpt>
<trkpt lat="53.199334" lon="-1.706803"><ele>297</ele><time>2020-01-31T14:13:09Z</time><name>PT12532</name></trkpt>
<trkpt lat="53.199331" lon="-1.706790"><ele>297</ele><time>2020-01-31T14:13:09Z</time><name>PT12533</name></trkpt>
<trkpt lat="53.199327" lon="-1.706777"><ele>297</ele><time>2020-01-31T14:13:11Z</time><name>PT12534</name></trkpt>
<trkpt lat="53.199323" lon="-1.706760"><ele>297</ele><time>2020-01-31T14:13:12Z</time><name>PT12535</name></trkpt>
<trkpt lat="53.199315" lon="-1.706735"><ele>297</ele><time>2020-01-31T14:13:12Z</time><name>PT12536</name></trkpt>
<trkpt lat="53.199306" lon="-1.706706"><ele>297</ele><time>2020-01-31T14:13:13Z</time><name>PT12537</name></trkpt>
<trkpt lat="53.199294" lon="-1.706673"><ele>297</ele><time>2020-01-31T14:13:15Z</time><name>PT12538</name></trkpt>
<trkpt lat="53.199288" lon="-1.706649"><ele>298</ele><time>2020-01-31T14:13:15Z</time><name>PT12539</name></trkpt>
<trkpt lat="53.199283" lon="-1.706627"><ele>297</ele><time>2020-01-31T14:13:16Z</time><name>PT12540</name></trkpt>
<trkpt lat="53.199279" lon="-1.706607"><ele>298</ele><time>2020-01-31T14:13:18Z</time><name>PT12541</name></trkpt>
<trkpt lat="53.199276" lon="-1.706597"><ele>298</ele><time>2020-01-31T14:13:18Z</time><name>PT12542</name></trkpt>
<trkpt lat="53.199272" lon="-1.706583"><ele>297</ele><time>2020-01-31T14:13:19Z</time><name>PT12543</name></trkpt>
<trkpt lat="53.199274" lon="-1.706570"><ele>296</ele><time>2020-01-31T14:13:21Z</time><name>PT12544</name></trkpt>
<trkpt lat="53.199274" lon="-1.706554"><ele>296</ele><time>2020-01-31T14:13:21Z</time><name>PT12545</name></trkpt>
<trkpt lat="53.199269" lon="-1.706527"><ele>296</ele><time>2020-01-31T14:13:22Z</time><name>PT12546</name></trkpt>
<trkpt lat="53.199261" lon="-1.706498"><ele>296</ele><time>2020-01-31T14:13:24Z</time><name>PT12547</name></trkpt>
<trkpt lat="53.199248" lon="-1.706464"><ele>297</ele><time>2020-01-31T14:13:24Z</time><name>PT12548</name></trkpt>
<trkpt lat="53.199244" lon="-1.706441"><ele>297</ele><time>2020-01-31T14:13:25Z</time><name>PT12549</name></trkpt>
<trkpt lat="53.199237" lon="-1.706410"><ele>297</ele><time>2020-01-31T14:13:27Z</time><name>PT12550</name></trkpt>
<trkpt lat="53.199230" lon="-1.706383"><ele>297</ele><time>2020-01-31T14:13:27Z</time><name>PT12551</name></trkpt>
<trkpt lat="53.199225" lon="-1.706364"><ele>297</ele><time>2020-01-31T14:13:28Z</time><name>PT12552</name></trkpt>
<trkpt lat="53.199221" lon="-1.706354"><ele>298</ele><time>2020-01-31T14:13:30Z</time><name>PT12553</name></trkpt>
<trkpt lat="53.199221" lon="-1.706348"><ele>297</ele><time>2020-01-31T14:13:30Z</time><name>PT12554</name></trkpt>
<trkpt lat="53.199218" lon="-1.706342"><ele>297</ele><time>2020-01-31T14:13:31Z</time><name>PT12555</name></trkpt>
<trkpt lat="53.199220" lon="-1.706331"><ele>297</ele><time>2020-01-31T14:13:32Z</time><name>PT12556</name></trkpt>
<trkpt lat="53.199219" lon="-1.706316"><ele>297</ele><time>2020-01-31T14:13:33Z</time><name>PT12557</name></trkpt>
<trkpt lat="53.199217" lon="-1.706296"><ele>297</ele><time>2020-01-31T14:13:34Z</time><name>PT12558</name></trkpt>
<trkpt lat="53.199213" lon="-1.706264"><ele>297</ele><time>2020-01-31T14:13:36Z</time><name>PT12559</name></trkpt>
<trkpt lat="53.199209" lon="-1.706229"><ele>298</ele><time>2020-01-31T14:13:36Z</time><name>PT12560</name></trkpt>
<trkpt lat="53.199205" lon="-1.706200"><ele>299</ele><time>2020-01-31T14:13:37Z</time><name>PT12561</name></trkpt>
<trkpt lat="53.199201" lon="-1.706178"><ele>299</ele><time>2020-01-31T14:13:39Z</time><name>PT12562</name></trkpt>
<trkpt lat="53.199195" lon="-1.706162"><ele>299</ele><time>2020-01-31T14:13:39Z</time><name>PT12563</name></trkpt>
<trkpt lat="53.199188" lon="-1.706145"><ele>298</ele><time>2020-01-31T14:13:40Z</time><name>PT12564</name></trkpt>
<trkpt lat="53.199182" lon="-1.706127"><ele>298</ele><time>2020-01-31T14:13:42Z</time><name>PT12565</name></trkpt>
<trkpt lat="53.199176" lon="-1.706110"><ele>298</ele><time>2020-01-31T14:13:42Z</time><name>PT12566</name></trkpt>
<trkpt lat="53.199168" lon="-1.706093"><ele>297</ele><time>2020-01-31T14:13:43Z</time><name>PT12567</name></trkpt>
<trkpt lat="53.199162" lon="-1.706076"><ele>297</ele><time>2020-01-31T14:13:45Z</time><name>PT12568</name></trkpt>
<trkpt lat="53.199158" lon="-1.706059"><ele>296</ele><time>2020-01-31T14:13:45Z</time><name>PT12569</name></trkpt>
<trkpt lat="53.199148" lon="-1.706038"><ele>296</ele><time>2020-01-31T14:13:46Z</time><name>PT12570</name></trkpt>
<trkpt lat="53.199136" lon="-1.706016"><ele>296</ele><time>2020-01-31T14:13:48Z</time><name>PT12571</name></trkpt>
<trkpt lat="53.199128" lon="-1.706000"><ele>296</ele><time>2020-01-31T14:13:48Z</time><name>PT12572</name></trkpt>
<trkpt lat="53.199123" lon="-1.705987"><ele>296</ele><time>2020-01-31T14:13:49Z</time><name>PT12573</name></trkpt>
<trkpt lat="53.199122" lon="-1.705977"><ele>296</ele><time>2020-01-31T14:13:51Z</time><name>PT12574</name></trkpt>
<trkpt lat="53.199121" lon="-1.705971"><ele>296</ele><time>2020-01-31T14:13:51Z</time><name>PT12575</name></trkpt>
<trkpt lat="53.199118" lon="-1.705960"><ele>296</ele><time>2020-01-31T14:13:52Z</time><name>PT12576</name></trkpt>
<trkpt lat="53.199112" lon="-1.705949"><ele>296</ele><time>2020-01-31T14:13:54Z</time><name>PT12577</name></trkpt>
<trkpt lat="53.199113" lon="-1.705934"><ele>296</ele><time>2020-01-31T14:13:54Z</time><name>PT12578</name></trkpt>
<trkpt lat="53.199114" lon="-1.705912"><ele>296</ele><time>2020-01-31T14:13:55Z</time><name>PT12579</name></trkpt>
<trkpt lat="53.199118" lon="-1.705889"><ele>296</ele><time>2020-01-31T14:13:57Z</time><name>PT12580</name></trkpt>
<trkpt lat="53.199115" lon="-1.705869"><ele>296</ele><time>2020-01-31T14:13:57Z</time><name>PT12581</name></trkpt>
<trkpt lat="53.199107" lon="-1.705859"><ele>296</ele><time>2020-01-31T14:13:58Z</time><name>PT12582</name></trkpt>
<trkpt lat="53.199105" lon="-1.705853"><ele>297</ele><time>2020-01-31T14:14:00Z</time><name>PT12583</name></trkpt>
<trkpt lat="53.199103" lon="-1.705843"><ele>297</ele><time>2020-01-31T14:14:00Z</time><name>PT12584</name></trkpt>
<trkpt lat="53.199095" lon="-1.705841"><ele>297</ele><time>2020-01-31T14:14:01Z</time><name>PT12585</name></trkpt>
<trkpt lat="53.199088" lon="-1.705840"><ele>296</ele><time>2020-01-31T14:14:03Z</time><name>PT12586</name></trkpt>
<trkpt lat="53.199081" lon="-1.705839"><ele>297</ele><time>2020-01-31T14:14:03Z</time><name>PT12587</name></trkpt>
<trkpt lat="53.199075" lon="-1.705835"><ele>297</ele><time>2020-01-31T14:14:04Z</time><name>PT12588</name></trkpt>
<trkpt lat="53.199074" lon="-1.705835"><ele>297</ele><time>2020-01-31T14:14:06Z</time><name>PT12589</name></trkpt>
<trkpt lat="53.199074" lon="-1.705836"><ele>297</ele><time>2020-01-31T14:14:06Z</time><name>PT12590</name></trkpt>
<trkpt lat="53.199070" lon="-1.705835"><ele>297</ele><time>2020-01-31T14:14:07Z</time><name>PT12591</name></trkpt>
<trkpt lat="53.199065" lon="-1.705837"><ele>297</ele><time>2020-01-31T14:14:09Z</time><name>PT12592</name></trkpt>
<trkpt lat="53.199052" lon="-1.705838"><ele>297</ele><time>2020-01-31T14:14:09Z</time><name>PT12593</name></trkpt>
<trkpt lat="53.199041" lon="-1.705826"><ele>296</ele><time>2020-01-31T14:14:10Z</time><name>PT12594</name></trkpt>
<trkpt lat="53.199030" lon="-1.705811"><ele>296</ele><time>2020-01-31T14:14:12Z</time><name>PT12595</name></trkpt>
<trkpt lat="53.199021" lon="-1.705797"><ele>295</ele><time>2020-01-31T14:14:12Z</time><name>PT12596</name></trkpt>
<trkpt lat="53.199012" lon="-1.705781"><ele>295</ele><time>2020-01-31T14:14:13Z</time><name>PT12597</name></trkpt>
<trkpt lat="53.199004" lon="-1.705765"><ele>294</ele><time>2020-01-31T14:14:15Z</time><name>PT12598</name></trkpt>
<trkpt lat="53.198996" lon="-1.705747"><ele>294</ele><time>2020-01-31T14:14:15Z</time><name>PT12599</name></trkpt>
<trkpt lat="53.198989" lon="-1.705728"><ele>293</ele><time>2020-01-31T14:14:16Z</time><name>PT12600</name></trkpt>
<trkpt lat="53.198983" lon="-1.705713"><ele>293</ele><time>2020-01-31T14:14:18Z</time><name>PT12601</name></trkpt>
<trkpt lat="53.198975" lon="-1.705697"><ele>293</ele><time>2020-01-31T14:14:18Z</time><name>PT12602</name></trkpt>
<trkpt lat="53.198968" lon="-1.705678"><ele>293</ele><time>2020-01-31T14:14:19Z</time><name>PT12603</name></trkpt>
<trkpt lat="53.198961" lon="-1.705661"><ele>292</ele><time>2020-01-31T14:14:21Z</time><name>PT12604</name></trkpt>
<trkpt lat="53.198954" lon="-1.705645"><ele>292</ele><time>2020-01-31T14:14:21Z</time><name>PT12605</name></trkpt>
<trkpt lat="53.198947" lon="-1.705628"><ele>292</ele><time>2020-01-31T14:14:22Z</time><name>PT12606</name></trkpt>
<trkpt lat="53.198938" lon="-1.705611"><ele>292</ele><time>2020-01-31T14:14:24Z</time><name>PT12607</name></trkpt>
<trkpt lat="53.198929" lon="-1.705598"><ele>291</ele><time>2020-01-31T14:14:24Z</time><name>PT12608</name></trkpt>
<trkpt lat="53.198920" lon="-1.705583"><ele>291</ele><time>2020-01-31T14:14:25Z</time><name>PT12609</name></trkpt>
<trkpt lat="53.198911" lon="-1.705567"><ele>291</ele><time>2020-01-31T14:14:27Z</time><name>PT12610</name></trkpt>
<trkpt lat="53.198902" lon="-1.705549"><ele>291</ele><time>2020-01-31T14:14:27Z</time><name>PT12611</name></trkpt>
<trkpt lat="53.198892" lon="-1.705534"><ele>291</ele><time>2020-01-31T14:14:28Z</time><name>PT12612</name></trkpt>
<trkpt lat="53.198884" lon="-1.705520"><ele>290</ele><time>2020-01-31T14:14:30Z</time><name>PT12613</name></trkpt>
<trkpt lat="53.198878" lon="-1.705504"><ele>290</ele><time>2020-01-31T14:14:30Z</time><name>PT12614</name></trkpt>
<trkpt lat="53.198872" lon="-1.705490"><ele>290</ele><time>2020-01-31T14:14:31Z</time><name>PT12615</name></trkpt>
<trkpt lat="53.198866" lon="-1.705474"><ele>290</ele><time>2020-01-31T14:14:33Z</time><name>PT12616</name></trkpt>
<trkpt lat="53.198858" lon="-1.705459"><ele>290</ele><time>2020-01-31T14:14:33Z</time><name>PT12617</name></trkpt>
<trkpt lat="53.198850" lon="-1.705443"><ele>290</ele><time>2020-01-31T14:14:34Z</time><name>PT12618</name></trkpt>
<trkpt lat="53.198840" lon="-1.705429"><ele>290</ele><time>2020-01-31T14:14:36Z</time><name>PT12619</name></trkpt>
<trkpt lat="53.198830" lon="-1.705417"><ele>289</ele><time>2020-01-31T14:14:36Z</time><name>PT12620</name></trkpt>
<trkpt lat="53.198821" lon="-1.705405"><ele>289</ele><time>2020-01-31T14:14:37Z</time><name>PT12621</name></trkpt>
<trkpt lat="53.198811" lon="-1.705389"><ele>289</ele><time>2020-01-31T14:14:39Z</time><name>PT12622</name></trkpt>
<trkpt lat="53.198804" lon="-1.705373"><ele>289</ele><time>2020-01-31T14:14:39Z</time><name>PT12623</name></trkpt>
<trkpt lat="53.198795" lon="-1.705357"><ele>289</ele><time>2020-01-31T14:14:40Z</time><name>PT12624</name></trkpt>
<trkpt lat="53.198787" lon="-1.705339"><ele>288</ele><time>2020-01-31T14:14:42Z</time><name>PT12625</name></trkpt>
<trkpt lat="53.198779" lon="-1.705324"><ele>288</ele><time>2020-01-31T14:14:42Z</time><name>PT12626</name></trkpt>
<trkpt lat="53.198771" lon="-1.705311"><ele>288</ele><time>2020-01-31T14:14:43Z</time><name>PT12627</name></trkpt>
<trkpt lat="53.198763" lon="-1.705298"><ele>288</ele><time>2020-01-31T14:14:45Z</time><name>PT12628</name></trkpt>
<trkpt lat="53.198754" lon="-1.705287"><ele>288</ele><time>2020-01-31T14:14:45Z</time><name>PT12629</name></trkpt>
<trkpt lat="53.198744" lon="-1.705278"><ele>288</ele><time>2020-01-31T14:14:46Z</time><name>PT12630</name></trkpt>
<trkpt lat="53.198734" lon="-1.705268"><ele>287</ele><time>2020-01-31T14:14:48Z</time><name>PT12631</name></trkpt>
<trkpt lat="53.198724" lon="-1.705256"><ele>287</ele><time>2020-01-31T14:14:48Z</time><name>PT12632</name></trkpt>
<trkpt lat="53.198715" lon="-1.705243"><ele>287</ele><time>2020-01-31T14:14:49Z</time><name>PT12633</name></trkpt>
<trkpt lat="53.198706" lon="-1.705232"><ele>287</ele><time>2020-01-31T14:14:51Z</time><name>PT12634</name></trkpt>
<trkpt lat="53.198696" lon="-1.705222"><ele>287</ele><time>2020-01-31T14:14:51Z</time><name>PT12635</name></trkpt>
<trkpt lat="53.198685" lon="-1.705210"><ele>287</ele><time>2020-01-31T14:14:52Z</time><name>PT12636</name></trkpt>
<trkpt lat="53.198673" lon="-1.705198"><ele>286</ele><time>2020-01-31T14:14:53Z</time><name>PT12637</name></trkpt>
<trkpt lat="53.198663" lon="-1.705187"><ele>286</ele><time>2020-01-31T14:14:54Z</time><name>PT12638</name></trkpt>
<trkpt lat="53.198651" lon="-1.705172"><ele>287</ele><time>2020-01-31T14:14:55Z</time><name>PT12639</name></trkpt>
<trkpt lat="53.198641" lon="-1.705160"><ele>287</ele><time>2020-01-31T14:14:56Z</time><name>PT12640</name></trkpt>
<trkpt lat="53.198629" lon="-1.705151"><ele>287</ele><time>2020-01-31T14:14:57Z</time><name>PT12641</name></trkpt>
<trkpt lat="53.198618" lon="-1.705141"><ele>286</ele><time>2020-01-31T14:14:58Z</time><name>PT12642</name></trkpt>
<trkpt lat="53.198607" lon="-1.705132"><ele>286</ele><time>2020-01-31T14:15:00Z</time><name>PT12643</name></trkpt>
<trkpt lat="53.198595" lon="-1.705122"><ele>286</ele><time>2020-01-31T14:15:00Z</time><name>PT12644</name></trkpt>
<trkpt lat="53.198583" lon="-1.705111"><ele>286</ele><time>2020-01-31T14:15:01Z</time><name>PT12645</name></trkpt>
<trkpt lat="53.198571" lon="-1.705100"><ele>286</ele><time>2020-01-31T14:15:03Z</time><name>PT12646</name></trkpt>
<trkpt lat="53.198559" lon="-1.705087"><ele>286</ele><time>2020-01-31T14:15:03Z</time><name>PT12647</name></trkpt>
<trkpt lat="53.198548" lon="-1.705073"><ele>286</ele><time>2020-01-31T14:15:04Z</time><name>PT12648</name></trkpt>
<trkpt lat="53.198537" lon="-1.705059"><ele>286</ele><time>2020-01-31T14:15:06Z</time><name>PT12649</name></trkpt>
<trkpt lat="53.198525" lon="-1.705044"><ele>286</ele><time>2020-01-31T14:15:06Z</time><name>PT12650</name></trkpt>
<trkpt lat="53.198514" lon="-1.705035"><ele>286</ele><time>2020-01-31T14:15:07Z</time><name>PT12651</name></trkpt>
<trkpt lat="53.198503" lon="-1.705024"><ele>286</ele><time>2020-01-31T14:15:09Z</time><name>PT12652</name></trkpt>
<trkpt lat="53.198492" lon="-1.705022"><ele>286</ele><time>2020-01-31T14:15:09Z</time><name>PT12653</name></trkpt>
<trkpt lat="53.198479" lon="-1.705021"><ele>286</ele><time>2020-01-31T14:15:10Z</time><name>PT12654</name></trkpt>
<trkpt lat="53.198468" lon="-1.705017"><ele>286</ele><time>2020-01-31T14:15:12Z</time><name>PT12655</name></trkpt>
<trkpt lat="53.198457" lon="-1.705014"><ele>286</ele><time>2020-01-31T14:15:12Z</time><name>PT12656</name></trkpt>
<trkpt lat="53.198445" lon="-1.705009"><ele>286</ele><time>2020-01-31T14:15:13Z</time><name>PT12657</name></trkpt>
<trkpt lat="53.198433" lon="-1.705003"><ele>287</ele><time>2020-01-31T14:15:15Z</time><name>PT12658</name></trkpt>
<trkpt lat="53.198420" lon="-1.704995"><ele>287</ele><time>2020-01-31T14:15:15Z</time><name>PT12659</name></trkpt>
<trkpt lat="53.198409" lon="-1.704986"><ele>286</ele><time>2020-01-31T14:15:16Z</time><name>PT12660</name></trkpt>
<trkpt lat="53.198399" lon="-1.704974"><ele>286</ele><time>2020-01-31T14:15:18Z</time><name>PT12661</name></trkpt>
<trkpt lat="53.198389" lon="-1.704962"><ele>286</ele><time>2020-01-31T14:15:18Z</time><name>PT12662</name></trkpt>
<trkpt lat="53.198381" lon="-1.704950"><ele>286</ele><time>2020-01-31T14:15:19Z</time><name>PT12663</name></trkpt>
<trkpt lat="53.198372" lon="-1.704941"><ele>286</ele><time>2020-01-31T14:15:21Z</time><name>PT12664</name></trkpt>
<trkpt lat="53.198362" lon="-1.704929"><ele>286</ele><time>2020-01-31T14:15:21Z</time><name>PT12665</name></trkpt>
<trkpt lat="53.198352" lon="-1.704916"><ele>286</ele><time>2020-01-31T14:15:22Z</time><name>PT12666</name></trkpt>
<trkpt lat="53.198344" lon="-1.704902"><ele>286</ele><time>2020-01-31T14:15:24Z</time><name>PT12667</name></trkpt>
<trkpt lat="53.198333" lon="-1.704891"><ele>286</ele><time>2020-01-31T14:15:24Z</time><name>PT12668</name></trkpt>
<trkpt lat="53.198323" lon="-1.704879"><ele>286</ele><time>2020-01-31T14:15:25Z</time><name>PT12669</name></trkpt>
<trkpt lat="53.198314" lon="-1.704863"><ele>285</ele><time>2020-01-31T14:15:27Z</time><name>PT12670</name></trkpt>
<trkpt lat="53.198306" lon="-1.704848"><ele>285</ele><time>2020-01-31T14:15:27Z</time><name>PT12671</name></trkpt>
<trkpt lat="53.198298" lon="-1.704832"><ele>285</ele><time>2020-01-31T14:15:28Z</time><name>PT12672</name></trkpt>
<trkpt lat="53.198290" lon="-1.704817"><ele>285</ele><time>2020-01-31T14:15:30Z</time><name>PT12673</name></trkpt>
<trkpt lat="53.198282" lon="-1.704802"><ele>285</ele><time>2020-01-31T14:15:30Z</time><name>PT12674</name></trkpt>
<trkpt lat="53.198273" lon="-1.704789"><ele>285</ele><time>2020-01-31T14:15:31Z</time><name>PT12675</name></trkpt>
<trkpt lat="53.198262" lon="-1.704779"><ele>285</ele><time>2020-01-31T14:15:33Z</time><name>PT12676</name></trkpt>
<trkpt lat="53.198252" lon="-1.704770"><ele>285</ele><time>2020-01-31T14:15:33Z</time><name>PT12677</name></trkpt>
<trkpt lat="53.198244" lon="-1.704756"><ele>285</ele><time>2020-01-31T14:15:34Z</time><name>PT12678</name></trkpt>
<trkpt lat="53.198236" lon="-1.704743"><ele>285</ele><time>2020-01-31T14:15:36Z</time><name>PT12679</name></trkpt>
<trkpt lat="53.198226" lon="-1.704734"><ele>285</ele><time>2020-01-31T14:15:36Z</time><name>PT12680</name></trkpt>
<trkpt lat="53.198217" lon="-1.704723"><ele>284</ele><time>2020-01-31T14:15:37Z</time><name>PT12681</name></trkpt>
<trkpt lat="53.198209" lon="-1.704711"><ele>284</ele><time>2020-01-31T14:15:39Z</time><name>PT12682</name></trkpt>
<trkpt lat="53.198200" lon="-1.704702"><ele>284</ele><time>2020-01-31T14:15:39Z</time><name>PT12683</name></trkpt>
<trkpt lat="53.198190" lon="-1.704691"><ele>284</ele><time>2020-01-31T14:15:40Z</time><name>PT12684</name></trkpt>
<trkpt lat="53.198178" lon="-1.704677"><ele>284</ele><time>2020-01-31T14:15:42Z</time><name>PT12685</name></trkpt>
<trkpt lat="53.198168" lon="-1.704666"><ele>284</ele><time>2020-01-31T14:15:42Z</time><name>PT12686</name></trkpt>
<trkpt lat="53.198158" lon="-1.704652"><ele>284</ele><time>2020-01-31T14:15:43Z</time><name>PT12687</name></trkpt>
<trkpt lat="53.198150" lon="-1.704637"><ele>284</ele><time>2020-01-31T14:15:45Z</time><name>PT12688</name></trkpt>
<trkpt lat="53.198142" lon="-1.704619"><ele>284</ele><time>2020-01-31T14:15:45Z</time><name>PT12689</name></trkpt>
<trkpt lat="53.198134" lon="-1.704602"><ele>284</ele><time>2020-01-31T14:15:46Z</time><name>PT12690</name></trkpt>
<trkpt lat="53.198124" lon="-1.704587"><ele>283</ele><time>2020-01-31T14:15:48Z</time><name>PT12691</name></trkpt>
<trkpt lat="53.198116" lon="-1.704571"><ele>283</ele><time>2020-01-31T14:15:48Z</time><name>PT12692</name></trkpt>
<trkpt lat="53.198106" lon="-1.704560"><ele>283</ele><time>2020-01-31T14:15:49Z</time><name>PT12693</name></trkpt>
<trkpt lat="53.198096" lon="-1.704551"><ele>283</ele><time>2020-01-31T14:15:51Z</time><name>PT12694</name></trkpt>
<trkpt lat="53.198086" lon="-1.704540"><ele>283</ele><time>2020-01-31T14:15:51Z</time><name>PT12695</name></trkpt>
<trkpt lat="53.198076" lon="-1.704526"><ele>283</ele><time>2020-01-31T14:15:52Z</time><name>PT12696</name></trkpt>
<trkpt lat="53.198066" lon="-1.704511"><ele>283</ele><time>2020-01-31T14:15:54Z</time><name>PT12697</name></trkpt>
<trkpt lat="53.198056" lon="-1.704497"><ele>283</ele><time>2020-01-31T14:15:54Z</time><name>PT12698</name></trkpt>
<trkpt lat="53.198047" lon="-1.704482"><ele>283</ele><time>2020-01-31T14:15:55Z</time><name>PT12699</name></trkpt>
<trkpt lat="53.198039" lon="-1.704467"><ele>282</ele><time>2020-01-31T14:15:57Z</time><name>PT12700</name></trkpt>
<trkpt lat="53.198032" lon="-1.704452"><ele>282</ele><time>2020-01-31T14:15:57Z</time><name>PT12701</name></trkpt>
<trkpt lat="53.198024" lon="-1.704438"><ele>282</ele><time>2020-01-31T14:15:59Z</time><name>PT12702</name></trkpt>
<trkpt lat="53.198015" lon="-1.704424"><ele>282</ele><time>2020-01-31T14:16:00Z</time><name>PT12703</name></trkpt>
<trkpt lat="53.198006" lon="-1.704412"><ele>282</ele><time>2020-01-31T14:16:00Z</time><name>PT12704</name></trkpt>
<trkpt lat="53.197996" lon="-1.704398"><ele>282</ele><time>2020-01-31T14:16:01Z</time><name>PT12705</name></trkpt>
<trkpt lat="53.197989" lon="-1.704382"><ele>281</ele><time>2020-01-31T14:16:03Z</time><name>PT12706</name></trkpt>
<trkpt lat="53.197980" lon="-1.704364"><ele>281</ele><time>2020-01-31T14:16:03Z</time><name>PT12707</name></trkpt>
<trkpt lat="53.197971" lon="-1.704349"><ele>281</ele><time>2020-01-31T14:16:04Z</time><name>PT12708</name></trkpt>
<trkpt lat="53.197961" lon="-1.704337"><ele>281</ele><time>2020-01-31T14:16:06Z</time><name>PT12709</name></trkpt>
<trkpt lat="53.197952" lon="-1.704328"><ele>281</ele><time>2020-01-31T14:16:06Z</time><name>PT12710</name></trkpt>
<trkpt lat="53.197943" lon="-1.704318"><ele>281</ele><time>2020-01-31T14:16:07Z</time><name>PT12711</name></trkpt>
<trkpt lat="53.197933" lon="-1.704306"><ele>280</ele><time>2020-01-31T14:16:09Z</time><name>PT12712</name></trkpt>
<trkpt lat="53.197924" lon="-1.704292"><ele>280</ele><time>2020-01-31T14:16:09Z</time><name>PT12713</name></trkpt>
<trkpt lat="53.197913" lon="-1.704278"><ele>280</ele><time>2020-01-31T14:16:10Z</time><name>PT12714</name></trkpt>
<trkpt lat="53.197903" lon="-1.704261"><ele>280</ele><time>2020-01-31T14:16:12Z</time><name>PT12715</name></trkpt>
<trkpt lat="53.197893" lon="-1.704245"><ele>280</ele><time>2020-01-31T14:16:12Z</time><name>PT12716</name></trkpt>
<trkpt lat="53.197885" lon="-1.704225"><ele>279</ele><time>2020-01-31T14:16:13Z</time><name>PT12717</name></trkpt>
<trkpt lat="53.197877" lon="-1.704208"><ele>279</ele><time>2020-01-31T14:16:15Z</time><name>PT12718</name></trkpt>
<trkpt lat="53.197870" lon="-1.704194"><ele>279</ele><time>2020-01-31T14:16:15Z</time><name>PT12719</name></trkpt>
<trkpt lat="53.197863" lon="-1.704178"><ele>279</ele><time>2020-01-31T14:16:16Z</time><name>PT12720</name></trkpt>
<trkpt lat="53.197857" lon="-1.704161"><ele>278</ele><time>2020-01-31T14:16:18Z</time><name>PT12721</name></trkpt>
<trkpt lat="53.197850" lon="-1.704145"><ele>278</ele><time>2020-01-31T14:16:18Z</time><name>PT12722</name></trkpt>
<trkpt lat="53.197840" lon="-1.704129"><ele>278</ele><time>2020-01-31T14:16:19Z</time><name>PT12723</name></trkpt>
<trkpt lat="53.197831" lon="-1.704113"><ele>278</ele><time>2020-01-31T14:16:21Z</time><name>PT12724</name></trkpt>
<trkpt lat="53.197823" lon="-1.704096"><ele>278</ele><time>2020-01-31T14:16:21Z</time><name>PT12725</name></trkpt>
<trkpt lat="53.197817" lon="-1.704076"><ele>277</ele><time>2020-01-31T14:16:22Z</time><name>PT12726</name></trkpt>
<trkpt lat="53.197808" lon="-1.704050"><ele>277</ele><time>2020-01-31T14:16:24Z</time><name>PT12727</name></trkpt>
<trkpt lat="53.197800" lon="-1.704030"><ele>277</ele><time>2020-01-31T14:16:24Z</time><name>PT12728</name></trkpt>
<trkpt lat="53.197793" lon="-1.704013"><ele>277</ele><time>2020-01-31T14:16:25Z</time><name>PT12729</name></trkpt>
<trkpt lat="53.197785" lon="-1.703996"><ele>277</ele><time>2020-01-31T14:16:27Z</time><name>PT12730</name></trkpt>
<trkpt lat="53.197777" lon="-1.703981"><ele>278</ele><time>2020-01-31T14:16:27Z</time><name>PT12731</name></trkpt>
<trkpt lat="53.197768" lon="-1.703969"><ele>278</ele><time>2020-01-31T14:16:28Z</time><name>PT12732</name></trkpt>
<trkpt lat="53.197763" lon="-1.703954"><ele>277</ele><time>2020-01-31T14:16:30Z</time><name>PT12733</name></trkpt>
<trkpt lat="53.197752" lon="-1.703933"><ele>278</ele><time>2020-01-31T14:16:30Z</time><name>PT12734</name></trkpt>
<trkpt lat="53.197739" lon="-1.703914"><ele>278</ele><time>2020-01-31T14:16:31Z</time><name>PT12735</name></trkpt>
<trkpt lat="53.197731" lon="-1.703896"><ele>278</ele><time>2020-01-31T14:16:33Z</time><name>PT12736</name></trkpt>
<trkpt lat="53.197728" lon="-1.703883"><ele>278</ele><time>2020-01-31T14:16:33Z</time><name>PT12737</name></trkpt>
<trkpt lat="53.197730" lon="-1.703880"><ele>277</ele><time>2020-01-31T14:16:34Z</time><name>PT12738</name></trkpt>
<trkpt lat="53.197728" lon="-1.703876"><ele>277</ele><time>2020-01-31T14:16:36Z</time><name>PT12739</name></trkpt>
<trkpt lat="53.197721" lon="-1.703862"><ele>277</ele><time>2020-01-31T14:16:36Z</time><name>PT12740</name></trkpt>
<trkpt lat="53.197711" lon="-1.703852"><ele>277</ele><time>2020-01-31T14:16:37Z</time><name>PT12741</name></trkpt>
<trkpt lat="53.197699" lon="-1.703839"><ele>276</ele><time>2020-01-31T14:16:39Z</time><name>PT12742</name></trkpt>
<trkpt lat="53.197689" lon="-1.703827"><ele>276</ele><time>2020-01-31T14:16:39Z</time><name>PT12743</name></trkpt>
<trkpt lat="53.197680" lon="-1.703810"><ele>275</ele><time>2020-01-31T14:16:40Z</time><name>PT12744</name></trkpt>
<trkpt lat="53.197673" lon="-1.703793"><ele>275</ele><time>2020-01-31T14:16:42Z</time><name>PT12745</name></trkpt>
<trkpt lat="53.197667" lon="-1.703774"><ele>275</ele><time>2020-01-31T14:16:42Z</time><name>PT12746</name></trkpt>
<trkpt lat="53.197663" lon="-1.703754"><ele>275</ele><time>2020-01-31T14:16:43Z</time><name>PT12747</name></trkpt>
<trkpt lat="53.197658" lon="-1.703740"><ele>275</ele><time>2020-01-31T14:16:45Z</time><name>PT12748</name></trkpt>
<trkpt lat="53.197651" lon="-1.703728"><ele>275</ele><time>2020-01-31T14:16:45Z</time><name>PT12749</name></trkpt>
<trkpt lat="53.197643" lon="-1.703714"><ele>275</ele><time>2020-01-31T14:16:46Z</time><name>PT12750</name></trkpt>
<trkpt lat="53.197635" lon="-1.703702"><ele>275</ele><time>2020-01-31T14:16:48Z</time><name>PT12751</name></trkpt>
<trkpt lat="53.197629" lon="-1.703689"><ele>274</ele><time>2020-01-31T14:16:48Z</time><name>PT12752</name></trkpt>
<trkpt lat="53.197624" lon="-1.703675"><ele>274</ele><time>2020-01-31T14:16:49Z</time><name>PT12753</name></trkpt>
<trkpt lat="53.197618" lon="-1.703665"><ele>274</ele><time>2020-01-31T14:16:51Z</time><name>PT12754</name></trkpt>
<trkpt lat="53.197610" lon="-1.703655"><ele>274</ele><time>2020-01-31T14:16:51Z</time><name>PT12755</name></trkpt>
<trkpt lat="53.197602" lon="-1.703643"><ele>273</ele><time>2020-01-31T14:16:52Z</time><name>PT12756</name></trkpt>
<trkpt lat="53.197598" lon="-1.703633"><ele>273</ele><time>2020-01-31T14:16:54Z</time><name>PT12757</name></trkpt>
<trkpt lat="53.197597" lon="-1.703622"><ele>273</ele><time>2020-01-31T14:16:54Z</time><name>PT12758</name></trkpt>
<trkpt lat="53.197599" lon="-1.703613"><ele>273</ele><time>2020-01-31T14:16:55Z</time><name>PT12759</name></trkpt>
<trkpt lat="53.197601" lon="-1.703606"><ele>273</ele><time>2020-01-31T14:16:57Z</time><name>PT12760</name></trkpt>
<trkpt lat="53.197605" lon="-1.703598"><ele>273</ele><time>2020-01-31T14:16:57Z</time><name>PT12761</name></trkpt>
<trkpt lat="53.197611" lon="-1.703588"><ele>273</ele><time>2020-01-31T14:16:58Z</time><name>PT12762</name></trkpt>
<trkpt lat="53.197619" lon="-1.703575"><ele>273</ele><time>2020-01-31T14:17:00Z</time><name>PT12763</name></trkpt>
<trkpt lat="53.197629" lon="-1.703567"><ele>273</ele><time>2020-01-31T14:17:00Z</time><name>PT12764</name></trkpt>
<trkpt lat="53.197638" lon="-1.703563"><ele>273</ele><time>2020-01-31T14:17:01Z</time><name>PT12765</name></trkpt>
<trkpt lat="53.197646" lon="-1.703560"><ele>273</ele><time>2020-01-31T14:17:03Z</time><name>PT12766</name></trkpt>
<trkpt lat="53.197654" lon="-1.703554"><ele>273</ele><time>2020-01-31T14:17:03Z</time><name>PT12767</name></trkpt>
<trkpt lat="53.197661" lon="-1.703544"><ele>273</ele><time>2020-01-31T14:17:04Z</time><name>PT12768</name></trkpt>
<trkpt lat="53.197664" lon="-1.703534"><ele>273</ele><time>2020-01-31T14:17:06Z</time><name>PT12769</name></trkpt>
<trkpt lat="53.197665" lon="-1.703528"><ele>273</ele><time>2020-01-31T14:17:06Z</time><name>PT12770</name></trkpt>
<trkpt lat="53.197665" lon="-1.703523"><ele>274</ele><time>2020-01-31T14:17:07Z</time><name>PT12771</name></trkpt>
<trkpt lat="53.197661" lon="-1.703516"><ele>273</ele><time>2020-01-31T14:17:09Z</time><name>PT12772</name></trkpt>
<trkpt lat="53.197659" lon="-1.703507"><ele>273</ele><time>2020-01-31T14:17:09Z</time><name>PT12773</name></trkpt>
<trkpt lat="53.197658" lon="-1.703496"><ele>273</ele><time>2020-01-31T14:17:10Z</time><name>PT12774</name></trkpt>
<trkpt lat="53.197658" lon="-1.703486"><ele>273</ele><time>2020-01-31T14:17:12Z</time><name>PT12775</name></trkpt>
<trkpt lat="53.197657" lon="-1.703474"><ele>273</ele><time>2020-01-31T14:17:12Z</time><name>PT12776</name></trkpt>
<trkpt lat="53.197655" lon="-1.703462"><ele>273</ele><time>2020-01-31T14:17:13Z</time><name>PT12777</name></trkpt>
<trkpt lat="53.197652" lon="-1.703447"><ele>273</ele><time>2020-01-31T14:17:15Z</time><name>PT12778</name></trkpt>
<trkpt lat="53.197649" lon="-1.703432"><ele>273</ele><time>2020-01-31T14:17:15Z</time><name>PT12779</name></trkpt>
<trkpt lat="53.197647" lon="-1.703415"><ele>273</ele><time>2020-01-31T14:17:16Z</time><name>PT12780</name></trkpt>
<trkpt lat="53.197645" lon="-1.703398"><ele>272</ele><time>2020-01-31T14:17:18Z</time><name>PT12781</name></trkpt>
<trkpt lat="53.197642" lon="-1.703380"><ele>272</ele><time>2020-01-31T14:17:18Z</time><name>PT12782</name></trkpt>
<trkpt lat="53.197636" lon="-1.703362"><ele>272</ele><time>2020-01-31T14:17:19Z</time><name>PT12783</name></trkpt>
<trkpt lat="53.197631" lon="-1.703344"><ele>272</ele><time>2020-01-31T14:17:21Z</time><name>PT12784</name></trkpt>
<trkpt lat="53.197627" lon="-1.703325"><ele>272</ele><time>2020-01-31T14:17:21Z</time><name>PT12785</name></trkpt>
<trkpt lat="53.197624" lon="-1.703304"><ele>272</ele><time>2020-01-31T14:17:22Z</time><name>PT12786</name></trkpt>
<trkpt lat="53.197623" lon="-1.703284"><ele>272</ele><time>2020-01-31T14:17:24Z</time><name>PT12787</name></trkpt>
<trkpt lat="53.197620" lon="-1.703263"><ele>272</ele><time>2020-01-31T14:17:24Z</time><name>PT12788</name></trkpt>
<trkpt lat="53.197616" lon="-1.703245"><ele>272</ele><time>2020-01-31T14:17:25Z</time><name>PT12789</name></trkpt>
<trkpt lat="53.197613" lon="-1.703227"><ele>272</ele><time>2020-01-31T14:17:27Z</time><name>PT12790</name></trkpt>
<trkpt lat="53.197609" lon="-1.703208"><ele>272</ele><time>2020-01-31T14:17:27Z</time><name>PT12791</name></trkpt>
<trkpt lat="53.197606" lon="-1.703190"><ele>272</ele><time>2020-01-31T14:17:28Z</time><name>PT12792</name></trkpt>
<trkpt lat="53.197602" lon="-1.703172"><ele>272</ele><time>2020-01-31T14:17:30Z</time><name>PT12793</name></trkpt>
<trkpt lat="53.197598" lon="-1.703153"><ele>272</ele><time>2020-01-31T14:17:30Z</time><name>PT12794</name></trkpt>
<trkpt lat="53.197594" lon="-1.703134"><ele>272</ele><time>2020-01-31T14:17:31Z</time><name>PT12795</name></trkpt>
<trkpt lat="53.197587" lon="-1.703115"><ele>272</ele><time>2020-01-31T14:17:33Z</time><name>PT12796</name></trkpt>
<trkpt lat="53.197581" lon="-1.703096"><ele>271</ele><time>2020-01-31T14:17:33Z</time><name>PT12797</name></trkpt>
<trkpt lat="53.197577" lon="-1.703077"><ele>271</ele><time>2020-01-31T14:17:34Z</time><name>PT12798</name></trkpt>
<trkpt lat="53.197572" lon="-1.703056"><ele>271</ele><time>2020-01-31T14:17:36Z</time><name>PT12799</name></trkpt>
<trkpt lat="53.197569" lon="-1.703036"><ele>271</ele><time>2020-01-31T14:17:36Z</time><name>PT12800</name></trkpt>
<trkpt lat="53.197566" lon="-1.703015"><ele>271</ele><time>2020-01-31T14:17:37Z</time><name>PT12801</name></trkpt>
<trkpt lat="53.197565" lon="-1.702996"><ele>271</ele><time>2020-01-31T14:17:39Z</time><name>PT12802</name></trkpt>
<trkpt lat="53.197564" lon="-1.702977"><ele>271</ele><time>2020-01-31T14:17:39Z</time><name>PT12803</name></trkpt>
<trkpt lat="53.197561" lon="-1.702960"><ele>271</ele><time>2020-01-31T14:17:40Z</time><name>PT12804</name></trkpt>
<trkpt lat="53.197557" lon="-1.702941"><ele>271</ele><time>2020-01-31T14:17:42Z</time><name>PT12805</name></trkpt>
<trkpt lat="53.197552" lon="-1.702920"><ele>271</ele><time>2020-01-31T14:17:42Z</time><name>PT12806</name></trkpt>
<trkpt lat="53.197547" lon="-1.702900"><ele>271</ele><time>2020-01-31T14:17:43Z</time><name>PT12807</name></trkpt>
<trkpt lat="53.197543" lon="-1.702881"><ele>271</ele><time>2020-01-31T14:17:45Z</time><name>PT12808</name></trkpt>
<trkpt lat="53.197540" lon="-1.702862"><ele>271</ele><time>2020-01-31T14:17:45Z</time><name>PT12809</name></trkpt>
<trkpt lat="53.197536" lon="-1.702840"><ele>271</ele><time>2020-01-31T14:17:46Z</time><name>PT12810</name></trkpt>
<trkpt lat="53.197534" lon="-1.702821"><ele>270</ele><time>2020-01-31T14:17:48Z</time><name>PT12811</name></trkpt>
<trkpt lat="53.197532" lon="-1.702804"><ele>270</ele><time>2020-01-31T14:17:48Z</time><name>PT12812</name></trkpt>
<trkpt lat="53.197529" lon="-1.702791"><ele>270</ele><time>2020-01-31T14:17:49Z</time><name>PT12813</name></trkpt>
<trkpt lat="53.197523" lon="-1.702778"><ele>270</ele><time>2020-01-31T14:17:51Z</time><name>PT12814</name></trkpt>
<trkpt lat="53.197518" lon="-1.702765"><ele>270</ele><time>2020-01-31T14:17:51Z</time><name>PT12815</name></trkpt>
<trkpt lat="53.197512" lon="-1.702756"><ele>270</ele><time>2020-01-31T14:17:52Z</time><name>PT12816</name></trkpt>
<trkpt lat="53.197507" lon="-1.702746"><ele>270</ele><time>2020-01-31T14:17:54Z</time><name>PT12817</name></trkpt>
<trkpt lat="53.197502" lon="-1.702735"><ele>270</ele><time>2020-01-31T14:17:54Z</time><name>PT12818</name></trkpt>
<trkpt lat="53.197496" lon="-1.702727"><ele>270</ele><time>2020-01-31T14:17:55Z</time><name>PT12819</name></trkpt>
<trkpt lat="53.197490" lon="-1.702723"><ele>270</ele><time>2020-01-31T14:17:57Z</time><name>PT12820</name></trkpt>
<trkpt lat="53.197484" lon="-1.702721"><ele>270</ele><time>2020-01-31T14:17:57Z</time><name>PT12821</name></trkpt>
<trkpt lat="53.197477" lon="-1.702724"><ele>269</ele><time>2020-01-31T14:17:58Z</time><name>PT12822</name></trkpt>
<trkpt lat="53.197470" lon="-1.702721"><ele>269</ele><time>2020-01-31T14:18:00Z</time><name>PT12823</name></trkpt>
<trkpt lat="53.197466" lon="-1.702716"><ele>269</ele><time>2020-01-31T14:18:00Z</time><name>PT12824</name></trkpt>
<trkpt lat="53.197463" lon="-1.702709"><ele>269</ele><time>2020-01-31T14:18:01Z</time><name>PT12825</name></trkpt>
<trkpt lat="53.197463" lon="-1.702699"><ele>269</ele><time>2020-01-31T14:18:03Z</time><name>PT12826</name></trkpt>
<trkpt lat="53.197463" lon="-1.702689"><ele>269</ele><time>2020-01-31T14:18:03Z</time><name>PT12827</name></trkpt>
<trkpt lat="53.197462" lon="-1.702676"><ele>269</ele><time>2020-01-31T14:18:04Z</time><name>PT12828</name></trkpt>
<trkpt lat="53.197463" lon="-1.702666"><ele>269</ele><time>2020-01-31T14:18:06Z</time><name>PT12829</name></trkpt>
<trkpt lat="53.197464" lon="-1.702657"><ele>269</ele><time>2020-01-31T14:18:06Z</time><name>PT12830</name></trkpt>
<trkpt lat="53.197467" lon="-1.702648"><ele>269</ele><time>2020-01-31T14:18:07Z</time><name>PT12831</name></trkpt>
<trkpt lat="53.197469" lon="-1.702642"><ele>269</ele><time>2020-01-31T14:18:09Z</time><name>PT12832</name></trkpt>
<trkpt lat="53.197470" lon="-1.702637"><ele>268</ele><time>2020-01-31T14:18:09Z</time><name>PT12833</name></trkpt>
<trkpt lat="53.197472" lon="-1.702632"><ele>268</ele><time>2020-01-31T14:18:10Z</time><name>PT12834</name></trkpt>
<trkpt lat="53.197471" lon="-1.702622"><ele>269</ele><time>2020-01-31T14:18:12Z</time><name>PT12835</name></trkpt>
<trkpt lat="53.197471" lon="-1.702611"><ele>268</ele><time>2020-01-31T14:18:12Z</time><name>PT12836</name></trkpt>
<trkpt lat="53.197474" lon="-1.702606"><ele>268</ele><time>2020-01-31T14:18:13Z</time><name>PT12837</name></trkpt>
<trkpt lat="53.197474" lon="-1.702594"><ele>268</ele><time>2020-01-31T14:18:14Z</time><name>PT12838</name></trkpt>
<trkpt lat="53.197474" lon="-1.702581"><ele>268</ele><time>2020-01-31T14:18:15Z</time><name>PT12839</name></trkpt>
<trkpt lat="53.197477" lon="-1.702563"><ele>268</ele><time>2020-01-31T14:18:16Z</time><name>PT12840</name></trkpt>
<trkpt lat="53.197479" lon="-1.702547"><ele>268</ele><time>2020-01-31T14:18:17Z</time><name>PT12841</name></trkpt>
<trkpt lat="53.197482" lon="-1.702530"><ele>268</ele><time>2020-01-31T14:18:18Z</time><name>PT12842</name></trkpt>
<trkpt lat="53.197482" lon="-1.702509"><ele>269</ele><time>2020-01-31T14:18:19Z</time><name>PT12843</name></trkpt>
<trkpt lat="53.197481" lon="-1.702494"><ele>269</ele><time>2020-01-31T14:18:21Z</time><name>PT12844</name></trkpt>
<trkpt lat="53.197482" lon="-1.702479"><ele>269</ele><time>2020-01-31T14:18:21Z</time><name>PT12845</name></trkpt>
<trkpt lat="53.197484" lon="-1.702475"><ele>269</ele><time>2020-01-31T14:18:23Z</time><name>PT12846</name></trkpt>
<trkpt lat="53.197485" lon="-1.702469"><ele>269</ele><time>2020-01-31T14:18:24Z</time><name>PT12847</name></trkpt>
<trkpt lat="53.197485" lon="-1.702459"><ele>268</ele><time>2020-01-31T14:18:24Z</time><name>PT12848</name></trkpt>
<trkpt lat="53.197480" lon="-1.702453"><ele>268</ele><time>2020-01-31T14:18:25Z</time><name>PT12849</name></trkpt>
<trkpt lat="53.197477" lon="-1.702448"><ele>268</ele><time>2020-01-31T14:18:27Z</time><name>PT12850</name></trkpt>
<trkpt lat="53.197474" lon="-1.702445"><ele>268</ele><time>2020-01-31T14:18:27Z</time><name>PT12851</name></trkpt>
<trkpt lat="53.197472" lon="-1.702444"><ele>268</ele><time>2020-01-31T14:18:28Z</time><name>PT12852</name></trkpt>
<trkpt lat="53.197471" lon="-1.702444"><ele>268</ele><time>2020-01-31T14:18:30Z</time><name>PT12853</name></trkpt>
<trkpt lat="53.197469" lon="-1.702441"><ele>268</ele><time>2020-01-31T14:18:30Z</time><name>PT12854</name></trkpt>
<trkpt lat="53.197469" lon="-1.702435"><ele>268</ele><time>2020-01-31T14:18:31Z</time><name>PT12855</name></trkpt>
<trkpt lat="53.197459" lon="-1.702439"><ele>266</ele><time>2020-01-31T14:18:33Z</time><name>PT12856</name></trkpt>
<trkpt lat="53.197450" lon="-1.702434"><ele>266</ele><time>2020-01-31T14:18:33Z</time><name>PT12857</name></trkpt>
<trkpt lat="53.197446" lon="-1.702430"><ele>266</ele><time>2020-01-31T14:18:34Z</time><name>PT12858</name></trkpt>
<trkpt lat="53.197445" lon="-1.702430"><ele>267</ele><time>2020-01-31T14:18:36Z</time><name>PT12859</name></trkpt>
<trkpt lat="53.197446" lon="-1.702429"><ele>267</ele><time>2020-01-31T14:18:36Z</time><name>PT12860</name></trkpt>
<trkpt lat="53.197445" lon="-1.702423"><ele>267</ele><time>2020-01-31T14:18:37Z</time><name>PT12861</name></trkpt>
<trkpt lat="53.197445" lon="-1.702421"><ele>267</ele><time>2020-01-31T14:18:39Z</time><name>PT12862</name></trkpt>
<trkpt lat="53.197446" lon="-1.702419"><ele>268</ele><time>2020-01-31T14:18:39Z</time><name>PT12863</name></trkpt>
<trkpt lat="53.197447" lon="-1.702418"><ele>268</ele><time>2020-01-31T14:18:40Z</time><name>PT12864</name></trkpt>
<trkpt lat="53.197446" lon="-1.702413"><ele>268</ele><time>2020-01-31T14:18:48Z</time><name>PT12865</name></trkpt>
<trkpt lat="53.197437" lon="-1.702407"><ele>268</ele><time>2020-01-31T14:18:49Z</time><name>PT12866</name></trkpt>
<trkpt lat="53.197428" lon="-1.702397"><ele>268</ele><time>2020-01-31T14:18:51Z</time><name>PT12867</name></trkpt>
<trkpt lat="53.197418" lon="-1.702388"><ele>268</ele><time>2020-01-31T14:18:51Z</time><name>PT12868</name></trkpt>
<trkpt lat="53.197406" lon="-1.702380"><ele>268</ele><time>2020-01-31T14:18:52Z</time><name>PT12869</name></trkpt>
<trkpt lat="53.197394" lon="-1.702369"><ele>267</ele><time>2020-01-31T14:18:54Z</time><name>PT12870</name></trkpt>
<trkpt lat="53.197385" lon="-1.702358"><ele>267</ele><time>2020-01-31T14:18:54Z</time><name>PT12871</name></trkpt>
<trkpt lat="53.197374" lon="-1.702354"><ele>267</ele><time>2020-01-31T14:18:55Z</time><name>PT12872</name></trkpt>
<trkpt lat="53.197363" lon="-1.702349"><ele>267</ele><time>2020-01-31T14:18:57Z</time><name>PT12873</name></trkpt>
<trkpt lat="53.197352" lon="-1.702344"><ele>267</ele><time>2020-01-31T14:18:57Z</time><name>PT12874</name></trkpt>
<trkpt lat="53.197340" lon="-1.702339"><ele>267</ele><time>2020-01-31T14:18:58Z</time><name>PT12875</name></trkpt>
<trkpt lat="53.197329" lon="-1.702335"><ele>266</ele><time>2020-01-31T14:19:00Z</time><name>PT12876</name></trkpt>
<trkpt lat="53.197316" lon="-1.702332"><ele>266</ele><time>2020-01-31T14:19:00Z</time><name>PT12877</name></trkpt>
<trkpt lat="53.197303" lon="-1.702331"><ele>266</ele><time>2020-01-31T14:19:01Z</time><name>PT12878</name></trkpt>
<trkpt lat="53.197291" lon="-1.702324"><ele>265</ele><time>2020-01-31T14:19:03Z</time><name>PT12879</name></trkpt>
<trkpt lat="53.197276" lon="-1.702316"><ele>265</ele><time>2020-01-31T14:19:03Z</time><name>PT12880</name></trkpt>
<trkpt lat="53.197263" lon="-1.702309"><ele>265</ele><time>2020-01-31T14:19:04Z</time><name>PT12881</name></trkpt>
<trkpt lat="53.197251" lon="-1.702302"><ele>265</ele><time>2020-01-31T14:19:06Z</time><name>PT12882</name></trkpt>
<trkpt lat="53.197239" lon="-1.702300"><ele>264</ele><time>2020-01-31T14:19:06Z</time><name>PT12883</name></trkpt>
<trkpt lat="53.197227" lon="-1.702295"><ele>264</ele><time>2020-01-31T14:19:07Z</time><name>PT12884</name></trkpt>
<trkpt lat="53.197215" lon="-1.702291"><ele>264</ele><time>2020-01-31T14:19:09Z</time><name>PT12885</name></trkpt>
<trkpt lat="53.197203" lon="-1.702288"><ele>264</ele><time>2020-01-31T14:19:09Z</time><name>PT12886</name></trkpt>
<trkpt lat="53.197190" lon="-1.702282"><ele>264</ele><time>2020-01-31T14:19:10Z</time><name>PT12887</name></trkpt>
<trkpt lat="53.197177" lon="-1.702276"><ele>264</ele><time>2020-01-31T14:19:12Z</time><name>PT12888</name></trkpt>
<trkpt lat="53.197164" lon="-1.702271"><ele>263</ele><time>2020-01-31T14:19:12Z</time><name>PT12889</name></trkpt>
<trkpt lat="53.197153" lon="-1.702266"><ele>263</ele><time>2020-01-31T14:19:13Z</time><name>PT12890</name></trkpt>
<trkpt lat="53.197141" lon="-1.702262"><ele>263</ele><time>2020-01-31T14:19:15Z</time><name>PT12891</name></trkpt>
<trkpt lat="53.197129" lon="-1.702257"><ele>263</ele><time>2020-01-31T14:19:15Z</time><name>PT12892</name></trkpt>
<trkpt lat="53.197117" lon="-1.702254"><ele>263</ele><time>2020-01-31T14:19:16Z</time><name>PT12893</name></trkpt>
<trkpt lat="53.197105" lon="-1.702254"><ele>263</ele><time>2020-01-31T14:19:17Z</time><name>PT12894</name></trkpt>
<trkpt lat="53.197093" lon="-1.702252"><ele>263</ele><time>2020-01-31T14:19:18Z</time><name>PT12895</name></trkpt>
<trkpt lat="53.197082" lon="-1.702251"><ele>263</ele><time>2020-01-31T14:19:19Z</time><name>PT12896</name></trkpt>
<trkpt lat="53.197071" lon="-1.702245"><ele>263</ele><time>2020-01-31T14:19:21Z</time><name>PT12897</name></trkpt>
<trkpt lat="53.197058" lon="-1.702239"><ele>262</ele><time>2020-01-31T14:19:21Z</time><name>PT12898</name></trkpt>
<trkpt lat="53.197047" lon="-1.702239"><ele>262</ele><time>2020-01-31T14:19:22Z</time><name>PT12899</name></trkpt>
<trkpt lat="53.197037" lon="-1.702240"><ele>262</ele><time>2020-01-31T14:19:24Z</time><name>PT12900</name></trkpt>
<trkpt lat="53.197027" lon="-1.702237"><ele>262</ele><time>2020-01-31T14:19:24Z</time><name>PT12901</name></trkpt>
<trkpt lat="53.197018" lon="-1.702233"><ele>262</ele><time>2020-01-31T14:19:25Z</time><name>PT12902</name></trkpt>
<trkpt lat="53.197007" lon="-1.702232"><ele>262</ele><time>2020-01-31T14:19:27Z</time><name>PT12903</name></trkpt>
<trkpt lat="53.196998" lon="-1.702233"><ele>261</ele><time>2020-01-31T14:19:27Z</time><name>PT12904</name></trkpt>
<trkpt lat="53.196987" lon="-1.702227"><ele>261</ele><time>2020-01-31T14:19:28Z</time><name>PT12905</name></trkpt>
<trkpt lat="53.196975" lon="-1.702225"><ele>261</ele><time>2020-01-31T14:19:30Z</time><name>PT12906</name></trkpt>
<trkpt lat="53.196966" lon="-1.702226"><ele>261</ele><time>2020-01-31T14:19:30Z</time><name>PT12907</name></trkpt>
<trkpt lat="53.196956" lon="-1.702225"><ele>261</ele><time>2020-01-31T14:19:31Z</time><name>PT12908</name></trkpt>
<trkpt lat="53.196946" lon="-1.702222"><ele>260</ele><time>2020-01-31T14:19:33Z</time><name>PT12909</name></trkpt>
<trkpt lat="53.196934" lon="-1.702216"><ele>260</ele><time>2020-01-31T14:19:33Z</time><name>PT12910</name></trkpt>
<trkpt lat="53.196920" lon="-1.702208"><ele>260</ele><time>2020-01-31T14:19:34Z</time><name>PT12911</name></trkpt>
<trkpt lat="53.196908" lon="-1.702201"><ele>260</ele><time>2020-01-31T14:19:36Z</time><name>PT12912</name></trkpt>
<trkpt lat="53.196898" lon="-1.702201"><ele>260</ele><time>2020-01-31T14:19:36Z</time><name>PT12913</name></trkpt>
<trkpt lat="53.196887" lon="-1.702201"><ele>260</ele><time>2020-01-31T14:19:37Z</time><name>PT12914</name></trkpt>
<trkpt lat="53.196876" lon="-1.702201"><ele>260</ele><time>2020-01-31T14:19:39Z</time><name>PT12915</name></trkpt>
<trkpt lat="53.196866" lon="-1.702202"><ele>260</ele><time>2020-01-31T14:19:39Z</time><name>PT12916</name></trkpt>
<trkpt lat="53.196853" lon="-1.702200"><ele>260</ele><time>2020-01-31T14:19:40Z</time><name>PT12917</name></trkpt>
<trkpt lat="53.196841" lon="-1.702193"><ele>260</ele><time>2020-01-31T14:19:42Z</time><name>PT12918</name></trkpt>
<trkpt lat="53.196827" lon="-1.702187"><ele>260</ele><time>2020-01-31T14:19:42Z</time><name>PT12919</name></trkpt>
<trkpt lat="53.196813" lon="-1.702181"><ele>259</ele><time>2020-01-31T14:19:43Z</time><name>PT12920</name></trkpt>
<trkpt lat="53.196800" lon="-1.702178"><ele>259</ele><time>2020-01-31T14:19:45Z</time><name>PT12921</name></trkpt>
<trkpt lat="53.196789" lon="-1.702180"><ele>259</ele><time>2020-01-31T14:19:45Z</time><name>PT12922</name></trkpt>
<trkpt lat="53.196778" lon="-1.702179"><ele>259</ele><time>2020-01-31T14:19:46Z</time><name>PT12923</name></trkpt>
<trkpt lat="53.196765" lon="-1.702176"><ele>259</ele><time>2020-01-31T14:19:48Z</time><name>PT12924</name></trkpt>
<trkpt lat="53.196753" lon="-1.702175"><ele>259</ele><time>2020-01-31T14:19:48Z</time><name>PT12925</name></trkpt>
<trkpt lat="53.196742" lon="-1.702174"><ele>259</ele><time>2020-01-31T14:19:49Z</time><name>PT12926</name></trkpt>
<trkpt lat="53.196730" lon="-1.702174"><ele>258</ele><time>2020-01-31T14:19:51Z</time><name>PT12927</name></trkpt>
<trkpt lat="53.196717" lon="-1.702175"><ele>258</ele><time>2020-01-31T14:19:51Z</time><name>PT12928</name></trkpt>
<trkpt lat="53.196704" lon="-1.702173"><ele>257</ele><time>2020-01-31T14:19:52Z</time><name>PT12929</name></trkpt>
<trkpt lat="53.196688" lon="-1.702167"><ele>258</ele><time>2020-01-31T14:19:54Z</time><name>PT12930</name></trkpt>
<trkpt lat="53.196675" lon="-1.702164"><ele>257</ele><time>2020-01-31T14:19:54Z</time><name>PT12931</name></trkpt>
<trkpt lat="53.196663" lon="-1.702158"><ele>257</ele><time>2020-01-31T14:19:55Z</time><name>PT12932</name></trkpt>
<trkpt lat="53.196651" lon="-1.702152"><ele>257</ele><time>2020-01-31T14:19:57Z</time><name>PT12933</name></trkpt>
<trkpt lat="53.196638" lon="-1.702147"><ele>257</ele><time>2020-01-31T14:19:57Z</time><name>PT12934</name></trkpt>
<trkpt lat="53.196626" lon="-1.702144"><ele>257</ele><time>2020-01-31T14:19:58Z</time><name>PT12935</name></trkpt>
<trkpt lat="53.196615" lon="-1.702137"><ele>256</ele><time>2020-01-31T14:20:00Z</time><name>PT12936</name></trkpt>
<trkpt lat="53.196605" lon="-1.702131"><ele>256</ele><time>2020-01-31T14:20:00Z</time><name>PT12937</name></trkpt>
<trkpt lat="53.196593" lon="-1.702124"><ele>256</ele><time>2020-01-31T14:20:01Z</time><name>PT12938</name></trkpt>
<trkpt lat="53.196582" lon="-1.702121"><ele>256</ele><time>2020-01-31T14:20:03Z</time><name>PT12939</name></trkpt>
<trkpt lat="53.196568" lon="-1.702116"><ele>256</ele><time>2020-01-31T14:20:03Z</time><name>PT12940</name></trkpt>
<trkpt lat="53.196555" lon="-1.702115"><ele>255</ele><time>2020-01-31T14:20:04Z</time><name>PT12941</name></trkpt>
<trkpt lat="53.196542" lon="-1.702112"><ele>255</ele><time>2020-01-31T14:20:06Z</time><name>PT12942</name></trkpt>
<trkpt lat="53.196529" lon="-1.702106"><ele>255</ele><time>2020-01-31T14:20:06Z</time><name>PT12943</name></trkpt>
<trkpt lat="53.196516" lon="-1.702102"><ele>255</ele><time>2020-01-31T14:20:07Z</time><name>PT12944</name></trkpt>
<trkpt lat="53.196502" lon="-1.702097"><ele>255</ele><time>2020-01-31T14:20:09Z</time><name>PT12945</name></trkpt>
<trkpt lat="53.196490" lon="-1.702091"><ele>254</ele><time>2020-01-31T14:20:09Z</time><name>PT12946</name></trkpt>
<trkpt lat="53.196479" lon="-1.702086"><ele>254</ele><time>2020-01-31T14:20:10Z</time><name>PT12947</name></trkpt>
<trkpt lat="53.196468" lon="-1.702084"><ele>254</ele><time>2020-01-31T14:20:12Z</time><name>PT12948</name></trkpt>
<trkpt lat="53.196456" lon="-1.702083"><ele>254</ele><time>2020-01-31T14:20:12Z</time><name>PT12949</name></trkpt>
<trkpt lat="53.196444" lon="-1.702079"><ele>254</ele><time>2020-01-31T14:20:13Z</time><name>PT12950</name></trkpt>
<trkpt lat="53.196432" lon="-1.702076"><ele>253</ele><time>2020-01-31T14:20:15Z</time><name>PT12951</name></trkpt>
<trkpt lat="53.196421" lon="-1.702070"><ele>254</ele><time>2020-01-31T14:20:15Z</time><name>PT12952</name></trkpt>
<trkpt lat="53.196408" lon="-1.702063"><ele>253</ele><time>2020-01-31T14:20:16Z</time><name>PT12953</name></trkpt>
<trkpt lat="53.196393" lon="-1.702055"><ele>253</ele><time>2020-01-31T14:20:18Z</time><name>PT12954</name></trkpt>
<trkpt lat="53.196379" lon="-1.702047"><ele>253</ele><time>2020-01-31T14:20:18Z</time><name>PT12955</name></trkpt>
<trkpt lat="53.196370" lon="-1.702042"><ele>253</ele><time>2020-01-31T14:20:19Z</time><name>PT12956</name></trkpt>
<trkpt lat="53.196359" lon="-1.702038"><ele>253</ele><time>2020-01-31T14:20:21Z</time><name>PT12957</name></trkpt>
<trkpt lat="53.196348" lon="-1.702034"><ele>253</ele><time>2020-01-31T14:20:21Z</time><name>PT12958</name></trkpt>
<trkpt lat="53.196336" lon="-1.702031"><ele>253</ele><time>2020-01-31T14:20:22Z</time><name>PT12959</name></trkpt>
<trkpt lat="53.196324" lon="-1.702024"><ele>253</ele><time>2020-01-31T14:20:24Z</time><name>PT12960</name></trkpt>
<trkpt lat="53.196313" lon="-1.702017"><ele>253</ele><time>2020-01-31T14:20:24Z</time><name>PT12961</name></trkpt>
<trkpt lat="53.196300" lon="-1.702012"><ele>252</ele><time>2020-01-31T14:20:25Z</time><name>PT12962</name></trkpt>
<trkpt lat="53.196289" lon="-1.702007"><ele>252</ele><time>2020-01-31T14:20:27Z</time><name>PT12963</name></trkpt>
<trkpt lat="53.196280" lon="-1.702002"><ele>252</ele><time>2020-01-31T14:20:27Z</time><name>PT12964</name></trkpt>
<trkpt lat="53.196269" lon="-1.701996"><ele>252</ele><time>2020-01-31T14:20:28Z</time><name>PT12965</name></trkpt>
<trkpt lat="53.196259" lon="-1.701989"><ele>252</ele><time>2020-01-31T14:20:30Z</time><name>PT12966</name></trkpt>
<trkpt lat="53.196250" lon="-1.701982"><ele>252</ele><time>2020-01-31T14:20:30Z</time><name>PT12967</name></trkpt>
<trkpt lat="53.196242" lon="-1.701976"><ele>252</ele><time>2020-01-31T14:20:31Z</time><name>PT12968</name></trkpt>
<trkpt lat="53.196231" lon="-1.701963"><ele>252</ele><time>2020-01-31T14:20:33Z</time><name>PT12969</name></trkpt>
<trkpt lat="53.196221" lon="-1.701956"><ele>252</ele><time>2020-01-31T14:20:33Z</time><name>PT12970</name></trkpt>
<trkpt lat="53.196212" lon="-1.701951"><ele>252</ele><time>2020-01-31T14:20:34Z</time><name>PT12971</name></trkpt>
<trkpt lat="53.196202" lon="-1.701950"><ele>251</ele><time>2020-01-31T14:20:36Z</time><name>PT12972</name></trkpt>
<trkpt lat="53.196191" lon="-1.701949"><ele>251</ele><time>2020-01-31T14:20:36Z</time><name>PT12973</name></trkpt>
<trkpt lat="53.196182" lon="-1.701948"><ele>251</ele><time>2020-01-31T14:20:37Z</time><name>PT12974</name></trkpt>
<trkpt lat="53.196175" lon="-1.701951"><ele>251</ele><time>2020-01-31T14:20:39Z</time><name>PT12975</name></trkpt>
<trkpt lat="53.196164" lon="-1.701949"><ele>251</ele><time>2020-01-31T14:20:39Z</time><name>PT12976</name></trkpt>
<trkpt lat="53.196150" lon="-1.701946"><ele>251</ele><time>2020-01-31T14:20:40Z</time><name>PT12977</name></trkpt>
<trkpt lat="53.196138" lon="-1.701943"><ele>251</ele><time>2020-01-31T14:20:42Z</time><name>PT12978</name></trkpt>
<trkpt lat="53.196127" lon="-1.701940"><ele>252</ele><time>2020-01-31T14:20:42Z</time><name>PT12979</name></trkpt>
<trkpt lat="53.196113" lon="-1.701941"><ele>251</ele><time>2020-01-31T14:20:43Z</time><name>PT12980</name></trkpt>
<trkpt lat="53.196099" lon="-1.701938"><ele>251</ele><time>2020-01-31T14:20:45Z</time><name>PT12981</name></trkpt>
<trkpt lat="53.196089" lon="-1.701938"><ele>251</ele><time>2020-01-31T14:20:45Z</time><name>PT12982</name></trkpt>
<trkpt lat="53.196079" lon="-1.701936"><ele>251</ele><time>2020-01-31T14:20:46Z</time><name>PT12983</name></trkpt>
<trkpt lat="53.196070" lon="-1.701939"><ele>251</ele><time>2020-01-31T14:20:48Z</time><name>PT12984</name></trkpt>
<trkpt lat="53.196062" lon="-1.701943"><ele>251</ele><time>2020-01-31T14:20:48Z</time><name>PT12985</name></trkpt>
<trkpt lat="53.196054" lon="-1.701946"><ele>250</ele><time>2020-01-31T14:20:49Z</time><name>PT12986</name></trkpt>
<trkpt lat="53.196045" lon="-1.701945"><ele>250</ele><time>2020-01-31T14:20:51Z</time><name>PT12987</name></trkpt>
<trkpt lat="53.196036" lon="-1.701944"><ele>250</ele><time>2020-01-31T14:20:51Z</time><name>PT12988</name></trkpt>
<trkpt lat="53.196025" lon="-1.701944"><ele>250</ele><time>2020-01-31T14:20:52Z</time><name>PT12989</name></trkpt>
<trkpt lat="53.196016" lon="-1.701948"><ele>250</ele><time>2020-01-31T14:20:54Z</time><name>PT12990</name></trkpt>
<trkpt lat="53.196004" lon="-1.701952"><ele>250</ele><time>2020-01-31T14:20:54Z</time><name>PT12991</name></trkpt>
<trkpt lat="53.195995" lon="-1.701953"><ele>250</ele><time>2020-01-31T14:20:55Z</time><name>PT12992</name></trkpt>
<trkpt lat="53.195985" lon="-1.701955"><ele>250</ele><time>2020-01-31T14:20:57Z</time><name>PT12993</name></trkpt>
<trkpt lat="53.195975" lon="-1.701957"><ele>250</ele><time>2020-01-31T14:20:57Z</time><name>PT12994</name></trkpt>
<trkpt lat="53.195966" lon="-1.701956"><ele>250</ele><time>2020-01-31T14:20:58Z</time><name>PT12995</name></trkpt>
<trkpt lat="53.195955" lon="-1.701954"><ele>250</ele><time>2020-01-31T14:20:59Z</time><name>PT12996</name></trkpt>
<trkpt lat="53.195946" lon="-1.701949"><ele>250</ele><time>2020-01-31T14:21:00Z</time><name>PT12997</name></trkpt>
<trkpt lat="53.195937" lon="-1.701945"><ele>250</ele><time>2020-01-31T14:21:01Z</time><name>PT12998</name></trkpt>
<trkpt lat="53.195927" lon="-1.701940"><ele>250</ele><time>2020-01-31T14:21:02Z</time><name>PT12999</name></trkpt>
<trkpt lat="53.195917" lon="-1.701936"><ele>250</ele><time>2020-01-31T14:21:03Z</time><name>PT13000</name></trkpt>
<trkpt lat="53.195907" lon="-1.701930"><ele>250</ele><time>2020-01-31T14:21:04Z</time><name>PT13001</name></trkpt>
<trkpt lat="53.195899" lon="-1.701928"><ele>250</ele><time>2020-01-31T14:21:05Z</time><name>PT13002</name></trkpt>
<trkpt lat="53.195891" lon="-1.701930"><ele>249</ele><time>2020-01-31T14:21:06Z</time><name>PT13003</name></trkpt>
<trkpt lat="53.195883" lon="-1.701935"><ele>249</ele><time>2020-01-31T14:21:07Z</time><name>PT13004</name></trkpt>
<trkpt lat="53.195876" lon="-1.701934"><ele>249</ele><time>2020-01-31T14:21:09Z</time><name>PT13005</name></trkpt>
<trkpt lat="53.195869" lon="-1.701932"><ele>249</ele><time>2020-01-31T14:21:09Z</time><name>PT13006</name></trkpt>
<trkpt lat="53.195862" lon="-1.701935"><ele>249</ele><time>2020-01-31T14:21:10Z</time><name>PT13007</name></trkpt>
<trkpt lat="53.195854" lon="-1.701937"><ele>249</ele><time>2020-01-31T14:21:12Z</time><name>PT13008</name></trkpt>
<trkpt lat="53.195847" lon="-1.701940"><ele>249</ele><time>2020-01-31T14:21:12Z</time><name>PT13009</name></trkpt>
<trkpt lat="53.195839" lon="-1.701938"><ele>248</ele><time>2020-01-31T14:21:13Z</time><name>PT13010</name></trkpt>
<trkpt lat="53.195831" lon="-1.701934"><ele>249</ele><time>2020-01-31T14:21:15Z</time><name>PT13011</name></trkpt>
<trkpt lat="53.195823" lon="-1.701934"><ele>248</ele><time>2020-01-31T14:21:15Z</time><name>PT13012</name></trkpt>
<trkpt lat="53.195816" lon="-1.701933"><ele>248</ele><time>2020-01-31T14:21:16Z</time><name>PT13013</name></trkpt>
<trkpt lat="53.195808" lon="-1.701927"><ele>248</ele><time>2020-01-31T14:21:18Z</time><name>PT13014</name></trkpt>
<trkpt lat="53.195802" lon="-1.701925"><ele>247</ele><time>2020-01-31T14:21:18Z</time><name>PT13015</name></trkpt>
<trkpt lat="53.195793" lon="-1.701925"><ele>246</ele><time>2020-01-31T14:21:19Z</time><name>PT13016</name></trkpt>
<trkpt lat="53.195788" lon="-1.701927"><ele>246</ele><time>2020-01-31T14:21:21Z</time><name>PT13017</name></trkpt>
<trkpt lat="53.195779" lon="-1.701923"><ele>246</ele><time>2020-01-31T14:21:21Z</time><name>PT13018</name></trkpt>
<trkpt lat="53.195771" lon="-1.701917"><ele>246</ele><time>2020-01-31T14:21:22Z</time><name>PT13019</name></trkpt>
<trkpt lat="53.195762" lon="-1.701906"><ele>245</ele><time>2020-01-31T14:21:24Z</time><name>PT13020</name></trkpt>
<trkpt lat="53.195751" lon="-1.701901"><ele>245</ele><time>2020-01-31T14:21:24Z</time><name>PT13021</name></trkpt>
<trkpt lat="53.195740" lon="-1.701899"><ele>245</ele><time>2020-01-31T14:21:25Z</time><name>PT13022</name></trkpt>
<trkpt lat="53.195728" lon="-1.701901"><ele>245</ele><time>2020-01-31T14:21:27Z</time><name>PT13023</name></trkpt>
<trkpt lat="53.195717" lon="-1.701905"><ele>245</ele><time>2020-01-31T14:21:27Z</time><name>PT13024</name></trkpt>
<trkpt lat="53.195707" lon="-1.701904"><ele>244</ele><time>2020-01-31T14:21:28Z</time><name>PT13025</name></trkpt>
<trkpt lat="53.195696" lon="-1.701902"><ele>244</ele><time>2020-01-31T14:21:30Z</time><name>PT13026</name></trkpt>
<trkpt lat="53.195688" lon="-1.701900"><ele>244</ele><time>2020-01-31T14:21:30Z</time><name>PT13027</name></trkpt>
<trkpt lat="53.195679" lon="-1.701902"><ele>243</ele><time>2020-01-31T14:21:31Z</time><name>PT13028</name></trkpt>
<trkpt lat="53.195671" lon="-1.701902"><ele>243</ele><time>2020-01-31T14:21:33Z</time><name>PT13029</name></trkpt>
<trkpt lat="53.195662" lon="-1.701903"><ele>243</ele><time>2020-01-31T14:21:33Z</time><name>PT13030</name></trkpt>
<trkpt lat="53.195654" lon="-1.701895"><ele>242</ele><time>2020-01-31T14:21:34Z</time><name>PT13031</name></trkpt>
<trkpt lat="53.195646" lon="-1.701894"><ele>242</ele><time>2020-01-31T14:21:36Z</time><name>PT13032</name></trkpt>
<trkpt lat="53.195641" lon="-1.701897"><ele>242</ele><time>2020-01-31T14:21:36Z</time><name>PT13033</name></trkpt>
<trkpt lat="53.195637" lon="-1.701891"><ele>241</ele><time>2020-01-31T14:21:37Z</time><name>PT13034</name></trkpt>
<trkpt lat="53.195628" lon="-1.701888"><ele>241</ele><time>2020-01-31T14:21:39Z</time><name>PT13035</name></trkpt>
<trkpt lat="53.195622" lon="-1.701888"><ele>241</ele><time>2020-01-31T14:21:39Z</time><name>PT13036</name></trkpt>
<trkpt lat="53.195617" lon="-1.701886"><ele>241</ele><time>2020-01-31T14:21:40Z</time><name>PT13037</name></trkpt>
<trkpt lat="53.195612" lon="-1.701888"><ele>241</ele><time>2020-01-31T14:21:42Z</time><name>PT13038</name></trkpt>
<trkpt lat="53.195608" lon="-1.701889"><ele>243</ele><time>2020-01-31T14:21:42Z</time><name>PT13039</name></trkpt>
<trkpt lat="53.195600" lon="-1.701881"><ele>243</ele><time>2020-01-31T14:21:43Z</time><name>PT13040</name></trkpt>
<trkpt lat="53.195596" lon="-1.701872"><ele>243</ele><time>2020-01-31T14:21:45Z</time><name>PT13041</name></trkpt>
<trkpt lat="53.195596" lon="-1.701871"><ele>243</ele><time>2020-01-31T14:21:45Z</time><name>PT13042</name></trkpt>
<trkpt lat="53.195595" lon="-1.701869"><ele>243</ele><time>2020-01-31T14:21:46Z</time><name>PT13043</name></trkpt>
<trkpt lat="53.195589" lon="-1.701871"><ele>243</ele><time>2020-01-31T14:21:47Z</time><name>PT13044</name></trkpt>
<trkpt lat="53.195580" lon="-1.701873"><ele>243</ele><time>2020-01-31T14:21:48Z</time><name>PT13045</name></trkpt>
<trkpt lat="53.195572" lon="-1.701875"><ele>243</ele><time>2020-01-31T14:21:49Z</time><name>PT13046</name></trkpt>
<trkpt lat="53.195564" lon="-1.701884"><ele>243</ele><time>2020-01-31T14:21:51Z</time><name>PT13047</name></trkpt>
<trkpt lat="53.195557" lon="-1.701883"><ele>243</ele><time>2020-01-31T14:21:51Z</time><name>PT13048</name></trkpt>
<trkpt lat="53.195563" lon="-1.701896"><ele>242</ele><time>2020-01-31T14:21:52Z</time><name>PT13049</name></trkpt>
<trkpt lat="53.195559" lon="-1.701893"><ele>243</ele><time>2020-01-31T14:21:54Z</time><name>PT13050</name></trkpt>
<trkpt lat="53.195557" lon="-1.701892"><ele>242</ele><time>2020-01-31T14:21:54Z</time><name>PT13051</name></trkpt>
<trkpt lat="53.195556" lon="-1.701891"><ele>243</ele><time>2020-01-31T14:21:55Z</time><name>PT13052</name></trkpt>
<trkpt lat="53.195555" lon="-1.701888"><ele>242</ele><time>2020-01-31T14:21:58Z</time><name>PT13053</name></trkpt>
<trkpt lat="53.195555" lon="-1.701889"><ele>242</ele><time>2020-01-31T14:22:00Z</time><name>PT13054</name></trkpt>
<trkpt lat="53.195554" lon="-1.701894"><ele>242</ele><time>2020-01-31T14:22:00Z</time><name>PT13055</name></trkpt>
<trkpt lat="53.195552" lon="-1.701899"><ele>242</ele><time>2020-01-31T14:22:01Z</time><name>PT13056</name></trkpt>
<trkpt lat="53.195546" lon="-1.701916"><ele>242</ele><time>2020-01-31T14:22:02Z</time><name>PT13057</name></trkpt>
<trkpt lat="53.195544" lon="-1.701919"><ele>242</ele><time>2020-01-31T14:22:03Z</time><name>PT13058</name></trkpt>
<trkpt lat="53.195543" lon="-1.701921"><ele>242</ele><time>2020-01-31T14:22:06Z</time><name>PT13059</name></trkpt>
<trkpt lat="53.195550" lon="-1.701931"><ele>242</ele><time>2020-01-31T14:22:06Z</time><name>PT13060</name></trkpt>
<trkpt lat="53.195546" lon="-1.701933"><ele>242</ele><time>2020-01-31T14:22:07Z</time><name>PT13061</name></trkpt>
<trkpt lat="53.195545" lon="-1.701937"><ele>242</ele><time>2020-01-31T14:22:09Z</time><name>PT13062</name></trkpt>
<trkpt lat="53.195550" lon="-1.701940"><ele>242</ele><time>2020-01-31T14:22:09Z</time><name>PT13063</name></trkpt>
<trkpt lat="53.195550" lon="-1.701934"><ele>242</ele><time>2020-01-31T14:22:12Z</time><name>PT13064</name></trkpt>
<trkpt lat="53.195551" lon="-1.701929"><ele>242</ele><time>2020-01-31T14:22:12Z</time><name>PT13065</name></trkpt>
<trkpt lat="53.195550" lon="-1.701927"><ele>242</ele><time>2020-01-31T14:22:13Z</time><name>PT13066</name></trkpt>
<trkpt lat="53.195549" lon="-1.701926"><ele>242</ele><time>2020-01-31T14:22:15Z</time><name>PT13067</name></trkpt>
<trkpt lat="53.195551" lon="-1.701923"><ele>242</ele><time>2020-01-31T14:22:15Z</time><name>PT13068</name></trkpt>
<trkpt lat="53.195552" lon="-1.701921"><ele>242</ele><time>2020-01-31T14:22:16Z</time><name>PT13069</name></trkpt>
<trkpt lat="53.195553" lon="-1.701922"><ele>242</ele><time>2020-01-31T14:22:17Z</time><name>PT13070</name></trkpt>
<trkpt lat="53.195553" lon="-1.701922"><ele>243</ele><time>2020-01-31T14:22:18Z</time><name>PT13071</name></trkpt>
<trkpt lat="53.195548" lon="-1.701911"><ele>241</ele><time>2020-01-31T14:22:23Z</time><name>PT13072</name></trkpt>
<trkpt lat="53.195548" lon="-1.701913"><ele>242</ele><time>2020-01-31T14:22:24Z</time><name>PT13073</name></trkpt>
<trkpt lat="53.195549" lon="-1.701912"><ele>242</ele><time>2020-01-31T14:22:25Z</time><name>PT13074</name></trkpt>
<trkpt lat="53.195554" lon="-1.701909"><ele>241</ele><time>2020-01-31T14:22:33Z</time><name>PT13075</name></trkpt>
<trkpt lat="53.195544" lon="-1.701917"><ele>241</ele><time>2020-01-31T14:22:33Z</time><name>PT13076</name></trkpt>
<trkpt lat="53.195547" lon="-1.701911"><ele>242</ele><time>2020-01-31T14:22:34Z</time><name>PT13077</name></trkpt>
<trkpt lat="53.195547" lon="-1.701909"><ele>241</ele><time>2020-01-31T14:22:36Z</time><name>PT13078</name></trkpt>
<trkpt lat="53.195542" lon="-1.701905"><ele>241</ele><time>2020-01-31T14:22:36Z</time><name>PT13079</name></trkpt>
<trkpt lat="53.195536" lon="-1.701901"><ele>241</ele><time>2020-01-31T14:22:37Z</time><name>PT13080</name></trkpt>
<trkpt lat="53.195533" lon="-1.701898"><ele>241</ele><time>2020-01-31T14:22:39Z</time><name>PT13081</name></trkpt>
<trkpt lat="53.195534" lon="-1.701900"><ele>241</ele><time>2020-01-31T14:22:39Z</time><name>PT13082</name></trkpt>
<trkpt lat="53.195529" lon="-1.701911"><ele>242</ele><time>2020-01-31T14:22:40Z</time><name>PT13083</name></trkpt>
<trkpt lat="53.195525" lon="-1.701909"><ele>242</ele><time>2020-01-31T14:22:42Z</time><name>PT13084</name></trkpt>
<trkpt lat="53.195526" lon="-1.701929"><ele>241</ele><time>2020-01-31T14:22:42Z</time><name>PT13085</name></trkpt>
<trkpt lat="53.195528" lon="-1.701934"><ele>241</ele><time>2020-01-31T14:22:43Z</time><name>PT13086</name></trkpt>
<trkpt lat="53.195532" lon="-1.701936"><ele>241</ele><time>2020-01-31T14:22:45Z</time><name>PT13087</name></trkpt>
<trkpt lat="53.195535" lon="-1.701936"><ele>241</ele><time>2020-01-31T14:22:45Z</time><name>PT13088</name></trkpt>
<trkpt lat="53.195534" lon="-1.701934"><ele>242</ele><time>2020-01-31T14:22:55Z</time><name>PT13089</name></trkpt>
<trkpt lat="53.195531" lon="-1.701917"><ele>242</ele><time>2020-01-31T14:22:57Z</time><name>PT13090</name></trkpt>
<trkpt lat="53.195528" lon="-1.701904"><ele>242</ele><time>2020-01-31T14:22:57Z</time><name>PT13091</name></trkpt>
<trkpt lat="53.195527" lon="-1.701891"><ele>242</ele><time>2020-01-31T14:22:58Z</time><name>PT13092</name></trkpt>
<trkpt lat="53.195526" lon="-1.701877"><ele>241</ele><time>2020-01-31T14:22:59Z</time><name>PT13093</name></trkpt>
<trkpt lat="53.195528" lon="-1.701861"><ele>241</ele><time>2020-01-31T14:23:00Z</time><name>PT13094</name></trkpt>
<trkpt lat="53.195527" lon="-1.701843"><ele>241</ele><time>2020-01-31T14:23:01Z</time><name>PT13095</name></trkpt>
<trkpt lat="53.195529" lon="-1.701832"><ele>240</ele><time>2020-01-31T14:23:02Z</time><name>PT13096</name></trkpt>
<trkpt lat="53.195529" lon="-1.701817"><ele>240</ele><time>2020-01-31T14:23:03Z</time><name>PT13097</name></trkpt>
<trkpt lat="53.195527" lon="-1.701805"><ele>240</ele><time>2020-01-31T14:23:04Z</time><name>PT13098</name></trkpt>
<trkpt lat="53.195525" lon="-1.701790"><ele>240</ele><time>2020-01-31T14:23:05Z</time><name>PT13099</name></trkpt>
<trkpt lat="53.195525" lon="-1.701777"><ele>240</ele><time>2020-01-31T14:23:06Z</time><name>PT13100</name></trkpt>
<trkpt lat="53.195525" lon="-1.701763"><ele>239</ele><time>2020-01-31T14:23:07Z</time><name>PT13101</name></trkpt>
<trkpt lat="53.195524" lon="-1.701751"><ele>239</ele><time>2020-01-31T14:23:08Z</time><name>PT13102</name></trkpt>
<trkpt lat="53.195527" lon="-1.701733"><ele>239</ele><time>2020-01-31T14:23:09Z</time><name>PT13103</name></trkpt>
<trkpt lat="53.195527" lon="-1.701713"><ele>239</ele><time>2020-01-31T14:23:10Z</time><name>PT13104</name></trkpt>
<trkpt lat="53.195528" lon="-1.701689"><ele>239</ele><time>2020-01-31T14:23:12Z</time><name>PT13105</name></trkpt>
<trkpt lat="53.195530" lon="-1.701666"><ele>239</ele><time>2020-01-31T14:23:12Z</time><name>PT13106</name></trkpt>
<trkpt lat="53.195530" lon="-1.701649"><ele>239</ele><time>2020-01-31T14:23:13Z</time><name>PT13107</name></trkpt>
<trkpt lat="53.195528" lon="-1.701631"><ele>239</ele><time>2020-01-31T14:23:15Z</time><name>PT13108</name></trkpt>
<trkpt lat="53.195528" lon="-1.701614"><ele>239</ele><time>2020-01-31T14:23:15Z</time><name>PT13109</name></trkpt>
<trkpt lat="53.195529" lon="-1.701598"><ele>238</ele><time>2020-01-31T14:23:16Z</time><name>PT13110</name></trkpt>
<trkpt lat="53.195529" lon="-1.701577"><ele>238</ele><time>2020-01-31T14:23:17Z</time><name>PT13111</name></trkpt>
<trkpt lat="53.195530" lon="-1.701560"><ele>238</ele><time>2020-01-31T14:23:18Z</time><name>PT13112</name></trkpt>
<trkpt lat="53.195528" lon="-1.701541"><ele>238</ele><time>2020-01-31T14:23:19Z</time><name>PT13113</name></trkpt>
<trkpt lat="53.195525" lon="-1.701524"><ele>238</ele><time>2020-01-31T14:23:21Z</time><name>PT13114</name></trkpt>
<trkpt lat="53.195523" lon="-1.701509"><ele>238</ele><time>2020-01-31T14:23:21Z</time><name>PT13115</name></trkpt>
<trkpt lat="53.195525" lon="-1.701491"><ele>238</ele><time>2020-01-31T14:23:22Z</time><name>PT13116</name></trkpt>
<trkpt lat="53.195526" lon="-1.701473"><ele>238</ele><time>2020-01-31T14:23:24Z</time><name>PT13117</name></trkpt>
<trkpt lat="53.195524" lon="-1.701455"><ele>239</ele><time>2020-01-31T14:23:24Z</time><name>PT13118</name></trkpt>
<trkpt lat="53.195522" lon="-1.701439"><ele>238</ele><time>2020-01-31T14:23:25Z</time><name>PT13119</name></trkpt>
<trkpt lat="53.195522" lon="-1.701425"><ele>238</ele><time>2020-01-31T14:23:27Z</time><name>PT13120</name></trkpt>
<trkpt lat="53.195525" lon="-1.701415"><ele>238</ele><time>2020-01-31T14:23:27Z</time><name>PT13121</name></trkpt>
<trkpt lat="53.195524" lon="-1.701402"><ele>238</ele><time>2020-01-31T14:23:28Z</time><name>PT13122</name></trkpt>
<trkpt lat="53.195525" lon="-1.701391"><ele>238</ele><time>2020-01-31T14:23:30Z</time><name>PT13123</name></trkpt>
<trkpt lat="53.195526" lon="-1.701382"><ele>238</ele><time>2020-01-31T14:23:30Z</time><name>PT13124</name></trkpt>
<trkpt lat="53.195525" lon="-1.701375"><ele>238</ele><time>2020-01-31T14:23:31Z</time><name>PT13125</name></trkpt>
<trkpt lat="53.195524" lon="-1.701381"><ele>237</ele><time>2020-01-31T14:23:33Z</time><name>PT13126</name></trkpt>
<trkpt lat="53.195524" lon="-1.701373"><ele>236</ele><time>2020-01-31T14:23:33Z</time><name>PT13127</name></trkpt>
<trkpt lat="53.195521" lon="-1.701362"><ele>237</ele><time>2020-01-31T14:23:34Z</time><name>PT13128</name></trkpt>
<trkpt lat="53.195518" lon="-1.701348"><ele>236</ele><time>2020-01-31T14:23:36Z</time><name>PT13129</name></trkpt>
<trkpt lat="53.195516" lon="-1.701335"><ele>235</ele><time>2020-01-31T14:23:36Z</time><name>PT13130</name></trkpt>
<trkpt lat="53.195515" lon="-1.701312"><ele>235</ele><time>2020-01-31T14:23:37Z</time><name>PT13131</name></trkpt>
<trkpt lat="53.195517" lon="-1.701288"><ele>235</ele><time>2020-01-31T14:23:39Z</time><name>PT13132</name></trkpt>
<trkpt lat="53.195520" lon="-1.701264"><ele>234</ele><time>2020-01-31T14:23:39Z</time><name>PT13133</name></trkpt>
<trkpt lat="53.195524" lon="-1.701245"><ele>233</ele><time>2020-01-31T14:23:40Z</time><name>PT13134</name></trkpt>
<trkpt lat="53.195524" lon="-1.701222"><ele>233</ele><time>2020-01-31T14:23:42Z</time><name>PT13135</name></trkpt>
<trkpt lat="53.195524" lon="-1.701199"><ele>233</ele><time>2020-01-31T14:23:42Z</time><name>PT13136</name></trkpt>
<trkpt lat="53.195525" lon="-1.701173"><ele>232</ele><time>2020-01-31T14:23:43Z</time><name>PT13137</name></trkpt>
<trkpt lat="53.195524" lon="-1.701149"><ele>232</ele><time>2020-01-31T14:23:45Z</time><name>PT13138</name></trkpt>
<trkpt lat="53.195525" lon="-1.701124"><ele>233</ele><time>2020-01-31T14:23:45Z</time><name>PT13139</name></trkpt>
<trkpt lat="53.195526" lon="-1.701098"><ele>233</ele><time>2020-01-31T14:23:46Z</time><name>PT13140</name></trkpt>
<trkpt lat="53.195528" lon="-1.701073"><ele>233</ele><time>2020-01-31T14:23:48Z</time><name>PT13141</name></trkpt>
<trkpt lat="53.195527" lon="-1.701054"><ele>232</ele><time>2020-01-31T14:23:48Z</time><name>PT13142</name></trkpt>
<trkpt lat="53.195526" lon="-1.701026"><ele>233</ele><time>2020-01-31T14:23:49Z</time><name>PT13143</name></trkpt>
<trkpt lat="53.195526" lon="-1.701002"><ele>233</ele><time>2020-01-31T14:23:51Z</time><name>PT13144</name></trkpt>
<trkpt lat="53.195525" lon="-1.700975"><ele>233</ele><time>2020-01-31T14:23:51Z</time><name>PT13145</name></trkpt>
<trkpt lat="53.195525" lon="-1.700951"><ele>233</ele><time>2020-01-31T14:23:52Z</time><name>PT13146</name></trkpt>
<trkpt lat="53.195524" lon="-1.700928"><ele>234</ele><time>2020-01-31T14:23:54Z</time><name>PT13147</name></trkpt>
<trkpt lat="53.195525" lon="-1.700906"><ele>234</ele><time>2020-01-31T14:23:54Z</time><name>PT13148</name></trkpt>
<trkpt lat="53.195524" lon="-1.700883"><ele>234</ele><time>2020-01-31T14:23:55Z</time><name>PT13149</name></trkpt>
<trkpt lat="53.195524" lon="-1.700859"><ele>234</ele><time>2020-01-31T14:23:57Z</time><name>PT13150</name></trkpt>
<trkpt lat="53.195522" lon="-1.700839"><ele>235</ele><time>2020-01-31T14:23:57Z</time><name>PT13151</name></trkpt>
<trkpt lat="53.195522" lon="-1.700820"><ele>235</ele><time>2020-01-31T14:23:58Z</time><name>PT13152</name></trkpt>
<trkpt lat="53.195525" lon="-1.700806"><ele>235</ele><time>2020-01-31T14:24:00Z</time><name>PT13153</name></trkpt>
<trkpt lat="53.195530" lon="-1.700789"><ele>235</ele><time>2020-01-31T14:24:00Z</time><name>PT13154</name></trkpt>
<trkpt lat="53.195533" lon="-1.700768"><ele>235</ele><time>2020-01-31T14:24:01Z</time><name>PT13155</name></trkpt>
<trkpt lat="53.195534" lon="-1.700751"><ele>234</ele><time>2020-01-31T14:24:03Z</time><name>PT13156</name></trkpt>
<trkpt lat="53.195531" lon="-1.700737"><ele>234</ele><time>2020-01-31T14:24:03Z</time><name>PT13157</name></trkpt>
<trkpt lat="53.195530" lon="-1.700714"><ele>234</ele><time>2020-01-31T14:24:04Z</time><name>PT13158</name></trkpt>
<trkpt lat="53.195531" lon="-1.700692"><ele>234</ele><time>2020-01-31T14:24:06Z</time><name>PT13159</name></trkpt>
<trkpt lat="53.195530" lon="-1.700668"><ele>234</ele><time>2020-01-31T14:24:06Z</time><name>PT13160</name></trkpt>
<trkpt lat="53.195531" lon="-1.700649"><ele>233</ele><time>2020-01-31T14:24:07Z</time><name>PT13161</name></trkpt>
<trkpt lat="53.195531" lon="-1.700628"><ele>233</ele><time>2020-01-31T14:24:09Z</time><name>PT13162</name></trkpt>
<trkpt lat="53.195530" lon="-1.700609"><ele>233</ele><time>2020-01-31T14:24:09Z</time><name>PT13163</name></trkpt>
<trkpt lat="53.195528" lon="-1.700588"><ele>233</ele><time>2020-01-31T14:24:10Z</time><name>PT13164</name></trkpt>
<trkpt lat="53.195522" lon="-1.700566"><ele>234</ele><time>2020-01-31T14:24:12Z</time><name>PT13165</name></trkpt>
<trkpt lat="53.195521" lon="-1.700540"><ele>235</ele><time>2020-01-31T14:24:12Z</time><name>PT13166</name></trkpt>
<trkpt lat="53.195522" lon="-1.700520"><ele>234</ele><time>2020-01-31T14:24:13Z</time><name>PT13167</name></trkpt>
<trkpt lat="53.195522" lon="-1.700499"><ele>234</ele><time>2020-01-31T14:24:14Z</time><name>PT13168</name></trkpt>
<trkpt lat="53.195520" lon="-1.700482"><ele>234</ele><time>2020-01-31T14:24:15Z</time><name>PT13169</name></trkpt>
<trkpt lat="53.195519" lon="-1.700461"><ele>234</ele><time>2020-01-31T14:24:16Z</time><name>PT13170</name></trkpt>
<trkpt lat="53.195520" lon="-1.700438"><ele>234</ele><time>2020-01-31T14:24:17Z</time><name>PT13171</name></trkpt>
<trkpt lat="53.195520" lon="-1.700413"><ele>234</ele><time>2020-01-31T14:24:18Z</time><name>PT13172</name></trkpt>
<trkpt lat="53.195519" lon="-1.700391"><ele>235</ele><time>2020-01-31T14:24:19Z</time><name>PT13173</name></trkpt>
<trkpt lat="53.195521" lon="-1.700366"><ele>235</ele><time>2020-01-31T14:24:21Z</time><name>PT13174</name></trkpt>
<trkpt lat="53.195523" lon="-1.700344"><ele>235</ele><time>2020-01-31T14:24:21Z</time><name>PT13175</name></trkpt>
<trkpt lat="53.195525" lon="-1.700319"><ele>235</ele><time>2020-01-31T14:24:22Z</time><name>PT13176</name></trkpt>
<trkpt lat="53.195528" lon="-1.700297"><ele>235</ele><time>2020-01-31T14:24:24Z</time><name>PT13177</name></trkpt>
<trkpt lat="53.195529" lon="-1.700275"><ele>235</ele><time>2020-01-31T14:24:24Z</time><name>PT13178</name></trkpt>
<trkpt lat="53.195532" lon="-1.700252"><ele>235</ele><time>2020-01-31T14:24:25Z</time><name>PT13179</name></trkpt>
<trkpt lat="53.195531" lon="-1.700227"><ele>235</ele><time>2020-01-31T14:24:27Z</time><name>PT13180</name></trkpt>
<trkpt lat="53.195531" lon="-1.700203"><ele>236</ele><time>2020-01-31T14:24:27Z</time><name>PT13181</name></trkpt>
<trkpt lat="53.195533" lon="-1.700176"><ele>236</ele><time>2020-01-31T14:24:28Z</time><name>PT13182</name></trkpt>
<trkpt lat="53.195535" lon="-1.700152"><ele>236</ele><time>2020-01-31T14:24:30Z</time><name>PT13183</name></trkpt>
<trkpt lat="53.195538" lon="-1.700130"><ele>235</ele><time>2020-01-31T14:24:30Z</time><name>PT13184</name></trkpt>
<trkpt lat="53.195539" lon="-1.700107"><ele>235</ele><time>2020-01-31T14:24:31Z</time><name>PT13185</name></trkpt>
<trkpt lat="53.195542" lon="-1.700083"><ele>235</ele><time>2020-01-31T14:24:33Z</time><name>PT13186</name></trkpt>
<trkpt lat="53.195543" lon="-1.700061"><ele>236</ele><time>2020-01-31T14:24:33Z</time><name>PT13187</name></trkpt>
<trkpt lat="53.195544" lon="-1.700040"><ele>236</ele><time>2020-01-31T14:24:34Z</time><name>PT13188</name></trkpt>
<trkpt lat="53.195543" lon="-1.700019"><ele>236</ele><time>2020-01-31T14:24:36Z</time><name>PT13189</name></trkpt>
<trkpt lat="53.195541" lon="-1.699993"><ele>236</ele><time>2020-01-31T14:24:36Z</time><name>PT13190</name></trkpt>
<trkpt lat="53.195544" lon="-1.699968"><ele>236</ele><time>2020-01-31T14:24:37Z</time><name>PT13191</name></trkpt>
<trkpt lat="53.195546" lon="-1.699944"><ele>235</ele><time>2020-01-31T14:24:39Z</time><name>PT13192</name></trkpt>
<trkpt lat="53.195549" lon="-1.699921"><ele>235</ele><time>2020-01-31T14:24:39Z</time><name>PT13193</name></trkpt>
<trkpt lat="53.195550" lon="-1.699900"><ele>235</ele><time>2020-01-31T14:24:40Z</time><name>PT13194</name></trkpt>
<trkpt lat="53.195551" lon="-1.699879"><ele>235</ele><time>2020-01-31T14:24:42Z</time><name>PT13195</name></trkpt>
<trkpt lat="53.195551" lon="-1.699861"><ele>234</ele><time>2020-01-31T14:24:42Z</time><name>PT13196</name></trkpt>
<trkpt lat="53.195549" lon="-1.699844"><ele>235</ele><time>2020-01-31T14:24:43Z</time><name>PT13197</name></trkpt>
<trkpt lat="53.195550" lon="-1.699825"><ele>235</ele><time>2020-01-31T14:24:45Z</time><name>PT13198</name></trkpt>
<trkpt lat="53.195550" lon="-1.699804"><ele>234</ele><time>2020-01-31T14:24:45Z</time><name>PT13199</name></trkpt>
<trkpt lat="53.195551" lon="-1.699778"><ele>235</ele><time>2020-01-31T14:24:46Z</time><name>PT13200</name></trkpt>
<trkpt lat="53.195554" lon="-1.699756"><ele>235</ele><time>2020-01-31T14:24:48Z</time><name>PT13201</name></trkpt>
<trkpt lat="53.195556" lon="-1.699731"><ele>235</ele><time>2020-01-31T14:24:48Z</time><name>PT13202</name></trkpt>
<trkpt lat="53.195558" lon="-1.699706"><ele>235</ele><time>2020-01-31T14:24:49Z</time><name>PT13203</name></trkpt>
<trkpt lat="53.195560" lon="-1.699685"><ele>235</ele><time>2020-01-31T14:24:51Z</time><name>PT13204</name></trkpt>
<trkpt lat="53.195560" lon="-1.699661"><ele>235</ele><time>2020-01-31T14:24:51Z</time><name>PT13205</name></trkpt>
<trkpt lat="53.195559" lon="-1.699639"><ele>235</ele><time>2020-01-31T14:24:52Z</time><name>PT13206</name></trkpt>
<trkpt lat="53.195561" lon="-1.699615"><ele>234</ele><time>2020-01-31T14:24:54Z</time><name>PT13207</name></trkpt>
<trkpt lat="53.195562" lon="-1.699592"><ele>234</ele><time>2020-01-31T14:24:54Z</time><name>PT13208</name></trkpt>
<trkpt lat="53.195565" lon="-1.699568"><ele>234</ele><time>2020-01-31T14:24:55Z</time><name>PT13209</name></trkpt>
<trkpt lat="53.195566" lon="-1.699543"><ele>235</ele><time>2020-01-31T14:24:57Z</time><name>PT13210</name></trkpt>
<trkpt lat="53.195565" lon="-1.699519"><ele>235</ele><time>2020-01-31T14:24:57Z</time><name>PT13211</name></trkpt>
<trkpt lat="53.195570" lon="-1.699496"><ele>235</ele><time>2020-01-31T14:24:58Z</time><name>PT13212</name></trkpt>
<trkpt lat="53.195573" lon="-1.699475"><ele>234</ele><time>2020-01-31T14:25:00Z</time><name>PT13213</name></trkpt>
<trkpt lat="53.195573" lon="-1.699450"><ele>235</ele><time>2020-01-31T14:25:00Z</time><name>PT13214</name></trkpt>
<trkpt lat="53.195575" lon="-1.699426"><ele>235</ele><time>2020-01-31T14:25:01Z</time><name>PT13215</name></trkpt>
<trkpt lat="53.195573" lon="-1.699401"><ele>235</ele><time>2020-01-31T14:25:03Z</time><name>PT13216</name></trkpt>
<trkpt lat="53.195575" lon="-1.699379"><ele>235</ele><time>2020-01-31T14:25:03Z</time><name>PT13217</name></trkpt>
<trkpt lat="53.195576" lon="-1.699353"><ele>235</ele><time>2020-01-31T14:25:04Z</time><name>PT13218</name></trkpt>
<trkpt lat="53.195576" lon="-1.699328"><ele>234</ele><time>2020-01-31T14:25:06Z</time><name>PT13219</name></trkpt>
<trkpt lat="53.195577" lon="-1.699305"><ele>234</ele><time>2020-01-31T14:25:06Z</time><name>PT13220</name></trkpt>
<trkpt lat="53.195575" lon="-1.699285"><ele>234</ele><time>2020-01-31T14:25:07Z</time><name>PT13221</name></trkpt>
<trkpt lat="53.195576" lon="-1.699264"><ele>234</ele><time>2020-01-31T14:25:09Z</time><name>PT13222</name></trkpt>
<trkpt lat="53.195576" lon="-1.699236"><ele>234</ele><time>2020-01-31T14:25:09Z</time><name>PT13223</name></trkpt>
<trkpt lat="53.195584" lon="-1.699216"><ele>234</ele><time>2020-01-31T14:25:10Z</time><name>PT13224</name></trkpt>
<trkpt lat="53.195585" lon="-1.699191"><ele>234</ele><time>2020-01-31T14:25:12Z</time><name>PT13225</name></trkpt>
<trkpt lat="53.195586" lon="-1.699168"><ele>233</ele><time>2020-01-31T14:25:12Z</time><name>PT13226</name></trkpt>
<trkpt lat="53.195592" lon="-1.699144"><ele>234</ele><time>2020-01-31T14:25:13Z</time><name>PT13227</name></trkpt>
<trkpt lat="53.195599" lon="-1.699120"><ele>233</ele><time>2020-01-31T14:25:15Z</time><name>PT13228</name></trkpt>
<trkpt lat="53.195600" lon="-1.699099"><ele>233</ele><time>2020-01-31T14:25:15Z</time><name>PT13229</name></trkpt>
<trkpt lat="53.195600" lon="-1.699076"><ele>233</ele><time>2020-01-31T14:25:16Z</time><name>PT13230</name></trkpt>
<trkpt lat="53.195591" lon="-1.699050"><ele>233</ele><time>2020-01-31T14:25:18Z</time><name>PT13231</name></trkpt>
<trkpt lat="53.195582" lon="-1.699027"><ele>233</ele><time>2020-01-31T14:25:18Z</time><name>PT13232</name></trkpt>
<trkpt lat="53.195580" lon="-1.699004"><ele>234</ele><time>2020-01-31T14:25:19Z</time><name>PT13233</name></trkpt>
<trkpt lat="53.195580" lon="-1.698980"><ele>234</ele><time>2020-01-31T14:25:21Z</time><name>PT13234</name></trkpt>
<trkpt lat="53.195579" lon="-1.698954"><ele>234</ele><time>2020-01-31T14:25:21Z</time><name>PT13235</name></trkpt>
<trkpt lat="53.195577" lon="-1.698928"><ele>234</ele><time>2020-01-31T14:25:22Z</time><name>PT13236</name></trkpt>
<trkpt lat="53.195575" lon="-1.698905"><ele>234</ele><time>2020-01-31T14:25:24Z</time><name>PT13237</name></trkpt>
<trkpt lat="53.195574" lon="-1.698885"><ele>234</ele><time>2020-01-31T14:25:24Z</time><name>PT13238</name></trkpt>
<trkpt lat="53.195574" lon="-1.698863"><ele>234</ele><time>2020-01-31T14:25:25Z</time><name>PT13239</name></trkpt>
<trkpt lat="53.195576" lon="-1.698842"><ele>235</ele><time>2020-01-31T14:25:27Z</time><name>PT13240</name></trkpt>
<trkpt lat="53.195579" lon="-1.698818"><ele>235</ele><time>2020-01-31T14:25:27Z</time><name>PT13241</name></trkpt>
<trkpt lat="53.195578" lon="-1.698792"><ele>236</ele><time>2020-01-31T14:25:28Z</time><name>PT13242</name></trkpt>
<trkpt lat="53.195580" lon="-1.698766"><ele>236</ele><time>2020-01-31T14:25:30Z</time><name>PT13243</name></trkpt>
<trkpt lat="53.195580" lon="-1.698740"><ele>236</ele><time>2020-01-31T14:25:30Z</time><name>PT13244</name></trkpt>
<trkpt lat="53.195581" lon="-1.698716"><ele>237</ele><time>2020-01-31T14:25:31Z</time><name>PT13245</name></trkpt>
<trkpt lat="53.195580" lon="-1.698694"><ele>237</ele><time>2020-01-31T14:25:33Z</time><name>PT13246</name></trkpt>
<trkpt lat="53.195578" lon="-1.698671"><ele>237</ele><time>2020-01-31T14:25:33Z</time><name>PT13247</name></trkpt>
<trkpt lat="53.195579" lon="-1.698648"><ele>237</ele><time>2020-01-31T14:25:34Z</time><name>PT13248</name></trkpt>
<trkpt lat="53.195578" lon="-1.698629"><ele>237</ele><time>2020-01-31T14:25:36Z</time><name>PT13249</name></trkpt>
<trkpt lat="53.195576" lon="-1.698603"><ele>237</ele><time>2020-01-31T14:25:36Z</time><name>PT13250</name></trkpt>
<trkpt lat="53.195575" lon="-1.698578"><ele>237</ele><time>2020-01-31T14:25:37Z</time><name>PT13251</name></trkpt>
<trkpt lat="53.195573" lon="-1.698552"><ele>237</ele><time>2020-01-31T14:25:39Z</time><name>PT13252</name></trkpt>
<trkpt lat="53.195571" lon="-1.698528"><ele>237</ele><time>2020-01-31T14:25:39Z</time><name>PT13253</name></trkpt>
<trkpt lat="53.195571" lon="-1.698506"><ele>237</ele><time>2020-01-31T14:25:40Z</time><name>PT13254</name></trkpt>
<trkpt lat="53.195570" lon="-1.698486"><ele>237</ele><time>2020-01-31T14:25:42Z</time><name>PT13255</name></trkpt>
<trkpt lat="53.195568" lon="-1.698464"><ele>237</ele><time>2020-01-31T14:25:42Z</time><name>PT13256</name></trkpt>
<trkpt lat="53.195565" lon="-1.698439"><ele>237</ele><time>2020-01-31T14:25:43Z</time><name>PT13257</name></trkpt>
<trkpt lat="53.195560" lon="-1.698419"><ele>236</ele><time>2020-01-31T14:25:45Z</time><name>PT13258</name></trkpt>
<trkpt lat="53.195558" lon="-1.698396"><ele>237</ele><time>2020-01-31T14:25:45Z</time><name>PT13259</name></trkpt>
<trkpt lat="53.195557" lon="-1.698374"><ele>236</ele><time>2020-01-31T14:25:46Z</time><name>PT13260</name></trkpt>
<trkpt lat="53.195555" lon="-1.698354"><ele>236</ele><time>2020-01-31T14:25:48Z</time><name>PT13261</name></trkpt>
<trkpt lat="53.195552" lon="-1.698336"><ele>236</ele><time>2020-01-31T14:25:48Z</time><name>PT13262</name></trkpt>
<trkpt lat="53.195547" lon="-1.698317"><ele>235</ele><time>2020-01-31T14:25:49Z</time><name>PT13263</name></trkpt>
<trkpt lat="53.195543" lon="-1.698295"><ele>235</ele><time>2020-01-31T14:25:51Z</time><name>PT13264</name></trkpt>
<trkpt lat="53.195537" lon="-1.698272"><ele>235</ele><time>2020-01-31T14:25:51Z</time><name>PT13265</name></trkpt>
<trkpt lat="53.195531" lon="-1.698252"><ele>235</ele><time>2020-01-31T14:25:52Z</time><name>PT13266</name></trkpt>
<trkpt lat="53.195527" lon="-1.698230"><ele>235</ele><time>2020-01-31T14:25:54Z</time><name>PT13267</name></trkpt>
<trkpt lat="53.195524" lon="-1.698207"><ele>235</ele><time>2020-01-31T14:25:54Z</time><name>PT13268</name></trkpt>
<trkpt lat="53.195520" lon="-1.698185"><ele>235</ele><time>2020-01-31T14:25:55Z</time><name>PT13269</name></trkpt>
<trkpt lat="53.195517" lon="-1.698165"><ele>235</ele><time>2020-01-31T14:25:57Z</time><name>PT13270</name></trkpt>
<trkpt lat="53.195514" lon="-1.698147"><ele>235</ele><time>2020-01-31T14:25:57Z</time><name>PT13271</name></trkpt>
<trkpt lat="53.195509" lon="-1.698123"><ele>235</ele><time>2020-01-31T14:25:58Z</time><name>PT13272</name></trkpt>
<trkpt lat="53.195505" lon="-1.698099"><ele>235</ele><time>2020-01-31T14:26:00Z</time><name>PT13273</name></trkpt>
<trkpt lat="53.195502" lon="-1.698077"><ele>235</ele><time>2020-01-31T14:26:00Z</time><name>PT13274</name></trkpt>
<trkpt lat="53.195499" lon="-1.698055"><ele>235</ele><time>2020-01-31T14:26:01Z</time><name>PT13275</name></trkpt>
<trkpt lat="53.195493" lon="-1.698032"><ele>235</ele><time>2020-01-31T14:26:03Z</time><name>PT13276</name></trkpt>
<trkpt lat="53.195487" lon="-1.698013"><ele>235</ele><time>2020-01-31T14:26:03Z</time><name>PT13277</name></trkpt>
<trkpt lat="53.195479" lon="-1.697998"><ele>235</ele><time>2020-01-31T14:26:04Z</time><name>PT13278</name></trkpt>
<trkpt lat="53.195470" lon="-1.697984"><ele>235</ele><time>2020-01-31T14:26:06Z</time><name>PT13279</name></trkpt>
<trkpt lat="53.195457" lon="-1.697968"><ele>236</ele><time>2020-01-31T14:26:06Z</time><name>PT13280</name></trkpt>
<trkpt lat="53.195447" lon="-1.697953"><ele>236</ele><time>2020-01-31T14:26:07Z</time><name>PT13281</name></trkpt>
<trkpt lat="53.195438" lon="-1.697936"><ele>236</ele><time>2020-01-31T14:26:09Z</time><name>PT13282</name></trkpt>
<trkpt lat="53.195429" lon="-1.697918"><ele>236</ele><time>2020-01-31T14:26:09Z</time><name>PT13283</name></trkpt>
<trkpt lat="53.195422" lon="-1.697908"><ele>235</ele><time>2020-01-31T14:26:10Z</time><name>PT13284</name></trkpt>
<trkpt lat="53.195414" lon="-1.697898"><ele>235</ele><time>2020-01-31T14:26:11Z</time><name>PT13285</name></trkpt>
<trkpt lat="53.195404" lon="-1.697887"><ele>235</ele><time>2020-01-31T14:26:12Z</time><name>PT13286</name></trkpt>
<trkpt lat="53.195395" lon="-1.697871"><ele>235</ele><time>2020-01-31T14:26:13Z</time><name>PT13287</name></trkpt>
<trkpt lat="53.195386" lon="-1.697856"><ele>235</ele><time>2020-01-31T14:26:14Z</time><name>PT13288</name></trkpt>
<trkpt lat="53.195376" lon="-1.697842"><ele>235</ele><time>2020-01-31T14:26:15Z</time><name>PT13289</name></trkpt>
<trkpt lat="53.195367" lon="-1.697831"><ele>235</ele><time>2020-01-31T14:26:16Z</time><name>PT13290</name></trkpt>
<trkpt lat="53.195359" lon="-1.697820"><ele>234</ele><time>2020-01-31T14:26:18Z</time><name>PT13291</name></trkpt>
<trkpt lat="53.195350" lon="-1.697811"><ele>234</ele><time>2020-01-31T14:26:18Z</time><name>PT13292</name></trkpt>
<trkpt lat="53.195336" lon="-1.697801"><ele>234</ele><time>2020-01-31T14:26:19Z</time><name>PT13293</name></trkpt>
<trkpt lat="53.195326" lon="-1.697790"><ele>234</ele><time>2020-01-31T14:26:21Z</time><name>PT13294</name></trkpt>
<trkpt lat="53.195314" lon="-1.697779"><ele>234</ele><time>2020-01-31T14:26:21Z</time><name>PT13295</name></trkpt>
<trkpt lat="53.195306" lon="-1.697771"><ele>233</ele><time>2020-01-31T14:26:22Z</time><name>PT13296</name></trkpt>
<trkpt lat="53.195297" lon="-1.697757"><ele>233</ele><time>2020-01-31T14:26:24Z</time><name>PT13297</name></trkpt>
<trkpt lat="53.195286" lon="-1.697742"><ele>233</ele><time>2020-01-31T14:26:24Z</time><name>PT13298</name></trkpt>
<trkpt lat="53.195277" lon="-1.697730"><ele>233</ele><time>2020-01-31T14:26:25Z</time><name>PT13299</name></trkpt>
<trkpt lat="53.195266" lon="-1.697720"><ele>232</ele><time>2020-01-31T14:26:27Z</time><name>PT13300</name></trkpt>
<trkpt lat="53.195255" lon="-1.697710"><ele>232</ele><time>2020-01-31T14:26:27Z</time><name>PT13301</name></trkpt>
<trkpt lat="53.195245" lon="-1.697699"><ele>232</ele><time>2020-01-31T14:26:28Z</time><name>PT13302</name></trkpt>
<trkpt lat="53.195235" lon="-1.697688"><ele>231</ele><time>2020-01-31T14:26:30Z</time><name>PT13303</name></trkpt>
<trkpt lat="53.195221" lon="-1.697676"><ele>231</ele><time>2020-01-31T14:26:30Z</time><name>PT13304</name></trkpt>
<trkpt lat="53.195212" lon="-1.697667"><ele>231</ele><time>2020-01-31T14:26:31Z</time><name>PT13305</name></trkpt>
<trkpt lat="53.195201" lon="-1.697658"><ele>230</ele><time>2020-01-31T14:26:33Z</time><name>PT13306</name></trkpt>
<trkpt lat="53.195192" lon="-1.697646"><ele>230</ele><time>2020-01-31T14:26:33Z</time><name>PT13307</name></trkpt>
<trkpt lat="53.195183" lon="-1.697632"><ele>230</ele><time>2020-01-31T14:26:34Z</time><name>PT13308</name></trkpt>
<trkpt lat="53.195174" lon="-1.697614"><ele>229</ele><time>2020-01-31T14:26:36Z</time><name>PT13309</name></trkpt>
<trkpt lat="53.195165" lon="-1.697599"><ele>229</ele><time>2020-01-31T14:26:36Z</time><name>PT13310</name></trkpt>
<trkpt lat="53.195154" lon="-1.697585"><ele>229</ele><time>2020-01-31T14:26:37Z</time><name>PT13311</name></trkpt>
<trkpt lat="53.195144" lon="-1.697573"><ele>229</ele><time>2020-01-31T14:26:39Z</time><name>PT13312</name></trkpt>
<trkpt lat="53.195134" lon="-1.697557"><ele>229</ele><time>2020-01-31T14:26:39Z</time><name>PT13313</name></trkpt>
<trkpt lat="53.195123" lon="-1.697541"><ele>229</ele><time>2020-01-31T14:26:40Z</time><name>PT13314</name></trkpt>
<trkpt lat="53.195114" lon="-1.697526"><ele>229</ele><time>2020-01-31T14:26:42Z</time><name>PT13315</name></trkpt>
<trkpt lat="53.195103" lon="-1.697509"><ele>229</ele><time>2020-01-31T14:26:42Z</time><name>PT13316</name></trkpt>
<trkpt lat="53.195091" lon="-1.697491"><ele>229</ele><time>2020-01-31T14:26:43Z</time><name>PT13317</name></trkpt>
<trkpt lat="53.195079" lon="-1.697473"><ele>228</ele><time>2020-01-31T14:26:45Z</time><name>PT13318</name></trkpt>
<trkpt lat="53.195069" lon="-1.697459"><ele>228</ele><time>2020-01-31T14:26:45Z</time><name>PT13319</name></trkpt>
<trkpt lat="53.195062" lon="-1.697445"><ele>227</ele><time>2020-01-31T14:26:46Z</time><name>PT13320</name></trkpt>
<trkpt lat="53.195055" lon="-1.697431"><ele>227</ele><time>2020-01-31T14:26:48Z</time><name>PT13321</name></trkpt>
<trkpt lat="53.195047" lon="-1.697415"><ele>227</ele><time>2020-01-31T14:26:48Z</time><name>PT13322</name></trkpt>
<trkpt lat="53.195025" lon="-1.697395"><ele>228</ele><time>2020-01-31T14:26:49Z</time><name>PT13323</name></trkpt>
<trkpt lat="53.195010" lon="-1.697380"><ele>229</ele><time>2020-01-31T14:26:50Z</time><name>PT13324</name></trkpt>
<trkpt lat="53.195005" lon="-1.697364"><ele>228</ele><time>2020-01-31T14:26:51Z</time><name>PT13325</name></trkpt>
<trkpt lat="53.194998" lon="-1.697350"><ele>227</ele><time>2020-01-31T14:26:52Z</time><name>PT13326</name></trkpt>
<trkpt lat="53.194987" lon="-1.697337"><ele>227</ele><time>2020-01-31T14:26:54Z</time><name>PT13327</name></trkpt>
<trkpt lat="53.194982" lon="-1.697320"><ele>227</ele><time>2020-01-31T14:26:54Z</time><name>PT13328</name></trkpt>
<trkpt lat="53.194972" lon="-1.697301"><ele>227</ele><time>2020-01-31T14:26:55Z</time><name>PT13329</name></trkpt>
<trkpt lat="53.194962" lon="-1.697291"><ele>227</ele><time>2020-01-31T14:26:57Z</time><name>PT13330</name></trkpt>
<trkpt lat="53.194946" lon="-1.697278"><ele>228</ele><time>2020-01-31T14:26:57Z</time><name>PT13331</name></trkpt>
<trkpt lat="53.194934" lon="-1.697277"><ele>228</ele><time>2020-01-31T14:26:58Z</time><name>PT13332</name></trkpt>
<trkpt lat="53.194921" lon="-1.697277"><ele>228</ele><time>2020-01-31T14:26:59Z</time><name>PT13333</name></trkpt>
<trkpt lat="53.194909" lon="-1.697280"><ele>229</ele><time>2020-01-31T14:27:00Z</time><name>PT13334</name></trkpt>
<trkpt lat="53.194897" lon="-1.697286"><ele>229</ele><time>2020-01-31T14:27:01Z</time><name>PT13335</name></trkpt>
<trkpt lat="53.194886" lon="-1.697293"><ele>229</ele><time>2020-01-31T14:27:02Z</time><name>PT13336</name></trkpt>
<trkpt lat="53.194875" lon="-1.697298"><ele>229</ele><time>2020-01-31T14:27:03Z</time><name>PT13337</name></trkpt>
<trkpt lat="53.194864" lon="-1.697303"><ele>229</ele><time>2020-01-31T14:27:04Z</time><name>PT13338</name></trkpt>
<trkpt lat="53.194850" lon="-1.697303"><ele>230</ele><time>2020-01-31T14:27:06Z</time><name>PT13339</name></trkpt>
<trkpt lat="53.194837" lon="-1.697306"><ele>230</ele><time>2020-01-31T14:27:06Z</time><name>PT13340</name></trkpt>
<trkpt lat="53.194826" lon="-1.697312"><ele>230</ele><time>2020-01-31T14:27:07Z</time><name>PT13341</name></trkpt>
<trkpt lat="53.194815" lon="-1.697320"><ele>230</ele><time>2020-01-31T14:27:09Z</time><name>PT13342</name></trkpt>
<trkpt lat="53.194802" lon="-1.697326"><ele>230</ele><time>2020-01-31T14:27:09Z</time><name>PT13343</name></trkpt>
<trkpt lat="53.194789" lon="-1.697332"><ele>229</ele><time>2020-01-31T14:27:10Z</time><name>PT13344</name></trkpt>
<trkpt lat="53.194777" lon="-1.697337"><ele>229</ele><time>2020-01-31T14:27:12Z</time><name>PT13345</name></trkpt>
<trkpt lat="53.194767" lon="-1.697342"><ele>229</ele><time>2020-01-31T14:27:12Z</time><name>PT13346</name></trkpt>
<trkpt lat="53.194755" lon="-1.697347"><ele>229</ele><time>2020-01-31T14:27:13Z</time><name>PT13347</name></trkpt>
<trkpt lat="53.194743" lon="-1.697352"><ele>229</ele><time>2020-01-31T14:27:15Z</time><name>PT13348</name></trkpt>
<trkpt lat="53.194731" lon="-1.697356"><ele>229</ele><time>2020-01-31T14:27:15Z</time><name>PT13349</name></trkpt>
<trkpt lat="53.194720" lon="-1.697362"><ele>229</ele><time>2020-01-31T14:27:16Z</time><name>PT13350</name></trkpt>
<trkpt lat="53.194708" lon="-1.697371"><ele>229</ele><time>2020-01-31T14:27:18Z</time><name>PT13351</name></trkpt>
<trkpt lat="53.194696" lon="-1.697381"><ele>228</ele><time>2020-01-31T14:27:18Z</time><name>PT13352</name></trkpt>
<trkpt lat="53.194686" lon="-1.697393"><ele>228</ele><time>2020-01-31T14:27:19Z</time><name>PT13353</name></trkpt>
<trkpt lat="53.194677" lon="-1.697405"><ele>228</ele><time>2020-01-31T14:27:21Z</time><name>PT13354</name></trkpt>
<trkpt lat="53.194669" lon="-1.697420"><ele>228</ele><time>2020-01-31T14:27:21Z</time><name>PT13355</name></trkpt>
<trkpt lat="53.194663" lon="-1.697437"><ele>228</ele><time>2020-01-31T14:27:22Z</time><name>PT13356</name></trkpt>
<trkpt lat="53.194660" lon="-1.697457"><ele>228</ele><time>2020-01-31T14:27:24Z</time><name>PT13357</name></trkpt>
<trkpt lat="53.194656" lon="-1.697475"><ele>228</ele><time>2020-01-31T14:27:24Z</time><name>PT13358</name></trkpt>
<trkpt lat="53.194654" lon="-1.697494"><ele>228</ele><time>2020-01-31T14:27:25Z</time><name>PT13359</name></trkpt></trkseg></trk></gpx>